<?xml version='1.0' encoding='UTF-8'?><gpx version="1.1" creator="JPX - https://github.com/jenetics/jpx" xmlns="http://www.topografix.com/GPX/1/1"><trk><trkseg><trkpt lat="43.5994201" lon="12.7702755"><ele>497.8333333333333</ele><time>2026-03-08T09:57:09.929Z</time></trkpt><trkpt lat="43.59949" lon="12.7701491"><ele>495.66666666666663</ele><time>2026-03-08T09:57:11.93Z</time></trkpt><trkpt lat="43.5995319" lon="12.7700836"><ele>493.5</ele><time>2026-03-08T09:57:12.929Z</time></trkpt><trkpt lat="43.5995853" lon="12.7700078"><ele>491.33333333333337</ele><time>2026-03-08T09:57:13.929Z</time></trkpt><trkpt lat="43.5996381" lon="12.7699386"><ele>489.1666666666667</ele><time>2026-03-08T09:57:14.93Z</time></trkpt><trkpt lat="43.5996972" lon="12.769873"><ele>487.0</ele><time>2026-03-08T09:57:15.929Z</time></trkpt><trkpt lat="43.5997581" lon="12.7698185"><ele>492.00000000000006</ele><time>2026-03-08T09:57:16.929Z</time></trkpt><trkpt lat="43.5998141" lon="12.7697618"><ele>497.0</ele><time>2026-03-08T09:57:17.929Z</time></trkpt><trkpt lat="43.5998652" lon="12.7697093"><ele>502.0</ele><time>2026-03-08T09:57:18.928Z</time></trkpt><trkpt lat="43.5999178" lon="12.7696593"><ele>507.0</ele><time>2026-03-08T09:57:19.928Z</time></trkpt><trkpt lat="43.6000186" lon="12.7695584"><ele>512.0</ele><time>2026-03-08T09:57:21.929Z</time></trkpt><trkpt lat="43.6000915" lon="12.7694711"><ele>517.0</ele><time>2026-03-08T09:57:23.929Z</time></trkpt><trkpt lat="43.600179" lon="12.7693794"><ele>517.0</ele><time>2026-03-08T09:57:25.928Z</time></trkpt><trkpt lat="43.600255" lon="12.7693154"><ele>517.0</ele><time>2026-03-08T09:57:27.929Z</time></trkpt><trkpt lat="43.6002949" lon="12.7692437"><ele>517.0</ele><time>2026-03-08T09:57:30.93Z</time></trkpt><trkpt lat="43.6002121" lon="12.7692966"><ele>517.0</ele><time>2026-03-08T09:57:33.929Z</time></trkpt><trkpt lat="43.6001475" lon="12.7693746"><ele>517.0</ele><time>2026-03-08T09:57:34.929Z</time></trkpt><trkpt lat="43.6000709" lon="12.7694548"><ele>517.0</ele><time>2026-03-08T09:57:35.929Z</time></trkpt><trkpt lat="43.5999923" lon="12.7695409"><ele>517.0</ele><time>2026-03-08T09:57:36.928Z</time></trkpt><trkpt lat="43.5999133" lon="12.7696371"><ele>517.0</ele><time>2026-03-08T09:57:37.929Z</time></trkpt><trkpt lat="43.5998262" lon="12.7697198"><ele>517.0</ele><time>2026-03-08T09:57:38.93Z</time></trkpt><trkpt lat="43.5997421" lon="12.7698063"><ele>517.0</ele><time>2026-03-08T09:57:39.929Z</time></trkpt><trkpt lat="43.5996613" lon="12.7699004"><ele>517.0</ele><time>2026-03-08T09:57:40.928Z</time></trkpt><trkpt lat="43.5995812" lon="12.7699966"><ele>517.0</ele><time>2026-03-08T09:57:41.928Z</time></trkpt><trkpt lat="43.5995045" lon="12.7701019"><ele>517.0</ele><time>2026-03-08T09:57:42.929Z</time></trkpt><trkpt lat="43.5994289" lon="12.7702359"><ele>517.0</ele><time>2026-03-08T09:57:43.928Z</time></trkpt><trkpt lat="43.5993634" lon="12.7703659"><ele>517.0</ele><time>2026-03-08T09:57:44.93Z</time></trkpt><trkpt lat="43.5992891" lon="12.770491"><ele>513.6</ele><time>2026-03-08T09:57:45.929Z</time></trkpt><trkpt lat="43.5992122" lon="12.7706001"><ele>510.20000000000005</ele><time>2026-03-08T09:57:46.929Z</time></trkpt><trkpt lat="43.5991263" lon="12.7706902"><ele>506.8</ele><time>2026-03-08T09:57:47.928Z</time></trkpt><trkpt lat="43.599034" lon="12.7707628"><ele>503.4</ele><time>2026-03-08T09:57:48.93Z</time></trkpt><trkpt lat="43.5989347" lon="12.7708367"><ele>500.0</ele><time>2026-03-08T09:57:49.929Z</time></trkpt><trkpt lat="43.5988481" lon="12.7708982"><ele>500.0</ele><time>2026-03-08T09:57:50.929Z</time></trkpt><trkpt lat="43.5987664" lon="12.7709687"><ele>500.0</ele><time>2026-03-08T09:57:51.928Z</time></trkpt><trkpt lat="43.5987107" lon="12.7710551"><ele>500.0</ele><time>2026-03-08T09:57:52.928Z</time></trkpt><trkpt lat="43.5986562" lon="12.7711602"><ele>500.0</ele><time>2026-03-08T09:57:53.929Z</time></trkpt><trkpt lat="43.5986075" lon="12.7712891"><ele>500.0</ele><time>2026-03-08T09:57:54.928Z</time></trkpt><trkpt lat="43.5985749" lon="12.7714239"><ele>498.4</ele><time>2026-03-08T09:57:55.929Z</time></trkpt><trkpt lat="43.5985408" lon="12.7715632"><ele>496.8</ele><time>2026-03-08T09:57:56.93Z</time></trkpt><trkpt lat="43.5985066" lon="12.7717055"><ele>495.20000000000005</ele><time>2026-03-08T09:57:57.93Z</time></trkpt><trkpt lat="43.5984882" lon="12.771837"><ele>493.6</ele><time>2026-03-08T09:57:58.93Z</time></trkpt><trkpt lat="43.5984549" lon="12.7719672"><ele>492.0</ele><time>2026-03-08T09:57:59.929Z</time></trkpt><trkpt lat="43.5984357" lon="12.7720883"><ele>492.0</ele><time>2026-03-08T09:58:00.929Z</time></trkpt><trkpt lat="43.598415" lon="12.7722219"><ele>492.00000000000006</ele><time>2026-03-08T09:58:01.929Z</time></trkpt><trkpt lat="43.5983798" lon="12.7723539"><ele>492.00000000000006</ele><time>2026-03-08T09:58:02.929Z</time></trkpt><trkpt lat="43.5983125" lon="12.7724568"><ele>492.0</ele><time>2026-03-08T09:58:03.929Z</time></trkpt><trkpt lat="43.5982227" lon="12.7725327"><ele>492.0</ele><time>2026-03-08T09:58:04.931Z</time></trkpt><trkpt lat="43.5981253" lon="12.7725945"><ele>492.0</ele><time>2026-03-08T09:58:05.928Z</time></trkpt><trkpt lat="43.5980184" lon="12.7726492"><ele>492.0</ele><time>2026-03-08T09:58:06.929Z</time></trkpt><trkpt lat="43.5979061" lon="12.7727397"><ele>492.0</ele><time>2026-03-08T09:58:07.929Z</time></trkpt><trkpt lat="43.5978036" lon="12.7728475"><ele>492.0</ele><time>2026-03-08T09:58:08.93Z</time></trkpt><trkpt lat="43.5977053" lon="12.7729546"><ele>490.6</ele><time>2026-03-08T09:58:09.929Z</time></trkpt><trkpt lat="43.5976211" lon="12.7730561"><ele>489.20000000000005</ele><time>2026-03-08T09:58:10.929Z</time></trkpt><trkpt lat="43.5975312" lon="12.7731468"><ele>487.8</ele><time>2026-03-08T09:58:11.928Z</time></trkpt><trkpt lat="43.5974542" lon="12.7732292"><ele>486.4</ele><time>2026-03-08T09:58:12.928Z</time></trkpt><trkpt lat="43.5973937" lon="12.7733149"><ele>485.0</ele><time>2026-03-08T09:58:13.93Z</time></trkpt><trkpt lat="43.5973342" lon="12.7734"><ele>485.00000000000006</ele><time>2026-03-08T09:58:14.929Z</time></trkpt><trkpt lat="43.597275" lon="12.7734695"><ele>485.0</ele><time>2026-03-08T09:58:15.929Z</time></trkpt><trkpt lat="43.597212" lon="12.7735311"><ele>485.00000000000006</ele><time>2026-03-08T09:58:16.928Z</time></trkpt><trkpt lat="43.5971497" lon="12.7735868"><ele>485.00000000000006</ele><time>2026-03-08T09:58:17.93Z</time></trkpt><trkpt lat="43.5970961" lon="12.7736392"><ele>485.0</ele><time>2026-03-08T09:58:18.928Z</time></trkpt><trkpt lat="43.5970417" lon="12.7737037"><ele>485.00000000000006</ele><time>2026-03-08T09:58:19.928Z</time></trkpt><trkpt lat="43.5969769" lon="12.7737726"><ele>485.00000000000006</ele><time>2026-03-08T09:58:20.929Z</time></trkpt><trkpt lat="43.5969156" lon="12.7738429"><ele>485.3333333333333</ele><time>2026-03-08T09:58:21.93Z</time></trkpt><trkpt lat="43.59684" lon="12.7738502"><ele>485.66666666666663</ele><time>2026-03-08T09:58:22.93Z</time></trkpt><trkpt lat="43.5967791" lon="12.773894"><ele>486.0</ele><time>2026-03-08T09:58:23.929Z</time></trkpt><trkpt lat="43.5967124" lon="12.7739517"><ele>486.33333333333337</ele><time>2026-03-08T09:58:24.928Z</time></trkpt><trkpt lat="43.5966758" lon="12.7740355"><ele>486.6666666666667</ele><time>2026-03-08T09:58:25.929Z</time></trkpt><trkpt lat="43.5966149" lon="12.7740964"><ele>487.0</ele><time>2026-03-08T09:58:26.928Z</time></trkpt><trkpt lat="43.5965378" lon="12.7741741"><ele>487.0</ele><time>2026-03-08T09:58:28.929Z</time></trkpt><trkpt lat="43.5964717" lon="12.7742263"><ele>487.00000000000006</ele><time>2026-03-08T09:58:30.93Z</time></trkpt><trkpt lat="43.5964219" lon="12.774305"><ele>487.00000000000006</ele><time>2026-03-08T09:58:33.929Z</time></trkpt><trkpt lat="43.5964919" lon="12.7741932"><ele>487.0</ele><time>2026-03-08T09:58:41.93Z</time></trkpt><trkpt lat="43.5965474" lon="12.7741328"><ele>487.0</ele><time>2026-03-08T09:58:42.93Z</time></trkpt><trkpt lat="43.5966498" lon="12.7739911"><ele>487.00000000000006</ele><time>2026-03-08T09:58:44.928Z</time></trkpt><trkpt lat="43.5967269" lon="12.7739142"><ele>487.0</ele><time>2026-03-08T09:58:45.928Z</time></trkpt><trkpt lat="43.5968107" lon="12.7738662"><ele>487.0</ele><time>2026-03-08T09:58:46.929Z</time></trkpt><trkpt lat="43.5968801" lon="12.7738404"><ele>487.0</ele><time>2026-03-08T09:58:47.929Z</time></trkpt><trkpt lat="43.5969473" lon="12.773776"><ele>487.00000000000006</ele><time>2026-03-08T09:58:49.93Z</time></trkpt><trkpt lat="43.5969032" lon="12.7736986"><ele>487.0</ele><time>2026-03-08T09:58:51.929Z</time></trkpt><trkpt lat="43.5967463" lon="12.7736949"><ele>487.0</ele><time>2026-03-08T09:58:53.929Z</time></trkpt><trkpt lat="43.5966379" lon="12.773692"><ele>487.00000000000006</ele><time>2026-03-08T09:58:54.929Z</time></trkpt><trkpt lat="43.5965323" lon="12.7736765"><ele>487.00000000000006</ele><time>2026-03-08T09:58:55.929Z</time></trkpt><trkpt lat="43.5964293" lon="12.7736675"><ele>487.0</ele><time>2026-03-08T09:58:56.929Z</time></trkpt><trkpt lat="43.5963238" lon="12.7736531"><ele>487.0</ele><time>2026-03-08T09:58:57.929Z</time></trkpt><trkpt lat="43.5962313" lon="12.7736354"><ele>482.0</ele><time>2026-03-08T09:58:58.929Z</time></trkpt><trkpt lat="43.5961281" lon="12.7736529"><ele>477.00000000000006</ele><time>2026-03-08T09:58:59.928Z</time></trkpt><trkpt lat="43.5960486" lon="12.7737093"><ele>472.00000000000006</ele><time>2026-03-08T09:59:00.93Z</time></trkpt><trkpt lat="43.5959753" lon="12.773806"><ele>467.0</ele><time>2026-03-08T09:59:01.929Z</time></trkpt><trkpt lat="43.5958975" lon="12.7739297"><ele>462.0</ele><time>2026-03-08T09:59:02.929Z</time></trkpt><trkpt lat="43.5958066" lon="12.7740402"><ele>462.0</ele><time>2026-03-08T09:59:03.929Z</time></trkpt><trkpt lat="43.5957003" lon="12.7741403"><ele>462.00000000000006</ele><time>2026-03-08T09:59:04.929Z</time></trkpt><trkpt lat="43.5956053" lon="12.7742228"><ele>462.00000000000006</ele><time>2026-03-08T09:59:05.928Z</time></trkpt><trkpt lat="43.5955287" lon="12.774295"><ele>462.0</ele><time>2026-03-08T09:59:06.93Z</time></trkpt><trkpt lat="43.5954548" lon="12.7743325"><ele>462.0</ele><time>2026-03-08T09:59:07.929Z</time></trkpt><trkpt lat="43.5953736" lon="12.7742703"><ele>462.0</ele><time>2026-03-08T09:59:09.929Z</time></trkpt><trkpt lat="43.5954373" lon="12.7741078"><ele>462.0</ele><time>2026-03-08T09:59:11.928Z</time></trkpt><trkpt lat="43.5954988" lon="12.7740055"><ele>462.0</ele><time>2026-03-08T09:59:12.928Z</time></trkpt><trkpt lat="43.5955652" lon="12.7738724"><ele>462.0</ele><time>2026-03-08T09:59:13.929Z</time></trkpt><trkpt lat="43.5956293" lon="12.7737325"><ele>462.0</ele><time>2026-03-08T09:59:14.928Z</time></trkpt><trkpt lat="43.5956905" lon="12.77358"><ele>462.0</ele><time>2026-03-08T09:59:15.929Z</time></trkpt><trkpt lat="43.5957565" lon="12.7734203"><ele>462.0</ele><time>2026-03-08T09:59:16.929Z</time></trkpt><trkpt lat="43.5958175" lon="12.7732724"><ele>462.0</ele><time>2026-03-08T09:59:17.929Z</time></trkpt><trkpt lat="43.5958811" lon="12.7731358"><ele>459.20000000000005</ele><time>2026-03-08T09:59:18.929Z</time></trkpt><trkpt lat="43.5959424" lon="12.7730224"><ele>456.40000000000003</ele><time>2026-03-08T09:59:19.929Z</time></trkpt><trkpt lat="43.5960024" lon="12.7729251"><ele>453.59999999999997</ele><time>2026-03-08T09:59:20.929Z</time></trkpt><trkpt lat="43.5960437" lon="12.7728515"><ele>450.79999999999995</ele><time>2026-03-08T09:59:21.928Z</time></trkpt><trkpt lat="43.5960067" lon="12.7727191"><ele>448.0</ele><time>2026-03-08T09:59:23.929Z</time></trkpt><trkpt lat="43.5958718" lon="12.7727653"><ele>448.0</ele><time>2026-03-08T09:59:25.93Z</time></trkpt><trkpt lat="43.5957788" lon="12.7728269"><ele>448.0</ele><time>2026-03-08T09:59:26.929Z</time></trkpt><trkpt lat="43.5956582" lon="12.77288"><ele>448.0</ele><time>2026-03-08T09:59:27.929Z</time></trkpt><trkpt lat="43.5955224" lon="12.7729208"><ele>448.0</ele><time>2026-03-08T09:59:28.929Z</time></trkpt><trkpt lat="43.5953781" lon="12.7729663"><ele>443.33333333333337</ele><time>2026-03-08T09:59:29.928Z</time></trkpt><trkpt lat="43.595218" lon="12.7730201"><ele>438.66666666666663</ele><time>2026-03-08T09:59:30.93Z</time></trkpt><trkpt lat="43.5950636" lon="12.7730734"><ele>434.0</ele><time>2026-03-08T09:59:31.929Z</time></trkpt><trkpt lat="43.5949175" lon="12.7731065"><ele>434.0</ele><time>2026-03-08T09:59:32.929Z</time></trkpt><trkpt lat="43.5947811" lon="12.7731206"><ele>434.0</ele><time>2026-03-08T09:59:33.928Z</time></trkpt><trkpt lat="43.5946378" lon="12.7731149"><ele>434.0</ele><time>2026-03-08T09:59:34.93Z</time></trkpt><trkpt lat="43.5944853" lon="12.7730803"><ele>434.0</ele><time>2026-03-08T09:59:35.929Z</time></trkpt><trkpt lat="43.5943442" lon="12.7730317"><ele>433.2</ele><time>2026-03-08T09:59:36.929Z</time></trkpt><trkpt lat="43.5942206" lon="12.7729865"><ele>432.4</ele><time>2026-03-08T09:59:37.929Z</time></trkpt><trkpt lat="43.594123" lon="12.7729327"><ele>431.6</ele><time>2026-03-08T09:59:38.928Z</time></trkpt><trkpt lat="43.5940374" lon="12.7728575"><ele>430.8</ele><time>2026-03-08T09:59:39.929Z</time></trkpt><trkpt lat="43.593962" lon="12.7727547"><ele>430.0</ele><time>2026-03-08T09:59:40.929Z</time></trkpt><trkpt lat="43.593905" lon="12.7726264"><ele>427.4</ele><time>2026-03-08T09:59:41.929Z</time></trkpt><trkpt lat="43.5938726" lon="12.7724947"><ele>424.8</ele><time>2026-03-08T09:59:42.93Z</time></trkpt><trkpt lat="43.593861" lon="12.7723547"><ele>422.20000000000005</ele><time>2026-03-08T09:59:43.928Z</time></trkpt><trkpt lat="43.5938701" lon="12.772229"><ele>419.6</ele><time>2026-03-08T09:59:44.928Z</time></trkpt><trkpt lat="43.5938791" lon="12.7721193"><ele>417.0</ele><time>2026-03-08T09:59:45.929Z</time></trkpt><trkpt lat="43.5938855" lon="12.7720052"><ele>417.0</ele><time>2026-03-08T09:59:46.929Z</time></trkpt><trkpt lat="43.5938744" lon="12.7719104"><ele>417.0</ele><time>2026-03-08T09:59:47.929Z</time></trkpt><trkpt lat="43.5938349" lon="12.7718379"><ele>417.0</ele><time>2026-03-08T09:59:48.929Z</time></trkpt><trkpt lat="43.5937188" lon="12.7717787"><ele>417.0</ele><time>2026-03-08T09:59:50.929Z</time></trkpt><trkpt lat="43.5936105" lon="12.7717516"><ele>417.0</ele><time>2026-03-08T09:59:52.928Z</time></trkpt><trkpt lat="43.5935433" lon="12.7717484"><ele>417.0</ele><time>2026-03-08T09:59:53.93Z</time></trkpt><trkpt lat="43.5934771" lon="12.7717517"><ele>416.8333333333333</ele><time>2026-03-08T09:59:54.928Z</time></trkpt><trkpt lat="43.5934091" lon="12.7717611"><ele>416.66666666666663</ele><time>2026-03-08T09:59:55.929Z</time></trkpt><trkpt lat="43.5933451" lon="12.7717863"><ele>416.5</ele><time>2026-03-08T09:59:56.929Z</time></trkpt><trkpt lat="43.5932787" lon="12.77182"><ele>416.3333333333333</ele><time>2026-03-08T09:59:57.928Z</time></trkpt><trkpt lat="43.593201" lon="12.7718538"><ele>416.16666666666663</ele><time>2026-03-08T09:59:58.929Z</time></trkpt><trkpt lat="43.5931406" lon="12.7718965"><ele>416.0</ele><time>2026-03-08T09:59:59.929Z</time></trkpt><trkpt lat="43.5930365" lon="12.772"><ele>416.0</ele><time>2026-03-08T10:00:01.929Z</time></trkpt><trkpt lat="43.5929834" lon="12.7720505"><ele>416.0</ele><time>2026-03-08T10:00:02.929Z</time></trkpt><trkpt lat="43.5929398" lon="12.7721312"><ele>416.0</ele><time>2026-03-08T10:00:03.93Z</time></trkpt><trkpt lat="43.5928862" lon="12.7722459"><ele>416.0</ele><time>2026-03-08T10:00:04.929Z</time></trkpt><trkpt lat="43.5928389" lon="12.7723752"><ele>416.0</ele><time>2026-03-08T10:00:05.929Z</time></trkpt><trkpt lat="43.5927674" lon="12.7725305"><ele>410.3333333333333</ele><time>2026-03-08T10:00:06.929Z</time></trkpt><trkpt lat="43.5926918" lon="12.7727049"><ele>404.66666666666663</ele><time>2026-03-08T10:00:07.929Z</time></trkpt><trkpt lat="43.5926159" lon="12.7728851"><ele>399.0</ele><time>2026-03-08T10:00:08.929Z</time></trkpt><trkpt lat="43.5925117" lon="12.7730609"><ele>399.0</ele><time>2026-03-08T10:00:09.929Z</time></trkpt><trkpt lat="43.5923929" lon="12.7732168"><ele>399.0</ele><time>2026-03-08T10:00:10.928Z</time></trkpt><trkpt lat="43.5922511" lon="12.7733792"><ele>399.0</ele><time>2026-03-08T10:00:11.929Z</time></trkpt><trkpt lat="43.592119" lon="12.7735341"><ele>395.25</ele><time>2026-03-08T10:00:12.929Z</time></trkpt><trkpt lat="43.5919994" lon="12.773674"><ele>391.5</ele><time>2026-03-08T10:00:13.929Z</time></trkpt><trkpt lat="43.5919008" lon="12.7738219"><ele>387.75</ele><time>2026-03-08T10:00:14.929Z</time></trkpt><trkpt lat="43.5918259" lon="12.7739759"><ele>384.0</ele><time>2026-03-08T10:00:15.929Z</time></trkpt><trkpt lat="43.591776" lon="12.7741208"><ele>384.0</ele><time>2026-03-08T10:00:16.93Z</time></trkpt><trkpt lat="43.5917831" lon="12.7742587"><ele>384.0</ele><time>2026-03-08T10:00:17.929Z</time></trkpt><trkpt lat="43.5918301" lon="12.7743681"><ele>384.0</ele><time>2026-03-08T10:00:18.929Z</time></trkpt><trkpt lat="43.5918815" lon="12.7744601"><ele>384.0</ele><time>2026-03-08T10:00:19.929Z</time></trkpt><trkpt lat="43.5919231" lon="12.7745592"><ele>384.0</ele><time>2026-03-08T10:00:20.928Z</time></trkpt><trkpt lat="43.5919071" lon="12.7746771"><ele>384.0</ele><time>2026-03-08T10:00:21.929Z</time></trkpt><trkpt lat="43.5918591" lon="12.7747976"><ele>384.0</ele><time>2026-03-08T10:00:22.929Z</time></trkpt><trkpt lat="43.5917787" lon="12.7749191"><ele>384.0</ele><time>2026-03-08T10:00:23.929Z</time></trkpt><trkpt lat="43.5916717" lon="12.7750278"><ele>384.0</ele><time>2026-03-08T10:00:24.929Z</time></trkpt><trkpt lat="43.591552" lon="12.7751156"><ele>384.0</ele><time>2026-03-08T10:00:25.93Z</time></trkpt><trkpt lat="43.591409" lon="12.775146"><ele>384.0</ele><time>2026-03-08T10:00:26.929Z</time></trkpt><trkpt lat="43.591261" lon="12.7751402"><ele>384.0</ele><time>2026-03-08T10:00:27.929Z</time></trkpt><trkpt lat="43.5911138" lon="12.7751258"><ele>384.0</ele><time>2026-03-08T10:00:28.929Z</time></trkpt><trkpt lat="43.5909496" lon="12.7750569"><ele>380.0</ele><time>2026-03-08T10:00:29.929Z</time></trkpt><trkpt lat="43.5908036" lon="12.7749971"><ele>376.0</ele><time>2026-03-08T10:00:30.93Z</time></trkpt><trkpt lat="43.5906457" lon="12.7749382"><ele>372.0</ele><time>2026-03-08T10:00:31.929Z</time></trkpt><trkpt lat="43.5905061" lon="12.7748537"><ele>372.0</ele><time>2026-03-08T10:00:32.929Z</time></trkpt><trkpt lat="43.5903871" lon="12.7747493"><ele>372.0</ele><time>2026-03-08T10:00:33.929Z</time></trkpt><trkpt lat="43.5902682" lon="12.7746612"><ele>372.0</ele><time>2026-03-08T10:00:34.929Z</time></trkpt><trkpt lat="43.5901362" lon="12.7746025"><ele>372.0</ele><time>2026-03-08T10:00:35.929Z</time></trkpt><trkpt lat="43.5900099" lon="12.7745865"><ele>370.40000000000003</ele><time>2026-03-08T10:00:36.929Z</time></trkpt><trkpt lat="43.5899061" lon="12.7746233"><ele>368.8</ele><time>2026-03-08T10:00:37.929Z</time></trkpt><trkpt lat="43.5898222" lon="12.7746818"><ele>367.2</ele><time>2026-03-08T10:00:38.929Z</time></trkpt><trkpt lat="43.5897411" lon="12.7747726"><ele>365.6</ele><time>2026-03-08T10:00:39.928Z</time></trkpt><trkpt lat="43.5896885" lon="12.7748757"><ele>364.0</ele><time>2026-03-08T10:00:40.929Z</time></trkpt><trkpt lat="43.5896566" lon="12.7749723"><ele>364.0</ele><time>2026-03-08T10:00:41.929Z</time></trkpt><trkpt lat="43.5896091" lon="12.7750503"><ele>364.0</ele><time>2026-03-08T10:00:42.929Z</time></trkpt><trkpt lat="43.5895244" lon="12.7750126"><ele>364.0</ele><time>2026-03-08T10:00:43.929Z</time></trkpt><trkpt lat="43.5894349" lon="12.774989"><ele>364.0</ele><time>2026-03-08T10:00:44.928Z</time></trkpt><trkpt lat="43.5893284" lon="12.7749738"><ele>364.0</ele><time>2026-03-08T10:00:45.93Z</time></trkpt><trkpt lat="43.5891964" lon="12.7749958"><ele>362.25</ele><time>2026-03-08T10:00:46.929Z</time></trkpt><trkpt lat="43.5890626" lon="12.7750421"><ele>360.5</ele><time>2026-03-08T10:00:47.929Z</time></trkpt><trkpt lat="43.5889475" lon="12.7750918"><ele>358.75</ele><time>2026-03-08T10:00:48.929Z</time></trkpt><trkpt lat="43.5888304" lon="12.7751594"><ele>357.0</ele><time>2026-03-08T10:00:49.929Z</time></trkpt><trkpt lat="43.58872" lon="12.7752409"><ele>353.6</ele><time>2026-03-08T10:00:50.929Z</time></trkpt><trkpt lat="43.5886131" lon="12.7753164"><ele>350.20000000000005</ele><time>2026-03-08T10:00:51.929Z</time></trkpt><trkpt lat="43.5885161" lon="12.7753588"><ele>346.8</ele><time>2026-03-08T10:00:52.929Z</time></trkpt><trkpt lat="43.588421" lon="12.7753543"><ele>343.4</ele><time>2026-03-08T10:00:53.929Z</time></trkpt><trkpt lat="43.5883297" lon="12.7752857"><ele>340.0</ele><time>2026-03-08T10:00:54.929Z</time></trkpt><trkpt lat="43.5882415" lon="12.7751926"><ele>338.75</ele><time>2026-03-08T10:00:55.929Z</time></trkpt><trkpt lat="43.5881485" lon="12.775088"><ele>337.5</ele><time>2026-03-08T10:00:56.928Z</time></trkpt><trkpt lat="43.5880517" lon="12.7749771"><ele>336.25</ele><time>2026-03-08T10:00:57.928Z</time></trkpt><trkpt lat="43.5879605" lon="12.7748575"><ele>335.0</ele><time>2026-03-08T10:00:58.93Z</time></trkpt><trkpt lat="43.5878589" lon="12.774733"><ele>334.0</ele><time>2026-03-08T10:00:59.929Z</time></trkpt><trkpt lat="43.5877597" lon="12.7746043"><ele>333.0</ele><time>2026-03-08T10:01:00.928Z</time></trkpt><trkpt lat="43.5876664" lon="12.7744767"><ele>332.0</ele><time>2026-03-08T10:01:01.929Z</time></trkpt><trkpt lat="43.5875719" lon="12.7743696"><ele>331.0</ele><time>2026-03-08T10:01:02.929Z</time></trkpt><trkpt lat="43.58748" lon="12.7742837"><ele>331.0</ele><time>2026-03-08T10:01:03.929Z</time></trkpt><trkpt lat="43.5873813" lon="12.7742318"><ele>331.0</ele><time>2026-03-08T10:01:04.929Z</time></trkpt><trkpt lat="43.5872832" lon="12.7741921"><ele>331.0</ele><time>2026-03-08T10:01:05.929Z</time></trkpt><trkpt lat="43.5871907" lon="12.7741659"><ele>331.0</ele><time>2026-03-08T10:01:06.93Z</time></trkpt><trkpt lat="43.5870998" lon="12.7741289"><ele>331.0</ele><time>2026-03-08T10:01:07.929Z</time></trkpt><trkpt lat="43.5870108" lon="12.7741032"><ele>331.0</ele><time>2026-03-08T10:01:08.929Z</time></trkpt><trkpt lat="43.5869275" lon="12.7740896"><ele>331.0</ele><time>2026-03-08T10:01:09.929Z</time></trkpt><trkpt lat="43.586859" lon="12.774082"><ele>331.0</ele><time>2026-03-08T10:01:10.928Z</time></trkpt><trkpt lat="43.5867874" lon="12.7740799"><ele>331.0</ele><time>2026-03-08T10:01:12.928Z</time></trkpt><trkpt lat="43.5867433" lon="12.7741779"><ele>331.0</ele><time>2026-03-08T10:01:14.929Z</time></trkpt><trkpt lat="43.5867347" lon="12.7742877"><ele>331.0</ele><time>2026-03-08T10:01:15.929Z</time></trkpt><trkpt lat="43.5867266" lon="12.7743911"><ele>331.0</ele><time>2026-03-08T10:01:16.928Z</time></trkpt><trkpt lat="43.5867126" lon="12.774491"><ele>331.0</ele><time>2026-03-08T10:01:17.929Z</time></trkpt><trkpt lat="43.5866946" lon="12.7745904"><ele>331.0</ele><time>2026-03-08T10:01:18.929Z</time></trkpt><trkpt lat="43.5866764" lon="12.7747"><ele>331.0</ele><time>2026-03-08T10:01:19.929Z</time></trkpt><trkpt lat="43.5866462" lon="12.7748031"><ele>331.0</ele><time>2026-03-08T10:01:20.93Z</time></trkpt><trkpt lat="43.5866038" lon="12.7749103"><ele>331.0</ele><time>2026-03-08T10:01:21.93Z</time></trkpt><trkpt lat="43.5865453" lon="12.7750138"><ele>331.0</ele><time>2026-03-08T10:01:22.93Z</time></trkpt><trkpt lat="43.5864641" lon="12.7751221"><ele>331.0</ele><time>2026-03-08T10:01:23.929Z</time></trkpt><trkpt lat="43.5863699" lon="12.7752146"><ele>331.0</ele><time>2026-03-08T10:01:24.929Z</time></trkpt><trkpt lat="43.5862624" lon="12.7753168"><ele>331.0</ele><time>2026-03-08T10:01:25.929Z</time></trkpt><trkpt lat="43.5861502" lon="12.7754349"><ele>332.25</ele><time>2026-03-08T10:01:26.929Z</time></trkpt><trkpt lat="43.5860456" lon="12.7755764"><ele>333.5</ele><time>2026-03-08T10:01:27.93Z</time></trkpt><trkpt lat="43.5859444" lon="12.7757177"><ele>334.75</ele><time>2026-03-08T10:01:28.929Z</time></trkpt><trkpt lat="43.585852" lon="12.7758476"><ele>336.0</ele><time>2026-03-08T10:01:29.93Z</time></trkpt><trkpt lat="43.5857613" lon="12.7759675"><ele>335.6</ele><time>2026-03-08T10:01:30.929Z</time></trkpt><trkpt lat="43.5856725" lon="12.7760423"><ele>335.20000000000005</ele><time>2026-03-08T10:01:31.929Z</time></trkpt><trkpt lat="43.5855749" lon="12.7761029"><ele>334.79999999999995</ele><time>2026-03-08T10:01:32.929Z</time></trkpt><trkpt lat="43.5854918" lon="12.7761327"><ele>334.4</ele><time>2026-03-08T10:01:33.929Z</time></trkpt><trkpt lat="43.5854124" lon="12.7761385"><ele>334.0</ele><time>2026-03-08T10:01:34.929Z</time></trkpt><trkpt lat="43.5853281" lon="12.7761646"><ele>334.79999999999995</ele><time>2026-03-08T10:01:35.929Z</time></trkpt><trkpt lat="43.5852483" lon="12.7762171"><ele>335.59999999999997</ele><time>2026-03-08T10:01:36.929Z</time></trkpt><trkpt lat="43.5851576" lon="12.7762792"><ele>336.4</ele><time>2026-03-08T10:01:37.929Z</time></trkpt><trkpt lat="43.5850956" lon="12.7763975"><ele>337.2</ele><time>2026-03-08T10:01:38.928Z</time></trkpt><trkpt lat="43.5850341" lon="12.776523"><ele>338.0</ele><time>2026-03-08T10:01:39.929Z</time></trkpt><trkpt lat="43.5850278" lon="12.7767331"><ele>339.6666666666667</ele><time>2026-03-08T10:01:40.929Z</time></trkpt><trkpt lat="43.5850224" lon="12.7769289"><ele>341.3333333333333</ele><time>2026-03-08T10:01:41.929Z</time></trkpt><trkpt lat="43.5850183" lon="12.7771395"><ele>343.0</ele><time>2026-03-08T10:01:42.929Z</time></trkpt><trkpt lat="43.5850108" lon="12.7773546"><ele>343.0</ele><time>2026-03-08T10:01:43.929Z</time></trkpt><trkpt lat="43.5849969" lon="12.7775727"><ele>343.0</ele><time>2026-03-08T10:01:44.929Z</time></trkpt><trkpt lat="43.5849833" lon="12.7777806"><ele>343.0</ele><time>2026-03-08T10:01:45.929Z</time></trkpt><trkpt lat="43.584973" lon="12.7779827"><ele>343.75</ele><time>2026-03-08T10:01:46.929Z</time></trkpt><trkpt lat="43.5849795" lon="12.7781524"><ele>344.5</ele><time>2026-03-08T10:01:47.93Z</time></trkpt><trkpt lat="43.5849836" lon="12.7783129"><ele>345.25</ele><time>2026-03-08T10:01:48.928Z</time></trkpt><trkpt lat="43.5849989" lon="12.7784845"><ele>346.0</ele><time>2026-03-08T10:01:49.929Z</time></trkpt><trkpt lat="43.5849373" lon="12.7786029"><ele>346.0</ele><time>2026-03-08T10:01:50.93Z</time></trkpt><trkpt lat="43.5848851" lon="12.7787213"><ele>346.0</ele><time>2026-03-08T10:01:51.929Z</time></trkpt><trkpt lat="43.5848026" lon="12.778808"><ele>346.0</ele><time>2026-03-08T10:01:52.929Z</time></trkpt><trkpt lat="43.5847015" lon="12.7788417"><ele>346.0</ele><time>2026-03-08T10:01:53.929Z</time></trkpt><trkpt lat="43.5846027" lon="12.7788501"><ele>346.0</ele><time>2026-03-08T10:01:54.928Z</time></trkpt><trkpt lat="43.5845093" lon="12.7788043"><ele>346.0</ele><time>2026-03-08T10:01:55.929Z</time></trkpt><trkpt lat="43.5844504" lon="12.7787117"><ele>346.0</ele><time>2026-03-08T10:01:56.928Z</time></trkpt><trkpt lat="43.5844241" lon="12.7785951"><ele>346.0</ele><time>2026-03-08T10:01:57.929Z</time></trkpt><trkpt lat="43.5844343" lon="12.7784712"><ele>346.0</ele><time>2026-03-08T10:01:58.929Z</time></trkpt><trkpt lat="43.5844718" lon="12.7783509"><ele>346.0</ele><time>2026-03-08T10:01:59.93Z</time></trkpt><trkpt lat="43.5844837" lon="12.7782211"><ele>350.0</ele><time>2026-03-08T10:02:00.929Z</time></trkpt><trkpt lat="43.5844632" lon="12.7780796"><ele>354.0</ele><time>2026-03-08T10:02:01.93Z</time></trkpt><trkpt lat="43.5844181" lon="12.7779444"><ele>358.0</ele><time>2026-03-08T10:02:02.928Z</time></trkpt><trkpt lat="43.5843725" lon="12.777779"><ele>362.0</ele><time>2026-03-08T10:02:03.929Z</time></trkpt><trkpt lat="43.5843124" lon="12.7776196"><ele>363.75</ele><time>2026-03-08T10:02:04.929Z</time></trkpt><trkpt lat="43.5842465" lon="12.7774659"><ele>365.5</ele><time>2026-03-08T10:02:05.928Z</time></trkpt><trkpt lat="43.5841854" lon="12.7773215"><ele>367.25</ele><time>2026-03-08T10:02:06.929Z</time></trkpt><trkpt lat="43.5841227" lon="12.7771913"><ele>369.0</ele><time>2026-03-08T10:02:07.929Z</time></trkpt><trkpt lat="43.5840454" lon="12.7770711"><ele>369.0</ele><time>2026-03-08T10:02:08.929Z</time></trkpt><trkpt lat="43.5839331" lon="12.7769683"><ele>369.0</ele><time>2026-03-08T10:02:09.929Z</time></trkpt><trkpt lat="43.5838298" lon="12.7768763"><ele>369.0</ele><time>2026-03-08T10:02:10.929Z</time></trkpt><trkpt lat="43.5837135" lon="12.7768013"><ele>369.0</ele><time>2026-03-08T10:02:11.929Z</time></trkpt><trkpt lat="43.5836016" lon="12.7767537"><ele>371.0</ele><time>2026-03-08T10:02:12.929Z</time></trkpt><trkpt lat="43.5834759" lon="12.7767319"><ele>373.0</ele><time>2026-03-08T10:02:13.929Z</time></trkpt><trkpt lat="43.5833506" lon="12.7766819"><ele>375.0</ele><time>2026-03-08T10:02:14.929Z</time></trkpt><trkpt lat="43.5832434" lon="12.7765976"><ele>377.0</ele><time>2026-03-08T10:02:15.928Z</time></trkpt><trkpt lat="43.5831491" lon="12.7765236"><ele>377.0</ele><time>2026-03-08T10:02:16.93Z</time></trkpt><trkpt lat="43.5830448" lon="12.7764883"><ele>377.0</ele><time>2026-03-08T10:02:17.929Z</time></trkpt><trkpt lat="43.5829334" lon="12.7764956"><ele>377.0</ele><time>2026-03-08T10:02:18.929Z</time></trkpt><trkpt lat="43.5828119" lon="12.7765221"><ele>377.0</ele><time>2026-03-08T10:02:19.93Z</time></trkpt><trkpt lat="43.5826789" lon="12.7765402"><ele>377.0</ele><time>2026-03-08T10:02:20.929Z</time></trkpt><trkpt lat="43.5825418" lon="12.7765332"><ele>377.0</ele><time>2026-03-08T10:02:21.93Z</time></trkpt><trkpt lat="43.5824124" lon="12.7764809"><ele>377.0</ele><time>2026-03-08T10:02:22.929Z</time></trkpt><trkpt lat="43.5822941" lon="12.7763905"><ele>377.0</ele><time>2026-03-08T10:02:23.929Z</time></trkpt><trkpt lat="43.5821885" lon="12.7762715"><ele>377.0</ele><time>2026-03-08T10:02:24.929Z</time></trkpt><trkpt lat="43.5820972" lon="12.7761339"><ele>377.0</ele><time>2026-03-08T10:02:25.928Z</time></trkpt><trkpt lat="43.5819923" lon="12.7759861"><ele>377.0</ele><time>2026-03-08T10:02:26.929Z</time></trkpt><trkpt lat="43.5818806" lon="12.7758362"><ele>377.0</ele><time>2026-03-08T10:02:27.929Z</time></trkpt><trkpt lat="43.5817686" lon="12.7756796"><ele>380.6666666666667</ele><time>2026-03-08T10:02:28.929Z</time></trkpt><trkpt lat="43.5816539" lon="12.7755317"><ele>384.33333333333337</ele><time>2026-03-08T10:02:29.929Z</time></trkpt><trkpt lat="43.5815412" lon="12.7753726"><ele>388.0</ele><time>2026-03-08T10:02:30.929Z</time></trkpt><trkpt lat="43.5814258" lon="12.7752067"><ele>389.25</ele><time>2026-03-08T10:02:31.928Z</time></trkpt><trkpt lat="43.5813308" lon="12.7750559"><ele>390.5</ele><time>2026-03-08T10:02:32.928Z</time></trkpt><trkpt lat="43.5812528" lon="12.7749117"><ele>391.75</ele><time>2026-03-08T10:02:33.929Z</time></trkpt><trkpt lat="43.5811802" lon="12.7747528"><ele>393.0</ele><time>2026-03-08T10:02:34.928Z</time></trkpt><trkpt lat="43.5811311" lon="12.7746097"><ele>393.0</ele><time>2026-03-08T10:02:35.929Z</time></trkpt><trkpt lat="43.5810868" lon="12.7744771"><ele>393.0</ele><time>2026-03-08T10:02:36.929Z</time></trkpt><trkpt lat="43.5810102" lon="12.7743658"><ele>393.0</ele><time>2026-03-08T10:02:37.929Z</time></trkpt><trkpt lat="43.5809157" lon="12.7743057"><ele>393.0</ele><time>2026-03-08T10:02:38.928Z</time></trkpt><trkpt lat="43.5807986" lon="12.7742537"><ele>393.0</ele><time>2026-03-08T10:02:39.928Z</time></trkpt><trkpt lat="43.5806852" lon="12.774163"><ele>397.0</ele><time>2026-03-08T10:02:40.93Z</time></trkpt><trkpt lat="43.5805631" lon="12.7740653"><ele>401.0</ele><time>2026-03-08T10:02:41.929Z</time></trkpt><trkpt lat="43.580444" lon="12.7739878"><ele>405.0</ele><time>2026-03-08T10:02:42.929Z</time></trkpt><trkpt lat="43.5803199" lon="12.7739099"><ele>409.0</ele><time>2026-03-08T10:02:43.929Z</time></trkpt><trkpt lat="43.5801952" lon="12.7738306"><ele>409.0</ele><time>2026-03-08T10:02:44.929Z</time></trkpt><trkpt lat="43.580098" lon="12.7737269"><ele>409.0</ele><time>2026-03-08T10:02:45.928Z</time></trkpt><trkpt lat="43.5800156" lon="12.7736523"><ele>409.0</ele><time>2026-03-08T10:02:46.929Z</time></trkpt><trkpt lat="43.5799267" lon="12.7735511"><ele>409.0</ele><time>2026-03-08T10:02:47.929Z</time></trkpt><trkpt lat="43.5798412" lon="12.7734616"><ele>409.0</ele><time>2026-03-08T10:02:48.929Z</time></trkpt><trkpt lat="43.579736" lon="12.773377"><ele>411.0</ele><time>2026-03-08T10:02:49.929Z</time></trkpt><trkpt lat="43.5796207" lon="12.7733224"><ele>413.0</ele><time>2026-03-08T10:02:50.928Z</time></trkpt><trkpt lat="43.5795133" lon="12.7732418"><ele>415.0</ele><time>2026-03-08T10:02:51.929Z</time></trkpt><trkpt lat="43.5794139" lon="12.7731377"><ele>417.0</ele><time>2026-03-08T10:02:52.928Z</time></trkpt><trkpt lat="43.5793236" lon="12.7730111"><ele>418.25</ele><time>2026-03-08T10:02:53.93Z</time></trkpt><trkpt lat="43.5792527" lon="12.7728475"><ele>419.5</ele><time>2026-03-08T10:02:54.93Z</time></trkpt><trkpt lat="43.579168" lon="12.772667"><ele>420.75</ele><time>2026-03-08T10:02:55.929Z</time></trkpt><trkpt lat="43.5790861" lon="12.7724913"><ele>422.0</ele><time>2026-03-08T10:02:56.929Z</time></trkpt><trkpt lat="43.5789973" lon="12.7723237"><ele>422.0</ele><time>2026-03-08T10:02:57.93Z</time></trkpt><trkpt lat="43.5788855" lon="12.7721463"><ele>422.0</ele><time>2026-03-08T10:02:58.93Z</time></trkpt><trkpt lat="43.5787762" lon="12.7719638"><ele>422.0</ele><time>2026-03-08T10:02:59.93Z</time></trkpt><trkpt lat="43.5786681" lon="12.7717672"><ele>426.0</ele><time>2026-03-08T10:03:00.929Z</time></trkpt><trkpt lat="43.5785505" lon="12.771586"><ele>430.0</ele><time>2026-03-08T10:03:01.929Z</time></trkpt><trkpt lat="43.5784311" lon="12.7714221"><ele>434.0</ele><time>2026-03-08T10:03:02.929Z</time></trkpt><trkpt lat="43.5782959" lon="12.7712939"><ele>434.0</ele><time>2026-03-08T10:03:03.928Z</time></trkpt><trkpt lat="43.5781315" lon="12.771189"><ele>434.0</ele><time>2026-03-08T10:03:04.929Z</time></trkpt><trkpt lat="43.5779631" lon="12.7710975"><ele>434.0</ele><time>2026-03-08T10:03:05.929Z</time></trkpt><trkpt lat="43.5777868" lon="12.7710174"><ele>441.3333333333333</ele><time>2026-03-08T10:03:06.928Z</time></trkpt><trkpt lat="43.5776086" lon="12.7709426"><ele>448.66666666666663</ele><time>2026-03-08T10:03:07.929Z</time></trkpt><trkpt lat="43.5774302" lon="12.7708739"><ele>456.0</ele><time>2026-03-08T10:03:08.928Z</time></trkpt><trkpt lat="43.5772565" lon="12.7708"><ele>456.0</ele><time>2026-03-08T10:03:09.929Z</time></trkpt><trkpt lat="43.5770926" lon="12.7707294"><ele>456.0</ele><time>2026-03-08T10:03:10.93Z</time></trkpt><trkpt lat="43.5769292" lon="12.7706507"><ele>456.0</ele><time>2026-03-08T10:03:11.929Z</time></trkpt><trkpt lat="43.5767836" lon="12.770559"><ele>458.25</ele><time>2026-03-08T10:03:12.929Z</time></trkpt><trkpt lat="43.5766429" lon="12.7704631"><ele>460.5</ele><time>2026-03-08T10:03:13.93Z</time></trkpt><trkpt lat="43.5765313" lon="12.7704097"><ele>462.75</ele><time>2026-03-08T10:03:14.929Z</time></trkpt><trkpt lat="43.5764293" lon="12.7703968"><ele>465.0</ele><time>2026-03-08T10:03:15.929Z</time></trkpt><trkpt lat="43.5763505" lon="12.7704413"><ele>465.0</ele><time>2026-03-08T10:03:16.928Z</time></trkpt><trkpt lat="43.5762764" lon="12.7705113"><ele>465.0</ele><time>2026-03-08T10:03:17.929Z</time></trkpt><trkpt lat="43.5762013" lon="12.7705927"><ele>465.0</ele><time>2026-03-08T10:03:18.929Z</time></trkpt><trkpt lat="43.5761222" lon="12.7706325"><ele>465.0</ele><time>2026-03-08T10:03:19.929Z</time></trkpt><trkpt lat="43.5760345" lon="12.7706149"><ele>465.0</ele><time>2026-03-08T10:03:20.929Z</time></trkpt><trkpt lat="43.5759462" lon="12.7705624"><ele>466.0</ele><time>2026-03-08T10:03:21.929Z</time></trkpt><trkpt lat="43.5758593" lon="12.7704869"><ele>467.0</ele><time>2026-03-08T10:03:22.929Z</time></trkpt><trkpt lat="43.5757697" lon="12.7703962"><ele>468.0</ele><time>2026-03-08T10:03:23.928Z</time></trkpt><trkpt lat="43.5756694" lon="12.7702925"><ele>469.0</ele><time>2026-03-08T10:03:24.929Z</time></trkpt><trkpt lat="43.5755407" lon="12.7702001"><ele>472.25</ele><time>2026-03-08T10:03:25.928Z</time></trkpt><trkpt lat="43.5754118" lon="12.7701271"><ele>475.5</ele><time>2026-03-08T10:03:26.929Z</time></trkpt><trkpt lat="43.5752872" lon="12.7700698"><ele>478.75</ele><time>2026-03-08T10:03:27.929Z</time></trkpt><trkpt lat="43.5751559" lon="12.7700514"><ele>482.0</ele><time>2026-03-08T10:03:28.929Z</time></trkpt><trkpt lat="43.5750196" lon="12.7700783"><ele>483.5</ele><time>2026-03-08T10:03:29.929Z</time></trkpt><trkpt lat="43.5748902" lon="12.7701562"><ele>485.0</ele><time>2026-03-08T10:03:30.93Z</time></trkpt><trkpt lat="43.5747673" lon="12.7702665"><ele>486.5</ele><time>2026-03-08T10:03:31.93Z</time></trkpt><trkpt lat="43.5746474" lon="12.7704115"><ele>488.0</ele><time>2026-03-08T10:03:32.929Z</time></trkpt><trkpt lat="43.5745325" lon="12.7705502"><ele>487.5</ele><time>2026-03-08T10:03:33.929Z</time></trkpt><trkpt lat="43.5744154" lon="12.7706777"><ele>487.0</ele><time>2026-03-08T10:03:34.929Z</time></trkpt><trkpt lat="43.5743064" lon="12.7707844"><ele>486.5</ele><time>2026-03-08T10:03:35.929Z</time></trkpt><trkpt lat="43.5741969" lon="12.7708849"><ele>486.0</ele><time>2026-03-08T10:03:36.929Z</time></trkpt><trkpt lat="43.5740697" lon="12.7709527"><ele>486.0</ele><time>2026-03-08T10:03:37.93Z</time></trkpt><trkpt lat="43.5739313" lon="12.770994"><ele>486.0</ele><time>2026-03-08T10:03:38.929Z</time></trkpt><trkpt lat="43.5737903" lon="12.7710258"><ele>486.0</ele><time>2026-03-08T10:03:39.929Z</time></trkpt><trkpt lat="43.5736417" lon="12.7710411"><ele>486.0</ele><time>2026-03-08T10:03:40.929Z</time></trkpt><trkpt lat="43.5734975" lon="12.7710568"><ele>483.0</ele><time>2026-03-08T10:03:41.929Z</time></trkpt><trkpt lat="43.5733519" lon="12.7710912"><ele>480.0</ele><time>2026-03-08T10:03:42.928Z</time></trkpt><trkpt lat="43.5732002" lon="12.771147"><ele>477.0</ele><time>2026-03-08T10:03:43.929Z</time></trkpt><trkpt lat="43.5730604" lon="12.771226"><ele>477.0</ele><time>2026-03-08T10:03:44.929Z</time></trkpt><trkpt lat="43.5729174" lon="12.7713182"><ele>477.0</ele><time>2026-03-08T10:03:45.929Z</time></trkpt><trkpt lat="43.5727757" lon="12.7714098"><ele>477.0</ele><time>2026-03-08T10:03:46.93Z</time></trkpt><trkpt lat="43.572646" lon="12.7714785"><ele>477.25</ele><time>2026-03-08T10:03:47.929Z</time></trkpt><trkpt lat="43.5725138" lon="12.7715556"><ele>477.5</ele><time>2026-03-08T10:03:48.929Z</time></trkpt><trkpt lat="43.5723968" lon="12.7716393"><ele>477.75</ele><time>2026-03-08T10:03:49.93Z</time></trkpt><trkpt lat="43.5723074" lon="12.7717498"><ele>478.0</ele><time>2026-03-08T10:03:50.929Z</time></trkpt><trkpt lat="43.5722327" lon="12.771879"><ele>478.0</ele><time>2026-03-08T10:03:51.929Z</time></trkpt><trkpt lat="43.5722294" lon="12.772034"><ele>478.0</ele><time>2026-03-08T10:03:52.929Z</time></trkpt><trkpt lat="43.5722195" lon="12.7721955"><ele>478.0</ele><time>2026-03-08T10:03:53.929Z</time></trkpt><trkpt lat="43.5722011" lon="12.7723726"><ele>478.0</ele><time>2026-03-08T10:03:54.929Z</time></trkpt><trkpt lat="43.5721621" lon="12.7725543"><ele>475.75</ele><time>2026-03-08T10:03:55.93Z</time></trkpt><trkpt lat="43.5721049" lon="12.7727348"><ele>473.5</ele><time>2026-03-08T10:03:56.929Z</time></trkpt><trkpt lat="43.5720387" lon="12.7729146"><ele>471.25</ele><time>2026-03-08T10:03:57.93Z</time></trkpt><trkpt lat="43.5719763" lon="12.773099"><ele>469.0</ele><time>2026-03-08T10:03:58.929Z</time></trkpt><trkpt lat="43.5719289" lon="12.7732844"><ele>475.5</ele><time>2026-03-08T10:03:59.929Z</time></trkpt><trkpt lat="43.5718918" lon="12.7734842"><ele>482.0</ele><time>2026-03-08T10:04:00.93Z</time></trkpt><trkpt lat="43.5718768" lon="12.773682"><ele>488.5</ele><time>2026-03-08T10:04:01.93Z</time></trkpt><trkpt lat="43.5718952" lon="12.7738859"><ele>495.0</ele><time>2026-03-08T10:04:02.929Z</time></trkpt><trkpt lat="43.5719409" lon="12.7740981"><ele>495.0</ele><time>2026-03-08T10:04:03.93Z</time></trkpt><trkpt lat="43.572016" lon="12.7743094"><ele>495.0</ele><time>2026-03-08T10:04:04.93Z</time></trkpt><trkpt lat="43.5720871" lon="12.7745125"><ele>495.0</ele><time>2026-03-08T10:04:05.928Z</time></trkpt><trkpt lat="43.5721474" lon="12.774715"><ele>496.0</ele><time>2026-03-08T10:04:06.929Z</time></trkpt><trkpt lat="43.5721862" lon="12.7749141"><ele>497.0</ele><time>2026-03-08T10:04:07.929Z</time></trkpt><trkpt lat="43.5722266" lon="12.7751098"><ele>498.0</ele><time>2026-03-08T10:04:08.929Z</time></trkpt><trkpt lat="43.5722814" lon="12.7753083"><ele>498.0</ele><time>2026-03-08T10:04:09.929Z</time></trkpt><trkpt lat="43.5723396" lon="12.775493"><ele>498.0</ele><time>2026-03-08T10:04:10.928Z</time></trkpt><trkpt lat="43.5724058" lon="12.7756619"><ele>498.0</ele><time>2026-03-08T10:04:11.929Z</time></trkpt><trkpt lat="43.5724742" lon="12.7758472"><ele>498.0</ele><time>2026-03-08T10:04:12.929Z</time></trkpt><trkpt lat="43.5725151" lon="12.7760095"><ele>499.0</ele><time>2026-03-08T10:04:13.928Z</time></trkpt><trkpt lat="43.5725405" lon="12.7761806"><ele>499.99999999999994</ele><time>2026-03-08T10:04:14.928Z</time></trkpt><trkpt lat="43.5725485" lon="12.7763477"><ele>500.99999999999994</ele><time>2026-03-08T10:04:15.93Z</time></trkpt><trkpt lat="43.5725539" lon="12.7765002"><ele>502.0</ele><time>2026-03-08T10:04:16.929Z</time></trkpt><trkpt lat="43.5725435" lon="12.7766238"><ele>503.0</ele><time>2026-03-08T10:04:17.928Z</time></trkpt><trkpt lat="43.5725061" lon="12.7767149"><ele>502.99999999999994</ele><time>2026-03-08T10:04:18.929Z</time></trkpt><trkpt lat="43.5724379" lon="12.7767565"><ele>503.0</ele><time>2026-03-08T10:04:19.929Z</time></trkpt><trkpt lat="43.5723649" lon="12.776764"><ele>503.0</ele><time>2026-03-08T10:04:20.929Z</time></trkpt><trkpt lat="43.5722871" lon="12.7767328"><ele>503.0</ele><time>2026-03-08T10:04:21.929Z</time></trkpt><trkpt lat="43.572194" lon="12.7766913"><ele>502.99999999999994</ele><time>2026-03-08T10:04:22.93Z</time></trkpt><trkpt lat="43.5720919" lon="12.7766428"><ele>503.0</ele><time>2026-03-08T10:04:23.929Z</time></trkpt><trkpt lat="43.5719894" lon="12.7765916"><ele>503.66666666666663</ele><time>2026-03-08T10:04:24.93Z</time></trkpt><trkpt lat="43.5718986" lon="12.7765292"><ele>504.3333333333333</ele><time>2026-03-08T10:04:25.928Z</time></trkpt><trkpt lat="43.5718212" lon="12.7764643"><ele>505.0</ele><time>2026-03-08T10:04:26.929Z</time></trkpt><trkpt lat="43.5717461" lon="12.7764281"><ele>505.66666666666663</ele><time>2026-03-08T10:04:27.929Z</time></trkpt><trkpt lat="43.5716695" lon="12.7764395"><ele>506.3333333333333</ele><time>2026-03-08T10:04:28.929Z</time></trkpt><trkpt lat="43.5715982" lon="12.7764884"><ele>507.0</ele><time>2026-03-08T10:04:29.929Z</time></trkpt><trkpt lat="43.5715188" lon="12.7765769"><ele>507.0</ele><time>2026-03-08T10:04:30.929Z</time></trkpt><trkpt lat="43.5714382" lon="12.7766864"><ele>507.0</ele><time>2026-03-08T10:04:31.929Z</time></trkpt><trkpt lat="43.5713688" lon="12.7768247"><ele>507.0</ele><time>2026-03-08T10:04:32.929Z</time></trkpt><trkpt lat="43.5712998" lon="12.7769518"><ele>507.0</ele><time>2026-03-08T10:04:33.929Z</time></trkpt><trkpt lat="43.5712293" lon="12.7770708"><ele>504.6</ele><time>2026-03-08T10:04:34.929Z</time></trkpt><trkpt lat="43.5711392" lon="12.7771603"><ele>502.20000000000005</ele><time>2026-03-08T10:04:35.93Z</time></trkpt><trkpt lat="43.5710436" lon="12.7772075"><ele>499.8</ele><time>2026-03-08T10:04:36.929Z</time></trkpt><trkpt lat="43.5709518" lon="12.777211"><ele>497.4</ele><time>2026-03-08T10:04:37.93Z</time></trkpt><trkpt lat="43.570848" lon="12.7771916"><ele>495.0</ele><time>2026-03-08T10:04:38.929Z</time></trkpt><trkpt lat="43.5707495" lon="12.7771952"><ele>495.0</ele><time>2026-03-08T10:04:39.929Z</time></trkpt><trkpt lat="43.5706718" lon="12.7772316"><ele>495.0</ele><time>2026-03-08T10:04:40.928Z</time></trkpt><trkpt lat="43.5706147" lon="12.7773079"><ele>495.0</ele><time>2026-03-08T10:04:41.929Z</time></trkpt><trkpt lat="43.5705948" lon="12.7774056"><ele>495.0</ele><time>2026-03-08T10:04:42.929Z</time></trkpt><trkpt lat="43.5705589" lon="12.7775259"><ele>495.0</ele><time>2026-03-08T10:04:43.929Z</time></trkpt><trkpt lat="43.5705323" lon="12.7776894"><ele>493.25</ele><time>2026-03-08T10:04:44.93Z</time></trkpt><trkpt lat="43.5705056" lon="12.7778442"><ele>491.5</ele><time>2026-03-08T10:04:45.93Z</time></trkpt><trkpt lat="43.5704862" lon="12.7780169"><ele>489.75</ele><time>2026-03-08T10:04:46.929Z</time></trkpt><trkpt lat="43.5704965" lon="12.7782343"><ele>488.0</ele><time>2026-03-08T10:04:47.93Z</time></trkpt><trkpt lat="43.5704705" lon="12.7784179"><ele>486.75</ele><time>2026-03-08T10:04:48.929Z</time></trkpt><trkpt lat="43.5704401" lon="12.7786164"><ele>485.5</ele><time>2026-03-08T10:04:49.929Z</time></trkpt><trkpt lat="43.5704081" lon="12.778801"><ele>484.25</ele><time>2026-03-08T10:04:50.929Z</time></trkpt><trkpt lat="43.5704088" lon="12.778961"><ele>483.0</ele><time>2026-03-08T10:04:51.93Z</time></trkpt><trkpt lat="43.5704108" lon="12.7791324"><ele>483.0</ele><time>2026-03-08T10:04:52.929Z</time></trkpt><trkpt lat="43.5703942" lon="12.7793024"><ele>482.99999999999994</ele><time>2026-03-08T10:04:53.929Z</time></trkpt><trkpt lat="43.5703645" lon="12.7794386"><ele>482.99999999999994</ele><time>2026-03-08T10:04:54.929Z</time></trkpt><trkpt lat="43.5703019" lon="12.7795392"><ele>483.0</ele><time>2026-03-08T10:04:55.929Z</time></trkpt><trkpt lat="43.5702142" lon="12.779616"><ele>483.0</ele><time>2026-03-08T10:04:56.929Z</time></trkpt><trkpt lat="43.5701157" lon="12.7796659"><ele>486.79999999999995</ele><time>2026-03-08T10:04:57.929Z</time></trkpt><trkpt lat="43.5700031" lon="12.7797222"><ele>490.59999999999997</ele><time>2026-03-08T10:04:58.929Z</time></trkpt><trkpt lat="43.5699039" lon="12.7797777"><ele>494.40000000000003</ele><time>2026-03-08T10:04:59.93Z</time></trkpt><trkpt lat="43.5698094" lon="12.7798137"><ele>498.20000000000005</ele><time>2026-03-08T10:05:00.93Z</time></trkpt><trkpt lat="43.5697156" lon="12.7798149"><ele>502.0</ele><time>2026-03-08T10:05:01.929Z</time></trkpt><trkpt lat="43.5696007" lon="12.7797608"><ele>502.75</ele><time>2026-03-08T10:05:02.929Z</time></trkpt><trkpt lat="43.569506" lon="12.7796672"><ele>503.5</ele><time>2026-03-08T10:05:03.93Z</time></trkpt><trkpt lat="43.5694178" lon="12.7795532"><ele>504.25</ele><time>2026-03-08T10:05:04.93Z</time></trkpt><trkpt lat="43.5693434" lon="12.7794182"><ele>505.0</ele><time>2026-03-08T10:05:05.929Z</time></trkpt><trkpt lat="43.569284" lon="12.7792799"><ele>505.0</ele><time>2026-03-08T10:05:06.929Z</time></trkpt><trkpt lat="43.5692396" lon="12.7791359"><ele>505.0</ele><time>2026-03-08T10:05:07.929Z</time></trkpt><trkpt lat="43.5692008" lon="12.7790003"><ele>505.0</ele><time>2026-03-08T10:05:08.929Z</time></trkpt><trkpt lat="43.5691693" lon="12.7788635"><ele>505.0</ele><time>2026-03-08T10:05:09.929Z</time></trkpt><trkpt lat="43.5691171" lon="12.7787309"><ele>505.0</ele><time>2026-03-08T10:05:10.929Z</time></trkpt><trkpt lat="43.5690407" lon="12.7786283"><ele>505.00000000000006</ele><time>2026-03-08T10:05:11.929Z</time></trkpt><trkpt lat="43.5689695" lon="12.7785584"><ele>505.0</ele><time>2026-03-08T10:05:12.928Z</time></trkpt><trkpt lat="43.5688782" lon="12.7785097"><ele>505.0</ele><time>2026-03-08T10:05:13.929Z</time></trkpt><trkpt lat="43.5687948" lon="12.7784918"><ele>505.0</ele><time>2026-03-08T10:05:14.929Z</time></trkpt><trkpt lat="43.5687196" lon="12.7785169"><ele>505.00000000000006</ele><time>2026-03-08T10:05:15.929Z</time></trkpt><trkpt lat="43.5686431" lon="12.7785463"><ele>505.0</ele><time>2026-03-08T10:05:16.929Z</time></trkpt><trkpt lat="43.5685622" lon="12.7785951"><ele>502.6</ele><time>2026-03-08T10:05:17.929Z</time></trkpt><trkpt lat="43.568472" lon="12.7786393"><ele>500.2</ele><time>2026-03-08T10:05:18.929Z</time></trkpt><trkpt lat="43.5683871" lon="12.7786788"><ele>497.79999999999995</ele><time>2026-03-08T10:05:19.929Z</time></trkpt><trkpt lat="43.568296" lon="12.778726"><ele>495.4</ele><time>2026-03-08T10:05:20.929Z</time></trkpt><trkpt lat="43.5682098" lon="12.7787392"><ele>493.0</ele><time>2026-03-08T10:05:21.928Z</time></trkpt><trkpt lat="43.568134" lon="12.7787025"><ele>493.00000000000006</ele><time>2026-03-08T10:05:22.93Z</time></trkpt><trkpt lat="43.5680679" lon="12.7786585"><ele>493.0</ele><time>2026-03-08T10:05:23.929Z</time></trkpt><trkpt lat="43.5680084" lon="12.7786129"><ele>493.0</ele><time>2026-03-08T10:05:24.929Z</time></trkpt><trkpt lat="43.5679488" lon="12.7785842"><ele>493.0</ele><time>2026-03-08T10:05:25.929Z</time></trkpt><trkpt lat="43.5678826" lon="12.7786047"><ele>493.00000000000006</ele><time>2026-03-08T10:05:26.929Z</time></trkpt><trkpt lat="43.5678123" lon="12.778757"><ele>493.0</ele><time>2026-03-08T10:05:28.93Z</time></trkpt><trkpt lat="43.5677918" lon="12.7788618"><ele>493.83333333333337</ele><time>2026-03-08T10:05:29.929Z</time></trkpt><trkpt lat="43.5677739" lon="12.778981"><ele>494.6666666666667</ele><time>2026-03-08T10:05:30.929Z</time></trkpt><trkpt lat="43.5677528" lon="12.7790995"><ele>495.5</ele><time>2026-03-08T10:05:31.93Z</time></trkpt><trkpt lat="43.5677119" lon="12.7792131"><ele>496.33333333333337</ele><time>2026-03-08T10:05:32.929Z</time></trkpt><trkpt lat="43.5676589" lon="12.7793149"><ele>497.1666666666667</ele><time>2026-03-08T10:05:33.929Z</time></trkpt><trkpt lat="43.5675989" lon="12.7794014"><ele>498.0</ele><time>2026-03-08T10:05:34.929Z</time></trkpt><trkpt lat="43.5675261" lon="12.779499"><ele>495.0</ele><time>2026-03-08T10:05:35.93Z</time></trkpt><trkpt lat="43.5674499" lon="12.7795705"><ele>492.0</ele><time>2026-03-08T10:05:36.929Z</time></trkpt><trkpt lat="43.5673787" lon="12.7796166"><ele>489.0</ele><time>2026-03-08T10:05:37.929Z</time></trkpt><trkpt lat="43.5673145" lon="12.7796592"><ele>486.0</ele><time>2026-03-08T10:05:38.929Z</time></trkpt><trkpt lat="43.567233" lon="12.7797326"><ele>483.0</ele><time>2026-03-08T10:05:40.929Z</time></trkpt><trkpt lat="43.5671772" lon="12.7798191"><ele>480.0</ele><time>2026-03-08T10:05:43.928Z</time></trkpt><trkpt lat="43.5672467" lon="12.7798255"><ele>480.0</ele><time>2026-03-08T10:05:48.929Z</time></trkpt><trkpt lat="43.5672833" lon="12.7796416"><ele>480.0</ele><time>2026-03-08T10:05:50.928Z</time></trkpt><trkpt lat="43.5672943" lon="12.7795246"><ele>480.0</ele><time>2026-03-08T10:05:51.929Z</time></trkpt><trkpt lat="43.5672907" lon="12.7793887"><ele>480.0</ele><time>2026-03-08T10:05:52.929Z</time></trkpt><trkpt lat="43.5672808" lon="12.779251"><ele>480.0</ele><time>2026-03-08T10:05:53.929Z</time></trkpt><trkpt lat="43.5672659" lon="12.7791227"><ele>483.0</ele><time>2026-03-08T10:05:54.928Z</time></trkpt><trkpt lat="43.5672412" lon="12.7790163"><ele>486.0</ele><time>2026-03-08T10:05:55.929Z</time></trkpt><trkpt lat="43.5671912" lon="12.7789559"><ele>489.0</ele><time>2026-03-08T10:05:56.929Z</time></trkpt><trkpt lat="43.5671205" lon="12.7789241"><ele>492.0</ele><time>2026-03-08T10:05:57.929Z</time></trkpt><trkpt lat="43.5670343" lon="12.7789085"><ele>495.0</ele><time>2026-03-08T10:05:58.929Z</time></trkpt><trkpt lat="43.5669335" lon="12.7789016"><ele>498.0</ele><time>2026-03-08T10:05:59.929Z</time></trkpt><trkpt lat="43.566823" lon="12.7788938"><ele>498.59999999999997</ele><time>2026-03-08T10:06:00.929Z</time></trkpt><trkpt lat="43.5667138" lon="12.7788887"><ele>499.19999999999993</ele><time>2026-03-08T10:06:01.929Z</time></trkpt><trkpt lat="43.5666086" lon="12.7788943"><ele>499.8</ele><time>2026-03-08T10:06:02.929Z</time></trkpt><trkpt lat="43.5665141" lon="12.7788935"><ele>500.4</ele><time>2026-03-08T10:06:03.929Z</time></trkpt><trkpt lat="43.5664333" lon="12.7789025"><ele>501.0</ele><time>2026-03-08T10:06:04.929Z</time></trkpt><trkpt lat="43.56635" lon="12.7789024"><ele>501.0</ele><time>2026-03-08T10:06:05.93Z</time></trkpt><trkpt lat="43.5662581" lon="12.7788841"><ele>501.0</ele><time>2026-03-08T10:06:06.929Z</time></trkpt><trkpt lat="43.566158" lon="12.7788782"><ele>501.0</ele><time>2026-03-08T10:06:07.929Z</time></trkpt><trkpt lat="43.5660688" lon="12.7788525"><ele>501.0</ele><time>2026-03-08T10:06:08.929Z</time></trkpt><trkpt lat="43.5659981" lon="12.7788173"><ele>501.0</ele><time>2026-03-08T10:06:09.929Z</time></trkpt><trkpt lat="43.5659538" lon="12.7786879"><ele>501.8333333333333</ele><time>2026-03-08T10:06:11.929Z</time></trkpt><trkpt lat="43.5659977" lon="12.7785427"><ele>502.66666666666663</ele><time>2026-03-08T10:06:13.93Z</time></trkpt><trkpt lat="43.566082" lon="12.7784224"><ele>503.5</ele><time>2026-03-08T10:06:15.929Z</time></trkpt><trkpt lat="43.5661219" lon="12.7783478"><ele>504.3333333333333</ele><time>2026-03-08T10:06:16.929Z</time></trkpt><trkpt lat="43.5661678" lon="12.77828"><ele>505.16666666666663</ele><time>2026-03-08T10:06:17.929Z</time></trkpt><trkpt lat="43.5662178" lon="12.7782147"><ele>506.0</ele><time>2026-03-08T10:06:18.929Z</time></trkpt><trkpt lat="43.5662669" lon="12.7781432"><ele>509.0</ele><time>2026-03-08T10:06:19.928Z</time></trkpt><trkpt lat="43.5663023" lon="12.7780597"><ele>512.0</ele><time>2026-03-08T10:06:20.929Z</time></trkpt><trkpt lat="43.5662673" lon="12.7779464"><ele>515.0</ele><time>2026-03-08T10:06:22.929Z</time></trkpt><trkpt lat="43.5662054" lon="12.7779277"><ele>518.0</ele><time>2026-03-08T10:06:23.929Z</time></trkpt><trkpt lat="43.5660591" lon="12.7778978"><ele>521.0</ele><time>2026-03-08T10:06:25.928Z</time></trkpt><trkpt lat="43.5659706" lon="12.7778698"><ele>521.8</ele><time>2026-03-08T10:06:26.929Z</time></trkpt><trkpt lat="43.5658813" lon="12.7778152"><ele>522.6</ele><time>2026-03-08T10:06:27.929Z</time></trkpt><trkpt lat="43.5657934" lon="12.7777361"><ele>523.4</ele><time>2026-03-08T10:06:28.929Z</time></trkpt><trkpt lat="43.5657229" lon="12.7776181"><ele>524.2</ele><time>2026-03-08T10:06:29.929Z</time></trkpt><trkpt lat="43.5656591" lon="12.7775072"><ele>525.0</ele><time>2026-03-08T10:06:30.93Z</time></trkpt><trkpt lat="43.5655903" lon="12.777413"><ele>528.8</ele><time>2026-03-08T10:06:31.93Z</time></trkpt><trkpt lat="43.5655145" lon="12.7773329"><ele>532.6</ele><time>2026-03-08T10:06:32.929Z</time></trkpt><trkpt lat="43.5654317" lon="12.777291"><ele>536.4</ele><time>2026-03-08T10:06:33.93Z</time></trkpt><trkpt lat="43.5653348" lon="12.777286"><ele>540.2</ele><time>2026-03-08T10:06:34.929Z</time></trkpt><trkpt lat="43.5652283" lon="12.7772802"><ele>544.0</ele><time>2026-03-08T10:06:35.929Z</time></trkpt><trkpt lat="43.5651129" lon="12.7772719"><ele>544.0</ele><time>2026-03-08T10:06:36.929Z</time></trkpt><trkpt lat="43.5649883" lon="12.7772586"><ele>544.0</ele><time>2026-03-08T10:06:37.929Z</time></trkpt><trkpt lat="43.5648681" lon="12.7772687"><ele>544.0</ele><time>2026-03-08T10:06:38.929Z</time></trkpt><trkpt lat="43.5647541" lon="12.7772909"><ele>544.0</ele><time>2026-03-08T10:06:39.93Z</time></trkpt><trkpt lat="43.5646486" lon="12.777322"><ele>544.0</ele><time>2026-03-08T10:06:40.929Z</time></trkpt><trkpt lat="43.564546" lon="12.7773682"><ele>544.0</ele><time>2026-03-08T10:06:41.929Z</time></trkpt><trkpt lat="43.5644466" lon="12.7773978"><ele>544.0</ele><time>2026-03-08T10:06:42.93Z</time></trkpt><trkpt lat="43.5643427" lon="12.7774259"><ele>544.0</ele><time>2026-03-08T10:06:43.929Z</time></trkpt><trkpt lat="43.5642385" lon="12.7774377"><ele>544.0</ele><time>2026-03-08T10:06:44.929Z</time></trkpt><trkpt lat="43.5641409" lon="12.7774637"><ele>543.5</ele><time>2026-03-08T10:06:45.929Z</time></trkpt><trkpt lat="43.5640524" lon="12.777478"><ele>543.0</ele><time>2026-03-08T10:06:46.929Z</time></trkpt><trkpt lat="43.563981" lon="12.7774752"><ele>542.5</ele><time>2026-03-08T10:06:47.928Z</time></trkpt><trkpt lat="43.5639124" lon="12.7774577"><ele>542.0</ele><time>2026-03-08T10:06:48.929Z</time></trkpt><trkpt lat="43.5637935" lon="12.7774184"><ele>541.5</ele><time>2026-03-08T10:06:50.928Z</time></trkpt><trkpt lat="43.5637261" lon="12.777431"><ele>541.0</ele><time>2026-03-08T10:06:51.929Z</time></trkpt><trkpt lat="43.5636451" lon="12.7774665"><ele>539.4</ele><time>2026-03-08T10:06:52.93Z</time></trkpt><trkpt lat="43.5635534" lon="12.7775185"><ele>537.8</ele><time>2026-03-08T10:06:53.929Z</time></trkpt><trkpt lat="43.5634485" lon="12.7775871"><ele>536.1999999999999</ele><time>2026-03-08T10:06:54.929Z</time></trkpt><trkpt lat="43.5633556" lon="12.7776598"><ele>534.6</ele><time>2026-03-08T10:06:55.929Z</time></trkpt><trkpt lat="43.5632565" lon="12.7777423"><ele>533.0</ele><time>2026-03-08T10:06:56.929Z</time></trkpt><trkpt lat="43.5631607" lon="12.7778401"><ele>533.0</ele><time>2026-03-08T10:06:57.929Z</time></trkpt><trkpt lat="43.5630604" lon="12.7779367"><ele>533.0</ele><time>2026-03-08T10:06:58.929Z</time></trkpt><trkpt lat="43.5629546" lon="12.7780304"><ele>533.0</ele><time>2026-03-08T10:06:59.929Z</time></trkpt><trkpt lat="43.5628462" lon="12.7781346"><ele>533.0</ele><time>2026-03-08T10:07:00.929Z</time></trkpt><trkpt lat="43.5627469" lon="12.7782375"><ele>533.0</ele><time>2026-03-08T10:07:01.928Z</time></trkpt><trkpt lat="43.5626536" lon="12.7783465"><ele>533.0</ele><time>2026-03-08T10:07:02.929Z</time></trkpt><trkpt lat="43.5625631" lon="12.7784593"><ele>533.0</ele><time>2026-03-08T10:07:03.93Z</time></trkpt><trkpt lat="43.5624696" lon="12.7785651"><ele>533.0</ele><time>2026-03-08T10:07:04.93Z</time></trkpt><trkpt lat="43.5623608" lon="12.7786669"><ele>533.5</ele><time>2026-03-08T10:07:05.929Z</time></trkpt><trkpt lat="43.5622584" lon="12.7787587"><ele>534.0</ele><time>2026-03-08T10:07:06.929Z</time></trkpt><trkpt lat="43.5621487" lon="12.7788299"><ele>534.5</ele><time>2026-03-08T10:07:07.929Z</time></trkpt><trkpt lat="43.5620328" lon="12.7788868"><ele>535.0</ele><time>2026-03-08T10:07:08.929Z</time></trkpt><trkpt lat="43.5619282" lon="12.7789319"><ele>536.0</ele><time>2026-03-08T10:07:09.929Z</time></trkpt><trkpt lat="43.5618168" lon="12.7790054"><ele>537.0</ele><time>2026-03-08T10:07:10.93Z</time></trkpt><trkpt lat="43.5617268" lon="12.7790967"><ele>538.0</ele><time>2026-03-08T10:07:11.929Z</time></trkpt><trkpt lat="43.5616445" lon="12.779196"><ele>539.0</ele><time>2026-03-08T10:07:12.929Z</time></trkpt><trkpt lat="43.5615794" lon="12.7793223"><ele>537.0</ele><time>2026-03-08T10:07:13.929Z</time></trkpt><trkpt lat="43.5615176" lon="12.779474"><ele>535.0</ele><time>2026-03-08T10:07:14.929Z</time></trkpt><trkpt lat="43.5614561" lon="12.7796204"><ele>533.0</ele><time>2026-03-08T10:07:15.93Z</time></trkpt><trkpt lat="43.5613949" lon="12.7797649"><ele>531.0</ele><time>2026-03-08T10:07:16.929Z</time></trkpt><trkpt lat="43.5613115" lon="12.7798963"><ele>531.0</ele><time>2026-03-08T10:07:17.93Z</time></trkpt><trkpt lat="43.5612307" lon="12.7800188"><ele>531.0</ele><time>2026-03-08T10:07:18.929Z</time></trkpt><trkpt lat="43.5611544" lon="12.7801433"><ele>531.0</ele><time>2026-03-08T10:07:19.929Z</time></trkpt><trkpt lat="43.5610859" lon="12.7802759"><ele>531.0</ele><time>2026-03-08T10:07:20.929Z</time></trkpt><trkpt lat="43.5610133" lon="12.7804007"><ele>530.75</ele><time>2026-03-08T10:07:21.929Z</time></trkpt><trkpt lat="43.5609372" lon="12.780528"><ele>530.5</ele><time>2026-03-08T10:07:22.929Z</time></trkpt><trkpt lat="43.5608457" lon="12.7806425"><ele>530.25</ele><time>2026-03-08T10:07:23.929Z</time></trkpt><trkpt lat="43.5607446" lon="12.7807445"><ele>530.0</ele><time>2026-03-08T10:07:24.929Z</time></trkpt><trkpt lat="43.560639" lon="12.7808445"><ele>530.0</ele><time>2026-03-08T10:07:25.929Z</time></trkpt><trkpt lat="43.5605317" lon="12.7809434"><ele>530.0</ele><time>2026-03-08T10:07:26.93Z</time></trkpt><trkpt lat="43.5604203" lon="12.7810459"><ele>530.0</ele><time>2026-03-08T10:07:27.929Z</time></trkpt><trkpt lat="43.5603061" lon="12.7811435"><ele>530.0</ele><time>2026-03-08T10:07:28.929Z</time></trkpt><trkpt lat="43.5601974" lon="12.7812381"><ele>527.5</ele><time>2026-03-08T10:07:29.93Z</time></trkpt><trkpt lat="43.5600863" lon="12.7813488"><ele>525.0</ele><time>2026-03-08T10:07:30.929Z</time></trkpt><trkpt lat="43.5599871" lon="12.7814553"><ele>522.5</ele><time>2026-03-08T10:07:31.929Z</time></trkpt><trkpt lat="43.559886" lon="12.7815834"><ele>520.0</ele><time>2026-03-08T10:07:32.93Z</time></trkpt><trkpt lat="43.5597949" lon="12.7817188"><ele>517.5</ele><time>2026-03-08T10:07:33.929Z</time></trkpt><trkpt lat="43.5597088" lon="12.7818508"><ele>515.0</ele><time>2026-03-08T10:07:34.93Z</time></trkpt><trkpt lat="43.559617" lon="12.7819741"><ele>512.5</ele><time>2026-03-08T10:07:35.929Z</time></trkpt><trkpt lat="43.5595215" lon="12.7820887"><ele>510.0</ele><time>2026-03-08T10:07:36.929Z</time></trkpt><trkpt lat="43.559418" lon="12.7822036"><ele>510.0</ele><time>2026-03-08T10:07:37.929Z</time></trkpt><trkpt lat="43.5593041" lon="12.7823027"><ele>510.0</ele><time>2026-03-08T10:07:38.93Z</time></trkpt><trkpt lat="43.5591875" lon="12.7823961"><ele>510.0</ele><time>2026-03-08T10:07:39.929Z</time></trkpt><trkpt lat="43.5590683" lon="12.7825081"><ele>510.0</ele><time>2026-03-08T10:07:40.929Z</time></trkpt><trkpt lat="43.5589578" lon="12.7826305"><ele>506.75</ele><time>2026-03-08T10:07:41.929Z</time></trkpt><trkpt lat="43.5588379" lon="12.7827652"><ele>503.5</ele><time>2026-03-08T10:07:42.929Z</time></trkpt><trkpt lat="43.5587321" lon="12.7828949"><ele>500.25</ele><time>2026-03-08T10:07:43.929Z</time></trkpt><trkpt lat="43.5586361" lon="12.7830342"><ele>497.0</ele><time>2026-03-08T10:07:44.929Z</time></trkpt><trkpt lat="43.5585484" lon="12.7832121"><ele>497.0</ele><time>2026-03-08T10:07:45.929Z</time></trkpt><trkpt lat="43.5584957" lon="12.7833565"><ele>497.0</ele><time>2026-03-08T10:07:46.93Z</time></trkpt><trkpt lat="43.5584135" lon="12.7834987"><ele>497.0</ele><time>2026-03-08T10:07:47.929Z</time></trkpt><trkpt lat="43.5583324" lon="12.7835974"><ele>497.0</ele><time>2026-03-08T10:07:48.929Z</time></trkpt><trkpt lat="43.5582148" lon="12.7836468"><ele>492.5</ele><time>2026-03-08T10:07:49.929Z</time></trkpt><trkpt lat="43.5580868" lon="12.7836451"><ele>488.0</ele><time>2026-03-08T10:07:50.93Z</time></trkpt><trkpt lat="43.5579419" lon="12.7836361"><ele>483.5</ele><time>2026-03-08T10:07:51.929Z</time></trkpt><trkpt lat="43.5578" lon="12.7835958"><ele>479.0</ele><time>2026-03-08T10:07:52.929Z</time></trkpt><trkpt lat="43.5576584" lon="12.7835448"><ele>480.5</ele><time>2026-03-08T10:07:53.93Z</time></trkpt><trkpt lat="43.5575178" lon="12.7835003"><ele>482.0</ele><time>2026-03-08T10:07:54.929Z</time></trkpt><trkpt lat="43.5573799" lon="12.7834826"><ele>483.5</ele><time>2026-03-08T10:07:55.929Z</time></trkpt><trkpt lat="43.5572609" lon="12.7834753"><ele>485.0</ele><time>2026-03-08T10:07:56.929Z</time></trkpt><trkpt lat="43.5571539" lon="12.7834972"><ele>483.4</ele><time>2026-03-08T10:07:57.93Z</time></trkpt><trkpt lat="43.5570616" lon="12.7835277"><ele>481.8</ele><time>2026-03-08T10:07:58.929Z</time></trkpt><trkpt lat="43.5569755" lon="12.7836034"><ele>480.20000000000005</ele><time>2026-03-08T10:07:59.93Z</time></trkpt><trkpt lat="43.5568842" lon="12.7836674"><ele>478.6</ele><time>2026-03-08T10:08:00.929Z</time></trkpt><trkpt lat="43.5567933" lon="12.7837296"><ele>477.0</ele><time>2026-03-08T10:08:01.929Z</time></trkpt><trkpt lat="43.556706" lon="12.7837958"><ele>476.20000000000005</ele><time>2026-03-08T10:08:02.929Z</time></trkpt><trkpt lat="43.556622" lon="12.7838595"><ele>475.40000000000003</ele><time>2026-03-08T10:08:03.929Z</time></trkpt><trkpt lat="43.5565342" lon="12.7839073"><ele>474.59999999999997</ele><time>2026-03-08T10:08:04.929Z</time></trkpt><trkpt lat="43.5564537" lon="12.7839463"><ele>473.79999999999995</ele><time>2026-03-08T10:08:05.93Z</time></trkpt><trkpt lat="43.5563671" lon="12.7839948"><ele>473.0</ele><time>2026-03-08T10:08:06.929Z</time></trkpt><trkpt lat="43.5562813" lon="12.7840432"><ele>470.99999999999994</ele><time>2026-03-08T10:08:07.93Z</time></trkpt><trkpt lat="43.5562008" lon="12.7841039"><ele>469.0</ele><time>2026-03-08T10:08:08.93Z</time></trkpt><trkpt lat="43.5561231" lon="12.7841796"><ele>467.0</ele><time>2026-03-08T10:08:09.929Z</time></trkpt><trkpt lat="43.5560492" lon="12.784269"><ele>465.0</ele><time>2026-03-08T10:08:10.93Z</time></trkpt><trkpt lat="43.5559914" lon="12.7843577"><ele>462.99999999999994</ele><time>2026-03-08T10:08:11.93Z</time></trkpt><trkpt lat="43.5559403" lon="12.7844224"><ele>461.0</ele><time>2026-03-08T10:08:12.929Z</time></trkpt><trkpt lat="43.5558644" lon="12.7844142"><ele>460.3333333333333</ele><time>2026-03-08T10:08:14.929Z</time></trkpt><trkpt lat="43.555885" lon="12.7842921"><ele>459.66666666666663</ele><time>2026-03-08T10:08:16.929Z</time></trkpt><trkpt lat="43.5559441" lon="12.7842194"><ele>459.0</ele><time>2026-03-08T10:08:17.93Z</time></trkpt><trkpt lat="43.5560222" lon="12.7841294"><ele>458.33333333333337</ele><time>2026-03-08T10:08:18.929Z</time></trkpt><trkpt lat="43.5560834" lon="12.7840423"><ele>457.6666666666667</ele><time>2026-03-08T10:08:19.929Z</time></trkpt><trkpt lat="43.5561429" lon="12.7839567"><ele>457.0</ele><time>2026-03-08T10:08:20.929Z</time></trkpt><trkpt lat="43.556189" lon="12.7838849"><ele>457.0</ele><time>2026-03-08T10:08:21.929Z</time></trkpt><trkpt lat="43.5562182" lon="12.7838071"><ele>457.00000000000006</ele><time>2026-03-08T10:08:22.93Z</time></trkpt><trkpt lat="43.5561988" lon="12.7836829"><ele>457.00000000000006</ele><time>2026-03-08T10:08:24.929Z</time></trkpt><trkpt lat="43.5560787" lon="12.7837195"><ele>457.0</ele><time>2026-03-08T10:08:26.929Z</time></trkpt><trkpt lat="43.5560042" lon="12.7838082"><ele>457.0</ele><time>2026-03-08T10:08:27.929Z</time></trkpt><trkpt lat="43.5559257" lon="12.7839237"><ele>457.0</ele><time>2026-03-08T10:08:28.929Z</time></trkpt><trkpt lat="43.5558334" lon="12.7840475"><ele>457.0</ele><time>2026-03-08T10:08:29.929Z</time></trkpt><trkpt lat="43.5557336" lon="12.7841713"><ele>457.0</ele><time>2026-03-08T10:08:30.929Z</time></trkpt><trkpt lat="43.5556413" lon="12.7843004"><ele>457.0</ele><time>2026-03-08T10:08:31.929Z</time></trkpt><trkpt lat="43.5555533" lon="12.7844226"><ele>458.0</ele><time>2026-03-08T10:08:32.929Z</time></trkpt><trkpt lat="43.5554788" lon="12.784565"><ele>459.0</ele><time>2026-03-08T10:08:33.93Z</time></trkpt><trkpt lat="43.555432" lon="12.7847149"><ele>460.0</ele><time>2026-03-08T10:08:34.929Z</time></trkpt><trkpt lat="43.555408" lon="12.7848833"><ele>461.0</ele><time>2026-03-08T10:08:35.929Z</time></trkpt><trkpt lat="43.5553822" lon="12.785054"><ele>456.5</ele><time>2026-03-08T10:08:36.929Z</time></trkpt><trkpt lat="43.5553698" lon="12.7852159"><ele>452.0</ele><time>2026-03-08T10:08:37.93Z</time></trkpt><trkpt lat="43.5553441" lon="12.7853729"><ele>447.5</ele><time>2026-03-08T10:08:38.929Z</time></trkpt><trkpt lat="43.555282" lon="12.7855116"><ele>443.0</ele><time>2026-03-08T10:08:39.929Z</time></trkpt><trkpt lat="43.5551923" lon="12.7856296"><ele>443.0</ele><time>2026-03-08T10:08:40.929Z</time></trkpt><trkpt lat="43.5550893" lon="12.7857293"><ele>443.0</ele><time>2026-03-08T10:08:41.929Z</time></trkpt><trkpt lat="43.5549708" lon="12.7858063"><ele>443.0</ele><time>2026-03-08T10:08:42.929Z</time></trkpt><trkpt lat="43.5548482" lon="12.7858893"><ele>443.0</ele><time>2026-03-08T10:08:43.929Z</time></trkpt><trkpt lat="43.554732" lon="12.7860344"><ele>444.3333333333333</ele><time>2026-03-08T10:08:44.931Z</time></trkpt><trkpt lat="43.5545995" lon="12.7861732"><ele>445.66666666666663</ele><time>2026-03-08T10:08:45.93Z</time></trkpt><trkpt lat="43.5544744" lon="12.7863059"><ele>447.0</ele><time>2026-03-08T10:08:46.929Z</time></trkpt><trkpt lat="43.5543515" lon="12.786437"><ele>443.75</ele><time>2026-03-08T10:08:47.93Z</time></trkpt><trkpt lat="43.5542275" lon="12.7865592"><ele>440.5</ele><time>2026-03-08T10:08:48.929Z</time></trkpt><trkpt lat="43.5541163" lon="12.7866767"><ele>437.25</ele><time>2026-03-08T10:08:49.929Z</time></trkpt><trkpt lat="43.5540236" lon="12.7868092"><ele>434.0</ele><time>2026-03-08T10:08:50.93Z</time></trkpt><trkpt lat="43.5539311" lon="12.7869497"><ele>434.0</ele><time>2026-03-08T10:08:51.929Z</time></trkpt><trkpt lat="43.5538708" lon="12.7871177"><ele>434.0</ele><time>2026-03-08T10:08:52.929Z</time></trkpt><trkpt lat="43.553804" lon="12.7872836"><ele>434.0</ele><time>2026-03-08T10:08:53.929Z</time></trkpt><trkpt lat="43.5537887" lon="12.7874732"><ele>434.0</ele><time>2026-03-08T10:08:54.929Z</time></trkpt><trkpt lat="43.5537763" lon="12.7876879"><ele>433.0</ele><time>2026-03-08T10:08:55.93Z</time></trkpt><trkpt lat="43.5537584" lon="12.78789"><ele>432.0</ele><time>2026-03-08T10:08:56.929Z</time></trkpt><trkpt lat="43.5537014" lon="12.7880808"><ele>431.0</ele><time>2026-03-08T10:08:57.931Z</time></trkpt><trkpt lat="43.5536388" lon="12.7882566"><ele>430.0</ele><time>2026-03-08T10:08:58.929Z</time></trkpt><trkpt lat="43.553576" lon="12.7884444"><ele>425.5</ele><time>2026-03-08T10:08:59.928Z</time></trkpt><trkpt lat="43.5535085" lon="12.7886302"><ele>421.0</ele><time>2026-03-08T10:09:00.929Z</time></trkpt><trkpt lat="43.5534366" lon="12.7888091"><ele>416.5</ele><time>2026-03-08T10:09:01.93Z</time></trkpt><trkpt lat="43.5533629" lon="12.788979"><ele>412.0</ele><time>2026-03-08T10:09:02.929Z</time></trkpt><trkpt lat="43.5532846" lon="12.7891314"><ele>412.0</ele><time>2026-03-08T10:09:03.93Z</time></trkpt><trkpt lat="43.5532162" lon="12.7892868"><ele>412.0</ele><time>2026-03-08T10:09:04.929Z</time></trkpt><trkpt lat="43.5531612" lon="12.7894578"><ele>412.0</ele><time>2026-03-08T10:09:05.929Z</time></trkpt><trkpt lat="43.5531123" lon="12.7896324"><ele>412.0</ele><time>2026-03-08T10:09:06.929Z</time></trkpt><trkpt lat="43.5530651" lon="12.7898043"><ele>410.5</ele><time>2026-03-08T10:09:07.929Z</time></trkpt><trkpt lat="43.553035" lon="12.7899798"><ele>409.0</ele><time>2026-03-08T10:09:08.929Z</time></trkpt><trkpt lat="43.553027" lon="12.7901807"><ele>407.5</ele><time>2026-03-08T10:09:09.929Z</time></trkpt><trkpt lat="43.5530426" lon="12.7903457"><ele>406.0</ele><time>2026-03-08T10:09:10.929Z</time></trkpt><trkpt lat="43.5531669" lon="12.7905095"><ele>403.75</ele><time>2026-03-08T10:09:11.93Z</time></trkpt><trkpt lat="43.5532516" lon="12.7906643"><ele>401.5</ele><time>2026-03-08T10:09:12.93Z</time></trkpt><trkpt lat="43.5533265" lon="12.7908241"><ele>399.25</ele><time>2026-03-08T10:09:13.929Z</time></trkpt><trkpt lat="43.5534176" lon="12.790988"><ele>397.0</ele><time>2026-03-08T10:09:14.929Z</time></trkpt><trkpt lat="43.553504" lon="12.7911574"><ele>395.5</ele><time>2026-03-08T10:09:15.929Z</time></trkpt><trkpt lat="43.5535827" lon="12.7913084"><ele>394.0</ele><time>2026-03-08T10:09:16.93Z</time></trkpt><trkpt lat="43.553668" lon="12.7914602"><ele>392.5</ele><time>2026-03-08T10:09:17.929Z</time></trkpt><trkpt lat="43.5537417" lon="12.7916171"><ele>391.0</ele><time>2026-03-08T10:09:18.929Z</time></trkpt><trkpt lat="43.5538175" lon="12.7917806"><ele>388.5</ele><time>2026-03-08T10:09:19.929Z</time></trkpt><trkpt lat="43.5538756" lon="12.7919459"><ele>386.0</ele><time>2026-03-08T10:09:20.929Z</time></trkpt><trkpt lat="43.5539332" lon="12.7921118"><ele>383.5</ele><time>2026-03-08T10:09:21.929Z</time></trkpt><trkpt lat="43.5539916" lon="12.7922655"><ele>381.0</ele><time>2026-03-08T10:09:22.929Z</time></trkpt><trkpt lat="43.5540357" lon="12.7924246"><ele>381.0</ele><time>2026-03-08T10:09:23.929Z</time></trkpt><trkpt lat="43.5540666" lon="12.7925842"><ele>381.0</ele><time>2026-03-08T10:09:24.93Z</time></trkpt><trkpt lat="43.5540786" lon="12.7927613"><ele>381.0</ele><time>2026-03-08T10:09:25.929Z</time></trkpt><trkpt lat="43.5540716" lon="12.7929423"><ele>381.0</ele><time>2026-03-08T10:09:26.929Z</time></trkpt><trkpt lat="43.5540575" lon="12.7931404"><ele>379.25</ele><time>2026-03-08T10:09:27.93Z</time></trkpt><trkpt lat="43.5540357" lon="12.7933304"><ele>377.5</ele><time>2026-03-08T10:09:28.93Z</time></trkpt><trkpt lat="43.5540317" lon="12.7935394"><ele>375.75</ele><time>2026-03-08T10:09:29.929Z</time></trkpt><trkpt lat="43.5540259" lon="12.7937575"><ele>374.0</ele><time>2026-03-08T10:09:30.929Z</time></trkpt><trkpt lat="43.5540208" lon="12.7939636"><ele>371.33333333333337</ele><time>2026-03-08T10:09:31.929Z</time></trkpt><trkpt lat="43.5540118" lon="12.7941668"><ele>368.6666666666667</ele><time>2026-03-08T10:09:32.929Z</time></trkpt><trkpt lat="43.5539985" lon="12.7943705"><ele>366.0</ele><time>2026-03-08T10:09:33.929Z</time></trkpt><trkpt lat="43.5539837" lon="12.7945873"><ele>364.0</ele><time>2026-03-08T10:09:34.929Z</time></trkpt><trkpt lat="43.5539642" lon="12.7947875"><ele>362.0</ele><time>2026-03-08T10:09:35.93Z</time></trkpt><trkpt lat="43.5539433" lon="12.7949957"><ele>360.0</ele><time>2026-03-08T10:09:36.929Z</time></trkpt><trkpt lat="43.553929" lon="12.795202"><ele>358.0</ele><time>2026-03-08T10:09:37.929Z</time></trkpt><trkpt lat="43.553922" lon="12.7954123"><ele>356.3333333333333</ele><time>2026-03-08T10:09:38.929Z</time></trkpt><trkpt lat="43.5539084" lon="12.7956233"><ele>354.6666666666667</ele><time>2026-03-08T10:09:39.929Z</time></trkpt><trkpt lat="43.5538962" lon="12.7958271"><ele>353.0</ele><time>2026-03-08T10:09:40.929Z</time></trkpt><trkpt lat="43.5538845" lon="12.7960343"><ele>351.5</ele><time>2026-03-08T10:09:41.929Z</time></trkpt><trkpt lat="43.5538716" lon="12.7962364"><ele>350.0</ele><time>2026-03-08T10:09:42.929Z</time></trkpt><trkpt lat="43.553861" lon="12.7964365"><ele>348.5</ele><time>2026-03-08T10:09:43.929Z</time></trkpt><trkpt lat="43.5538449" lon="12.7966304"><ele>347.0</ele><time>2026-03-08T10:09:44.93Z</time></trkpt><trkpt lat="43.5538413" lon="12.7968116"><ele>347.0</ele><time>2026-03-08T10:09:45.93Z</time></trkpt><trkpt lat="43.5538385" lon="12.7970007"><ele>347.0</ele><time>2026-03-08T10:09:46.929Z</time></trkpt><trkpt lat="43.553828" lon="12.7971927"><ele>347.0</ele><time>2026-03-08T10:09:47.929Z</time></trkpt><trkpt lat="43.5538166" lon="12.797392"><ele>347.0</ele><time>2026-03-08T10:09:48.929Z</time></trkpt><trkpt lat="43.5538071" lon="12.7975888"><ele>347.0</ele><time>2026-03-08T10:09:49.93Z</time></trkpt><trkpt lat="43.5537935" lon="12.7977841"><ele>347.0</ele><time>2026-03-08T10:09:50.929Z</time></trkpt><trkpt lat="43.5537892" lon="12.797986"><ele>347.0</ele><time>2026-03-08T10:09:51.929Z</time></trkpt><trkpt lat="43.5537768" lon="12.7981727"><ele>347.0</ele><time>2026-03-08T10:09:52.931Z</time></trkpt><trkpt lat="43.5537657" lon="12.7983637"><ele>346.75</ele><time>2026-03-08T10:09:53.93Z</time></trkpt><trkpt lat="43.5537355" lon="12.7985617"><ele>346.5</ele><time>2026-03-08T10:09:54.929Z</time></trkpt><trkpt lat="43.5536789" lon="12.7987489"><ele>346.25</ele><time>2026-03-08T10:09:55.929Z</time></trkpt><trkpt lat="43.5536099" lon="12.7989256"><ele>346.0</ele><time>2026-03-08T10:09:56.929Z</time></trkpt><trkpt lat="43.5535372" lon="12.7990958"><ele>345.5</ele><time>2026-03-08T10:09:57.929Z</time></trkpt><trkpt lat="43.5534568" lon="12.7992581"><ele>345.0</ele><time>2026-03-08T10:09:58.929Z</time></trkpt><trkpt lat="43.5533791" lon="12.7994089"><ele>344.5</ele><time>2026-03-08T10:09:59.929Z</time></trkpt><trkpt lat="43.5532899" lon="12.7995422"><ele>344.0</ele><time>2026-03-08T10:10:00.929Z</time></trkpt><trkpt lat="43.5532013" lon="12.7996829"><ele>344.0</ele><time>2026-03-08T10:10:01.929Z</time></trkpt><trkpt lat="43.5531257" lon="12.7998189"><ele>344.0</ele><time>2026-03-08T10:10:02.929Z</time></trkpt><trkpt lat="43.5530538" lon="12.7999644"><ele>344.0</ele><time>2026-03-08T10:10:03.929Z</time></trkpt><trkpt lat="43.552982" lon="12.8001362"><ele>344.0</ele><time>2026-03-08T10:10:04.93Z</time></trkpt><trkpt lat="43.552926" lon="12.8003066"><ele>343.75</ele><time>2026-03-08T10:10:05.929Z</time></trkpt><trkpt lat="43.5528834" lon="12.8004737"><ele>343.5</ele><time>2026-03-08T10:10:06.93Z</time></trkpt><trkpt lat="43.5528743" lon="12.8006442"><ele>343.25</ele><time>2026-03-08T10:10:07.931Z</time></trkpt><trkpt lat="43.5528767" lon="12.8008144"><ele>343.0</ele><time>2026-03-08T10:10:08.929Z</time></trkpt><trkpt lat="43.552867" lon="12.8009948"><ele>339.0</ele><time>2026-03-08T10:10:09.929Z</time></trkpt><trkpt lat="43.5528497" lon="12.801172"><ele>335.0</ele><time>2026-03-08T10:10:10.929Z</time></trkpt><trkpt lat="43.5528388" lon="12.8013621"><ele>331.0</ele><time>2026-03-08T10:10:11.93Z</time></trkpt><trkpt lat="43.5528172" lon="12.8015494"><ele>327.0</ele><time>2026-03-08T10:10:12.93Z</time></trkpt><trkpt lat="43.5527994" lon="12.8017321"><ele>326.0</ele><time>2026-03-08T10:10:13.931Z</time></trkpt><trkpt lat="43.5527862" lon="12.8018751"><ele>325.0</ele><time>2026-03-08T10:10:14.929Z</time></trkpt><trkpt lat="43.5527647" lon="12.8020343"><ele>324.0</ele><time>2026-03-08T10:10:15.929Z</time></trkpt><trkpt lat="43.5527315" lon="12.8022242"><ele>323.0</ele><time>2026-03-08T10:10:16.93Z</time></trkpt><trkpt lat="43.5526747" lon="12.8024101"><ele>323.0</ele><time>2026-03-08T10:10:17.929Z</time></trkpt><trkpt lat="43.5526202" lon="12.8025837"><ele>323.0</ele><time>2026-03-08T10:10:18.929Z</time></trkpt><trkpt lat="43.5525556" lon="12.8027529"><ele>323.0</ele><time>2026-03-08T10:10:19.93Z</time></trkpt><trkpt lat="43.5524787" lon="12.8029211"><ele>323.0</ele><time>2026-03-08T10:10:20.929Z</time></trkpt><trkpt lat="43.5523948" lon="12.8030759"><ele>320.75</ele><time>2026-03-08T10:10:21.929Z</time></trkpt><trkpt lat="43.5522992" lon="12.803226"><ele>318.5</ele><time>2026-03-08T10:10:22.929Z</time></trkpt><trkpt lat="43.5522199" lon="12.8033473"><ele>316.25</ele><time>2026-03-08T10:10:23.931Z</time></trkpt><trkpt lat="43.5521469" lon="12.803455"><ele>314.0</ele><time>2026-03-08T10:10:24.93Z</time></trkpt><trkpt lat="43.5520971" lon="12.8035673"><ele>312.5</ele><time>2026-03-08T10:10:25.929Z</time></trkpt><trkpt lat="43.5520262" lon="12.803649"><ele>311.0</ele><time>2026-03-08T10:10:26.929Z</time></trkpt><trkpt lat="43.5519739" lon="12.803705"><ele>309.5</ele><time>2026-03-08T10:10:27.929Z</time></trkpt><trkpt lat="43.5518965" lon="12.8037281"><ele>308.0</ele><time>2026-03-08T10:10:29.931Z</time></trkpt><trkpt lat="43.5518382" lon="12.8036641"><ele>306.5</ele><time>2026-03-08T10:10:31.929Z</time></trkpt><trkpt lat="43.5517944" lon="12.8034989"><ele>305.0</ele><time>2026-03-08T10:10:33.93Z</time></trkpt><trkpt lat="43.5517687" lon="12.8033923"><ele>305.0</ele><time>2026-03-08T10:10:34.929Z</time></trkpt><trkpt lat="43.5517413" lon="12.8032713"><ele>305.0</ele><time>2026-03-08T10:10:35.93Z</time></trkpt><trkpt lat="43.5517171" lon="12.8031668"><ele>305.0</ele><time>2026-03-08T10:10:36.929Z</time></trkpt><trkpt lat="43.5516978" lon="12.803072"><ele>305.0</ele><time>2026-03-08T10:10:37.929Z</time></trkpt><trkpt lat="43.5516822" lon="12.8029847"><ele>305.0</ele><time>2026-03-08T10:10:38.929Z</time></trkpt><trkpt lat="43.5516588" lon="12.8028995"><ele>305.0</ele><time>2026-03-08T10:10:39.93Z</time></trkpt><trkpt lat="43.5516379" lon="12.8027948"><ele>305.0</ele><time>2026-03-08T10:10:41.929Z</time></trkpt><trkpt lat="43.5516278" lon="12.8029197"><ele>305.0</ele><time>2026-03-08T10:10:50.929Z</time></trkpt><trkpt lat="43.5516514" lon="12.8030162"><ele>305.0</ele><time>2026-03-08T10:10:51.93Z</time></trkpt><trkpt lat="43.551673" lon="12.8031178"><ele>305.0</ele><time>2026-03-08T10:10:52.929Z</time></trkpt><trkpt lat="43.5517026" lon="12.8032402"><ele>305.0</ele><time>2026-03-08T10:10:53.929Z</time></trkpt><trkpt lat="43.5517191" lon="12.8033392"><ele>305.0</ele><time>2026-03-08T10:10:54.929Z</time></trkpt><trkpt lat="43.5516716" lon="12.8034079"><ele>305.0</ele><time>2026-03-08T10:10:56.929Z</time></trkpt><trkpt lat="43.5515845" lon="12.8033044"><ele>305.0</ele><time>2026-03-08T10:10:58.93Z</time></trkpt><trkpt lat="43.5515137" lon="12.80325"><ele>305.0</ele><time>2026-03-08T10:10:59.93Z</time></trkpt><trkpt lat="43.5514146" lon="12.8032334"><ele>305.0</ele><time>2026-03-08T10:11:00.929Z</time></trkpt><trkpt lat="43.5513135" lon="12.8032482"><ele>305.0</ele><time>2026-03-08T10:11:01.929Z</time></trkpt><trkpt lat="43.5512148" lon="12.8032565"><ele>303.0</ele><time>2026-03-08T10:11:02.929Z</time></trkpt><trkpt lat="43.5511264" lon="12.8032058"><ele>301.0</ele><time>2026-03-08T10:11:03.93Z</time></trkpt><trkpt lat="43.5510485" lon="12.8031077"><ele>299.0</ele><time>2026-03-08T10:11:04.929Z</time></trkpt><trkpt lat="43.5509659" lon="12.8029863"><ele>297.0</ele><time>2026-03-08T10:11:05.93Z</time></trkpt><trkpt lat="43.5508828" lon="12.8028519"><ele>297.0</ele><time>2026-03-08T10:11:06.93Z</time></trkpt><trkpt lat="43.5508019" lon="12.8027027"><ele>297.0</ele><time>2026-03-08T10:11:07.93Z</time></trkpt><trkpt lat="43.5507332" lon="12.802552"><ele>297.0</ele><time>2026-03-08T10:11:08.93Z</time></trkpt><trkpt lat="43.5506484" lon="12.802402"><ele>297.0</ele><time>2026-03-08T10:11:09.929Z</time></trkpt><trkpt lat="43.5505602" lon="12.8022428"><ele>296.75</ele><time>2026-03-08T10:11:10.929Z</time></trkpt><trkpt lat="43.5504696" lon="12.8020819"><ele>296.5</ele><time>2026-03-08T10:11:11.929Z</time></trkpt><trkpt lat="43.5503866" lon="12.8019204"><ele>296.25</ele><time>2026-03-08T10:11:12.929Z</time></trkpt><trkpt lat="43.5503067" lon="12.8017775"><ele>296.0</ele><time>2026-03-08T10:11:13.929Z</time></trkpt><trkpt lat="43.5502275" lon="12.8016381"><ele>296.0</ele><time>2026-03-08T10:11:14.929Z</time></trkpt><trkpt lat="43.5501473" lon="12.8015071"><ele>296.0</ele><time>2026-03-08T10:11:15.929Z</time></trkpt><trkpt lat="43.5500715" lon="12.8013791"><ele>296.0</ele><time>2026-03-08T10:11:16.929Z</time></trkpt><trkpt lat="43.5499946" lon="12.8012603"><ele>296.0</ele><time>2026-03-08T10:11:17.929Z</time></trkpt><trkpt lat="43.5499194" lon="12.8011458"><ele>296.0</ele><time>2026-03-08T10:11:18.93Z</time></trkpt><trkpt lat="43.5498469" lon="12.801019"><ele>296.0</ele><time>2026-03-08T10:11:19.929Z</time></trkpt><trkpt lat="43.5497724" lon="12.8009056"><ele>296.0</ele><time>2026-03-08T10:11:20.93Z</time></trkpt><trkpt lat="43.5496939" lon="12.8007897"><ele>296.0</ele><time>2026-03-08T10:11:21.929Z</time></trkpt><trkpt lat="43.5496149" lon="12.8006696"><ele>294.0</ele><time>2026-03-08T10:11:22.929Z</time></trkpt><trkpt lat="43.5495357" lon="12.8005405"><ele>292.0</ele><time>2026-03-08T10:11:23.929Z</time></trkpt><trkpt lat="43.5494538" lon="12.800412"><ele>290.0</ele><time>2026-03-08T10:11:24.93Z</time></trkpt><trkpt lat="43.5493729" lon="12.8002834"><ele>288.0</ele><time>2026-03-08T10:11:25.929Z</time></trkpt><trkpt lat="43.5492907" lon="12.8001619"><ele>287.6</ele><time>2026-03-08T10:11:26.929Z</time></trkpt><trkpt lat="43.5492096" lon="12.8000393"><ele>287.20000000000005</ele><time>2026-03-08T10:11:27.93Z</time></trkpt><trkpt lat="43.5491329" lon="12.7999171"><ele>286.8</ele><time>2026-03-08T10:11:28.929Z</time></trkpt><trkpt lat="43.5490586" lon="12.799816"><ele>286.40000000000003</ele><time>2026-03-08T10:11:29.93Z</time></trkpt><trkpt lat="43.5489734" lon="12.7997276"><ele>286.0</ele><time>2026-03-08T10:11:30.93Z</time></trkpt><trkpt lat="43.5488833" lon="12.7996619"><ele>286.0</ele><time>2026-03-08T10:11:31.929Z</time></trkpt><trkpt lat="43.5487851" lon="12.7996145"><ele>286.0</ele><time>2026-03-08T10:11:32.929Z</time></trkpt><trkpt lat="43.548685" lon="12.7995761"><ele>286.0</ele><time>2026-03-08T10:11:33.929Z</time></trkpt><trkpt lat="43.5485761" lon="12.7995498"><ele>286.0</ele><time>2026-03-08T10:11:34.929Z</time></trkpt><trkpt lat="43.5484658" lon="12.7995326"><ele>286.0</ele><time>2026-03-08T10:11:35.929Z</time></trkpt><trkpt lat="43.548358" lon="12.7995193"><ele>284.6</ele><time>2026-03-08T10:11:36.929Z</time></trkpt><trkpt lat="43.5482578" lon="12.799512"><ele>283.20000000000005</ele><time>2026-03-08T10:11:37.93Z</time></trkpt><trkpt lat="43.5481668" lon="12.7995005"><ele>281.79999999999995</ele><time>2026-03-08T10:11:38.929Z</time></trkpt><trkpt lat="43.5480841" lon="12.7995086"><ele>280.4</ele><time>2026-03-08T10:11:39.93Z</time></trkpt><trkpt lat="43.547994" lon="12.799509"><ele>279.0</ele><time>2026-03-08T10:11:40.929Z</time></trkpt><trkpt lat="43.5479007" lon="12.7995194"><ele>279.25</ele><time>2026-03-08T10:11:41.93Z</time></trkpt><trkpt lat="43.5477871" lon="12.7995253"><ele>279.5</ele><time>2026-03-08T10:11:42.929Z</time></trkpt><trkpt lat="43.5476699" lon="12.7995516"><ele>279.75</ele><time>2026-03-08T10:11:43.929Z</time></trkpt><trkpt lat="43.5475413" lon="12.7995945"><ele>280.0</ele><time>2026-03-08T10:11:44.93Z</time></trkpt><trkpt lat="43.5473874" lon="12.7996499"><ele>280.0</ele><time>2026-03-08T10:11:45.929Z</time></trkpt><trkpt lat="43.5472479" lon="12.7997173"><ele>280.0</ele><time>2026-03-08T10:11:46.93Z</time></trkpt><trkpt lat="43.5471168" lon="12.7997723"><ele>280.0</ele><time>2026-03-08T10:11:47.929Z</time></trkpt><trkpt lat="43.5470016" lon="12.7998142"><ele>280.0</ele><time>2026-03-08T10:11:48.929Z</time></trkpt><trkpt lat="43.5468983" lon="12.7998536"><ele>280.8333333333333</ele><time>2026-03-08T10:11:49.929Z</time></trkpt><trkpt lat="43.5468066" lon="12.7998803"><ele>281.66666666666663</ele><time>2026-03-08T10:11:50.929Z</time></trkpt><trkpt lat="43.5467226" lon="12.7998707"><ele>282.5</ele><time>2026-03-08T10:11:51.93Z</time></trkpt><trkpt lat="43.5466527" lon="12.7998147"><ele>283.3333333333333</ele><time>2026-03-08T10:11:52.929Z</time></trkpt><trkpt lat="43.5466062" lon="12.7997221"><ele>284.1666666666667</ele><time>2026-03-08T10:11:53.929Z</time></trkpt><trkpt lat="43.5465721" lon="12.799604"><ele>285.0</ele><time>2026-03-08T10:11:54.929Z</time></trkpt><trkpt lat="43.5465193" lon="12.7994707"><ele>285.0</ele><time>2026-03-08T10:11:55.929Z</time></trkpt><trkpt lat="43.5464627" lon="12.7993356"><ele>285.0</ele><time>2026-03-08T10:11:56.929Z</time></trkpt><trkpt lat="43.5463815" lon="12.7992036"><ele>285.0</ele><time>2026-03-08T10:11:57.929Z</time></trkpt><trkpt lat="43.5462186" lon="12.7990899"><ele>285.0</ele><time>2026-03-08T10:11:58.929Z</time></trkpt><trkpt lat="43.5460866" lon="12.7989788"><ele>290.0</ele><time>2026-03-08T10:11:59.929Z</time></trkpt><trkpt lat="43.5459799" lon="12.7988282"><ele>295.0</ele><time>2026-03-08T10:12:00.929Z</time></trkpt><trkpt lat="43.5458805" lon="12.7986965"><ele>300.0</ele><time>2026-03-08T10:12:01.929Z</time></trkpt><trkpt lat="43.545784" lon="12.7985788"><ele>305.0</ele><time>2026-03-08T10:12:02.929Z</time></trkpt><trkpt lat="43.5456713" lon="12.7984886"><ele>305.5</ele><time>2026-03-08T10:12:03.929Z</time></trkpt><trkpt lat="43.5455735" lon="12.798374"><ele>306.0</ele><time>2026-03-08T10:12:04.929Z</time></trkpt><trkpt lat="43.5454587" lon="12.7982814"><ele>306.5</ele><time>2026-03-08T10:12:05.929Z</time></trkpt><trkpt lat="43.5453385" lon="12.7982109"><ele>307.0</ele><time>2026-03-08T10:12:06.929Z</time></trkpt><trkpt lat="43.5452391" lon="12.7981129"><ele>307.25</ele><time>2026-03-08T10:12:07.929Z</time></trkpt><trkpt lat="43.5451685" lon="12.7979601"><ele>307.5</ele><time>2026-03-08T10:12:08.929Z</time></trkpt><trkpt lat="43.5451376" lon="12.7978541"><ele>307.75</ele><time>2026-03-08T10:12:09.93Z</time></trkpt><trkpt lat="43.5450486" lon="12.7976736"><ele>308.0</ele><time>2026-03-08T10:12:10.929Z</time></trkpt><trkpt lat="43.544953" lon="12.7974905"><ele>307.25</ele><time>2026-03-08T10:12:11.929Z</time></trkpt><trkpt lat="43.54485" lon="12.7973296"><ele>306.5</ele><time>2026-03-08T10:12:12.929Z</time></trkpt><trkpt lat="43.5447659" lon="12.797188"><ele>305.75</ele><time>2026-03-08T10:12:13.929Z</time></trkpt><trkpt lat="43.5446762" lon="12.7970784"><ele>305.0</ele><time>2026-03-08T10:12:14.929Z</time></trkpt><trkpt lat="43.5445608" lon="12.7970093"><ele>306.0</ele><time>2026-03-08T10:12:15.929Z</time></trkpt><trkpt lat="43.5444185" lon="12.796967"><ele>307.0</ele><time>2026-03-08T10:12:16.929Z</time></trkpt><trkpt lat="43.5442788" lon="12.7969452"><ele>308.0</ele><time>2026-03-08T10:12:17.929Z</time></trkpt><trkpt lat="43.5441272" lon="12.7969151"><ele>309.0</ele><time>2026-03-08T10:12:18.929Z</time></trkpt><trkpt lat="43.5439609" lon="12.7968885"><ele>309.0</ele><time>2026-03-08T10:12:19.929Z</time></trkpt><trkpt lat="43.5437775" lon="12.7968597"><ele>309.0</ele><time>2026-03-08T10:12:20.929Z</time></trkpt><trkpt lat="43.5435931" lon="12.7968399"><ele>309.0</ele><time>2026-03-08T10:12:21.929Z</time></trkpt><trkpt lat="43.5434053" lon="12.7968037"><ele>311.0</ele><time>2026-03-08T10:12:22.929Z</time></trkpt><trkpt lat="43.5432356" lon="12.7967749"><ele>313.0</ele><time>2026-03-08T10:12:23.93Z</time></trkpt><trkpt lat="43.5430891" lon="12.7967863"><ele>315.0</ele><time>2026-03-08T10:12:24.93Z</time></trkpt><trkpt lat="43.5429585" lon="12.7968096"><ele>317.0</ele><time>2026-03-08T10:12:25.929Z</time></trkpt><trkpt lat="43.542834" lon="12.79684"><ele>317.25</ele><time>2026-03-08T10:12:26.929Z</time></trkpt><trkpt lat="43.5427079" lon="12.7968742"><ele>317.5</ele><time>2026-03-08T10:12:27.929Z</time></trkpt><trkpt lat="43.5425738" lon="12.7969149"><ele>317.75</ele><time>2026-03-08T10:12:28.929Z</time></trkpt><trkpt lat="43.5424382" lon="12.79695"><ele>318.0</ele><time>2026-03-08T10:12:29.929Z</time></trkpt><trkpt lat="43.5423033" lon="12.7969644"><ele>318.0</ele><time>2026-03-08T10:12:30.929Z</time></trkpt><trkpt lat="43.5421596" lon="12.7969511"><ele>318.0</ele><time>2026-03-08T10:12:31.931Z</time></trkpt><trkpt lat="43.5420101" lon="12.7969352"><ele>318.0</ele><time>2026-03-08T10:12:32.93Z</time></trkpt><trkpt lat="43.5418559" lon="12.7969255"><ele>318.0</ele><time>2026-03-08T10:12:33.929Z</time></trkpt><trkpt lat="43.5417083" lon="12.7969388"><ele>319.5</ele><time>2026-03-08T10:12:34.93Z</time></trkpt><trkpt lat="43.5415671" lon="12.7969445"><ele>321.0</ele><time>2026-03-08T10:12:35.929Z</time></trkpt><trkpt lat="43.5414386" lon="12.796929"><ele>322.5</ele><time>2026-03-08T10:12:36.929Z</time></trkpt><trkpt lat="43.5413137" lon="12.7968717"><ele>324.0</ele><time>2026-03-08T10:12:37.929Z</time></trkpt><trkpt lat="43.5411881" lon="12.7968021"><ele>328.4</ele><time>2026-03-08T10:12:38.93Z</time></trkpt><trkpt lat="43.5410677" lon="12.7967335"><ele>332.79999999999995</ele><time>2026-03-08T10:12:39.929Z</time></trkpt><trkpt lat="43.5409589" lon="12.7966711"><ele>337.20000000000005</ele><time>2026-03-08T10:12:40.929Z</time></trkpt><trkpt lat="43.5408603" lon="12.7966134"><ele>341.6</ele><time>2026-03-08T10:12:41.929Z</time></trkpt><trkpt lat="43.5407815" lon="12.7965797"><ele>346.0</ele><time>2026-03-08T10:12:42.929Z</time></trkpt><trkpt lat="43.5407082" lon="12.796572"><ele>346.0</ele><time>2026-03-08T10:12:43.93Z</time></trkpt><trkpt lat="43.5406433" lon="12.796573"><ele>346.0</ele><time>2026-03-08T10:12:44.93Z</time></trkpt><trkpt lat="43.5405652" lon="12.7965695"><ele>346.0</ele><time>2026-03-08T10:12:45.93Z</time></trkpt><trkpt lat="43.540465" lon="12.796581"><ele>346.0</ele><time>2026-03-08T10:12:46.93Z</time></trkpt><trkpt lat="43.5403625" lon="12.7965925"><ele>346.0</ele><time>2026-03-08T10:12:47.929Z</time></trkpt><trkpt lat="43.5402497" lon="12.7966212"><ele>346.5</ele><time>2026-03-08T10:12:48.93Z</time></trkpt><trkpt lat="43.5401287" lon="12.7966465"><ele>347.0</ele><time>2026-03-08T10:12:49.93Z</time></trkpt><trkpt lat="43.5399927" lon="12.7966601"><ele>347.5</ele><time>2026-03-08T10:12:50.929Z</time></trkpt><trkpt lat="43.5398621" lon="12.7966816"><ele>348.0</ele><time>2026-03-08T10:12:51.929Z</time></trkpt><trkpt lat="43.5397226" lon="12.7967005"><ele>348.0</ele><time>2026-03-08T10:12:52.929Z</time></trkpt><trkpt lat="43.5395771" lon="12.7967182"><ele>348.0</ele><time>2026-03-08T10:12:53.929Z</time></trkpt><trkpt lat="43.539434" lon="12.7967469"><ele>348.0</ele><time>2026-03-08T10:12:54.93Z</time></trkpt><trkpt lat="43.5392812" lon="12.7967692"><ele>348.0</ele><time>2026-03-08T10:12:55.929Z</time></trkpt><trkpt lat="43.5391447" lon="12.7968017"><ele>349.75</ele><time>2026-03-08T10:12:56.929Z</time></trkpt><trkpt lat="43.5390146" lon="12.7968255"><ele>351.5</ele><time>2026-03-08T10:12:57.929Z</time></trkpt><trkpt lat="43.5388892" lon="12.7968429"><ele>353.25</ele><time>2026-03-08T10:12:58.93Z</time></trkpt><trkpt lat="43.5387473" lon="12.7968547"><ele>355.0</ele><time>2026-03-08T10:12:59.93Z</time></trkpt><trkpt lat="43.5386007" lon="12.7968533"><ele>355.5</ele><time>2026-03-08T10:13:00.929Z</time></trkpt><trkpt lat="43.5384556" lon="12.7968366"><ele>356.0</ele><time>2026-03-08T10:13:01.93Z</time></trkpt><trkpt lat="43.5383073" lon="12.7968133"><ele>356.5</ele><time>2026-03-08T10:13:02.93Z</time></trkpt><trkpt lat="43.5381707" lon="12.7968175"><ele>357.0</ele><time>2026-03-08T10:13:03.929Z</time></trkpt><trkpt lat="43.5380281" lon="12.7968419"><ele>353.75</ele><time>2026-03-08T10:13:04.929Z</time></trkpt><trkpt lat="43.5378945" lon="12.796913"><ele>350.5</ele><time>2026-03-08T10:13:05.93Z</time></trkpt><trkpt lat="43.5377577" lon="12.7969066"><ele>347.25</ele><time>2026-03-08T10:13:06.93Z</time></trkpt><trkpt lat="43.5376192" lon="12.7969317"><ele>344.0</ele><time>2026-03-08T10:13:07.929Z</time></trkpt><trkpt lat="43.5374902" lon="12.7969509"><ele>344.0</ele><time>2026-03-08T10:13:08.93Z</time></trkpt><trkpt lat="43.5373694" lon="12.7969857"><ele>344.0</ele><time>2026-03-08T10:13:09.929Z</time></trkpt><trkpt lat="43.5372587" lon="12.7970159"><ele>344.0</ele><time>2026-03-08T10:13:10.929Z</time></trkpt><trkpt lat="43.537154" lon="12.7970227"><ele>344.0</ele><time>2026-03-08T10:13:11.929Z</time></trkpt><trkpt lat="43.5370312" lon="12.79699"><ele>344.0</ele><time>2026-03-08T10:13:12.93Z</time></trkpt><trkpt lat="43.5369074" lon="12.7969531"><ele>344.0</ele><time>2026-03-08T10:13:13.929Z</time></trkpt><trkpt lat="43.5367774" lon="12.7969364"><ele>344.0</ele><time>2026-03-08T10:13:14.929Z</time></trkpt><trkpt lat="43.5366371" lon="12.7969228"><ele>344.0</ele><time>2026-03-08T10:13:15.929Z</time></trkpt><trkpt lat="43.5365022" lon="12.7969098"><ele>344.0</ele><time>2026-03-08T10:13:16.929Z</time></trkpt><trkpt lat="43.5363596" lon="12.7968868"><ele>344.0</ele><time>2026-03-08T10:13:17.929Z</time></trkpt><trkpt lat="43.5362162" lon="12.7968813"><ele>344.0</ele><time>2026-03-08T10:13:18.93Z</time></trkpt><trkpt lat="43.5360774" lon="12.796883"><ele>344.0</ele><time>2026-03-08T10:13:19.929Z</time></trkpt><trkpt lat="43.5359477" lon="12.7969079"><ele>344.0</ele><time>2026-03-08T10:13:20.929Z</time></trkpt><trkpt lat="43.5358253" lon="12.7969575"><ele>344.0</ele><time>2026-03-08T10:13:21.929Z</time></trkpt><trkpt lat="43.5357097" lon="12.7970093"><ele>344.0</ele><time>2026-03-08T10:13:22.929Z</time></trkpt><trkpt lat="43.5356002" lon="12.7970268"><ele>344.0</ele><time>2026-03-08T10:13:23.929Z</time></trkpt><trkpt lat="43.5354953" lon="12.7970416"><ele>344.5</ele><time>2026-03-08T10:13:24.929Z</time></trkpt><trkpt lat="43.5353706" lon="12.7970365"><ele>345.0</ele><time>2026-03-08T10:13:25.929Z</time></trkpt><trkpt lat="43.5352414" lon="12.7970173"><ele>345.5</ele><time>2026-03-08T10:13:26.929Z</time></trkpt><trkpt lat="43.5351113" lon="12.7970023"><ele>346.0</ele><time>2026-03-08T10:13:27.929Z</time></trkpt><trkpt lat="43.5349805" lon="12.7969756"><ele>346.0</ele><time>2026-03-08T10:13:28.93Z</time></trkpt><trkpt lat="43.5348658" lon="12.7969367"><ele>346.0</ele><time>2026-03-08T10:13:29.931Z</time></trkpt><trkpt lat="43.5347602" lon="12.7968816"><ele>346.0</ele><time>2026-03-08T10:13:30.929Z</time></trkpt><trkpt lat="43.5346597" lon="12.7968116"><ele>346.0</ele><time>2026-03-08T10:13:31.929Z</time></trkpt><trkpt lat="43.534566" lon="12.7967077"><ele>348.25</ele><time>2026-03-08T10:13:32.931Z</time></trkpt><trkpt lat="43.5344708" lon="12.79661"><ele>350.5</ele><time>2026-03-08T10:13:33.929Z</time></trkpt><trkpt lat="43.5343755" lon="12.7964982"><ele>352.75</ele><time>2026-03-08T10:13:34.929Z</time></trkpt><trkpt lat="43.5342838" lon="12.796388"><ele>355.0</ele><time>2026-03-08T10:13:35.929Z</time></trkpt><trkpt lat="43.5342091" lon="12.7962576"><ele>355.0</ele><time>2026-03-08T10:13:36.929Z</time></trkpt><trkpt lat="43.5341539" lon="12.7961203"><ele>355.0</ele><time>2026-03-08T10:13:37.929Z</time></trkpt><trkpt lat="43.5340936" lon="12.7959695"><ele>355.0</ele><time>2026-03-08T10:13:38.93Z</time></trkpt><trkpt lat="43.5340188" lon="12.7958168"><ele>355.0</ele><time>2026-03-08T10:13:39.929Z</time></trkpt><trkpt lat="43.5339428" lon="12.7956537"><ele>354.75</ele><time>2026-03-08T10:13:40.929Z</time></trkpt><trkpt lat="43.533863" lon="12.7955075"><ele>354.5</ele><time>2026-03-08T10:13:41.929Z</time></trkpt><trkpt lat="43.5337701" lon="12.7953371"><ele>354.25</ele><time>2026-03-08T10:13:42.93Z</time></trkpt><trkpt lat="43.5336843" lon="12.7952015"><ele>354.0</ele><time>2026-03-08T10:13:43.929Z</time></trkpt><trkpt lat="43.5335755" lon="12.795068"><ele>356.0</ele><time>2026-03-08T10:13:44.929Z</time></trkpt><trkpt lat="43.5334648" lon="12.7949604"><ele>358.0</ele><time>2026-03-08T10:13:45.929Z</time></trkpt><trkpt lat="43.5333606" lon="12.7948527"><ele>360.0</ele><time>2026-03-08T10:13:46.929Z</time></trkpt><trkpt lat="43.5332668" lon="12.7947333"><ele>362.0</ele><time>2026-03-08T10:13:47.93Z</time></trkpt><trkpt lat="43.5331849" lon="12.7945976"><ele>362.0</ele><time>2026-03-08T10:13:48.929Z</time></trkpt><trkpt lat="43.5330938" lon="12.7944698"><ele>362.0</ele><time>2026-03-08T10:13:49.929Z</time></trkpt><trkpt lat="43.533002" lon="12.7943576"><ele>362.0</ele><time>2026-03-08T10:13:50.93Z</time></trkpt><trkpt lat="43.5328955" lon="12.7942938"><ele>362.0</ele><time>2026-03-08T10:13:51.93Z</time></trkpt><trkpt lat="43.532798" lon="12.7942764"><ele>362.0</ele><time>2026-03-08T10:13:52.93Z</time></trkpt><trkpt lat="43.5327107" lon="12.794306"><ele>362.0</ele><time>2026-03-08T10:13:53.929Z</time></trkpt><trkpt lat="43.5326306" lon="12.794365"><ele>362.0</ele><time>2026-03-08T10:13:54.929Z</time></trkpt><trkpt lat="43.5325471" lon="12.7944425"><ele>362.0</ele><time>2026-03-08T10:13:55.929Z</time></trkpt><trkpt lat="43.5324592" lon="12.7945287"><ele>362.0</ele><time>2026-03-08T10:13:56.929Z</time></trkpt><trkpt lat="43.5323773" lon="12.7946029"><ele>362.0</ele><time>2026-03-08T10:13:57.929Z</time></trkpt><trkpt lat="43.53229" lon="12.7946788"><ele>362.0</ele><time>2026-03-08T10:13:58.93Z</time></trkpt><trkpt lat="43.5322111" lon="12.794741"><ele>362.0</ele><time>2026-03-08T10:13:59.929Z</time></trkpt><trkpt lat="43.5321342" lon="12.7947848"><ele>362.0</ele><time>2026-03-08T10:14:00.929Z</time></trkpt><trkpt lat="43.5320501" lon="12.7947858"><ele>362.0</ele><time>2026-03-08T10:14:01.93Z</time></trkpt><trkpt lat="43.531963" lon="12.7947282"><ele>363.25</ele><time>2026-03-08T10:14:02.929Z</time></trkpt><trkpt lat="43.5318756" lon="12.7946331"><ele>364.5</ele><time>2026-03-08T10:14:03.929Z</time></trkpt><trkpt lat="43.5317877" lon="12.7945179"><ele>365.75</ele><time>2026-03-08T10:14:04.929Z</time></trkpt><trkpt lat="43.5316815" lon="12.7944113"><ele>367.0</ele><time>2026-03-08T10:14:05.929Z</time></trkpt><trkpt lat="43.5315362" lon="12.7943287"><ele>371.3333333333333</ele><time>2026-03-08T10:14:06.929Z</time></trkpt><trkpt lat="43.5313687" lon="12.7942508"><ele>375.6666666666667</ele><time>2026-03-08T10:14:07.93Z</time></trkpt><trkpt lat="43.5311807" lon="12.7941484"><ele>380.0</ele><time>2026-03-08T10:14:08.929Z</time></trkpt><trkpt lat="43.5309932" lon="12.79406"><ele>381.5</ele><time>2026-03-08T10:14:09.929Z</time></trkpt><trkpt lat="43.5308426" lon="12.7940199"><ele>383.0</ele><time>2026-03-08T10:14:10.929Z</time></trkpt><trkpt lat="43.5307077" lon="12.7940029"><ele>384.5</ele><time>2026-03-08T10:14:11.929Z</time></trkpt><trkpt lat="43.5305622" lon="12.7940048"><ele>386.0</ele><time>2026-03-08T10:14:12.929Z</time></trkpt><trkpt lat="43.5304619" lon="12.7940262"><ele>388.66666666666663</ele><time>2026-03-08T10:14:13.929Z</time></trkpt><trkpt lat="43.5303832" lon="12.794094"><ele>391.33333333333337</ele><time>2026-03-08T10:14:14.93Z</time></trkpt><trkpt lat="43.530296" lon="12.794137"><ele>394.0</ele><time>2026-03-08T10:14:15.929Z</time></trkpt><trkpt lat="43.5302129" lon="12.7945276"><ele>394.0</ele><time>2026-03-08T10:14:16.93Z</time></trkpt><trkpt lat="43.530251" lon="12.7947206"><ele>394.0</ele><time>2026-03-08T10:14:17.93Z</time></trkpt><trkpt lat="43.53028" lon="12.7949772"><ele>394.0</ele><time>2026-03-08T10:14:18.929Z</time></trkpt><trkpt lat="43.5303997" lon="12.7951598"><ele>392.2</ele><time>2026-03-08T10:14:19.93Z</time></trkpt><trkpt lat="43.5304123" lon="12.795334"><ele>390.4</ele><time>2026-03-08T10:14:20.929Z</time></trkpt><trkpt lat="43.5304378" lon="12.7954885"><ele>388.6</ele><time>2026-03-08T10:14:21.929Z</time></trkpt><trkpt lat="43.5304329" lon="12.7956116"><ele>386.8</ele><time>2026-03-08T10:14:22.929Z</time></trkpt><trkpt lat="43.530391" lon="12.7957076"><ele>385.0</ele><time>2026-03-08T10:14:23.929Z</time></trkpt><trkpt lat="43.5303292" lon="12.795778"><ele>385.0</ele><time>2026-03-08T10:14:24.93Z</time></trkpt><trkpt lat="43.5302423" lon="12.7958471"><ele>385.0</ele><time>2026-03-08T10:14:25.929Z</time></trkpt><trkpt lat="43.530147" lon="12.7959136"><ele>385.0</ele><time>2026-03-08T10:14:26.929Z</time></trkpt><trkpt lat="43.5300311" lon="12.7959876"><ele>385.0</ele><time>2026-03-08T10:14:27.929Z</time></trkpt><trkpt lat="43.5298962" lon="12.7960742"><ele>382.6666666666667</ele><time>2026-03-08T10:14:28.929Z</time></trkpt><trkpt lat="43.5297528" lon="12.7961714"><ele>380.33333333333337</ele><time>2026-03-08T10:14:29.929Z</time></trkpt><trkpt lat="43.5296084" lon="12.7962854"><ele>378.0</ele><time>2026-03-08T10:14:30.93Z</time></trkpt><trkpt lat="43.5294774" lon="12.7964139"><ele>382.5</ele><time>2026-03-08T10:14:31.93Z</time></trkpt><trkpt lat="43.5293456" lon="12.7965505"><ele>387.0</ele><time>2026-03-08T10:14:32.93Z</time></trkpt><trkpt lat="43.5292472" lon="12.7966633"><ele>391.5</ele><time>2026-03-08T10:14:33.929Z</time></trkpt><trkpt lat="43.5291466" lon="12.7967498"><ele>396.0</ele><time>2026-03-08T10:14:34.929Z</time></trkpt><trkpt lat="43.5290426" lon="12.7967967"><ele>396.0</ele><time>2026-03-08T10:14:35.929Z</time></trkpt><trkpt lat="43.5289476" lon="12.7967965"><ele>396.0</ele><time>2026-03-08T10:14:36.929Z</time></trkpt><trkpt lat="43.5288601" lon="12.7967592"><ele>396.0</ele><time>2026-03-08T10:14:37.93Z</time></trkpt><trkpt lat="43.5287786" lon="12.7966953"><ele>396.0</ele><time>2026-03-08T10:14:38.93Z</time></trkpt><trkpt lat="43.5286972" lon="12.7966122"><ele>396.0</ele><time>2026-03-08T10:14:39.929Z</time></trkpt><trkpt lat="43.5286032" lon="12.7965389"><ele>399.0</ele><time>2026-03-08T10:14:40.93Z</time></trkpt><trkpt lat="43.528503" lon="12.796473"><ele>402.0</ele><time>2026-03-08T10:14:41.929Z</time></trkpt><trkpt lat="43.5283971" lon="12.7964237"><ele>405.0</ele><time>2026-03-08T10:14:42.93Z</time></trkpt><trkpt lat="43.5282872" lon="12.7963785"><ele>408.0</ele><time>2026-03-08T10:14:43.929Z</time></trkpt><trkpt lat="43.5281694" lon="12.796331"><ele>408.0</ele><time>2026-03-08T10:14:44.93Z</time></trkpt><trkpt lat="43.5280527" lon="12.7962766"><ele>408.0</ele><time>2026-03-08T10:14:45.929Z</time></trkpt><trkpt lat="43.5279398" lon="12.7961999"><ele>408.0</ele><time>2026-03-08T10:14:46.93Z</time></trkpt><trkpt lat="43.527828" lon="12.7960996"><ele>408.0</ele><time>2026-03-08T10:14:47.929Z</time></trkpt><trkpt lat="43.5277205" lon="12.7959851"><ele>411.75</ele><time>2026-03-08T10:14:48.929Z</time></trkpt><trkpt lat="43.5276219" lon="12.7958484"><ele>415.5</ele><time>2026-03-08T10:14:49.929Z</time></trkpt><trkpt lat="43.527525" lon="12.7957042"><ele>419.25</ele><time>2026-03-08T10:14:50.929Z</time></trkpt><trkpt lat="43.5274278" lon="12.7955837"><ele>423.0</ele><time>2026-03-08T10:14:51.929Z</time></trkpt><trkpt lat="43.5273473" lon="12.795457"><ele>423.0</ele><time>2026-03-08T10:14:52.929Z</time></trkpt><trkpt lat="43.5272711" lon="12.7953233"><ele>423.0</ele><time>2026-03-08T10:14:53.93Z</time></trkpt><trkpt lat="43.5272099" lon="12.79517"><ele>423.0</ele><time>2026-03-08T10:14:54.931Z</time></trkpt><trkpt lat="43.5271395" lon="12.795012"><ele>423.0</ele><time>2026-03-08T10:14:55.93Z</time></trkpt><trkpt lat="43.5270593" lon="12.7948685"><ele>424.75</ele><time>2026-03-08T10:14:56.929Z</time></trkpt><trkpt lat="43.5269581" lon="12.7947382"><ele>426.5</ele><time>2026-03-08T10:14:57.93Z</time></trkpt><trkpt lat="43.5268427" lon="12.7946107"><ele>428.25</ele><time>2026-03-08T10:14:58.93Z</time></trkpt><trkpt lat="43.5267214" lon="12.7945087"><ele>430.0</ele><time>2026-03-08T10:14:59.929Z</time></trkpt><trkpt lat="43.5265704" lon="12.794416"><ele>433.0</ele><time>2026-03-08T10:15:00.929Z</time></trkpt><trkpt lat="43.5264334" lon="12.7943167"><ele>436.0</ele><time>2026-03-08T10:15:01.929Z</time></trkpt><trkpt lat="43.5262963" lon="12.7942697"><ele>439.0</ele><time>2026-03-08T10:15:02.93Z</time></trkpt><trkpt lat="43.5261562" lon="12.7942071"><ele>442.0</ele><time>2026-03-08T10:15:03.929Z</time></trkpt><trkpt lat="43.5260001" lon="12.7941882"><ele>442.0</ele><time>2026-03-08T10:15:04.929Z</time></trkpt><trkpt lat="43.525836" lon="12.794159"><ele>442.0</ele><time>2026-03-08T10:15:05.929Z</time></trkpt><trkpt lat="43.5257111" lon="12.7941568"><ele>442.0</ele><time>2026-03-08T10:15:06.929Z</time></trkpt><trkpt lat="43.5255893" lon="12.7941529"><ele>442.0</ele><time>2026-03-08T10:15:07.929Z</time></trkpt><trkpt lat="43.5254583" lon="12.7941391"><ele>442.5</ele><time>2026-03-08T10:15:08.929Z</time></trkpt><trkpt lat="43.525311" lon="12.7941303"><ele>443.0</ele><time>2026-03-08T10:15:09.929Z</time></trkpt><trkpt lat="43.5251632" lon="12.7941291"><ele>443.5</ele><time>2026-03-08T10:15:10.929Z</time></trkpt><trkpt lat="43.5250136" lon="12.794127"><ele>444.0</ele><time>2026-03-08T10:15:11.93Z</time></trkpt><trkpt lat="43.5248682" lon="12.7941337"><ele>444.0</ele><time>2026-03-08T10:15:12.929Z</time></trkpt><trkpt lat="43.524729" lon="12.7941438"><ele>444.0</ele><time>2026-03-08T10:15:13.93Z</time></trkpt><trkpt lat="43.5246041" lon="12.7941627"><ele>444.0</ele><time>2026-03-08T10:15:14.93Z</time></trkpt><trkpt lat="43.5244851" lon="12.7941821"><ele>444.0</ele><time>2026-03-08T10:15:15.929Z</time></trkpt><trkpt lat="43.5243811" lon="12.7942178"><ele>446.2</ele><time>2026-03-08T10:15:16.929Z</time></trkpt><trkpt lat="43.5242959" lon="12.7942903"><ele>448.4</ele><time>2026-03-08T10:15:17.929Z</time></trkpt><trkpt lat="43.5242262" lon="12.7943992"><ele>450.6</ele><time>2026-03-08T10:15:18.929Z</time></trkpt><trkpt lat="43.524185" lon="12.7945382"><ele>452.8</ele><time>2026-03-08T10:15:19.929Z</time></trkpt><trkpt lat="43.5241559" lon="12.7946999"><ele>455.0</ele><time>2026-03-08T10:15:20.929Z</time></trkpt><trkpt lat="43.524138" lon="12.7948764"><ele>455.0</ele><time>2026-03-08T10:15:21.929Z</time></trkpt><trkpt lat="43.5241198" lon="12.7950467"><ele>455.0</ele><time>2026-03-08T10:15:22.929Z</time></trkpt><trkpt lat="43.5241087" lon="12.795207"><ele>455.0</ele><time>2026-03-08T10:15:23.93Z</time></trkpt><trkpt lat="43.5240926" lon="12.7953129"><ele>455.0</ele><time>2026-03-08T10:15:24.929Z</time></trkpt><trkpt lat="43.5240135" lon="12.7954004"><ele>455.0</ele><time>2026-03-08T10:15:26.929Z</time></trkpt><trkpt lat="43.5239535" lon="12.7953053"><ele>455.0</ele><time>2026-03-08T10:15:28.93Z</time></trkpt><trkpt lat="43.5239211" lon="12.7951116"><ele>455.0</ele><time>2026-03-08T10:15:30.93Z</time></trkpt><trkpt lat="43.5238916" lon="12.7950086"><ele>455.0</ele><time>2026-03-08T10:15:31.929Z</time></trkpt><trkpt lat="43.5238638" lon="12.7948993"><ele>455.0</ele><time>2026-03-08T10:15:32.93Z</time></trkpt><trkpt lat="43.5238129" lon="12.7948111"><ele>455.0</ele><time>2026-03-08T10:15:33.93Z</time></trkpt><trkpt lat="43.5237529" lon="12.7947387"><ele>457.3333333333333</ele><time>2026-03-08T10:15:34.929Z</time></trkpt><trkpt lat="43.5236802" lon="12.7946901"><ele>459.66666666666663</ele><time>2026-03-08T10:15:35.93Z</time></trkpt><trkpt lat="43.5236059" lon="12.7946506"><ele>462.0</ele><time>2026-03-08T10:15:36.93Z</time></trkpt><trkpt lat="43.5235291" lon="12.7946136"><ele>464.33333333333337</ele><time>2026-03-08T10:15:37.93Z</time></trkpt><trkpt lat="43.5234456" lon="12.7945749"><ele>466.6666666666667</ele><time>2026-03-08T10:15:38.93Z</time></trkpt><trkpt lat="43.5233604" lon="12.7945347"><ele>469.0</ele><time>2026-03-08T10:15:39.929Z</time></trkpt><trkpt lat="43.5232759" lon="12.7945056"><ele>469.00000000000006</ele><time>2026-03-08T10:15:40.93Z</time></trkpt><trkpt lat="43.5231992" lon="12.7944908"><ele>469.0</ele><time>2026-03-08T10:15:41.93Z</time></trkpt><trkpt lat="43.5231089" lon="12.7944618"><ele>469.0</ele><time>2026-03-08T10:15:43.929Z</time></trkpt><trkpt lat="43.5230457" lon="12.7944173"><ele>469.0</ele><time>2026-03-08T10:15:50.93Z</time></trkpt><trkpt lat="43.5230264" lon="12.7942942"><ele>469.00000000000006</ele><time>2026-03-08T10:15:52.929Z</time></trkpt><trkpt lat="43.5230229" lon="12.7941857"><ele>469.0</ele><time>2026-03-08T10:15:53.93Z</time></trkpt><trkpt lat="43.5230388" lon="12.7940799"><ele>469.2</ele><time>2026-03-08T10:15:54.929Z</time></trkpt><trkpt lat="43.523085" lon="12.7939883"><ele>469.4</ele><time>2026-03-08T10:15:55.929Z</time></trkpt><trkpt lat="43.5231322" lon="12.7938823"><ele>469.6</ele><time>2026-03-08T10:15:56.93Z</time></trkpt><trkpt lat="43.5231859" lon="12.7937659"><ele>469.8</ele><time>2026-03-08T10:15:57.929Z</time></trkpt><trkpt lat="43.5232421" lon="12.7936356"><ele>470.0</ele><time>2026-03-08T10:15:58.929Z</time></trkpt><trkpt lat="43.5233067" lon="12.7934956"><ele>470.0</ele><time>2026-03-08T10:15:59.929Z</time></trkpt><trkpt lat="43.5233828" lon="12.7933482"><ele>470.0</ele><time>2026-03-08T10:16:00.93Z</time></trkpt><trkpt lat="43.5234522" lon="12.7932121"><ele>470.0</ele><time>2026-03-08T10:16:01.93Z</time></trkpt><trkpt lat="43.523521" lon="12.7930918"><ele>470.0</ele><time>2026-03-08T10:16:02.929Z</time></trkpt><trkpt lat="43.5235924" lon="12.7929617"><ele>470.0</ele><time>2026-03-08T10:16:03.929Z</time></trkpt><trkpt lat="43.5236535" lon="12.7928365"><ele>470.0</ele><time>2026-03-08T10:16:04.929Z</time></trkpt><trkpt lat="43.5236895" lon="12.7927077"><ele>470.0</ele><time>2026-03-08T10:16:05.929Z</time></trkpt><trkpt lat="43.5236983" lon="12.7925672"><ele>470.0</ele><time>2026-03-08T10:16:06.929Z</time></trkpt><trkpt lat="43.5236782" lon="12.7924279"><ele>470.0</ele><time>2026-03-08T10:16:07.929Z</time></trkpt><trkpt lat="43.5236395" lon="12.7922879"><ele>471.5</ele><time>2026-03-08T10:16:08.93Z</time></trkpt><trkpt lat="43.5235775" lon="12.7921555"><ele>473.0</ele><time>2026-03-08T10:16:09.929Z</time></trkpt><trkpt lat="43.5234976" lon="12.7920383"><ele>474.5</ele><time>2026-03-08T10:16:10.929Z</time></trkpt><trkpt lat="43.5234024" lon="12.791933"><ele>476.0</ele><time>2026-03-08T10:16:11.929Z</time></trkpt><trkpt lat="43.523289" lon="12.791841"><ele>478.0</ele><time>2026-03-08T10:16:12.929Z</time></trkpt><trkpt lat="43.5231797" lon="12.791727"><ele>480.0</ele><time>2026-03-08T10:16:13.929Z</time></trkpt><trkpt lat="43.52307" lon="12.7915847"><ele>482.0</ele><time>2026-03-08T10:16:14.929Z</time></trkpt><trkpt lat="43.5229567" lon="12.7914418"><ele>484.0</ele><time>2026-03-08T10:16:15.929Z</time></trkpt><trkpt lat="43.5228476" lon="12.7913296"><ele>484.0</ele><time>2026-03-08T10:16:16.929Z</time></trkpt><trkpt lat="43.5227346" lon="12.7912256"><ele>484.0</ele><time>2026-03-08T10:16:17.929Z</time></trkpt><trkpt lat="43.5226303" lon="12.7911218"><ele>484.0</ele><time>2026-03-08T10:16:18.93Z</time></trkpt><trkpt lat="43.5225258" lon="12.7910059"><ele>484.0</ele><time>2026-03-08T10:16:19.929Z</time></trkpt><trkpt lat="43.5224286" lon="12.7908669"><ele>485.75</ele><time>2026-03-08T10:16:20.93Z</time></trkpt><trkpt lat="43.5223318" lon="12.7907257"><ele>487.5</ele><time>2026-03-08T10:16:21.929Z</time></trkpt><trkpt lat="43.522238" lon="12.7905691"><ele>489.25</ele><time>2026-03-08T10:16:22.929Z</time></trkpt><trkpt lat="43.5221515" lon="12.7903871"><ele>491.0</ele><time>2026-03-08T10:16:23.929Z</time></trkpt><trkpt lat="43.522051" lon="12.7902049"><ele>495.5</ele><time>2026-03-08T10:16:24.929Z</time></trkpt><trkpt lat="43.5219451" lon="12.7900511"><ele>500.0</ele><time>2026-03-08T10:16:25.93Z</time></trkpt><trkpt lat="43.5218603" lon="12.789907"><ele>504.5</ele><time>2026-03-08T10:16:26.929Z</time></trkpt><trkpt lat="43.5217735" lon="12.7897839"><ele>509.0</ele><time>2026-03-08T10:16:27.929Z</time></trkpt><trkpt lat="43.5216932" lon="12.7896477"><ele>509.0</ele><time>2026-03-08T10:16:28.93Z</time></trkpt><trkpt lat="43.5216166" lon="12.7894903"><ele>509.0</ele><time>2026-03-08T10:16:29.929Z</time></trkpt><trkpt lat="43.5215452" lon="12.7893279"><ele>509.0</ele><time>2026-03-08T10:16:30.929Z</time></trkpt><trkpt lat="43.5214733" lon="12.7891809"><ele>509.0</ele><time>2026-03-08T10:16:31.929Z</time></trkpt><trkpt lat="43.5214075" lon="12.7890509"><ele>509.75</ele><time>2026-03-08T10:16:32.929Z</time></trkpt><trkpt lat="43.5213415" lon="12.7889242"><ele>510.5</ele><time>2026-03-08T10:16:33.929Z</time></trkpt><trkpt lat="43.5212698" lon="12.7887882"><ele>511.25</ele><time>2026-03-08T10:16:34.929Z</time></trkpt><trkpt lat="43.5212174" lon="12.7886223"><ele>512.0</ele><time>2026-03-08T10:16:35.929Z</time></trkpt><trkpt lat="43.5211642" lon="12.7884685"><ele>512.0</ele><time>2026-03-08T10:16:36.929Z</time></trkpt><trkpt lat="43.5210842" lon="12.7882939"><ele>512.0</ele><time>2026-03-08T10:16:37.929Z</time></trkpt><trkpt lat="43.5209955" lon="12.788129"><ele>512.0</ele><time>2026-03-08T10:16:38.929Z</time></trkpt><trkpt lat="43.5208854" lon="12.7879911"><ele>512.0</ele><time>2026-03-08T10:16:39.929Z</time></trkpt><trkpt lat="43.5207683" lon="12.7878756"><ele>512.0</ele><time>2026-03-08T10:16:40.929Z</time></trkpt><trkpt lat="43.5206474" lon="12.7877625"><ele>512.0</ele><time>2026-03-08T10:16:41.929Z</time></trkpt><trkpt lat="43.520525" lon="12.7876595"><ele>512.0</ele><time>2026-03-08T10:16:42.93Z</time></trkpt><trkpt lat="43.5204058" lon="12.7875571"><ele>512.0</ele><time>2026-03-08T10:16:43.93Z</time></trkpt><trkpt lat="43.5202853" lon="12.7874592"><ele>514.75</ele><time>2026-03-08T10:16:44.929Z</time></trkpt><trkpt lat="43.5201632" lon="12.7873614"><ele>517.5</ele><time>2026-03-08T10:16:45.93Z</time></trkpt><trkpt lat="43.5200488" lon="12.7872954"><ele>520.25</ele><time>2026-03-08T10:16:46.929Z</time></trkpt><trkpt lat="43.5199357" lon="12.7872381"><ele>523.0</ele><time>2026-03-08T10:16:47.93Z</time></trkpt><trkpt lat="43.5198342" lon="12.7871838"><ele>523.0</ele><time>2026-03-08T10:16:48.929Z</time></trkpt><trkpt lat="43.5197484" lon="12.7871141"><ele>523.0</ele><time>2026-03-08T10:16:49.929Z</time></trkpt><trkpt lat="43.5196898" lon="12.7870288"><ele>523.0</ele><time>2026-03-08T10:16:50.929Z</time></trkpt><trkpt lat="43.519643" lon="12.7869231"><ele>523.0</ele><time>2026-03-08T10:16:51.929Z</time></trkpt><trkpt lat="43.5195901" lon="12.7868345"><ele>523.0</ele><time>2026-03-08T10:16:52.929Z</time></trkpt><trkpt lat="43.5195332" lon="12.7867289"><ele>523.1999999999999</ele><time>2026-03-08T10:16:53.931Z</time></trkpt><trkpt lat="43.5194644" lon="12.7866522"><ele>523.4</ele><time>2026-03-08T10:16:54.93Z</time></trkpt><trkpt lat="43.5193821" lon="12.7865999"><ele>523.5999999999999</ele><time>2026-03-08T10:16:55.929Z</time></trkpt><trkpt lat="43.519292" lon="12.7865657"><ele>523.8</ele><time>2026-03-08T10:16:56.929Z</time></trkpt><trkpt lat="43.5192016" lon="12.7865326"><ele>524.0</ele><time>2026-03-08T10:16:57.929Z</time></trkpt><trkpt lat="43.5190976" lon="12.7864892"><ele>524.0</ele><time>2026-03-08T10:16:58.929Z</time></trkpt><trkpt lat="43.5189818" lon="12.7864428"><ele>524.0</ele><time>2026-03-08T10:16:59.929Z</time></trkpt><trkpt lat="43.5188605" lon="12.7863992"><ele>524.0</ele><time>2026-03-08T10:17:00.93Z</time></trkpt><trkpt lat="43.5187309" lon="12.7863473"><ele>524.0</ele><time>2026-03-08T10:17:01.929Z</time></trkpt><trkpt lat="43.5185963" lon="12.7862983"><ele>521.75</ele><time>2026-03-08T10:17:02.929Z</time></trkpt><trkpt lat="43.5184555" lon="12.7862608"><ele>519.5</ele><time>2026-03-08T10:17:03.93Z</time></trkpt><trkpt lat="43.5183148" lon="12.7862294"><ele>517.25</ele><time>2026-03-08T10:17:04.929Z</time></trkpt><trkpt lat="43.518173" lon="12.786201"><ele>515.0</ele><time>2026-03-08T10:17:05.93Z</time></trkpt><trkpt lat="43.5180358" lon="12.786173"><ele>515.75</ele><time>2026-03-08T10:17:06.929Z</time></trkpt><trkpt lat="43.5178939" lon="12.7861478"><ele>516.5</ele><time>2026-03-08T10:17:07.929Z</time></trkpt><trkpt lat="43.5177576" lon="12.7861278"><ele>517.25</ele><time>2026-03-08T10:17:08.929Z</time></trkpt><trkpt lat="43.517615" lon="12.7861069"><ele>518.0</ele><time>2026-03-08T10:17:09.929Z</time></trkpt><trkpt lat="43.5174725" lon="12.7861085"><ele>518.0</ele><time>2026-03-08T10:17:10.929Z</time></trkpt><trkpt lat="43.5173382" lon="12.7861346"><ele>518.0</ele><time>2026-03-08T10:17:11.929Z</time></trkpt><trkpt lat="43.5172092" lon="12.7861683"><ele>518.0</ele><time>2026-03-08T10:17:12.929Z</time></trkpt><trkpt lat="43.5170851" lon="12.7862108"><ele>518.0</ele><time>2026-03-08T10:17:13.929Z</time></trkpt><trkpt lat="43.5169699" lon="12.7862303"><ele>517.4</ele><time>2026-03-08T10:17:14.929Z</time></trkpt><trkpt lat="43.5168664" lon="12.7862287"><ele>516.8</ele><time>2026-03-08T10:17:15.93Z</time></trkpt><trkpt lat="43.5167769" lon="12.7862148"><ele>516.2</ele><time>2026-03-08T10:17:16.929Z</time></trkpt><trkpt lat="43.5166976" lon="12.7861913"><ele>515.6</ele><time>2026-03-08T10:17:17.93Z</time></trkpt><trkpt lat="43.5165896" lon="12.7861281"><ele>515.0</ele><time>2026-03-08T10:17:19.931Z</time></trkpt><trkpt lat="43.5165537" lon="12.7859787"><ele>515.0</ele><time>2026-03-08T10:17:21.93Z</time></trkpt><trkpt lat="43.5165674" lon="12.7858743"><ele>515.0</ele><time>2026-03-08T10:17:22.929Z</time></trkpt><trkpt lat="43.5165729" lon="12.7857526"><ele>515.0</ele><time>2026-03-08T10:17:23.929Z</time></trkpt><trkpt lat="43.5165831" lon="12.7856315"><ele>515.0</ele><time>2026-03-08T10:17:24.929Z</time></trkpt><trkpt lat="43.5165831" lon="12.7855061"><ele>515.0</ele><time>2026-03-08T10:17:25.929Z</time></trkpt><trkpt lat="43.5165859" lon="12.7853818"><ele>515.0</ele><time>2026-03-08T10:17:26.929Z</time></trkpt><trkpt lat="43.5165886" lon="12.7852704"><ele>515.0</ele><time>2026-03-08T10:17:27.93Z</time></trkpt><trkpt lat="43.5165875" lon="12.7851812"><ele>515.0</ele><time>2026-03-08T10:17:28.929Z</time></trkpt><trkpt lat="43.5165475" lon="12.7850845"><ele>515.0</ele><time>2026-03-08T10:17:30.93Z</time></trkpt><trkpt lat="43.5164667" lon="12.7851054"><ele>515.0</ele><time>2026-03-08T10:17:32.93Z</time></trkpt><trkpt lat="43.5164061" lon="12.7851556"><ele>515.0</ele><time>2026-03-08T10:17:33.929Z</time></trkpt><trkpt lat="43.5163205" lon="12.785192"><ele>515.0</ele><time>2026-03-08T10:17:34.93Z</time></trkpt><trkpt lat="43.5162131" lon="12.7851961"><ele>514.25</ele><time>2026-03-08T10:17:35.93Z</time></trkpt><trkpt lat="43.5160914" lon="12.7851596"><ele>513.5</ele><time>2026-03-08T10:17:36.93Z</time></trkpt><trkpt lat="43.5159663" lon="12.7851135"><ele>512.75</ele><time>2026-03-08T10:17:37.929Z</time></trkpt><trkpt lat="43.5158355" lon="12.7850441"><ele>512.0</ele><time>2026-03-08T10:17:38.929Z</time></trkpt><trkpt lat="43.5157015" lon="12.7849578"><ele>512.0</ele><time>2026-03-08T10:17:39.93Z</time></trkpt><trkpt lat="43.5155814" lon="12.7848497"><ele>512.0</ele><time>2026-03-08T10:17:40.929Z</time></trkpt><trkpt lat="43.5154671" lon="12.7847187"><ele>512.0</ele><time>2026-03-08T10:17:41.929Z</time></trkpt><trkpt lat="43.5153561" lon="12.7845638"><ele>512.5</ele><time>2026-03-08T10:17:42.93Z</time></trkpt><trkpt lat="43.5152529" lon="12.7844115"><ele>513.0</ele><time>2026-03-08T10:17:43.929Z</time></trkpt><trkpt lat="43.5151477" lon="12.7842679"><ele>513.5</ele><time>2026-03-08T10:17:44.93Z</time></trkpt><trkpt lat="43.5150445" lon="12.7841222"><ele>514.0</ele><time>2026-03-08T10:17:45.929Z</time></trkpt><trkpt lat="43.5149503" lon="12.783969"><ele>511.0</ele><time>2026-03-08T10:17:46.929Z</time></trkpt><trkpt lat="43.5148459" lon="12.7838207"><ele>508.0</ele><time>2026-03-08T10:17:47.929Z</time></trkpt><trkpt lat="43.5147414" lon="12.7836754"><ele>505.0</ele><time>2026-03-08T10:17:48.929Z</time></trkpt><trkpt lat="43.514632" lon="12.7835294"><ele>503.25</ele><time>2026-03-08T10:17:49.929Z</time></trkpt><trkpt lat="43.5145265" lon="12.7833879"><ele>501.5</ele><time>2026-03-08T10:17:50.93Z</time></trkpt><trkpt lat="43.514417" lon="12.7832484"><ele>499.75</ele><time>2026-03-08T10:17:51.93Z</time></trkpt><trkpt lat="43.5143126" lon="12.7831016"><ele>498.0</ele><time>2026-03-08T10:17:52.929Z</time></trkpt><trkpt lat="43.5142142" lon="12.7829561"><ele>498.0</ele><time>2026-03-08T10:17:53.929Z</time></trkpt><trkpt lat="43.5141141" lon="12.7828179"><ele>498.0</ele><time>2026-03-08T10:17:54.929Z</time></trkpt><trkpt lat="43.514014" lon="12.7826828"><ele>498.0</ele><time>2026-03-08T10:17:55.929Z</time></trkpt><trkpt lat="43.5139156" lon="12.7825503"><ele>498.0</ele><time>2026-03-08T10:17:56.929Z</time></trkpt><trkpt lat="43.513817" lon="12.7824145"><ele>498.25</ele><time>2026-03-08T10:17:57.929Z</time></trkpt><trkpt lat="43.5137103" lon="12.782272"><ele>498.5</ele><time>2026-03-08T10:17:58.929Z</time></trkpt><trkpt lat="43.5135998" lon="12.7821378"><ele>498.75</ele><time>2026-03-08T10:17:59.929Z</time></trkpt><trkpt lat="43.513493" lon="12.7820166"><ele>499.0</ele><time>2026-03-08T10:18:00.929Z</time></trkpt><trkpt lat="43.5133765" lon="12.781901"><ele>497.25</ele><time>2026-03-08T10:18:01.929Z</time></trkpt><trkpt lat="43.5132601" lon="12.7817897"><ele>495.5</ele><time>2026-03-08T10:18:02.93Z</time></trkpt><trkpt lat="43.5131402" lon="12.7816823"><ele>493.75</ele><time>2026-03-08T10:18:03.93Z</time></trkpt><trkpt lat="43.5130184" lon="12.7815798"><ele>492.0</ele><time>2026-03-08T10:18:04.929Z</time></trkpt><trkpt lat="43.5129004" lon="12.7814699"><ele>492.0</ele><time>2026-03-08T10:18:05.929Z</time></trkpt><trkpt lat="43.5127825" lon="12.7813683"><ele>492.0</ele><time>2026-03-08T10:18:06.929Z</time></trkpt><trkpt lat="43.5126613" lon="12.7812746"><ele>492.0</ele><time>2026-03-08T10:18:07.929Z</time></trkpt><trkpt lat="43.5125428" lon="12.7811834"><ele>492.0</ele><time>2026-03-08T10:18:08.929Z</time></trkpt><trkpt lat="43.5124139" lon="12.7811068"><ele>492.0</ele><time>2026-03-08T10:18:09.929Z</time></trkpt><trkpt lat="43.5122781" lon="12.7810398"><ele>492.0</ele><time>2026-03-08T10:18:10.929Z</time></trkpt><trkpt lat="43.5121362" lon="12.7809888"><ele>492.0</ele><time>2026-03-08T10:18:11.929Z</time></trkpt><trkpt lat="43.511995" lon="12.7809466"><ele>492.0</ele><time>2026-03-08T10:18:12.929Z</time></trkpt><trkpt lat="43.5118418" lon="12.7809193"><ele>490.5</ele><time>2026-03-08T10:18:13.929Z</time></trkpt><trkpt lat="43.5116986" lon="12.7808875"><ele>489.0</ele><time>2026-03-08T10:18:14.931Z</time></trkpt><trkpt lat="43.5115515" lon="12.7808591"><ele>487.5</ele><time>2026-03-08T10:18:15.929Z</time></trkpt><trkpt lat="43.5114045" lon="12.7808257"><ele>486.0</ele><time>2026-03-08T10:18:16.929Z</time></trkpt><trkpt lat="43.5112583" lon="12.7807839"><ele>485.66666666666663</ele><time>2026-03-08T10:18:17.929Z</time></trkpt><trkpt lat="43.5111053" lon="12.780749"><ele>485.3333333333333</ele><time>2026-03-08T10:18:18.931Z</time></trkpt><trkpt lat="43.5109568" lon="12.7807117"><ele>485.0</ele><time>2026-03-08T10:18:19.93Z</time></trkpt><trkpt lat="43.5108128" lon="12.7806779"><ele>485.0</ele><time>2026-03-08T10:18:20.929Z</time></trkpt><trkpt lat="43.5106674" lon="12.780642"><ele>485.0</ele><time>2026-03-08T10:18:21.929Z</time></trkpt><trkpt lat="43.5105229" lon="12.7806039"><ele>485.0</ele><time>2026-03-08T10:18:22.929Z</time></trkpt><trkpt lat="43.5103866" lon="12.7805689"><ele>485.0</ele><time>2026-03-08T10:18:23.929Z</time></trkpt><trkpt lat="43.510253" lon="12.7805254"><ele>485.5</ele><time>2026-03-08T10:18:24.929Z</time></trkpt><trkpt lat="43.51011" lon="12.7804932"><ele>486.0</ele><time>2026-03-08T10:18:25.929Z</time></trkpt><trkpt lat="43.5099682" lon="12.78046"><ele>486.5</ele><time>2026-03-08T10:18:26.929Z</time></trkpt><trkpt lat="43.509829" lon="12.780415"><ele>487.0</ele><time>2026-03-08T10:18:27.929Z</time></trkpt><trkpt lat="43.5096826" lon="12.7803693"><ele>485.75</ele><time>2026-03-08T10:18:28.929Z</time></trkpt><trkpt lat="43.5095403" lon="12.7803344"><ele>484.5</ele><time>2026-03-08T10:18:29.93Z</time></trkpt><trkpt lat="43.5093965" lon="12.7803064"><ele>483.25</ele><time>2026-03-08T10:18:30.929Z</time></trkpt><trkpt lat="43.5092581" lon="12.7802673"><ele>482.0</ele><time>2026-03-08T10:18:31.929Z</time></trkpt><trkpt lat="43.5091253" lon="12.780237"><ele>482.0</ele><time>2026-03-08T10:18:32.929Z</time></trkpt><trkpt lat="43.5089961" lon="12.7802022"><ele>482.0</ele><time>2026-03-08T10:18:33.929Z</time></trkpt><trkpt lat="43.508867" lon="12.7801697"><ele>482.0</ele><time>2026-03-08T10:18:34.929Z</time></trkpt><trkpt lat="43.5087282" lon="12.7801328"><ele>482.0</ele><time>2026-03-08T10:18:35.929Z</time></trkpt><trkpt lat="43.5085942" lon="12.7801082"><ele>478.75</ele><time>2026-03-08T10:18:36.929Z</time></trkpt><trkpt lat="43.5084592" lon="12.7800932"><ele>475.5</ele><time>2026-03-08T10:18:37.929Z</time></trkpt><trkpt lat="43.508324" lon="12.7801079"><ele>472.25</ele><time>2026-03-08T10:18:38.929Z</time></trkpt><trkpt lat="43.5081971" lon="12.7801424"><ele>469.0</ele><time>2026-03-08T10:18:39.929Z</time></trkpt><trkpt lat="43.5080685" lon="12.7801753"><ele>469.0</ele><time>2026-03-08T10:18:40.929Z</time></trkpt><trkpt lat="43.5079228" lon="12.780173"><ele>469.0</ele><time>2026-03-08T10:18:41.929Z</time></trkpt><trkpt lat="43.5077856" lon="12.7801448"><ele>469.0</ele><time>2026-03-08T10:18:42.929Z</time></trkpt><trkpt lat="43.5076602" lon="12.7800744"><ele>469.0</ele><time>2026-03-08T10:18:43.93Z</time></trkpt><trkpt lat="43.5075462" lon="12.7799664"><ele>468.5</ele><time>2026-03-08T10:18:44.929Z</time></trkpt><trkpt lat="43.5074287" lon="12.7798401"><ele>468.0</ele><time>2026-03-08T10:18:45.93Z</time></trkpt><trkpt lat="43.507319" lon="12.7797144"><ele>467.5</ele><time>2026-03-08T10:18:46.929Z</time></trkpt><trkpt lat="43.507197" lon="12.7796134"><ele>467.0</ele><time>2026-03-08T10:18:47.93Z</time></trkpt><trkpt lat="43.5070557" lon="12.7795314"><ele>467.0</ele><time>2026-03-08T10:18:48.93Z</time></trkpt><trkpt lat="43.5069123" lon="12.7794799"><ele>467.0</ele><time>2026-03-08T10:18:49.929Z</time></trkpt><trkpt lat="43.5067571" lon="12.7794517"><ele>467.0</ele><time>2026-03-08T10:18:50.929Z</time></trkpt><trkpt lat="43.5065927" lon="12.779427"><ele>467.0</ele><time>2026-03-08T10:18:51.929Z</time></trkpt><trkpt lat="43.5064274" lon="12.7793984"><ele>467.0</ele><time>2026-03-08T10:18:52.929Z</time></trkpt><trkpt lat="43.5062731" lon="12.7793781"><ele>467.0</ele><time>2026-03-08T10:18:53.929Z</time></trkpt><trkpt lat="43.5061225" lon="12.7793603"><ele>465.0</ele><time>2026-03-08T10:18:54.929Z</time></trkpt><trkpt lat="43.5059782" lon="12.7793371"><ele>463.0</ele><time>2026-03-08T10:18:55.929Z</time></trkpt><trkpt lat="43.5058358" lon="12.7793255"><ele>461.0</ele><time>2026-03-08T10:18:56.929Z</time></trkpt><trkpt lat="43.5056954" lon="12.7793096"><ele>459.0</ele><time>2026-03-08T10:18:57.929Z</time></trkpt><trkpt lat="43.5055596" lon="12.7793066"><ele>459.0</ele><time>2026-03-08T10:18:58.929Z</time></trkpt><trkpt lat="43.5054156" lon="12.7793351"><ele>459.0</ele><time>2026-03-08T10:18:59.929Z</time></trkpt><trkpt lat="43.5052741" lon="12.7793828"><ele>459.0</ele><time>2026-03-08T10:19:00.929Z</time></trkpt><trkpt lat="43.5051329" lon="12.7794259"><ele>459.0</ele><time>2026-03-08T10:19:01.929Z</time></trkpt><trkpt lat="43.5050046" lon="12.7794642"><ele>458.25</ele><time>2026-03-08T10:19:02.929Z</time></trkpt><trkpt lat="43.5048687" lon="12.7794686"><ele>457.5</ele><time>2026-03-08T10:19:03.929Z</time></trkpt><trkpt lat="43.504736" lon="12.7794173"><ele>456.75</ele><time>2026-03-08T10:19:04.929Z</time></trkpt><trkpt lat="43.5046003" lon="12.7793445"><ele>456.0</ele><time>2026-03-08T10:19:05.929Z</time></trkpt><trkpt lat="43.5044685" lon="12.7792461"><ele>453.66666666666663</ele><time>2026-03-08T10:19:06.93Z</time></trkpt><trkpt lat="43.5043477" lon="12.7791119"><ele>451.3333333333333</ele><time>2026-03-08T10:19:07.929Z</time></trkpt><trkpt lat="43.5042429" lon="12.7789709"><ele>449.0</ele><time>2026-03-08T10:19:08.929Z</time></trkpt><trkpt lat="43.5041336" lon="12.7788305"><ele>449.0</ele><time>2026-03-08T10:19:09.929Z</time></trkpt><trkpt lat="43.5040256" lon="12.7786951"><ele>449.0</ele><time>2026-03-08T10:19:10.93Z</time></trkpt><trkpt lat="43.503922" lon="12.7785662"><ele>449.0</ele><time>2026-03-08T10:19:11.93Z</time></trkpt><trkpt lat="43.5038253" lon="12.7784434"><ele>449.0</ele><time>2026-03-08T10:19:12.93Z</time></trkpt><trkpt lat="43.5037358" lon="12.7783326"><ele>448.3333333333333</ele><time>2026-03-08T10:19:13.93Z</time></trkpt><trkpt lat="43.5036567" lon="12.7782363"><ele>447.66666666666663</ele><time>2026-03-08T10:19:14.929Z</time></trkpt><trkpt lat="43.5035876" lon="12.778152"><ele>447.0</ele><time>2026-03-08T10:19:15.929Z</time></trkpt><trkpt lat="43.5035306" lon="12.7780745"><ele>446.33333333333337</ele><time>2026-03-08T10:19:16.929Z</time></trkpt><trkpt lat="43.503474" lon="12.7780118"><ele>445.6666666666667</ele><time>2026-03-08T10:19:17.929Z</time></trkpt><trkpt lat="43.5034268" lon="12.7779523"><ele>445.0</ele><time>2026-03-08T10:19:18.929Z</time></trkpt><trkpt lat="43.5033789" lon="12.7778944"><ele>445.0</ele><time>2026-03-08T10:19:19.929Z</time></trkpt><trkpt lat="43.503275" lon="12.7777604"><ele>445.0</ele><time>2026-03-08T10:19:21.929Z</time></trkpt><trkpt lat="43.5032104" lon="12.7776675"><ele>445.0</ele><time>2026-03-08T10:19:22.93Z</time></trkpt><trkpt lat="43.5031493" lon="12.7775401"><ele>445.0</ele><time>2026-03-08T10:19:23.93Z</time></trkpt><trkpt lat="43.5030898" lon="12.7773827"><ele>444.6666666666667</ele><time>2026-03-08T10:19:24.929Z</time></trkpt><trkpt lat="43.5030188" lon="12.7771967"><ele>444.33333333333337</ele><time>2026-03-08T10:19:25.93Z</time></trkpt><trkpt lat="43.5029557" lon="12.7769932"><ele>444.0</ele><time>2026-03-08T10:19:26.929Z</time></trkpt><trkpt lat="43.5028851" lon="12.7768002"><ele>445.0</ele><time>2026-03-08T10:19:27.93Z</time></trkpt><trkpt lat="43.5028105" lon="12.7766053"><ele>446.0</ele><time>2026-03-08T10:19:28.929Z</time></trkpt><trkpt lat="43.5027442" lon="12.776419"><ele>447.0</ele><time>2026-03-08T10:19:29.929Z</time></trkpt><trkpt lat="43.5026787" lon="12.7762481"><ele>447.0</ele><time>2026-03-08T10:19:30.929Z</time></trkpt><trkpt lat="43.5026089" lon="12.776095"><ele>447.0</ele><time>2026-03-08T10:19:31.93Z</time></trkpt><trkpt lat="43.5025345" lon="12.7759512"><ele>447.0</ele><time>2026-03-08T10:19:32.929Z</time></trkpt><trkpt lat="43.5024408" lon="12.7758486"><ele>447.0</ele><time>2026-03-08T10:19:33.929Z</time></trkpt><trkpt lat="43.5023305" lon="12.7757903"><ele>447.0</ele><time>2026-03-08T10:19:34.93Z</time></trkpt><trkpt lat="43.5022012" lon="12.7757531"><ele>447.0</ele><time>2026-03-08T10:19:35.929Z</time></trkpt><trkpt lat="43.502076" lon="12.7757355"><ele>447.0</ele><time>2026-03-08T10:19:36.93Z</time></trkpt><trkpt lat="43.5019438" lon="12.7757234"><ele>447.0</ele><time>2026-03-08T10:19:37.929Z</time></trkpt><trkpt lat="43.5018058" lon="12.775691"><ele>447.0</ele><time>2026-03-08T10:19:38.929Z</time></trkpt><trkpt lat="43.501667" lon="12.7756298"><ele>447.0</ele><time>2026-03-08T10:19:39.929Z</time></trkpt><trkpt lat="43.5015343" lon="12.7755394"><ele>447.0</ele><time>2026-03-08T10:19:40.929Z</time></trkpt><trkpt lat="43.5013963" lon="12.7754416"><ele>447.0</ele><time>2026-03-08T10:19:41.929Z</time></trkpt><trkpt lat="43.5012604" lon="12.7753415"><ele>445.66666666666663</ele><time>2026-03-08T10:19:42.929Z</time></trkpt><trkpt lat="43.501115" lon="12.775244"><ele>444.3333333333333</ele><time>2026-03-08T10:19:43.929Z</time></trkpt><trkpt lat="43.5009675" lon="12.7751572"><ele>443.0</ele><time>2026-03-08T10:19:44.93Z</time></trkpt><trkpt lat="43.5008174" lon="12.7750867"><ele>446.0</ele><time>2026-03-08T10:19:45.929Z</time></trkpt><trkpt lat="43.5006679" lon="12.7750132"><ele>449.0</ele><time>2026-03-08T10:19:46.929Z</time></trkpt><trkpt lat="43.5005134" lon="12.7749506"><ele>452.0</ele><time>2026-03-08T10:19:47.929Z</time></trkpt><trkpt lat="43.5003607" lon="12.7748924"><ele>453.0</ele><time>2026-03-08T10:19:48.929Z</time></trkpt><trkpt lat="43.5002192" lon="12.7748273"><ele>454.0</ele><time>2026-03-08T10:19:49.929Z</time></trkpt><trkpt lat="43.5000841" lon="12.7747415"><ele>455.0</ele><time>2026-03-08T10:19:50.93Z</time></trkpt><trkpt lat="43.4999568" lon="12.7746403"><ele>456.0</ele><time>2026-03-08T10:19:51.929Z</time></trkpt><trkpt lat="43.4998545" lon="12.7745286"><ele>456.0</ele><time>2026-03-08T10:19:52.93Z</time></trkpt><trkpt lat="43.4997639" lon="12.7744161"><ele>456.0</ele><time>2026-03-08T10:19:53.929Z</time></trkpt><trkpt lat="43.499676" lon="12.7743075"><ele>456.0</ele><time>2026-03-08T10:19:54.93Z</time></trkpt><trkpt lat="43.4996061" lon="12.7741883"><ele>456.0</ele><time>2026-03-08T10:19:55.929Z</time></trkpt><trkpt lat="43.499553" lon="12.7740405"><ele>457.25</ele><time>2026-03-08T10:19:56.929Z</time></trkpt><trkpt lat="43.4994912" lon="12.7739002"><ele>458.5</ele><time>2026-03-08T10:19:57.929Z</time></trkpt><trkpt lat="43.4994334" lon="12.7737586"><ele>459.75</ele><time>2026-03-08T10:19:58.929Z</time></trkpt><trkpt lat="43.4993546" lon="12.7736421"><ele>461.0</ele><time>2026-03-08T10:19:59.929Z</time></trkpt><trkpt lat="43.4992607" lon="12.773536"><ele>460.25</ele><time>2026-03-08T10:20:00.929Z</time></trkpt><trkpt lat="43.4991398" lon="12.7734359"><ele>459.5</ele><time>2026-03-08T10:20:01.929Z</time></trkpt><trkpt lat="43.4990025" lon="12.7733649"><ele>458.75</ele><time>2026-03-08T10:20:02.929Z</time></trkpt><trkpt lat="43.4988609" lon="12.7733012"><ele>458.0</ele><time>2026-03-08T10:20:03.93Z</time></trkpt><trkpt lat="43.4987216" lon="12.7732416"><ele>457.0</ele><time>2026-03-08T10:20:04.93Z</time></trkpt><trkpt lat="43.4985815" lon="12.7731668"><ele>456.0</ele><time>2026-03-08T10:20:05.929Z</time></trkpt><trkpt lat="43.4984415" lon="12.7731017"><ele>455.0</ele><time>2026-03-08T10:20:06.929Z</time></trkpt><trkpt lat="43.4982991" lon="12.7730399"><ele>454.0</ele><time>2026-03-08T10:20:07.929Z</time></trkpt><trkpt lat="43.4981519" lon="12.7729853"><ele>454.0</ele><time>2026-03-08T10:20:08.929Z</time></trkpt><trkpt lat="43.4980118" lon="12.7729267"><ele>454.0</ele><time>2026-03-08T10:20:09.929Z</time></trkpt><trkpt lat="43.4978601" lon="12.7728844"><ele>454.0</ele><time>2026-03-08T10:20:10.929Z</time></trkpt><trkpt lat="43.4977078" lon="12.7728333"><ele>453.5</ele><time>2026-03-08T10:20:11.929Z</time></trkpt><trkpt lat="43.4975615" lon="12.7727805"><ele>453.0</ele><time>2026-03-08T10:20:12.929Z</time></trkpt><trkpt lat="43.4974201" lon="12.7727292"><ele>452.5</ele><time>2026-03-08T10:20:13.929Z</time></trkpt><trkpt lat="43.4972776" lon="12.7726604"><ele>452.0</ele><time>2026-03-08T10:20:14.929Z</time></trkpt><trkpt lat="43.4971327" lon="12.7726052"><ele>453.5</ele><time>2026-03-08T10:20:15.929Z</time></trkpt><trkpt lat="43.4969882" lon="12.7725475"><ele>455.0</ele><time>2026-03-08T10:20:16.929Z</time></trkpt><trkpt lat="43.4968477" lon="12.7724991"><ele>456.5</ele><time>2026-03-08T10:20:17.93Z</time></trkpt><trkpt lat="43.4967035" lon="12.7724402"><ele>458.0</ele><time>2026-03-08T10:20:18.929Z</time></trkpt><trkpt lat="43.4965815" lon="12.7723868"><ele>458.0</ele><time>2026-03-08T10:20:19.929Z</time></trkpt><trkpt lat="43.496464" lon="12.7723095"><ele>458.0</ele><time>2026-03-08T10:20:20.929Z</time></trkpt><trkpt lat="43.4963578" lon="12.7722084"><ele>458.0</ele><time>2026-03-08T10:20:21.929Z</time></trkpt><trkpt lat="43.4962618" lon="12.7720911"><ele>458.0</ele><time>2026-03-08T10:20:22.929Z</time></trkpt><trkpt lat="43.4961702" lon="12.7719749"><ele>459.0</ele><time>2026-03-08T10:20:23.929Z</time></trkpt><trkpt lat="43.4960905" lon="12.7718569"><ele>460.0</ele><time>2026-03-08T10:20:24.929Z</time></trkpt><trkpt lat="43.4960222" lon="12.7717268"><ele>461.0</ele><time>2026-03-08T10:20:25.929Z</time></trkpt><trkpt lat="43.495988" lon="12.7715671"><ele>462.0</ele><time>2026-03-08T10:20:26.931Z</time></trkpt><trkpt lat="43.4959668" lon="12.771391"><ele>462.0</ele><time>2026-03-08T10:20:27.93Z</time></trkpt><trkpt lat="43.4959583" lon="12.7712137"><ele>462.0</ele><time>2026-03-08T10:20:28.93Z</time></trkpt><trkpt lat="43.4959416" lon="12.7710337"><ele>462.0</ele><time>2026-03-08T10:20:29.929Z</time></trkpt><trkpt lat="43.4959202" lon="12.7708546"><ele>462.0</ele><time>2026-03-08T10:20:30.929Z</time></trkpt><trkpt lat="43.495878" lon="12.7706792"><ele>462.0</ele><time>2026-03-08T10:20:31.929Z</time></trkpt><trkpt lat="43.4958201" lon="12.7705104"><ele>462.0</ele><time>2026-03-08T10:20:32.929Z</time></trkpt><trkpt lat="43.495763" lon="12.7703513"><ele>462.0</ele><time>2026-03-08T10:20:33.929Z</time></trkpt><trkpt lat="43.4957231" lon="12.7701956"><ele>462.0</ele><time>2026-03-08T10:20:34.929Z</time></trkpt><trkpt lat="43.4956975" lon="12.7700147"><ele>461.75</ele><time>2026-03-08T10:20:35.93Z</time></trkpt><trkpt lat="43.4956786" lon="12.7698224"><ele>461.5</ele><time>2026-03-08T10:20:36.929Z</time></trkpt><trkpt lat="43.4956833" lon="12.7696237"><ele>461.25</ele><time>2026-03-08T10:20:37.929Z</time></trkpt><trkpt lat="43.4957093" lon="12.7694272"><ele>461.0</ele><time>2026-03-08T10:20:38.929Z</time></trkpt><trkpt lat="43.4957272" lon="12.7692225"><ele>461.66666666666663</ele><time>2026-03-08T10:20:39.929Z</time></trkpt><trkpt lat="43.495751" lon="12.7690159"><ele>462.33333333333337</ele><time>2026-03-08T10:20:40.929Z</time></trkpt><trkpt lat="43.4957659" lon="12.7688114"><ele>463.0</ele><time>2026-03-08T10:20:41.931Z</time></trkpt><trkpt lat="43.4957807" lon="12.7685999"><ele>464.0</ele><time>2026-03-08T10:20:42.93Z</time></trkpt><trkpt lat="43.495794" lon="12.7684002"><ele>465.0</ele><time>2026-03-08T10:20:43.929Z</time></trkpt><trkpt lat="43.4958064" lon="12.7681996"><ele>466.0</ele><time>2026-03-08T10:20:44.929Z</time></trkpt><trkpt lat="43.4958248" lon="12.7679892"><ele>467.0</ele><time>2026-03-08T10:20:45.929Z</time></trkpt><trkpt lat="43.4958421" lon="12.7677929"><ele>467.75</ele><time>2026-03-08T10:20:46.929Z</time></trkpt><trkpt lat="43.4958597" lon="12.767598"><ele>468.5</ele><time>2026-03-08T10:20:47.929Z</time></trkpt><trkpt lat="43.4958798" lon="12.7674158"><ele>469.25</ele><time>2026-03-08T10:20:48.93Z</time></trkpt><trkpt lat="43.4958922" lon="12.7672412"><ele>470.0</ele><time>2026-03-08T10:20:49.929Z</time></trkpt><trkpt lat="43.4958978" lon="12.7670835"><ele>470.0</ele><time>2026-03-08T10:20:50.929Z</time></trkpt><trkpt lat="43.4958893" lon="12.766933"><ele>470.0</ele><time>2026-03-08T10:20:51.929Z</time></trkpt><trkpt lat="43.495848" lon="12.7668162"><ele>470.0</ele><time>2026-03-08T10:20:52.929Z</time></trkpt><trkpt lat="43.4957874" lon="12.7667164"><ele>470.0</ele><time>2026-03-08T10:20:53.93Z</time></trkpt><trkpt lat="43.4957211" lon="12.7666402"><ele>470.0</ele><time>2026-03-08T10:20:54.93Z</time></trkpt><trkpt lat="43.4956631" lon="12.7665789"><ele>470.6</ele><time>2026-03-08T10:20:55.929Z</time></trkpt><trkpt lat="43.495606" lon="12.7665074"><ele>471.2</ele><time>2026-03-08T10:20:57.93Z</time></trkpt><trkpt lat="43.4955117" lon="12.7665553"><ele>471.79999999999995</ele><time>2026-03-08T10:21:01.929Z</time></trkpt><trkpt lat="43.4954771" lon="12.7666527"><ele>472.4</ele><time>2026-03-08T10:21:02.929Z</time></trkpt><trkpt lat="43.4954395" lon="12.7667813"><ele>473.0</ele><time>2026-03-08T10:21:03.93Z</time></trkpt><trkpt lat="43.4953909" lon="12.7669266"><ele>475.0</ele><time>2026-03-08T10:21:04.929Z</time></trkpt><trkpt lat="43.4953448" lon="12.7670899"><ele>477.0</ele><time>2026-03-08T10:21:05.929Z</time></trkpt><trkpt lat="43.4953021" lon="12.7672627"><ele>479.0</ele><time>2026-03-08T10:21:06.93Z</time></trkpt><trkpt lat="43.4952517" lon="12.7674415"><ele>481.0</ele><time>2026-03-08T10:21:07.929Z</time></trkpt><trkpt lat="43.4952031" lon="12.7676143"><ele>479.25</ele><time>2026-03-08T10:21:08.929Z</time></trkpt><trkpt lat="43.4951438" lon="12.7677831"><ele>477.5</ele><time>2026-03-08T10:21:09.93Z</time></trkpt><trkpt lat="43.495072" lon="12.767939"><ele>475.75</ele><time>2026-03-08T10:21:10.929Z</time></trkpt><trkpt lat="43.4949814" lon="12.7680773"><ele>474.0</ele><time>2026-03-08T10:21:11.93Z</time></trkpt><trkpt lat="43.4948757" lon="12.7681872"><ele>474.0</ele><time>2026-03-08T10:21:12.93Z</time></trkpt><trkpt lat="43.4947474" lon="12.7682603"><ele>474.0</ele><time>2026-03-08T10:21:13.929Z</time></trkpt><trkpt lat="43.4946028" lon="12.7683009"><ele>474.0</ele><time>2026-03-08T10:21:14.929Z</time></trkpt><trkpt lat="43.4944602" lon="12.7683014"><ele>474.0</ele><time>2026-03-08T10:21:15.929Z</time></trkpt><trkpt lat="43.4943193" lon="12.7682809"><ele>475.75</ele><time>2026-03-08T10:21:16.929Z</time></trkpt><trkpt lat="43.4941945" lon="12.768243"><ele>477.5</ele><time>2026-03-08T10:21:17.929Z</time></trkpt><trkpt lat="43.4940694" lon="12.7682021"><ele>479.25</ele><time>2026-03-08T10:21:18.93Z</time></trkpt><trkpt lat="43.4939491" lon="12.7681691"><ele>481.0</ele><time>2026-03-08T10:21:19.93Z</time></trkpt><trkpt lat="43.4938196" lon="12.7681358"><ele>481.0</ele><time>2026-03-08T10:21:20.93Z</time></trkpt><trkpt lat="43.493688" lon="12.768115"><ele>481.0</ele><time>2026-03-08T10:21:21.93Z</time></trkpt><trkpt lat="43.4935494" lon="12.7681092"><ele>481.0</ele><time>2026-03-08T10:21:22.93Z</time></trkpt><trkpt lat="43.493413" lon="12.7681249"><ele>481.0</ele><time>2026-03-08T10:21:23.929Z</time></trkpt><trkpt lat="43.4932781" lon="12.7681492"><ele>481.0</ele><time>2026-03-08T10:21:24.929Z</time></trkpt><trkpt lat="43.4931416" lon="12.7681804"><ele>481.0</ele><time>2026-03-08T10:21:25.93Z</time></trkpt><trkpt lat="43.4930035" lon="12.7682104"><ele>481.0</ele><time>2026-03-08T10:21:26.929Z</time></trkpt><trkpt lat="43.4928671" lon="12.7682312"><ele>481.0</ele><time>2026-03-08T10:21:27.929Z</time></trkpt><trkpt lat="43.4927227" lon="12.7682383"><ele>483.75</ele><time>2026-03-08T10:21:28.929Z</time></trkpt><trkpt lat="43.492578" lon="12.7682259"><ele>486.5</ele><time>2026-03-08T10:21:29.931Z</time></trkpt><trkpt lat="43.4924375" lon="12.7682085"><ele>489.25</ele><time>2026-03-08T10:21:30.929Z</time></trkpt><trkpt lat="43.4922995" lon="12.7681809"><ele>492.0</ele><time>2026-03-08T10:21:31.929Z</time></trkpt><trkpt lat="43.4921614" lon="12.7681534"><ele>492.5</ele><time>2026-03-08T10:21:32.929Z</time></trkpt><trkpt lat="43.4920318" lon="12.7681196"><ele>493.0</ele><time>2026-03-08T10:21:33.929Z</time></trkpt><trkpt lat="43.4919108" lon="12.7681047"><ele>493.5</ele><time>2026-03-08T10:21:34.93Z</time></trkpt><trkpt lat="43.4918058" lon="12.7680892"><ele>494.0</ele><time>2026-03-08T10:21:35.93Z</time></trkpt><trkpt lat="43.4917095" lon="12.7680605"><ele>494.0</ele><time>2026-03-08T10:21:36.929Z</time></trkpt><trkpt lat="43.4916279" lon="12.7680373"><ele>494.0</ele><time>2026-03-08T10:21:37.93Z</time></trkpt><trkpt lat="43.4915514" lon="12.7680156"><ele>494.0</ele><time>2026-03-08T10:21:38.929Z</time></trkpt><trkpt lat="43.4914846" lon="12.7679894"><ele>494.0</ele><time>2026-03-08T10:21:39.929Z</time></trkpt><trkpt lat="43.4913857" lon="12.7679515"><ele>494.0</ele><time>2026-03-08T10:21:41.93Z</time></trkpt><trkpt lat="43.4915002" lon="12.768066"><ele>493.99999999999994</ele><time>2026-03-08T10:22:03.929Z</time></trkpt><trkpt lat="43.4915748" lon="12.7680888"><ele>494.0</ele><time>2026-03-08T10:22:04.929Z</time></trkpt><trkpt lat="43.4916596" lon="12.7681065"><ele>494.0</ele><time>2026-03-08T10:22:05.93Z</time></trkpt><trkpt lat="43.4917225" lon="12.7681279"><ele>494.0</ele><time>2026-03-08T10:22:06.929Z</time></trkpt><trkpt lat="43.4917911" lon="12.7681302"><ele>493.99999999999994</ele><time>2026-03-08T10:22:07.93Z</time></trkpt><trkpt lat="43.4918617" lon="12.7680509"><ele>494.0</ele><time>2026-03-08T10:22:09.93Z</time></trkpt><trkpt lat="43.4918445" lon="12.7678872"><ele>494.0</ele><time>2026-03-08T10:22:10.929Z</time></trkpt><trkpt lat="43.491852" lon="12.7677545"><ele>494.0</ele><time>2026-03-08T10:22:11.929Z</time></trkpt><trkpt lat="43.4918371" lon="12.7676153"><ele>494.0</ele><time>2026-03-08T10:22:12.929Z</time></trkpt><trkpt lat="43.4918318" lon="12.7675141"><ele>494.0</ele><time>2026-03-08T10:22:13.929Z</time></trkpt><trkpt lat="43.4918038" lon="12.7674005"><ele>494.0</ele><time>2026-03-08T10:22:14.929Z</time></trkpt><trkpt lat="43.4916964" lon="12.767322"><ele>496.5</ele><time>2026-03-08T10:22:16.93Z</time></trkpt><trkpt lat="43.4916101" lon="12.7673036"><ele>499.0</ele><time>2026-03-08T10:22:17.929Z</time></trkpt><trkpt lat="43.4915004" lon="12.7672994"><ele>501.5</ele><time>2026-03-08T10:22:18.929Z</time></trkpt><trkpt lat="43.4913843" lon="12.7672958"><ele>504.0</ele><time>2026-03-08T10:22:19.929Z</time></trkpt><trkpt lat="43.4912295" lon="12.7673073"><ele>505.25</ele><time>2026-03-08T10:22:20.93Z</time></trkpt><trkpt lat="43.4910887" lon="12.7673118"><ele>506.5</ele><time>2026-03-08T10:22:21.929Z</time></trkpt><trkpt lat="43.4909524" lon="12.7673003"><ele>507.75</ele><time>2026-03-08T10:22:22.929Z</time></trkpt><trkpt lat="43.4908412" lon="12.7672843"><ele>509.0</ele><time>2026-03-08T10:22:23.929Z</time></trkpt><trkpt lat="43.4907558" lon="12.7672601"><ele>508.99999999999994</ele><time>2026-03-08T10:22:24.929Z</time></trkpt><trkpt lat="43.4906898" lon="12.7672025"><ele>509.0</ele><time>2026-03-08T10:22:25.929Z</time></trkpt><trkpt lat="43.4906346" lon="12.7671189"><ele>509.0</ele><time>2026-03-08T10:22:26.93Z</time></trkpt><trkpt lat="43.4905994" lon="12.7670277"><ele>509.0</ele><time>2026-03-08T10:22:27.929Z</time></trkpt><trkpt lat="43.4905789" lon="12.7669131"><ele>508.99999999999994</ele><time>2026-03-08T10:22:28.929Z</time></trkpt><trkpt lat="43.4905757" lon="12.7668089"><ele>509.0</ele><time>2026-03-08T10:22:29.93Z</time></trkpt><trkpt lat="43.4905941" lon="12.7666993"><ele>511.99999999999994</ele><time>2026-03-08T10:22:30.929Z</time></trkpt><trkpt lat="43.4906164" lon="12.7665707"><ele>515.0</ele><time>2026-03-08T10:22:31.929Z</time></trkpt><trkpt lat="43.4906805" lon="12.7664686"><ele>518.0</ele><time>2026-03-08T10:22:33.929Z</time></trkpt><trkpt lat="43.4907277" lon="12.7663943"><ele>521.0</ele><time>2026-03-08T10:22:35.929Z</time></trkpt><trkpt lat="43.4907196" lon="12.7663054"><ele>524.0</ele><time>2026-03-08T10:23:11.93Z</time></trkpt><trkpt lat="43.4907232" lon="12.7662059"><ele>527.0</ele><time>2026-03-08T10:23:14.929Z</time></trkpt><trkpt lat="43.4907911" lon="12.7661671"><ele>527.0</ele><time>2026-03-08T10:23:16.929Z</time></trkpt><trkpt lat="43.4908848" lon="12.7660983"><ele>527.0</ele><time>2026-03-08T10:23:18.929Z</time></trkpt><trkpt lat="43.4909588" lon="12.7659961"><ele>527.0</ele><time>2026-03-08T10:23:20.929Z</time></trkpt><trkpt lat="43.4909568" lon="12.7658897"><ele>527.0</ele><time>2026-03-08T10:23:30.929Z</time></trkpt><trkpt lat="43.4909331" lon="12.7657726"><ele>527.0</ele><time>2026-03-08T10:23:33.929Z</time></trkpt><trkpt lat="43.4915426" lon="12.7658139"><ele>534.0</ele><time>2026-03-08T10:25:21.93Z</time></trkpt><trkpt lat="43.4914743" lon="12.7658376"><ele>541.0</ele><time>2026-03-08T10:25:22.929Z</time></trkpt><trkpt lat="43.4912198" lon="12.7658097"><ele>548.0</ele><time>2026-03-08T10:25:23.929Z</time></trkpt><trkpt lat="43.491151" lon="12.7658228"><ele>555.0</ele><time>2026-03-08T10:25:26.929Z</time></trkpt><trkpt lat="43.4910505" lon="12.7658377"><ele>555.0</ele><time>2026-03-08T10:25:30.93Z</time></trkpt><trkpt lat="43.4910191" lon="12.7659277"><ele>555.0</ele><time>2026-03-08T10:25:40.929Z</time></trkpt><trkpt lat="43.4910091" lon="12.7660359"><ele>555.0</ele><time>2026-03-08T10:25:45.929Z</time></trkpt><trkpt lat="43.4909546" lon="12.7661391"><ele>555.0</ele><time>2026-03-08T10:25:48.93Z</time></trkpt><trkpt lat="43.4908794" lon="12.7661875"><ele>555.0</ele><time>2026-03-08T10:25:50.929Z</time></trkpt><trkpt lat="43.4908101" lon="12.7661894"><ele>555.0</ele><time>2026-03-08T10:25:51.929Z</time></trkpt><trkpt lat="43.4907421" lon="12.7662513"><ele>550.3333333333334</ele><time>2026-03-08T10:25:53.929Z</time></trkpt><trkpt lat="43.4907429" lon="12.7663627"><ele>545.6666666666666</ele><time>2026-03-08T10:25:56.929Z</time></trkpt><trkpt lat="43.4907763" lon="12.7664668"><ele>541.0</ele><time>2026-03-08T10:25:59.93Z</time></trkpt><trkpt lat="43.4908373" lon="12.7664962"><ele>536.3333333333333</ele><time>2026-03-08T10:26:38.93Z</time></trkpt><trkpt lat="43.4909155" lon="12.7664898"><ele>531.6666666666666</ele><time>2026-03-08T10:26:42.929Z</time></trkpt><trkpt lat="43.4909782" lon="12.7664556"><ele>527.0</ele><time>2026-03-08T10:26:44.929Z</time></trkpt><trkpt lat="43.4910581" lon="12.766441"><ele>527.0</ele><time>2026-03-08T10:26:47.929Z</time></trkpt><trkpt lat="43.4911352" lon="12.7664252"><ele>527.0</ele><time>2026-03-08T10:26:49.929Z</time></trkpt><trkpt lat="43.4912073" lon="12.7664139"><ele>527.0</ele><time>2026-03-08T10:26:51.929Z</time></trkpt><trkpt lat="43.4912533" lon="12.7663533"><ele>527.0</ele><time>2026-03-08T10:26:57.929Z</time></trkpt><trkpt lat="43.4911779" lon="12.766427"><ele>527.0</ele><time>2026-03-08T10:27:03.929Z</time></trkpt><trkpt lat="43.4910925" lon="12.7664257"><ele>527.0</ele><time>2026-03-08T10:27:05.929Z</time></trkpt><trkpt lat="43.4910096" lon="12.7664438"><ele>527.0</ele><time>2026-03-08T10:27:07.93Z</time></trkpt><trkpt lat="43.4909422" lon="12.7664414"><ele>527.0</ele><time>2026-03-08T10:27:09.93Z</time></trkpt><trkpt lat="43.4908674" lon="12.7664804"><ele>527.0</ele><time>2026-03-08T10:27:12.93Z</time></trkpt><trkpt lat="43.4907936" lon="12.7664831"><ele>527.0</ele><time>2026-03-08T10:27:15.93Z</time></trkpt><trkpt lat="43.4907314" lon="12.7664639"><ele>527.0</ele><time>2026-03-08T10:27:31.929Z</time></trkpt><trkpt lat="43.490667" lon="12.7665132"><ele>527.0</ele><time>2026-03-08T10:27:33.929Z</time></trkpt><trkpt lat="43.4906226" lon="12.7666244"><ele>527.0</ele><time>2026-03-08T10:27:35.929Z</time></trkpt><trkpt lat="43.4905893" lon="12.7667605"><ele>527.0</ele><time>2026-03-08T10:27:37.929Z</time></trkpt><trkpt lat="43.4905746" lon="12.7668969"><ele>527.0</ele><time>2026-03-08T10:27:39.929Z</time></trkpt><trkpt lat="43.4906111" lon="12.7670442"><ele>527.0</ele><time>2026-03-08T10:27:41.929Z</time></trkpt><trkpt lat="43.4906483" lon="12.7671324"><ele>527.0</ele><time>2026-03-08T10:27:42.93Z</time></trkpt><trkpt lat="43.4906938" lon="12.7672009"><ele>524.0</ele><time>2026-03-08T10:27:43.929Z</time></trkpt><trkpt lat="43.4907404" lon="12.7672759"><ele>521.0</ele><time>2026-03-08T10:27:44.929Z</time></trkpt><trkpt lat="43.4907913" lon="12.7673284"><ele>518.0</ele><time>2026-03-08T10:27:45.93Z</time></trkpt><trkpt lat="43.4908686" lon="12.7673416"><ele>515.0</ele><time>2026-03-08T10:27:46.929Z</time></trkpt><trkpt lat="43.4909425" lon="12.7673601"><ele>511.99999999999994</ele><time>2026-03-08T10:27:47.929Z</time></trkpt><trkpt lat="43.4910378" lon="12.7673542"><ele>509.0</ele><time>2026-03-08T10:27:48.929Z</time></trkpt><trkpt lat="43.4911146" lon="12.7673188"><ele>509.0</ele><time>2026-03-08T10:27:49.929Z</time></trkpt><trkpt lat="43.4912194" lon="12.7673236"><ele>509.0</ele><time>2026-03-08T10:27:50.929Z</time></trkpt><trkpt lat="43.491319" lon="12.7673183"><ele>509.0</ele><time>2026-03-08T10:27:51.929Z</time></trkpt><trkpt lat="43.4914082" lon="12.7672966"><ele>509.0</ele><time>2026-03-08T10:27:52.928Z</time></trkpt><trkpt lat="43.491509" lon="12.7673159"><ele>509.0</ele><time>2026-03-08T10:27:53.93Z</time></trkpt><trkpt lat="43.4916036" lon="12.7673276"><ele>508.0</ele><time>2026-03-08T10:27:54.929Z</time></trkpt><trkpt lat="43.4916825" lon="12.7673386"><ele>507.0</ele><time>2026-03-08T10:27:55.928Z</time></trkpt><trkpt lat="43.4917694" lon="12.7673744"><ele>506.0</ele><time>2026-03-08T10:27:57.929Z</time></trkpt><trkpt lat="43.4918109" lon="12.7674537"><ele>505.0</ele><time>2026-03-08T10:27:58.929Z</time></trkpt><trkpt lat="43.4918324" lon="12.7676414"><ele>504.0</ele><time>2026-03-08T10:28:00.93Z</time></trkpt><trkpt lat="43.4918185" lon="12.7677601"><ele>502.3333333333333</ele><time>2026-03-08T10:28:01.929Z</time></trkpt><trkpt lat="43.491813" lon="12.767862"><ele>500.66666666666663</ele><time>2026-03-08T10:28:02.929Z</time></trkpt><trkpt lat="43.491809" lon="12.7679922"><ele>499.0</ele><time>2026-03-08T10:28:04.929Z</time></trkpt><trkpt lat="43.491753" lon="12.7680589"><ele>497.3333333333333</ele><time>2026-03-08T10:28:19.93Z</time></trkpt><trkpt lat="43.491638" lon="12.7680366"><ele>495.66666666666663</ele><time>2026-03-08T10:28:21.929Z</time></trkpt><trkpt lat="43.4915713" lon="12.7680214"><ele>494.0</ele><time>2026-03-08T10:28:22.928Z</time></trkpt><trkpt lat="43.4914888" lon="12.768006"><ele>493.99999999999994</ele><time>2026-03-08T10:28:23.93Z</time></trkpt><trkpt lat="43.4914018" lon="12.7679892"><ele>494.0</ele><time>2026-03-08T10:28:24.929Z</time></trkpt><trkpt lat="43.4913176" lon="12.7679722"><ele>494.0</ele><time>2026-03-08T10:28:25.928Z</time></trkpt><trkpt lat="43.4912319" lon="12.7679514"><ele>494.0</ele><time>2026-03-08T10:28:26.929Z</time></trkpt><trkpt lat="43.4911466" lon="12.7679307"><ele>493.99999999999994</ele><time>2026-03-08T10:28:27.929Z</time></trkpt><trkpt lat="43.4910574" lon="12.7679149"><ele>494.0</ele><time>2026-03-08T10:28:28.929Z</time></trkpt><trkpt lat="43.4909701" lon="12.7678998"><ele>495.16666666666663</ele><time>2026-03-08T10:28:29.93Z</time></trkpt><trkpt lat="43.4908905" lon="12.7678948"><ele>496.3333333333333</ele><time>2026-03-08T10:28:30.929Z</time></trkpt><trkpt lat="43.4908126" lon="12.7679084"><ele>497.5</ele><time>2026-03-08T10:28:31.93Z</time></trkpt><trkpt lat="43.490741" lon="12.7679316"><ele>498.66666666666663</ele><time>2026-03-08T10:28:32.929Z</time></trkpt><trkpt lat="43.4906788" lon="12.7679581"><ele>499.8333333333333</ele><time>2026-03-08T10:28:33.929Z</time></trkpt><trkpt lat="43.4905831" lon="12.7680517"><ele>501.0</ele><time>2026-03-08T10:28:35.929Z</time></trkpt><trkpt lat="43.4904925" lon="12.7681716"><ele>501.0</ele><time>2026-03-08T10:28:37.93Z</time></trkpt><trkpt lat="43.4904542" lon="12.7682719"><ele>501.0</ele><time>2026-03-08T10:28:38.93Z</time></trkpt><trkpt lat="43.4904196" lon="12.7683843"><ele>501.0</ele><time>2026-03-08T10:28:39.929Z</time></trkpt><trkpt lat="43.490387" lon="12.7685048"><ele>501.0</ele><time>2026-03-08T10:28:40.929Z</time></trkpt><trkpt lat="43.4903613" lon="12.768644"><ele>501.0</ele><time>2026-03-08T10:28:41.929Z</time></trkpt><trkpt lat="43.4903361" lon="12.7687993"><ele>505.5</ele><time>2026-03-08T10:28:42.929Z</time></trkpt><trkpt lat="43.4903138" lon="12.7689689"><ele>510.0</ele><time>2026-03-08T10:28:43.93Z</time></trkpt><trkpt lat="43.490286" lon="12.7691314"><ele>514.5</ele><time>2026-03-08T10:28:44.929Z</time></trkpt><trkpt lat="43.49026" lon="12.7692974"><ele>519.0</ele><time>2026-03-08T10:28:45.93Z</time></trkpt><trkpt lat="43.4902462" lon="12.7694813"><ele>519.0</ele><time>2026-03-08T10:28:46.929Z</time></trkpt><trkpt lat="43.4902232" lon="12.7696225"><ele>519.0</ele><time>2026-03-08T10:28:47.929Z</time></trkpt><trkpt lat="43.4902116" lon="12.7697176"><ele>519.0</ele><time>2026-03-08T10:28:48.928Z</time></trkpt><trkpt lat="43.4901249" lon="12.7696161"><ele>519.0</ele><time>2026-03-08T10:28:56.929Z</time></trkpt><trkpt lat="43.4900389" lon="12.7695914"><ele>519.0</ele><time>2026-03-08T10:28:58.929Z</time></trkpt><trkpt lat="43.4899588" lon="12.7697198"><ele>519.0</ele><time>2026-03-08T10:29:00.93Z</time></trkpt><trkpt lat="43.4899263" lon="12.7698082"><ele>519.0</ele><time>2026-03-08T10:29:01.929Z</time></trkpt><trkpt lat="43.4899307" lon="12.7699686"><ele>519.0</ele><time>2026-03-08T10:29:02.929Z</time></trkpt><trkpt lat="43.4899336" lon="12.770111"><ele>519.0</ele><time>2026-03-08T10:29:03.929Z</time></trkpt><trkpt lat="43.4899352" lon="12.7702276"><ele>519.0</ele><time>2026-03-08T10:29:04.929Z</time></trkpt><trkpt lat="43.4899017" lon="12.7703536"><ele>519.2</ele><time>2026-03-08T10:29:05.929Z</time></trkpt><trkpt lat="43.4898776" lon="12.7704699"><ele>519.4</ele><time>2026-03-08T10:29:06.929Z</time></trkpt><trkpt lat="43.4898419" lon="12.7705869"><ele>519.6</ele><time>2026-03-08T10:29:07.929Z</time></trkpt><trkpt lat="43.4897895" lon="12.7706953"><ele>519.8</ele><time>2026-03-08T10:29:08.93Z</time></trkpt><trkpt lat="43.4897313" lon="12.7708016"><ele>520.0</ele><time>2026-03-08T10:29:09.929Z</time></trkpt><trkpt lat="43.4896746" lon="12.7709009"><ele>520.0</ele><time>2026-03-08T10:29:10.93Z</time></trkpt><trkpt lat="43.4895988" lon="12.7709975"><ele>520.0</ele><time>2026-03-08T10:29:11.93Z</time></trkpt><trkpt lat="43.4895128" lon="12.7710819"><ele>520.0</ele><time>2026-03-08T10:29:12.928Z</time></trkpt><trkpt lat="43.4894158" lon="12.771162"><ele>520.0</ele><time>2026-03-08T10:29:13.929Z</time></trkpt><trkpt lat="43.4893132" lon="12.7712282"><ele>520.0</ele><time>2026-03-08T10:29:14.928Z</time></trkpt><trkpt lat="43.4892118" lon="12.7712893"><ele>520.6</ele><time>2026-03-08T10:29:15.928Z</time></trkpt><trkpt lat="43.489101" lon="12.771328"><ele>521.2</ele><time>2026-03-08T10:29:16.929Z</time></trkpt><trkpt lat="43.4889918" lon="12.7713745"><ele>521.8</ele><time>2026-03-08T10:29:17.93Z</time></trkpt><trkpt lat="43.4888931" lon="12.7714252"><ele>522.4</ele><time>2026-03-08T10:29:18.929Z</time></trkpt><trkpt lat="43.4887886" lon="12.7714834"><ele>523.0</ele><time>2026-03-08T10:29:19.929Z</time></trkpt><trkpt lat="43.4886969" lon="12.7715505"><ele>525.8333333333334</ele><time>2026-03-08T10:29:20.93Z</time></trkpt><trkpt lat="43.4886097" lon="12.7716154"><ele>528.6666666666667</ele><time>2026-03-08T10:29:21.93Z</time></trkpt><trkpt lat="43.4885247" lon="12.7716735"><ele>531.5</ele><time>2026-03-08T10:29:22.928Z</time></trkpt><trkpt lat="43.4884429" lon="12.7716933"><ele>534.3333333333334</ele><time>2026-03-08T10:29:23.929Z</time></trkpt><trkpt lat="43.4883581" lon="12.7716773"><ele>537.1666666666666</ele><time>2026-03-08T10:29:24.929Z</time></trkpt><trkpt lat="43.4882725" lon="12.7716656"><ele>540.0</ele><time>2026-03-08T10:29:25.929Z</time></trkpt><trkpt lat="43.4881761" lon="12.7716557"><ele>540.0</ele><time>2026-03-08T10:29:26.929Z</time></trkpt><trkpt lat="43.4880815" lon="12.7716601"><ele>540.0</ele><time>2026-03-08T10:29:27.929Z</time></trkpt><trkpt lat="43.4879755" lon="12.7716815"><ele>540.0</ele><time>2026-03-08T10:29:28.929Z</time></trkpt><trkpt lat="43.4878835" lon="12.7717218"><ele>540.0</ele><time>2026-03-08T10:29:29.929Z</time></trkpt><trkpt lat="43.4877821" lon="12.7717537"><ele>540.0</ele><time>2026-03-08T10:29:30.929Z</time></trkpt><trkpt lat="43.4876771" lon="12.7718039"><ele>539.6</ele><time>2026-03-08T10:29:31.93Z</time></trkpt><trkpt lat="43.4875711" lon="12.7718431"><ele>539.2</ele><time>2026-03-08T10:29:32.929Z</time></trkpt><trkpt lat="43.4874676" lon="12.7718898"><ele>538.8</ele><time>2026-03-08T10:29:33.93Z</time></trkpt><trkpt lat="43.487385" lon="12.7719018"><ele>538.4</ele><time>2026-03-08T10:29:34.929Z</time></trkpt><trkpt lat="43.4872751" lon="12.7719108"><ele>538.0</ele><time>2026-03-08T10:29:35.929Z</time></trkpt><trkpt lat="43.4871687" lon="12.7719446"><ele>541.1999999999999</ele><time>2026-03-08T10:29:36.929Z</time></trkpt><trkpt lat="43.4870669" lon="12.7719433"><ele>544.4</ele><time>2026-03-08T10:29:37.929Z</time></trkpt><trkpt lat="43.4869729" lon="12.7719819"><ele>547.5999999999999</ele><time>2026-03-08T10:29:38.929Z</time></trkpt><trkpt lat="43.4868686" lon="12.7720305"><ele>550.8</ele><time>2026-03-08T10:29:39.929Z</time></trkpt><trkpt lat="43.4867881" lon="12.772067"><ele>554.0</ele><time>2026-03-08T10:29:40.929Z</time></trkpt><trkpt lat="43.4867147" lon="12.7720491"><ele>554.0</ele><time>2026-03-08T10:29:41.929Z</time></trkpt><trkpt lat="43.4866309" lon="12.7720192"><ele>554.0</ele><time>2026-03-08T10:29:42.929Z</time></trkpt><trkpt lat="43.4865475" lon="12.7719852"><ele>554.0</ele><time>2026-03-08T10:29:43.93Z</time></trkpt><trkpt lat="43.4864599" lon="12.7719306"><ele>554.0</ele><time>2026-03-08T10:29:44.929Z</time></trkpt><trkpt lat="43.4863826" lon="12.771875"><ele>554.0</ele><time>2026-03-08T10:29:45.93Z</time></trkpt><trkpt lat="43.4862959" lon="12.7718411"><ele>554.0</ele><time>2026-03-08T10:29:46.929Z</time></trkpt><trkpt lat="43.4861972" lon="12.7717848"><ele>559.0</ele><time>2026-03-08T10:29:47.929Z</time></trkpt><trkpt lat="43.4861006" lon="12.7717474"><ele>564.0</ele><time>2026-03-08T10:29:48.929Z</time></trkpt><trkpt lat="43.486008" lon="12.7717192"><ele>569.0</ele><time>2026-03-08T10:29:49.93Z</time></trkpt><trkpt lat="43.4859175" lon="12.7716833"><ele>574.0</ele><time>2026-03-08T10:29:50.929Z</time></trkpt><trkpt lat="43.4858227" lon="12.771648"><ele>579.0</ele><time>2026-03-08T10:29:51.929Z</time></trkpt><trkpt lat="43.4857552" lon="12.7716116"><ele>579.0</ele><time>2026-03-08T10:29:52.929Z</time></trkpt><trkpt lat="43.4856774" lon="12.7715245"><ele>579.0</ele><time>2026-03-08T10:29:54.929Z</time></trkpt><trkpt lat="43.4856495" lon="12.7714286"><ele>579.0</ele><time>2026-03-08T10:30:47.93Z</time></trkpt><trkpt lat="43.4856495" lon="12.7712587"><ele>579.0</ele><time>2026-03-08T10:30:49.929Z</time></trkpt><trkpt lat="43.4856432" lon="12.7711665"><ele>579.0</ele><time>2026-03-08T10:30:50.929Z</time></trkpt><trkpt lat="43.4856235" lon="12.7710764"><ele>579.0</ele><time>2026-03-08T10:30:51.929Z</time></trkpt><trkpt lat="43.4855967" lon="12.7709878"><ele>581.5714285714286</ele><time>2026-03-08T10:30:52.929Z</time></trkpt><trkpt lat="43.4855668" lon="12.7708945"><ele>584.1428571428571</ele><time>2026-03-08T10:30:53.929Z</time></trkpt><trkpt lat="43.4855488" lon="12.7708008"><ele>586.7142857142858</ele><time>2026-03-08T10:30:54.929Z</time></trkpt><trkpt lat="43.4855448" lon="12.7707036"><ele>589.2857142857142</ele><time>2026-03-08T10:30:55.928Z</time></trkpt><trkpt lat="43.4855487" lon="12.7706041"><ele>591.8571428571429</ele><time>2026-03-08T10:30:56.929Z</time></trkpt><trkpt lat="43.4855623" lon="12.7704957"><ele>594.4285714285714</ele><time>2026-03-08T10:30:57.929Z</time></trkpt><trkpt lat="43.4855834" lon="12.77039"><ele>597.0</ele><time>2026-03-08T10:30:58.929Z</time></trkpt><trkpt lat="43.4855986" lon="12.7702887"><ele>599.8333333333334</ele><time>2026-03-08T10:30:59.929Z</time></trkpt><trkpt lat="43.4856192" lon="12.7701873"><ele>602.6666666666666</ele><time>2026-03-08T10:31:00.93Z</time></trkpt><trkpt lat="43.4856265" lon="12.7700819"><ele>605.5</ele><time>2026-03-08T10:31:01.929Z</time></trkpt><trkpt lat="43.4856125" lon="12.7699765"><ele>608.3333333333333</ele><time>2026-03-08T10:31:02.929Z</time></trkpt><trkpt lat="43.4855942" lon="12.7698807"><ele>611.1666666666666</ele><time>2026-03-08T10:31:03.93Z</time></trkpt><trkpt lat="43.4855867" lon="12.76979"><ele>614.0</ele><time>2026-03-08T10:31:04.929Z</time></trkpt><trkpt lat="43.4856184" lon="12.7696271"><ele>613.9999999999999</ele><time>2026-03-08T10:31:06.929Z</time></trkpt><trkpt lat="43.485643" lon="12.7695359"><ele>614.0</ele><time>2026-03-08T10:31:07.929Z</time></trkpt><trkpt lat="43.4856688" lon="12.7694408"><ele>614.0</ele><time>2026-03-08T10:31:08.929Z</time></trkpt><trkpt lat="43.4856676" lon="12.7693441"><ele>614.0</ele><time>2026-03-08T10:31:09.929Z</time></trkpt><trkpt lat="43.4856607" lon="12.7692477"><ele>614.0</ele><time>2026-03-08T10:31:10.929Z</time></trkpt><trkpt lat="43.485653" lon="12.7691521"><ele>613.9999999999999</ele><time>2026-03-08T10:31:11.928Z</time></trkpt><trkpt lat="43.4856533" lon="12.769052"><ele>614.0</ele><time>2026-03-08T10:31:12.929Z</time></trkpt><trkpt lat="43.4856526" lon="12.7689545"><ele>615.5714285714286</ele><time>2026-03-08T10:31:13.929Z</time></trkpt><trkpt lat="43.485658" lon="12.7688613"><ele>617.1428571428571</ele><time>2026-03-08T10:31:14.928Z</time></trkpt><trkpt lat="43.4856744" lon="12.7687749"><ele>618.7142857142858</ele><time>2026-03-08T10:31:15.929Z</time></trkpt><trkpt lat="43.4856925" lon="12.7686764"><ele>620.2857142857142</ele><time>2026-03-08T10:31:16.929Z</time></trkpt><trkpt lat="43.4856755" lon="12.7685718"><ele>621.8571428571429</ele><time>2026-03-08T10:31:17.929Z</time></trkpt><trkpt lat="43.4856415" lon="12.7684792"><ele>623.4285714285714</ele><time>2026-03-08T10:31:18.929Z</time></trkpt><trkpt lat="43.4856071" lon="12.7683786"><ele>625.0</ele><time>2026-03-08T10:31:19.929Z</time></trkpt><trkpt lat="43.4855729" lon="12.7682693"><ele>628.0</ele><time>2026-03-08T10:31:20.929Z</time></trkpt><trkpt lat="43.4855441" lon="12.7681603"><ele>631.0</ele><time>2026-03-08T10:31:21.93Z</time></trkpt><trkpt lat="43.485522" lon="12.7680381"><ele>634.0</ele><time>2026-03-08T10:31:22.929Z</time></trkpt><trkpt lat="43.4855077" lon="12.7679164"><ele>637.0</ele><time>2026-03-08T10:31:23.929Z</time></trkpt><trkpt lat="43.4854936" lon="12.7677868"><ele>640.0</ele><time>2026-03-08T10:31:24.929Z</time></trkpt><trkpt lat="43.4854869" lon="12.7676431"><ele>641.8</ele><time>2026-03-08T10:31:25.929Z</time></trkpt><trkpt lat="43.4854758" lon="12.7675183"><ele>643.6</ele><time>2026-03-08T10:31:26.929Z</time></trkpt><trkpt lat="43.4854588" lon="12.7673809"><ele>645.4000000000001</ele><time>2026-03-08T10:31:27.929Z</time></trkpt><trkpt lat="43.4854428" lon="12.7672447"><ele>647.2</ele><time>2026-03-08T10:31:28.928Z</time></trkpt><trkpt lat="43.4854217" lon="12.7671161"><ele>649.0</ele><time>2026-03-08T10:31:29.928Z</time></trkpt><trkpt lat="43.4854061" lon="12.766987"><ele>641.2</ele><time>2026-03-08T10:31:30.928Z</time></trkpt><trkpt lat="43.4853979" lon="12.766859"><ele>633.4000000000001</ele><time>2026-03-08T10:31:31.93Z</time></trkpt><trkpt lat="43.4853965" lon="12.7667276"><ele>625.6</ele><time>2026-03-08T10:31:32.929Z</time></trkpt><trkpt lat="43.4853994" lon="12.766601"><ele>617.8</ele><time>2026-03-08T10:31:33.929Z</time></trkpt><trkpt lat="43.4854213" lon="12.7664722"><ele>610.0</ele><time>2026-03-08T10:31:34.929Z</time></trkpt><trkpt lat="43.4854267" lon="12.7663474"><ele>610.0</ele><time>2026-03-08T10:31:35.929Z</time></trkpt><trkpt lat="43.4854445" lon="12.7662047"><ele>610.0</ele><time>2026-03-08T10:31:36.93Z</time></trkpt><trkpt lat="43.4854261" lon="12.7660796"><ele>610.0</ele><time>2026-03-08T10:31:37.929Z</time></trkpt><trkpt lat="43.4854015" lon="12.7659486"><ele>610.0</ele><time>2026-03-08T10:31:38.929Z</time></trkpt><trkpt lat="43.4853842" lon="12.7658203"><ele>610.0</ele><time>2026-03-08T10:31:39.93Z</time></trkpt><trkpt lat="43.4853732" lon="12.7656984"><ele>610.8</ele><time>2026-03-08T10:31:40.93Z</time></trkpt><trkpt lat="43.4853512" lon="12.7655701"><ele>611.6</ele><time>2026-03-08T10:31:41.929Z</time></trkpt><trkpt lat="43.4853288" lon="12.7654426"><ele>612.4</ele><time>2026-03-08T10:31:42.929Z</time></trkpt><trkpt lat="43.4853126" lon="12.7653144"><ele>613.2</ele><time>2026-03-08T10:31:43.929Z</time></trkpt><trkpt lat="43.4853194" lon="12.7651898"><ele>614.0</ele><time>2026-03-08T10:31:44.929Z</time></trkpt><trkpt lat="43.4853359" lon="12.7650731"><ele>615.1666666666666</ele><time>2026-03-08T10:31:45.929Z</time></trkpt><trkpt lat="43.4853637" lon="12.7649676"><ele>616.3333333333333</ele><time>2026-03-08T10:31:46.929Z</time></trkpt><trkpt lat="43.485389" lon="12.7648608"><ele>617.5</ele><time>2026-03-08T10:31:47.93Z</time></trkpt><trkpt lat="43.4854005" lon="12.7647463"><ele>618.6666666666666</ele><time>2026-03-08T10:31:48.929Z</time></trkpt><trkpt lat="43.4853996" lon="12.7646073"><ele>619.8333333333334</ele><time>2026-03-08T10:31:49.93Z</time></trkpt><trkpt lat="43.4853842" lon="12.7644902"><ele>621.0</ele><time>2026-03-08T10:31:50.93Z</time></trkpt><trkpt lat="43.4853746" lon="12.7643723"><ele>624.5</ele><time>2026-03-08T10:31:51.929Z</time></trkpt><trkpt lat="43.4853518" lon="12.7642663"><ele>628.0</ele><time>2026-03-08T10:31:52.929Z</time></trkpt><trkpt lat="43.4853144" lon="12.7641719"><ele>631.5</ele><time>2026-03-08T10:31:53.93Z</time></trkpt><trkpt lat="43.4852693" lon="12.7640857"><ele>635.0</ele><time>2026-03-08T10:31:54.929Z</time></trkpt><trkpt lat="43.4852212" lon="12.7639963"><ele>638.5</ele><time>2026-03-08T10:31:55.929Z</time></trkpt><trkpt lat="43.4851733" lon="12.7639036"><ele>642.0</ele><time>2026-03-08T10:31:56.929Z</time></trkpt><trkpt lat="43.4851265" lon="12.7637867"><ele>642.0</ele><time>2026-03-08T10:31:57.93Z</time></trkpt><trkpt lat="43.4850879" lon="12.7636531"><ele>642.0</ele><time>2026-03-08T10:31:58.93Z</time></trkpt><trkpt lat="43.4850431" lon="12.7635277"><ele>642.0</ele><time>2026-03-08T10:31:59.929Z</time></trkpt><trkpt lat="43.4850047" lon="12.763395"><ele>642.0</ele><time>2026-03-08T10:32:00.93Z</time></trkpt><trkpt lat="43.4849782" lon="12.7632463"><ele>642.0</ele><time>2026-03-08T10:32:01.928Z</time></trkpt><trkpt lat="43.4849317" lon="12.7630999"><ele>645.6</ele><time>2026-03-08T10:32:02.929Z</time></trkpt><trkpt lat="43.4849045" lon="12.7629574"><ele>649.2</ele><time>2026-03-08T10:32:03.929Z</time></trkpt><trkpt lat="43.4848705" lon="12.7628288"><ele>652.8</ele><time>2026-03-08T10:32:04.929Z</time></trkpt><trkpt lat="43.4848379" lon="12.7626993"><ele>656.4</ele><time>2026-03-08T10:32:05.93Z</time></trkpt><trkpt lat="43.4848136" lon="12.7625661"><ele>660.0</ele><time>2026-03-08T10:32:06.929Z</time></trkpt><trkpt lat="43.4847954" lon="12.7624301"><ele>661.4</ele><time>2026-03-08T10:32:07.929Z</time></trkpt><trkpt lat="43.4847836" lon="12.7622935"><ele>662.8</ele><time>2026-03-08T10:32:08.928Z</time></trkpt><trkpt lat="43.4847794" lon="12.7621481"><ele>664.2</ele><time>2026-03-08T10:32:09.929Z</time></trkpt><trkpt lat="43.4847821" lon="12.7620131"><ele>665.6</ele><time>2026-03-08T10:32:10.93Z</time></trkpt><trkpt lat="43.4847875" lon="12.7618931"><ele>667.0</ele><time>2026-03-08T10:32:11.929Z</time></trkpt><trkpt lat="43.4848022" lon="12.7617685"><ele>667.1666666666667</ele><time>2026-03-08T10:32:12.929Z</time></trkpt><trkpt lat="43.4848177" lon="12.7616359"><ele>667.3333333333334</ele><time>2026-03-08T10:32:13.929Z</time></trkpt><trkpt lat="43.4848333" lon="12.7615146"><ele>667.5</ele><time>2026-03-08T10:32:14.929Z</time></trkpt><trkpt lat="43.4848534" lon="12.7613993"><ele>667.6666666666666</ele><time>2026-03-08T10:32:15.929Z</time></trkpt><trkpt lat="43.4848758" lon="12.7612888"><ele>667.8333333333333</ele><time>2026-03-08T10:32:16.929Z</time></trkpt><trkpt lat="43.4849022" lon="12.761178"><ele>668.0</ele><time>2026-03-08T10:32:17.929Z</time></trkpt><trkpt lat="43.4849305" lon="12.7610614"><ele>666.8</ele><time>2026-03-08T10:32:18.928Z</time></trkpt><trkpt lat="43.4849604" lon="12.7609368"><ele>665.5999999999999</ele><time>2026-03-08T10:32:19.929Z</time></trkpt><trkpt lat="43.4849897" lon="12.7608093"><ele>664.4000000000001</ele><time>2026-03-08T10:32:20.929Z</time></trkpt><trkpt lat="43.4850169" lon="12.7606842"><ele>663.2</ele><time>2026-03-08T10:32:21.929Z</time></trkpt><trkpt lat="43.4850497" lon="12.7605666"><ele>662.0</ele><time>2026-03-08T10:32:22.929Z</time></trkpt><trkpt lat="43.4850763" lon="12.7604534"><ele>662.0</ele><time>2026-03-08T10:32:23.929Z</time></trkpt><trkpt lat="43.4850829" lon="12.7603405"><ele>662.0</ele><time>2026-03-08T10:32:24.929Z</time></trkpt><trkpt lat="43.4850805" lon="12.760212"><ele>662.0</ele><time>2026-03-08T10:32:25.929Z</time></trkpt><trkpt lat="43.4850604" lon="12.7600974"><ele>662.0</ele><time>2026-03-08T10:32:26.93Z</time></trkpt><trkpt lat="43.4850462" lon="12.7599811"><ele>662.0</ele><time>2026-03-08T10:32:27.929Z</time></trkpt><trkpt lat="43.4850492" lon="12.7598578"><ele>662.0</ele><time>2026-03-08T10:32:28.929Z</time></trkpt><trkpt lat="43.4850521" lon="12.759763"><ele>661.8</ele><time>2026-03-08T10:32:29.929Z</time></trkpt><trkpt lat="43.4850693" lon="12.7596282"><ele>661.6</ele><time>2026-03-08T10:32:30.929Z</time></trkpt><trkpt lat="43.4850706" lon="12.7595028"><ele>661.4</ele><time>2026-03-08T10:32:31.93Z</time></trkpt><trkpt lat="43.4850552" lon="12.7593636"><ele>661.1999999999999</ele><time>2026-03-08T10:32:32.928Z</time></trkpt><trkpt lat="43.4850375" lon="12.7592384"><ele>661.0</ele><time>2026-03-08T10:32:33.93Z</time></trkpt><trkpt lat="43.4850047" lon="12.7591014"><ele>663.0</ele><time>2026-03-08T10:32:34.928Z</time></trkpt><trkpt lat="43.4849726" lon="12.7589678"><ele>665.0</ele><time>2026-03-08T10:32:35.928Z</time></trkpt><trkpt lat="43.4849429" lon="12.7588371"><ele>667.0</ele><time>2026-03-08T10:32:36.929Z</time></trkpt><trkpt lat="43.4849373" lon="12.7586966"><ele>669.0</ele><time>2026-03-08T10:32:37.93Z</time></trkpt><trkpt lat="43.4849043" lon="12.7585665"><ele>671.0</ele><time>2026-03-08T10:32:38.929Z</time></trkpt><trkpt lat="43.484862" lon="12.7584362"><ele>673.1999999999999</ele><time>2026-03-08T10:32:39.928Z</time></trkpt><trkpt lat="43.4847605" lon="12.7583836"><ele>675.4</ele><time>2026-03-08T10:32:40.929Z</time></trkpt><trkpt lat="43.4847192" lon="12.7582689"><ele>677.6</ele><time>2026-03-08T10:32:41.929Z</time></trkpt><trkpt lat="43.4846543" lon="12.7581876"><ele>679.8</ele><time>2026-03-08T10:32:42.929Z</time></trkpt><trkpt lat="43.4845645" lon="12.7581306"><ele>682.0</ele><time>2026-03-08T10:32:43.929Z</time></trkpt><trkpt lat="43.484478" lon="12.758073"><ele>682.0</ele><time>2026-03-08T10:32:44.929Z</time></trkpt><trkpt lat="43.4844099" lon="12.7580064"><ele>682.0</ele><time>2026-03-08T10:32:45.93Z</time></trkpt><trkpt lat="43.4843095" lon="12.7579423"><ele>682.0</ele><time>2026-03-08T10:32:47.929Z</time></trkpt><trkpt lat="43.4841999" lon="12.757985"><ele>682.0</ele><time>2026-03-08T10:32:49.929Z</time></trkpt><trkpt lat="43.4841376" lon="12.7580444"><ele>682.0</ele><time>2026-03-08T10:32:50.93Z</time></trkpt><trkpt lat="43.4840244" lon="12.7581416"><ele>682.0</ele><time>2026-03-08T10:32:52.929Z</time></trkpt><trkpt lat="43.4839122" lon="12.7581546"><ele>682.0</ele><time>2026-03-08T10:32:54.93Z</time></trkpt><trkpt lat="43.4838452" lon="12.7581128"><ele>682.0</ele><time>2026-03-08T10:32:55.929Z</time></trkpt><trkpt lat="43.4837187" lon="12.7580587"><ele>682.0</ele><time>2026-03-08T10:32:57.929Z</time></trkpt><trkpt lat="43.4836344" lon="12.7580451"><ele>682.0</ele><time>2026-03-08T10:32:58.93Z</time></trkpt><trkpt lat="43.4835394" lon="12.7580357"><ele>681.5</ele><time>2026-03-08T10:32:59.93Z</time></trkpt><trkpt lat="43.4834455" lon="12.7580457"><ele>681.0</ele><time>2026-03-08T10:33:00.929Z</time></trkpt><trkpt lat="43.4833575" lon="12.7580926"><ele>680.5</ele><time>2026-03-08T10:33:01.929Z</time></trkpt><trkpt lat="43.4832789" lon="12.7581378"><ele>680.0</ele><time>2026-03-08T10:33:02.93Z</time></trkpt><trkpt lat="43.4831989" lon="12.7581941"><ele>679.5</ele><time>2026-03-08T10:33:03.929Z</time></trkpt><trkpt lat="43.4831301" lon="12.7582446"><ele>679.0</ele><time>2026-03-08T10:33:04.93Z</time></trkpt><trkpt lat="43.4830613" lon="12.7582706"><ele>679.0</ele><time>2026-03-08T10:33:05.929Z</time></trkpt><trkpt lat="43.4829854" lon="12.7582591"><ele>679.0</ele><time>2026-03-08T10:33:06.929Z</time></trkpt><trkpt lat="43.4829123" lon="12.7582285"><ele>679.0</ele><time>2026-03-08T10:33:07.93Z</time></trkpt><trkpt lat="43.4828441" lon="12.7581881"><ele>679.0</ele><time>2026-03-08T10:33:08.929Z</time></trkpt><trkpt lat="43.4827906" lon="12.7581232"><ele>679.0</ele><time>2026-03-08T10:33:09.93Z</time></trkpt><trkpt lat="43.4827473" lon="12.7580307"><ele>679.0</ele><time>2026-03-08T10:33:10.929Z</time></trkpt><trkpt lat="43.4827209" lon="12.7579152"><ele>678.4000000000001</ele><time>2026-03-08T10:33:11.929Z</time></trkpt><trkpt lat="43.4826907" lon="12.7578025"><ele>677.8</ele><time>2026-03-08T10:33:12.93Z</time></trkpt><trkpt lat="43.4826526" lon="12.7576684"><ele>677.2</ele><time>2026-03-08T10:33:13.929Z</time></trkpt><trkpt lat="43.4826123" lon="12.7575544"><ele>676.5999999999999</ele><time>2026-03-08T10:33:14.929Z</time></trkpt><trkpt lat="43.4825602" lon="12.7574434"><ele>676.0</ele><time>2026-03-08T10:33:15.93Z</time></trkpt><trkpt lat="43.4825054" lon="12.7573289"><ele>676.0</ele><time>2026-03-08T10:33:16.929Z</time></trkpt><trkpt lat="43.4824476" lon="12.7572174"><ele>676.0</ele><time>2026-03-08T10:33:17.929Z</time></trkpt><trkpt lat="43.4823819" lon="12.7571018"><ele>676.0</ele><time>2026-03-08T10:33:18.929Z</time></trkpt><trkpt lat="43.4823181" lon="12.7570049"><ele>676.0</ele><time>2026-03-08T10:33:19.929Z</time></trkpt><trkpt lat="43.4822595" lon="12.756908"><ele>676.0</ele><time>2026-03-08T10:33:20.929Z</time></trkpt><trkpt lat="43.4821998" lon="12.7568263"><ele>677.0</ele><time>2026-03-08T10:33:21.929Z</time></trkpt><trkpt lat="43.4821448" lon="12.7567483"><ele>678.0</ele><time>2026-03-08T10:33:22.929Z</time></trkpt><trkpt lat="43.4820888" lon="12.7566791"><ele>679.0</ele><time>2026-03-08T10:33:23.929Z</time></trkpt><trkpt lat="43.4820286" lon="12.7566347"><ele>680.0</ele><time>2026-03-08T10:33:24.929Z</time></trkpt><trkpt lat="43.4819467" lon="12.756629"><ele>681.0</ele><time>2026-03-08T10:33:25.929Z</time></trkpt><trkpt lat="43.4818707" lon="12.7566439"><ele>682.0</ele><time>2026-03-08T10:33:26.93Z</time></trkpt><trkpt lat="43.4817829" lon="12.7566621"><ele>682.0</ele><time>2026-03-08T10:33:27.929Z</time></trkpt><trkpt lat="43.481689" lon="12.756701"><ele>682.0</ele><time>2026-03-08T10:33:28.929Z</time></trkpt><trkpt lat="43.4816078" lon="12.7567382"><ele>682.0</ele><time>2026-03-08T10:33:29.929Z</time></trkpt><trkpt lat="43.4815389" lon="12.7567695"><ele>682.0</ele><time>2026-03-08T10:33:30.929Z</time></trkpt><trkpt lat="43.481434" lon="12.7567648"><ele>682.0</ele><time>2026-03-08T10:33:32.929Z</time></trkpt><trkpt lat="43.4814041" lon="12.7566336"><ele>682.0</ele><time>2026-03-08T10:33:34.929Z</time></trkpt><trkpt lat="43.4814082" lon="12.7564605"><ele>682.0</ele><time>2026-03-08T10:33:36.929Z</time></trkpt><trkpt lat="43.481411" lon="12.7563642"><ele>682.0</ele><time>2026-03-08T10:33:37.929Z</time></trkpt><trkpt lat="43.4814167" lon="12.7562609"><ele>682.0</ele><time>2026-03-08T10:33:38.928Z</time></trkpt><trkpt lat="43.4814199" lon="12.7561569"><ele>682.0</ele><time>2026-03-08T10:33:39.928Z</time></trkpt><trkpt lat="43.4814294" lon="12.7560448"><ele>682.0</ele><time>2026-03-08T10:33:40.93Z</time></trkpt><trkpt lat="43.4814465" lon="12.7559323"><ele>684.3333333333334</ele><time>2026-03-08T10:33:41.93Z</time></trkpt><trkpt lat="43.4814616" lon="12.7558269"><ele>686.6666666666667</ele><time>2026-03-08T10:33:42.929Z</time></trkpt><trkpt lat="43.4814867" lon="12.7557128"><ele>689.0</ele><time>2026-03-08T10:33:43.929Z</time></trkpt><trkpt lat="43.4815112" lon="12.7556028"><ele>691.3333333333334</ele><time>2026-03-08T10:33:44.929Z</time></trkpt><trkpt lat="43.481523" lon="12.755488"><ele>693.6666666666666</ele><time>2026-03-08T10:33:45.929Z</time></trkpt><trkpt lat="43.4815279" lon="12.7553715"><ele>696.0</ele><time>2026-03-08T10:33:46.929Z</time></trkpt><trkpt lat="43.4815344" lon="12.7552528"><ele>697.5999999999999</ele><time>2026-03-08T10:33:47.93Z</time></trkpt><trkpt lat="43.4815424" lon="12.7551304"><ele>699.2</ele><time>2026-03-08T10:33:48.931Z</time></trkpt><trkpt lat="43.4815536" lon="12.7549998"><ele>700.8</ele><time>2026-03-08T10:33:49.929Z</time></trkpt><trkpt lat="43.4815653" lon="12.7548678"><ele>702.4000000000001</ele><time>2026-03-08T10:33:50.929Z</time></trkpt><trkpt lat="43.4815819" lon="12.7547337"><ele>704.0</ele><time>2026-03-08T10:33:51.93Z</time></trkpt><trkpt lat="43.4815996" lon="12.754601"><ele>704.0</ele><time>2026-03-08T10:33:52.929Z</time></trkpt><trkpt lat="43.4816335" lon="12.7544804"><ele>704.0</ele><time>2026-03-08T10:33:53.929Z</time></trkpt><trkpt lat="43.4816594" lon="12.7543794"><ele>704.0</ele><time>2026-03-08T10:33:54.931Z</time></trkpt><trkpt lat="43.4816965" lon="12.7542545"><ele>704.0</ele><time>2026-03-08T10:33:55.929Z</time></trkpt><trkpt lat="43.4817184" lon="12.7541303"><ele>704.0</ele><time>2026-03-08T10:33:56.929Z</time></trkpt><trkpt lat="43.4817308" lon="12.7539947"><ele>705.4000000000001</ele><time>2026-03-08T10:33:57.929Z</time></trkpt><trkpt lat="43.4817318" lon="12.753864"><ele>706.8</ele><time>2026-03-08T10:33:58.929Z</time></trkpt><trkpt lat="43.4817235" lon="12.7537408"><ele>708.2</ele><time>2026-03-08T10:33:59.929Z</time></trkpt><trkpt lat="43.481709" lon="12.7536127"><ele>709.5999999999999</ele><time>2026-03-08T10:34:00.93Z</time></trkpt><trkpt lat="43.4816941" lon="12.7534842"><ele>711.0</ele><time>2026-03-08T10:34:01.929Z</time></trkpt><trkpt lat="43.4816678" lon="12.753356"><ele>714.4</ele><time>2026-03-08T10:34:02.929Z</time></trkpt><trkpt lat="43.4816466" lon="12.7532276"><ele>717.8</ele><time>2026-03-08T10:34:03.928Z</time></trkpt><trkpt lat="43.4816291" lon="12.7530889"><ele>721.1999999999999</ele><time>2026-03-08T10:34:04.929Z</time></trkpt><trkpt lat="43.4816196" lon="12.7529607"><ele>724.5999999999999</ele><time>2026-03-08T10:34:05.929Z</time></trkpt><trkpt lat="43.4816146" lon="12.7528254"><ele>728.0</ele><time>2026-03-08T10:34:06.93Z</time></trkpt><trkpt lat="43.4816208" lon="12.7526934"><ele>730.4</ele><time>2026-03-08T10:34:07.929Z</time></trkpt><trkpt lat="43.4816326" lon="12.7525578"><ele>732.8</ele><time>2026-03-08T10:34:08.929Z</time></trkpt><trkpt lat="43.4816436" lon="12.7524271"><ele>735.2</ele><time>2026-03-08T10:34:09.928Z</time></trkpt><trkpt lat="43.4816452" lon="12.7522954"><ele>737.6</ele><time>2026-03-08T10:34:10.929Z</time></trkpt><trkpt lat="43.4816508" lon="12.7521516"><ele>740.0</ele><time>2026-03-08T10:34:11.929Z</time></trkpt><trkpt lat="43.4816354" lon="12.7520212"><ele>740.0</ele><time>2026-03-08T10:34:12.929Z</time></trkpt><trkpt lat="43.4816072" lon="12.7518847"><ele>740.0</ele><time>2026-03-08T10:34:13.929Z</time></trkpt><trkpt lat="43.4815785" lon="12.7517508"><ele>740.0</ele><time>2026-03-08T10:34:14.929Z</time></trkpt><trkpt lat="43.4815401" lon="12.7516211"><ele>740.0</ele><time>2026-03-08T10:34:15.929Z</time></trkpt><trkpt lat="43.481492" lon="12.7514598"><ele>740.0</ele><time>2026-03-08T10:34:16.929Z</time></trkpt><trkpt lat="43.4814347" lon="12.7513365"><ele>743.2</ele><time>2026-03-08T10:34:17.928Z</time></trkpt><trkpt lat="43.4813758" lon="12.7512231"><ele>746.4</ele><time>2026-03-08T10:34:18.929Z</time></trkpt><trkpt lat="43.4812974" lon="12.7511152"><ele>749.5999999999999</ele><time>2026-03-08T10:34:19.929Z</time></trkpt><trkpt lat="43.4812181" lon="12.751007"><ele>752.8</ele><time>2026-03-08T10:34:20.929Z</time></trkpt><trkpt lat="43.481117" lon="12.7509628"><ele>756.0</ele><time>2026-03-08T10:34:21.929Z</time></trkpt><trkpt lat="43.4810125" lon="12.7509349"><ele>757.1999999999999</ele><time>2026-03-08T10:34:22.93Z</time></trkpt><trkpt lat="43.4808981" lon="12.7509512"><ele>758.4</ele><time>2026-03-08T10:34:23.929Z</time></trkpt><trkpt lat="43.4807983" lon="12.7509679"><ele>759.6</ele><time>2026-03-08T10:34:24.929Z</time></trkpt><trkpt lat="43.4807102" lon="12.751011"><ele>760.8</ele><time>2026-03-08T10:34:25.929Z</time></trkpt><trkpt lat="43.480623" lon="12.7510692"><ele>762.0</ele><time>2026-03-08T10:34:26.929Z</time></trkpt><trkpt lat="43.4805432" lon="12.7511531"><ele>761.6</ele><time>2026-03-08T10:34:27.929Z</time></trkpt><trkpt lat="43.4804935" lon="12.7512879"><ele>761.2</ele><time>2026-03-08T10:34:28.929Z</time></trkpt><trkpt lat="43.4804215" lon="12.7513788"><ele>760.8</ele><time>2026-03-08T10:34:29.929Z</time></trkpt><trkpt lat="43.4803478" lon="12.7514837"><ele>760.4</ele><time>2026-03-08T10:34:30.928Z</time></trkpt><trkpt lat="43.4802538" lon="12.751593"><ele>760.0</ele><time>2026-03-08T10:34:31.929Z</time></trkpt><trkpt lat="43.4801715" lon="12.7517111"><ele>760.0</ele><time>2026-03-08T10:34:32.929Z</time></trkpt><trkpt lat="43.4800753" lon="12.7518505"><ele>760.0</ele><time>2026-03-08T10:34:33.93Z</time></trkpt><trkpt lat="43.4799742" lon="12.751952"><ele>760.0</ele><time>2026-03-08T10:34:34.929Z</time></trkpt><trkpt lat="43.4798824" lon="12.7520439"><ele>760.0</ele><time>2026-03-08T10:34:35.93Z</time></trkpt><trkpt lat="43.4797823" lon="12.7521236"><ele>761.5</ele><time>2026-03-08T10:34:36.929Z</time></trkpt><trkpt lat="43.4796667" lon="12.7522019"><ele>763.0</ele><time>2026-03-08T10:34:37.93Z</time></trkpt><trkpt lat="43.4795634" lon="12.7522758"><ele>764.5</ele><time>2026-03-08T10:34:38.929Z</time></trkpt><trkpt lat="43.4794703" lon="12.7523471"><ele>766.0</ele><time>2026-03-08T10:34:39.929Z</time></trkpt><trkpt lat="43.4793836" lon="12.7524139"><ele>766.0</ele><time>2026-03-08T10:34:40.93Z</time></trkpt><trkpt lat="43.4793114" lon="12.7524618"><ele>766.0</ele><time>2026-03-08T10:34:41.93Z</time></trkpt><trkpt lat="43.4792106" lon="12.7524844"><ele>766.0</ele><time>2026-03-08T10:34:43.929Z</time></trkpt><trkpt lat="43.479203" lon="12.7523874"><ele>766.0</ele><time>2026-03-08T10:34:45.929Z</time></trkpt><trkpt lat="43.4792666" lon="12.7522528"><ele>766.0</ele><time>2026-03-08T10:34:47.929Z</time></trkpt><trkpt lat="43.4793075" lon="12.7521611"><ele>766.0</ele><time>2026-03-08T10:34:48.929Z</time></trkpt><trkpt lat="43.4793549" lon="12.7520668"><ele>766.0</ele><time>2026-03-08T10:34:49.929Z</time></trkpt><trkpt lat="43.4794062" lon="12.751956"><ele>766.0</ele><time>2026-03-08T10:34:50.929Z</time></trkpt><trkpt lat="43.4794698" lon="12.751836"><ele>766.0</ele><time>2026-03-08T10:34:51.929Z</time></trkpt><trkpt lat="43.4795326" lon="12.7517138"><ele>766.0</ele><time>2026-03-08T10:34:52.929Z</time></trkpt><trkpt lat="43.4795998" lon="12.7515967"><ele>766.0</ele><time>2026-03-08T10:34:53.929Z</time></trkpt><trkpt lat="43.4796625" lon="12.7514681"><ele>764.8</ele><time>2026-03-08T10:34:54.928Z</time></trkpt><trkpt lat="43.4797272" lon="12.751343"><ele>763.5999999999999</ele><time>2026-03-08T10:34:55.928Z</time></trkpt><trkpt lat="43.4797882" lon="12.7512331"><ele>762.4</ele><time>2026-03-08T10:34:56.929Z</time></trkpt><trkpt lat="43.4798453" lon="12.7511354"><ele>761.2</ele><time>2026-03-08T10:34:57.928Z</time></trkpt><trkpt lat="43.4798967" lon="12.7510522"><ele>760.0</ele><time>2026-03-08T10:34:58.929Z</time></trkpt><trkpt lat="43.4799333" lon="12.7509704"><ele>760.0</ele><time>2026-03-08T10:34:59.929Z</time></trkpt><trkpt lat="43.4799133" lon="12.7508456"><ele>760.0</ele><time>2026-03-08T10:35:01.929Z</time></trkpt><trkpt lat="43.4798171" lon="12.7508603"><ele>760.0</ele><time>2026-03-08T10:35:03.93Z</time></trkpt><trkpt lat="43.4797639" lon="12.7509077"><ele>760.0</ele><time>2026-03-08T10:35:04.93Z</time></trkpt><trkpt lat="43.4797063" lon="12.7509771"><ele>760.0</ele><time>2026-03-08T10:35:05.929Z</time></trkpt><trkpt lat="43.4796486" lon="12.7510474"><ele>760.0</ele><time>2026-03-08T10:35:06.928Z</time></trkpt><trkpt lat="43.4795807" lon="12.7511339"><ele>764.0</ele><time>2026-03-08T10:35:07.929Z</time></trkpt><trkpt lat="43.4795085" lon="12.7512185"><ele>768.0</ele><time>2026-03-08T10:35:08.929Z</time></trkpt><trkpt lat="43.4794349" lon="12.7512941"><ele>772.0</ele><time>2026-03-08T10:35:09.929Z</time></trkpt><trkpt lat="43.4793681" lon="12.7513617"><ele>776.0</ele><time>2026-03-08T10:35:10.929Z</time></trkpt><trkpt lat="43.4793086" lon="12.7514268"><ele>779.9999999999999</ele><time>2026-03-08T10:35:11.928Z</time></trkpt><trkpt lat="43.4792127" lon="12.7514488"><ele>784.0</ele><time>2026-03-08T10:35:13.929Z</time></trkpt><trkpt lat="43.4792029" lon="12.7513373"><ele>784.0</ele><time>2026-03-08T10:35:15.93Z</time></trkpt><trkpt lat="43.4792701" lon="12.751181"><ele>784.0</ele><time>2026-03-08T10:35:17.928Z</time></trkpt><trkpt lat="43.4793134" lon="12.7510898"><ele>784.0</ele><time>2026-03-08T10:35:18.929Z</time></trkpt><trkpt lat="43.4793613" lon="12.7509902"><ele>784.0</ele><time>2026-03-08T10:35:19.93Z</time></trkpt><trkpt lat="43.4794319" lon="12.7508808"><ele>784.0</ele><time>2026-03-08T10:35:20.929Z</time></trkpt><trkpt lat="43.4795122" lon="12.7507671"><ele>783.25</ele><time>2026-03-08T10:35:21.929Z</time></trkpt><trkpt lat="43.4796024" lon="12.7506506"><ele>782.5</ele><time>2026-03-08T10:35:22.93Z</time></trkpt><trkpt lat="43.4796933" lon="12.7505316"><ele>781.75</ele><time>2026-03-08T10:35:23.929Z</time></trkpt><trkpt lat="43.4797692" lon="12.7504413"><ele>781.0</ele><time>2026-03-08T10:35:24.929Z</time></trkpt><trkpt lat="43.4798383" lon="12.7503371"><ele>781.0</ele><time>2026-03-08T10:35:25.93Z</time></trkpt><trkpt lat="43.4798999" lon="12.7502264"><ele>781.0</ele><time>2026-03-08T10:35:26.93Z</time></trkpt><trkpt lat="43.4799418" lon="12.7501098"><ele>781.0</ele><time>2026-03-08T10:35:27.929Z</time></trkpt><trkpt lat="43.4799796" lon="12.7499798"><ele>781.0</ele><time>2026-03-08T10:35:28.929Z</time></trkpt><trkpt lat="43.4800168" lon="12.7498581"><ele>781.0</ele><time>2026-03-08T10:35:29.929Z</time></trkpt><trkpt lat="43.4800338" lon="12.7497238"><ele>783.8</ele><time>2026-03-08T10:35:30.929Z</time></trkpt><trkpt lat="43.4800451" lon="12.7495872"><ele>786.5999999999999</ele><time>2026-03-08T10:35:31.93Z</time></trkpt><trkpt lat="43.4800426" lon="12.749445"><ele>789.4</ele><time>2026-03-08T10:35:32.929Z</time></trkpt><trkpt lat="43.4800457" lon="12.7492978"><ele>792.2</ele><time>2026-03-08T10:35:33.93Z</time></trkpt><trkpt lat="43.4800574" lon="12.7491519"><ele>795.0</ele><time>2026-03-08T10:35:34.93Z</time></trkpt><trkpt lat="43.4800754" lon="12.7490085"><ele>796.3333333333334</ele><time>2026-03-08T10:35:35.93Z</time></trkpt><trkpt lat="43.4800947" lon="12.7488813"><ele>797.6666666666667</ele><time>2026-03-08T10:35:36.928Z</time></trkpt><trkpt lat="43.4801322" lon="12.7487799"><ele>799.0</ele><time>2026-03-08T10:35:37.93Z</time></trkpt><trkpt lat="43.4801922" lon="12.7487198"><ele>800.3333333333334</ele><time>2026-03-08T10:35:38.929Z</time></trkpt><trkpt lat="43.4802766" lon="12.7486881"><ele>801.6666666666667</ele><time>2026-03-08T10:35:39.929Z</time></trkpt><trkpt lat="43.4803677" lon="12.7486711"><ele>803.0</ele><time>2026-03-08T10:35:40.929Z</time></trkpt><trkpt lat="43.4804714" lon="12.7486732"><ele>803.0</ele><time>2026-03-08T10:35:41.929Z</time></trkpt><trkpt lat="43.4805824" lon="12.7486706"><ele>803.0</ele><time>2026-03-08T10:35:42.928Z</time></trkpt><trkpt lat="43.4806952" lon="12.7486928"><ele>803.0</ele><time>2026-03-08T10:35:43.929Z</time></trkpt><trkpt lat="43.4808206" lon="12.7487404"><ele>803.0</ele><time>2026-03-08T10:35:44.929Z</time></trkpt><trkpt lat="43.4809536" lon="12.7487987"><ele>803.0</ele><time>2026-03-08T10:35:45.929Z</time></trkpt><trkpt lat="43.4810948" lon="12.7488635"><ele>803.0</ele><time>2026-03-08T10:35:46.929Z</time></trkpt><trkpt lat="43.4812279" lon="12.7489308"><ele>803.0</ele><time>2026-03-08T10:35:47.929Z</time></trkpt><trkpt lat="43.4813524" lon="12.7490037"><ele>803.0</ele><time>2026-03-08T10:35:48.928Z</time></trkpt><trkpt lat="43.481472" lon="12.7490816"><ele>805.25</ele><time>2026-03-08T10:35:49.929Z</time></trkpt><trkpt lat="43.4815842" lon="12.7491703"><ele>807.5</ele><time>2026-03-08T10:35:50.929Z</time></trkpt><trkpt lat="43.4816945" lon="12.7492321"><ele>809.75</ele><time>2026-03-08T10:35:51.929Z</time></trkpt><trkpt lat="43.4818075" lon="12.7492802"><ele>812.0</ele><time>2026-03-08T10:35:52.929Z</time></trkpt><trkpt lat="43.4819039" lon="12.7493357"><ele>812.0</ele><time>2026-03-08T10:35:53.929Z</time></trkpt><trkpt lat="43.4819922" lon="12.7494059"><ele>812.0</ele><time>2026-03-08T10:35:54.929Z</time></trkpt><trkpt lat="43.4820704" lon="12.7495025"><ele>812.0</ele><time>2026-03-08T10:35:55.929Z</time></trkpt><trkpt lat="43.4821565" lon="12.7495975"><ele>812.0</ele><time>2026-03-08T10:35:56.93Z</time></trkpt><trkpt lat="43.4822311" lon="12.749699"><ele>812.0</ele><time>2026-03-08T10:35:57.929Z</time></trkpt><trkpt lat="43.4823093" lon="12.7497869"><ele>812.0</ele><time>2026-03-08T10:35:58.929Z</time></trkpt><trkpt lat="43.4823872" lon="12.7498613"><ele>812.0</ele><time>2026-03-08T10:35:59.928Z</time></trkpt><trkpt lat="43.4824753" lon="12.749925"><ele>812.0</ele><time>2026-03-08T10:36:00.929Z</time></trkpt><trkpt lat="43.4825615" lon="12.7499825"><ele>812.0</ele><time>2026-03-08T10:36:01.929Z</time></trkpt><trkpt lat="43.48264" lon="12.7500561"><ele>812.0</ele><time>2026-03-08T10:36:02.929Z</time></trkpt><trkpt lat="43.4827193" lon="12.7501559"><ele>811.6</ele><time>2026-03-08T10:36:03.929Z</time></trkpt><trkpt lat="43.4827918" lon="12.7502548"><ele>811.2</ele><time>2026-03-08T10:36:04.929Z</time></trkpt><trkpt lat="43.4828537" lon="12.7503685"><ele>810.8</ele><time>2026-03-08T10:36:05.93Z</time></trkpt><trkpt lat="43.4829215" lon="12.7504805"><ele>810.4</ele><time>2026-03-08T10:36:06.93Z</time></trkpt><trkpt lat="43.4829749" lon="12.7505871"><ele>810.0</ele><time>2026-03-08T10:36:07.929Z</time></trkpt><trkpt lat="43.4830116" lon="12.7506765"><ele>807.0</ele><time>2026-03-08T10:36:08.929Z</time></trkpt><trkpt lat="43.48303" lon="12.7507623"><ele>804.0</ele><time>2026-03-08T10:36:09.929Z</time></trkpt><trkpt lat="43.4830755" lon="12.7508782"><ele>801.0</ele><time>2026-03-08T10:36:11.929Z</time></trkpt><trkpt lat="43.4831487" lon="12.7508542"><ele>798.0</ele><time>2026-03-08T10:36:14.929Z</time></trkpt><trkpt lat="43.4831665" lon="12.7507291"><ele>795.0</ele><time>2026-03-08T10:36:17.93Z</time></trkpt><trkpt lat="43.4831863" lon="12.7505792"><ele>792.0</ele><time>2026-03-08T10:36:19.929Z</time></trkpt><trkpt lat="43.4832099" lon="12.7504102"><ele>792.0</ele><time>2026-03-08T10:36:21.929Z</time></trkpt><trkpt lat="43.4832374" lon="12.7502458"><ele>792.0</ele><time>2026-03-08T10:36:23.929Z</time></trkpt><trkpt lat="43.4832686" lon="12.7500835"><ele>792.0</ele><time>2026-03-08T10:36:25.93Z</time></trkpt><trkpt lat="43.4832981" lon="12.7499175"><ele>792.0</ele><time>2026-03-08T10:36:27.93Z</time></trkpt><trkpt lat="43.4833054" lon="12.7498243"><ele>792.0</ele><time>2026-03-08T10:36:28.929Z</time></trkpt><trkpt lat="43.4833161" lon="12.7497228"><ele>791.6666666666666</ele><time>2026-03-08T10:36:29.929Z</time></trkpt><trkpt lat="43.483316" lon="12.7496143"><ele>791.3333333333333</ele><time>2026-03-08T10:36:30.929Z</time></trkpt><trkpt lat="43.4833087" lon="12.7494969"><ele>791.0</ele><time>2026-03-08T10:36:31.929Z</time></trkpt><trkpt lat="43.4832965" lon="12.7493772"><ele>790.6666666666666</ele><time>2026-03-08T10:36:32.929Z</time></trkpt><trkpt lat="43.4832797" lon="12.7492467"><ele>790.3333333333333</ele><time>2026-03-08T10:36:33.929Z</time></trkpt><trkpt lat="43.4832583" lon="12.7491238"><ele>790.0</ele><time>2026-03-08T10:36:34.928Z</time></trkpt><trkpt lat="43.4832415" lon="12.7490302"><ele>789.6666666666666</ele><time>2026-03-08T10:36:35.929Z</time></trkpt><trkpt lat="43.4832322" lon="12.7488868"><ele>789.3333333333333</ele><time>2026-03-08T10:36:37.929Z</time></trkpt><trkpt lat="43.4832757" lon="12.7487518"><ele>789.0</ele><time>2026-03-08T10:36:39.929Z</time></trkpt><trkpt lat="43.4833048" lon="12.7486583"><ele>788.6666666666667</ele><time>2026-03-08T10:36:40.93Z</time></trkpt><trkpt lat="43.4833196" lon="12.7485521"><ele>788.3333333333334</ele><time>2026-03-08T10:36:41.929Z</time></trkpt><trkpt lat="43.4833169" lon="12.7484363"><ele>788.0</ele><time>2026-03-08T10:36:42.929Z</time></trkpt><trkpt lat="43.4833039" lon="12.7483137"><ele>787.5999999999999</ele><time>2026-03-08T10:36:43.929Z</time></trkpt><trkpt lat="43.4832807" lon="12.7481988"><ele>787.1999999999999</ele><time>2026-03-08T10:36:44.929Z</time></trkpt><trkpt lat="43.4832418" lon="12.7480702"><ele>786.8</ele><time>2026-03-08T10:36:45.931Z</time></trkpt><trkpt lat="43.4832199" lon="12.7479463"><ele>786.4</ele><time>2026-03-08T10:36:46.929Z</time></trkpt><trkpt lat="43.4832049" lon="12.7478058"><ele>786.0</ele><time>2026-03-08T10:36:47.929Z</time></trkpt><trkpt lat="43.4831878" lon="12.7476578"><ele>785.5999999999999</ele><time>2026-03-08T10:36:48.93Z</time></trkpt><trkpt lat="43.4831606" lon="12.7475163"><ele>785.2</ele><time>2026-03-08T10:36:49.929Z</time></trkpt><trkpt lat="43.4831195" lon="12.7473816"><ele>784.8</ele><time>2026-03-08T10:36:50.93Z</time></trkpt><trkpt lat="43.4830732" lon="12.7472611"><ele>784.4000000000001</ele><time>2026-03-08T10:36:51.929Z</time></trkpt><trkpt lat="43.483031" lon="12.7471433"><ele>784.0</ele><time>2026-03-08T10:36:52.93Z</time></trkpt><trkpt lat="43.4829809" lon="12.7470301"><ele>783.9999999999999</ele><time>2026-03-08T10:36:53.929Z</time></trkpt><trkpt lat="43.4829322" lon="12.746929"><ele>784.0</ele><time>2026-03-08T10:36:54.929Z</time></trkpt><trkpt lat="43.4828836" lon="12.7468256"><ele>784.0</ele><time>2026-03-08T10:36:55.929Z</time></trkpt><trkpt lat="43.4828418" lon="12.7467224"><ele>784.0</ele><time>2026-03-08T10:36:56.93Z</time></trkpt><trkpt lat="43.4828041" lon="12.7466173"><ele>783.9999999999999</ele><time>2026-03-08T10:36:57.93Z</time></trkpt><trkpt lat="43.4827643" lon="12.7465159"><ele>784.0</ele><time>2026-03-08T10:36:58.928Z</time></trkpt><trkpt lat="43.4827296" lon="12.746418"><ele>784.3333333333333</ele><time>2026-03-08T10:36:59.929Z</time></trkpt><trkpt lat="43.4826983" lon="12.7463217"><ele>784.6666666666666</ele><time>2026-03-08T10:37:00.928Z</time></trkpt><trkpt lat="43.4826865" lon="12.7462308"><ele>785.0</ele><time>2026-03-08T10:37:01.929Z</time></trkpt><trkpt lat="43.4827318" lon="12.7460846"><ele>785.3333333333333</ele><time>2026-03-08T10:37:03.929Z</time></trkpt><trkpt lat="43.4827848" lon="12.7460205"><ele>785.6666666666666</ele><time>2026-03-08T10:37:04.929Z</time></trkpt><trkpt lat="43.4828419" lon="12.7459485"><ele>786.0</ele><time>2026-03-08T10:37:05.93Z</time></trkpt><trkpt lat="43.4829048" lon="12.7458698"><ele>787.0</ele><time>2026-03-08T10:37:06.929Z</time></trkpt><trkpt lat="43.4829668" lon="12.745788"><ele>788.0</ele><time>2026-03-08T10:37:07.928Z</time></trkpt><trkpt lat="43.4830247" lon="12.7457044"><ele>789.0</ele><time>2026-03-08T10:37:08.929Z</time></trkpt><trkpt lat="43.4830835" lon="12.7456185"><ele>790.0</ele><time>2026-03-08T10:37:09.928Z</time></trkpt><trkpt lat="43.4831452" lon="12.7455251"><ele>791.0</ele><time>2026-03-08T10:37:10.929Z</time></trkpt><trkpt lat="43.4832126" lon="12.7454344"><ele>792.0</ele><time>2026-03-08T10:37:11.929Z</time></trkpt><trkpt lat="43.4832806" lon="12.7453472"><ele>792.0</ele><time>2026-03-08T10:37:12.929Z</time></trkpt><trkpt lat="43.4833522" lon="12.7452515"><ele>792.0</ele><time>2026-03-08T10:37:13.929Z</time></trkpt><trkpt lat="43.4834371" lon="12.7451475"><ele>792.0</ele><time>2026-03-08T10:37:14.929Z</time></trkpt><trkpt lat="43.4835041" lon="12.7450515"><ele>792.0</ele><time>2026-03-08T10:37:15.929Z</time></trkpt><trkpt lat="43.4835558" lon="12.7449611"><ele>792.0</ele><time>2026-03-08T10:37:16.929Z</time></trkpt><trkpt lat="43.4835946" lon="12.7448505"><ele>793.0</ele><time>2026-03-08T10:37:17.929Z</time></trkpt><trkpt lat="43.4836369" lon="12.7447399"><ele>794.0</ele><time>2026-03-08T10:37:18.929Z</time></trkpt><trkpt lat="43.4836717" lon="12.7446175"><ele>795.0</ele><time>2026-03-08T10:37:19.929Z</time></trkpt><trkpt lat="43.4837167" lon="12.744495"><ele>796.0</ele><time>2026-03-08T10:37:20.93Z</time></trkpt><trkpt lat="43.483774" lon="12.7443907"><ele>797.0</ele><time>2026-03-08T10:37:21.929Z</time></trkpt><trkpt lat="43.4838348" lon="12.7442816"><ele>797.0</ele><time>2026-03-08T10:37:22.929Z</time></trkpt><trkpt lat="43.4838992" lon="12.7441743"><ele>797.0</ele><time>2026-03-08T10:37:23.929Z</time></trkpt><trkpt lat="43.4839705" lon="12.7440663"><ele>797.0</ele><time>2026-03-08T10:37:24.929Z</time></trkpt><trkpt lat="43.4840467" lon="12.7439678"><ele>797.0</ele><time>2026-03-08T10:37:25.929Z</time></trkpt><trkpt lat="43.4841243" lon="12.7438708"><ele>797.0</ele><time>2026-03-08T10:37:26.929Z</time></trkpt><trkpt lat="43.4842031" lon="12.7437691"><ele>797.0</ele><time>2026-03-08T10:37:27.929Z</time></trkpt><trkpt lat="43.4842773" lon="12.7436674"><ele>797.0</ele><time>2026-03-08T10:37:28.93Z</time></trkpt><trkpt lat="43.4843647" lon="12.7435708"><ele>797.0</ele><time>2026-03-08T10:37:29.929Z</time></trkpt><trkpt lat="43.4844574" lon="12.743455"><ele>797.0</ele><time>2026-03-08T10:37:30.929Z</time></trkpt><trkpt lat="43.4845381" lon="12.7433607"><ele>797.0</ele><time>2026-03-08T10:37:31.929Z</time></trkpt><trkpt lat="43.4846208" lon="12.7432696"><ele>797.2</ele><time>2026-03-08T10:37:32.928Z</time></trkpt><trkpt lat="43.4846998" lon="12.7431823"><ele>797.4000000000001</ele><time>2026-03-08T10:37:33.929Z</time></trkpt><trkpt lat="43.4847741" lon="12.7430931"><ele>797.5999999999999</ele><time>2026-03-08T10:37:34.929Z</time></trkpt><trkpt lat="43.4848547" lon="12.7430308"><ele>797.8</ele><time>2026-03-08T10:37:35.929Z</time></trkpt><trkpt lat="43.4849498" lon="12.7429761"><ele>798.0</ele><time>2026-03-08T10:37:36.929Z</time></trkpt><trkpt lat="43.4850442" lon="12.7429426"><ele>798.0</ele><time>2026-03-08T10:37:37.929Z</time></trkpt><trkpt lat="43.4851276" lon="12.742911"><ele>798.0</ele><time>2026-03-08T10:37:38.928Z</time></trkpt><trkpt lat="43.4852022" lon="12.7428691"><ele>798.0</ele><time>2026-03-08T10:37:39.929Z</time></trkpt><trkpt lat="43.4852764" lon="12.7428058"><ele>798.0</ele><time>2026-03-08T10:37:40.929Z</time></trkpt><trkpt lat="43.4853393" lon="12.7427341"><ele>798.0</ele><time>2026-03-08T10:37:41.928Z</time></trkpt><trkpt lat="43.4853947" lon="12.7426505"><ele>798.0</ele><time>2026-03-08T10:37:42.928Z</time></trkpt><trkpt lat="43.4854446" lon="12.7425615"><ele>797.8333333333334</ele><time>2026-03-08T10:37:43.929Z</time></trkpt><trkpt lat="43.4854939" lon="12.7424616"><ele>797.6666666666667</ele><time>2026-03-08T10:37:44.929Z</time></trkpt><trkpt lat="43.4855268" lon="12.7423614"><ele>797.5</ele><time>2026-03-08T10:37:45.929Z</time></trkpt><trkpt lat="43.4855381" lon="12.7422576"><ele>797.3333333333334</ele><time>2026-03-08T10:37:46.93Z</time></trkpt><trkpt lat="43.4855352" lon="12.7421523"><ele>797.1666666666667</ele><time>2026-03-08T10:37:47.929Z</time></trkpt><trkpt lat="43.4855283" lon="12.7420413"><ele>797.0</ele><time>2026-03-08T10:37:48.93Z</time></trkpt><trkpt lat="43.4855143" lon="12.7419343"><ele>798.8333333333334</ele><time>2026-03-08T10:37:49.928Z</time></trkpt><trkpt lat="43.4854978" lon="12.7418407"><ele>800.6666666666667</ele><time>2026-03-08T10:37:50.929Z</time></trkpt><trkpt lat="43.4854587" lon="12.7417128"><ele>802.5</ele><time>2026-03-08T10:37:52.929Z</time></trkpt><trkpt lat="43.4854184" lon="12.7416036"><ele>804.3333333333333</ele><time>2026-03-08T10:37:54.928Z</time></trkpt><trkpt lat="43.4854024" lon="12.7414896"><ele>806.1666666666666</ele><time>2026-03-08T10:37:56.929Z</time></trkpt><trkpt lat="43.4854027" lon="12.7413866"><ele>808.0</ele><time>2026-03-08T10:38:02.929Z</time></trkpt><trkpt lat="43.4854458" lon="12.7413027"><ele>808.0</ele><time>2026-03-08T10:38:04.929Z</time></trkpt><trkpt lat="43.4854996" lon="12.7412412"><ele>808.0</ele><time>2026-03-08T10:38:05.929Z</time></trkpt><trkpt lat="43.4855698" lon="12.7411741"><ele>808.0</ele><time>2026-03-08T10:38:06.929Z</time></trkpt><trkpt lat="43.4856544" lon="12.7411046"><ele>808.0</ele><time>2026-03-08T10:38:07.93Z</time></trkpt><trkpt lat="43.4857508" lon="12.7410184"><ele>808.0</ele><time>2026-03-08T10:38:08.929Z</time></trkpt><trkpt lat="43.4858546" lon="12.7409241"><ele>808.0</ele><time>2026-03-08T10:38:09.93Z</time></trkpt><trkpt lat="43.48596" lon="12.7408187"><ele>808.0</ele><time>2026-03-08T10:38:10.93Z</time></trkpt><trkpt lat="43.4860712" lon="12.7407113"><ele>808.0</ele><time>2026-03-08T10:38:11.929Z</time></trkpt><trkpt lat="43.486186" lon="12.7406112"><ele>808.0</ele><time>2026-03-08T10:38:12.928Z</time></trkpt><trkpt lat="43.4863077" lon="12.7405246"><ele>808.0</ele><time>2026-03-08T10:38:13.929Z</time></trkpt><trkpt lat="43.486433" lon="12.740441"><ele>808.0</ele><time>2026-03-08T10:38:14.929Z</time></trkpt><trkpt lat="43.4865628" lon="12.7403706"><ele>808.0</ele><time>2026-03-08T10:38:15.93Z</time></trkpt><trkpt lat="43.4866973" lon="12.7403112"><ele>808.0</ele><time>2026-03-08T10:38:16.929Z</time></trkpt><trkpt lat="43.4868319" lon="12.7402654"><ele>808.0</ele><time>2026-03-08T10:38:17.929Z</time></trkpt><trkpt lat="43.4869685" lon="12.7402314"><ele>808.0</ele><time>2026-03-08T10:38:18.929Z</time></trkpt><trkpt lat="43.4870878" lon="12.7401951"><ele>808.0</ele><time>2026-03-08T10:38:19.929Z</time></trkpt><trkpt lat="43.4871726" lon="12.7401666"><ele>808.0</ele><time>2026-03-08T10:38:20.929Z</time></trkpt><trkpt lat="43.4872334" lon="12.7401264"><ele>808.0</ele><time>2026-03-08T10:38:21.929Z</time></trkpt><trkpt lat="43.4872864" lon="12.7400064"><ele>809.8</ele><time>2026-03-08T10:38:23.93Z</time></trkpt><trkpt lat="43.4872666" lon="12.7398264"><ele>811.5999999999999</ele><time>2026-03-08T10:38:25.928Z</time></trkpt><trkpt lat="43.4872446" lon="12.739724"><ele>813.4000000000001</ele><time>2026-03-08T10:38:26.929Z</time></trkpt><trkpt lat="43.4872085" lon="12.7396098"><ele>815.2</ele><time>2026-03-08T10:38:27.929Z</time></trkpt><trkpt lat="43.4871776" lon="12.7394868"><ele>817.0</ele><time>2026-03-08T10:38:28.929Z</time></trkpt><trkpt lat="43.4871524" lon="12.7393699"><ele>818.8</ele><time>2026-03-08T10:38:29.928Z</time></trkpt><trkpt lat="43.4871254" lon="12.7392413"><ele>820.6</ele><time>2026-03-08T10:38:30.93Z</time></trkpt><trkpt lat="43.4871034" lon="12.739111"><ele>822.4</ele><time>2026-03-08T10:38:31.93Z</time></trkpt><trkpt lat="43.4871311" lon="12.7389912"><ele>824.1999999999999</ele><time>2026-03-08T10:38:32.929Z</time></trkpt><trkpt lat="43.4871773" lon="12.7388765"><ele>826.0</ele><time>2026-03-08T10:38:33.929Z</time></trkpt><trkpt lat="43.4872462" lon="12.7387838"><ele>826.0</ele><time>2026-03-08T10:38:34.928Z</time></trkpt><trkpt lat="43.4873388" lon="12.7387008"><ele>826.0</ele><time>2026-03-08T10:38:35.929Z</time></trkpt><trkpt lat="43.4874469" lon="12.7386515"><ele>826.0</ele><time>2026-03-08T10:38:36.929Z</time></trkpt><trkpt lat="43.4875529" lon="12.7386024"><ele>826.0</ele><time>2026-03-08T10:38:37.929Z</time></trkpt><trkpt lat="43.4876598" lon="12.7385357"><ele>826.8</ele><time>2026-03-08T10:38:38.928Z</time></trkpt><trkpt lat="43.487769" lon="12.7384659"><ele>827.5999999999999</ele><time>2026-03-08T10:38:39.929Z</time></trkpt><trkpt lat="43.4878686" lon="12.7383923"><ele>828.4</ele><time>2026-03-08T10:38:40.929Z</time></trkpt><trkpt lat="43.4879622" lon="12.7383034"><ele>829.2</ele><time>2026-03-08T10:38:41.928Z</time></trkpt><trkpt lat="43.4880465" lon="12.7382279"><ele>830.0</ele><time>2026-03-08T10:38:42.928Z</time></trkpt><trkpt lat="43.4881396" lon="12.7381597"><ele>830.0000000000001</ele><time>2026-03-08T10:38:43.929Z</time></trkpt><trkpt lat="43.4882262" lon="12.7381086"><ele>830.0</ele><time>2026-03-08T10:38:44.93Z</time></trkpt><trkpt lat="43.4883119" lon="12.738093"><ele>830.0</ele><time>2026-03-08T10:38:45.929Z</time></trkpt><trkpt lat="43.4883865" lon="12.7380889"><ele>830.0</ele><time>2026-03-08T10:38:46.929Z</time></trkpt><trkpt lat="43.4884609" lon="12.7380956"><ele>830.0000000000001</ele><time>2026-03-08T10:38:47.929Z</time></trkpt><trkpt lat="43.4885263" lon="12.7380989"><ele>830.0</ele><time>2026-03-08T10:38:48.929Z</time></trkpt><trkpt lat="43.4885902" lon="12.738098"><ele>830.0000000000001</ele><time>2026-03-08T10:38:49.929Z</time></trkpt><trkpt lat="43.4886799" lon="12.7381091"><ele>830.0</ele><time>2026-03-08T10:38:51.93Z</time></trkpt><trkpt lat="43.488749" lon="12.7381196"><ele>830.0</ele><time>2026-03-08T10:38:53.929Z</time></trkpt><trkpt lat="43.4888421" lon="12.7381139"><ele>830.0</ele><time>2026-03-08T10:39:35.929Z</time></trkpt><trkpt lat="43.4887804" lon="12.7380915"><ele>830.0000000000001</ele><time>2026-03-08T10:39:44.929Z</time></trkpt><trkpt lat="43.4887015" lon="12.7380902"><ele>830.0</ele><time>2026-03-08T10:39:45.929Z</time></trkpt><trkpt lat="43.4886132" lon="12.7380918"><ele>830.0</ele><time>2026-03-08T10:39:46.929Z</time></trkpt><trkpt lat="43.4885105" lon="12.7380977"><ele>830.0</ele><time>2026-03-08T10:39:47.929Z</time></trkpt><trkpt lat="43.4884055" lon="12.738094"><ele>830.0</ele><time>2026-03-08T10:39:48.928Z</time></trkpt><trkpt lat="43.488313" lon="12.7380983"><ele>830.0</ele><time>2026-03-08T10:39:49.928Z</time></trkpt><trkpt lat="43.4882114" lon="12.7381064"><ele>830.0</ele><time>2026-03-08T10:39:50.929Z</time></trkpt><trkpt lat="43.4881273" lon="12.7381477"><ele>830.0000000000001</ele><time>2026-03-08T10:39:51.929Z</time></trkpt><trkpt lat="43.48805" lon="12.7382003"><ele>830.0</ele><time>2026-03-08T10:39:52.929Z</time></trkpt><trkpt lat="43.4879784" lon="12.7382663"><ele>830.0</ele><time>2026-03-08T10:39:53.93Z</time></trkpt><trkpt lat="43.4879148" lon="12.7383365"><ele>830.0</ele><time>2026-03-08T10:39:54.929Z</time></trkpt><trkpt lat="43.4878445" lon="12.7384045"><ele>830.0000000000001</ele><time>2026-03-08T10:39:55.929Z</time></trkpt><trkpt lat="43.4877773" lon="12.7384598"><ele>830.0</ele><time>2026-03-08T10:39:56.93Z</time></trkpt><trkpt lat="43.4877095" lon="12.738511"><ele>829.3333333333334</ele><time>2026-03-08T10:39:57.929Z</time></trkpt><trkpt lat="43.487639" lon="12.7385514"><ele>828.6666666666667</ele><time>2026-03-08T10:39:58.929Z</time></trkpt><trkpt lat="43.4875642" lon="12.7385853"><ele>828.0</ele><time>2026-03-08T10:39:59.929Z</time></trkpt><trkpt lat="43.4874826" lon="12.7386091"><ele>827.3333333333333</ele><time>2026-03-08T10:40:00.929Z</time></trkpt><trkpt lat="43.4874018" lon="12.738627"><ele>826.6666666666666</ele><time>2026-03-08T10:40:01.929Z</time></trkpt><trkpt lat="43.4873277" lon="12.7386602"><ele>826.0</ele><time>2026-03-08T10:40:02.929Z</time></trkpt><trkpt lat="43.4872596" lon="12.7387053"><ele>826.0</ele><time>2026-03-08T10:40:03.929Z</time></trkpt><trkpt lat="43.4872027" lon="12.7387698"><ele>826.0</ele><time>2026-03-08T10:40:04.929Z</time></trkpt><trkpt lat="43.4871517" lon="12.7388347"><ele>826.0</ele><time>2026-03-08T10:40:05.929Z</time></trkpt><trkpt lat="43.4871041" lon="12.7389015"><ele>826.0</ele><time>2026-03-08T10:40:06.928Z</time></trkpt><trkpt lat="43.4870665" lon="12.7389774"><ele>826.0</ele><time>2026-03-08T10:40:07.929Z</time></trkpt><trkpt lat="43.48704" lon="12.7390615"><ele>826.0</ele><time>2026-03-08T10:40:08.93Z</time></trkpt><trkpt lat="43.4870326" lon="12.739156"><ele>826.0</ele><time>2026-03-08T10:40:09.929Z</time></trkpt><trkpt lat="43.4870543" lon="12.7392624"><ele>824.4999999999999</ele><time>2026-03-08T10:40:10.929Z</time></trkpt><trkpt lat="43.4870861" lon="12.7393688"><ele>823.0</ele><time>2026-03-08T10:40:11.929Z</time></trkpt><trkpt lat="43.4871075" lon="12.739468"><ele>821.5</ele><time>2026-03-08T10:40:12.93Z</time></trkpt><trkpt lat="43.4871447" lon="12.7395584"><ele>820.0</ele><time>2026-03-08T10:40:13.929Z</time></trkpt><trkpt lat="43.4871815" lon="12.7396517"><ele>818.4999999999999</ele><time>2026-03-08T10:40:14.929Z</time></trkpt><trkpt lat="43.4872118" lon="12.7397511"><ele>817.0</ele><time>2026-03-08T10:40:15.93Z</time></trkpt><trkpt lat="43.487245" lon="12.739859"><ele>816.9999999999999</ele><time>2026-03-08T10:40:16.93Z</time></trkpt><trkpt lat="43.4872656" lon="12.7399413"><ele>817.0</ele><time>2026-03-08T10:40:17.928Z</time></trkpt><trkpt lat="43.4872777" lon="12.7400708"><ele>817.0</ele><time>2026-03-08T10:40:19.929Z</time></trkpt><trkpt lat="43.4871961" lon="12.740157"><ele>817.0</ele><time>2026-03-08T10:40:21.929Z</time></trkpt><trkpt lat="43.487134" lon="12.7401904"><ele>816.9999999999999</ele><time>2026-03-08T10:40:22.929Z</time></trkpt><trkpt lat="43.487061" lon="12.7402144"><ele>817.0</ele><time>2026-03-08T10:40:23.929Z</time></trkpt><trkpt lat="43.4869882" lon="12.7402277"><ele>815.7142857142857</ele><time>2026-03-08T10:40:24.93Z</time></trkpt><trkpt lat="43.4869252" lon="12.7402483"><ele>814.4285714285714</ele><time>2026-03-08T10:40:25.928Z</time></trkpt><trkpt lat="43.4868556" lon="12.7402607"><ele>813.1428571428571</ele><time>2026-03-08T10:40:26.929Z</time></trkpt><trkpt lat="43.4867863" lon="12.7402819"><ele>811.8571428571429</ele><time>2026-03-08T10:40:27.929Z</time></trkpt><trkpt lat="43.4867122" lon="12.7403095"><ele>810.5714285714286</ele><time>2026-03-08T10:40:28.93Z</time></trkpt><trkpt lat="43.48664" lon="12.740334"><ele>809.2857142857142</ele><time>2026-03-08T10:40:29.929Z</time></trkpt><trkpt lat="43.4865663" lon="12.7403674"><ele>808.0</ele><time>2026-03-08T10:40:30.928Z</time></trkpt><trkpt lat="43.4864837" lon="12.7404093"><ele>807.9999999999999</ele><time>2026-03-08T10:40:31.929Z</time></trkpt><trkpt lat="43.4864027" lon="12.740467"><ele>808.0</ele><time>2026-03-08T10:40:32.929Z</time></trkpt><trkpt lat="43.4863284" lon="12.7405233"><ele>808.0</ele><time>2026-03-08T10:40:33.929Z</time></trkpt><trkpt lat="43.4862605" lon="12.7405642"><ele>808.0</ele><time>2026-03-08T10:40:34.929Z</time></trkpt><trkpt lat="43.4861985" lon="12.7406106"><ele>807.9999999999999</ele><time>2026-03-08T10:40:35.929Z</time></trkpt><trkpt lat="43.4861352" lon="12.7406605"><ele>808.0</ele><time>2026-03-08T10:40:36.929Z</time></trkpt><trkpt lat="43.486069" lon="12.7407129"><ele>807.9999999999999</ele><time>2026-03-08T10:40:37.929Z</time></trkpt><trkpt lat="43.4859986" lon="12.7407754"><ele>808.0</ele><time>2026-03-08T10:40:38.928Z</time></trkpt><trkpt lat="43.4859253" lon="12.7408465"><ele>808.0</ele><time>2026-03-08T10:40:39.929Z</time></trkpt><trkpt lat="43.4858564" lon="12.7409193"><ele>808.0</ele><time>2026-03-08T10:40:40.929Z</time></trkpt><trkpt lat="43.4857853" lon="12.7409815"><ele>807.9999999999999</ele><time>2026-03-08T10:40:41.929Z</time></trkpt><trkpt lat="43.4857196" lon="12.7410398"><ele>808.0</ele><time>2026-03-08T10:40:42.928Z</time></trkpt><trkpt lat="43.485657" lon="12.7410961"><ele>808.0</ele><time>2026-03-08T10:40:43.929Z</time></trkpt><trkpt lat="43.4855989" lon="12.741149"><ele>808.0</ele><time>2026-03-08T10:40:44.928Z</time></trkpt><trkpt lat="43.4855423" lon="12.7412039"><ele>808.0</ele><time>2026-03-08T10:40:45.929Z</time></trkpt><trkpt lat="43.4854907" lon="12.7412541"><ele>808.0</ele><time>2026-03-08T10:40:46.929Z</time></trkpt><trkpt lat="43.4854257" lon="12.741343"><ele>808.0</ele><time>2026-03-08T10:40:48.929Z</time></trkpt><trkpt lat="43.485385" lon="12.7414174"><ele>808.0</ele><time>2026-03-08T10:40:50.929Z</time></trkpt><trkpt lat="43.4853168" lon="12.7414691"><ele>808.0</ele><time>2026-03-08T10:40:53.929Z</time></trkpt><trkpt lat="43.4852578" lon="12.7415174"><ele>810.0</ele><time>2026-03-08T10:40:56.928Z</time></trkpt><trkpt lat="43.485323" lon="12.7415887"><ele>812.0</ele><time>2026-03-08T10:41:26.928Z</time></trkpt><trkpt lat="43.4853747" lon="12.7415118"><ele>814.0</ele><time>2026-03-08T10:41:28.928Z</time></trkpt><trkpt lat="43.4853644" lon="12.7413756"><ele>816.0</ele><time>2026-03-08T10:41:31.93Z</time></trkpt><trkpt lat="43.4853319" lon="12.741235"><ele>818.0</ele><time>2026-03-08T10:41:33.931Z</time></trkpt><trkpt lat="43.4852818" lon="12.7410942"><ele>820.0</ele><time>2026-03-08T10:41:35.929Z</time></trkpt><trkpt lat="43.4851905" lon="12.7410225"><ele>822.0</ele><time>2026-03-08T10:41:37.929Z</time></trkpt><trkpt lat="43.4850695" lon="12.7409604"><ele>824.0</ele><time>2026-03-08T10:41:39.928Z</time></trkpt><trkpt lat="43.4850152" lon="12.7409114"><ele>826.0</ele><time>2026-03-08T10:41:40.928Z</time></trkpt><trkpt lat="43.484961" lon="12.7408594"><ele>828.0</ele><time>2026-03-08T10:41:41.928Z</time></trkpt><trkpt lat="43.4848806" lon="12.7407559"><ele>828.0</ele><time>2026-03-08T10:41:43.929Z</time></trkpt><trkpt lat="43.4848285" lon="12.7406466"><ele>828.0</ele><time>2026-03-08T10:41:45.929Z</time></trkpt><trkpt lat="43.4848198" lon="12.7407753"><ele>828.0</ele><time>2026-03-08T10:41:53.929Z</time></trkpt><trkpt lat="43.4848871" lon="12.7408698"><ele>828.0</ele><time>2026-03-08T10:41:55.929Z</time></trkpt><trkpt lat="43.4849819" lon="12.7409391"><ele>828.0</ele><time>2026-03-08T10:41:57.929Z</time></trkpt><trkpt lat="43.4850939" lon="12.7410206"><ele>826.0</ele><time>2026-03-08T10:41:59.93Z</time></trkpt><trkpt lat="43.4852108" lon="12.741098"><ele>824.0</ele><time>2026-03-08T10:42:01.928Z</time></trkpt><trkpt lat="43.4852678" lon="12.7411469"><ele>822.0</ele><time>2026-03-08T10:42:02.928Z</time></trkpt><trkpt lat="43.4853344" lon="12.7412622"><ele>820.0</ele><time>2026-03-08T10:42:04.929Z</time></trkpt><trkpt lat="43.4853646" lon="12.7413408"><ele>818.0</ele><time>2026-03-08T10:42:05.93Z</time></trkpt><trkpt lat="43.4853839" lon="12.7414745"><ele>818.0000000000001</ele><time>2026-03-08T10:42:07.93Z</time></trkpt><trkpt lat="43.4853451" lon="12.7415449"><ele>818.0</ele><time>2026-03-08T10:42:09.928Z</time></trkpt><trkpt lat="43.4852743" lon="12.7415571"><ele>818.0</ele><time>2026-03-08T10:42:26.93Z</time></trkpt><trkpt lat="43.4851882" lon="12.7416274"><ele>818.0</ele><time>2026-03-08T10:42:29.929Z</time></trkpt><trkpt lat="43.4851266" lon="12.7416812"><ele>818.0000000000001</ele><time>2026-03-08T10:42:31.929Z</time></trkpt><trkpt lat="43.4850589" lon="12.7417371"><ele>818.0</ele><time>2026-03-08T10:42:34.929Z</time></trkpt><trkpt lat="43.4850981" lon="12.7418335"><ele>818.0</ele><time>2026-03-08T10:43:19.929Z</time></trkpt><trkpt lat="43.4852098" lon="12.7417872"><ele>818.0</ele><time>2026-03-08T10:43:21.928Z</time></trkpt><trkpt lat="43.4852693" lon="12.7417116"><ele>818.0</ele><time>2026-03-08T10:43:22.929Z</time></trkpt><trkpt lat="43.4853157" lon="12.741618"><ele>818.0</ele><time>2026-03-08T10:43:23.929Z</time></trkpt><trkpt lat="43.4853537" lon="12.741518"><ele>818.0</ele><time>2026-03-08T10:43:24.929Z</time></trkpt><trkpt lat="43.4853978" lon="12.7414108"><ele>819.4</ele><time>2026-03-08T10:43:25.928Z</time></trkpt><trkpt lat="43.4854522" lon="12.7413056"><ele>820.8</ele><time>2026-03-08T10:43:26.93Z</time></trkpt><trkpt lat="43.4855302" lon="12.741218"><ele>822.2</ele><time>2026-03-08T10:43:27.928Z</time></trkpt><trkpt lat="43.4856173" lon="12.7411461"><ele>823.6</ele><time>2026-03-08T10:43:28.931Z</time></trkpt><trkpt lat="43.4857024" lon="12.7410717"><ele>825.0</ele><time>2026-03-08T10:43:29.929Z</time></trkpt><trkpt lat="43.4857878" lon="12.7409912"><ele>825.0</ele><time>2026-03-08T10:43:30.93Z</time></trkpt><trkpt lat="43.4858758" lon="12.7409076"><ele>825.0</ele><time>2026-03-08T10:43:31.929Z</time></trkpt><trkpt lat="43.4859638" lon="12.7408191"><ele>825.0</ele><time>2026-03-08T10:43:32.928Z</time></trkpt><trkpt lat="43.48605" lon="12.7407331"><ele>825.0</ele><time>2026-03-08T10:43:33.929Z</time></trkpt><trkpt lat="43.4861396" lon="12.7406562"><ele>825.0</ele><time>2026-03-08T10:43:34.93Z</time></trkpt><trkpt lat="43.4862358" lon="12.7405838"><ele>820.75</ele><time>2026-03-08T10:43:35.928Z</time></trkpt><trkpt lat="43.4863334" lon="12.7405083"><ele>816.5</ele><time>2026-03-08T10:43:36.929Z</time></trkpt><trkpt lat="43.4864362" lon="12.7404417"><ele>812.25</ele><time>2026-03-08T10:43:37.93Z</time></trkpt><trkpt lat="43.4865372" lon="12.7403835"><ele>808.0</ele><time>2026-03-08T10:43:38.929Z</time></trkpt><trkpt lat="43.4866474" lon="12.7403339"><ele>808.0</ele><time>2026-03-08T10:43:39.929Z</time></trkpt><trkpt lat="43.4867566" lon="12.7402954"><ele>808.0</ele><time>2026-03-08T10:43:40.929Z</time></trkpt><trkpt lat="43.4868704" lon="12.7402628"><ele>808.0</ele><time>2026-03-08T10:43:41.929Z</time></trkpt><trkpt lat="43.4869863" lon="12.7402309"><ele>808.0</ele><time>2026-03-08T10:43:42.93Z</time></trkpt><trkpt lat="43.4870899" lon="12.740203"><ele>809.8</ele><time>2026-03-08T10:43:43.929Z</time></trkpt><trkpt lat="43.4871728" lon="12.7401755"><ele>811.5999999999999</ele><time>2026-03-08T10:43:44.928Z</time></trkpt><trkpt lat="43.4872342" lon="12.7401354"><ele>813.4000000000001</ele><time>2026-03-08T10:43:45.929Z</time></trkpt><trkpt lat="43.4872883" lon="12.7400216"><ele>815.2</ele><time>2026-03-08T10:43:47.929Z</time></trkpt><trkpt lat="43.4872634" lon="12.7398821"><ele>817.0</ele><time>2026-03-08T10:43:49.928Z</time></trkpt><trkpt lat="43.487233" lon="12.739741"><ele>816.9999999999999</ele><time>2026-03-08T10:43:51.93Z</time></trkpt><trkpt lat="43.487181" lon="12.7395789"><ele>817.0</ele><time>2026-03-08T10:43:53.93Z</time></trkpt><trkpt lat="43.4871522" lon="12.7394936"><ele>817.0</ele><time>2026-03-08T10:43:54.929Z</time></trkpt><trkpt lat="43.4871229" lon="12.7394138"><ele>817.0</ele><time>2026-03-08T10:43:55.928Z</time></trkpt><trkpt lat="43.4870953" lon="12.7393293"><ele>816.9999999999999</ele><time>2026-03-08T10:43:56.929Z</time></trkpt><trkpt lat="43.4870645" lon="12.7391962"><ele>817.0</ele><time>2026-03-08T10:43:57.929Z</time></trkpt><trkpt lat="43.487056" lon="12.7391074"><ele>818.2857142857142</ele><time>2026-03-08T10:43:58.929Z</time></trkpt><trkpt lat="43.4870866" lon="12.7389705"><ele>819.5714285714286</ele><time>2026-03-08T10:44:00.929Z</time></trkpt><trkpt lat="43.4871272" lon="12.7388963"><ele>820.8571428571429</ele><time>2026-03-08T10:44:01.929Z</time></trkpt><trkpt lat="43.4871735" lon="12.7388182"><ele>822.1428571428571</ele><time>2026-03-08T10:44:02.93Z</time></trkpt><trkpt lat="43.4872197" lon="12.738758"><ele>823.4285714285714</ele><time>2026-03-08T10:44:03.929Z</time></trkpt><trkpt lat="43.487273" lon="12.738706"><ele>824.7142857142857</ele><time>2026-03-08T10:44:04.928Z</time></trkpt><trkpt lat="43.487341" lon="12.7386599"><ele>826.0</ele><time>2026-03-08T10:44:05.929Z</time></trkpt><trkpt lat="43.4874112" lon="12.7386198"><ele>826.0</ele><time>2026-03-08T10:44:06.928Z</time></trkpt><trkpt lat="43.4874838" lon="12.7385934"><ele>826.0</ele><time>2026-03-08T10:44:07.929Z</time></trkpt><trkpt lat="43.4875581" lon="12.7385672"><ele>826.0</ele><time>2026-03-08T10:44:08.928Z</time></trkpt><trkpt lat="43.4876184" lon="12.7385413"><ele>826.0</ele><time>2026-03-08T10:44:09.929Z</time></trkpt><trkpt lat="43.4876977" lon="12.7384933"><ele>826.0</ele><time>2026-03-08T10:44:10.93Z</time></trkpt><trkpt lat="43.4877629" lon="12.7384517"><ele>826.0</ele><time>2026-03-08T10:44:11.929Z</time></trkpt><trkpt lat="43.48782" lon="12.7384127"><ele>826.0</ele><time>2026-03-08T10:44:12.93Z</time></trkpt><trkpt lat="43.4878849" lon="12.7383397"><ele>826.6666666666666</ele><time>2026-03-08T10:44:14.929Z</time></trkpt><trkpt lat="43.4879151" lon="12.7382316"><ele>827.3333333333333</ele><time>2026-03-08T10:44:16.929Z</time></trkpt><trkpt lat="43.4879433" lon="12.7381052"><ele>828.0</ele><time>2026-03-08T10:44:18.929Z</time></trkpt><trkpt lat="43.4879195" lon="12.7380154"><ele>828.6666666666667</ele><time>2026-03-08T10:44:20.929Z</time></trkpt><trkpt lat="43.4878434" lon="12.7380154"><ele>829.3333333333334</ele><time>2026-03-08T10:44:22.929Z</time></trkpt><trkpt lat="43.4877452" lon="12.737995"><ele>830.0</ele><time>2026-03-08T10:44:24.929Z</time></trkpt><trkpt lat="43.4876317" lon="12.73804"><ele>833.0</ele><time>2026-03-08T10:44:26.929Z</time></trkpt><trkpt lat="43.4875239" lon="12.738109"><ele>836.0</ele><time>2026-03-08T10:44:28.929Z</time></trkpt><trkpt lat="43.4874196" lon="12.7380878"><ele>839.0</ele><time>2026-03-08T10:44:30.93Z</time></trkpt><trkpt lat="43.4873532" lon="12.7380193"><ele>842.0</ele><time>2026-03-08T10:44:32.929Z</time></trkpt><trkpt lat="43.4873187" lon="12.737899"><ele>845.0</ele><time>2026-03-08T10:44:34.929Z</time></trkpt><trkpt lat="43.4872862" lon="12.7377809"><ele>847.5000000000001</ele><time>2026-03-08T10:44:36.929Z</time></trkpt><trkpt lat="43.4872371" lon="12.7376577"><ele>850.0</ele><time>2026-03-08T10:44:38.929Z</time></trkpt><trkpt lat="43.4872058" lon="12.737582"><ele>852.5</ele><time>2026-03-08T10:44:41.929Z</time></trkpt><trkpt lat="43.4871697" lon="12.7376623"><ele>855.0</ele><time>2026-03-08T10:44:50.929Z</time></trkpt><trkpt lat="43.4871001" lon="12.7376532"><ele>857.5000000000001</ele><time>2026-03-08T10:44:52.929Z</time></trkpt><trkpt lat="43.4870284" lon="12.737552"><ele>860.0</ele><time>2026-03-08T10:44:54.929Z</time></trkpt><trkpt lat="43.4869559" lon="12.7374209"><ele>861.6</ele><time>2026-03-08T10:44:56.929Z</time></trkpt><trkpt lat="43.4868862" lon="12.737282"><ele>863.2</ele><time>2026-03-08T10:44:58.93Z</time></trkpt><trkpt lat="43.4868322" lon="12.7371414"><ele>864.8</ele><time>2026-03-08T10:45:00.928Z</time></trkpt><trkpt lat="43.4867713" lon="12.7369991"><ele>866.4</ele><time>2026-03-08T10:45:02.929Z</time></trkpt><trkpt lat="43.4867335" lon="12.7369285"><ele>868.0</ele><time>2026-03-08T10:45:03.929Z</time></trkpt><trkpt lat="43.4866805" lon="12.7367928"><ele>868.5999999999999</ele><time>2026-03-08T10:45:05.93Z</time></trkpt><trkpt lat="43.4866114" lon="12.7366616"><ele>869.1999999999999</ele><time>2026-03-08T10:45:07.928Z</time></trkpt><trkpt lat="43.4865725" lon="12.7365346"><ele>869.8</ele><time>2026-03-08T10:45:09.929Z</time></trkpt><trkpt lat="43.4865132" lon="12.736429"><ele>870.4</ele><time>2026-03-08T10:45:11.929Z</time></trkpt><trkpt lat="43.4863985" lon="12.7363636"><ele>871.0</ele><time>2026-03-08T10:45:13.929Z</time></trkpt><trkpt lat="43.4863431" lon="12.7363222"><ele>870.9999999999999</ele><time>2026-03-08T10:45:14.929Z</time></trkpt><trkpt lat="43.4862896" lon="12.7362715"><ele>871.0</ele><time>2026-03-08T10:45:15.928Z</time></trkpt><trkpt lat="43.4862276" lon="12.7362298"><ele>871.0</ele><time>2026-03-08T10:45:16.929Z</time></trkpt><trkpt lat="43.4861627" lon="12.7361631"><ele>871.0</ele><time>2026-03-08T10:45:17.929Z</time></trkpt><trkpt lat="43.4860842" lon="12.7360415"><ele>870.9999999999999</ele><time>2026-03-08T10:45:19.929Z</time></trkpt><trkpt lat="43.4860313" lon="12.7359752"><ele>871.0</ele><time>2026-03-08T10:45:20.929Z</time></trkpt><trkpt lat="43.4859862" lon="12.7359084"><ele>873.1999999999999</ele><time>2026-03-08T10:45:21.929Z</time></trkpt><trkpt lat="43.485952" lon="12.7358285"><ele>875.3999999999999</ele><time>2026-03-08T10:45:22.929Z</time></trkpt><trkpt lat="43.485882" lon="12.7357449"><ele>877.6</ele><time>2026-03-08T10:45:23.928Z</time></trkpt><trkpt lat="43.4858361" lon="12.7356544"><ele>879.8</ele><time>2026-03-08T10:45:24.928Z</time></trkpt><trkpt lat="43.4857518" lon="12.7355139"><ele>882.0</ele><time>2026-03-08T10:45:26.928Z</time></trkpt><trkpt lat="43.4856865" lon="12.7354512"><ele>882.0</ele><time>2026-03-08T10:45:27.929Z</time></trkpt><trkpt lat="43.485632" lon="12.7353821"><ele>882.0</ele><time>2026-03-08T10:45:28.929Z</time></trkpt><trkpt lat="43.4855355" lon="12.7352507"><ele>882.0</ele><time>2026-03-08T10:45:29.929Z</time></trkpt><trkpt lat="43.4854624" lon="12.7351382"><ele>882.0</ele><time>2026-03-08T10:45:30.929Z</time></trkpt><trkpt lat="43.4853793" lon="12.7350376"><ele>882.0</ele><time>2026-03-08T10:45:31.93Z</time></trkpt><trkpt lat="43.4853136" lon="12.7348914"><ele>881.5</ele><time>2026-03-08T10:45:33.928Z</time></trkpt><trkpt lat="43.4852424" lon="12.734769"><ele>881.0</ele><time>2026-03-08T10:45:35.929Z</time></trkpt><trkpt lat="43.4851898" lon="12.7346805"><ele>880.5</ele><time>2026-03-08T10:45:36.93Z</time></trkpt><trkpt lat="43.4851439" lon="12.7345897"><ele>880.0</ele><time>2026-03-08T10:45:37.929Z</time></trkpt><trkpt lat="43.4851291" lon="12.7344816"><ele>879.5</ele><time>2026-03-08T10:45:38.93Z</time></trkpt><trkpt lat="43.4850744" lon="12.7343987"><ele>879.0</ele><time>2026-03-08T10:45:39.929Z</time></trkpt><trkpt lat="43.485016" lon="12.7343091"><ele>879.0</ele><time>2026-03-08T10:45:40.93Z</time></trkpt><trkpt lat="43.4849238" lon="12.734227"><ele>879.0</ele><time>2026-03-08T10:45:41.929Z</time></trkpt><trkpt lat="43.4848881" lon="12.7341537"><ele>879.0</ele><time>2026-03-08T10:45:42.93Z</time></trkpt><trkpt lat="43.4848301" lon="12.7340888"><ele>879.0</ele><time>2026-03-08T10:45:43.929Z</time></trkpt><trkpt lat="43.4847702" lon="12.734024"><ele>879.0</ele><time>2026-03-08T10:45:44.929Z</time></trkpt><trkpt lat="43.4847175" lon="12.7339611"><ele>879.0</ele><time>2026-03-08T10:45:45.928Z</time></trkpt><trkpt lat="43.4846638" lon="12.7338908"><ele>878.3333333333334</ele><time>2026-03-08T10:45:46.929Z</time></trkpt><trkpt lat="43.4845913" lon="12.7338017"><ele>877.6666666666667</ele><time>2026-03-08T10:45:47.929Z</time></trkpt><trkpt lat="43.4845373" lon="12.7337217"><ele>877.0</ele><time>2026-03-08T10:45:48.929Z</time></trkpt><trkpt lat="43.4844849" lon="12.7336476"><ele>876.3333333333334</ele><time>2026-03-08T10:45:49.929Z</time></trkpt><trkpt lat="43.4844302" lon="12.7336045"><ele>875.6666666666667</ele><time>2026-03-08T10:45:50.93Z</time></trkpt><trkpt lat="43.4843578" lon="12.733517"><ele>875.0</ele><time>2026-03-08T10:45:51.929Z</time></trkpt><trkpt lat="43.4842744" lon="12.7334404"><ele>875.0000000000001</ele><time>2026-03-08T10:45:52.929Z</time></trkpt><trkpt lat="43.4841943" lon="12.7333744"><ele>875.0</ele><time>2026-03-08T10:45:53.929Z</time></trkpt><trkpt lat="43.4841407" lon="12.7333098"><ele>875.0</ele><time>2026-03-08T10:45:54.929Z</time></trkpt><trkpt lat="43.4840476" lon="12.7331813"><ele>875.0</ele><time>2026-03-08T10:45:56.928Z</time></trkpt><trkpt lat="43.4839884" lon="12.7331186"><ele>875.0000000000001</ele><time>2026-03-08T10:45:57.929Z</time></trkpt><trkpt lat="43.4839312" lon="12.7330772"><ele>875.0</ele><time>2026-03-08T10:45:58.93Z</time></trkpt><trkpt lat="43.4838693" lon="12.7330217"><ele>875.0000000000001</ele><time>2026-03-08T10:45:59.929Z</time></trkpt><trkpt lat="43.4837838" lon="12.7329579"><ele>875.0</ele><time>2026-03-08T10:46:00.929Z</time></trkpt><trkpt lat="43.4837166" lon="12.7328876"><ele>875.0</ele><time>2026-03-08T10:46:01.929Z</time></trkpt><trkpt lat="43.4836241" lon="12.7328043"><ele>875.0</ele><time>2026-03-08T10:46:02.929Z</time></trkpt><trkpt lat="43.4835661" lon="12.7327443"><ele>875.0000000000001</ele><time>2026-03-08T10:46:03.929Z</time></trkpt><trkpt lat="43.4835064" lon="12.7326992"><ele>875.0</ele><time>2026-03-08T10:46:05.93Z</time></trkpt><trkpt lat="43.4834391" lon="12.7326681"><ele>873.8</ele><time>2026-03-08T10:46:06.93Z</time></trkpt><trkpt lat="43.4833232" lon="12.7325252"><ele>872.6</ele><time>2026-03-08T10:46:08.929Z</time></trkpt><trkpt lat="43.4832737" lon="12.7324598"><ele>871.4000000000001</ele><time>2026-03-08T10:46:09.929Z</time></trkpt><trkpt lat="43.4831822" lon="12.7323763"><ele>870.2</ele><time>2026-03-08T10:46:11.928Z</time></trkpt><trkpt lat="43.4831237" lon="12.7323141"><ele>869.0</ele><time>2026-03-08T10:46:12.93Z</time></trkpt><trkpt lat="43.483034" lon="12.7322239"><ele>869.0</ele><time>2026-03-08T10:46:13.929Z</time></trkpt><trkpt lat="43.4829728" lon="12.7321607"><ele>869.0000000000001</ele><time>2026-03-08T10:46:14.93Z</time></trkpt><trkpt lat="43.4828859" lon="12.7320583"><ele>869.0000000000001</ele><time>2026-03-08T10:46:16.929Z</time></trkpt><trkpt lat="43.4828127" lon="12.731975"><ele>869.0</ele><time>2026-03-08T10:46:18.929Z</time></trkpt><trkpt lat="43.4827178" lon="12.7318549"><ele>869.0</ele><time>2026-03-08T10:46:20.929Z</time></trkpt><trkpt lat="43.482638" lon="12.7317615"><ele>870.6</ele><time>2026-03-08T10:46:23.929Z</time></trkpt><trkpt lat="43.4825737" lon="12.7316222"><ele>872.2</ele><time>2026-03-08T10:46:25.929Z</time></trkpt><trkpt lat="43.4825277" lon="12.7314405"><ele>873.8000000000001</ele><time>2026-03-08T10:46:27.929Z</time></trkpt><trkpt lat="43.4825097" lon="12.7313521"><ele>875.4000000000001</ele><time>2026-03-08T10:46:28.929Z</time></trkpt><trkpt lat="43.4824928" lon="12.7312487"><ele>877.0</ele><time>2026-03-08T10:46:29.93Z</time></trkpt><trkpt lat="43.482427" lon="12.731155"><ele>877.0</ele><time>2026-03-08T10:46:31.93Z</time></trkpt><trkpt lat="43.4823707" lon="12.7310697"><ele>877.0</ele><time>2026-03-08T10:46:33.929Z</time></trkpt><trkpt lat="43.4822892" lon="12.7309214"><ele>877.0</ele><time>2026-03-08T10:46:35.928Z</time></trkpt><trkpt lat="43.4822191" lon="12.7308218"><ele>877.0</ele><time>2026-03-08T10:46:37.929Z</time></trkpt><trkpt lat="43.4821722" lon="12.7306965"><ele>877.0</ele><time>2026-03-08T10:46:39.929Z</time></trkpt><trkpt lat="43.4821257" lon="12.7306065"><ele>875.8333333333333</ele><time>2026-03-08T10:46:40.929Z</time></trkpt><trkpt lat="43.4820927" lon="12.7305157"><ele>874.6666666666666</ele><time>2026-03-08T10:46:41.929Z</time></trkpt><trkpt lat="43.4820419" lon="12.730432"><ele>873.5</ele><time>2026-03-08T10:46:42.928Z</time></trkpt><trkpt lat="43.4820035" lon="12.7303476"><ele>872.3333333333333</ele><time>2026-03-08T10:46:43.929Z</time></trkpt><trkpt lat="43.4819627" lon="12.7302695"><ele>871.1666666666666</ele><time>2026-03-08T10:46:44.929Z</time></trkpt><trkpt lat="43.4818983" lon="12.7301523"><ele>870.0</ele><time>2026-03-08T10:46:46.929Z</time></trkpt><trkpt lat="43.4818406" lon="12.7300748"><ele>870.0</ele><time>2026-03-08T10:46:47.93Z</time></trkpt><trkpt lat="43.4817956" lon="12.7300003"><ele>870.0</ele><time>2026-03-08T10:46:48.929Z</time></trkpt><trkpt lat="43.4817408" lon="12.7299167"><ele>870.0</ele><time>2026-03-08T10:46:49.928Z</time></trkpt><trkpt lat="43.4817112" lon="12.7298339"><ele>870.0</ele><time>2026-03-08T10:46:50.929Z</time></trkpt><trkpt lat="43.4816432" lon="12.7296874"><ele>870.0</ele><time>2026-03-08T10:46:52.929Z</time></trkpt><trkpt lat="43.4815847" lon="12.729559"><ele>870.0</ele><time>2026-03-08T10:46:54.929Z</time></trkpt><trkpt lat="43.4815294" lon="12.7294679"><ele>870.0</ele><time>2026-03-08T10:46:56.929Z</time></trkpt><trkpt lat="43.4814698" lon="12.7293776"><ele>870.0</ele><time>2026-03-08T10:46:58.929Z</time></trkpt><trkpt lat="43.4814494" lon="12.7292424"><ele>870.0</ele><time>2026-03-08T10:47:01.928Z</time></trkpt><trkpt lat="43.4814869" lon="12.7291338"><ele>870.0</ele><time>2026-03-08T10:47:04.929Z</time></trkpt><trkpt lat="43.4816036" lon="12.7291127"><ele>866.8</ele><time>2026-03-08T10:49:15.927Z</time></trkpt><trkpt lat="43.4817096" lon="12.729083"><ele>863.6</ele><time>2026-03-08T10:49:17.929Z</time></trkpt><trkpt lat="43.4817634" lon="12.7289814"><ele>860.4000000000001</ele><time>2026-03-08T10:49:19.93Z</time></trkpt><trkpt lat="43.4817188" lon="12.7288797"><ele>857.2</ele><time>2026-03-08T10:49:21.929Z</time></trkpt><trkpt lat="43.481616" lon="12.7288242"><ele>854.0</ele><time>2026-03-08T10:49:23.929Z</time></trkpt><trkpt lat="43.4815229" lon="12.7287817"><ele>854.0000000000001</ele><time>2026-03-08T10:49:25.929Z</time></trkpt><trkpt lat="43.4814451" lon="12.7287294"><ele>854.0</ele><time>2026-03-08T10:49:27.929Z</time></trkpt><trkpt lat="43.4813421" lon="12.7286746"><ele>854.0</ele><time>2026-03-08T10:49:29.928Z</time></trkpt><trkpt lat="43.4812226" lon="12.7286501"><ele>854.0</ele><time>2026-03-08T10:49:31.929Z</time></trkpt><trkpt lat="43.4811594" lon="12.7286482"><ele>854.0000000000001</ele><time>2026-03-08T10:49:32.928Z</time></trkpt><trkpt lat="43.4810929" lon="12.7286408"><ele>854.0</ele><time>2026-03-08T10:49:33.929Z</time></trkpt><trkpt lat="43.4810334" lon="12.7286117"><ele>853.3333333333334</ele><time>2026-03-08T10:49:34.93Z</time></trkpt><trkpt lat="43.4809636" lon="12.7285842"><ele>852.6666666666667</ele><time>2026-03-08T10:49:35.93Z</time></trkpt><trkpt lat="43.4808943" lon="12.7285596"><ele>852.0</ele><time>2026-03-08T10:49:36.929Z</time></trkpt><trkpt lat="43.4808276" lon="12.7285344"><ele>851.3333333333333</ele><time>2026-03-08T10:49:37.93Z</time></trkpt><trkpt lat="43.4807605" lon="12.728525"><ele>850.6666666666666</ele><time>2026-03-08T10:49:38.929Z</time></trkpt><trkpt lat="43.480635" lon="12.7285236"><ele>850.0</ele><time>2026-03-08T10:49:40.929Z</time></trkpt><trkpt lat="43.4805234" lon="12.7285449"><ele>846.8</ele><time>2026-03-08T10:49:42.93Z</time></trkpt><trkpt lat="43.4804277" lon="12.7285852"><ele>843.6</ele><time>2026-03-08T10:49:44.929Z</time></trkpt><trkpt lat="43.4803343" lon="12.7285944"><ele>840.4000000000001</ele><time>2026-03-08T10:49:46.929Z</time></trkpt><trkpt lat="43.4802479" lon="12.7285903"><ele>837.2</ele><time>2026-03-08T10:49:48.928Z</time></trkpt><trkpt lat="43.480172" lon="12.7286105"><ele>834.0</ele><time>2026-03-08T10:49:51.929Z</time></trkpt><trkpt lat="43.4800658" lon="12.7285998"><ele>834.0</ele><time>2026-03-08T10:49:54.929Z</time></trkpt><trkpt lat="43.4800008" lon="12.7285798"><ele>834.0</ele><time>2026-03-08T10:49:55.929Z</time></trkpt><trkpt lat="43.47992" lon="12.7285598"><ele>834.0</ele><time>2026-03-08T10:49:57.929Z</time></trkpt><trkpt lat="43.4798452" lon="12.7285942"><ele>834.0</ele><time>2026-03-08T10:49:59.93Z</time></trkpt><trkpt lat="43.4797773" lon="12.7286461"><ele>834.0</ele><time>2026-03-08T10:50:13.929Z</time></trkpt><trkpt lat="43.4797274" lon="12.728707"><ele>834.0</ele><time>2026-03-08T10:50:15.93Z</time></trkpt><trkpt lat="43.4796567" lon="12.7288571"><ele>834.0</ele><time>2026-03-08T10:50:17.929Z</time></trkpt><trkpt lat="43.4796197" lon="12.7289535"><ele>834.0</ele><time>2026-03-08T10:50:18.929Z</time></trkpt><trkpt lat="43.4795862" lon="12.7290519"><ele>834.0</ele><time>2026-03-08T10:50:19.93Z</time></trkpt><trkpt lat="43.4795569" lon="12.7291451"><ele>834.0</ele><time>2026-03-08T10:50:20.929Z</time></trkpt><trkpt lat="43.4795332" lon="12.7293048"><ele>834.0</ele><time>2026-03-08T10:50:22.929Z</time></trkpt><trkpt lat="43.4795032" lon="12.7294356"><ele>831.4000000000001</ele><time>2026-03-08T10:50:24.93Z</time></trkpt><trkpt lat="43.4794307" lon="12.7294908"><ele>828.8</ele><time>2026-03-08T10:50:26.929Z</time></trkpt><trkpt lat="43.4793464" lon="12.729453"><ele>826.2</ele><time>2026-03-08T10:50:28.929Z</time></trkpt><trkpt lat="43.4792691" lon="12.7293445"><ele>823.5999999999999</ele><time>2026-03-08T10:50:30.928Z</time></trkpt><trkpt lat="43.4791782" lon="12.7291875"><ele>821.0</ele><time>2026-03-08T10:50:32.93Z</time></trkpt><trkpt lat="43.4791716" lon="12.7290451"><ele>821.0</ele><time>2026-03-08T10:50:33.929Z</time></trkpt><trkpt lat="43.4790888" lon="12.7289717"><ele>821.0</ele><time>2026-03-08T10:50:34.928Z</time></trkpt><trkpt lat="43.4789947" lon="12.7289165"><ele>821.0</ele><time>2026-03-08T10:50:36.928Z</time></trkpt><trkpt lat="43.4789037" lon="12.7288959"><ele>821.0</ele><time>2026-03-08T10:50:38.929Z</time></trkpt><trkpt lat="43.4788247" lon="12.7289017"><ele>821.0</ele><time>2026-03-08T10:50:39.929Z</time></trkpt><trkpt lat="43.4787439" lon="12.7288914"><ele>818.6666666666667</ele><time>2026-03-08T10:50:40.929Z</time></trkpt><trkpt lat="43.4786596" lon="12.7288634"><ele>816.3333333333334</ele><time>2026-03-08T10:50:41.93Z</time></trkpt><trkpt lat="43.4785806" lon="12.7288159"><ele>814.0</ele><time>2026-03-08T10:50:42.93Z</time></trkpt><trkpt lat="43.478495" lon="12.728768"><ele>811.6666666666667</ele><time>2026-03-08T10:50:43.93Z</time></trkpt><trkpt lat="43.4784474" lon="12.7286899"><ele>809.3333333333334</ele><time>2026-03-08T10:50:44.928Z</time></trkpt><trkpt lat="43.4783756" lon="12.7286308"><ele>807.0</ele><time>2026-03-08T10:50:45.929Z</time></trkpt><trkpt lat="43.4783451" lon="12.7285279"><ele>807.0</ele><time>2026-03-08T10:50:46.929Z</time></trkpt><trkpt lat="43.4782941" lon="12.7284266"><ele>807.0</ele><time>2026-03-08T10:50:47.929Z</time></trkpt><trkpt lat="43.4782495" lon="12.7283193"><ele>807.0</ele><time>2026-03-08T10:50:48.929Z</time></trkpt><trkpt lat="43.4782087" lon="12.7282102"><ele>807.0</ele><time>2026-03-08T10:50:49.929Z</time></trkpt><trkpt lat="43.478167" lon="12.7280848"><ele>807.0</ele><time>2026-03-08T10:50:50.928Z</time></trkpt><trkpt lat="43.4781488" lon="12.7279603"><ele>807.0</ele><time>2026-03-08T10:50:51.93Z</time></trkpt><trkpt lat="43.4781259" lon="12.7278448"><ele>807.0</ele><time>2026-03-08T10:50:52.93Z</time></trkpt><trkpt lat="43.4780933" lon="12.727698"><ele>807.0</ele><time>2026-03-08T10:50:54.929Z</time></trkpt><trkpt lat="43.4779712" lon="12.7276064"><ele>807.0</ele><time>2026-03-08T10:50:56.929Z</time></trkpt><trkpt lat="43.477897" lon="12.7275752"><ele>807.0</ele><time>2026-03-08T10:50:57.93Z</time></trkpt><trkpt lat="43.4778205" lon="12.7275572"><ele>802.6</ele><time>2026-03-08T10:50:58.929Z</time></trkpt><trkpt lat="43.477732" lon="12.7275384"><ele>798.2</ele><time>2026-03-08T10:50:59.929Z</time></trkpt><trkpt lat="43.4776432" lon="12.7275331"><ele>793.8</ele><time>2026-03-08T10:51:00.93Z</time></trkpt><trkpt lat="43.4775516" lon="12.727514"><ele>789.4</ele><time>2026-03-08T10:51:01.929Z</time></trkpt><trkpt lat="43.477443" lon="12.7274802"><ele>785.0</ele><time>2026-03-08T10:51:02.929Z</time></trkpt><trkpt lat="43.4773326" lon="12.7274728"><ele>785.0</ele><time>2026-03-08T10:51:03.93Z</time></trkpt><trkpt lat="43.4772422" lon="12.7274797"><ele>785.0</ele><time>2026-03-08T10:51:04.93Z</time></trkpt><trkpt lat="43.4771371" lon="12.7274947"><ele>785.0</ele><time>2026-03-08T10:51:05.929Z</time></trkpt><trkpt lat="43.4770321" lon="12.7275182"><ele>785.0</ele><time>2026-03-08T10:51:06.93Z</time></trkpt><trkpt lat="43.4769338" lon="12.7275339"><ele>785.0</ele><time>2026-03-08T10:51:07.929Z</time></trkpt><trkpt lat="43.4768357" lon="12.7275617"><ele>783.1666666666667</ele><time>2026-03-08T10:51:08.929Z</time></trkpt><trkpt lat="43.476746" lon="12.7275997"><ele>781.3333333333334</ele><time>2026-03-08T10:51:09.929Z</time></trkpt><trkpt lat="43.476654" lon="12.7276276"><ele>779.5</ele><time>2026-03-08T10:51:10.929Z</time></trkpt><trkpt lat="43.4765708" lon="12.7276678"><ele>777.6666666666667</ele><time>2026-03-08T10:51:11.929Z</time></trkpt><trkpt lat="43.4764915" lon="12.7277142"><ele>775.8333333333334</ele><time>2026-03-08T10:51:12.929Z</time></trkpt><trkpt lat="43.476419" lon="12.7277677"><ele>774.0</ele><time>2026-03-08T10:51:13.929Z</time></trkpt><trkpt lat="43.4763158" lon="12.7278289"><ele>779.0</ele><time>2026-03-08T10:51:14.929Z</time></trkpt><trkpt lat="43.4762463" lon="12.7278741"><ele>784.0</ele><time>2026-03-08T10:51:15.929Z</time></trkpt><trkpt lat="43.4761595" lon="12.7279052"><ele>789.0</ele><time>2026-03-08T10:51:16.928Z</time></trkpt><trkpt lat="43.4760688" lon="12.7279204"><ele>794.0</ele><time>2026-03-08T10:51:17.93Z</time></trkpt><trkpt lat="43.4759935" lon="12.7279148"><ele>799.0</ele><time>2026-03-08T10:51:18.928Z</time></trkpt><trkpt lat="43.4759239" lon="12.7278999"><ele>804.0</ele><time>2026-03-08T10:51:19.929Z</time></trkpt><trkpt lat="43.4758679" lon="12.7278502"><ele>804.0</ele><time>2026-03-08T10:51:21.929Z</time></trkpt><trkpt lat="43.4759505" lon="12.7278452"><ele>804.0</ele><time>2026-03-08T10:51:24.93Z</time></trkpt><trkpt lat="43.4760143" lon="12.7278304"><ele>804.0</ele><time>2026-03-08T10:51:25.928Z</time></trkpt><trkpt lat="43.4760866" lon="12.7278155"><ele>804.0</ele><time>2026-03-08T10:51:26.928Z</time></trkpt><trkpt lat="43.476154" lon="12.7277676"><ele>804.0</ele><time>2026-03-08T10:51:27.928Z</time></trkpt><trkpt lat="43.4762273" lon="12.7277119"><ele>804.0</ele><time>2026-03-08T10:51:28.929Z</time></trkpt><trkpt lat="43.4762932" lon="12.7276524"><ele>798.0</ele><time>2026-03-08T10:51:29.93Z</time></trkpt><trkpt lat="43.4763572" lon="12.7275872"><ele>792.0</ele><time>2026-03-08T10:51:30.929Z</time></trkpt><trkpt lat="43.4764134" lon="12.7275332"><ele>786.0</ele><time>2026-03-08T10:51:31.929Z</time></trkpt><trkpt lat="43.4765094" lon="12.7274394"><ele>780.0</ele><time>2026-03-08T10:51:33.93Z</time></trkpt><trkpt lat="43.4766076" lon="12.7273608"><ele>774.0</ele><time>2026-03-08T10:51:35.928Z</time></trkpt><trkpt lat="43.4767145" lon="12.7272936"><ele>774.0</ele><time>2026-03-08T10:51:37.928Z</time></trkpt><trkpt lat="43.4767841" lon="12.7272618"><ele>774.0</ele><time>2026-03-08T10:51:39.929Z</time></trkpt><trkpt lat="43.4767159" lon="12.7272709"><ele>774.0</ele><time>2026-03-08T10:51:44.929Z</time></trkpt><trkpt lat="43.4766163" lon="12.7273485"><ele>774.0</ele><time>2026-03-08T10:51:46.929Z</time></trkpt><trkpt lat="43.4765215" lon="12.7274026"><ele>774.0</ele><time>2026-03-08T10:51:47.928Z</time></trkpt><trkpt lat="43.4764561" lon="12.7274601"><ele>774.0</ele><time>2026-03-08T10:51:48.928Z</time></trkpt><trkpt lat="43.4763784" lon="12.7275338"><ele>774.0</ele><time>2026-03-08T10:51:49.929Z</time></trkpt><trkpt lat="43.4763105" lon="12.7276199"><ele>774.0</ele><time>2026-03-08T10:51:50.928Z</time></trkpt><trkpt lat="43.4762293" lon="12.7277064"><ele>774.0</ele><time>2026-03-08T10:51:51.929Z</time></trkpt><trkpt lat="43.4761342" lon="12.7277687"><ele>774.0</ele><time>2026-03-08T10:51:52.928Z</time></trkpt><trkpt lat="43.4760189" lon="12.7278158"><ele>774.0</ele><time>2026-03-08T10:51:53.93Z</time></trkpt><trkpt lat="43.4759093" lon="12.7278158"><ele>775.0</ele><time>2026-03-08T10:51:54.929Z</time></trkpt><trkpt lat="43.475811" lon="12.7277815"><ele>776.0</ele><time>2026-03-08T10:51:55.929Z</time></trkpt><trkpt lat="43.4757297" lon="12.7277435"><ele>777.0</ele><time>2026-03-08T10:51:56.929Z</time></trkpt><trkpt lat="43.4756507" lon="12.7276999"><ele>778.0</ele><time>2026-03-08T10:51:57.929Z</time></trkpt><trkpt lat="43.4755695" lon="12.7276506"><ele>779.0</ele><time>2026-03-08T10:51:59.929Z</time></trkpt><trkpt lat="43.4755055" lon="12.7275968"><ele>780.0</ele><time>2026-03-08T10:55:56.929Z</time></trkpt><trkpt lat="43.4755748" lon="12.7276734"><ele>784.8</ele><time>2026-03-08T10:55:59.929Z</time></trkpt><trkpt lat="43.475738" lon="12.7277316"><ele>789.6</ele><time>2026-03-08T10:56:01.929Z</time></trkpt><trkpt lat="43.4758167" lon="12.7277756"><ele>794.4000000000001</ele><time>2026-03-08T10:56:02.929Z</time></trkpt><trkpt lat="43.4758828" lon="12.7278064"><ele>799.2</ele><time>2026-03-08T10:56:03.929Z</time></trkpt><trkpt lat="43.4759692" lon="12.7278067"><ele>804.0</ele><time>2026-03-08T10:56:04.929Z</time></trkpt><trkpt lat="43.47607" lon="12.7278168"><ele>804.0</ele><time>2026-03-08T10:56:05.929Z</time></trkpt><trkpt lat="43.4761477" lon="12.7277751"><ele>804.0</ele><time>2026-03-08T10:56:06.929Z</time></trkpt><trkpt lat="43.476232" lon="12.7276894"><ele>804.0</ele><time>2026-03-08T10:56:07.929Z</time></trkpt><trkpt lat="43.476294" lon="12.7276472"><ele>804.0</ele><time>2026-03-08T10:56:08.929Z</time></trkpt><trkpt lat="43.4763562" lon="12.7275811"><ele>804.0</ele><time>2026-03-08T10:56:09.929Z</time></trkpt><trkpt lat="43.476178" lon="12.7276766"><ele>798.0</ele><time>2026-03-08T10:56:22.93Z</time></trkpt><trkpt lat="43.476077" lon="12.7277071"><ele>792.0</ele><time>2026-03-08T10:56:23.929Z</time></trkpt><trkpt lat="43.4759661" lon="12.7277124"><ele>786.0</ele><time>2026-03-08T10:56:24.929Z</time></trkpt><trkpt lat="43.4758034" lon="12.7276527"><ele>780.0</ele><time>2026-03-08T10:56:26.929Z</time></trkpt><trkpt lat="43.4756953" lon="12.7276713"><ele>780.0</ele><time>2026-03-08T10:56:27.929Z</time></trkpt><trkpt lat="43.4755782" lon="12.7276623"><ele>780.0</ele><time>2026-03-08T10:56:28.93Z</time></trkpt><trkpt lat="43.4754911" lon="12.7276306"><ele>780.0</ele><time>2026-03-08T10:56:29.93Z</time></trkpt><trkpt lat="43.4753986" lon="12.727589"><ele>780.0</ele><time>2026-03-08T10:56:30.929Z</time></trkpt><trkpt lat="43.4753107" lon="12.7275314"><ele>780.0</ele><time>2026-03-08T10:56:31.929Z</time></trkpt><trkpt lat="43.4752468" lon="12.7274567"><ele>777.75</ele><time>2026-03-08T10:56:32.929Z</time></trkpt><trkpt lat="43.4751854" lon="12.7273082"><ele>775.5</ele><time>2026-03-08T10:56:33.93Z</time></trkpt><trkpt lat="43.4751093" lon="12.7271851"><ele>773.25</ele><time>2026-03-08T10:56:34.929Z</time></trkpt><trkpt lat="43.4750162" lon="12.7270647"><ele>771.0</ele><time>2026-03-08T10:56:35.93Z</time></trkpt><trkpt lat="43.4749225" lon="12.7269687"><ele>771.0</ele><time>2026-03-08T10:56:36.93Z</time></trkpt><trkpt lat="43.4748366" lon="12.7269166"><ele>771.0</ele><time>2026-03-08T10:56:37.929Z</time></trkpt><trkpt lat="43.4747155" lon="12.7268365"><ele>771.0</ele><time>2026-03-08T10:56:38.929Z</time></trkpt><trkpt lat="43.4746367" lon="12.7268297"><ele>771.0</ele><time>2026-03-08T10:56:39.93Z</time></trkpt><trkpt lat="43.4744952" lon="12.7268105"><ele>771.0</ele><time>2026-03-08T10:56:40.929Z</time></trkpt><trkpt lat="43.4743229" lon="12.7267603"><ele>775.6666666666667</ele><time>2026-03-08T10:56:41.93Z</time></trkpt><trkpt lat="43.4741762" lon="12.7267825"><ele>780.3333333333334</ele><time>2026-03-08T10:56:42.93Z</time></trkpt><trkpt lat="43.4739694" lon="12.7268057"><ele>785.0</ele><time>2026-03-08T10:56:43.929Z</time></trkpt><trkpt lat="43.4738196" lon="12.7268526"><ele>778.75</ele><time>2026-03-08T10:56:44.929Z</time></trkpt><trkpt lat="43.4737021" lon="12.7268794"><ele>772.5</ele><time>2026-03-08T10:56:45.93Z</time></trkpt><trkpt lat="43.4735747" lon="12.7268424"><ele>766.25</ele><time>2026-03-08T10:56:46.929Z</time></trkpt><trkpt lat="43.4734669" lon="12.7268237"><ele>760.0</ele><time>2026-03-08T10:56:47.929Z</time></trkpt><trkpt lat="43.4732921" lon="12.7268682"><ele>760.0</ele><time>2026-03-08T10:56:48.929Z</time></trkpt><trkpt lat="43.4732268" lon="12.7268408"><ele>760.0</ele><time>2026-03-08T10:56:49.93Z</time></trkpt><trkpt lat="43.4731503" lon="12.7268439"><ele>760.0</ele><time>2026-03-08T10:56:50.93Z</time></trkpt><trkpt lat="43.473108" lon="12.7267681"><ele>760.0</ele><time>2026-03-08T10:56:51.93Z</time></trkpt><trkpt lat="43.4730807" lon="12.7265439"><ele>760.0</ele><time>2026-03-08T10:56:53.929Z</time></trkpt><trkpt lat="43.4730834" lon="12.726413"><ele>760.0</ele><time>2026-03-08T10:56:54.93Z</time></trkpt><trkpt lat="43.4730739" lon="12.7262454"><ele>760.0</ele><time>2026-03-08T10:56:55.93Z</time></trkpt><trkpt lat="43.4730442" lon="12.726104"><ele>760.0</ele><time>2026-03-08T10:56:56.93Z</time></trkpt><trkpt lat="43.4730448" lon="12.7259345"><ele>760.0</ele><time>2026-03-08T10:56:57.929Z</time></trkpt><trkpt lat="43.4730225" lon="12.7257709"><ele>756.5</ele><time>2026-03-08T10:56:58.93Z</time></trkpt><trkpt lat="43.4730024" lon="12.7255899"><ele>753.0</ele><time>2026-03-08T10:56:59.929Z</time></trkpt><trkpt lat="43.4729774" lon="12.7254321"><ele>749.5</ele><time>2026-03-08T10:57:00.93Z</time></trkpt><trkpt lat="43.4728967" lon="12.7252838"><ele>746.0</ele><time>2026-03-08T10:57:01.929Z</time></trkpt><trkpt lat="43.4728418" lon="12.7251329"><ele>746.0</ele><time>2026-03-08T10:57:02.929Z</time></trkpt><trkpt lat="43.4727421" lon="12.7249921"><ele>746.0</ele><time>2026-03-08T10:57:03.929Z</time></trkpt><trkpt lat="43.4726639" lon="12.7248512"><ele>746.0</ele><time>2026-03-08T10:57:04.929Z</time></trkpt><trkpt lat="43.4725751" lon="12.7247526"><ele>746.0</ele><time>2026-03-08T10:57:05.929Z</time></trkpt><trkpt lat="43.4724732" lon="12.7246728"><ele>746.0</ele><time>2026-03-08T10:57:06.929Z</time></trkpt><trkpt lat="43.4723765" lon="12.7246087"><ele>746.0</ele><time>2026-03-08T10:57:07.931Z</time></trkpt><trkpt lat="43.4722588" lon="12.7245548"><ele>746.0</ele><time>2026-03-08T10:57:08.929Z</time></trkpt><trkpt lat="43.4721278" lon="12.724529"><ele>746.0</ele><time>2026-03-08T10:57:09.93Z</time></trkpt><trkpt lat="43.4719988" lon="12.7245142"><ele>739.0</ele><time>2026-03-08T10:57:10.93Z</time></trkpt><trkpt lat="43.4718759" lon="12.7245246"><ele>732.0</ele><time>2026-03-08T10:57:11.929Z</time></trkpt><trkpt lat="43.4717273" lon="12.7245396"><ele>725.0</ele><time>2026-03-08T10:57:12.93Z</time></trkpt><trkpt lat="43.4716157" lon="12.7245381"><ele>718.0</ele><time>2026-03-08T10:57:13.929Z</time></trkpt><trkpt lat="43.4714973" lon="12.7245388"><ele>718.0</ele><time>2026-03-08T10:57:14.929Z</time></trkpt><trkpt lat="43.4713609" lon="12.72452"><ele>718.0</ele><time>2026-03-08T10:57:15.929Z</time></trkpt><trkpt lat="43.4712299" lon="12.7244838"><ele>718.0</ele><time>2026-03-08T10:57:16.929Z</time></trkpt><trkpt lat="43.4710863" lon="12.7244343"><ele>718.0</ele><time>2026-03-08T10:57:17.929Z</time></trkpt><trkpt lat="43.4709474" lon="12.7243717"><ele>721.0</ele><time>2026-03-08T10:57:18.929Z</time></trkpt><trkpt lat="43.4708193" lon="12.7242806"><ele>724.0</ele><time>2026-03-08T10:57:19.929Z</time></trkpt><trkpt lat="43.4706807" lon="12.7242056"><ele>727.0</ele><time>2026-03-08T10:57:20.929Z</time></trkpt><trkpt lat="43.4705317" lon="12.7241279"><ele>727.0</ele><time>2026-03-08T10:57:21.93Z</time></trkpt><trkpt lat="43.4704204" lon="12.7240709"><ele>727.0</ele><time>2026-03-08T10:57:22.93Z</time></trkpt><trkpt lat="43.4702844" lon="12.7240016"><ele>727.0</ele><time>2026-03-08T10:57:23.929Z</time></trkpt><trkpt lat="43.4702161" lon="12.7239096"><ele>727.0</ele><time>2026-03-08T10:57:24.929Z</time></trkpt><trkpt lat="43.4701215" lon="12.7238466"><ele>727.0</ele><time>2026-03-08T10:57:25.929Z</time></trkpt><trkpt lat="43.4700211" lon="12.7237989"><ele>727.0</ele><time>2026-03-08T10:57:26.929Z</time></trkpt><trkpt lat="43.4699406" lon="12.7238538"><ele>727.0</ele><time>2026-03-08T10:57:27.929Z</time></trkpt><trkpt lat="43.4699002" lon="12.7239275"><ele>727.0</ele><time>2026-03-08T10:57:28.929Z</time></trkpt><trkpt lat="43.4698556" lon="12.7240109"><ele>727.0</ele><time>2026-03-08T10:57:29.929Z</time></trkpt><trkpt lat="43.4698675" lon="12.7241858"><ele>727.0</ele><time>2026-03-08T10:57:31.929Z</time></trkpt><trkpt lat="43.4699174" lon="12.7242967"><ele>727.0</ele><time>2026-03-08T10:57:32.929Z</time></trkpt><trkpt lat="43.4699299" lon="12.7244259"><ele>727.0</ele><time>2026-03-08T10:57:33.93Z</time></trkpt><trkpt lat="43.4699427" lon="12.7245455"><ele>727.0</ele><time>2026-03-08T10:57:34.93Z</time></trkpt><trkpt lat="43.4699644" lon="12.7246796"><ele>727.0</ele><time>2026-03-08T10:57:35.929Z</time></trkpt><trkpt lat="43.4699707" lon="12.7248459"><ele>724.4000000000001</ele><time>2026-03-08T10:57:36.93Z</time></trkpt><trkpt lat="43.4699165" lon="12.7249826"><ele>721.8000000000001</ele><time>2026-03-08T10:57:37.929Z</time></trkpt><trkpt lat="43.4698931" lon="12.7251469"><ele>719.2</ele><time>2026-03-08T10:57:38.929Z</time></trkpt><trkpt lat="43.46987" lon="12.7252908"><ele>716.6</ele><time>2026-03-08T10:57:39.93Z</time></trkpt><trkpt lat="43.469854" lon="12.7254359"><ele>714.0</ele><time>2026-03-08T10:57:40.929Z</time></trkpt><trkpt lat="43.4698361" lon="12.7255328"><ele>715.4000000000001</ele><time>2026-03-08T10:57:41.929Z</time></trkpt><trkpt lat="43.4698023" lon="12.7256406"><ele>716.8</ele><time>2026-03-08T10:57:42.929Z</time></trkpt><trkpt lat="43.4697762" lon="12.7257615"><ele>718.2</ele><time>2026-03-08T10:57:43.929Z</time></trkpt><trkpt lat="43.4696729" lon="12.7258228"><ele>719.5999999999999</ele><time>2026-03-08T10:57:44.929Z</time></trkpt><trkpt lat="43.4695968" lon="12.725921"><ele>721.0</ele><time>2026-03-08T10:57:45.929Z</time></trkpt><trkpt lat="43.46952" lon="12.7259801"><ele>721.0</ele><time>2026-03-08T10:57:46.929Z</time></trkpt><trkpt lat="43.4694565" lon="12.7260405"><ele>721.0</ele><time>2026-03-08T10:57:47.929Z</time></trkpt><trkpt lat="43.4693682" lon="12.7261405"><ele>721.0</ele><time>2026-03-08T10:57:48.929Z</time></trkpt><trkpt lat="43.4693095" lon="12.7262616"><ele>721.0</ele><time>2026-03-08T10:57:49.929Z</time></trkpt><trkpt lat="43.4692511" lon="12.726383"><ele>721.0</ele><time>2026-03-08T10:57:50.929Z</time></trkpt><trkpt lat="43.469198" lon="12.7264673"><ele>715.1999999999999</ele><time>2026-03-08T10:57:51.929Z</time></trkpt><trkpt lat="43.4690875" lon="12.7264684"><ele>709.4</ele><time>2026-03-08T10:57:53.929Z</time></trkpt><trkpt lat="43.4689735" lon="12.7264204"><ele>703.6</ele><time>2026-03-08T10:57:54.929Z</time></trkpt><trkpt lat="43.4689007" lon="12.7263725"><ele>697.8</ele><time>2026-03-08T10:57:55.929Z</time></trkpt><trkpt lat="43.468819" lon="12.7263115"><ele>692.0</ele><time>2026-03-08T10:57:56.929Z</time></trkpt><trkpt lat="43.4686981" lon="12.7262638"><ele>692.0</ele><time>2026-03-08T10:57:57.929Z</time></trkpt><trkpt lat="43.4685682" lon="12.7261754"><ele>692.0</ele><time>2026-03-08T10:57:58.929Z</time></trkpt><trkpt lat="43.4684874" lon="12.7261489"><ele>692.0</ele><time>2026-03-08T10:57:59.929Z</time></trkpt><trkpt lat="43.468384" lon="12.7261239"><ele>692.0</ele><time>2026-03-08T10:58:00.929Z</time></trkpt><trkpt lat="43.468311" lon="12.7261558"><ele>692.0</ele><time>2026-03-08T10:58:01.93Z</time></trkpt><trkpt lat="43.4681846" lon="12.7262247"><ele>692.0</ele><time>2026-03-08T10:58:03.929Z</time></trkpt><trkpt lat="43.4681073" lon="12.7263042"><ele>692.0</ele><time>2026-03-08T10:58:04.929Z</time></trkpt><trkpt lat="43.4680657" lon="12.7263727"><ele>692.0</ele><time>2026-03-08T10:58:05.93Z</time></trkpt><trkpt lat="43.4681945" lon="12.7263213"><ele>692.0</ele><time>2026-03-08T10:58:09.931Z</time></trkpt><trkpt lat="43.4682676" lon="12.7262741"><ele>692.0</ele><time>2026-03-08T10:58:10.929Z</time></trkpt><trkpt lat="43.4683769" lon="12.7262683"><ele>692.0</ele><time>2026-03-08T10:58:12.929Z</time></trkpt><trkpt lat="43.468454" lon="12.7263034"><ele>692.0</ele><time>2026-03-08T10:58:13.929Z</time></trkpt><trkpt lat="43.4686024" lon="12.726364"><ele>692.0</ele><time>2026-03-08T10:58:14.93Z</time></trkpt><trkpt lat="43.468707" lon="12.7264524"><ele>692.0</ele><time>2026-03-08T10:58:15.929Z</time></trkpt><trkpt lat="43.4688316" lon="12.7265413"><ele>690.0</ele><time>2026-03-08T10:58:16.929Z</time></trkpt><trkpt lat="43.4689083" lon="12.726646"><ele>688.0</ele><time>2026-03-08T10:58:17.929Z</time></trkpt><trkpt lat="43.468998" lon="12.7267425"><ele>686.0</ele><time>2026-03-08T10:58:18.93Z</time></trkpt><trkpt lat="43.4691453" lon="12.7268094"><ele>684.0</ele><time>2026-03-08T10:58:20.93Z</time></trkpt><trkpt lat="43.4692447" lon="12.7268375"><ele>684.0</ele><time>2026-03-08T10:58:21.929Z</time></trkpt><trkpt lat="43.4693527" lon="12.7268235"><ele>684.0</ele><time>2026-03-08T10:58:22.93Z</time></trkpt><trkpt lat="43.4694646" lon="12.7268109"><ele>684.0</ele><time>2026-03-08T10:58:23.929Z</time></trkpt><trkpt lat="43.4695802" lon="12.7267688"><ele>684.0</ele><time>2026-03-08T10:58:24.929Z</time></trkpt><trkpt lat="43.4697201" lon="12.7267036"><ele>681.5</ele><time>2026-03-08T10:58:25.929Z</time></trkpt><trkpt lat="43.4698243" lon="12.7266586"><ele>679.0</ele><time>2026-03-08T10:58:26.929Z</time></trkpt><trkpt lat="43.4699261" lon="12.7266047"><ele>676.5</ele><time>2026-03-08T10:58:27.929Z</time></trkpt><trkpt lat="43.4700461" lon="12.7265539"><ele>674.0</ele><time>2026-03-08T10:58:28.929Z</time></trkpt><trkpt lat="43.4701491" lon="12.7264636"><ele>674.0</ele><time>2026-03-08T10:58:29.929Z</time></trkpt><trkpt lat="43.4701928" lon="12.7263761"><ele>674.0</ele><time>2026-03-08T10:58:30.929Z</time></trkpt><trkpt lat="43.4702144" lon="12.7262703"><ele>674.0</ele><time>2026-03-08T10:58:31.929Z</time></trkpt><trkpt lat="43.4702274" lon="12.7261671"><ele>674.0</ele><time>2026-03-08T10:58:32.929Z</time></trkpt><trkpt lat="43.4702327" lon="12.726059"><ele>674.0</ele><time>2026-03-08T10:58:33.929Z</time></trkpt><trkpt lat="43.4702368" lon="12.7259528"><ele>674.0</ele><time>2026-03-08T10:58:34.929Z</time></trkpt><trkpt lat="43.4702484" lon="12.7258602"><ele>674.0</ele><time>2026-03-08T10:58:35.929Z</time></trkpt><trkpt lat="43.4703956" lon="12.7260716"><ele>674.0</ele><time>2026-03-08T10:58:41.929Z</time></trkpt><trkpt lat="43.470403" lon="12.7261946"><ele>674.0</ele><time>2026-03-08T10:58:42.93Z</time></trkpt><trkpt lat="43.47039" lon="12.7262848"><ele>674.0</ele><time>2026-03-08T10:58:43.929Z</time></trkpt><trkpt lat="43.4703755" lon="12.7264349"><ele>674.0</ele><time>2026-03-08T10:58:44.929Z</time></trkpt><trkpt lat="43.4703516" lon="12.7266292"><ele>674.0</ele><time>2026-03-08T10:58:45.929Z</time></trkpt><trkpt lat="43.4702884" lon="12.7268205"><ele>674.0</ele><time>2026-03-08T10:58:46.929Z</time></trkpt><trkpt lat="43.4701999" lon="12.7269381"><ele>674.0</ele><time>2026-03-08T10:58:47.929Z</time></trkpt><trkpt lat="43.4701349" lon="12.7270383"><ele>670.5</ele><time>2026-03-08T10:58:48.929Z</time></trkpt><trkpt lat="43.4700564" lon="12.7271396"><ele>667.0</ele><time>2026-03-08T10:58:49.93Z</time></trkpt><trkpt lat="43.4699742" lon="12.7272219"><ele>663.5</ele><time>2026-03-08T10:58:50.93Z</time></trkpt><trkpt lat="43.4697847" lon="12.727252"><ele>660.0</ele><time>2026-03-08T10:58:51.93Z</time></trkpt><trkpt lat="43.4696471" lon="12.7272969"><ele>659.0</ele><time>2026-03-08T10:58:52.929Z</time></trkpt><trkpt lat="43.4695197" lon="12.7273233"><ele>658.0</ele><time>2026-03-08T10:58:53.929Z</time></trkpt><trkpt lat="43.4693879" lon="12.7273004"><ele>657.0</ele><time>2026-03-08T10:58:54.929Z</time></trkpt><trkpt lat="43.4692595" lon="12.7272968"><ele>656.0</ele><time>2026-03-08T10:58:55.929Z</time></trkpt><trkpt lat="43.469157" lon="12.7272551"><ele>656.0</ele><time>2026-03-08T10:58:56.929Z</time></trkpt><trkpt lat="43.4690418" lon="12.7272245"><ele>656.0</ele><time>2026-03-08T10:58:57.93Z</time></trkpt><trkpt lat="43.4689337" lon="12.7272101"><ele>656.0</ele><time>2026-03-08T10:58:58.929Z</time></trkpt><trkpt lat="43.4688484" lon="12.7272328"><ele>656.0</ele><time>2026-03-08T10:58:59.93Z</time></trkpt><trkpt lat="43.4687865" lon="12.7272787"><ele>656.0</ele><time>2026-03-08T10:59:00.93Z</time></trkpt><trkpt lat="43.4687524" lon="12.7273643"><ele>656.0</ele><time>2026-03-08T10:59:01.929Z</time></trkpt><trkpt lat="43.4687578" lon="12.7274729"><ele>656.0</ele><time>2026-03-08T10:59:02.929Z</time></trkpt><trkpt lat="43.4687469" lon="12.7275653"><ele>656.0</ele><time>2026-03-08T10:59:03.929Z</time></trkpt><trkpt lat="43.4688474" lon="12.7276859"><ele>656.0</ele><time>2026-03-08T10:59:04.93Z</time></trkpt><trkpt lat="43.468949" lon="12.7277693"><ele>656.0</ele><time>2026-03-08T10:59:05.93Z</time></trkpt><trkpt lat="43.4690344" lon="12.7278645"><ele>652.25</ele><time>2026-03-08T10:59:06.929Z</time></trkpt><trkpt lat="43.4691224" lon="12.7279689"><ele>648.5</ele><time>2026-03-08T10:59:07.93Z</time></trkpt><trkpt lat="43.4692171" lon="12.7280775"><ele>644.75</ele><time>2026-03-08T10:59:08.929Z</time></trkpt><trkpt lat="43.4693158" lon="12.7281638"><ele>641.0</ele><time>2026-03-08T10:59:09.929Z</time></trkpt><trkpt lat="43.4693887" lon="12.7282545"><ele>641.0</ele><time>2026-03-08T10:59:10.929Z</time></trkpt><trkpt lat="43.4694906" lon="12.728324"><ele>641.0</ele><time>2026-03-08T10:59:11.929Z</time></trkpt><trkpt lat="43.4695701" lon="12.7283876"><ele>641.0</ele><time>2026-03-08T10:59:12.929Z</time></trkpt><trkpt lat="43.4696202" lon="12.7284842"><ele>641.0</ele><time>2026-03-08T10:59:13.929Z</time></trkpt><trkpt lat="43.4696545" lon="12.7286173"><ele>641.0</ele><time>2026-03-08T10:59:14.929Z</time></trkpt><trkpt lat="43.4696004" lon="12.728677"><ele>641.0</ele><time>2026-03-08T10:59:15.929Z</time></trkpt><trkpt lat="43.469552" lon="12.7287372"><ele>641.0</ele><time>2026-03-08T10:59:16.929Z</time></trkpt><trkpt lat="43.4694652" lon="12.7287174"><ele>641.0</ele><time>2026-03-08T10:59:17.929Z</time></trkpt><trkpt lat="43.4693988" lon="12.7286881"><ele>641.0</ele><time>2026-03-08T10:59:18.93Z</time></trkpt><trkpt lat="43.4693158" lon="12.728612"><ele>641.0</ele><time>2026-03-08T10:59:19.93Z</time></trkpt><trkpt lat="43.4691206" lon="12.7285108"><ele>641.0</ele><time>2026-03-08T10:59:21.929Z</time></trkpt><trkpt lat="43.4690359" lon="12.7285364"><ele>641.0</ele><time>2026-03-08T10:59:22.929Z</time></trkpt><trkpt lat="43.4689694" lon="12.7285323"><ele>641.0</ele><time>2026-03-08T10:59:23.929Z</time></trkpt><trkpt lat="43.4689164" lon="12.728584"><ele>641.0</ele><time>2026-03-08T10:59:24.929Z</time></trkpt><trkpt lat="43.4689428" lon="12.7287096"><ele>641.0</ele><time>2026-03-08T10:59:25.929Z</time></trkpt><trkpt lat="43.4690193" lon="12.72882"><ele>641.0</ele><time>2026-03-08T10:59:27.93Z</time></trkpt><trkpt lat="43.4692725" lon="12.7291312"><ele>637.8</ele><time>2026-03-08T10:59:29.929Z</time></trkpt><trkpt lat="43.4693531" lon="12.7291986"><ele>634.5999999999999</ele><time>2026-03-08T10:59:30.929Z</time></trkpt><trkpt lat="43.4694583" lon="12.7292966"><ele>631.4</ele><time>2026-03-08T10:59:31.929Z</time></trkpt><trkpt lat="43.4695672" lon="12.7293514"><ele>628.2</ele><time>2026-03-08T10:59:32.93Z</time></trkpt><trkpt lat="43.4696659" lon="12.7293016"><ele>625.0</ele><time>2026-03-08T10:59:33.929Z</time></trkpt><trkpt lat="43.4697444" lon="12.7292511"><ele>625.0</ele><time>2026-03-08T10:59:34.929Z</time></trkpt><trkpt lat="43.469809" lon="12.7291766"><ele>625.0</ele><time>2026-03-08T10:59:35.929Z</time></trkpt><trkpt lat="43.4698996" lon="12.729071"><ele>625.0</ele><time>2026-03-08T10:59:36.929Z</time></trkpt><trkpt lat="43.4700613" lon="12.7288427"><ele>625.0</ele><time>2026-03-08T10:59:38.929Z</time></trkpt><trkpt lat="43.4701083" lon="12.7287819"><ele>625.0</ele><time>2026-03-08T10:59:39.929Z</time></trkpt><trkpt lat="43.4701736" lon="12.7287368"><ele>625.0</ele><time>2026-03-08T10:59:40.929Z</time></trkpt><trkpt lat="43.4702544" lon="12.7287553"><ele>625.0</ele><time>2026-03-08T10:59:41.929Z</time></trkpt><trkpt lat="43.4703389" lon="12.7288036"><ele>625.0</ele><time>2026-03-08T10:59:42.93Z</time></trkpt><trkpt lat="43.4703702" lon="12.7289062"><ele>625.0</ele><time>2026-03-08T10:59:43.929Z</time></trkpt><trkpt lat="43.4703537" lon="12.7290506"><ele>625.0</ele><time>2026-03-08T10:59:45.93Z</time></trkpt><trkpt lat="43.4703114" lon="12.7291187"><ele>625.0</ele><time>2026-03-08T10:59:46.929Z</time></trkpt><trkpt lat="43.4701892" lon="12.7292449"><ele>625.0</ele><time>2026-03-08T10:59:47.929Z</time></trkpt><trkpt lat="43.4700671" lon="12.7293417"><ele>625.0</ele><time>2026-03-08T10:59:48.929Z</time></trkpt><trkpt lat="43.4699672" lon="12.7294717"><ele>625.0</ele><time>2026-03-08T10:59:49.929Z</time></trkpt><trkpt lat="43.4698643" lon="12.7296152"><ele>626.5</ele><time>2026-03-08T10:59:50.929Z</time></trkpt><trkpt lat="43.4697467" lon="12.7297292"><ele>628.0</ele><time>2026-03-08T10:59:51.929Z</time></trkpt><trkpt lat="43.4696367" lon="12.729881"><ele>629.5</ele><time>2026-03-08T10:59:52.929Z</time></trkpt><trkpt lat="43.4695081" lon="12.7299835"><ele>631.0</ele><time>2026-03-08T10:59:53.929Z</time></trkpt><trkpt lat="43.469317" lon="12.7300364"><ele>623.6666666666667</ele><time>2026-03-08T10:59:54.93Z</time></trkpt><trkpt lat="43.4691308" lon="12.730027"><ele>616.3333333333334</ele><time>2026-03-08T10:59:55.929Z</time></trkpt><trkpt lat="43.468975" lon="12.7301186"><ele>609.0</ele><time>2026-03-08T10:59:56.929Z</time></trkpt><trkpt lat="43.4688313" lon="12.730181"><ele>606.3333333333334</ele><time>2026-03-08T10:59:57.929Z</time></trkpt><trkpt lat="43.46873" lon="12.7303492"><ele>603.6666666666667</ele><time>2026-03-08T10:59:58.929Z</time></trkpt><trkpt lat="43.4685868" lon="12.7305098"><ele>601.0</ele><time>2026-03-08T10:59:59.929Z</time></trkpt><trkpt lat="43.468442" lon="12.7306571"><ele>601.0</ele><time>2026-03-08T11:00:00.929Z</time></trkpt><trkpt lat="43.468321" lon="12.7308"><ele>601.0</ele><time>2026-03-08T11:00:01.929Z</time></trkpt><trkpt lat="43.4681959" lon="12.7309624"><ele>601.0</ele><time>2026-03-08T11:00:02.929Z</time></trkpt><trkpt lat="43.4680778" lon="12.7310983"><ele>599.6666666666667</ele><time>2026-03-08T11:00:03.929Z</time></trkpt><trkpt lat="43.4678275" lon="12.7313718"><ele>598.3333333333334</ele><time>2026-03-08T11:00:05.929Z</time></trkpt><trkpt lat="43.4677299" lon="12.7314338"><ele>597.0</ele><time>2026-03-08T11:00:06.93Z</time></trkpt><trkpt lat="43.467586" lon="12.7315566"><ele>597.0</ele><time>2026-03-08T11:00:07.929Z</time></trkpt><trkpt lat="43.4674672" lon="12.7317"><ele>597.0</ele><time>2026-03-08T11:00:08.929Z</time></trkpt><trkpt lat="43.4673953" lon="12.7318608"><ele>597.0</ele><time>2026-03-08T11:00:09.93Z</time></trkpt><trkpt lat="43.4672834" lon="12.7319988"><ele>597.0</ele><time>2026-03-08T11:00:10.93Z</time></trkpt><trkpt lat="43.4671579" lon="12.7321381"><ele>599.75</ele><time>2026-03-08T11:00:11.929Z</time></trkpt><trkpt lat="43.4670747" lon="12.7323154"><ele>602.5</ele><time>2026-03-08T11:00:12.929Z</time></trkpt><trkpt lat="43.4670051" lon="12.7323116"><ele>605.25</ele><time>2026-03-08T11:00:13.929Z</time></trkpt><trkpt lat="43.4669803" lon="12.7324758"><ele>608.0</ele><time>2026-03-08T11:00:14.929Z</time></trkpt><trkpt lat="43.4669193" lon="12.732609"><ele>608.0</ele><time>2026-03-08T11:00:15.929Z</time></trkpt><trkpt lat="43.4668536" lon="12.7326986"><ele>608.0</ele><time>2026-03-08T11:00:16.929Z</time></trkpt><trkpt lat="43.4667923" lon="12.7328341"><ele>608.0</ele><time>2026-03-08T11:00:17.929Z</time></trkpt><trkpt lat="43.4666965" lon="12.7329556"><ele>608.0</ele><time>2026-03-08T11:00:18.929Z</time></trkpt><trkpt lat="43.4665847" lon="12.7330591"><ele>598.3333333333333</ele><time>2026-03-08T11:00:19.93Z</time></trkpt><trkpt lat="43.4664749" lon="12.7331981"><ele>588.6666666666666</ele><time>2026-03-08T11:00:20.929Z</time></trkpt><trkpt lat="43.4663864" lon="12.7332971"><ele>579.0</ele><time>2026-03-08T11:00:21.929Z</time></trkpt><trkpt lat="43.4661985" lon="12.7336138"><ele>574.25</ele><time>2026-03-08T11:00:23.929Z</time></trkpt><trkpt lat="43.4661968" lon="12.7337773"><ele>569.5</ele><time>2026-03-08T11:00:24.929Z</time></trkpt><trkpt lat="43.4661508" lon="12.7339073"><ele>564.75</ele><time>2026-03-08T11:00:25.93Z</time></trkpt><trkpt lat="43.4660835" lon="12.7340473"><ele>560.0</ele><time>2026-03-08T11:00:26.929Z</time></trkpt><trkpt lat="43.4660408" lon="12.734179"><ele>560.0</ele><time>2026-03-08T11:00:27.929Z</time></trkpt><trkpt lat="43.4660122" lon="12.7343016"><ele>560.0</ele><time>2026-03-08T11:00:28.93Z</time></trkpt><trkpt lat="43.4660288" lon="12.7344323"><ele>560.0</ele><time>2026-03-08T11:00:29.929Z</time></trkpt><trkpt lat="43.4661322" lon="12.7346131"><ele>560.0</ele><time>2026-03-08T11:00:31.929Z</time></trkpt><trkpt lat="43.4662196" lon="12.73467"><ele>560.8</ele><time>2026-03-08T11:00:32.929Z</time></trkpt><trkpt lat="43.4662878" lon="12.7348027"><ele>561.6</ele><time>2026-03-08T11:00:33.93Z</time></trkpt><trkpt lat="43.4663891" lon="12.7348595"><ele>562.4</ele><time>2026-03-08T11:00:34.93Z</time></trkpt><trkpt lat="43.4664205" lon="12.7349995"><ele>563.2</ele><time>2026-03-08T11:00:35.929Z</time></trkpt><trkpt lat="43.4664673" lon="12.735121"><ele>564.0</ele><time>2026-03-08T11:00:36.929Z</time></trkpt><trkpt lat="43.4665066" lon="12.7352458"><ele>564.0</ele><time>2026-03-08T11:00:37.93Z</time></trkpt><trkpt lat="43.4665363" lon="12.7353646"><ele>564.0</ele><time>2026-03-08T11:00:38.93Z</time></trkpt><trkpt lat="43.4665178" lon="12.7355401"><ele>564.0</ele><time>2026-03-08T11:00:39.93Z</time></trkpt><trkpt lat="43.4665069" lon="12.7357225"><ele>564.0</ele><time>2026-03-08T11:00:40.93Z</time></trkpt><trkpt lat="43.4664391" lon="12.7358457"><ele>564.0</ele><time>2026-03-08T11:00:41.929Z</time></trkpt><trkpt lat="43.4664291" lon="12.7359966"><ele>564.0</ele><time>2026-03-08T11:00:42.929Z</time></trkpt><trkpt lat="43.4664776" lon="12.7363217"><ele>564.0</ele><time>2026-03-08T11:00:44.93Z</time></trkpt><trkpt lat="43.4664578" lon="12.7364775"><ele>563.0</ele><time>2026-03-08T11:00:45.93Z</time></trkpt><trkpt lat="43.4665573" lon="12.7366167"><ele>562.0</ele><time>2026-03-08T11:00:46.93Z</time></trkpt><trkpt lat="43.4666543" lon="12.7367165"><ele>561.0</ele><time>2026-03-08T11:00:47.93Z</time></trkpt><trkpt lat="43.4667323" lon="12.7368373"><ele>560.0</ele><time>2026-03-08T11:00:48.93Z</time></trkpt><trkpt lat="43.4668333" lon="12.7369572"><ele>560.0</ele><time>2026-03-08T11:00:49.93Z</time></trkpt><trkpt lat="43.4669299" lon="12.7370855"><ele>560.0</ele><time>2026-03-08T11:00:50.93Z</time></trkpt><trkpt lat="43.4670342" lon="12.7371975"><ele>560.0</ele><time>2026-03-08T11:00:51.93Z</time></trkpt><trkpt lat="43.4671371" lon="12.7373049"><ele>560.0</ele><time>2026-03-08T11:00:52.93Z</time></trkpt><trkpt lat="43.4673035" lon="12.7374117"><ele>557.0</ele><time>2026-03-08T11:00:53.93Z</time></trkpt><trkpt lat="43.4674004" lon="12.7374915"><ele>554.0</ele><time>2026-03-08T11:00:54.93Z</time></trkpt><trkpt lat="43.4675028" lon="12.7375857"><ele>551.0</ele><time>2026-03-08T11:00:55.93Z</time></trkpt><trkpt lat="43.4675849" lon="12.7377126"><ele>548.0</ele><time>2026-03-08T11:00:56.93Z</time></trkpt><trkpt lat="43.4677997" lon="12.7379126"><ele>548.0</ele><time>2026-03-08T11:00:58.93Z</time></trkpt><trkpt lat="43.4678725" lon="12.7380868"><ele>548.0</ele><time>2026-03-08T11:00:59.93Z</time></trkpt><trkpt lat="43.467927" lon="12.7382163"><ele>548.0</ele><time>2026-03-08T11:01:00.93Z</time></trkpt><trkpt lat="43.4679593" lon="12.7383692"><ele>548.0</ele><time>2026-03-08T11:01:01.93Z</time></trkpt><trkpt lat="43.4679261" lon="12.7385763"><ele>547.4</ele><time>2026-03-08T11:01:02.931Z</time></trkpt><trkpt lat="43.4679161" lon="12.7386935"><ele>546.8</ele><time>2026-03-08T11:01:03.93Z</time></trkpt><trkpt lat="43.4678958" lon="12.7387893"><ele>546.2</ele><time>2026-03-08T11:01:04.931Z</time></trkpt><trkpt lat="43.4679042" lon="12.7389523"><ele>545.6</ele><time>2026-03-08T11:01:05.931Z</time></trkpt><trkpt lat="43.4679253" lon="12.7391173"><ele>545.0</ele><time>2026-03-08T11:01:06.931Z</time></trkpt><trkpt lat="43.4679899" lon="12.7392726"><ele>543.0</ele><time>2026-03-08T11:01:07.93Z</time></trkpt><trkpt lat="43.4680719" lon="12.7394043"><ele>541.0</ele><time>2026-03-08T11:01:08.93Z</time></trkpt><trkpt lat="43.4681785" lon="12.7394943"><ele>539.0</ele><time>2026-03-08T11:01:09.93Z</time></trkpt><trkpt lat="43.4682873" lon="12.7395857"><ele>537.0</ele><time>2026-03-08T11:01:10.93Z</time></trkpt><trkpt lat="43.4683923" lon="12.7396331"><ele>537.0</ele><time>2026-03-08T11:01:11.93Z</time></trkpt><trkpt lat="43.468487" lon="12.7397452"><ele>537.0</ele><time>2026-03-08T11:01:12.93Z</time></trkpt><trkpt lat="43.4685897" lon="12.7399126"><ele>537.0</ele><time>2026-03-08T11:01:13.93Z</time></trkpt><trkpt lat="43.4686575" lon="12.7400728"><ele>537.0</ele><time>2026-03-08T11:01:14.93Z</time></trkpt><trkpt lat="43.46872" lon="12.740251"><ele>538.75</ele><time>2026-03-08T11:01:15.93Z</time></trkpt><trkpt lat="43.4687683" lon="12.740412"><ele>540.5</ele><time>2026-03-08T11:01:16.93Z</time></trkpt><trkpt lat="43.468826" lon="12.7405779"><ele>542.25</ele><time>2026-03-08T11:01:17.93Z</time></trkpt><trkpt lat="43.4688839" lon="12.7407581"><ele>544.0</ele><time>2026-03-08T11:01:18.93Z</time></trkpt><trkpt lat="43.4689464" lon="12.7409296"><ele>541.75</ele><time>2026-03-08T11:01:19.93Z</time></trkpt><trkpt lat="43.46902" lon="12.7410781"><ele>539.5</ele><time>2026-03-08T11:01:20.93Z</time></trkpt><trkpt lat="43.469095" lon="12.74122"><ele>537.25</ele><time>2026-03-08T11:01:21.931Z</time></trkpt><trkpt lat="43.4691596" lon="12.7413569"><ele>535.0</ele><time>2026-03-08T11:01:22.93Z</time></trkpt><trkpt lat="43.4692328" lon="12.741488"><ele>535.0</ele><time>2026-03-08T11:01:23.93Z</time></trkpt><trkpt lat="43.4693088" lon="12.7416422"><ele>535.0</ele><time>2026-03-08T11:01:24.93Z</time></trkpt><trkpt lat="43.4693933" lon="12.7417654"><ele>535.0</ele><time>2026-03-08T11:01:25.93Z</time></trkpt><trkpt lat="43.4694688" lon="12.7418849"><ele>535.0</ele><time>2026-03-08T11:01:26.93Z</time></trkpt><trkpt lat="43.4695381" lon="12.7420314"><ele>535.75</ele><time>2026-03-08T11:01:27.931Z</time></trkpt><trkpt lat="43.4696281" lon="12.7421746"><ele>536.5</ele><time>2026-03-08T11:01:28.93Z</time></trkpt><trkpt lat="43.4697047" lon="12.742307"><ele>537.25</ele><time>2026-03-08T11:01:29.93Z</time></trkpt><trkpt lat="43.4697805" lon="12.7424675"><ele>538.0</ele><time>2026-03-08T11:01:30.93Z</time></trkpt><trkpt lat="43.4698449" lon="12.7426173"><ele>535.5</ele><time>2026-03-08T11:01:31.93Z</time></trkpt><trkpt lat="43.4698886" lon="12.7427974"><ele>533.0</ele><time>2026-03-08T11:01:32.93Z</time></trkpt><trkpt lat="43.4698912" lon="12.7429827"><ele>530.5</ele><time>2026-03-08T11:01:33.93Z</time></trkpt><trkpt lat="43.4698937" lon="12.7431547"><ele>528.0</ele><time>2026-03-08T11:01:34.93Z</time></trkpt><trkpt lat="43.4698772" lon="12.7433298"><ele>528.0</ele><time>2026-03-08T11:01:35.93Z</time></trkpt><trkpt lat="43.4698384" lon="12.7434822"><ele>528.0</ele><time>2026-03-08T11:01:36.931Z</time></trkpt><trkpt lat="43.4698286" lon="12.74366"><ele>528.0</ele><time>2026-03-08T11:01:37.93Z</time></trkpt><trkpt lat="43.4698164" lon="12.7438312"><ele>528.0</ele><time>2026-03-08T11:01:38.93Z</time></trkpt><trkpt lat="43.4698289" lon="12.7439924"><ele>527.0</ele><time>2026-03-08T11:01:39.93Z</time></trkpt><trkpt lat="43.4698779" lon="12.7443422"><ele>526.0</ele><time>2026-03-08T11:01:41.93Z</time></trkpt><trkpt lat="43.4699291" lon="12.744495"><ele>525.0</ele><time>2026-03-08T11:01:42.93Z</time></trkpt><trkpt lat="43.4699729" lon="12.7446559"><ele>525.0</ele><time>2026-03-08T11:01:43.93Z</time></trkpt><trkpt lat="43.4700061" lon="12.7448076"><ele>525.0</ele><time>2026-03-08T11:01:44.93Z</time></trkpt><trkpt lat="43.4699893" lon="12.7449609"><ele>525.0</ele><time>2026-03-08T11:01:45.93Z</time></trkpt><trkpt lat="43.4699942" lon="12.7451171"><ele>525.0</ele><time>2026-03-08T11:01:46.93Z</time></trkpt><trkpt lat="43.4699755" lon="12.7452646"><ele>525.6666666666666</ele><time>2026-03-08T11:01:47.93Z</time></trkpt><trkpt lat="43.4699415" lon="12.7454013"><ele>526.3333333333333</ele><time>2026-03-08T11:01:48.931Z</time></trkpt><trkpt lat="43.4698632" lon="12.7457254"><ele>527.0</ele><time>2026-03-08T11:01:50.93Z</time></trkpt><trkpt lat="43.4698197" lon="12.7458763"><ele>527.0</ele><time>2026-03-08T11:01:51.93Z</time></trkpt><trkpt lat="43.4697334" lon="12.7459919"><ele>527.0</ele><time>2026-03-08T11:01:52.93Z</time></trkpt><trkpt lat="43.4696508" lon="12.7461212"><ele>527.0</ele><time>2026-03-08T11:01:53.931Z</time></trkpt><trkpt lat="43.4695457" lon="12.7462483"><ele>527.0</ele><time>2026-03-08T11:01:54.93Z</time></trkpt><trkpt lat="43.4694635" lon="12.7463704"><ele>526.25</ele><time>2026-03-08T11:01:55.93Z</time></trkpt><trkpt lat="43.4693648" lon="12.7464828"><ele>525.5</ele><time>2026-03-08T11:01:56.93Z</time></trkpt><trkpt lat="43.4692594" lon="12.7465754"><ele>524.75</ele><time>2026-03-08T11:01:57.93Z</time></trkpt><trkpt lat="43.4691543" lon="12.7466819"><ele>524.0</ele><time>2026-03-08T11:01:58.93Z</time></trkpt><trkpt lat="43.4690498" lon="12.7467968"><ele>525.25</ele><time>2026-03-08T11:01:59.93Z</time></trkpt><trkpt lat="43.4689415" lon="12.7469088"><ele>526.5</ele><time>2026-03-08T11:02:00.93Z</time></trkpt><trkpt lat="43.468862" lon="12.7470418"><ele>527.75</ele><time>2026-03-08T11:02:01.93Z</time></trkpt><trkpt lat="43.4687798" lon="12.7471842"><ele>529.0</ele><time>2026-03-08T11:02:02.93Z</time></trkpt><trkpt lat="43.4687363" lon="12.7473579"><ele>531.25</ele><time>2026-03-08T11:02:03.93Z</time></trkpt><trkpt lat="43.468693" lon="12.7475422"><ele>533.5</ele><time>2026-03-08T11:02:04.93Z</time></trkpt><trkpt lat="43.4686516" lon="12.7477244"><ele>535.75</ele><time>2026-03-08T11:02:05.93Z</time></trkpt><trkpt lat="43.4686147" lon="12.7478875"><ele>538.0</ele><time>2026-03-08T11:02:06.931Z</time></trkpt><trkpt lat="43.4685807" lon="12.7480373"><ele>538.0</ele><time>2026-03-08T11:02:07.931Z</time></trkpt><trkpt lat="43.4685914" lon="12.7482189"><ele>538.0</ele><time>2026-03-08T11:02:08.93Z</time></trkpt><trkpt lat="43.4686002" lon="12.7483713"><ele>538.0</ele><time>2026-03-08T11:02:09.93Z</time></trkpt><trkpt lat="43.4686623" lon="12.7485803"><ele>538.0</ele><time>2026-03-08T11:02:10.931Z</time></trkpt><trkpt lat="43.4687298" lon="12.7487994"><ele>536.25</ele><time>2026-03-08T11:02:11.931Z</time></trkpt><trkpt lat="43.468771" lon="12.7489994"><ele>534.5</ele><time>2026-03-08T11:02:12.93Z</time></trkpt><trkpt lat="43.4687746" lon="12.7491657"><ele>532.75</ele><time>2026-03-08T11:02:13.93Z</time></trkpt><trkpt lat="43.4687726" lon="12.7493444"><ele>531.0</ele><time>2026-03-08T11:02:14.93Z</time></trkpt><trkpt lat="43.4687309" lon="12.749506"><ele>529.25</ele><time>2026-03-08T11:02:15.93Z</time></trkpt><trkpt lat="43.4685979" lon="12.7496628"><ele>527.5</ele><time>2026-03-08T11:02:16.93Z</time></trkpt><trkpt lat="43.4685575" lon="12.7498125"><ele>525.75</ele><time>2026-03-08T11:02:17.93Z</time></trkpt><trkpt lat="43.4685409" lon="12.7499881"><ele>524.0</ele><time>2026-03-08T11:02:18.93Z</time></trkpt><trkpt lat="43.468537" lon="12.7501773"><ele>523.5</ele><time>2026-03-08T11:02:19.93Z</time></trkpt><trkpt lat="43.4685243" lon="12.7503533"><ele>523.0</ele><time>2026-03-08T11:02:20.93Z</time></trkpt><trkpt lat="43.4685092" lon="12.7505619"><ele>522.5</ele><time>2026-03-08T11:02:21.93Z</time></trkpt><trkpt lat="43.4685209" lon="12.75075"><ele>522.0</ele><time>2026-03-08T11:02:22.93Z</time></trkpt><trkpt lat="43.4685364" lon="12.7509038"><ele>520.5</ele><time>2026-03-08T11:02:23.93Z</time></trkpt><trkpt lat="43.4685585" lon="12.7511009"><ele>519.0</ele><time>2026-03-08T11:02:24.931Z</time></trkpt><trkpt lat="43.4686082" lon="12.7512949"><ele>517.5</ele><time>2026-03-08T11:02:25.93Z</time></trkpt><trkpt lat="43.4686623" lon="12.7514668"><ele>516.0</ele><time>2026-03-08T11:02:26.93Z</time></trkpt><trkpt lat="43.4687238" lon="12.7516732"><ele>518.25</ele><time>2026-03-08T11:02:27.93Z</time></trkpt><trkpt lat="43.4687928" lon="12.7518502"><ele>520.5</ele><time>2026-03-08T11:02:28.93Z</time></trkpt><trkpt lat="43.4688437" lon="12.7520201"><ele>522.75</ele><time>2026-03-08T11:02:29.93Z</time></trkpt><trkpt lat="43.4689062" lon="12.7521713"><ele>525.0</ele><time>2026-03-08T11:02:30.93Z</time></trkpt><trkpt lat="43.4689885" lon="12.7523565"><ele>525.0</ele><time>2026-03-08T11:02:31.93Z</time></trkpt><trkpt lat="43.4690696" lon="12.7525141"><ele>525.0</ele><time>2026-03-08T11:02:32.93Z</time></trkpt><trkpt lat="43.4691458" lon="12.752671"><ele>525.0</ele><time>2026-03-08T11:02:33.93Z</time></trkpt><trkpt lat="43.469299" lon="12.7529513"><ele>522.0</ele><time>2026-03-08T11:02:35.93Z</time></trkpt><trkpt lat="43.4693806" lon="12.7531224"><ele>519.0</ele><time>2026-03-08T11:02:36.93Z</time></trkpt><trkpt lat="43.4694437" lon="12.7532867"><ele>516.0</ele><time>2026-03-08T11:02:37.931Z</time></trkpt><trkpt lat="43.4694898" lon="12.7534773"><ele>513.0</ele><time>2026-03-08T11:02:38.93Z</time></trkpt><trkpt lat="43.4695156" lon="12.7536621"><ele>512.5</ele><time>2026-03-08T11:02:39.93Z</time></trkpt><trkpt lat="43.4695509" lon="12.7538599"><ele>512.0</ele><time>2026-03-08T11:02:40.931Z</time></trkpt><trkpt lat="43.4695823" lon="12.7540162"><ele>511.5</ele><time>2026-03-08T11:02:41.93Z</time></trkpt><trkpt lat="43.4696186" lon="12.7541922"><ele>511.0</ele><time>2026-03-08T11:02:42.931Z</time></trkpt><trkpt lat="43.4696287" lon="12.7543657"><ele>511.20000000000005</ele><time>2026-03-08T11:02:43.93Z</time></trkpt><trkpt lat="43.4696181" lon="12.754594"><ele>511.40000000000003</ele><time>2026-03-08T11:02:44.931Z</time></trkpt><trkpt lat="43.4695661" lon="12.754681"><ele>511.6</ele><time>2026-03-08T11:02:45.931Z</time></trkpt><trkpt lat="43.4695171" lon="12.7547519"><ele>511.8</ele><time>2026-03-08T11:02:46.93Z</time></trkpt><trkpt lat="43.4694466" lon="12.7548684"><ele>512.0</ele><time>2026-03-08T11:02:47.93Z</time></trkpt><trkpt lat="43.4693362" lon="12.7550007"><ele>512.0</ele><time>2026-03-08T11:02:48.93Z</time></trkpt><trkpt lat="43.4692462" lon="12.7551011"><ele>512.0</ele><time>2026-03-08T11:02:49.93Z</time></trkpt><trkpt lat="43.4691711" lon="12.7552296"><ele>512.0</ele><time>2026-03-08T11:02:50.931Z</time></trkpt><trkpt lat="43.4691489" lon="12.7553183"><ele>512.0</ele><time>2026-03-08T11:02:51.93Z</time></trkpt><trkpt lat="43.4691192" lon="12.755451"><ele>512.0</ele><time>2026-03-08T11:02:52.93Z</time></trkpt><trkpt lat="43.4690873" lon="12.7555761"><ele>512.8000000000001</ele><time>2026-03-08T11:02:53.93Z</time></trkpt><trkpt lat="43.4690755" lon="12.7557192"><ele>513.6</ele><time>2026-03-08T11:02:54.931Z</time></trkpt><trkpt lat="43.46909" lon="12.755907"><ele>514.4000000000001</ele><time>2026-03-08T11:02:55.93Z</time></trkpt><trkpt lat="43.4691218" lon="12.7560269"><ele>515.2</ele><time>2026-03-08T11:02:56.93Z</time></trkpt><trkpt lat="43.4691804" lon="12.7561561"><ele>516.0</ele><time>2026-03-08T11:02:57.93Z</time></trkpt><trkpt lat="43.4692786" lon="12.7562691"><ele>516.6666666666666</ele><time>2026-03-08T11:02:58.93Z</time></trkpt><trkpt lat="43.4693778" lon="12.7563523"><ele>517.3333333333333</ele><time>2026-03-08T11:02:59.93Z</time></trkpt><trkpt lat="43.469594" lon="12.7564775"><ele>518.0</ele><time>2026-03-08T11:03:01.93Z</time></trkpt><trkpt lat="43.4697571" lon="12.7565519"><ele>514.6666666666666</ele><time>2026-03-08T11:03:02.93Z</time></trkpt><trkpt lat="43.4699167" lon="12.7566513"><ele>511.33333333333337</ele><time>2026-03-08T11:03:03.93Z</time></trkpt><trkpt lat="43.4700527" lon="12.7567539"><ele>508.0</ele><time>2026-03-08T11:03:04.93Z</time></trkpt><trkpt lat="43.4701937" lon="12.7568557"><ele>507.33333333333337</ele><time>2026-03-08T11:03:05.93Z</time></trkpt><trkpt lat="43.4703461" lon="12.7569121"><ele>506.66666666666663</ele><time>2026-03-08T11:03:06.93Z</time></trkpt><trkpt lat="43.4704873" lon="12.7569817"><ele>506.0</ele><time>2026-03-08T11:03:07.931Z</time></trkpt><trkpt lat="43.4706422" lon="12.7570355"><ele>499.5</ele><time>2026-03-08T11:03:08.93Z</time></trkpt><trkpt lat="43.4709641" lon="12.7571533"><ele>493.0</ele><time>2026-03-08T11:03:10.93Z</time></trkpt><trkpt lat="43.4711006" lon="12.7572346"><ele>493.0</ele><time>2026-03-08T11:03:11.931Z</time></trkpt><trkpt lat="43.4712355" lon="12.7573164"><ele>493.0</ele><time>2026-03-08T11:03:12.93Z</time></trkpt><trkpt lat="43.4713676" lon="12.7574496"><ele>493.0</ele><time>2026-03-08T11:03:13.931Z</time></trkpt><trkpt lat="43.471512" lon="12.7576206"><ele>489.33333333333337</ele><time>2026-03-08T11:03:14.931Z</time></trkpt><trkpt lat="43.471631" lon="12.7577885"><ele>485.66666666666663</ele><time>2026-03-08T11:03:15.93Z</time></trkpt><trkpt lat="43.4717608" lon="12.7579487"><ele>482.0</ele><time>2026-03-08T11:03:16.93Z</time></trkpt><trkpt lat="43.4718791" lon="12.7581278"><ele>482.0</ele><time>2026-03-08T11:03:17.93Z</time></trkpt><trkpt lat="43.4719948" lon="12.7582716"><ele>482.0</ele><time>2026-03-08T11:03:18.931Z</time></trkpt><trkpt lat="43.4721029" lon="12.7584666"><ele>482.0</ele><time>2026-03-08T11:03:19.931Z</time></trkpt><trkpt lat="43.4722171" lon="12.7586316"><ele>483.0</ele><time>2026-03-08T11:03:20.93Z</time></trkpt><trkpt lat="43.4723273" lon="12.7588163"><ele>484.0</ele><time>2026-03-08T11:03:21.93Z</time></trkpt><trkpt lat="43.4724419" lon="12.7590031"><ele>485.0</ele><time>2026-03-08T11:03:22.93Z</time></trkpt><trkpt lat="43.4725157" lon="12.7591693"><ele>481.3333333333333</ele><time>2026-03-08T11:03:23.931Z</time></trkpt><trkpt lat="43.4726266" lon="12.7593791"><ele>477.66666666666663</ele><time>2026-03-08T11:03:24.93Z</time></trkpt><trkpt lat="43.4727421" lon="12.7595341"><ele>474.0</ele><time>2026-03-08T11:03:25.93Z</time></trkpt><trkpt lat="43.4728588" lon="12.7596845"><ele>479.0</ele><time>2026-03-08T11:03:26.93Z</time></trkpt><trkpt lat="43.4731562" lon="12.7599597"><ele>484.0</ele><time>2026-03-08T11:03:28.93Z</time></trkpt><trkpt lat="43.4732841" lon="12.7600787"><ele>479.6666666666667</ele><time>2026-03-08T11:03:29.93Z</time></trkpt><trkpt lat="43.4734379" lon="12.7602121"><ele>475.33333333333337</ele><time>2026-03-08T11:03:30.93Z</time></trkpt><trkpt lat="43.4735439" lon="12.7603104"><ele>471.0</ele><time>2026-03-08T11:03:31.931Z</time></trkpt><trkpt lat="43.4736649" lon="12.7604319"><ele>472.75</ele><time>2026-03-08T11:03:32.93Z</time></trkpt><trkpt lat="43.4737818" lon="12.7605697"><ele>474.5</ele><time>2026-03-08T11:03:33.93Z</time></trkpt><trkpt lat="43.4738966" lon="12.7606113"><ele>476.25</ele><time>2026-03-08T11:03:34.931Z</time></trkpt><trkpt lat="43.474009" lon="12.7607242"><ele>478.0</ele><time>2026-03-08T11:03:35.93Z</time></trkpt><trkpt lat="43.4741751" lon="12.760859"><ele>478.0</ele><time>2026-03-08T11:03:36.93Z</time></trkpt><trkpt lat="43.474313" lon="12.7610164"><ele>478.0</ele><time>2026-03-08T11:03:37.931Z</time></trkpt><trkpt lat="43.4744022" lon="12.7611885"><ele>478.0</ele><time>2026-03-08T11:03:38.93Z</time></trkpt><trkpt lat="43.4744616" lon="12.7613252"><ele>478.0</ele><time>2026-03-08T11:03:39.931Z</time></trkpt><trkpt lat="43.4745322" lon="12.7614759"><ele>477.33333333333337</ele><time>2026-03-08T11:03:40.93Z</time></trkpt><trkpt lat="43.4745889" lon="12.7616472"><ele>476.66666666666663</ele><time>2026-03-08T11:03:41.931Z</time></trkpt><trkpt lat="43.4746784" lon="12.7618695"><ele>476.0</ele><time>2026-03-08T11:03:42.93Z</time></trkpt><trkpt lat="43.4747817" lon="12.7619876"><ele>476.0</ele><time>2026-03-08T11:03:43.931Z</time></trkpt><trkpt lat="43.474891" lon="12.7621263"><ele>476.0</ele><time>2026-03-08T11:03:44.931Z</time></trkpt><trkpt lat="43.4750268" lon="12.7622579"><ele>476.0</ele><time>2026-03-08T11:03:45.93Z</time></trkpt><trkpt lat="43.4751659" lon="12.7623857"><ele>476.0</ele><time>2026-03-08T11:03:46.93Z</time></trkpt><trkpt lat="43.4752742" lon="12.7625398"><ele>476.0</ele><time>2026-03-08T11:03:47.93Z</time></trkpt><trkpt lat="43.4753759" lon="12.7626862"><ele>476.0</ele><time>2026-03-08T11:03:48.93Z</time></trkpt><trkpt lat="43.4754838" lon="12.7628585"><ele>474.3333333333333</ele><time>2026-03-08T11:03:49.932Z</time></trkpt><trkpt lat="43.4755704" lon="12.7630285"><ele>472.66666666666663</ele><time>2026-03-08T11:03:50.93Z</time></trkpt><trkpt lat="43.4756808" lon="12.7632"><ele>471.0</ele><time>2026-03-08T11:03:51.93Z</time></trkpt><trkpt lat="43.4758193" lon="12.7634076"><ele>471.33333333333337</ele><time>2026-03-08T11:03:52.93Z</time></trkpt><trkpt lat="43.4758791" lon="12.7635807"><ele>471.6666666666667</ele><time>2026-03-08T11:03:53.93Z</time></trkpt><trkpt lat="43.4760043" lon="12.7637589"><ele>472.0</ele><time>2026-03-08T11:03:54.931Z</time></trkpt><trkpt lat="43.4761327" lon="12.7638243"><ele>472.0</ele><time>2026-03-08T11:03:55.931Z</time></trkpt><trkpt lat="43.4762376" lon="12.7639626"><ele>472.0</ele><time>2026-03-08T11:03:56.93Z</time></trkpt><trkpt lat="43.4763345" lon="12.7640928"><ele>472.0</ele><time>2026-03-08T11:03:57.93Z</time></trkpt><trkpt lat="43.4764013" lon="12.7641732"><ele>472.0</ele><time>2026-03-08T11:03:58.93Z</time></trkpt><trkpt lat="43.4764927" lon="12.7642779"><ele>470.6666666666667</ele><time>2026-03-08T11:03:59.931Z</time></trkpt><trkpt lat="43.476569" lon="12.7644011"><ele>469.33333333333337</ele><time>2026-03-08T11:04:00.93Z</time></trkpt><trkpt lat="43.4766415" lon="12.7645395"><ele>468.0</ele><time>2026-03-08T11:04:01.93Z</time></trkpt><trkpt lat="43.4767385" lon="12.7648999"><ele>468.0</ele><time>2026-03-08T11:04:03.93Z</time></trkpt><trkpt lat="43.4767683" lon="12.7650628"><ele>468.0</ele><time>2026-03-08T11:04:04.93Z</time></trkpt><trkpt lat="43.4768247" lon="12.7652677"><ele>468.0</ele><time>2026-03-08T11:04:05.931Z</time></trkpt><trkpt lat="43.47686" lon="12.7654737"><ele>468.0</ele><time>2026-03-08T11:04:06.93Z</time></trkpt><trkpt lat="43.4768746" lon="12.7655941"><ele>466.79999999999995</ele><time>2026-03-08T11:04:07.93Z</time></trkpt><trkpt lat="43.4769" lon="12.7657739"><ele>465.59999999999997</ele><time>2026-03-08T11:04:08.931Z</time></trkpt><trkpt lat="43.4768982" lon="12.7658846"><ele>464.40000000000003</ele><time>2026-03-08T11:04:09.93Z</time></trkpt><trkpt lat="43.4769102" lon="12.7660903"><ele>463.20000000000005</ele><time>2026-03-08T11:04:12.93Z</time></trkpt><trkpt lat="43.4769128" lon="12.7661945"><ele>462.0</ele><time>2026-03-08T11:04:14.93Z</time></trkpt><trkpt lat="43.4768413" lon="12.7661511"><ele>462.0</ele><time>2026-03-08T11:05:24.931Z</time></trkpt><trkpt lat="43.4768858" lon="12.7662188"><ele>462.00000000000006</ele><time>2026-03-08T11:07:47.931Z</time></trkpt><trkpt lat="43.4769703" lon="12.7663578"><ele>462.00000000000006</ele><time>2026-03-08T11:07:52.93Z</time></trkpt><trkpt lat="43.4770675" lon="12.7665128"><ele>462.0</ele><time>2026-03-08T11:07:54.93Z</time></trkpt><trkpt lat="43.4771234" lon="12.7665968"><ele>462.0</ele><time>2026-03-08T11:07:55.931Z</time></trkpt><trkpt lat="43.4771989" lon="12.7666756"><ele>461.6</ele><time>2026-03-08T11:07:56.933Z</time></trkpt><trkpt lat="43.4772715" lon="12.7667398"><ele>461.20000000000005</ele><time>2026-03-08T11:07:57.931Z</time></trkpt><trkpt lat="43.477371" lon="12.7668111"><ele>460.8</ele><time>2026-03-08T11:07:58.931Z</time></trkpt><trkpt lat="43.4774654" lon="12.7668777"><ele>460.4</ele><time>2026-03-08T11:07:59.931Z</time></trkpt><trkpt lat="43.4775586" lon="12.7669041"><ele>460.0</ele><time>2026-03-08T11:08:00.933Z</time></trkpt><trkpt lat="43.4777119" lon="12.7669989"><ele>458.5</ele><time>2026-03-08T11:08:02.933Z</time></trkpt><trkpt lat="43.4777953" lon="12.7670533"><ele>457.0</ele><time>2026-03-08T11:08:03.932Z</time></trkpt><trkpt lat="43.4779038" lon="12.7671307"><ele>455.5</ele><time>2026-03-08T11:08:04.931Z</time></trkpt><trkpt lat="43.4780007" lon="12.7671994"><ele>454.0</ele><time>2026-03-08T11:08:05.931Z</time></trkpt><trkpt lat="43.4781381" lon="12.7672818"><ele>454.0</ele><time>2026-03-08T11:08:06.932Z</time></trkpt><trkpt lat="43.4782782" lon="12.767363"><ele>454.0</ele><time>2026-03-08T11:08:07.931Z</time></trkpt><trkpt lat="43.4784065" lon="12.7674348"><ele>454.0</ele><time>2026-03-08T11:08:08.932Z</time></trkpt><trkpt lat="43.4785767" lon="12.7675042"><ele>454.0</ele><time>2026-03-08T11:08:09.932Z</time></trkpt><trkpt lat="43.4787137" lon="12.767552"><ele>454.0</ele><time>2026-03-08T11:08:10.932Z</time></trkpt><trkpt lat="43.4788442" lon="12.7675815"><ele>454.0</ele><time>2026-03-08T11:08:11.932Z</time></trkpt><trkpt lat="43.4789714" lon="12.7675812"><ele>454.0</ele><time>2026-03-08T11:08:12.931Z</time></trkpt><trkpt lat="43.479072" lon="12.7675643"><ele>454.4</ele><time>2026-03-08T11:08:13.932Z</time></trkpt><trkpt lat="43.4791879" lon="12.7675127"><ele>454.79999999999995</ele><time>2026-03-08T11:08:14.931Z</time></trkpt><trkpt lat="43.4792868" lon="12.7674652"><ele>455.20000000000005</ele><time>2026-03-08T11:08:15.931Z</time></trkpt><trkpt lat="43.4793847" lon="12.7674269"><ele>455.6</ele><time>2026-03-08T11:08:16.931Z</time></trkpt><trkpt lat="43.4794683" lon="12.7674088"><ele>456.0</ele><time>2026-03-08T11:08:17.932Z</time></trkpt><trkpt lat="43.4795673" lon="12.7674023"><ele>452.5</ele><time>2026-03-08T11:08:18.931Z</time></trkpt><trkpt lat="43.4796889" lon="12.7674721"><ele>449.0</ele><time>2026-03-08T11:08:20.932Z</time></trkpt><trkpt lat="43.4796053" lon="12.7676008"><ele>445.5</ele><time>2026-03-08T11:08:21.931Z</time></trkpt><trkpt lat="43.4794933" lon="12.7677364"><ele>442.0</ele><time>2026-03-08T11:08:22.931Z</time></trkpt><trkpt lat="43.479409" lon="12.7678393"><ele>442.0</ele><time>2026-03-08T11:08:23.931Z</time></trkpt><trkpt lat="43.4793115" lon="12.7679312"><ele>442.0</ele><time>2026-03-08T11:08:24.931Z</time></trkpt><trkpt lat="43.4792697" lon="12.7680325"><ele>442.0</ele><time>2026-03-08T11:08:25.931Z</time></trkpt><trkpt lat="43.47922" lon="12.7681351"><ele>442.0</ele><time>2026-03-08T11:08:26.931Z</time></trkpt><trkpt lat="43.4791149" lon="12.768367"><ele>442.00000000000006</ele><time>2026-03-08T11:08:28.931Z</time></trkpt><trkpt lat="43.4791174" lon="12.7684867"><ele>442.0</ele><time>2026-03-08T11:08:29.931Z</time></trkpt><trkpt lat="43.4791328" lon="12.7685961"><ele>442.0</ele><time>2026-03-08T11:08:30.931Z</time></trkpt><trkpt lat="43.4791703" lon="12.7686861"><ele>442.0</ele><time>2026-03-08T11:08:31.932Z</time></trkpt><trkpt lat="43.4791913" lon="12.7687928"><ele>442.00000000000006</ele><time>2026-03-08T11:08:32.932Z</time></trkpt><trkpt lat="43.4792523" lon="12.7688857"><ele>442.0</ele><time>2026-03-08T11:08:33.931Z</time></trkpt><trkpt lat="43.4793445" lon="12.7689494"><ele>443.0</ele><time>2026-03-08T11:08:34.931Z</time></trkpt><trkpt lat="43.4794301" lon="12.7689936"><ele>444.0</ele><time>2026-03-08T11:08:35.931Z</time></trkpt><trkpt lat="43.4796527" lon="12.7690617"><ele>445.0</ele><time>2026-03-08T11:08:37.931Z</time></trkpt><trkpt lat="43.4797585" lon="12.769089"><ele>446.0</ele><time>2026-03-08T11:08:38.932Z</time></trkpt><trkpt lat="43.479884" lon="12.7690936"><ele>446.0</ele><time>2026-03-08T11:08:39.931Z</time></trkpt><trkpt lat="43.4799897" lon="12.7690906"><ele>446.0</ele><time>2026-03-08T11:08:40.931Z</time></trkpt><trkpt lat="43.48009" lon="12.769117"><ele>446.0</ele><time>2026-03-08T11:08:41.931Z</time></trkpt><trkpt lat="43.480193" lon="12.7691291"><ele>446.0</ele><time>2026-03-08T11:08:42.931Z</time></trkpt><trkpt lat="43.4803123" lon="12.769114"><ele>446.0</ele><time>2026-03-08T11:08:43.932Z</time></trkpt><trkpt lat="43.4805333" lon="12.7690598"><ele>445.6</ele><time>2026-03-08T11:08:45.933Z</time></trkpt><trkpt lat="43.4806253" lon="12.7690305"><ele>445.20000000000005</ele><time>2026-03-08T11:08:46.931Z</time></trkpt><trkpt lat="43.4807186" lon="12.768966"><ele>444.79999999999995</ele><time>2026-03-08T11:08:47.933Z</time></trkpt><trkpt lat="43.4808256" lon="12.7689259"><ele>444.4</ele><time>2026-03-08T11:08:48.931Z</time></trkpt><trkpt lat="43.4809521" lon="12.7689284"><ele>444.0</ele><time>2026-03-08T11:08:49.932Z</time></trkpt><trkpt lat="43.481045" lon="12.7689345"><ele>444.0</ele><time>2026-03-08T11:08:50.931Z</time></trkpt><trkpt lat="43.4811368" lon="12.7689404"><ele>444.0</ele><time>2026-03-08T11:08:51.931Z</time></trkpt><trkpt lat="43.4812319" lon="12.7690562"><ele>444.0</ele><time>2026-03-08T11:08:52.931Z</time></trkpt><trkpt lat="43.4813345" lon="12.7691551"><ele>444.0</ele><time>2026-03-08T11:08:53.931Z</time></trkpt><trkpt lat="43.4814366" lon="12.7692175"><ele>442.75</ele><time>2026-03-08T11:08:54.931Z</time></trkpt><trkpt lat="43.4815117" lon="12.7693315"><ele>441.5</ele><time>2026-03-08T11:08:55.931Z</time></trkpt><trkpt lat="43.4815918" lon="12.7694505"><ele>440.25</ele><time>2026-03-08T11:08:56.931Z</time></trkpt><trkpt lat="43.4816774" lon="12.7695647"><ele>439.0</ele><time>2026-03-08T11:08:57.931Z</time></trkpt><trkpt lat="43.4817735" lon="12.7696765"><ele>439.0</ele><time>2026-03-08T11:08:58.931Z</time></trkpt><trkpt lat="43.4818779" lon="12.7697896"><ele>439.0</ele><time>2026-03-08T11:08:59.931Z</time></trkpt><trkpt lat="43.4819822" lon="12.7698966"><ele>439.0</ele><time>2026-03-08T11:09:00.931Z</time></trkpt><trkpt lat="43.4820887" lon="12.7699948"><ele>439.0</ele><time>2026-03-08T11:09:01.931Z</time></trkpt><trkpt lat="43.4823108" lon="12.7701723"><ele>440.0</ele><time>2026-03-08T11:09:03.931Z</time></trkpt><trkpt lat="43.4824204" lon="12.7702724"><ele>441.0</ele><time>2026-03-08T11:09:04.932Z</time></trkpt><trkpt lat="43.4825069" lon="12.7703739"><ele>442.0</ele><time>2026-03-08T11:09:05.931Z</time></trkpt><trkpt lat="43.4825914" lon="12.7704743"><ele>443.0</ele><time>2026-03-08T11:09:06.931Z</time></trkpt><trkpt lat="43.482684" lon="12.7706032"><ele>443.0</ele><time>2026-03-08T11:09:07.931Z</time></trkpt><trkpt lat="43.4827762" lon="12.7707277"><ele>443.0</ele><time>2026-03-08T11:09:08.931Z</time></trkpt><trkpt lat="43.4828725" lon="12.7708652"><ele>443.0</ele><time>2026-03-08T11:09:09.931Z</time></trkpt><trkpt lat="43.4829653" lon="12.7709918"><ele>443.0</ele><time>2026-03-08T11:09:10.932Z</time></trkpt><trkpt lat="43.4831574" lon="12.7712858"><ele>446.75</ele><time>2026-03-08T11:09:12.932Z</time></trkpt><trkpt lat="43.4832333" lon="12.7714058"><ele>450.5</ele><time>2026-03-08T11:09:13.931Z</time></trkpt><trkpt lat="43.4833045" lon="12.7715476"><ele>454.25</ele><time>2026-03-08T11:09:14.931Z</time></trkpt><trkpt lat="43.4833707" lon="12.771704"><ele>458.0</ele><time>2026-03-08T11:09:15.931Z</time></trkpt><trkpt lat="43.4834383" lon="12.771851"><ele>454.0</ele><time>2026-03-08T11:09:16.932Z</time></trkpt><trkpt lat="43.4834635" lon="12.7720146"><ele>450.0</ele><time>2026-03-08T11:09:17.933Z</time></trkpt><trkpt lat="43.4835071" lon="12.7721753"><ele>446.0</ele><time>2026-03-08T11:09:18.932Z</time></trkpt><trkpt lat="43.4835645" lon="12.7723533"><ele>442.0</ele><time>2026-03-08T11:09:19.931Z</time></trkpt><trkpt lat="43.483731" lon="12.7726028"><ele>445.25</ele><time>2026-03-08T11:09:21.931Z</time></trkpt><trkpt lat="43.4838269" lon="12.7726851"><ele>448.5</ele><time>2026-03-08T11:09:22.931Z</time></trkpt><trkpt lat="43.48395" lon="12.7727399"><ele>451.75</ele><time>2026-03-08T11:09:23.931Z</time></trkpt><trkpt lat="43.4840552" lon="12.7728375"><ele>455.0</ele><time>2026-03-08T11:09:24.931Z</time></trkpt><trkpt lat="43.4841331" lon="12.7729299"><ele>455.0</ele><time>2026-03-08T11:09:25.931Z</time></trkpt><trkpt lat="43.484248" lon="12.7730269"><ele>455.0</ele><time>2026-03-08T11:09:26.932Z</time></trkpt><trkpt lat="43.4843525" lon="12.7731078"><ele>455.0</ele><time>2026-03-08T11:09:27.932Z</time></trkpt><trkpt lat="43.4844666" lon="12.7732173"><ele>455.0</ele><time>2026-03-08T11:09:28.931Z</time></trkpt><trkpt lat="43.4845756" lon="12.7733234"><ele>455.5</ele><time>2026-03-08T11:09:29.931Z</time></trkpt><trkpt lat="43.4846812" lon="12.7734359"><ele>456.0</ele><time>2026-03-08T11:09:30.931Z</time></trkpt><trkpt lat="43.4847891" lon="12.7735265"><ele>456.5</ele><time>2026-03-08T11:09:31.931Z</time></trkpt><trkpt lat="43.4849127" lon="12.7736209"><ele>457.0</ele><time>2026-03-08T11:09:32.931Z</time></trkpt><trkpt lat="43.4850389" lon="12.7736919"><ele>457.0</ele><time>2026-03-08T11:09:33.931Z</time></trkpt><trkpt lat="43.4851624" lon="12.7737632"><ele>457.0</ele><time>2026-03-08T11:09:34.931Z</time></trkpt><trkpt lat="43.4853062" lon="12.7738161"><ele>457.0</ele><time>2026-03-08T11:09:35.93Z</time></trkpt><trkpt lat="43.4854379" lon="12.773862"><ele>457.0</ele><time>2026-03-08T11:09:36.931Z</time></trkpt><trkpt lat="43.4855723" lon="12.7739237"><ele>462.25</ele><time>2026-03-08T11:09:37.931Z</time></trkpt><trkpt lat="43.4856971" lon="12.7739593"><ele>467.5</ele><time>2026-03-08T11:09:38.932Z</time></trkpt><trkpt lat="43.4858272" lon="12.7739927"><ele>472.75</ele><time>2026-03-08T11:09:39.932Z</time></trkpt><trkpt lat="43.4859481" lon="12.7740097"><ele>478.0</ele><time>2026-03-08T11:09:40.931Z</time></trkpt><trkpt lat="43.48607" lon="12.7740394"><ele>478.0</ele><time>2026-03-08T11:09:41.931Z</time></trkpt><trkpt lat="43.4862241" lon="12.7740624"><ele>478.0</ele><time>2026-03-08T11:09:42.931Z</time></trkpt><trkpt lat="43.4863668" lon="12.7740835"><ele>478.0</ele><time>2026-03-08T11:09:43.931Z</time></trkpt><trkpt lat="43.4865087" lon="12.7740937"><ele>478.0</ele><time>2026-03-08T11:09:44.931Z</time></trkpt><trkpt lat="43.4866432" lon="12.7741063"><ele>481.0</ele><time>2026-03-08T11:09:45.931Z</time></trkpt><trkpt lat="43.4867816" lon="12.7741221"><ele>484.0</ele><time>2026-03-08T11:09:46.931Z</time></trkpt><trkpt lat="43.4870426" lon="12.7741348"><ele>487.0</ele><time>2026-03-08T11:09:48.931Z</time></trkpt><trkpt lat="43.4871904" lon="12.7741215"><ele>487.0</ele><time>2026-03-08T11:09:49.932Z</time></trkpt><trkpt lat="43.4873521" lon="12.7741166"><ele>487.0</ele><time>2026-03-08T11:09:50.932Z</time></trkpt><trkpt lat="43.4874585" lon="12.7740734"><ele>487.0</ele><time>2026-03-08T11:09:51.931Z</time></trkpt><trkpt lat="43.4875813" lon="12.7740228"><ele>487.0</ele><time>2026-03-08T11:09:52.931Z</time></trkpt><trkpt lat="43.4877106" lon="12.7739513"><ele>487.0</ele><time>2026-03-08T11:09:53.931Z</time></trkpt><trkpt lat="43.4878422" lon="12.7738747"><ele>487.0</ele><time>2026-03-08T11:09:54.932Z</time></trkpt><trkpt lat="43.4880551" lon="12.7736664"><ele>487.0</ele><time>2026-03-08T11:09:56.931Z</time></trkpt><trkpt lat="43.4881459" lon="12.7735242"><ele>491.0</ele><time>2026-03-08T11:09:57.932Z</time></trkpt><trkpt lat="43.4882328" lon="12.7733676"><ele>495.0</ele><time>2026-03-08T11:09:58.932Z</time></trkpt><trkpt lat="43.4883174" lon="12.7732131"><ele>499.0</ele><time>2026-03-08T11:09:59.931Z</time></trkpt><trkpt lat="43.4883915" lon="12.7730561"><ele>503.0</ele><time>2026-03-08T11:10:00.931Z</time></trkpt><trkpt lat="43.4884823" lon="12.7729151"><ele>503.0</ele><time>2026-03-08T11:10:01.931Z</time></trkpt><trkpt lat="43.4885763" lon="12.772795"><ele>503.0</ele><time>2026-03-08T11:10:02.932Z</time></trkpt><trkpt lat="43.4886767" lon="12.7726381"><ele>503.0</ele><time>2026-03-08T11:10:03.932Z</time></trkpt><trkpt lat="43.4888907" lon="12.7723288"><ele>502.75</ele><time>2026-03-08T11:10:05.931Z</time></trkpt><trkpt lat="43.4889845" lon="12.7721951"><ele>502.5</ele><time>2026-03-08T11:10:06.931Z</time></trkpt><trkpt lat="43.4890734" lon="12.77206"><ele>502.25</ele><time>2026-03-08T11:10:07.932Z</time></trkpt><trkpt lat="43.4891363" lon="12.771936"><ele>502.0</ele><time>2026-03-08T11:10:08.931Z</time></trkpt><trkpt lat="43.4892276" lon="12.771784"><ele>504.0</ele><time>2026-03-08T11:10:09.932Z</time></trkpt><trkpt lat="43.4893221" lon="12.7716395"><ele>506.0</ele><time>2026-03-08T11:10:10.931Z</time></trkpt><trkpt lat="43.4894112" lon="12.7715042"><ele>508.0</ele><time>2026-03-08T11:10:11.931Z</time></trkpt><trkpt lat="43.4895084" lon="12.7713856"><ele>510.0</ele><time>2026-03-08T11:10:12.931Z</time></trkpt><trkpt lat="43.4896389" lon="12.7711802"><ele>510.0</ele><time>2026-03-08T11:10:14.931Z</time></trkpt><trkpt lat="43.4897305" lon="12.7710747"><ele>510.0</ele><time>2026-03-08T11:10:15.931Z</time></trkpt><trkpt lat="43.4897873" lon="12.7710091"><ele>510.0</ele><time>2026-03-08T11:10:16.931Z</time></trkpt><trkpt lat="43.4898539" lon="12.7709559"><ele>510.0</ele><time>2026-03-08T11:10:17.932Z</time></trkpt><trkpt lat="43.4899279" lon="12.7709051"><ele>510.0</ele><time>2026-03-08T11:10:18.932Z</time></trkpt><trkpt lat="43.4900018" lon="12.7708868"><ele>510.0</ele><time>2026-03-08T11:10:19.931Z</time></trkpt><trkpt lat="43.4900699" lon="12.7708486"><ele>511.5</ele><time>2026-03-08T11:10:21.931Z</time></trkpt><trkpt lat="43.4901478" lon="12.770736"><ele>513.0</ele><time>2026-03-08T11:10:24.931Z</time></trkpt><trkpt lat="43.4901544" lon="12.7706402"><ele>514.5</ele><time>2026-03-08T11:10:25.931Z</time></trkpt><trkpt lat="43.4901556" lon="12.7705198"><ele>516.0</ele><time>2026-03-08T11:10:26.931Z</time></trkpt><trkpt lat="43.4901429" lon="12.7704031"><ele>517.5</ele><time>2026-03-08T11:10:27.931Z</time></trkpt><trkpt lat="43.4901446" lon="12.7702835"><ele>519.0</ele><time>2026-03-08T11:10:28.931Z</time></trkpt><trkpt lat="43.4901605" lon="12.7701431"><ele>519.0</ele><time>2026-03-08T11:10:29.931Z</time></trkpt><trkpt lat="43.4901903" lon="12.7699837"><ele>519.0</ele><time>2026-03-08T11:10:30.931Z</time></trkpt><trkpt lat="43.4902372" lon="12.76964"><ele>519.0</ele><time>2026-03-08T11:10:32.931Z</time></trkpt><trkpt lat="43.4902597" lon="12.7694788"><ele>520.5</ele><time>2026-03-08T11:10:33.931Z</time></trkpt><trkpt lat="43.4902837" lon="12.7693079"><ele>522.0</ele><time>2026-03-08T11:10:34.931Z</time></trkpt><trkpt lat="43.4903056" lon="12.7691311"><ele>523.5</ele><time>2026-03-08T11:10:35.931Z</time></trkpt><trkpt lat="43.4903331" lon="12.768926"><ele>525.0</ele><time>2026-03-08T11:10:36.931Z</time></trkpt><trkpt lat="43.4903694" lon="12.7687203"><ele>525.0</ele><time>2026-03-08T11:10:37.931Z</time></trkpt><trkpt lat="43.4903929" lon="12.7685724"><ele>525.0</ele><time>2026-03-08T11:10:38.931Z</time></trkpt><trkpt lat="43.4904263" lon="12.7683995"><ele>525.0</ele><time>2026-03-08T11:10:39.931Z</time></trkpt><trkpt lat="43.4905394" lon="12.7681478"><ele>517.0</ele><time>2026-03-08T11:10:41.932Z</time></trkpt><trkpt lat="43.4906806" lon="12.7680317"><ele>509.0</ele><time>2026-03-08T11:10:42.931Z</time></trkpt><trkpt lat="43.4908064" lon="12.7679526"><ele>501.0</ele><time>2026-03-08T11:10:43.932Z</time></trkpt><trkpt lat="43.4909593" lon="12.7679653"><ele>501.0</ele><time>2026-03-08T11:10:44.931Z</time></trkpt><trkpt lat="43.4910877" lon="12.7679845"><ele>501.0</ele><time>2026-03-08T11:10:45.931Z</time></trkpt><trkpt lat="43.4912643" lon="12.7680018"><ele>501.0</ele><time>2026-03-08T11:10:46.931Z</time></trkpt><trkpt lat="43.4914427" lon="12.7680324"><ele>497.5</ele><time>2026-03-08T11:10:47.931Z</time></trkpt><trkpt lat="43.4916106" lon="12.7680574"><ele>494.0</ele><time>2026-03-08T11:10:48.931Z</time></trkpt><trkpt lat="43.491965" lon="12.7681249"><ele>493.3333333333333</ele><time>2026-03-08T11:10:50.931Z</time></trkpt><trkpt lat="43.4921141" lon="12.7682268"><ele>492.66666666666663</ele><time>2026-03-08T11:10:51.931Z</time></trkpt><trkpt lat="43.4922651" lon="12.7682637"><ele>492.0</ele><time>2026-03-08T11:10:52.932Z</time></trkpt><trkpt lat="43.4924384" lon="12.7682924"><ele>492.0</ele><time>2026-03-08T11:10:53.931Z</time></trkpt><trkpt lat="43.4925794" lon="12.7683074"><ele>492.0</ele><time>2026-03-08T11:10:54.931Z</time></trkpt><trkpt lat="43.4927591" lon="12.7682569"><ele>492.0</ele><time>2026-03-08T11:10:55.931Z</time></trkpt><trkpt lat="43.4929177" lon="12.7682426"><ele>488.33333333333337</ele><time>2026-03-08T11:10:56.931Z</time></trkpt><trkpt lat="43.4930905" lon="12.7682288"><ele>484.6666666666667</ele><time>2026-03-08T11:10:57.931Z</time></trkpt><trkpt lat="43.4933086" lon="12.7682103"><ele>481.0</ele><time>2026-03-08T11:10:59.931Z</time></trkpt><trkpt lat="43.4934501" lon="12.7681792"><ele>481.0</ele><time>2026-03-08T11:11:00.931Z</time></trkpt><trkpt lat="43.4936181" lon="12.7681485"><ele>481.0</ele><time>2026-03-08T11:11:01.931Z</time></trkpt><trkpt lat="43.4937372" lon="12.7681658"><ele>481.0</ele><time>2026-03-08T11:11:02.932Z</time></trkpt><trkpt lat="43.4938874" lon="12.7681909"><ele>481.0</ele><time>2026-03-08T11:11:03.931Z</time></trkpt><trkpt lat="43.494031" lon="12.7682525"><ele>481.0</ele><time>2026-03-08T11:11:04.931Z</time></trkpt><trkpt lat="43.494137" lon="12.7682924"><ele>481.0</ele><time>2026-03-08T11:11:05.932Z</time></trkpt><trkpt lat="43.4942572" lon="12.7683299"><ele>481.0</ele><time>2026-03-08T11:11:06.931Z</time></trkpt><trkpt lat="43.4943503" lon="12.768346"><ele>481.0</ele><time>2026-03-08T11:11:07.931Z</time></trkpt><trkpt lat="43.4944633" lon="12.7683732"><ele>481.0</ele><time>2026-03-08T11:11:08.931Z</time></trkpt><trkpt lat="43.494556" lon="12.7683767"><ele>479.25</ele><time>2026-03-08T11:11:09.931Z</time></trkpt><trkpt lat="43.4946727" lon="12.768351"><ele>477.5</ele><time>2026-03-08T11:11:10.932Z</time></trkpt><trkpt lat="43.4947896" lon="12.7682965"><ele>475.75</ele><time>2026-03-08T11:11:11.931Z</time></trkpt><trkpt lat="43.4948687" lon="12.7682169"><ele>474.0</ele><time>2026-03-08T11:11:12.931Z</time></trkpt><trkpt lat="43.4949723" lon="12.7681137"><ele>474.0</ele><time>2026-03-08T11:11:13.933Z</time></trkpt><trkpt lat="43.4950655" lon="12.7679758"><ele>474.0</ele><time>2026-03-08T11:11:14.931Z</time></trkpt><trkpt lat="43.495195" lon="12.7676272"><ele>474.0</ele><time>2026-03-08T11:11:16.931Z</time></trkpt><trkpt lat="43.4953806" lon="12.7670254"><ele>473.75</ele><time>2026-03-08T11:11:19.931Z</time></trkpt><trkpt lat="43.4954449" lon="12.7668171"><ele>473.5</ele><time>2026-03-08T11:11:20.931Z</time></trkpt><trkpt lat="43.4954924" lon="12.7666342"><ele>473.25</ele><time>2026-03-08T11:11:21.931Z</time></trkpt><trkpt lat="43.4955429" lon="12.7664505"><ele>473.0</ele><time>2026-03-08T11:11:22.932Z</time></trkpt><trkpt lat="43.4955815" lon="12.766269"><ele>473.0</ele><time>2026-03-08T11:11:23.931Z</time></trkpt><trkpt lat="43.4956298" lon="12.7660947"><ele>473.0</ele><time>2026-03-08T11:11:24.931Z</time></trkpt><trkpt lat="43.4956684" lon="12.7659085"><ele>473.0</ele><time>2026-03-08T11:11:25.931Z</time></trkpt><trkpt lat="43.4957303" lon="12.7657202"><ele>473.0</ele><time>2026-03-08T11:11:26.931Z</time></trkpt><trkpt lat="43.4960299" lon="12.7651734"><ele>472.66666666666663</ele><time>2026-03-08T11:11:29.931Z</time></trkpt><trkpt lat="43.4961344" lon="12.7649952"><ele>472.33333333333337</ele><time>2026-03-08T11:11:30.931Z</time></trkpt><trkpt lat="43.4962283" lon="12.7648153"><ele>472.0</ele><time>2026-03-08T11:11:31.931Z</time></trkpt><trkpt lat="43.496324" lon="12.7646198"><ele>472.0</ele><time>2026-03-08T11:11:32.931Z</time></trkpt><trkpt lat="43.4964079" lon="12.7645476"><ele>472.0</ele><time>2026-03-08T11:11:33.931Z</time></trkpt><trkpt lat="43.4965021" lon="12.7643729"><ele>472.0</ele><time>2026-03-08T11:11:34.932Z</time></trkpt><trkpt lat="43.4966186" lon="12.7642039"><ele>472.0</ele><time>2026-03-08T11:11:35.931Z</time></trkpt><trkpt lat="43.4967213" lon="12.7640123"><ele>471.5</ele><time>2026-03-08T11:11:36.931Z</time></trkpt><trkpt lat="43.4969276" lon="12.763664"><ele>471.0</ele><time>2026-03-08T11:11:38.932Z</time></trkpt><trkpt lat="43.4970333" lon="12.7634736"><ele>467.66666666666663</ele><time>2026-03-08T11:11:39.931Z</time></trkpt><trkpt lat="43.4971325" lon="12.7632992"><ele>464.3333333333333</ele><time>2026-03-08T11:11:40.932Z</time></trkpt><trkpt lat="43.497229" lon="12.7631269"><ele>461.0</ele><time>2026-03-08T11:11:41.931Z</time></trkpt><trkpt lat="43.4972804" lon="12.7629533"><ele>461.0</ele><time>2026-03-08T11:11:42.931Z</time></trkpt><trkpt lat="43.4973657" lon="12.7627947"><ele>461.0</ele><time>2026-03-08T11:11:43.931Z</time></trkpt><trkpt lat="43.4974698" lon="12.7626373"><ele>461.0</ele><time>2026-03-08T11:11:44.932Z</time></trkpt><trkpt lat="43.4975953" lon="12.7625229"><ele>461.0</ele><time>2026-03-08T11:11:45.931Z</time></trkpt><trkpt lat="43.4977252" lon="12.7623959"><ele>461.0</ele><time>2026-03-08T11:11:46.932Z</time></trkpt><trkpt lat="43.4978618" lon="12.7622919"><ele>461.0</ele><time>2026-03-08T11:11:47.931Z</time></trkpt><trkpt lat="43.4980094" lon="12.7622052"><ele>461.0</ele><time>2026-03-08T11:11:48.932Z</time></trkpt><trkpt lat="43.4983294" lon="12.7619869"><ele>461.0</ele><time>2026-03-08T11:11:50.932Z</time></trkpt><trkpt lat="43.4984658" lon="12.7618704"><ele>461.0</ele><time>2026-03-08T11:11:51.932Z</time></trkpt><trkpt lat="43.4985883" lon="12.7617632"><ele>461.0</ele><time>2026-03-08T11:11:52.932Z</time></trkpt><trkpt lat="43.4987186" lon="12.7616784"><ele>460.25</ele><time>2026-03-08T11:11:53.932Z</time></trkpt><trkpt lat="43.4988389" lon="12.7615884"><ele>459.5</ele><time>2026-03-08T11:11:54.932Z</time></trkpt><trkpt lat="43.4989543" lon="12.7614755"><ele>458.75</ele><time>2026-03-08T11:11:55.932Z</time></trkpt><trkpt lat="43.4990704" lon="12.7613542"><ele>458.0</ele><time>2026-03-08T11:11:56.933Z</time></trkpt><trkpt lat="43.4991817" lon="12.7612383"><ele>458.0</ele><time>2026-03-08T11:11:57.932Z</time></trkpt><trkpt lat="43.499294" lon="12.761117"><ele>458.0</ele><time>2026-03-08T11:11:58.932Z</time></trkpt><trkpt lat="43.4994074" lon="12.7609955"><ele>458.0</ele><time>2026-03-08T11:11:59.932Z</time></trkpt><trkpt lat="43.499514" lon="12.7608733"><ele>458.0</ele><time>2026-03-08T11:12:00.932Z</time></trkpt><trkpt lat="43.4996099" lon="12.7607435"><ele>458.0</ele><time>2026-03-08T11:12:01.933Z</time></trkpt><trkpt lat="43.4997047" lon="12.7606102"><ele>458.0</ele><time>2026-03-08T11:12:02.933Z</time></trkpt><trkpt lat="43.4998059" lon="12.7604624"><ele>458.0</ele><time>2026-03-08T11:12:03.932Z</time></trkpt><trkpt lat="43.4998975" lon="12.7603202"><ele>458.0</ele><time>2026-03-08T11:12:04.932Z</time></trkpt><trkpt lat="43.4999862" lon="12.7601966"><ele>458.0</ele><time>2026-03-08T11:12:05.932Z</time></trkpt><trkpt lat="43.500073" lon="12.7600723"><ele>458.0</ele><time>2026-03-08T11:12:06.932Z</time></trkpt><trkpt lat="43.5002478" lon="12.7597877"><ele>458.0</ele><time>2026-03-08T11:12:08.932Z</time></trkpt><trkpt lat="43.5003245" lon="12.7596129"><ele>458.0</ele><time>2026-03-08T11:12:09.932Z</time></trkpt><trkpt lat="43.5004038" lon="12.7594345"><ele>458.0</ele><time>2026-03-08T11:12:10.932Z</time></trkpt><trkpt lat="43.5004882" lon="12.7592393"><ele>458.0</ele><time>2026-03-08T11:12:11.933Z</time></trkpt><trkpt lat="43.5005663" lon="12.7590424"><ele>457.66666666666663</ele><time>2026-03-08T11:12:12.932Z</time></trkpt><trkpt lat="43.5006509" lon="12.7588416"><ele>457.33333333333337</ele><time>2026-03-08T11:12:13.932Z</time></trkpt><trkpt lat="43.5007264" lon="12.758672"><ele>457.0</ele><time>2026-03-08T11:12:14.932Z</time></trkpt><trkpt lat="43.5008145" lon="12.758511"><ele>457.6666666666667</ele><time>2026-03-08T11:12:15.932Z</time></trkpt><trkpt lat="43.5009112" lon="12.758356"><ele>458.33333333333337</ele><time>2026-03-08T11:12:16.933Z</time></trkpt><trkpt lat="43.5010283" lon="12.7582206"><ele>459.0</ele><time>2026-03-08T11:12:17.932Z</time></trkpt><trkpt lat="43.5011616" lon="12.7581044"><ele>458.66666666666663</ele><time>2026-03-08T11:12:18.932Z</time></trkpt><trkpt lat="43.5013044" lon="12.7579947"><ele>458.3333333333333</ele><time>2026-03-08T11:12:19.932Z</time></trkpt><trkpt lat="43.5014376" lon="12.7579241"><ele>458.0</ele><time>2026-03-08T11:12:20.933Z</time></trkpt><trkpt lat="43.5015724" lon="12.7578255"><ele>458.0</ele><time>2026-03-08T11:12:21.932Z</time></trkpt><trkpt lat="43.501701" lon="12.7577244"><ele>458.0</ele><time>2026-03-08T11:12:22.933Z</time></trkpt><trkpt lat="43.5018206" lon="12.757626"><ele>458.0</ele><time>2026-03-08T11:12:23.932Z</time></trkpt><trkpt lat="43.5019323" lon="12.7575399"><ele>458.0</ele><time>2026-03-08T11:12:24.933Z</time></trkpt><trkpt lat="43.5020478" lon="12.7574391"><ele>462.5</ele><time>2026-03-08T11:12:25.932Z</time></trkpt><trkpt lat="43.5021494" lon="12.7573276"><ele>467.0</ele><time>2026-03-08T11:12:26.932Z</time></trkpt><trkpt lat="43.5022548" lon="12.757206"><ele>471.5</ele><time>2026-03-08T11:12:27.932Z</time></trkpt><trkpt lat="43.5023364" lon="12.7570794"><ele>476.0</ele><time>2026-03-08T11:12:28.932Z</time></trkpt><trkpt lat="43.5023964" lon="12.7569195"><ele>475.5</ele><time>2026-03-08T11:12:29.932Z</time></trkpt><trkpt lat="43.502487" lon="12.7567595"><ele>475.0</ele><time>2026-03-08T11:12:30.933Z</time></trkpt><trkpt lat="43.5025824" lon="12.7565884"><ele>474.5</ele><time>2026-03-08T11:12:31.932Z</time></trkpt><trkpt lat="43.5026702" lon="12.756435"><ele>474.0</ele><time>2026-03-08T11:12:32.932Z</time></trkpt><trkpt lat="43.5027589" lon="12.756255"><ele>476.33333333333337</ele><time>2026-03-08T11:12:33.932Z</time></trkpt><trkpt lat="43.5029547" lon="12.7559446"><ele>478.6666666666667</ele><time>2026-03-08T11:12:35.932Z</time></trkpt><trkpt lat="43.503045" lon="12.7557893"><ele>481.0</ele><time>2026-03-08T11:12:36.932Z</time></trkpt><trkpt lat="43.5031161" lon="12.755649"><ele>481.0</ele><time>2026-03-08T11:12:37.932Z</time></trkpt><trkpt lat="43.5031903" lon="12.7555115"><ele>481.0</ele><time>2026-03-08T11:12:38.933Z</time></trkpt><trkpt lat="43.5032466" lon="12.7553565"><ele>481.0</ele><time>2026-03-08T11:12:39.932Z</time></trkpt><trkpt lat="43.5032981" lon="12.7552008"><ele>481.0</ele><time>2026-03-08T11:12:40.932Z</time></trkpt><trkpt lat="43.5033418" lon="12.7550377"><ele>480.6666666666667</ele><time>2026-03-08T11:12:41.933Z</time></trkpt><trkpt lat="43.5033917" lon="12.7548486"><ele>480.33333333333337</ele><time>2026-03-08T11:12:42.932Z</time></trkpt><trkpt lat="43.503461" lon="12.7546573"><ele>480.0</ele><time>2026-03-08T11:12:43.932Z</time></trkpt><trkpt lat="43.5035217" lon="12.7544578"><ele>480.0</ele><time>2026-03-08T11:12:44.932Z</time></trkpt><trkpt lat="43.5035874" lon="12.754255"><ele>480.0</ele><time>2026-03-08T11:12:45.932Z</time></trkpt><trkpt lat="43.5036469" lon="12.7540602"><ele>480.0</ele><time>2026-03-08T11:12:46.932Z</time></trkpt><trkpt lat="43.5037083" lon="12.7538692"><ele>477.0</ele><time>2026-03-08T11:12:47.932Z</time></trkpt><trkpt lat="43.5037779" lon="12.7536966"><ele>474.0</ele><time>2026-03-08T11:12:48.932Z</time></trkpt><trkpt lat="43.5038574" lon="12.7535273"><ele>471.0</ele><time>2026-03-08T11:12:49.933Z</time></trkpt><trkpt lat="43.5039551" lon="12.7533714"><ele>468.0</ele><time>2026-03-08T11:12:50.932Z</time></trkpt><trkpt lat="43.5040686" lon="12.7532339"><ele>467.75</ele><time>2026-03-08T11:12:51.933Z</time></trkpt><trkpt lat="43.5041916" lon="12.7531258"><ele>467.5</ele><time>2026-03-08T11:12:52.932Z</time></trkpt><trkpt lat="43.5043162" lon="12.7530571"><ele>467.25</ele><time>2026-03-08T11:12:53.932Z</time></trkpt><trkpt lat="43.5044595" lon="12.7529829"><ele>467.0</ele><time>2026-03-08T11:12:54.932Z</time></trkpt><trkpt lat="43.5046352" lon="12.7529176"><ele>465.0</ele><time>2026-03-08T11:12:55.932Z</time></trkpt><trkpt lat="43.5048096" lon="12.7528812"><ele>463.0</ele><time>2026-03-08T11:12:56.932Z</time></trkpt><trkpt lat="43.504939" lon="12.7528541"><ele>461.0</ele><time>2026-03-08T11:12:57.932Z</time></trkpt><trkpt lat="43.505097" lon="12.7528232"><ele>461.0</ele><time>2026-03-08T11:12:58.932Z</time></trkpt><trkpt lat="43.5052398" lon="12.7527526"><ele>461.0</ele><time>2026-03-08T11:12:59.932Z</time></trkpt><trkpt lat="43.50538" lon="12.7526684"><ele>461.0</ele><time>2026-03-08T11:13:00.933Z</time></trkpt><trkpt lat="43.5054818" lon="12.7525736"><ele>461.0</ele><time>2026-03-08T11:13:01.932Z</time></trkpt><trkpt lat="43.5055756" lon="12.7524265"><ele>459.0</ele><time>2026-03-08T11:13:02.932Z</time></trkpt><trkpt lat="43.5056555" lon="12.7522356"><ele>457.0</ele><time>2026-03-08T11:13:03.932Z</time></trkpt><trkpt lat="43.5057292" lon="12.7520248"><ele>455.0</ele><time>2026-03-08T11:13:04.932Z</time></trkpt><trkpt lat="43.5058057" lon="12.751791"><ele>455.0</ele><time>2026-03-08T11:13:05.932Z</time></trkpt><trkpt lat="43.5058656" lon="12.7516023"><ele>455.0</ele><time>2026-03-08T11:13:06.932Z</time></trkpt><trkpt lat="43.5059483" lon="12.7513876"><ele>455.0</ele><time>2026-03-08T11:13:07.932Z</time></trkpt><trkpt lat="43.5060309" lon="12.7511728"><ele>455.0</ele><time>2026-03-08T11:13:08.932Z</time></trkpt><trkpt lat="43.506117" lon="12.7509527"><ele>455.0</ele><time>2026-03-08T11:13:09.932Z</time></trkpt><trkpt lat="43.506205" lon="12.7507278"><ele>455.0</ele><time>2026-03-08T11:13:10.932Z</time></trkpt><trkpt lat="43.5063061" lon="12.7505289"><ele>451.66666666666663</ele><time>2026-03-08T11:13:11.933Z</time></trkpt><trkpt lat="43.5064151" lon="12.7503531"><ele>448.33333333333337</ele><time>2026-03-08T11:13:12.932Z</time></trkpt><trkpt lat="43.5065001" lon="12.7501455"><ele>445.0</ele><time>2026-03-08T11:13:13.933Z</time></trkpt><trkpt lat="43.5065976" lon="12.7499353"><ele>445.0</ele><time>2026-03-08T11:13:14.933Z</time></trkpt><trkpt lat="43.5066996" lon="12.7497167"><ele>445.0</ele><time>2026-03-08T11:13:15.933Z</time></trkpt><trkpt lat="43.5067848" lon="12.7495261"><ele>445.0</ele><time>2026-03-08T11:13:16.932Z</time></trkpt><trkpt lat="43.5068679" lon="12.7493319"><ele>444.0</ele><time>2026-03-08T11:13:17.933Z</time></trkpt><trkpt lat="43.5069561" lon="12.7491217"><ele>443.0</ele><time>2026-03-08T11:13:18.933Z</time></trkpt><trkpt lat="43.5070369" lon="12.7488782"><ele>442.0</ele><time>2026-03-08T11:13:19.932Z</time></trkpt><trkpt lat="43.5070843" lon="12.7486413"><ele>437.6666666666667</ele><time>2026-03-08T11:13:20.932Z</time></trkpt><trkpt lat="43.507134" lon="12.7484182"><ele>433.33333333333337</ele><time>2026-03-08T11:13:21.932Z</time></trkpt><trkpt lat="43.5071712" lon="12.7481856"><ele>429.0</ele><time>2026-03-08T11:13:22.932Z</time></trkpt><trkpt lat="43.5071982" lon="12.7479614"><ele>429.0</ele><time>2026-03-08T11:13:23.932Z</time></trkpt><trkpt lat="43.5072099" lon="12.7477468"><ele>429.0</ele><time>2026-03-08T11:13:24.933Z</time></trkpt><trkpt lat="43.5072136" lon="12.7475165"><ele>429.0</ele><time>2026-03-08T11:13:25.932Z</time></trkpt><trkpt lat="43.5072098" lon="12.7472772"><ele>429.66666666666663</ele><time>2026-03-08T11:13:26.932Z</time></trkpt><trkpt lat="43.5072048" lon="12.7470298"><ele>430.3333333333333</ele><time>2026-03-08T11:13:27.933Z</time></trkpt><trkpt lat="43.5071966" lon="12.7468234"><ele>431.0</ele><time>2026-03-08T11:13:28.932Z</time></trkpt><trkpt lat="43.5071879" lon="12.7465953"><ele>431.0</ele><time>2026-03-08T11:13:29.933Z</time></trkpt><trkpt lat="43.5071694" lon="12.7463829"><ele>431.0</ele><time>2026-03-08T11:13:30.932Z</time></trkpt><trkpt lat="43.5071411" lon="12.7461691"><ele>431.0</ele><time>2026-03-08T11:13:31.932Z</time></trkpt><trkpt lat="43.507101" lon="12.7459608"><ele>437.0</ele><time>2026-03-08T11:13:32.932Z</time></trkpt><trkpt lat="43.507047" lon="12.7457627"><ele>443.0</ele><time>2026-03-08T11:13:33.933Z</time></trkpt><trkpt lat="43.5069999" lon="12.7453709"><ele>449.0</ele><time>2026-03-08T11:13:35.932Z</time></trkpt><trkpt lat="43.5069971" lon="12.745213"><ele>447.25</ele><time>2026-03-08T11:13:36.933Z</time></trkpt><trkpt lat="43.5070111" lon="12.7450337"><ele>445.5</ele><time>2026-03-08T11:13:37.932Z</time></trkpt><trkpt lat="43.5070744" lon="12.7449034"><ele>443.75</ele><time>2026-03-08T11:13:38.932Z</time></trkpt><trkpt lat="43.5071507" lon="12.7447669"><ele>442.0</ele><time>2026-03-08T11:13:39.932Z</time></trkpt><trkpt lat="43.5072549" lon="12.7446731"><ele>440.0</ele><time>2026-03-08T11:13:40.932Z</time></trkpt><trkpt lat="43.5073889" lon="12.7446007"><ele>438.0</ele><time>2026-03-08T11:13:41.932Z</time></trkpt><trkpt lat="43.5075153" lon="12.7445905"><ele>436.0</ele><time>2026-03-08T11:13:42.932Z</time></trkpt><trkpt lat="43.5076267" lon="12.7446388"><ele>434.0</ele><time>2026-03-08T11:13:43.933Z</time></trkpt><trkpt lat="43.5077715" lon="12.7447542"><ele>436.0</ele><time>2026-03-08T11:13:44.932Z</time></trkpt><trkpt lat="43.5079117" lon="12.7448451"><ele>438.0</ele><time>2026-03-08T11:13:45.932Z</time></trkpt><trkpt lat="43.5080465" lon="12.7449417"><ele>440.0</ele><time>2026-03-08T11:13:46.932Z</time></trkpt><trkpt lat="43.5081836" lon="12.7450428"><ele>440.0</ele><time>2026-03-08T11:13:47.932Z</time></trkpt><trkpt lat="43.5083238" lon="12.7451679"><ele>440.0</ele><time>2026-03-08T11:13:48.932Z</time></trkpt><trkpt lat="43.5084563" lon="12.7452805"><ele>440.0</ele><time>2026-03-08T11:13:49.932Z</time></trkpt><trkpt lat="43.5086111" lon="12.745403"><ele>441.0</ele><time>2026-03-08T11:13:50.932Z</time></trkpt><trkpt lat="43.5087245" lon="12.7455381"><ele>442.0</ele><time>2026-03-08T11:13:51.932Z</time></trkpt><trkpt lat="43.5088809" lon="12.7456855"><ele>443.0</ele><time>2026-03-08T11:13:52.933Z</time></trkpt><trkpt lat="43.5090275" lon="12.745819"><ele>443.0</ele><time>2026-03-08T11:13:53.932Z</time></trkpt><trkpt lat="43.5091778" lon="12.7459267"><ele>443.0</ele><time>2026-03-08T11:13:54.933Z</time></trkpt><trkpt lat="43.5093173" lon="12.7460443"><ele>443.0</ele><time>2026-03-08T11:13:55.932Z</time></trkpt><trkpt lat="43.5094536" lon="12.7461626"><ele>441.0</ele><time>2026-03-08T11:13:56.933Z</time></trkpt><trkpt lat="43.5096281" lon="12.7462983"><ele>439.0</ele><time>2026-03-08T11:13:57.933Z</time></trkpt><trkpt lat="43.5097952" lon="12.7464214"><ele>437.0</ele><time>2026-03-08T11:13:58.932Z</time></trkpt><trkpt lat="43.5099884" lon="12.7465181"><ele>437.0</ele><time>2026-03-08T11:13:59.932Z</time></trkpt><trkpt lat="43.5103555" lon="12.7466791"><ele>437.0</ele><time>2026-03-08T11:14:01.932Z</time></trkpt><trkpt lat="43.5105218" lon="12.746735"><ele>437.66666666666663</ele><time>2026-03-08T11:14:02.932Z</time></trkpt><trkpt lat="43.5106998" lon="12.7467907"><ele>438.33333333333337</ele><time>2026-03-08T11:14:03.932Z</time></trkpt><trkpt lat="43.5108796" lon="12.7468348"><ele>439.0</ele><time>2026-03-08T11:14:04.932Z</time></trkpt><trkpt lat="43.5110658" lon="12.7468872"><ele>439.0</ele><time>2026-03-08T11:14:05.932Z</time></trkpt><trkpt lat="43.5112301" lon="12.7469442"><ele>439.0</ele><time>2026-03-08T11:14:06.932Z</time></trkpt><trkpt lat="43.5113746" lon="12.7469787"><ele>439.0</ele><time>2026-03-08T11:14:07.932Z</time></trkpt><trkpt lat="43.5115174" lon="12.7470312"><ele>442.25</ele><time>2026-03-08T11:14:08.933Z</time></trkpt><trkpt lat="43.5116393" lon="12.7470795"><ele>445.5</ele><time>2026-03-08T11:14:09.932Z</time></trkpt><trkpt lat="43.5117758" lon="12.7471184"><ele>448.75</ele><time>2026-03-08T11:14:10.932Z</time></trkpt><trkpt lat="43.5119177" lon="12.7470858"><ele>452.0</ele><time>2026-03-08T11:14:11.933Z</time></trkpt><trkpt lat="43.512053" lon="12.7470246"><ele>454.25</ele><time>2026-03-08T11:14:12.932Z</time></trkpt><trkpt lat="43.5121941" lon="12.7469503"><ele>456.5</ele><time>2026-03-08T11:14:13.934Z</time></trkpt><trkpt lat="43.512309" lon="12.746856"><ele>458.75</ele><time>2026-03-08T11:14:14.932Z</time></trkpt><trkpt lat="43.5124364" lon="12.7467591"><ele>461.0</ele><time>2026-03-08T11:14:15.932Z</time></trkpt><trkpt lat="43.5125343" lon="12.7466458"><ele>461.0</ele><time>2026-03-08T11:14:16.932Z</time></trkpt><trkpt lat="43.512638" lon="12.746508"><ele>461.0</ele><time>2026-03-08T11:14:17.932Z</time></trkpt><trkpt lat="43.5127171" lon="12.746329"><ele>461.0</ele><time>2026-03-08T11:14:18.933Z</time></trkpt><trkpt lat="43.5127822" lon="12.7461498"><ele>461.0</ele><time>2026-03-08T11:14:19.932Z</time></trkpt><trkpt lat="43.5128484" lon="12.7459261"><ele>459.3333333333333</ele><time>2026-03-08T11:14:20.932Z</time></trkpt><trkpt lat="43.5129241" lon="12.7456851"><ele>457.66666666666663</ele><time>2026-03-08T11:14:21.932Z</time></trkpt><trkpt lat="43.5129838" lon="12.7454891"><ele>456.0</ele><time>2026-03-08T11:14:22.932Z</time></trkpt><trkpt lat="43.5130551" lon="12.7452569"><ele>450.66666666666663</ele><time>2026-03-08T11:14:23.932Z</time></trkpt><trkpt lat="43.5131308" lon="12.7450382"><ele>445.3333333333333</ele><time>2026-03-08T11:14:24.933Z</time></trkpt><trkpt lat="43.5132088" lon="12.7448542"><ele>440.0</ele><time>2026-03-08T11:14:25.932Z</time></trkpt><trkpt lat="43.5133702" lon="12.7444492"><ele>438.66666666666663</ele><time>2026-03-08T11:14:27.933Z</time></trkpt><trkpt lat="43.5134536" lon="12.7442384"><ele>437.33333333333337</ele><time>2026-03-08T11:14:28.933Z</time></trkpt><trkpt lat="43.5135512" lon="12.7440387"><ele>436.0</ele><time>2026-03-08T11:14:29.932Z</time></trkpt><trkpt lat="43.5136308" lon="12.7438287"><ele>436.0</ele><time>2026-03-08T11:14:30.933Z</time></trkpt><trkpt lat="43.5137043" lon="12.7436309"><ele>436.0</ele><time>2026-03-08T11:14:31.934Z</time></trkpt><trkpt lat="43.5137739" lon="12.7434432"><ele>436.0</ele><time>2026-03-08T11:14:32.932Z</time></trkpt><trkpt lat="43.5138401" lon="12.7432443"><ele>430.6666666666667</ele><time>2026-03-08T11:14:33.932Z</time></trkpt><trkpt lat="43.5138915" lon="12.743057"><ele>425.33333333333337</ele><time>2026-03-08T11:14:34.932Z</time></trkpt><trkpt lat="43.5140162" lon="12.7427047"><ele>420.0</ele><time>2026-03-08T11:14:36.933Z</time></trkpt><trkpt lat="43.5140835" lon="12.7425416"><ele>419.75</ele><time>2026-03-08T11:14:37.932Z</time></trkpt><trkpt lat="43.5141472" lon="12.7423628"><ele>419.5</ele><time>2026-03-08T11:14:38.932Z</time></trkpt><trkpt lat="43.5141979" lon="12.7421948"><ele>419.25</ele><time>2026-03-08T11:14:39.932Z</time></trkpt><trkpt lat="43.5142089" lon="12.7420243"><ele>419.0</ele><time>2026-03-08T11:14:40.932Z</time></trkpt><trkpt lat="43.5142233" lon="12.7418298"><ele>418.66666666666663</ele><time>2026-03-08T11:14:41.932Z</time></trkpt><trkpt lat="43.514225" lon="12.7416341"><ele>418.33333333333337</ele><time>2026-03-08T11:14:42.932Z</time></trkpt><trkpt lat="43.5142252" lon="12.7414346"><ele>418.0</ele><time>2026-03-08T11:14:43.932Z</time></trkpt><trkpt lat="43.5142135" lon="12.7412103"><ele>418.0</ele><time>2026-03-08T11:14:44.932Z</time></trkpt><trkpt lat="43.5141833" lon="12.7409656"><ele>418.0</ele><time>2026-03-08T11:14:45.932Z</time></trkpt><trkpt lat="43.5141823" lon="12.7407264"><ele>418.0</ele><time>2026-03-08T11:14:46.932Z</time></trkpt><trkpt lat="43.5141609" lon="12.7404943"><ele>418.0</ele><time>2026-03-08T11:14:47.933Z</time></trkpt><trkpt lat="43.5141427" lon="12.7402734"><ele>418.0</ele><time>2026-03-08T11:14:48.932Z</time></trkpt><trkpt lat="43.5141287" lon="12.7400701"><ele>418.0</ele><time>2026-03-08T11:14:49.932Z</time></trkpt><trkpt lat="43.5141069" lon="12.7398682"><ele>417.5</ele><time>2026-03-08T11:14:50.933Z</time></trkpt><trkpt lat="43.5140943" lon="12.73968"><ele>417.0</ele><time>2026-03-08T11:14:51.932Z</time></trkpt><trkpt lat="43.5140829" lon="12.7395039"><ele>416.5</ele><time>2026-03-08T11:14:52.933Z</time></trkpt><trkpt lat="43.5140594" lon="12.7393266"><ele>416.0</ele><time>2026-03-08T11:14:53.933Z</time></trkpt><trkpt lat="43.5140521" lon="12.7391622"><ele>415.4</ele><time>2026-03-08T11:14:54.932Z</time></trkpt><trkpt lat="43.5140291" lon="12.7389922"><ele>414.8</ele><time>2026-03-08T11:14:55.933Z</time></trkpt><trkpt lat="43.5140165" lon="12.7388784"><ele>414.2</ele><time>2026-03-08T11:14:56.932Z</time></trkpt><trkpt lat="43.5139915" lon="12.7387441"><ele>413.59999999999997</ele><time>2026-03-08T11:14:57.932Z</time></trkpt><trkpt lat="43.5139772" lon="12.7386423"><ele>413.0</ele><time>2026-03-08T11:14:58.932Z</time></trkpt><trkpt lat="43.5139681" lon="12.7385491"><ele>413.0</ele><time>2026-03-08T11:14:59.933Z</time></trkpt><trkpt lat="43.5139825" lon="12.7384496"><ele>413.0</ele><time>2026-03-08T11:15:00.932Z</time></trkpt><trkpt lat="43.5140032" lon="12.7382877"><ele>413.0</ele><time>2026-03-08T11:15:02.933Z</time></trkpt><trkpt lat="43.5140446" lon="12.7382129"><ele>413.0</ele><time>2026-03-08T11:15:03.933Z</time></trkpt><trkpt lat="43.514082" lon="12.7381339"><ele>413.0</ele><time>2026-03-08T11:15:04.932Z</time></trkpt><trkpt lat="43.5140722" lon="12.7379502"><ele>413.0</ele><time>2026-03-08T11:15:06.933Z</time></trkpt><trkpt lat="43.5140292" lon="12.7378507"><ele>413.0</ele><time>2026-03-08T11:15:07.932Z</time></trkpt><trkpt lat="43.5139985" lon="12.7377277"><ele>413.0</ele><time>2026-03-08T11:15:08.932Z</time></trkpt><trkpt lat="43.5139239" lon="12.7375973"><ele>413.0</ele><time>2026-03-08T11:15:09.932Z</time></trkpt><trkpt lat="43.5138702" lon="12.7374306"><ele>413.0</ele><time>2026-03-08T11:15:10.932Z</time></trkpt><trkpt lat="43.5138249" lon="12.7372766"><ele>412.0</ele><time>2026-03-08T11:15:11.932Z</time></trkpt><trkpt lat="43.5137825" lon="12.7371205"><ele>411.0</ele><time>2026-03-08T11:15:12.932Z</time></trkpt><trkpt lat="43.5137476" lon="12.7369605"><ele>410.0</ele><time>2026-03-08T11:15:13.932Z</time></trkpt><trkpt lat="43.5136975" lon="12.7367658"><ele>409.0</ele><time>2026-03-08T11:15:14.932Z</time></trkpt><trkpt lat="43.5136628" lon="12.7365786"><ele>411.75</ele><time>2026-03-08T11:15:15.932Z</time></trkpt><trkpt lat="43.5136225" lon="12.7363822"><ele>414.5</ele><time>2026-03-08T11:15:16.932Z</time></trkpt><trkpt lat="43.5135787" lon="12.7362091"><ele>417.25</ele><time>2026-03-08T11:15:17.932Z</time></trkpt><trkpt lat="43.5135238" lon="12.7360371"><ele>420.0</ele><time>2026-03-08T11:15:18.932Z</time></trkpt><trkpt lat="43.5134657" lon="12.7359116"><ele>420.0</ele><time>2026-03-08T11:15:19.933Z</time></trkpt><trkpt lat="43.513392" lon="12.7357632"><ele>420.0</ele><time>2026-03-08T11:15:20.932Z</time></trkpt><trkpt lat="43.513312" lon="12.7356095"><ele>420.0</ele><time>2026-03-08T11:15:21.932Z</time></trkpt><trkpt lat="43.5132391" lon="12.7354647"><ele>420.0</ele><time>2026-03-08T11:15:22.932Z</time></trkpt><trkpt lat="43.5131615" lon="12.7353303"><ele>419.0</ele><time>2026-03-08T11:15:23.932Z</time></trkpt><trkpt lat="43.5130896" lon="12.7351863"><ele>418.0</ele><time>2026-03-08T11:15:24.932Z</time></trkpt><trkpt lat="43.5130168" lon="12.7350485"><ele>417.0</ele><time>2026-03-08T11:15:25.932Z</time></trkpt><trkpt lat="43.5129294" lon="12.7348895"><ele>416.0</ele><time>2026-03-08T11:15:26.932Z</time></trkpt><trkpt lat="43.5128326" lon="12.7347461"><ele>417.0</ele><time>2026-03-08T11:15:27.932Z</time></trkpt><trkpt lat="43.5127408" lon="12.7345921"><ele>418.0</ele><time>2026-03-08T11:15:28.932Z</time></trkpt><trkpt lat="43.512656" lon="12.7344608"><ele>419.0</ele><time>2026-03-08T11:15:29.932Z</time></trkpt><trkpt lat="43.5125781" lon="12.7343212"><ele>420.0</ele><time>2026-03-08T11:15:30.932Z</time></trkpt><trkpt lat="43.512521" lon="12.7341841"><ele>420.0</ele><time>2026-03-08T11:15:31.932Z</time></trkpt><trkpt lat="43.5124854" lon="12.7340449"><ele>420.0</ele><time>2026-03-08T11:15:32.932Z</time></trkpt><trkpt lat="43.5124881" lon="12.7339091"><ele>420.0</ele><time>2026-03-08T11:15:33.932Z</time></trkpt><trkpt lat="43.51251" lon="12.7337769"><ele>420.0</ele><time>2026-03-08T11:15:34.932Z</time></trkpt><trkpt lat="43.5125504" lon="12.7336016"><ele>420.0</ele><time>2026-03-08T11:15:35.932Z</time></trkpt><trkpt lat="43.5125884" lon="12.7334459"><ele>420.25</ele><time>2026-03-08T11:15:36.933Z</time></trkpt><trkpt lat="43.5126114" lon="12.7332686"><ele>420.5</ele><time>2026-03-08T11:15:37.932Z</time></trkpt><trkpt lat="43.5126307" lon="12.7330901"><ele>420.75</ele><time>2026-03-08T11:15:38.933Z</time></trkpt><trkpt lat="43.5126462" lon="12.732884"><ele>421.0</ele><time>2026-03-08T11:15:39.932Z</time></trkpt><trkpt lat="43.5126527" lon="12.7326765"><ele>420.5</ele><time>2026-03-08T11:15:40.932Z</time></trkpt><trkpt lat="43.5126553" lon="12.732474"><ele>420.0</ele><time>2026-03-08T11:15:41.933Z</time></trkpt><trkpt lat="43.5126585" lon="12.7322968"><ele>419.5</ele><time>2026-03-08T11:15:42.932Z</time></trkpt><trkpt lat="43.5126735" lon="12.7321081"><ele>419.0</ele><time>2026-03-08T11:15:43.932Z</time></trkpt><trkpt lat="43.5127012" lon="12.7319376"><ele>419.25</ele><time>2026-03-08T11:15:44.932Z</time></trkpt><trkpt lat="43.5127255" lon="12.7317605"><ele>419.5</ele><time>2026-03-08T11:15:45.933Z</time></trkpt><trkpt lat="43.5127548" lon="12.7315823"><ele>419.75</ele><time>2026-03-08T11:15:46.933Z</time></trkpt><trkpt lat="43.5128026" lon="12.7314202"><ele>420.0</ele><time>2026-03-08T11:15:47.933Z</time></trkpt><trkpt lat="43.5128491" lon="12.7312465"><ele>420.0</ele><time>2026-03-08T11:15:48.932Z</time></trkpt><trkpt lat="43.5128811" lon="12.7310735"><ele>420.0</ele><time>2026-03-08T11:15:49.933Z</time></trkpt><trkpt lat="43.5129331" lon="12.7309221"><ele>420.0</ele><time>2026-03-08T11:15:50.932Z</time></trkpt><trkpt lat="43.5129894" lon="12.7307799"><ele>420.0</ele><time>2026-03-08T11:15:51.932Z</time></trkpt><trkpt lat="43.513076" lon="12.7306665"><ele>419.8</ele><time>2026-03-08T11:15:52.933Z</time></trkpt><trkpt lat="43.5131933" lon="12.7304463"><ele>419.6</ele><time>2026-03-08T11:15:54.933Z</time></trkpt><trkpt lat="43.5132373" lon="12.7303828"><ele>419.4</ele><time>2026-03-08T11:15:55.932Z</time></trkpt><trkpt lat="43.5133017" lon="12.7303456"><ele>419.2</ele><time>2026-03-08T11:15:56.932Z</time></trkpt><trkpt lat="43.5133672" lon="12.730332"><ele>419.0</ele><time>2026-03-08T11:15:57.932Z</time></trkpt><trkpt lat="43.5134568" lon="12.7303264"><ele>418.99999999999994</ele><time>2026-03-08T11:15:58.933Z</time></trkpt><trkpt lat="43.5135412" lon="12.7303357"><ele>419.0</ele><time>2026-03-08T11:15:59.932Z</time></trkpt><trkpt lat="43.5136258" lon="12.7303153"><ele>419.0</ele><time>2026-03-08T11:16:00.932Z</time></trkpt><trkpt lat="43.5136848" lon="12.7302535"><ele>419.0</ele><time>2026-03-08T11:16:01.932Z</time></trkpt><trkpt lat="43.5137427" lon="12.7301808"><ele>418.99999999999994</ele><time>2026-03-08T11:16:02.932Z</time></trkpt><trkpt lat="43.5137858" lon="12.7300748"><ele>419.0</ele><time>2026-03-08T11:16:03.932Z</time></trkpt><trkpt lat="43.5138408" lon="12.7298991"><ele>423.0</ele><time>2026-03-08T11:16:04.932Z</time></trkpt><trkpt lat="43.5138805" lon="12.7297737"><ele>427.0</ele><time>2026-03-08T11:16:05.933Z</time></trkpt><trkpt lat="43.5139199" lon="12.729618"><ele>431.0</ele><time>2026-03-08T11:16:06.932Z</time></trkpt><trkpt lat="43.5139598" lon="12.7294527"><ele>435.0</ele><time>2026-03-08T11:16:07.932Z</time></trkpt><trkpt lat="43.5140076" lon="12.7292735"><ele>435.66666666666663</ele><time>2026-03-08T11:16:08.932Z</time></trkpt><trkpt lat="43.514038" lon="12.7291054"><ele>436.3333333333333</ele><time>2026-03-08T11:16:09.932Z</time></trkpt><trkpt lat="43.5140944" lon="12.7287879"><ele>437.0</ele><time>2026-03-08T11:16:11.932Z</time></trkpt><trkpt lat="43.5141579" lon="12.7286004"><ele>435.0</ele><time>2026-03-08T11:16:12.933Z</time></trkpt><trkpt lat="43.5142033" lon="12.7284582"><ele>433.0</ele><time>2026-03-08T11:16:13.932Z</time></trkpt><trkpt lat="43.514261" lon="12.728343"><ele>431.0</ele><time>2026-03-08T11:16:14.932Z</time></trkpt><trkpt lat="43.5143619" lon="12.7282434"><ele>429.0</ele><time>2026-03-08T11:16:15.932Z</time></trkpt><trkpt lat="43.5144996" lon="12.728052"><ele>433.25</ele><time>2026-03-08T11:16:16.932Z</time></trkpt><trkpt lat="43.5145795" lon="12.7279177"><ele>437.5</ele><time>2026-03-08T11:16:17.933Z</time></trkpt><trkpt lat="43.5146676" lon="12.7278094"><ele>441.75</ele><time>2026-03-08T11:16:18.933Z</time></trkpt><trkpt lat="43.5147824" lon="12.7276825"><ele>446.0</ele><time>2026-03-08T11:16:19.933Z</time></trkpt><trkpt lat="43.514899" lon="12.7275305"><ele>446.0</ele><time>2026-03-08T11:16:20.932Z</time></trkpt><trkpt lat="43.515007" lon="12.7273318"><ele>446.0</ele><time>2026-03-08T11:16:21.932Z</time></trkpt><trkpt lat="43.5151285" lon="12.7271658"><ele>446.0</ele><time>2026-03-08T11:16:22.933Z</time></trkpt><trkpt lat="43.5152319" lon="12.7270171"><ele>442.75</ele><time>2026-03-08T11:16:23.932Z</time></trkpt><trkpt lat="43.5153413" lon="12.7268724"><ele>439.5</ele><time>2026-03-08T11:16:24.933Z</time></trkpt><trkpt lat="43.5154162" lon="12.7267151"><ele>436.25</ele><time>2026-03-08T11:16:25.933Z</time></trkpt><trkpt lat="43.5155091" lon="12.7265511"><ele>433.0</ele><time>2026-03-08T11:16:26.933Z</time></trkpt><trkpt lat="43.5156666" lon="12.7261699"><ele>436.33333333333337</ele><time>2026-03-08T11:16:28.933Z</time></trkpt><trkpt lat="43.5157776" lon="12.7260002"><ele>439.66666666666663</ele><time>2026-03-08T11:16:29.933Z</time></trkpt><trkpt lat="43.5158928" lon="12.7258623"><ele>443.0</ele><time>2026-03-08T11:16:30.934Z</time></trkpt><trkpt lat="43.5160125" lon="12.7257224"><ele>443.0</ele><time>2026-03-08T11:16:31.934Z</time></trkpt><trkpt lat="43.5161285" lon="12.725568"><ele>443.0</ele><time>2026-03-08T11:16:32.934Z</time></trkpt><trkpt lat="43.5162456" lon="12.7254274"><ele>443.0</ele><time>2026-03-08T11:16:33.933Z</time></trkpt><trkpt lat="43.5163509" lon="12.7252687"><ele>447.66666666666663</ele><time>2026-03-08T11:16:34.934Z</time></trkpt><trkpt lat="43.5164509" lon="12.7251072"><ele>452.33333333333337</ele><time>2026-03-08T11:16:35.933Z</time></trkpt><trkpt lat="43.5165339" lon="12.7249216"><ele>457.0</ele><time>2026-03-08T11:16:36.934Z</time></trkpt><trkpt lat="43.5166265" lon="12.7247634"><ele>457.0</ele><time>2026-03-08T11:16:37.934Z</time></trkpt><trkpt lat="43.5167057" lon="12.7245753"><ele>457.0</ele><time>2026-03-08T11:16:38.933Z</time></trkpt><trkpt lat="43.5167812" lon="12.724377"><ele>457.0</ele><time>2026-03-08T11:16:39.933Z</time></trkpt><trkpt lat="43.5168348" lon="12.724196"><ele>453.5</ele><time>2026-03-08T11:16:40.933Z</time></trkpt><trkpt lat="43.5168904" lon="12.7240005"><ele>450.0</ele><time>2026-03-08T11:16:41.933Z</time></trkpt><trkpt lat="43.5169475" lon="12.723854"><ele>446.5</ele><time>2026-03-08T11:16:42.933Z</time></trkpt><trkpt lat="43.5169897" lon="12.7236917"><ele>443.0</ele><time>2026-03-08T11:16:43.933Z</time></trkpt><trkpt lat="43.5170109" lon="12.7235198"><ele>441.0</ele><time>2026-03-08T11:16:44.933Z</time></trkpt><trkpt lat="43.5170012" lon="12.7233562"><ele>439.0</ele><time>2026-03-08T11:16:45.933Z</time></trkpt><trkpt lat="43.5169457" lon="12.7231709"><ele>437.0</ele><time>2026-03-08T11:16:46.933Z</time></trkpt><trkpt lat="43.5168994" lon="12.7230004"><ele>435.0</ele><time>2026-03-08T11:16:47.933Z</time></trkpt><trkpt lat="43.5168863" lon="12.7228327"><ele>436.25</ele><time>2026-03-08T11:16:48.933Z</time></trkpt><trkpt lat="43.5168721" lon="12.7226505"><ele>437.5</ele><time>2026-03-08T11:16:49.934Z</time></trkpt><trkpt lat="43.5168743" lon="12.7224711"><ele>438.75</ele><time>2026-03-08T11:16:50.933Z</time></trkpt><trkpt lat="43.5168614" lon="12.7222641"><ele>440.0</ele><time>2026-03-08T11:16:51.934Z</time></trkpt><trkpt lat="43.5168182" lon="12.7220744"><ele>440.0</ele><time>2026-03-08T11:16:52.934Z</time></trkpt><trkpt lat="43.5167574" lon="12.7219317"><ele>440.0</ele><time>2026-03-08T11:16:53.933Z</time></trkpt><trkpt lat="43.5166706" lon="12.7217605"><ele>440.0</ele><time>2026-03-08T11:16:54.934Z</time></trkpt><trkpt lat="43.5165854" lon="12.7215914"><ele>440.0</ele><time>2026-03-08T11:16:55.935Z</time></trkpt><trkpt lat="43.5165121" lon="12.7214202"><ele>441.25</ele><time>2026-03-08T11:16:56.933Z</time></trkpt><trkpt lat="43.5164463" lon="12.7212478"><ele>442.5</ele><time>2026-03-08T11:16:57.933Z</time></trkpt><trkpt lat="43.5163994" lon="12.7210743"><ele>443.75</ele><time>2026-03-08T11:16:58.933Z</time></trkpt><trkpt lat="43.5163919" lon="12.7209149"><ele>445.0</ele><time>2026-03-08T11:16:59.933Z</time></trkpt><trkpt lat="43.5163816" lon="12.7207453"><ele>447.5</ele><time>2026-03-08T11:17:00.933Z</time></trkpt><trkpt lat="43.5163827" lon="12.7205549"><ele>450.0</ele><time>2026-03-08T11:17:01.933Z</time></trkpt><trkpt lat="43.5163963" lon="12.7203674"><ele>452.5</ele><time>2026-03-08T11:17:02.933Z</time></trkpt><trkpt lat="43.5164045" lon="12.720169"><ele>455.0</ele><time>2026-03-08T11:17:03.933Z</time></trkpt><trkpt lat="43.5164061" lon="12.7199865"><ele>456.5</ele><time>2026-03-08T11:17:04.933Z</time></trkpt><trkpt lat="43.5163748" lon="12.7197926"><ele>458.0</ele><time>2026-03-08T11:17:05.933Z</time></trkpt><trkpt lat="43.5163293" lon="12.7196107"><ele>459.5</ele><time>2026-03-08T11:17:06.933Z</time></trkpt><trkpt lat="43.516288" lon="12.7194218"><ele>461.0</ele><time>2026-03-08T11:17:07.933Z</time></trkpt><trkpt lat="43.5162443" lon="12.719233"><ele>456.3333333333333</ele><time>2026-03-08T11:17:08.934Z</time></trkpt><trkpt lat="43.5162079" lon="12.7190423"><ele>451.66666666666663</ele><time>2026-03-08T11:17:09.933Z</time></trkpt><trkpt lat="43.5161447" lon="12.7188158"><ele>447.0</ele><time>2026-03-08T11:17:11.933Z</time></trkpt><trkpt lat="43.5161018" lon="12.7186204"><ele>449.25</ele><time>2026-03-08T11:17:12.933Z</time></trkpt><trkpt lat="43.5160902" lon="12.7184366"><ele>451.5</ele><time>2026-03-08T11:17:13.933Z</time></trkpt><trkpt lat="43.5160913" lon="12.7182622"><ele>453.75</ele><time>2026-03-08T11:17:14.933Z</time></trkpt><trkpt lat="43.5160849" lon="12.7180936"><ele>456.0</ele><time>2026-03-08T11:17:15.933Z</time></trkpt><trkpt lat="43.516084" lon="12.7179218"><ele>457.5</ele><time>2026-03-08T11:17:16.933Z</time></trkpt><trkpt lat="43.5160617" lon="12.7177311"><ele>459.0</ele><time>2026-03-08T11:17:17.934Z</time></trkpt><trkpt lat="43.5160335" lon="12.7175528"><ele>460.5</ele><time>2026-03-08T11:17:18.933Z</time></trkpt><trkpt lat="43.5160144" lon="12.7173585"><ele>462.0</ele><time>2026-03-08T11:17:19.933Z</time></trkpt><trkpt lat="43.5160123" lon="12.7171752"><ele>462.0</ele><time>2026-03-08T11:17:20.933Z</time></trkpt><trkpt lat="43.5160313" lon="12.7169762"><ele>462.0</ele><time>2026-03-08T11:17:21.934Z</time></trkpt><trkpt lat="43.5160248" lon="12.7167789"><ele>462.0</ele><time>2026-03-08T11:17:22.934Z</time></trkpt><trkpt lat="43.5160249" lon="12.7165782"><ele>462.0</ele><time>2026-03-08T11:17:23.933Z</time></trkpt><trkpt lat="43.5160235" lon="12.716385"><ele>461.75</ele><time>2026-03-08T11:17:24.933Z</time></trkpt><trkpt lat="43.516026" lon="12.7161951"><ele>461.5</ele><time>2026-03-08T11:17:25.933Z</time></trkpt><trkpt lat="43.5160179" lon="12.7160112"><ele>461.25</ele><time>2026-03-08T11:17:26.934Z</time></trkpt><trkpt lat="43.5160214" lon="12.7158195"><ele>461.0</ele><time>2026-03-08T11:17:27.933Z</time></trkpt><trkpt lat="43.5159906" lon="12.7156392"><ele>460.5</ele><time>2026-03-08T11:17:28.933Z</time></trkpt><trkpt lat="43.5159486" lon="12.7154517"><ele>460.0</ele><time>2026-03-08T11:17:29.933Z</time></trkpt><trkpt lat="43.5158997" lon="12.7152633"><ele>459.5</ele><time>2026-03-08T11:17:30.933Z</time></trkpt><trkpt lat="43.5158619" lon="12.7150613"><ele>459.0</ele><time>2026-03-08T11:17:31.933Z</time></trkpt><trkpt lat="43.5158141" lon="12.7148642"><ele>458.5</ele><time>2026-03-08T11:17:32.933Z</time></trkpt><trkpt lat="43.5157798" lon="12.7146739"><ele>458.0</ele><time>2026-03-08T11:17:33.933Z</time></trkpt><trkpt lat="43.5157376" lon="12.7144874"><ele>457.5</ele><time>2026-03-08T11:17:34.933Z</time></trkpt><trkpt lat="43.5157127" lon="12.7142867"><ele>457.0</ele><time>2026-03-08T11:17:35.933Z</time></trkpt><trkpt lat="43.5157006" lon="12.7140804"><ele>456.6666666666667</ele><time>2026-03-08T11:17:36.933Z</time></trkpt><trkpt lat="43.5156767" lon="12.7138757"><ele>456.33333333333337</ele><time>2026-03-08T11:17:37.933Z</time></trkpt><trkpt lat="43.5156539" lon="12.7136731"><ele>456.0</ele><time>2026-03-08T11:17:38.933Z</time></trkpt><trkpt lat="43.5156216" lon="12.7134573"><ele>454.5</ele><time>2026-03-08T11:17:39.933Z</time></trkpt><trkpt lat="43.5156007" lon="12.7132696"><ele>453.0</ele><time>2026-03-08T11:17:40.934Z</time></trkpt><trkpt lat="43.5155909" lon="12.7130637"><ele>451.5</ele><time>2026-03-08T11:17:41.933Z</time></trkpt><trkpt lat="43.5155775" lon="12.7128565"><ele>450.0</ele><time>2026-03-08T11:17:42.933Z</time></trkpt><trkpt lat="43.5155599" lon="12.7126549"><ele>449.33333333333337</ele><time>2026-03-08T11:17:43.933Z</time></trkpt><trkpt lat="43.5155341" lon="12.7124535"><ele>448.6666666666667</ele><time>2026-03-08T11:17:44.933Z</time></trkpt><trkpt lat="43.5155182" lon="12.7122514"><ele>448.0</ele><time>2026-03-08T11:17:45.934Z</time></trkpt><trkpt lat="43.5154783" lon="12.7118547"><ele>447.33333333333337</ele><time>2026-03-08T11:17:47.933Z</time></trkpt><trkpt lat="43.5154558" lon="12.7116621"><ele>446.66666666666663</ele><time>2026-03-08T11:17:48.933Z</time></trkpt><trkpt lat="43.5153941" lon="12.7114689"><ele>446.0</ele><time>2026-03-08T11:17:49.935Z</time></trkpt><trkpt lat="43.5153228" lon="12.7112558"><ele>440.3333333333333</ele><time>2026-03-08T11:17:50.933Z</time></trkpt><trkpt lat="43.5152489" lon="12.7110531"><ele>434.66666666666663</ele><time>2026-03-08T11:17:51.934Z</time></trkpt><trkpt lat="43.5151671" lon="12.7108617"><ele>429.0</ele><time>2026-03-08T11:17:52.933Z</time></trkpt><trkpt lat="43.5150849" lon="12.710674"><ele>429.0</ele><time>2026-03-08T11:17:53.933Z</time></trkpt><trkpt lat="43.5149714" lon="12.7102671"><ele>429.0</ele><time>2026-03-08T11:17:55.933Z</time></trkpt><trkpt lat="43.514894" lon="12.7101598"><ele>429.0</ele><time>2026-03-08T11:17:56.934Z</time></trkpt><trkpt lat="43.5148243" lon="12.7099557"><ele>428.66666666666663</ele><time>2026-03-08T11:17:57.933Z</time></trkpt><trkpt lat="43.5147531" lon="12.7097493"><ele>428.3333333333333</ele><time>2026-03-08T11:17:58.933Z</time></trkpt><trkpt lat="43.514661" lon="12.7095397"><ele>428.0</ele><time>2026-03-08T11:17:59.934Z</time></trkpt><trkpt lat="43.5145957" lon="12.7093252"><ele>425.66666666666663</ele><time>2026-03-08T11:18:00.934Z</time></trkpt><trkpt lat="43.5145547" lon="12.7091196"><ele>423.33333333333337</ele><time>2026-03-08T11:18:01.933Z</time></trkpt><trkpt lat="43.5145259" lon="12.708945"><ele>421.0</ele><time>2026-03-08T11:18:02.933Z</time></trkpt><trkpt lat="43.5144764" lon="12.7085162"><ele>419.75</ele><time>2026-03-08T11:18:04.934Z</time></trkpt><trkpt lat="43.5144591" lon="12.7083165"><ele>418.5</ele><time>2026-03-08T11:18:05.933Z</time></trkpt><trkpt lat="43.5144219" lon="12.7081232"><ele>417.25</ele><time>2026-03-08T11:18:06.933Z</time></trkpt><trkpt lat="43.5143985" lon="12.7079288"><ele>416.0</ele><time>2026-03-08T11:18:07.933Z</time></trkpt><trkpt lat="43.5143685" lon="12.7077337"><ele>415.0</ele><time>2026-03-08T11:18:08.934Z</time></trkpt><trkpt lat="43.5143647" lon="12.7075386"><ele>414.0</ele><time>2026-03-08T11:18:09.933Z</time></trkpt><trkpt lat="43.5143807" lon="12.7073247"><ele>413.0</ele><time>2026-03-08T11:18:10.933Z</time></trkpt><trkpt lat="43.5144775" lon="12.7069025"><ele>412.0</ele><time>2026-03-08T11:18:12.933Z</time></trkpt><trkpt lat="43.5145224" lon="12.70671"><ele>411.0</ele><time>2026-03-08T11:18:13.933Z</time></trkpt><trkpt lat="43.5145767" lon="12.706503"><ele>410.0</ele><time>2026-03-08T11:18:14.933Z</time></trkpt><trkpt lat="43.5146352" lon="12.7063051"><ele>410.0</ele><time>2026-03-08T11:18:15.934Z</time></trkpt><trkpt lat="43.514695" lon="12.7061102"><ele>410.0</ele><time>2026-03-08T11:18:16.933Z</time></trkpt><trkpt lat="43.5147846" lon="12.705948"><ele>410.0</ele><time>2026-03-08T11:18:17.933Z</time></trkpt><trkpt lat="43.5149195" lon="12.705826"><ele>408.3333333333333</ele><time>2026-03-08T11:18:18.933Z</time></trkpt><trkpt lat="43.5150403" lon="12.7057075"><ele>406.66666666666663</ele><time>2026-03-08T11:18:19.933Z</time></trkpt><trkpt lat="43.515155" lon="12.7055796"><ele>405.0</ele><time>2026-03-08T11:18:20.934Z</time></trkpt><trkpt lat="43.5152778" lon="12.7054457"><ele>405.0</ele><time>2026-03-08T11:18:21.933Z</time></trkpt><trkpt lat="43.5154029" lon="12.7053189"><ele>405.0</ele><time>2026-03-08T11:18:22.934Z</time></trkpt><trkpt lat="43.5155069" lon="12.7052155"><ele>405.0</ele><time>2026-03-08T11:18:23.933Z</time></trkpt><trkpt lat="43.5156422" lon="12.7051104"><ele>405.0</ele><time>2026-03-08T11:18:24.933Z</time></trkpt><trkpt lat="43.515776" lon="12.7050134"><ele>403.66666666666663</ele><time>2026-03-08T11:18:25.934Z</time></trkpt><trkpt lat="43.5159125" lon="12.7049423"><ele>402.3333333333333</ele><time>2026-03-08T11:18:26.933Z</time></trkpt><trkpt lat="43.5160776" lon="12.7048836"><ele>401.0</ele><time>2026-03-08T11:18:27.933Z</time></trkpt><trkpt lat="43.5163713" lon="12.7047452"><ele>399.75</ele><time>2026-03-08T11:18:29.933Z</time></trkpt><trkpt lat="43.516488" lon="12.7046559"><ele>398.5</ele><time>2026-03-08T11:18:30.934Z</time></trkpt><trkpt lat="43.5166457" lon="12.7045892"><ele>397.25</ele><time>2026-03-08T11:18:31.934Z</time></trkpt><trkpt lat="43.5167592" lon="12.7044672"><ele>396.0</ele><time>2026-03-08T11:18:32.933Z</time></trkpt><trkpt lat="43.5168636" lon="12.7042997"><ele>396.0</ele><time>2026-03-08T11:18:33.933Z</time></trkpt><trkpt lat="43.5169458" lon="12.7041056"><ele>396.0</ele><time>2026-03-08T11:18:34.933Z</time></trkpt><trkpt lat="43.5170259" lon="12.7039126"><ele>396.0</ele><time>2026-03-08T11:18:35.934Z</time></trkpt><trkpt lat="43.5171017" lon="12.7037095"><ele>392.0</ele><time>2026-03-08T11:18:36.933Z</time></trkpt><trkpt lat="43.5172507" lon="12.7033006"><ele>388.0</ele><time>2026-03-08T11:18:38.933Z</time></trkpt><trkpt lat="43.5173274" lon="12.7030955"><ele>388.0</ele><time>2026-03-08T11:18:39.933Z</time></trkpt><trkpt lat="43.5173977" lon="12.7028916"><ele>388.0</ele><time>2026-03-08T11:18:40.934Z</time></trkpt><trkpt lat="43.5174673" lon="12.7026434"><ele>388.0</ele><time>2026-03-08T11:18:41.933Z</time></trkpt><trkpt lat="43.5175366" lon="12.7024341"><ele>388.6666666666667</ele><time>2026-03-08T11:18:42.933Z</time></trkpt><trkpt lat="43.5175971" lon="12.7022138"><ele>389.33333333333337</ele><time>2026-03-08T11:18:43.933Z</time></trkpt><trkpt lat="43.5176513" lon="12.7019817"><ele>390.0</ele><time>2026-03-08T11:18:44.933Z</time></trkpt><trkpt lat="43.5177213" lon="12.7017619"><ele>391.0</ele><time>2026-03-08T11:18:45.934Z</time></trkpt><trkpt lat="43.5177841" lon="12.7015571"><ele>392.0</ele><time>2026-03-08T11:18:46.933Z</time></trkpt><trkpt lat="43.5178411" lon="12.7013362"><ele>393.0</ele><time>2026-03-08T11:18:47.933Z</time></trkpt><trkpt lat="43.5178972" lon="12.7011143"><ele>394.33333333333337</ele><time>2026-03-08T11:18:48.933Z</time></trkpt><trkpt lat="43.5179589" lon="12.7009107"><ele>395.6666666666667</ele><time>2026-03-08T11:18:49.933Z</time></trkpt><trkpt lat="43.5180098" lon="12.7006984"><ele>397.0</ele><time>2026-03-08T11:18:50.933Z</time></trkpt><trkpt lat="43.5180586" lon="12.7004851"><ele>397.0</ele><time>2026-03-08T11:18:51.933Z</time></trkpt><trkpt lat="43.5181096" lon="12.7002752"><ele>397.0</ele><time>2026-03-08T11:18:52.935Z</time></trkpt><trkpt lat="43.5181712" lon="12.7000912"><ele>397.0</ele><time>2026-03-08T11:18:53.933Z</time></trkpt><trkpt lat="43.5182229" lon="12.6998934"><ele>398.0</ele><time>2026-03-08T11:18:54.934Z</time></trkpt><trkpt lat="43.5183605" lon="12.6994985"><ele>399.0</ele><time>2026-03-08T11:18:56.933Z</time></trkpt><trkpt lat="43.5184424" lon="12.6993067"><ele>399.66666666666663</ele><time>2026-03-08T11:18:57.934Z</time></trkpt><trkpt lat="43.5185311" lon="12.6991459"><ele>400.3333333333333</ele><time>2026-03-08T11:18:58.933Z</time></trkpt><trkpt lat="43.5186047" lon="12.6989587"><ele>401.0</ele><time>2026-03-08T11:18:59.933Z</time></trkpt><trkpt lat="43.5186964" lon="12.6987843"><ele>401.25</ele><time>2026-03-08T11:19:00.934Z</time></trkpt><trkpt lat="43.5187804" lon="12.6986147"><ele>401.5</ele><time>2026-03-08T11:19:01.933Z</time></trkpt><trkpt lat="43.5188644" lon="12.6984491"><ele>401.75</ele><time>2026-03-08T11:19:02.933Z</time></trkpt><trkpt lat="43.5189436" lon="12.6982859"><ele>402.0</ele><time>2026-03-08T11:19:03.934Z</time></trkpt><trkpt lat="43.5190039" lon="12.6981518"><ele>402.75</ele><time>2026-03-08T11:19:04.933Z</time></trkpt><trkpt lat="43.5190758" lon="12.6979999"><ele>403.5</ele><time>2026-03-08T11:19:05.934Z</time></trkpt><trkpt lat="43.5191343" lon="12.6978352"><ele>404.25</ele><time>2026-03-08T11:19:06.933Z</time></trkpt><trkpt lat="43.5191994" lon="12.6976705"><ele>405.0</ele><time>2026-03-08T11:19:07.933Z</time></trkpt><trkpt lat="43.5192673" lon="12.6974798"><ele>405.5</ele><time>2026-03-08T11:19:08.933Z</time></trkpt><trkpt lat="43.5193169" lon="12.6972931"><ele>406.0</ele><time>2026-03-08T11:19:09.934Z</time></trkpt><trkpt lat="43.5193526" lon="12.6970915"><ele>406.5</ele><time>2026-03-08T11:19:10.933Z</time></trkpt><trkpt lat="43.5193559" lon="12.6969013"><ele>407.0</ele><time>2026-03-08T11:19:11.934Z</time></trkpt><trkpt lat="43.5193789" lon="12.6966791"><ele>407.3333333333333</ele><time>2026-03-08T11:19:12.933Z</time></trkpt><trkpt lat="43.5193999" lon="12.696444"><ele>407.66666666666663</ele><time>2026-03-08T11:19:13.933Z</time></trkpt><trkpt lat="43.519411" lon="12.6962287"><ele>408.0</ele><time>2026-03-08T11:19:14.933Z</time></trkpt><trkpt lat="43.5194455" lon="12.6960267"><ele>409.0</ele><time>2026-03-08T11:19:15.933Z</time></trkpt><trkpt lat="43.5194789" lon="12.6958203"><ele>410.0</ele><time>2026-03-08T11:19:16.933Z</time></trkpt><trkpt lat="43.5194988" lon="12.6955934"><ele>411.0</ele><time>2026-03-08T11:19:17.934Z</time></trkpt><trkpt lat="43.5195308" lon="12.6953821"><ele>411.33333333333337</ele><time>2026-03-08T11:19:18.934Z</time></trkpt><trkpt lat="43.5195503" lon="12.6951323"><ele>411.6666666666667</ele><time>2026-03-08T11:19:19.933Z</time></trkpt><trkpt lat="43.5195758" lon="12.6949051"><ele>412.0</ele><time>2026-03-08T11:19:20.933Z</time></trkpt><trkpt lat="43.5195894" lon="12.6946626"><ele>406.0</ele><time>2026-03-08T11:19:21.933Z</time></trkpt><trkpt lat="43.5196212" lon="12.6944183"><ele>400.0</ele><time>2026-03-08T11:19:22.933Z</time></trkpt><trkpt lat="43.5196406" lon="12.6941656"><ele>394.0</ele><time>2026-03-08T11:19:23.934Z</time></trkpt><trkpt lat="43.5196703" lon="12.6939659"><ele>394.0</ele><time>2026-03-08T11:19:24.933Z</time></trkpt><trkpt lat="43.5197108" lon="12.6937479"><ele>394.0</ele><time>2026-03-08T11:19:25.934Z</time></trkpt><trkpt lat="43.5197835" lon="12.6935662"><ele>394.0</ele><time>2026-03-08T11:19:26.933Z</time></trkpt><trkpt lat="43.519867" lon="12.6934117"><ele>395.25</ele><time>2026-03-08T11:19:27.933Z</time></trkpt><trkpt lat="43.5199754" lon="12.6933053"><ele>396.5</ele><time>2026-03-08T11:19:28.933Z</time></trkpt><trkpt lat="43.5200855" lon="12.6932387"><ele>397.75</ele><time>2026-03-08T11:19:29.933Z</time></trkpt><trkpt lat="43.5202234" lon="12.6931647"><ele>399.0</ele><time>2026-03-08T11:19:30.934Z</time></trkpt><trkpt lat="43.5203755" lon="12.6930294"><ele>398.66666666666663</ele><time>2026-03-08T11:19:31.933Z</time></trkpt><trkpt lat="43.5205392" lon="12.6929716"><ele>398.3333333333333</ele><time>2026-03-08T11:19:32.933Z</time></trkpt><trkpt lat="43.5206933" lon="12.692855"><ele>398.0</ele><time>2026-03-08T11:19:33.934Z</time></trkpt><trkpt lat="43.5208278" lon="12.6926878"><ele>398.0</ele><time>2026-03-08T11:19:34.933Z</time></trkpt><trkpt lat="43.5209344" lon="12.6925182"><ele>398.0</ele><time>2026-03-08T11:19:35.933Z</time></trkpt><trkpt lat="43.5210666" lon="12.6923902"><ele>398.0</ele><time>2026-03-08T11:19:36.934Z</time></trkpt><trkpt lat="43.5212306" lon="12.6922839"><ele>394.0</ele><time>2026-03-08T11:19:37.933Z</time></trkpt><trkpt lat="43.5215688" lon="12.6921858"><ele>390.0</ele><time>2026-03-08T11:19:39.934Z</time></trkpt><trkpt lat="43.5217492" lon="12.6921175"><ele>390.0</ele><time>2026-03-08T11:19:40.933Z</time></trkpt><trkpt lat="43.5219212" lon="12.6920663"><ele>390.0</ele><time>2026-03-08T11:19:41.934Z</time></trkpt><trkpt lat="43.5221119" lon="12.6920187"><ele>390.0</ele><time>2026-03-08T11:19:42.933Z</time></trkpt><trkpt lat="43.5223089" lon="12.6919689"><ele>388.33333333333337</ele><time>2026-03-08T11:19:43.934Z</time></trkpt><trkpt lat="43.5225095" lon="12.691924"><ele>386.6666666666667</ele><time>2026-03-08T11:19:44.933Z</time></trkpt><trkpt lat="43.5226972" lon="12.6919114"><ele>385.0</ele><time>2026-03-08T11:19:45.933Z</time></trkpt><trkpt lat="43.5228776" lon="12.6919062"><ele>386.33333333333337</ele><time>2026-03-08T11:19:46.933Z</time></trkpt><trkpt lat="43.5230634" lon="12.6919049"><ele>387.66666666666663</ele><time>2026-03-08T11:19:47.933Z</time></trkpt><trkpt lat="43.5232527" lon="12.6918964"><ele>389.0</ele><time>2026-03-08T11:19:48.933Z</time></trkpt><trkpt lat="43.5234392" lon="12.691896"><ele>389.0</ele><time>2026-03-08T11:19:49.933Z</time></trkpt><trkpt lat="43.523617" lon="12.6918959"><ele>389.0</ele><time>2026-03-08T11:19:50.934Z</time></trkpt><trkpt lat="43.5237885" lon="12.6918847"><ele>389.0</ele><time>2026-03-08T11:19:51.933Z</time></trkpt><trkpt lat="43.5239646" lon="12.6918898"><ele>388.0</ele><time>2026-03-08T11:19:52.933Z</time></trkpt><trkpt lat="43.5241434" lon="12.6918868"><ele>387.0</ele><time>2026-03-08T11:19:53.933Z</time></trkpt><trkpt lat="43.5243217" lon="12.6918886"><ele>386.0</ele><time>2026-03-08T11:19:54.933Z</time></trkpt><trkpt lat="43.5245044" lon="12.6918834"><ele>385.0</ele><time>2026-03-08T11:19:55.934Z</time></trkpt><trkpt lat="43.5246802" lon="12.6918692"><ele>384.0</ele><time>2026-03-08T11:19:56.933Z</time></trkpt><trkpt lat="43.524845" lon="12.6918503"><ele>383.0</ele><time>2026-03-08T11:19:57.934Z</time></trkpt><trkpt lat="43.5250165" lon="12.6918029"><ele>383.0</ele><time>2026-03-08T11:19:58.934Z</time></trkpt><trkpt lat="43.5251909" lon="12.6917448"><ele>383.0</ele><time>2026-03-08T11:19:59.933Z</time></trkpt><trkpt lat="43.5253649" lon="12.6916522"><ele>383.0</ele><time>2026-03-08T11:20:00.933Z</time></trkpt><trkpt lat="43.5255179" lon="12.6915322"><ele>381.6666666666667</ele><time>2026-03-08T11:20:01.933Z</time></trkpt><trkpt lat="43.5256627" lon="12.6914032"><ele>380.3333333333333</ele><time>2026-03-08T11:20:02.934Z</time></trkpt><trkpt lat="43.525797" lon="12.6912394"><ele>379.0</ele><time>2026-03-08T11:20:03.934Z</time></trkpt><trkpt lat="43.5259342" lon="12.6910688"><ele>378.66666666666663</ele><time>2026-03-08T11:20:04.933Z</time></trkpt><trkpt lat="43.5260623" lon="12.6908797"><ele>378.3333333333333</ele><time>2026-03-08T11:20:05.934Z</time></trkpt><trkpt lat="43.5261669" lon="12.6906928"><ele>378.0</ele><time>2026-03-08T11:20:06.933Z</time></trkpt><trkpt lat="43.5262967" lon="12.6905044"><ele>377.3333333333333</ele><time>2026-03-08T11:20:07.933Z</time></trkpt><trkpt lat="43.5264067" lon="12.6903224"><ele>376.66666666666663</ele><time>2026-03-08T11:20:08.933Z</time></trkpt><trkpt lat="43.5265481" lon="12.6901213"><ele>376.0</ele><time>2026-03-08T11:20:09.933Z</time></trkpt><trkpt lat="43.5266768" lon="12.689927"><ele>376.0</ele><time>2026-03-08T11:20:10.935Z</time></trkpt><trkpt lat="43.5268002" lon="12.689763"><ele>376.0</ele><time>2026-03-08T11:20:11.934Z</time></trkpt><trkpt lat="43.5269117" lon="12.6896063"><ele>376.0</ele><time>2026-03-08T11:20:12.934Z</time></trkpt><trkpt lat="43.5270173" lon="12.6894372"><ele>377.25</ele><time>2026-03-08T11:20:13.934Z</time></trkpt><trkpt lat="43.5271273" lon="12.6892806"><ele>378.5</ele><time>2026-03-08T11:20:14.934Z</time></trkpt><trkpt lat="43.527229" lon="12.6891324"><ele>379.75</ele><time>2026-03-08T11:20:15.933Z</time></trkpt><trkpt lat="43.5273074" lon="12.6890028"><ele>381.0</ele><time>2026-03-08T11:20:16.933Z</time></trkpt><trkpt lat="43.5273971" lon="12.6888568"><ele>381.0</ele><time>2026-03-08T11:20:17.933Z</time></trkpt><trkpt lat="43.5274636" lon="12.6887155"><ele>381.0</ele><time>2026-03-08T11:20:18.933Z</time></trkpt><trkpt lat="43.5275161" lon="12.6885567"><ele>381.0</ele><time>2026-03-08T11:20:19.933Z</time></trkpt><trkpt lat="43.527552" lon="12.6883968"><ele>381.0</ele><time>2026-03-08T11:20:20.934Z</time></trkpt><trkpt lat="43.5275445" lon="12.68822"><ele>380.75</ele><time>2026-03-08T11:20:21.933Z</time></trkpt><trkpt lat="43.5275049" lon="12.6880676"><ele>380.5</ele><time>2026-03-08T11:20:22.933Z</time></trkpt><trkpt lat="43.5274385" lon="12.6879401"><ele>380.25</ele><time>2026-03-08T11:20:23.933Z</time></trkpt><trkpt lat="43.5273581" lon="12.6877912"><ele>380.0</ele><time>2026-03-08T11:20:24.935Z</time></trkpt><trkpt lat="43.5272587" lon="12.6876542"><ele>379.6666666666667</ele><time>2026-03-08T11:20:25.933Z</time></trkpt><trkpt lat="43.5271176" lon="12.6874585"><ele>379.3333333333333</ele><time>2026-03-08T11:20:26.934Z</time></trkpt><trkpt lat="43.5269643" lon="12.6872595"><ele>379.0</ele><time>2026-03-08T11:20:27.933Z</time></trkpt><trkpt lat="43.5268433" lon="12.6870975"><ele>379.0</ele><time>2026-03-08T11:20:28.933Z</time></trkpt><trkpt lat="43.5267177" lon="12.6869294"><ele>379.0</ele><time>2026-03-08T11:20:29.934Z</time></trkpt><trkpt lat="43.5266091" lon="12.6867666"><ele>379.0</ele><time>2026-03-08T11:20:30.934Z</time></trkpt><trkpt lat="43.5265372" lon="12.6865741"><ele>374.66666666666663</ele><time>2026-03-08T11:20:31.934Z</time></trkpt><trkpt lat="43.5264931" lon="12.6863428"><ele>370.3333333333333</ele><time>2026-03-08T11:20:32.933Z</time></trkpt><trkpt lat="43.5264401" lon="12.6860991"><ele>366.0</ele><time>2026-03-08T11:20:33.934Z</time></trkpt><trkpt lat="43.5264067" lon="12.6858711"><ele>364.0</ele><time>2026-03-08T11:20:34.934Z</time></trkpt><trkpt lat="43.5263611" lon="12.6856641"><ele>362.0</ele><time>2026-03-08T11:20:35.933Z</time></trkpt><trkpt lat="43.526353" lon="12.6854538"><ele>360.0</ele><time>2026-03-08T11:20:36.933Z</time></trkpt><trkpt lat="43.5263188" lon="12.6852502"><ele>359.3333333333333</ele><time>2026-03-08T11:20:37.933Z</time></trkpt><trkpt lat="43.5263595" lon="12.6850929"><ele>358.66666666666663</ele><time>2026-03-08T11:20:38.933Z</time></trkpt><trkpt lat="43.526429" lon="12.6849402"><ele>358.0</ele><time>2026-03-08T11:20:39.933Z</time></trkpt><trkpt lat="43.526746" lon="12.6846201"><ele>358.0</ele><time>2026-03-08T11:20:41.933Z</time></trkpt><trkpt lat="43.5269181" lon="12.684614"><ele>358.0</ele><time>2026-03-08T11:20:42.934Z</time></trkpt><trkpt lat="43.5270548" lon="12.684564"><ele>358.0</ele><time>2026-03-08T11:20:43.934Z</time></trkpt><trkpt lat="43.5271829" lon="12.6845598"><ele>358.0</ele><time>2026-03-08T11:20:44.933Z</time></trkpt><trkpt lat="43.5273362" lon="12.6847043"><ele>360.0</ele><time>2026-03-08T11:20:45.933Z</time></trkpt><trkpt lat="43.5274851" lon="12.684777"><ele>362.0</ele><time>2026-03-08T11:20:46.933Z</time></trkpt><trkpt lat="43.5275756" lon="12.6849047"><ele>364.0</ele><time>2026-03-08T11:20:47.933Z</time></trkpt><trkpt lat="43.5276733" lon="12.6850947"><ele>360.0</ele><time>2026-03-08T11:20:48.933Z</time></trkpt><trkpt lat="43.5277941" lon="12.6855182"><ele>356.0</ele><time>2026-03-08T11:20:50.935Z</time></trkpt><trkpt lat="43.5278403" lon="12.685692"><ele>356.0</ele><time>2026-03-08T11:20:51.934Z</time></trkpt><trkpt lat="43.5278912" lon="12.685824"><ele>356.0</ele><time>2026-03-08T11:20:52.936Z</time></trkpt><trkpt lat="43.5279716" lon="12.6859823"><ele>356.0</ele><time>2026-03-08T11:20:53.934Z</time></trkpt><trkpt lat="43.528044" lon="12.6861062"><ele>356.0</ele><time>2026-03-08T11:20:54.934Z</time></trkpt><trkpt lat="43.5282047" lon="12.6861731"><ele>358.0</ele><time>2026-03-08T11:20:55.934Z</time></trkpt><trkpt lat="43.528349" lon="12.6862641"><ele>360.0</ele><time>2026-03-08T11:20:56.935Z</time></trkpt><trkpt lat="43.5285076" lon="12.6863649"><ele>362.0</ele><time>2026-03-08T11:20:57.934Z</time></trkpt><trkpt lat="43.5286419" lon="12.6864642"><ele>362.5</ele><time>2026-03-08T11:20:58.934Z</time></trkpt><trkpt lat="43.5287606" lon="12.6865598"><ele>363.0</ele><time>2026-03-08T11:20:59.935Z</time></trkpt><trkpt lat="43.5288892" lon="12.686669"><ele>363.5</ele><time>2026-03-08T11:21:00.934Z</time></trkpt><trkpt lat="43.5289878" lon="12.6868079"><ele>364.0</ele><time>2026-03-08T11:21:01.935Z</time></trkpt><trkpt lat="43.5290882" lon="12.6869412"><ele>364.0</ele><time>2026-03-08T11:21:02.935Z</time></trkpt><trkpt lat="43.5291677" lon="12.6870633"><ele>364.0</ele><time>2026-03-08T11:21:03.934Z</time></trkpt><trkpt lat="43.5292646" lon="12.6871962"><ele>364.0</ele><time>2026-03-08T11:21:04.934Z</time></trkpt><trkpt lat="43.5293635" lon="12.6873015"><ele>364.0</ele><time>2026-03-08T11:21:05.934Z</time></trkpt><trkpt lat="43.5294661" lon="12.6874042"><ele>365.5</ele><time>2026-03-08T11:21:06.935Z</time></trkpt><trkpt lat="43.5295883" lon="12.6875118"><ele>367.0</ele><time>2026-03-08T11:21:07.934Z</time></trkpt><trkpt lat="43.5297062" lon="12.6876171"><ele>368.5</ele><time>2026-03-08T11:21:08.934Z</time></trkpt><trkpt lat="43.5298337" lon="12.6877171"><ele>370.0</ele><time>2026-03-08T11:21:09.934Z</time></trkpt><trkpt lat="43.5299612" lon="12.6878205"><ele>370.0</ele><time>2026-03-08T11:21:10.934Z</time></trkpt><trkpt lat="43.5300969" lon="12.6879286"><ele>370.0</ele><time>2026-03-08T11:21:11.934Z</time></trkpt><trkpt lat="43.5302272" lon="12.6880608"><ele>370.0</ele><time>2026-03-08T11:21:12.934Z</time></trkpt><trkpt lat="43.5303542" lon="12.6881582"><ele>371.66666666666663</ele><time>2026-03-08T11:21:13.934Z</time></trkpt><trkpt lat="43.5304814" lon="12.688269"><ele>373.3333333333333</ele><time>2026-03-08T11:21:14.934Z</time></trkpt><trkpt lat="43.5307282" lon="12.6884665"><ele>375.0</ele><time>2026-03-08T11:21:16.934Z</time></trkpt><trkpt lat="43.5308406" lon="12.6885617"><ele>374.5</ele><time>2026-03-08T11:21:17.934Z</time></trkpt><trkpt lat="43.5309415" lon="12.6886189"><ele>374.0</ele><time>2026-03-08T11:21:18.934Z</time></trkpt><trkpt lat="43.5310703" lon="12.6886436"><ele>373.5</ele><time>2026-03-08T11:21:19.934Z</time></trkpt><trkpt lat="43.5311953" lon="12.6886193"><ele>373.0</ele><time>2026-03-08T11:21:20.935Z</time></trkpt><trkpt lat="43.5313341" lon="12.6885636"><ele>373.0</ele><time>2026-03-08T11:21:21.934Z</time></trkpt><trkpt lat="43.5314749" lon="12.688485"><ele>373.0</ele><time>2026-03-08T11:21:22.934Z</time></trkpt><trkpt lat="43.5316159" lon="12.6883772"><ele>373.0</ele><time>2026-03-08T11:21:23.934Z</time></trkpt><trkpt lat="43.5317344" lon="12.6882708"><ele>373.0</ele><time>2026-03-08T11:21:24.934Z</time></trkpt><trkpt lat="43.5318914" lon="12.6881509"><ele>373.0</ele><time>2026-03-08T11:21:25.934Z</time></trkpt><trkpt lat="43.532052" lon="12.6880376"><ele>373.0</ele><time>2026-03-08T11:21:26.934Z</time></trkpt><trkpt lat="43.5321975" lon="12.6879144"><ele>371.3333333333333</ele><time>2026-03-08T11:21:27.935Z</time></trkpt><trkpt lat="43.5323546" lon="12.6878126"><ele>369.6666666666667</ele><time>2026-03-08T11:21:28.934Z</time></trkpt><trkpt lat="43.5325093" lon="12.6876852"><ele>368.0</ele><time>2026-03-08T11:21:29.934Z</time></trkpt><trkpt lat="43.5326759" lon="12.6875408"><ele>371.0</ele><time>2026-03-08T11:21:30.934Z</time></trkpt><trkpt lat="43.5328231" lon="12.6874146"><ele>374.0</ele><time>2026-03-08T11:21:31.934Z</time></trkpt><trkpt lat="43.5329734" lon="12.6872805"><ele>377.0</ele><time>2026-03-08T11:21:32.934Z</time></trkpt><trkpt lat="43.5332462" lon="12.6870482"><ele>377.33333333333337</ele><time>2026-03-08T11:21:34.934Z</time></trkpt><trkpt lat="43.5333885" lon="12.6869188"><ele>377.6666666666667</ele><time>2026-03-08T11:21:35.934Z</time></trkpt><trkpt lat="43.5335132" lon="12.6867902"><ele>378.0</ele><time>2026-03-08T11:21:36.934Z</time></trkpt><trkpt lat="43.5336652" lon="12.68665"><ele>376.0</ele><time>2026-03-08T11:21:37.934Z</time></trkpt><trkpt lat="43.5338159" lon="12.6865035"><ele>374.0</ele><time>2026-03-08T11:21:38.934Z</time></trkpt><trkpt lat="43.5339534" lon="12.6863582"><ele>372.0</ele><time>2026-03-08T11:21:39.934Z</time></trkpt><trkpt lat="43.5340956" lon="12.686213"><ele>372.0</ele><time>2026-03-08T11:21:40.934Z</time></trkpt><trkpt lat="43.5342397" lon="12.6860743"><ele>372.0</ele><time>2026-03-08T11:21:41.934Z</time></trkpt><trkpt lat="43.5343956" lon="12.6859181"><ele>372.0</ele><time>2026-03-08T11:21:42.934Z</time></trkpt><trkpt lat="43.534552" lon="12.6857838"><ele>368.6666666666667</ele><time>2026-03-08T11:21:43.934Z</time></trkpt><trkpt lat="43.5346924" lon="12.6856596"><ele>365.33333333333337</ele><time>2026-03-08T11:21:44.934Z</time></trkpt><trkpt lat="43.5348295" lon="12.6855377"><ele>362.0</ele><time>2026-03-08T11:21:45.935Z</time></trkpt><trkpt lat="43.5349541" lon="12.6854189"><ele>362.0</ele><time>2026-03-08T11:21:46.934Z</time></trkpt><trkpt lat="43.5350779" lon="12.6853047"><ele>362.0</ele><time>2026-03-08T11:21:47.934Z</time></trkpt><trkpt lat="43.5351858" lon="12.6851608"><ele>362.0</ele><time>2026-03-08T11:21:48.934Z</time></trkpt><trkpt lat="43.5353078" lon="12.6849786"><ele>363.5</ele><time>2026-03-08T11:21:49.934Z</time></trkpt><trkpt lat="43.5355249" lon="12.6845723"><ele>365.0</ele><time>2026-03-08T11:21:51.934Z</time></trkpt><trkpt lat="43.5356128" lon="12.6843576"><ele>363.0</ele><time>2026-03-08T11:21:52.935Z</time></trkpt><trkpt lat="43.5357146" lon="12.6841343"><ele>361.0</ele><time>2026-03-08T11:21:53.934Z</time></trkpt><trkpt lat="43.5358094" lon="12.6839172"><ele>359.0</ele><time>2026-03-08T11:21:54.934Z</time></trkpt><trkpt lat="43.5359029" lon="12.6837031"><ele>357.0</ele><time>2026-03-08T11:21:55.934Z</time></trkpt><trkpt lat="43.5360148" lon="12.6834769"><ele>355.0</ele><time>2026-03-08T11:21:56.934Z</time></trkpt><trkpt lat="43.5361115" lon="12.68327"><ele>353.0</ele><time>2026-03-08T11:21:57.934Z</time></trkpt><trkpt lat="43.5361952" lon="12.6830648"><ele>348.5</ele><time>2026-03-08T11:21:58.935Z</time></trkpt><trkpt lat="43.5363645" lon="12.6826991"><ele>344.0</ele><time>2026-03-08T11:22:00.934Z</time></trkpt><trkpt lat="43.5364587" lon="12.6825003"><ele>344.0</ele><time>2026-03-08T11:22:01.934Z</time></trkpt><trkpt lat="43.5365583" lon="12.682293"><ele>344.0</ele><time>2026-03-08T11:22:02.934Z</time></trkpt><trkpt lat="43.5366517" lon="12.6820869"><ele>344.0</ele><time>2026-03-08T11:22:03.934Z</time></trkpt><trkpt lat="43.5367492" lon="12.6818719"><ele>345.0</ele><time>2026-03-08T11:22:04.934Z</time></trkpt><trkpt lat="43.5368253" lon="12.6816451"><ele>346.0</ele><time>2026-03-08T11:22:05.934Z</time></trkpt><trkpt lat="43.536902" lon="12.6814262"><ele>347.0</ele><time>2026-03-08T11:22:06.934Z</time></trkpt><trkpt lat="43.5369645" lon="12.6812151"><ele>346.6666666666667</ele><time>2026-03-08T11:22:07.934Z</time></trkpt><trkpt lat="43.5370233" lon="12.6809879"><ele>346.3333333333333</ele><time>2026-03-08T11:22:08.935Z</time></trkpt><trkpt lat="43.5370853" lon="12.6807592"><ele>346.0</ele><time>2026-03-08T11:22:09.934Z</time></trkpt><trkpt lat="43.5371189" lon="12.6805536"><ele>346.0</ele><time>2026-03-08T11:22:10.934Z</time></trkpt><trkpt lat="43.5371582" lon="12.6803318"><ele>346.0</ele><time>2026-03-08T11:22:11.934Z</time></trkpt><trkpt lat="43.537194" lon="12.6800898"><ele>346.0</ele><time>2026-03-08T11:22:12.934Z</time></trkpt><trkpt lat="43.537225" lon="12.6798572"><ele>346.0</ele><time>2026-03-08T11:22:13.934Z</time></trkpt><trkpt lat="43.5372643" lon="12.6796342"><ele>346.0</ele><time>2026-03-08T11:22:14.935Z</time></trkpt><trkpt lat="43.5372939" lon="12.6794219"><ele>346.0</ele><time>2026-03-08T11:22:15.934Z</time></trkpt><trkpt lat="43.537338" lon="12.6792335"><ele>346.25</ele><time>2026-03-08T11:22:16.935Z</time></trkpt><trkpt lat="43.5373837" lon="12.6790525"><ele>346.5</ele><time>2026-03-08T11:22:17.934Z</time></trkpt><trkpt lat="43.5374472" lon="12.6788831"><ele>346.75</ele><time>2026-03-08T11:22:18.934Z</time></trkpt><trkpt lat="43.537539" lon="12.6787434"><ele>347.0</ele><time>2026-03-08T11:22:19.935Z</time></trkpt><trkpt lat="43.5376303" lon="12.6785822"><ele>346.33333333333337</ele><time>2026-03-08T11:22:20.934Z</time></trkpt><trkpt lat="43.5377469" lon="12.6784216"><ele>345.6666666666667</ele><time>2026-03-08T11:22:21.934Z</time></trkpt><trkpt lat="43.5378804" lon="12.6782746"><ele>345.0</ele><time>2026-03-08T11:22:22.934Z</time></trkpt><trkpt lat="43.538029" lon="12.6781523"><ele>345.0</ele><time>2026-03-08T11:22:23.934Z</time></trkpt><trkpt lat="43.5381816" lon="12.6780109"><ele>345.0</ele><time>2026-03-08T11:22:24.934Z</time></trkpt><trkpt lat="43.5383201" lon="12.6778678"><ele>345.0</ele><time>2026-03-08T11:22:25.935Z</time></trkpt><trkpt lat="43.5386142" lon="12.6776083"><ele>341.6666666666667</ele><time>2026-03-08T11:22:27.935Z</time></trkpt><trkpt lat="43.5387565" lon="12.6774773"><ele>338.33333333333337</ele><time>2026-03-08T11:22:28.935Z</time></trkpt><trkpt lat="43.5389016" lon="12.6773515"><ele>335.0</ele><time>2026-03-08T11:22:29.934Z</time></trkpt><trkpt lat="43.5390337" lon="12.6772322"><ele>335.0</ele><time>2026-03-08T11:22:30.935Z</time></trkpt><trkpt lat="43.5391734" lon="12.6771051"><ele>335.0</ele><time>2026-03-08T11:22:31.935Z</time></trkpt><trkpt lat="43.5393068" lon="12.6769784"><ele>335.0</ele><time>2026-03-08T11:22:32.934Z</time></trkpt><trkpt lat="43.5394406" lon="12.6768614"><ele>331.33333333333337</ele><time>2026-03-08T11:22:33.934Z</time></trkpt><trkpt lat="43.5395672" lon="12.6767449"><ele>327.6666666666667</ele><time>2026-03-08T11:22:34.934Z</time></trkpt><trkpt lat="43.5398069" lon="12.6765349"><ele>324.0</ele><time>2026-03-08T11:22:36.934Z</time></trkpt><trkpt lat="43.5399228" lon="12.6764424"><ele>324.0</ele><time>2026-03-08T11:22:37.934Z</time></trkpt><trkpt lat="43.5400336" lon="12.6763444"><ele>324.0</ele><time>2026-03-08T11:22:38.934Z</time></trkpt><trkpt lat="43.5401361" lon="12.6762521"><ele>324.0</ele><time>2026-03-08T11:22:39.935Z</time></trkpt><trkpt lat="43.5402305" lon="12.6761862"><ele>324.0</ele><time>2026-03-08T11:22:40.935Z</time></trkpt><trkpt lat="43.5403371" lon="12.676129"><ele>322.75</ele><time>2026-03-08T11:22:41.935Z</time></trkpt><trkpt lat="43.5404348" lon="12.6760996"><ele>321.5</ele><time>2026-03-08T11:22:42.934Z</time></trkpt><trkpt lat="43.5406311" lon="12.6761223"><ele>320.25</ele><time>2026-03-08T11:22:44.934Z</time></trkpt><trkpt lat="43.5407115" lon="12.6761169"><ele>319.0</ele><time>2026-03-08T11:22:45.935Z</time></trkpt><trkpt lat="43.5407964" lon="12.6760864"><ele>319.0</ele><time>2026-03-08T11:22:46.934Z</time></trkpt><trkpt lat="43.5408792" lon="12.6760561"><ele>319.0</ele><time>2026-03-08T11:22:47.934Z</time></trkpt><trkpt lat="43.54094" lon="12.6759137"><ele>319.0</ele><time>2026-03-08T11:22:48.935Z</time></trkpt><trkpt lat="43.5409989" lon="12.6758125"><ele>319.0</ele><time>2026-03-08T11:22:49.934Z</time></trkpt><trkpt lat="43.5409691" lon="12.6756756"><ele>319.0</ele><time>2026-03-08T11:22:50.934Z</time></trkpt><trkpt lat="43.5409048" lon="12.6755421"><ele>319.0</ele><time>2026-03-08T11:22:51.934Z</time></trkpt><trkpt lat="43.5408846" lon="12.6754222"><ele>319.0</ele><time>2026-03-08T11:22:52.934Z</time></trkpt><trkpt lat="43.5408816" lon="12.67525"><ele>319.0</ele><time>2026-03-08T11:22:53.936Z</time></trkpt><trkpt lat="43.5408938" lon="12.6750869"><ele>319.0</ele><time>2026-03-08T11:22:54.934Z</time></trkpt><trkpt lat="43.5409056" lon="12.6749228"><ele>317.66666666666663</ele><time>2026-03-08T11:22:55.934Z</time></trkpt><trkpt lat="43.5409093" lon="12.6746311"><ele>316.3333333333333</ele><time>2026-03-08T11:22:56.936Z</time></trkpt><trkpt lat="43.5409257" lon="12.6743876"><ele>315.0</ele><time>2026-03-08T11:22:57.935Z</time></trkpt><trkpt lat="43.5409327" lon="12.6741481"><ele>314.3333333333333</ele><time>2026-03-08T11:22:58.934Z</time></trkpt><trkpt lat="43.5409503" lon="12.67388"><ele>313.66666666666663</ele><time>2026-03-08T11:22:59.934Z</time></trkpt><trkpt lat="43.5409603" lon="12.6736392"><ele>313.0</ele><time>2026-03-08T11:23:00.934Z</time></trkpt><trkpt lat="43.5409847" lon="12.6731667"><ele>311.3333333333333</ele><time>2026-03-08T11:23:02.934Z</time></trkpt><trkpt lat="43.5409997" lon="12.6729408"><ele>309.6666666666667</ele><time>2026-03-08T11:23:03.934Z</time></trkpt><trkpt lat="43.5410332" lon="12.6727489"><ele>308.0</ele><time>2026-03-08T11:23:04.935Z</time></trkpt><trkpt lat="43.5410768" lon="12.6725477"><ele>306.0</ele><time>2026-03-08T11:23:05.934Z</time></trkpt><trkpt lat="43.5411352" lon="12.6723495"><ele>304.0</ele><time>2026-03-08T11:23:06.934Z</time></trkpt><trkpt lat="43.5412155" lon="12.6721377"><ele>302.0</ele><time>2026-03-08T11:23:07.934Z</time></trkpt><trkpt lat="43.5413003" lon="12.6719107"><ele>302.0</ele><time>2026-03-08T11:23:08.934Z</time></trkpt><trkpt lat="43.5414781" lon="12.6714509"><ele>302.0</ele><time>2026-03-08T11:23:10.934Z</time></trkpt><trkpt lat="43.5415715" lon="12.6712269"><ele>300.0</ele><time>2026-03-08T11:23:11.934Z</time></trkpt><trkpt lat="43.5416595" lon="12.6709745"><ele>298.0</ele><time>2026-03-08T11:23:12.934Z</time></trkpt><trkpt lat="43.5417588" lon="12.6707401"><ele>296.0</ele><time>2026-03-08T11:23:13.935Z</time></trkpt><trkpt lat="43.5418511" lon="12.6705413"><ele>296.0</ele><time>2026-03-08T11:23:14.934Z</time></trkpt><trkpt lat="43.5419332" lon="12.6702817"><ele>296.0</ele><time>2026-03-08T11:23:15.934Z</time></trkpt><trkpt lat="43.5420425" lon="12.6700153"><ele>296.0</ele><time>2026-03-08T11:23:16.934Z</time></trkpt><trkpt lat="43.5421353" lon="12.6697703"><ele>296.0</ele><time>2026-03-08T11:23:17.934Z</time></trkpt><trkpt lat="43.5422208" lon="12.6695171"><ele>296.0</ele><time>2026-03-08T11:23:18.934Z</time></trkpt><trkpt lat="43.5422934" lon="12.6693115"><ele>296.0</ele><time>2026-03-08T11:23:19.934Z</time></trkpt><trkpt lat="43.5423644" lon="12.6690911"><ele>298.6666666666667</ele><time>2026-03-08T11:23:20.934Z</time></trkpt><trkpt lat="43.5424311" lon="12.6688684"><ele>301.3333333333333</ele><time>2026-03-08T11:23:21.934Z</time></trkpt><trkpt lat="43.5424819" lon="12.6686536"><ele>304.0</ele><time>2026-03-08T11:23:22.934Z</time></trkpt><trkpt lat="43.5425599" lon="12.6684053"><ele>304.0</ele><time>2026-03-08T11:23:23.934Z</time></trkpt><trkpt lat="43.5426301" lon="12.668174"><ele>304.0</ele><time>2026-03-08T11:23:24.934Z</time></trkpt><trkpt lat="43.5426725" lon="12.6679439"><ele>304.0</ele><time>2026-03-08T11:23:25.935Z</time></trkpt><trkpt lat="43.5427165" lon="12.6677243"><ele>304.3333333333333</ele><time>2026-03-08T11:23:26.934Z</time></trkpt><trkpt lat="43.5427343" lon="12.6675005"><ele>304.6666666666667</ele><time>2026-03-08T11:23:27.934Z</time></trkpt><trkpt lat="43.5427567" lon="12.6672863"><ele>305.0</ele><time>2026-03-08T11:23:28.935Z</time></trkpt><trkpt lat="43.5427738" lon="12.667072"><ele>305.33333333333337</ele><time>2026-03-08T11:23:29.934Z</time></trkpt><trkpt lat="43.5428067" lon="12.6668697"><ele>305.6666666666667</ele><time>2026-03-08T11:23:30.935Z</time></trkpt><trkpt lat="43.5429089" lon="12.6666269"><ele>306.0</ele><time>2026-03-08T11:23:31.934Z</time></trkpt><trkpt lat="43.5430098" lon="12.6664335"><ele>304.3333333333333</ele><time>2026-03-08T11:23:32.935Z</time></trkpt><trkpt lat="43.5430878" lon="12.6662201"><ele>302.66666666666663</ele><time>2026-03-08T11:23:33.934Z</time></trkpt><trkpt lat="43.5431784" lon="12.6660592"><ele>301.0</ele><time>2026-03-08T11:23:34.934Z</time></trkpt><trkpt lat="43.5433419" lon="12.6656445"><ele>301.0</ele><time>2026-03-08T11:23:36.934Z</time></trkpt><trkpt lat="43.5434257" lon="12.6654562"><ele>301.0</ele><time>2026-03-08T11:23:37.934Z</time></trkpt><trkpt lat="43.5434753" lon="12.665241"><ele>301.0</ele><time>2026-03-08T11:23:38.934Z</time></trkpt><trkpt lat="43.5435292" lon="12.665034"><ele>301.0</ele><time>2026-03-08T11:23:39.934Z</time></trkpt><trkpt lat="43.5436039" lon="12.6648178"><ele>301.0</ele><time>2026-03-08T11:23:40.935Z</time></trkpt><trkpt lat="43.5436592" lon="12.6646391"><ele>301.0</ele><time>2026-03-08T11:23:41.934Z</time></trkpt><trkpt lat="43.5437311" lon="12.6644485"><ele>297.5</ele><time>2026-03-08T11:23:42.934Z</time></trkpt><trkpt lat="43.5438104" lon="12.6642297"><ele>294.0</ele><time>2026-03-08T11:23:43.936Z</time></trkpt><trkpt lat="43.5439321" lon="12.6638339"><ele>294.0</ele><time>2026-03-08T11:23:45.935Z</time></trkpt><trkpt lat="43.5440017" lon="12.6636416"><ele>294.0</ele><time>2026-03-08T11:23:46.934Z</time></trkpt><trkpt lat="43.5440718" lon="12.6634794"><ele>294.0</ele><time>2026-03-08T11:23:47.934Z</time></trkpt><trkpt lat="43.5441337" lon="12.6633031"><ele>294.0</ele><time>2026-03-08T11:23:48.934Z</time></trkpt><trkpt lat="43.5442066" lon="12.6631286"><ele>294.0</ele><time>2026-03-08T11:23:49.934Z</time></trkpt><trkpt lat="43.5442697" lon="12.6629549"><ele>294.0</ele><time>2026-03-08T11:23:50.934Z</time></trkpt><trkpt lat="43.5443293" lon="12.6628087"><ele>294.0</ele><time>2026-03-08T11:23:51.934Z</time></trkpt><trkpt lat="43.5443949" lon="12.662639"><ele>294.0</ele><time>2026-03-08T11:23:52.934Z</time></trkpt><trkpt lat="43.5445148" lon="12.6623021"><ele>292.0</ele><time>2026-03-08T11:23:54.934Z</time></trkpt><trkpt lat="43.5445817" lon="12.6621386"><ele>290.0</ele><time>2026-03-08T11:23:55.934Z</time></trkpt><trkpt lat="43.5446467" lon="12.6619732"><ele>288.0</ele><time>2026-03-08T11:23:56.934Z</time></trkpt><trkpt lat="43.5447017" lon="12.661821"><ele>286.0</ele><time>2026-03-08T11:23:57.934Z</time></trkpt><trkpt lat="43.5447567" lon="12.6616416"><ele>286.0</ele><time>2026-03-08T11:23:58.934Z</time></trkpt><trkpt lat="43.5448085" lon="12.6614804"><ele>286.0</ele><time>2026-03-08T11:23:59.934Z</time></trkpt><trkpt lat="43.5448749" lon="12.661345"><ele>286.0</ele><time>2026-03-08T11:24:00.934Z</time></trkpt><trkpt lat="43.5449431" lon="12.661194"><ele>286.0</ele><time>2026-03-08T11:24:01.934Z</time></trkpt><trkpt lat="43.5450316" lon="12.6610347"><ele>286.75</ele><time>2026-03-08T11:24:02.934Z</time></trkpt><trkpt lat="43.5451239" lon="12.6608727"><ele>287.5</ele><time>2026-03-08T11:24:03.934Z</time></trkpt><trkpt lat="43.5451985" lon="12.6607612"><ele>288.25</ele><time>2026-03-08T11:24:04.935Z</time></trkpt><trkpt lat="43.5452902" lon="12.6606323"><ele>289.0</ele><time>2026-03-08T11:24:05.934Z</time></trkpt><trkpt lat="43.5453771" lon="12.6605547"><ele>287.8</ele><time>2026-03-08T11:24:06.934Z</time></trkpt><trkpt lat="43.5454503" lon="12.6604711"><ele>286.59999999999997</ele><time>2026-03-08T11:24:07.934Z</time></trkpt><trkpt lat="43.5455151" lon="12.6604035"><ele>285.4</ele><time>2026-03-08T11:24:08.935Z</time></trkpt><trkpt lat="43.5455816" lon="12.6603398"><ele>284.2</ele><time>2026-03-08T11:24:09.934Z</time></trkpt><trkpt lat="43.5456656" lon="12.6602466"><ele>283.0</ele><time>2026-03-08T11:24:11.934Z</time></trkpt><trkpt lat="43.54576" lon="12.6601613"><ele>283.0</ele><time>2026-03-08T11:24:13.935Z</time></trkpt><trkpt lat="43.5458511" lon="12.6601032"><ele>283.0</ele><time>2026-03-08T11:24:15.934Z</time></trkpt><trkpt lat="43.5459122" lon="12.6600416"><ele>283.0</ele><time>2026-03-08T11:24:16.934Z</time></trkpt><trkpt lat="43.5459672" lon="12.6599664"><ele>283.0</ele><time>2026-03-08T11:24:17.934Z</time></trkpt><trkpt lat="43.5460169" lon="12.6598825"><ele>283.0</ele><time>2026-03-08T11:24:18.934Z</time></trkpt><trkpt lat="43.5461107" lon="12.6596861"><ele>283.0</ele><time>2026-03-08T11:24:20.935Z</time></trkpt><trkpt lat="43.5461593" lon="12.659581"><ele>283.0</ele><time>2026-03-08T11:24:21.934Z</time></trkpt><trkpt lat="43.5462027" lon="12.6594594"><ele>283.0</ele><time>2026-03-08T11:24:22.934Z</time></trkpt><trkpt lat="43.5462473" lon="12.6593298"><ele>283.0</ele><time>2026-03-08T11:24:23.934Z</time></trkpt><trkpt lat="43.5463036" lon="12.6592058"><ele>283.0</ele><time>2026-03-08T11:24:24.935Z</time></trkpt><trkpt lat="43.5463461" lon="12.6590696"><ele>282.75</ele><time>2026-03-08T11:24:25.934Z</time></trkpt><trkpt lat="43.5463927" lon="12.6589474"><ele>282.5</ele><time>2026-03-08T11:24:26.934Z</time></trkpt><trkpt lat="43.5464435" lon="12.6588073"><ele>282.25</ele><time>2026-03-08T11:24:27.934Z</time></trkpt><trkpt lat="43.5464958" lon="12.6586482"><ele>282.0</ele><time>2026-03-08T11:24:28.934Z</time></trkpt><trkpt lat="43.5465475" lon="12.6585133"><ele>282.0</ele><time>2026-03-08T11:24:29.934Z</time></trkpt><trkpt lat="43.5465945" lon="12.658374"><ele>282.0</ele><time>2026-03-08T11:24:30.934Z</time></trkpt><trkpt lat="43.5466412" lon="12.658258"><ele>282.0</ele><time>2026-03-08T11:24:31.934Z</time></trkpt><trkpt lat="43.5466823" lon="12.6581374"><ele>282.0</ele><time>2026-03-08T11:24:32.934Z</time></trkpt><trkpt lat="43.5467268" lon="12.65801"><ele>282.0</ele><time>2026-03-08T11:24:33.934Z</time></trkpt><trkpt lat="43.5467698" lon="12.6578819"><ele>282.0</ele><time>2026-03-08T11:24:34.934Z</time></trkpt><trkpt lat="43.5468122" lon="12.6577683"><ele>282.0</ele><time>2026-03-08T11:24:35.934Z</time></trkpt><trkpt lat="43.5468928" lon="12.6575179"><ele>282.0</ele><time>2026-03-08T11:24:37.934Z</time></trkpt><trkpt lat="43.5469312" lon="12.6573918"><ele>282.0</ele><time>2026-03-08T11:24:38.934Z</time></trkpt><trkpt lat="43.5469674" lon="12.6572591"><ele>282.0</ele><time>2026-03-08T11:24:39.934Z</time></trkpt><trkpt lat="43.5469952" lon="12.6571262"><ele>282.0</ele><time>2026-03-08T11:24:40.934Z</time></trkpt><trkpt lat="43.5470213" lon="12.6569939"><ele>282.0</ele><time>2026-03-08T11:24:41.935Z</time></trkpt><trkpt lat="43.5470436" lon="12.6568499"><ele>282.0</ele><time>2026-03-08T11:24:42.934Z</time></trkpt><trkpt lat="43.547057" lon="12.6567013"><ele>282.0</ele><time>2026-03-08T11:24:43.934Z</time></trkpt><trkpt lat="43.5470615" lon="12.6565457"><ele>281.75</ele><time>2026-03-08T11:24:44.934Z</time></trkpt><trkpt lat="43.5470422" lon="12.6562405"><ele>281.5</ele><time>2026-03-08T11:24:46.935Z</time></trkpt><trkpt lat="43.547039" lon="12.6561091"><ele>281.25</ele><time>2026-03-08T11:24:47.935Z</time></trkpt><trkpt lat="43.5470187" lon="12.6559668"><ele>281.0</ele><time>2026-03-08T11:24:48.935Z</time></trkpt><trkpt lat="43.5469897" lon="12.6558"><ele>280.5</ele><time>2026-03-08T11:24:49.934Z</time></trkpt><trkpt lat="43.5469537" lon="12.6556483"><ele>280.0</ele><time>2026-03-08T11:24:50.935Z</time></trkpt><trkpt lat="43.5469175" lon="12.6555231"><ele>279.5</ele><time>2026-03-08T11:24:51.934Z</time></trkpt><trkpt lat="43.5468631" lon="12.6553547"><ele>279.0</ele><time>2026-03-08T11:24:52.935Z</time></trkpt><trkpt lat="43.5468196" lon="12.6552191"><ele>277.4</ele><time>2026-03-08T11:24:53.934Z</time></trkpt><trkpt lat="43.5467635" lon="12.6550818"><ele>275.79999999999995</ele><time>2026-03-08T11:24:54.934Z</time></trkpt><trkpt lat="43.5466942" lon="12.654961"><ele>274.20000000000005</ele><time>2026-03-08T11:24:55.935Z</time></trkpt><trkpt lat="43.5466251" lon="12.6548464"><ele>272.6</ele><time>2026-03-08T11:24:56.934Z</time></trkpt><trkpt lat="43.5465505" lon="12.6547318"><ele>271.0</ele><time>2026-03-08T11:24:57.934Z</time></trkpt><trkpt lat="43.5464749" lon="12.6546225"><ele>271.0</ele><time>2026-03-08T11:24:58.934Z</time></trkpt><trkpt lat="43.5464004" lon="12.6545039"><ele>271.0</ele><time>2026-03-08T11:24:59.934Z</time></trkpt><trkpt lat="43.5463216" lon="12.6543963"><ele>271.0</ele><time>2026-03-08T11:25:00.935Z</time></trkpt><trkpt lat="43.5462453" lon="12.6542928"><ele>271.0</ele><time>2026-03-08T11:25:01.934Z</time></trkpt><trkpt lat="43.5461648" lon="12.6541882"><ele>271.0</ele><time>2026-03-08T11:25:02.934Z</time></trkpt><trkpt lat="43.5460932" lon="12.6540877"><ele>272.2</ele><time>2026-03-08T11:25:03.934Z</time></trkpt><trkpt lat="43.5460273" lon="12.6539941"><ele>273.40000000000003</ele><time>2026-03-08T11:25:04.934Z</time></trkpt><trkpt lat="43.545962" lon="12.6539097"><ele>274.6</ele><time>2026-03-08T11:25:05.934Z</time></trkpt><trkpt lat="43.5458926" lon="12.6538187"><ele>275.8</ele><time>2026-03-08T11:25:06.934Z</time></trkpt><trkpt lat="43.5458239" lon="12.6537238"><ele>277.0</ele><time>2026-03-08T11:25:07.934Z</time></trkpt><trkpt lat="43.545752" lon="12.6536261"><ele>275.0</ele><time>2026-03-08T11:25:08.934Z</time></trkpt><trkpt lat="43.5456862" lon="12.6535294"><ele>273.0</ele><time>2026-03-08T11:25:09.934Z</time></trkpt><trkpt lat="43.5456197" lon="12.6534418"><ele>271.0</ele><time>2026-03-08T11:25:10.935Z</time></trkpt><trkpt lat="43.5455575" lon="12.6533514"><ele>269.0</ele><time>2026-03-08T11:25:11.934Z</time></trkpt><trkpt lat="43.5454258" lon="12.6531496"><ele>269.0</ele><time>2026-03-08T11:25:13.934Z</time></trkpt><trkpt lat="43.545385" lon="12.6530515"><ele>269.0</ele><time>2026-03-08T11:25:14.934Z</time></trkpt><trkpt lat="43.5453564" lon="12.6529472"><ele>269.0</ele><time>2026-03-08T11:25:15.934Z</time></trkpt><trkpt lat="43.5453256" lon="12.6528446"><ele>269.0</ele><time>2026-03-08T11:25:16.935Z</time></trkpt><trkpt lat="43.5453178" lon="12.6527275"><ele>269.0</ele><time>2026-03-08T11:25:17.935Z</time></trkpt><trkpt lat="43.5453044" lon="12.652627"><ele>269.0</ele><time>2026-03-08T11:25:18.934Z</time></trkpt><trkpt lat="43.5453025" lon="12.6525249"><ele>269.4</ele><time>2026-03-08T11:25:19.934Z</time></trkpt><trkpt lat="43.5453098" lon="12.652422"><ele>269.79999999999995</ele><time>2026-03-08T11:25:20.934Z</time></trkpt><trkpt lat="43.5453305" lon="12.6523168"><ele>270.20000000000005</ele><time>2026-03-08T11:25:21.934Z</time></trkpt><trkpt lat="43.5453802" lon="12.652129"><ele>270.6</ele><time>2026-03-08T11:25:23.934Z</time></trkpt><trkpt lat="43.5454211" lon="12.6520246"><ele>271.0</ele><time>2026-03-08T11:25:24.934Z</time></trkpt><trkpt lat="43.5454759" lon="12.6518937"><ele>266.6</ele><time>2026-03-08T11:25:25.935Z</time></trkpt><trkpt lat="43.5455265" lon="12.6517718"><ele>262.20000000000005</ele><time>2026-03-08T11:25:26.934Z</time></trkpt><trkpt lat="43.5455838" lon="12.6516461"><ele>257.79999999999995</ele><time>2026-03-08T11:25:27.934Z</time></trkpt><trkpt lat="43.5456204" lon="12.6515269"><ele>253.39999999999998</ele><time>2026-03-08T11:25:28.934Z</time></trkpt><trkpt lat="43.5456668" lon="12.6514416"><ele>249.0</ele><time>2026-03-08T11:25:29.935Z</time></trkpt><trkpt lat="43.5457026" lon="12.6513135"><ele>249.0</ele><time>2026-03-08T11:25:30.934Z</time></trkpt><trkpt lat="43.5457381" lon="12.6511695"><ele>249.0</ele><time>2026-03-08T11:25:31.934Z</time></trkpt><trkpt lat="43.5457695" lon="12.6510856"><ele>249.0</ele><time>2026-03-08T11:25:32.934Z</time></trkpt><trkpt lat="43.5457907" lon="12.650988"><ele>249.0</ele><time>2026-03-08T11:25:33.935Z</time></trkpt><trkpt lat="43.5458244" lon="12.6508778"><ele>249.0</ele><time>2026-03-08T11:25:35.934Z</time></trkpt><trkpt lat="43.5458617" lon="12.6507613"><ele>249.0</ele><time>2026-03-08T11:26:30.936Z</time></trkpt><trkpt lat="43.5459029" lon="12.6506932"><ele>250.0</ele><time>2026-03-08T11:26:32.935Z</time></trkpt><trkpt lat="43.5459378" lon="12.650609"><ele>250.99999999999997</ele><time>2026-03-08T11:26:34.935Z</time></trkpt><trkpt lat="43.5459774" lon="12.6505302"><ele>252.0</ele><time>2026-03-08T11:26:36.935Z</time></trkpt><trkpt lat="43.5460284" lon="12.650479"><ele>253.0</ele><time>2026-03-08T11:26:38.935Z</time></trkpt><trkpt lat="43.5460903" lon="12.6504974"><ele>253.99999999999997</ele><time>2026-03-08T11:26:40.935Z</time></trkpt><trkpt lat="43.5461709" lon="12.6505431"><ele>255.0</ele><time>2026-03-08T11:26:43.935Z</time></trkpt><trkpt lat="43.5462399" lon="12.6505783"><ele>256.0</ele><time>2026-03-08T11:26:45.935Z</time></trkpt><trkpt lat="43.5463576" lon="12.6506294"><ele>256.8333333333333</ele><time>2026-03-08T11:26:47.936Z</time></trkpt><trkpt lat="43.5464168" lon="12.6506638"><ele>257.66666666666663</ele><time>2026-03-08T11:26:48.935Z</time></trkpt><trkpt lat="43.5464884" lon="12.650697"><ele>258.5</ele><time>2026-03-08T11:26:49.935Z</time></trkpt><trkpt lat="43.5465872" lon="12.6507207"><ele>259.3333333333333</ele><time>2026-03-08T11:26:50.935Z</time></trkpt><trkpt lat="43.5466453" lon="12.6507569"><ele>260.1666666666667</ele><time>2026-03-08T11:26:51.936Z</time></trkpt><trkpt lat="43.5467306" lon="12.6507768"><ele>261.0</ele><time>2026-03-08T11:26:52.935Z</time></trkpt><trkpt lat="43.5468191" lon="12.6508404"><ele>261.0</ele><time>2026-03-08T11:26:53.936Z</time></trkpt><trkpt lat="43.5469032" lon="12.6509063"><ele>261.0</ele><time>2026-03-08T11:26:54.935Z</time></trkpt><trkpt lat="43.5469863" lon="12.6509569"><ele>261.0</ele><time>2026-03-08T11:26:55.935Z</time></trkpt><trkpt lat="43.5470756" lon="12.6510096"><ele>261.0</ele><time>2026-03-08T11:26:56.936Z</time></trkpt><trkpt lat="43.5471738" lon="12.6510507"><ele>261.0</ele><time>2026-03-08T11:26:57.935Z</time></trkpt><trkpt lat="43.5472617" lon="12.6510812"><ele>261.0</ele><time>2026-03-08T11:26:58.935Z</time></trkpt><trkpt lat="43.547337" lon="12.6511146"><ele>261.0</ele><time>2026-03-08T11:26:59.935Z</time></trkpt><trkpt lat="43.5474133" lon="12.651134"><ele>261.0</ele><time>2026-03-08T11:27:00.935Z</time></trkpt><trkpt lat="43.5474913" lon="12.6511533"><ele>261.0</ele><time>2026-03-08T11:27:01.935Z</time></trkpt><trkpt lat="43.547578" lon="12.6511642"><ele>261.0</ele><time>2026-03-08T11:27:02.935Z</time></trkpt><trkpt lat="43.5476524" lon="12.6511692"><ele>261.0</ele><time>2026-03-08T11:27:03.935Z</time></trkpt><trkpt lat="43.5477493" lon="12.6511538"><ele>261.0</ele><time>2026-03-08T11:27:04.935Z</time></trkpt><trkpt lat="43.5478376" lon="12.6511347"><ele>261.0</ele><time>2026-03-08T11:27:05.935Z</time></trkpt><trkpt lat="43.5479131" lon="12.6511132"><ele>261.0</ele><time>2026-03-08T11:27:06.935Z</time></trkpt><trkpt lat="43.5481341" lon="12.6510541"><ele>261.0</ele><time>2026-03-08T11:27:08.936Z</time></trkpt><trkpt lat="43.5482701" lon="12.6510278"><ele>261.2</ele><time>2026-03-08T11:27:09.935Z</time></trkpt><trkpt lat="43.548359" lon="12.6509833"><ele>261.40000000000003</ele><time>2026-03-08T11:27:10.935Z</time></trkpt><trkpt lat="43.5484583" lon="12.6509512"><ele>261.6</ele><time>2026-03-08T11:27:11.935Z</time></trkpt><trkpt lat="43.5485654" lon="12.6509123"><ele>261.8</ele><time>2026-03-08T11:27:12.935Z</time></trkpt><trkpt lat="43.5486701" lon="12.6508782"><ele>262.0</ele><time>2026-03-08T11:27:13.935Z</time></trkpt><trkpt lat="43.5487672" lon="12.6508367"><ele>259.8</ele><time>2026-03-08T11:27:14.935Z</time></trkpt><trkpt lat="43.5488807" lon="12.6508079"><ele>257.6</ele><time>2026-03-08T11:27:15.935Z</time></trkpt><trkpt lat="43.5489794" lon="12.6507785"><ele>255.40000000000003</ele><time>2026-03-08T11:27:16.935Z</time></trkpt><trkpt lat="43.5490966" lon="12.6507351"><ele>253.20000000000002</ele><time>2026-03-08T11:27:17.935Z</time></trkpt><trkpt lat="43.5491936" lon="12.6507027"><ele>251.0</ele><time>2026-03-08T11:27:18.935Z</time></trkpt><trkpt lat="43.5492944" lon="12.6506639"><ele>251.00000000000003</ele><time>2026-03-08T11:27:19.935Z</time></trkpt><trkpt lat="43.5493925" lon="12.6506398"><ele>251.0</ele><time>2026-03-08T11:27:20.935Z</time></trkpt><trkpt lat="43.5494938" lon="12.6506061"><ele>251.0</ele><time>2026-03-08T11:27:21.935Z</time></trkpt><trkpt lat="43.5495615" lon="12.6505851"><ele>251.0</ele><time>2026-03-08T11:27:22.935Z</time></trkpt><trkpt lat="43.5496285" lon="12.6505637"><ele>251.00000000000003</ele><time>2026-03-08T11:27:23.935Z</time></trkpt><trkpt lat="43.5496979" lon="12.6505518"><ele>251.0</ele><time>2026-03-08T11:27:24.935Z</time></trkpt><trkpt lat="43.549771" lon="12.6505495"><ele>250.00000000000003</ele><time>2026-03-08T11:27:25.935Z</time></trkpt><trkpt lat="43.5498294" lon="12.6504594"><ele>249.0</ele><time>2026-03-08T11:27:27.935Z</time></trkpt><trkpt lat="43.5498301" lon="12.6503413"><ele>248.0</ele><time>2026-03-08T11:27:29.935Z</time></trkpt><trkpt lat="43.5498" lon="12.6502117"><ele>247.0</ele><time>2026-03-08T11:27:31.935Z</time></trkpt><trkpt lat="43.5497448" lon="12.6501239"><ele>246.00000000000003</ele><time>2026-03-08T11:27:33.935Z</time></trkpt><trkpt lat="43.549679" lon="12.6501091"><ele>245.0</ele><time>2026-03-08T11:31:53.936Z</time></trkpt><trkpt lat="43.5496618" lon="12.6502144"><ele>244.83333333333334</ele><time>2026-03-08T11:31:57.936Z</time></trkpt><trkpt lat="43.5496987" lon="12.6503062"><ele>244.66666666666669</ele><time>2026-03-08T11:31:59.936Z</time></trkpt><trkpt lat="43.5497154" lon="12.6504067"><ele>244.5</ele><time>2026-03-08T11:32:02.936Z</time></trkpt><trkpt lat="43.5496824" lon="12.6504818"><ele>244.33333333333331</ele><time>2026-03-08T11:32:04.936Z</time></trkpt><trkpt lat="43.5496253" lon="12.6505433"><ele>244.16666666666666</ele><time>2026-03-08T11:32:05.937Z</time></trkpt><trkpt lat="43.54951" lon="12.6505892"><ele>244.0</ele><time>2026-03-08T11:32:07.936Z</time></trkpt><trkpt lat="43.549414" lon="12.6506237"><ele>245.39999999999998</ele><time>2026-03-08T11:32:08.936Z</time></trkpt><trkpt lat="43.5492909" lon="12.6506407"><ele>246.79999999999998</ele><time>2026-03-08T11:32:09.936Z</time></trkpt><trkpt lat="43.5491959" lon="12.6506746"><ele>248.20000000000002</ele><time>2026-03-08T11:32:10.936Z</time></trkpt><trkpt lat="43.5490899" lon="12.6507013"><ele>249.60000000000002</ele><time>2026-03-08T11:32:11.936Z</time></trkpt><trkpt lat="43.5489852" lon="12.6507422"><ele>251.0</ele><time>2026-03-08T11:32:12.936Z</time></trkpt><trkpt lat="43.5488663" lon="12.6507867"><ele>251.0</ele><time>2026-03-08T11:32:13.937Z</time></trkpt><trkpt lat="43.5487365" lon="12.650817"><ele>251.0</ele><time>2026-03-08T11:32:14.936Z</time></trkpt><trkpt lat="43.5486117" lon="12.6508443"><ele>251.0</ele><time>2026-03-08T11:32:15.936Z</time></trkpt><trkpt lat="43.5484876" lon="12.650894"><ele>251.0</ele><time>2026-03-08T11:32:16.937Z</time></trkpt><trkpt lat="43.5483619" lon="12.650918"><ele>253.20000000000002</ele><time>2026-03-08T11:32:17.936Z</time></trkpt><trkpt lat="43.5482484" lon="12.6509291"><ele>255.40000000000003</ele><time>2026-03-08T11:32:18.936Z</time></trkpt><trkpt lat="43.5481425" lon="12.6509378"><ele>257.6</ele><time>2026-03-08T11:32:19.936Z</time></trkpt><trkpt lat="43.5480462" lon="12.6509585"><ele>259.8</ele><time>2026-03-08T11:32:20.937Z</time></trkpt><trkpt lat="43.5479444" lon="12.6509842"><ele>262.0</ele><time>2026-03-08T11:32:21.936Z</time></trkpt><trkpt lat="43.5478515" lon="12.6510065"><ele>263.0</ele><time>2026-03-08T11:32:22.936Z</time></trkpt><trkpt lat="43.5477395" lon="12.6510447"><ele>264.0</ele><time>2026-03-08T11:32:23.936Z</time></trkpt><trkpt lat="43.5476343" lon="12.6510801"><ele>265.0</ele><time>2026-03-08T11:32:24.937Z</time></trkpt><trkpt lat="43.5475032" lon="12.6510988"><ele>266.0</ele><time>2026-03-08T11:32:25.936Z</time></trkpt><trkpt lat="43.5473644" lon="12.6510935"><ele>266.0</ele><time>2026-03-08T11:32:26.936Z</time></trkpt><trkpt lat="43.5472682" lon="12.6510322"><ele>266.0</ele><time>2026-03-08T11:32:27.936Z</time></trkpt><trkpt lat="43.5471752" lon="12.6509654"><ele>266.0</ele><time>2026-03-08T11:32:28.936Z</time></trkpt><trkpt lat="43.547087" lon="12.6509264"><ele>266.0</ele><time>2026-03-08T11:32:29.936Z</time></trkpt><trkpt lat="43.5470099" lon="12.6508837"><ele>266.0</ele><time>2026-03-08T11:32:30.936Z</time></trkpt><trkpt lat="43.5469301" lon="12.6508386"><ele>265.2857142857143</ele><time>2026-03-08T11:32:31.936Z</time></trkpt><trkpt lat="43.546858" lon="12.6508076"><ele>264.57142857142856</ele><time>2026-03-08T11:32:32.936Z</time></trkpt><trkpt lat="43.5467924" lon="12.6507564"><ele>263.8571428571429</ele><time>2026-03-08T11:32:33.936Z</time></trkpt><trkpt lat="43.546729" lon="12.6507141"><ele>263.1428571428571</ele><time>2026-03-08T11:32:34.936Z</time></trkpt><trkpt lat="43.5466549" lon="12.6507144"><ele>262.42857142857144</ele><time>2026-03-08T11:32:37.936Z</time></trkpt><trkpt lat="43.54658" lon="12.6506903"><ele>261.7142857142857</ele><time>2026-03-08T11:32:39.937Z</time></trkpt><trkpt lat="43.546515" lon="12.6506443"><ele>261.0</ele><time>2026-03-08T11:32:41.936Z</time></trkpt><trkpt lat="43.546455" lon="12.6505959"><ele>261.0</ele><time>2026-03-08T11:32:43.936Z</time></trkpt><trkpt lat="43.546362" lon="12.6505132"><ele>261.0</ele><time>2026-03-08T11:34:11.982Z</time></trkpt><trkpt lat="43.5464498" lon="12.6506478"><ele>261.0</ele><time>2026-03-08T11:48:53.938Z</time></trkpt><trkpt lat="43.5465157" lon="12.6506943"><ele>261.0</ele><time>2026-03-08T11:48:54.939Z</time></trkpt><trkpt lat="43.5465794" lon="12.6507356"><ele>261.0</ele><time>2026-03-08T11:48:55.938Z</time></trkpt><trkpt lat="43.5466468" lon="12.6507784"><ele>261.0</ele><time>2026-03-08T11:48:56.94Z</time></trkpt><trkpt lat="43.5467239" lon="12.6508224"><ele>261.0</ele><time>2026-03-08T11:48:57.94Z</time></trkpt><trkpt lat="43.546806" lon="12.6508672"><ele>261.0</ele><time>2026-03-08T11:48:58.939Z</time></trkpt><trkpt lat="43.5468871" lon="12.6509198"><ele>261.0</ele><time>2026-03-08T11:48:59.938Z</time></trkpt><trkpt lat="43.5469644" lon="12.6509691"><ele>261.0</ele><time>2026-03-08T11:49:00.938Z</time></trkpt><trkpt lat="43.5470436" lon="12.6510133"><ele>261.0</ele><time>2026-03-08T11:49:01.939Z</time></trkpt><trkpt lat="43.5471244" lon="12.6510568"><ele>261.0</ele><time>2026-03-08T11:49:02.938Z</time></trkpt><trkpt lat="43.5472036" lon="12.6510965"><ele>261.0</ele><time>2026-03-08T11:49:03.939Z</time></trkpt><trkpt lat="43.5472821" lon="12.6511325"><ele>261.0</ele><time>2026-03-08T11:49:04.938Z</time></trkpt><trkpt lat="43.5473664" lon="12.6511581"><ele>261.0</ele><time>2026-03-08T11:49:05.938Z</time></trkpt><trkpt lat="43.5474571" lon="12.6511783"><ele>261.0</ele><time>2026-03-08T11:49:06.938Z</time></trkpt><trkpt lat="43.5475556" lon="12.6511915"><ele>261.0</ele><time>2026-03-08T11:49:07.938Z</time></trkpt><trkpt lat="43.5476628" lon="12.6511876"><ele>261.0</ele><time>2026-03-08T11:49:08.938Z</time></trkpt><trkpt lat="43.5477739" lon="12.6511674"><ele>261.0</ele><time>2026-03-08T11:49:09.939Z</time></trkpt><trkpt lat="43.5478844" lon="12.6511351"><ele>261.0</ele><time>2026-03-08T11:49:10.938Z</time></trkpt><trkpt lat="43.547996" lon="12.651098"><ele>261.0</ele><time>2026-03-08T11:49:11.939Z</time></trkpt><trkpt lat="43.548107" lon="12.651053"><ele>261.25</ele><time>2026-03-08T11:49:12.938Z</time></trkpt><trkpt lat="43.5482238" lon="12.6510147"><ele>261.5</ele><time>2026-03-08T11:49:13.938Z</time></trkpt><trkpt lat="43.5483414" lon="12.6509806"><ele>261.75</ele><time>2026-03-08T11:49:14.94Z</time></trkpt><trkpt lat="43.5484611" lon="12.650951"><ele>262.0</ele><time>2026-03-08T11:49:15.938Z</time></trkpt><trkpt lat="43.5485824" lon="12.6509208"><ele>262.0</ele><time>2026-03-08T11:49:16.938Z</time></trkpt><trkpt lat="43.5487024" lon="12.6508838"><ele>262.0</ele><time>2026-03-08T11:49:17.94Z</time></trkpt><trkpt lat="43.5488246" lon="12.6508497"><ele>262.0</ele><time>2026-03-08T11:49:18.939Z</time></trkpt><trkpt lat="43.5489466" lon="12.6508145"><ele>262.0</ele><time>2026-03-08T11:49:19.939Z</time></trkpt><trkpt lat="43.5490632" lon="12.6507771"><ele>259.8</ele><time>2026-03-08T11:49:20.938Z</time></trkpt><trkpt lat="43.5491784" lon="12.6507397"><ele>257.6</ele><time>2026-03-08T11:49:21.938Z</time></trkpt><trkpt lat="43.5492904" lon="12.6506997"><ele>255.40000000000003</ele><time>2026-03-08T11:49:22.938Z</time></trkpt><trkpt lat="43.5493992" lon="12.6506627"><ele>253.20000000000002</ele><time>2026-03-08T11:49:23.938Z</time></trkpt><trkpt lat="43.5494992" lon="12.6506348"><ele>251.0</ele><time>2026-03-08T11:49:24.938Z</time></trkpt><trkpt lat="43.5495976" lon="12.6506149"><ele>249.60000000000002</ele><time>2026-03-08T11:49:25.938Z</time></trkpt><trkpt lat="43.5496878" lon="12.6506199"><ele>248.20000000000002</ele><time>2026-03-08T11:49:26.939Z</time></trkpt><trkpt lat="43.5497884" lon="12.6506405"><ele>246.79999999999998</ele><time>2026-03-08T11:49:27.938Z</time></trkpt><trkpt lat="43.5498969" lon="12.6506762"><ele>245.39999999999998</ele><time>2026-03-08T11:49:28.938Z</time></trkpt><trkpt lat="43.5500127" lon="12.650729"><ele>244.0</ele><time>2026-03-08T11:49:29.938Z</time></trkpt><trkpt lat="43.5501374" lon="12.6507913"><ele>244.0</ele><time>2026-03-08T11:49:30.939Z</time></trkpt><trkpt lat="43.5502639" lon="12.6508609"><ele>244.0</ele><time>2026-03-08T11:49:31.938Z</time></trkpt><trkpt lat="43.5503946" lon="12.6509314"><ele>244.0</ele><time>2026-03-08T11:49:32.939Z</time></trkpt><trkpt lat="43.5505268" lon="12.6510041"><ele>244.0</ele><time>2026-03-08T11:49:33.939Z</time></trkpt><trkpt lat="43.5506575" lon="12.6510783"><ele>243.25</ele><time>2026-03-08T11:49:34.939Z</time></trkpt><trkpt lat="43.5507969" lon="12.6511546"><ele>242.5</ele><time>2026-03-08T11:49:35.939Z</time></trkpt><trkpt lat="43.5509317" lon="12.6512301"><ele>241.75</ele><time>2026-03-08T11:49:36.939Z</time></trkpt><trkpt lat="43.5510725" lon="12.6513086"><ele>241.0</ele><time>2026-03-08T11:49:37.938Z</time></trkpt><trkpt lat="43.5512055" lon="12.6513755"><ele>242.25</ele><time>2026-03-08T11:49:38.938Z</time></trkpt><trkpt lat="43.5513461" lon="12.6514433"><ele>243.5</ele><time>2026-03-08T11:49:39.94Z</time></trkpt><trkpt lat="43.5514789" lon="12.6515091"><ele>244.75</ele><time>2026-03-08T11:49:40.939Z</time></trkpt><trkpt lat="43.551615" lon="12.6515801"><ele>246.0</ele><time>2026-03-08T11:49:41.938Z</time></trkpt><trkpt lat="43.5517467" lon="12.6516575"><ele>246.0</ele><time>2026-03-08T11:49:42.938Z</time></trkpt><trkpt lat="43.5518795" lon="12.6517255"><ele>246.0</ele><time>2026-03-08T11:49:43.938Z</time></trkpt><trkpt lat="43.5520137" lon="12.6517969"><ele>246.0</ele><time>2026-03-08T11:49:44.94Z</time></trkpt><trkpt lat="43.5521514" lon="12.6518684"><ele>246.0</ele><time>2026-03-08T11:49:45.938Z</time></trkpt><trkpt lat="43.5522874" lon="12.6519429"><ele>245.75</ele><time>2026-03-08T11:49:46.938Z</time></trkpt><trkpt lat="43.5524215" lon="12.6520163"><ele>245.5</ele><time>2026-03-08T11:49:47.939Z</time></trkpt><trkpt lat="43.5525545" lon="12.6520906"><ele>245.25</ele><time>2026-03-08T11:49:48.94Z</time></trkpt><trkpt lat="43.5526886" lon="12.6521574"><ele>245.0</ele><time>2026-03-08T11:49:49.938Z</time></trkpt><trkpt lat="43.5528202" lon="12.6522181"><ele>245.0</ele><time>2026-03-08T11:49:50.938Z</time></trkpt><trkpt lat="43.5529576" lon="12.652274"><ele>245.0</ele><time>2026-03-08T11:49:51.938Z</time></trkpt><trkpt lat="43.5530932" lon="12.6523232"><ele>245.0</ele><time>2026-03-08T11:49:52.939Z</time></trkpt><trkpt lat="43.5532233" lon="12.6523557"><ele>245.0</ele><time>2026-03-08T11:49:53.938Z</time></trkpt><trkpt lat="43.5533574" lon="12.652381"><ele>245.0</ele><time>2026-03-08T11:49:54.938Z</time></trkpt><trkpt lat="43.5534997" lon="12.6524042"><ele>245.0</ele><time>2026-03-08T11:49:55.938Z</time></trkpt><trkpt lat="43.553646" lon="12.6524193"><ele>245.0</ele><time>2026-03-08T11:49:56.938Z</time></trkpt><trkpt lat="43.5537906" lon="12.6524276"><ele>245.0</ele><time>2026-03-08T11:49:57.938Z</time></trkpt><trkpt lat="43.5539383" lon="12.6524342"><ele>245.25</ele><time>2026-03-08T11:49:58.938Z</time></trkpt><trkpt lat="43.5540863" lon="12.652434"><ele>245.5</ele><time>2026-03-08T11:49:59.939Z</time></trkpt><trkpt lat="43.5542301" lon="12.6524383"><ele>245.75</ele><time>2026-03-08T11:50:00.938Z</time></trkpt><trkpt lat="43.5543794" lon="12.6524346"><ele>246.0</ele><time>2026-03-08T11:50:01.938Z</time></trkpt><trkpt lat="43.5545284" lon="12.6524255"><ele>245.66666666666669</ele><time>2026-03-08T11:50:02.939Z</time></trkpt><trkpt lat="43.5546759" lon="12.6524085"><ele>245.33333333333334</ele><time>2026-03-08T11:50:03.939Z</time></trkpt><trkpt lat="43.5548283" lon="12.6523868"><ele>245.0</ele><time>2026-03-08T11:50:04.94Z</time></trkpt><trkpt lat="43.5549805" lon="12.6523622"><ele>245.0</ele><time>2026-03-08T11:50:05.938Z</time></trkpt><trkpt lat="43.5551338" lon="12.6523484"><ele>245.0</ele><time>2026-03-08T11:50:06.94Z</time></trkpt><trkpt lat="43.5552768" lon="12.6523427"><ele>245.0</ele><time>2026-03-08T11:50:07.938Z</time></trkpt><trkpt lat="43.5554246" lon="12.6523465"><ele>245.0</ele><time>2026-03-08T11:50:08.939Z</time></trkpt><trkpt lat="43.555571" lon="12.6523521"><ele>244.75</ele><time>2026-03-08T11:50:09.938Z</time></trkpt><trkpt lat="43.5557172" lon="12.6523735"><ele>244.5</ele><time>2026-03-08T11:50:10.938Z</time></trkpt><trkpt lat="43.555851" lon="12.6524138"><ele>244.25</ele><time>2026-03-08T11:50:11.938Z</time></trkpt><trkpt lat="43.5559821" lon="12.6524677"><ele>244.0</ele><time>2026-03-08T11:50:12.94Z</time></trkpt><trkpt lat="43.5561141" lon="12.6525466"><ele>244.25</ele><time>2026-03-08T11:50:13.938Z</time></trkpt><trkpt lat="43.5562232" lon="12.6526568"><ele>244.5</ele><time>2026-03-08T11:50:14.938Z</time></trkpt><trkpt lat="43.55632" lon="12.6527867"><ele>244.75</ele><time>2026-03-08T11:50:15.938Z</time></trkpt><trkpt lat="43.5564246" lon="12.6529211"><ele>245.0</ele><time>2026-03-08T11:50:16.939Z</time></trkpt><trkpt lat="43.5565338" lon="12.6530421"><ele>245.0</ele><time>2026-03-08T11:50:17.939Z</time></trkpt><trkpt lat="43.556656" lon="12.6531542"><ele>245.0</ele><time>2026-03-08T11:50:18.939Z</time></trkpt><trkpt lat="43.5567843" lon="12.6532544"><ele>245.0</ele><time>2026-03-08T11:50:19.938Z</time></trkpt><trkpt lat="43.5569156" lon="12.6533494"><ele>245.0</ele><time>2026-03-08T11:50:20.938Z</time></trkpt><trkpt lat="43.5570479" lon="12.65344"><ele>246.25</ele><time>2026-03-08T11:50:21.938Z</time></trkpt><trkpt lat="43.5571743" lon="12.6535312"><ele>247.5</ele><time>2026-03-08T11:50:22.939Z</time></trkpt><trkpt lat="43.557303" lon="12.6536177"><ele>248.75</ele><time>2026-03-08T11:50:23.939Z</time></trkpt><trkpt lat="43.5574291" lon="12.6537045"><ele>250.0</ele><time>2026-03-08T11:50:24.939Z</time></trkpt><trkpt lat="43.5575565" lon="12.6537831"><ele>247.5</ele><time>2026-03-08T11:50:25.939Z</time></trkpt><trkpt lat="43.5576878" lon="12.6538498"><ele>245.0</ele><time>2026-03-08T11:50:26.938Z</time></trkpt><trkpt lat="43.5578267" lon="12.6539021"><ele>242.5</ele><time>2026-03-08T11:50:27.938Z</time></trkpt><trkpt lat="43.5579697" lon="12.6539519"><ele>240.0</ele><time>2026-03-08T11:50:28.938Z</time></trkpt><trkpt lat="43.5581144" lon="12.6539901"><ele>239.5</ele><time>2026-03-08T11:50:29.939Z</time></trkpt><trkpt lat="43.5582599" lon="12.6540229"><ele>239.0</ele><time>2026-03-08T11:50:30.938Z</time></trkpt><trkpt lat="43.5584069" lon="12.654054"><ele>238.5</ele><time>2026-03-08T11:50:31.94Z</time></trkpt><trkpt lat="43.5585488" lon="12.6540842"><ele>238.0</ele><time>2026-03-08T11:50:32.938Z</time></trkpt><trkpt lat="43.5586941" lon="12.6541163"><ele>238.5</ele><time>2026-03-08T11:50:33.938Z</time></trkpt><trkpt lat="43.5588412" lon="12.6541548"><ele>239.0</ele><time>2026-03-08T11:50:34.939Z</time></trkpt><trkpt lat="43.5589846" lon="12.6542003"><ele>239.5</ele><time>2026-03-08T11:50:35.939Z</time></trkpt><trkpt lat="43.5591292" lon="12.6542311"><ele>240.0</ele><time>2026-03-08T11:50:36.938Z</time></trkpt><trkpt lat="43.5592691" lon="12.6542554"><ele>240.0</ele><time>2026-03-08T11:50:37.938Z</time></trkpt><trkpt lat="43.559412" lon="12.6542785"><ele>240.0</ele><time>2026-03-08T11:50:38.938Z</time></trkpt><trkpt lat="43.5595547" lon="12.6542928"><ele>240.0</ele><time>2026-03-08T11:50:39.938Z</time></trkpt><trkpt lat="43.5596953" lon="12.6542982"><ele>240.0</ele><time>2026-03-08T11:50:40.938Z</time></trkpt><trkpt lat="43.5598377" lon="12.654287"><ele>240.75</ele><time>2026-03-08T11:50:41.938Z</time></trkpt><trkpt lat="43.5599748" lon="12.6542822"><ele>241.5</ele><time>2026-03-08T11:50:42.938Z</time></trkpt><trkpt lat="43.560111" lon="12.654275"><ele>242.25</ele><time>2026-03-08T11:50:43.939Z</time></trkpt><trkpt lat="43.5602512" lon="12.6542788"><ele>243.0</ele><time>2026-03-08T11:50:44.939Z</time></trkpt><trkpt lat="43.560382" lon="12.6543092"><ele>243.25</ele><time>2026-03-08T11:50:45.939Z</time></trkpt><trkpt lat="43.5605113" lon="12.6543822"><ele>243.5</ele><time>2026-03-08T11:50:46.939Z</time></trkpt><trkpt lat="43.560628" lon="12.654475"><ele>243.75</ele><time>2026-03-08T11:50:47.939Z</time></trkpt><trkpt lat="43.5607288" lon="12.6545951"><ele>244.0</ele><time>2026-03-08T11:50:48.939Z</time></trkpt><trkpt lat="43.5608295" lon="12.6547257"><ele>242.25</ele><time>2026-03-08T11:50:49.938Z</time></trkpt><trkpt lat="43.5609201" lon="12.6548637"><ele>240.5</ele><time>2026-03-08T11:50:50.938Z</time></trkpt><trkpt lat="43.5610059" lon="12.6550076"><ele>238.75</ele><time>2026-03-08T11:50:51.938Z</time></trkpt><trkpt lat="43.5610922" lon="12.6551534"><ele>237.0</ele><time>2026-03-08T11:50:52.938Z</time></trkpt><trkpt lat="43.5611828" lon="12.6553"><ele>238.5</ele><time>2026-03-08T11:50:53.94Z</time></trkpt><trkpt lat="43.5612715" lon="12.6554536"><ele>240.0</ele><time>2026-03-08T11:50:54.938Z</time></trkpt><trkpt lat="43.5613621" lon="12.6555966"><ele>241.5</ele><time>2026-03-08T11:50:55.938Z</time></trkpt><trkpt lat="43.5614629" lon="12.6557367"><ele>243.0</ele><time>2026-03-08T11:50:56.939Z</time></trkpt><trkpt lat="43.5615654" lon="12.6558731"><ele>243.0</ele><time>2026-03-08T11:50:57.938Z</time></trkpt><trkpt lat="43.5616745" lon="12.6559881"><ele>243.0</ele><time>2026-03-08T11:50:58.938Z</time></trkpt><trkpt lat="43.5617851" lon="12.6560921"><ele>243.0</ele><time>2026-03-08T11:50:59.938Z</time></trkpt><trkpt lat="43.5618952" lon="12.6562047"><ele>243.0</ele><time>2026-03-08T11:51:00.938Z</time></trkpt><trkpt lat="43.562005" lon="12.6563092"><ele>242.75</ele><time>2026-03-08T11:51:01.939Z</time></trkpt><trkpt lat="43.5621166" lon="12.6564069"><ele>242.5</ele><time>2026-03-08T11:51:02.939Z</time></trkpt><trkpt lat="43.5622217" lon="12.656501"><ele>242.25</ele><time>2026-03-08T11:51:03.938Z</time></trkpt><trkpt lat="43.5623327" lon="12.6565937"><ele>242.0</ele><time>2026-03-08T11:51:04.938Z</time></trkpt><trkpt lat="43.5624453" lon="12.6566682"><ele>242.0</ele><time>2026-03-08T11:51:05.938Z</time></trkpt><trkpt lat="43.562562" lon="12.6567019"><ele>242.0</ele><time>2026-03-08T11:51:06.939Z</time></trkpt><trkpt lat="43.5626682" lon="12.6567143"><ele>242.0</ele><time>2026-03-08T11:51:07.938Z</time></trkpt><trkpt lat="43.5627689" lon="12.6567349"><ele>242.0</ele><time>2026-03-08T11:51:08.938Z</time></trkpt><trkpt lat="43.5628386" lon="12.6567936"><ele>242.0</ele><time>2026-03-08T11:51:09.94Z</time></trkpt><trkpt lat="43.5628785" lon="12.6568796"><ele>243.16666666666669</ele><time>2026-03-08T11:51:10.938Z</time></trkpt><trkpt lat="43.5628886" lon="12.6569808"><ele>244.33333333333334</ele><time>2026-03-08T11:51:11.938Z</time></trkpt><trkpt lat="43.5628926" lon="12.6570937"><ele>245.5</ele><time>2026-03-08T11:51:12.938Z</time></trkpt><trkpt lat="43.5629264" lon="12.6571931"><ele>246.66666666666669</ele><time>2026-03-08T11:51:13.938Z</time></trkpt><trkpt lat="43.562986" lon="12.6572799"><ele>247.83333333333334</ele><time>2026-03-08T11:51:14.938Z</time></trkpt><trkpt lat="43.5630673" lon="12.6573404"><ele>249.0</ele><time>2026-03-08T11:51:15.938Z</time></trkpt><trkpt lat="43.5631663" lon="12.6573782"><ele>249.0</ele><time>2026-03-08T11:51:16.939Z</time></trkpt><trkpt lat="43.5632568" lon="12.6574373"><ele>248.99999999999997</ele><time>2026-03-08T11:51:17.938Z</time></trkpt><trkpt lat="43.5633438" lon="12.6575197"><ele>248.99999999999997</ele><time>2026-03-08T11:51:18.939Z</time></trkpt><trkpt lat="43.5634256" lon="12.6576156"><ele>249.0</ele><time>2026-03-08T11:51:19.94Z</time></trkpt><trkpt lat="43.5635192" lon="12.6577255"><ele>249.0</ele><time>2026-03-08T11:51:20.939Z</time></trkpt><trkpt lat="43.5636002" lon="12.6578297"><ele>249.0</ele><time>2026-03-08T11:51:21.939Z</time></trkpt><trkpt lat="43.5636734" lon="12.6579037"><ele>249.0</ele><time>2026-03-08T11:51:22.939Z</time></trkpt><trkpt lat="43.563743" lon="12.6579807"><ele>249.0</ele><time>2026-03-08T11:51:23.939Z</time></trkpt><trkpt lat="43.5638018" lon="12.6580509"><ele>249.0</ele><time>2026-03-08T11:51:24.94Z</time></trkpt><trkpt lat="43.5638611" lon="12.6581115"><ele>249.0</ele><time>2026-03-08T11:51:25.938Z</time></trkpt><trkpt lat="43.5639221" lon="12.6581672"><ele>249.0</ele><time>2026-03-08T11:51:26.939Z</time></trkpt><trkpt lat="43.5639835" lon="12.6582252"><ele>249.33333333333334</ele><time>2026-03-08T11:51:27.938Z</time></trkpt><trkpt lat="43.564038" lon="12.6582771"><ele>249.66666666666669</ele><time>2026-03-08T11:51:28.938Z</time></trkpt><trkpt lat="43.5640991" lon="12.6583451"><ele>250.0</ele><time>2026-03-08T11:51:29.939Z</time></trkpt><trkpt lat="43.5641604" lon="12.6584028"><ele>250.33333333333334</ele><time>2026-03-08T11:51:30.938Z</time></trkpt><trkpt lat="43.5642302" lon="12.6584715"><ele>250.66666666666669</ele><time>2026-03-08T11:51:31.938Z</time></trkpt><trkpt lat="43.564312" lon="12.6585365"><ele>251.0</ele><time>2026-03-08T11:51:32.939Z</time></trkpt><trkpt lat="43.5643941" lon="12.658606"><ele>251.0</ele><time>2026-03-08T11:51:33.938Z</time></trkpt><trkpt lat="43.5644797" lon="12.6586804"><ele>251.0</ele><time>2026-03-08T11:51:34.938Z</time></trkpt><trkpt lat="43.5645753" lon="12.6587769"><ele>251.0</ele><time>2026-03-08T11:51:35.939Z</time></trkpt><trkpt lat="43.5646871" lon="12.6588778"><ele>251.0</ele><time>2026-03-08T11:51:36.938Z</time></trkpt><trkpt lat="43.5647964" lon="12.6589642"><ele>251.0</ele><time>2026-03-08T11:51:37.938Z</time></trkpt><trkpt lat="43.5648981" lon="12.6590451"><ele>251.00000000000003</ele><time>2026-03-08T11:51:38.938Z</time></trkpt><trkpt lat="43.5649872" lon="12.6591006"><ele>251.00000000000003</ele><time>2026-03-08T11:51:39.939Z</time></trkpt><trkpt lat="43.565085" lon="12.6590951"><ele>251.0</ele><time>2026-03-08T11:51:41.939Z</time></trkpt><trkpt lat="43.5650795" lon="12.659001"><ele>251.0</ele><time>2026-03-08T11:51:43.938Z</time></trkpt><trkpt lat="43.5650422" lon="12.6588397"><ele>251.00000000000003</ele><time>2026-03-08T11:51:45.938Z</time></trkpt><trkpt lat="43.5650324" lon="12.6587277"><ele>251.0</ele><time>2026-03-08T11:51:46.939Z</time></trkpt><trkpt lat="43.5650063" lon="12.6585977"><ele>251.0</ele><time>2026-03-08T11:51:47.938Z</time></trkpt><trkpt lat="43.5649693" lon="12.6584781"><ele>251.0</ele><time>2026-03-08T11:51:48.938Z</time></trkpt><trkpt lat="43.564916" lon="12.6583776"><ele>251.00000000000003</ele><time>2026-03-08T11:51:49.939Z</time></trkpt><trkpt lat="43.5648545" lon="12.6583091"><ele>251.0</ele><time>2026-03-08T11:51:50.938Z</time></trkpt><trkpt lat="43.5647841" lon="12.6582733"><ele>251.0</ele><time>2026-03-08T11:51:51.938Z</time></trkpt><trkpt lat="43.5646985" lon="12.6582626"><ele>251.00000000000003</ele><time>2026-03-08T11:51:52.938Z</time></trkpt><trkpt lat="43.5645995" lon="12.6582519"><ele>251.00000000000003</ele><time>2026-03-08T11:51:53.939Z</time></trkpt><trkpt lat="43.5644974" lon="12.658221"><ele>251.0</ele><time>2026-03-08T11:51:54.938Z</time></trkpt><trkpt lat="43.5643928" lon="12.6581694"><ele>251.0</ele><time>2026-03-08T11:51:55.938Z</time></trkpt><trkpt lat="43.5642978" lon="12.6580855"><ele>251.0</ele><time>2026-03-08T11:51:56.938Z</time></trkpt><trkpt lat="43.5642104" lon="12.657977"><ele>251.0</ele><time>2026-03-08T11:51:57.938Z</time></trkpt><trkpt lat="43.5641462" lon="12.6578458"><ele>251.0</ele><time>2026-03-08T11:51:58.938Z</time></trkpt><trkpt lat="43.5640879" lon="12.6577011"><ele>251.0</ele><time>2026-03-08T11:51:59.938Z</time></trkpt><trkpt lat="43.564037" lon="12.6575544"><ele>251.25</ele><time>2026-03-08T11:52:00.938Z</time></trkpt><trkpt lat="43.5639839" lon="12.6574017"><ele>251.5</ele><time>2026-03-08T11:52:01.938Z</time></trkpt><trkpt lat="43.5639317" lon="12.6572539"><ele>251.75</ele><time>2026-03-08T11:52:02.938Z</time></trkpt><trkpt lat="43.5638683" lon="12.6571099"><ele>252.0</ele><time>2026-03-08T11:52:03.938Z</time></trkpt><trkpt lat="43.5637914" lon="12.6569821"><ele>250.8</ele><time>2026-03-08T11:52:04.938Z</time></trkpt><trkpt lat="43.5636858" lon="12.6569019"><ele>249.6</ele><time>2026-03-08T11:52:05.94Z</time></trkpt><trkpt lat="43.5635935" lon="12.6568612"><ele>248.40000000000003</ele><time>2026-03-08T11:52:06.938Z</time></trkpt><trkpt lat="43.5634911" lon="12.6568632"><ele>247.20000000000002</ele><time>2026-03-08T11:52:07.939Z</time></trkpt><trkpt lat="43.5633959" lon="12.6568802"><ele>246.0</ele><time>2026-03-08T11:52:08.939Z</time></trkpt><trkpt lat="43.5633098" lon="12.6568716"><ele>246.0</ele><time>2026-03-08T11:52:09.938Z</time></trkpt><trkpt lat="43.563232" lon="12.6568363"><ele>246.0</ele><time>2026-03-08T11:52:10.939Z</time></trkpt><trkpt lat="43.563157" lon="12.6568152"><ele>246.0</ele><time>2026-03-08T11:52:11.939Z</time></trkpt><trkpt lat="43.5630813" lon="12.6568356"><ele>246.0</ele><time>2026-03-08T11:52:12.938Z</time></trkpt><trkpt lat="43.5630158" lon="12.6568911"><ele>246.0</ele><time>2026-03-08T11:52:13.938Z</time></trkpt><trkpt lat="43.5629682" lon="12.65698"><ele>246.0</ele><time>2026-03-08T11:52:14.938Z</time></trkpt><trkpt lat="43.5629542" lon="12.6571041"><ele>246.5</ele><time>2026-03-08T11:52:15.938Z</time></trkpt><trkpt lat="43.5629644" lon="12.6572154"><ele>247.0</ele><time>2026-03-08T11:52:16.938Z</time></trkpt><trkpt lat="43.5630058" lon="12.657331"><ele>247.5</ele><time>2026-03-08T11:52:17.938Z</time></trkpt><trkpt lat="43.5630474" lon="12.6574439"><ele>248.0</ele><time>2026-03-08T11:52:18.938Z</time></trkpt><trkpt lat="43.5630625" lon="12.6575652"><ele>248.5</ele><time>2026-03-08T11:52:19.938Z</time></trkpt><trkpt lat="43.5630515" lon="12.6576754"><ele>249.0</ele><time>2026-03-08T11:52:20.939Z</time></trkpt><trkpt lat="43.5630359" lon="12.6578011"><ele>249.0</ele><time>2026-03-08T11:52:21.938Z</time></trkpt><trkpt lat="43.5630123" lon="12.6579245"><ele>248.99999999999997</ele><time>2026-03-08T11:52:22.938Z</time></trkpt><trkpt lat="43.5629885" lon="12.6580597"><ele>248.99999999999997</ele><time>2026-03-08T11:52:23.939Z</time></trkpt><trkpt lat="43.5629637" lon="12.6581967"><ele>249.0</ele><time>2026-03-08T11:52:24.939Z</time></trkpt><trkpt lat="43.5629417" lon="12.6583183"><ele>249.0</ele><time>2026-03-08T11:52:25.939Z</time></trkpt><trkpt lat="43.5629201" lon="12.6584278"><ele>249.0</ele><time>2026-03-08T11:52:26.94Z</time></trkpt><trkpt lat="43.5629021" lon="12.6585296"><ele>249.0</ele><time>2026-03-08T11:52:27.939Z</time></trkpt><trkpt lat="43.562906" lon="12.6586268"><ele>249.0</ele><time>2026-03-08T11:52:28.938Z</time></trkpt><trkpt lat="43.5629402" lon="12.6587246"><ele>249.0</ele><time>2026-03-08T11:52:29.939Z</time></trkpt><trkpt lat="43.5629978" lon="12.6587989"><ele>249.0</ele><time>2026-03-08T11:52:30.938Z</time></trkpt><trkpt lat="43.5630881" lon="12.6588451"><ele>249.0</ele><time>2026-03-08T11:52:31.938Z</time></trkpt><trkpt lat="43.5631913" lon="12.6588788"><ele>249.0</ele><time>2026-03-08T11:52:32.938Z</time></trkpt><trkpt lat="43.5633117" lon="12.6589176"><ele>249.0</ele><time>2026-03-08T11:52:33.94Z</time></trkpt><trkpt lat="43.5634448" lon="12.6589603"><ele>249.0</ele><time>2026-03-08T11:52:34.938Z</time></trkpt><trkpt lat="43.5635843" lon="12.6590112"><ele>249.0</ele><time>2026-03-08T11:52:35.938Z</time></trkpt><trkpt lat="43.563729" lon="12.6590557"><ele>249.0</ele><time>2026-03-08T11:52:36.939Z</time></trkpt><trkpt lat="43.56388" lon="12.6591068"><ele>249.0</ele><time>2026-03-08T11:52:37.939Z</time></trkpt><trkpt lat="43.564031" lon="12.6591526"><ele>249.0</ele><time>2026-03-08T11:52:38.939Z</time></trkpt><trkpt lat="43.5641824" lon="12.659206"><ele>249.0</ele><time>2026-03-08T11:52:39.938Z</time></trkpt><trkpt lat="43.564327" lon="12.6592575"><ele>249.0</ele><time>2026-03-08T11:52:40.938Z</time></trkpt><trkpt lat="43.5644769" lon="12.6593241"><ele>249.0</ele><time>2026-03-08T11:52:41.938Z</time></trkpt><trkpt lat="43.5646151" lon="12.6593926"><ele>247.5</ele><time>2026-03-08T11:52:42.938Z</time></trkpt><trkpt lat="43.5647446" lon="12.6594849"><ele>246.0</ele><time>2026-03-08T11:52:43.938Z</time></trkpt><trkpt lat="43.564871" lon="12.6595803"><ele>244.5</ele><time>2026-03-08T11:52:44.938Z</time></trkpt><trkpt lat="43.5650017" lon="12.6596803"><ele>243.0</ele><time>2026-03-08T11:52:45.938Z</time></trkpt><trkpt lat="43.5651335" lon="12.6597799"><ele>243.0</ele><time>2026-03-08T11:52:46.938Z</time></trkpt><trkpt lat="43.5652591" lon="12.659888"><ele>243.0</ele><time>2026-03-08T11:52:47.939Z</time></trkpt><trkpt lat="43.5653847" lon="12.6600014"><ele>243.0</ele><time>2026-03-08T11:52:48.938Z</time></trkpt><trkpt lat="43.5655124" lon="12.6601102"><ele>243.0</ele><time>2026-03-08T11:52:49.939Z</time></trkpt><trkpt lat="43.5656352" lon="12.660227"><ele>242.75</ele><time>2026-03-08T11:52:50.939Z</time></trkpt><trkpt lat="43.5657492" lon="12.6603422"><ele>242.5</ele><time>2026-03-08T11:52:51.938Z</time></trkpt><trkpt lat="43.5658658" lon="12.660472"><ele>242.25</ele><time>2026-03-08T11:52:52.938Z</time></trkpt><trkpt lat="43.5659783" lon="12.6605955"><ele>242.0</ele><time>2026-03-08T11:52:53.938Z</time></trkpt><trkpt lat="43.5660946" lon="12.6607127"><ele>242.5</ele><time>2026-03-08T11:52:54.939Z</time></trkpt><trkpt lat="43.5662113" lon="12.6608351"><ele>243.0</ele><time>2026-03-08T11:52:55.938Z</time></trkpt><trkpt lat="43.5663308" lon="12.6609542"><ele>243.5</ele><time>2026-03-08T11:52:56.938Z</time></trkpt><trkpt lat="43.5664497" lon="12.6610732"><ele>244.0</ele><time>2026-03-08T11:52:57.939Z</time></trkpt><trkpt lat="43.5665698" lon="12.6612001"><ele>242.5</ele><time>2026-03-08T11:52:58.94Z</time></trkpt><trkpt lat="43.5666941" lon="12.6613238"><ele>241.0</ele><time>2026-03-08T11:52:59.938Z</time></trkpt><trkpt lat="43.5668122" lon="12.661437"><ele>239.5</ele><time>2026-03-08T11:53:00.938Z</time></trkpt><trkpt lat="43.5669177" lon="12.6615404"><ele>238.0</ele><time>2026-03-08T11:53:01.938Z</time></trkpt><trkpt lat="43.5669997" lon="12.6616441"><ele>237.8</ele><time>2026-03-08T11:53:02.938Z</time></trkpt><trkpt lat="43.5670562" lon="12.6617472"><ele>237.60000000000002</ele><time>2026-03-08T11:53:03.938Z</time></trkpt><trkpt lat="43.5670872" lon="12.6618642"><ele>237.39999999999998</ele><time>2026-03-08T11:53:04.939Z</time></trkpt><trkpt lat="43.5671096" lon="12.6620114"><ele>237.2</ele><time>2026-03-08T11:53:05.938Z</time></trkpt><trkpt lat="43.5671429" lon="12.6621687"><ele>237.0</ele><time>2026-03-08T11:53:06.939Z</time></trkpt><trkpt lat="43.5671868" lon="12.6623439"><ele>237.0</ele><time>2026-03-08T11:53:07.939Z</time></trkpt><trkpt lat="43.5672326" lon="12.6625319"><ele>237.0</ele><time>2026-03-08T11:53:08.938Z</time></trkpt><trkpt lat="43.5672806" lon="12.6627331"><ele>237.0</ele><time>2026-03-08T11:53:09.938Z</time></trkpt><trkpt lat="43.5673279" lon="12.6629358"><ele>235.33333333333331</ele><time>2026-03-08T11:53:10.938Z</time></trkpt><trkpt lat="43.5673784" lon="12.6631365"><ele>233.66666666666666</ele><time>2026-03-08T11:53:11.938Z</time></trkpt><trkpt lat="43.5674308" lon="12.6633411"><ele>232.0</ele><time>2026-03-08T11:53:12.938Z</time></trkpt><trkpt lat="43.5674837" lon="12.6635461"><ele>230.75</ele><time>2026-03-08T11:53:13.939Z</time></trkpt><trkpt lat="43.5675393" lon="12.6637453"><ele>229.5</ele><time>2026-03-08T11:53:14.938Z</time></trkpt><trkpt lat="43.5675867" lon="12.663944"><ele>228.25</ele><time>2026-03-08T11:53:15.938Z</time></trkpt><trkpt lat="43.5676355" lon="12.6641271"><ele>227.0</ele><time>2026-03-08T11:53:16.938Z</time></trkpt><trkpt lat="43.5676813" lon="12.6643008"><ele>227.0</ele><time>2026-03-08T11:53:17.94Z</time></trkpt><trkpt lat="43.5677427" lon="12.6644488"><ele>227.0</ele><time>2026-03-08T11:53:18.938Z</time></trkpt><trkpt lat="43.567821" lon="12.6645798"><ele>227.0</ele><time>2026-03-08T11:53:19.938Z</time></trkpt><trkpt lat="43.5679244" lon="12.6646808"><ele>227.0</ele><time>2026-03-08T11:53:20.94Z</time></trkpt><trkpt lat="43.5680492" lon="12.66475"><ele>227.0</ele><time>2026-03-08T11:53:21.94Z</time></trkpt><trkpt lat="43.568176" lon="12.6648002"><ele>227.0</ele><time>2026-03-08T11:53:22.938Z</time></trkpt><trkpt lat="43.5683029" lon="12.6648474"><ele>227.0</ele><time>2026-03-08T11:53:23.938Z</time></trkpt><trkpt lat="43.5684211" lon="12.6648951"><ele>227.0</ele><time>2026-03-08T11:53:24.938Z</time></trkpt><trkpt lat="43.5685357" lon="12.6649468"><ele>227.0</ele><time>2026-03-08T11:53:25.939Z</time></trkpt><trkpt lat="43.5686374" lon="12.6650055"><ele>227.0</ele><time>2026-03-08T11:53:26.938Z</time></trkpt><trkpt lat="43.5687359" lon="12.6650781"><ele>227.0</ele><time>2026-03-08T11:53:27.939Z</time></trkpt><trkpt lat="43.5688163" lon="12.6651343"><ele>227.0</ele><time>2026-03-08T11:53:28.939Z</time></trkpt><trkpt lat="43.5688832" lon="12.6651836"><ele>227.0</ele><time>2026-03-08T11:53:29.938Z</time></trkpt><trkpt lat="43.5689878" lon="12.6652745"><ele>227.50000000000003</ele><time>2026-03-08T11:53:31.938Z</time></trkpt><trkpt lat="43.569037" lon="12.6653352"><ele>228.0</ele><time>2026-03-08T11:53:32.938Z</time></trkpt><trkpt lat="43.5690851" lon="12.665417"><ele>228.5</ele><time>2026-03-08T11:53:33.938Z</time></trkpt><trkpt lat="43.5691347" lon="12.6655197"><ele>229.0</ele><time>2026-03-08T11:53:34.939Z</time></trkpt><trkpt lat="43.5691899" lon="12.6656235"><ele>229.50000000000003</ele><time>2026-03-08T11:53:35.938Z</time></trkpt><trkpt lat="43.5692527" lon="12.6657295"><ele>230.0</ele><time>2026-03-08T11:53:36.939Z</time></trkpt><trkpt lat="43.569321" lon="12.6658339"><ele>230.0</ele><time>2026-03-08T11:53:37.938Z</time></trkpt><trkpt lat="43.569398" lon="12.665941"><ele>230.0</ele><time>2026-03-08T11:53:38.939Z</time></trkpt><trkpt lat="43.5694844" lon="12.6660516"><ele>230.0</ele><time>2026-03-08T11:53:39.938Z</time></trkpt><trkpt lat="43.5695728" lon="12.6661662"><ele>230.0</ele><time>2026-03-08T11:53:40.938Z</time></trkpt><trkpt lat="43.5696626" lon="12.6662676"><ele>230.2</ele><time>2026-03-08T11:53:41.939Z</time></trkpt><trkpt lat="43.5697557" lon="12.6663659"><ele>230.4</ele><time>2026-03-08T11:53:42.938Z</time></trkpt><trkpt lat="43.5698529" lon="12.6664639"><ele>230.60000000000002</ele><time>2026-03-08T11:53:43.938Z</time></trkpt><trkpt lat="43.569937" lon="12.6665523"><ele>230.8</ele><time>2026-03-08T11:53:44.938Z</time></trkpt><trkpt lat="43.5700148" lon="12.6666396"><ele>231.0</ele><time>2026-03-08T11:53:45.938Z</time></trkpt><trkpt lat="43.5700855" lon="12.6667253"><ele>231.0</ele><time>2026-03-08T11:53:46.938Z</time></trkpt><trkpt lat="43.5701654" lon="12.6668083"><ele>231.00000000000003</ele><time>2026-03-08T11:53:47.938Z</time></trkpt><trkpt lat="43.5702541" lon="12.6668818"><ele>231.00000000000003</ele><time>2026-03-08T11:53:48.939Z</time></trkpt><trkpt lat="43.5703507" lon="12.6669615"><ele>231.0</ele><time>2026-03-08T11:53:49.939Z</time></trkpt><trkpt lat="43.5704568" lon="12.6670379"><ele>231.0</ele><time>2026-03-08T11:53:50.938Z</time></trkpt><trkpt lat="43.5705609" lon="12.667116"><ele>229.75</ele><time>2026-03-08T11:53:51.938Z</time></trkpt><trkpt lat="43.5706661" lon="12.6672037"><ele>228.5</ele><time>2026-03-08T11:53:52.938Z</time></trkpt><trkpt lat="43.570765" lon="12.6672865"><ele>227.25</ele><time>2026-03-08T11:53:53.939Z</time></trkpt><trkpt lat="43.5708588" lon="12.6673709"><ele>226.0</ele><time>2026-03-08T11:53:54.938Z</time></trkpt><trkpt lat="43.5709505" lon="12.6674714"><ele>226.0</ele><time>2026-03-08T11:53:55.938Z</time></trkpt><trkpt lat="43.5710387" lon="12.6675722"><ele>226.00000000000003</ele><time>2026-03-08T11:53:56.938Z</time></trkpt><trkpt lat="43.5711234" lon="12.6676753"><ele>226.00000000000003</ele><time>2026-03-08T11:53:57.939Z</time></trkpt><trkpt lat="43.5712148" lon="12.6677601"><ele>226.0</ele><time>2026-03-08T11:53:58.938Z</time></trkpt><trkpt lat="43.5713011" lon="12.6678351"><ele>226.0</ele><time>2026-03-08T11:53:59.938Z</time></trkpt><trkpt lat="43.5713828" lon="12.6679036"><ele>225.49999999999997</ele><time>2026-03-08T11:54:00.938Z</time></trkpt><trkpt lat="43.5714579" lon="12.6679587"><ele>225.0</ele><time>2026-03-08T11:54:01.938Z</time></trkpt><trkpt lat="43.5715261" lon="12.6679991"><ele>224.5</ele><time>2026-03-08T11:54:02.938Z</time></trkpt><trkpt lat="43.5716394" lon="12.6680315"><ele>224.0</ele><time>2026-03-08T11:54:04.938Z</time></trkpt><trkpt lat="43.5717026" lon="12.6680495"><ele>223.49999999999997</ele><time>2026-03-08T11:54:09.938Z</time></trkpt><trkpt lat="43.5717887" lon="12.668066"><ele>223.0</ele><time>2026-03-08T11:54:19.938Z</time></trkpt><trkpt lat="43.5718471" lon="12.6681037"><ele>223.0</ele><time>2026-03-08T11:54:22.938Z</time></trkpt><trkpt lat="43.571917" lon="12.66812"><ele>223.0</ele><time>2026-03-08T11:54:51.938Z</time></trkpt><trkpt lat="43.5719679" lon="12.6682114"><ele>223.0</ele><time>2026-03-08T11:55:04.938Z</time></trkpt><trkpt lat="43.5720344" lon="12.6682807"><ele>223.0</ele><time>2026-03-08T11:55:05.938Z</time></trkpt><trkpt lat="43.5721125" lon="12.6683834"><ele>223.0</ele><time>2026-03-08T11:55:06.938Z</time></trkpt><trkpt lat="43.5721998" lon="12.6685144"><ele>223.0</ele><time>2026-03-08T11:55:07.938Z</time></trkpt><trkpt lat="43.5722853" lon="12.6686469"><ele>223.0</ele><time>2026-03-08T11:55:08.938Z</time></trkpt><trkpt lat="43.5723781" lon="12.6687826"><ele>223.0</ele><time>2026-03-08T11:55:09.939Z</time></trkpt><trkpt lat="43.5724743" lon="12.6689134"><ele>223.0</ele><time>2026-03-08T11:55:10.939Z</time></trkpt><trkpt lat="43.5725653" lon="12.6690422"><ele>223.0</ele><time>2026-03-08T11:55:11.938Z</time></trkpt><trkpt lat="43.5726487" lon="12.6691633"><ele>223.0</ele><time>2026-03-08T11:55:12.938Z</time></trkpt><trkpt lat="43.5727405" lon="12.6692901"><ele>223.0</ele><time>2026-03-08T11:55:13.938Z</time></trkpt><trkpt lat="43.5728238" lon="12.6693983"><ele>223.0</ele><time>2026-03-08T11:55:14.938Z</time></trkpt><trkpt lat="43.5729061" lon="12.6694946"><ele>222.60000000000002</ele><time>2026-03-08T11:55:15.938Z</time></trkpt><trkpt lat="43.5729986" lon="12.6695766"><ele>222.20000000000002</ele><time>2026-03-08T11:55:16.939Z</time></trkpt><trkpt lat="43.5730897" lon="12.6696415"><ele>221.8</ele><time>2026-03-08T11:55:17.938Z</time></trkpt><trkpt lat="43.5731928" lon="12.6696654"><ele>221.4</ele><time>2026-03-08T11:55:18.938Z</time></trkpt><trkpt lat="43.5733069" lon="12.6696611"><ele>221.0</ele><time>2026-03-08T11:55:19.938Z</time></trkpt><trkpt lat="43.5734277" lon="12.6696536"><ele>221.0</ele><time>2026-03-08T11:55:20.939Z</time></trkpt><trkpt lat="43.5735501" lon="12.6696538"><ele>221.0</ele><time>2026-03-08T11:55:21.938Z</time></trkpt><trkpt lat="43.5736772" lon="12.6696683"><ele>221.0</ele><time>2026-03-08T11:55:22.939Z</time></trkpt><trkpt lat="43.5738149" lon="12.6696967"><ele>221.0</ele><time>2026-03-08T11:55:23.939Z</time></trkpt><trkpt lat="43.5739442" lon="12.6697451"><ele>220.5</ele><time>2026-03-08T11:55:24.938Z</time></trkpt><trkpt lat="43.5740767" lon="12.6698041"><ele>220.0</ele><time>2026-03-08T11:55:25.938Z</time></trkpt><trkpt lat="43.5742136" lon="12.6698585"><ele>219.5</ele><time>2026-03-08T11:55:26.939Z</time></trkpt><trkpt lat="43.5743497" lon="12.6699109"><ele>219.0</ele><time>2026-03-08T11:55:27.938Z</time></trkpt><trkpt lat="43.57448" lon="12.6699621"><ele>219.75</ele><time>2026-03-08T11:55:28.939Z</time></trkpt><trkpt lat="43.5746152" lon="12.6700346"><ele>220.5</ele><time>2026-03-08T11:55:29.938Z</time></trkpt><trkpt lat="43.574738" lon="12.6701096"><ele>221.25</ele><time>2026-03-08T11:55:30.939Z</time></trkpt><trkpt lat="43.5748555" lon="12.6702084"><ele>222.0</ele><time>2026-03-08T11:55:31.938Z</time></trkpt><trkpt lat="43.5749591" lon="12.6703324"><ele>222.0</ele><time>2026-03-08T11:55:32.938Z</time></trkpt><trkpt lat="43.575057" lon="12.6704591"><ele>222.0</ele><time>2026-03-08T11:55:33.939Z</time></trkpt><trkpt lat="43.5751457" lon="12.670586"><ele>222.0</ele><time>2026-03-08T11:55:34.938Z</time></trkpt><trkpt lat="43.5752327" lon="12.670706"><ele>222.0</ele><time>2026-03-08T11:55:35.939Z</time></trkpt><trkpt lat="43.5753238" lon="12.6708361"><ele>221.8</ele><time>2026-03-08T11:55:36.938Z</time></trkpt><trkpt lat="43.5753916" lon="12.6709514"><ele>221.6</ele><time>2026-03-08T11:55:37.938Z</time></trkpt><trkpt lat="43.5754598" lon="12.6710705"><ele>221.40000000000003</ele><time>2026-03-08T11:55:38.939Z</time></trkpt><trkpt lat="43.5755167" lon="12.6711678"><ele>221.20000000000002</ele><time>2026-03-08T11:55:39.938Z</time></trkpt><trkpt lat="43.5755743" lon="12.6712519"><ele>221.0</ele><time>2026-03-08T11:55:40.938Z</time></trkpt><trkpt lat="43.5756414" lon="12.6713077"><ele>221.00000000000003</ele><time>2026-03-08T11:55:41.938Z</time></trkpt><trkpt lat="43.5757089" lon="12.6713275"><ele>221.0</ele><time>2026-03-08T11:55:42.938Z</time></trkpt><trkpt lat="43.5757748" lon="12.6713136"><ele>221.0</ele><time>2026-03-08T11:55:43.938Z</time></trkpt><trkpt lat="43.5758805" lon="12.6712232"><ele>221.0</ele><time>2026-03-08T11:55:45.938Z</time></trkpt><trkpt lat="43.5759247" lon="12.6711559"><ele>221.00000000000003</ele><time>2026-03-08T11:55:46.938Z</time></trkpt><trkpt lat="43.5759724" lon="12.6710762"><ele>221.0</ele><time>2026-03-08T11:55:47.938Z</time></trkpt><trkpt lat="43.5760195" lon="12.6710109"><ele>221.50000000000003</ele><time>2026-03-08T11:55:48.938Z</time></trkpt><trkpt lat="43.5760678" lon="12.6709549"><ele>222.0</ele><time>2026-03-08T11:55:49.939Z</time></trkpt><trkpt lat="43.5761336" lon="12.6708198"><ele>222.5</ele><time>2026-03-08T11:55:51.938Z</time></trkpt><trkpt lat="43.5761612" lon="12.6707378"><ele>223.0</ele><time>2026-03-08T11:55:52.939Z</time></trkpt><trkpt lat="43.5761783" lon="12.6706471"><ele>223.50000000000003</ele><time>2026-03-08T11:55:53.94Z</time></trkpt><trkpt lat="43.5762029" lon="12.6705414"><ele>224.0</ele><time>2026-03-08T11:55:54.938Z</time></trkpt><trkpt lat="43.576223" lon="12.6704245"><ele>224.39999999999998</ele><time>2026-03-08T11:55:55.939Z</time></trkpt><trkpt lat="43.5762364" lon="12.6703212"><ele>224.79999999999998</ele><time>2026-03-08T11:55:56.938Z</time></trkpt><trkpt lat="43.5762727" lon="12.6701954"><ele>225.20000000000002</ele><time>2026-03-08T11:55:57.938Z</time></trkpt><trkpt lat="43.5763097" lon="12.6700773"><ele>225.60000000000002</ele><time>2026-03-08T11:55:58.938Z</time></trkpt><trkpt lat="43.5763549" lon="12.669984"><ele>226.0</ele><time>2026-03-08T11:55:59.938Z</time></trkpt><trkpt lat="43.5764319" lon="12.6698913"><ele>226.0</ele><time>2026-03-08T11:56:01.938Z</time></trkpt><trkpt lat="43.5763436" lon="12.6699486"><ele>226.00000000000003</ele><time>2026-03-08T11:56:34.938Z</time></trkpt><trkpt lat="43.5762925" lon="12.6700493"><ele>226.00000000000003</ele><time>2026-03-08T11:56:35.938Z</time></trkpt><trkpt lat="43.576241" lon="12.6701763"><ele>226.0</ele><time>2026-03-08T11:56:36.938Z</time></trkpt><trkpt lat="43.576199" lon="12.6703125"><ele>226.0</ele><time>2026-03-08T11:56:37.939Z</time></trkpt><trkpt lat="43.5761772" lon="12.6704392"><ele>225.99999999999997</ele><time>2026-03-08T11:56:38.938Z</time></trkpt><trkpt lat="43.576161" lon="12.6705533"><ele>226.0</ele><time>2026-03-08T11:56:39.938Z</time></trkpt><trkpt lat="43.5761465" lon="12.6706598"><ele>226.0</ele><time>2026-03-08T11:56:40.938Z</time></trkpt><trkpt lat="43.576154" lon="12.6707565"><ele>226.0</ele><time>2026-03-08T11:56:41.938Z</time></trkpt><trkpt lat="43.5762268" lon="12.6708999"><ele>225.99999999999997</ele><time>2026-03-08T11:56:43.938Z</time></trkpt><trkpt lat="43.5762891" lon="12.6709566"><ele>226.0</ele><time>2026-03-08T11:56:44.938Z</time></trkpt><trkpt lat="43.5763606" lon="12.6709951"><ele>225.99999999999997</ele><time>2026-03-08T11:56:45.938Z</time></trkpt><trkpt lat="43.5764462" lon="12.6710135"><ele>226.0</ele><time>2026-03-08T11:56:46.939Z</time></trkpt><trkpt lat="43.5765311" lon="12.6710187"><ele>226.0</ele><time>2026-03-08T11:56:47.939Z</time></trkpt><trkpt lat="43.5766147" lon="12.6710042"><ele>226.0</ele><time>2026-03-08T11:56:48.938Z</time></trkpt><trkpt lat="43.5766844" lon="12.6709882"><ele>225.99999999999997</ele><time>2026-03-08T11:56:49.938Z</time></trkpt><trkpt lat="43.5767898" lon="12.6709708"><ele>226.0</ele><time>2026-03-08T11:56:51.938Z</time></trkpt><trkpt lat="43.5768574" lon="12.6709874"><ele>225.99999999999997</ele><time>2026-03-08T11:56:53.938Z</time></trkpt><trkpt lat="43.5769173" lon="12.6709356"><ele>226.0</ele><time>2026-03-08T11:56:59.938Z</time></trkpt><trkpt lat="43.5769785" lon="12.6709037"><ele>226.0</ele><time>2026-03-08T11:57:01.938Z</time></trkpt><trkpt lat="43.5770358" lon="12.6709562"><ele>226.0</ele><time>2026-03-08T11:57:03.938Z</time></trkpt><trkpt lat="43.5771005" lon="12.671061"><ele>225.99999999999997</ele><time>2026-03-08T11:57:05.938Z</time></trkpt><trkpt lat="43.5771942" lon="12.6711653"><ele>226.0</ele><time>2026-03-08T11:57:07.938Z</time></trkpt><trkpt lat="43.5772514" lon="12.671215"><ele>225.16666666666666</ele><time>2026-03-08T11:57:08.938Z</time></trkpt><trkpt lat="43.5773168" lon="12.6712684"><ele>224.33333333333331</ele><time>2026-03-08T11:57:09.938Z</time></trkpt><trkpt lat="43.5773872" lon="12.6713231"><ele>223.5</ele><time>2026-03-08T11:57:10.939Z</time></trkpt><trkpt lat="43.5774592" lon="12.6713756"><ele>222.66666666666669</ele><time>2026-03-08T11:57:11.939Z</time></trkpt><trkpt lat="43.5775322" lon="12.6714304"><ele>221.83333333333334</ele><time>2026-03-08T11:57:12.938Z</time></trkpt><trkpt lat="43.5776105" lon="12.6714923"><ele>221.0</ele><time>2026-03-08T11:57:13.937Z</time></trkpt><trkpt lat="43.5776931" lon="12.6715252"><ele>221.00000000000003</ele><time>2026-03-08T11:57:14.938Z</time></trkpt><trkpt lat="43.577767" lon="12.6715291"><ele>221.0</ele><time>2026-03-08T11:57:15.938Z</time></trkpt><trkpt lat="43.5778786" lon="12.6714525"><ele>221.0</ele><time>2026-03-08T11:57:17.938Z</time></trkpt><trkpt lat="43.5779151" lon="12.6713693"><ele>221.0</ele><time>2026-03-08T11:57:18.938Z</time></trkpt><trkpt lat="43.5779476" lon="12.6712752"><ele>221.00000000000003</ele><time>2026-03-08T11:57:19.939Z</time></trkpt><trkpt lat="43.5780087" lon="12.671176"><ele>221.0</ele><time>2026-03-08T11:57:21.939Z</time></trkpt><trkpt lat="43.5781222" lon="12.6712111"><ele>222.00000000000003</ele><time>2026-03-08T11:57:23.938Z</time></trkpt><trkpt lat="43.578182" lon="12.6712653"><ele>223.0</ele><time>2026-03-08T11:57:24.938Z</time></trkpt><trkpt lat="43.5782425" lon="12.6713124"><ele>224.0</ele><time>2026-03-08T11:57:25.938Z</time></trkpt><trkpt lat="43.5783101" lon="12.6713619"><ele>225.0</ele><time>2026-03-08T11:57:26.938Z</time></trkpt><trkpt lat="43.5783884" lon="12.6714216"><ele>226.00000000000003</ele><time>2026-03-08T11:57:27.939Z</time></trkpt><trkpt lat="43.5784698" lon="12.6714806"><ele>227.0</ele><time>2026-03-08T11:57:28.938Z</time></trkpt><trkpt lat="43.5785666" lon="12.6715422"><ele>227.0</ele><time>2026-03-08T11:57:29.938Z</time></trkpt><trkpt lat="43.5786593" lon="12.6716038"><ele>227.0</ele><time>2026-03-08T11:57:30.938Z</time></trkpt><trkpt lat="43.5787594" lon="12.6716679"><ele>227.0</ele><time>2026-03-08T11:57:31.939Z</time></trkpt><trkpt lat="43.5788623" lon="12.6717414"><ele>227.0</ele><time>2026-03-08T11:57:32.938Z</time></trkpt><trkpt lat="43.5789683" lon="12.6718166"><ele>227.0</ele><time>2026-03-08T11:57:33.939Z</time></trkpt><trkpt lat="43.5790779" lon="12.6718916"><ele>227.0</ele><time>2026-03-08T11:57:34.938Z</time></trkpt><trkpt lat="43.5791895" lon="12.6719713"><ele>227.0</ele><time>2026-03-08T11:57:35.938Z</time></trkpt><trkpt lat="43.5792991" lon="12.6720562"><ele>227.0</ele><time>2026-03-08T11:57:36.938Z</time></trkpt><trkpt lat="43.5794084" lon="12.6721384"><ele>227.0</ele><time>2026-03-08T11:57:37.938Z</time></trkpt><trkpt lat="43.5795237" lon="12.6722262"><ele>227.25</ele><time>2026-03-08T11:57:38.938Z</time></trkpt><trkpt lat="43.5796383" lon="12.6723021"><ele>227.5</ele><time>2026-03-08T11:57:39.938Z</time></trkpt><trkpt lat="43.5797517" lon="12.6723851"><ele>227.75</ele><time>2026-03-08T11:57:40.938Z</time></trkpt><trkpt lat="43.5798716" lon="12.6724708"><ele>228.0</ele><time>2026-03-08T11:57:41.939Z</time></trkpt><trkpt lat="43.5799929" lon="12.6725625"><ele>228.0</ele><time>2026-03-08T11:57:42.938Z</time></trkpt><trkpt lat="43.5801161" lon="12.6726449"><ele>228.0</ele><time>2026-03-08T11:57:43.938Z</time></trkpt><trkpt lat="43.5802296" lon="12.6727279"><ele>228.0</ele><time>2026-03-08T11:57:44.937Z</time></trkpt><trkpt lat="43.580347" lon="12.6728052"><ele>228.0</ele><time>2026-03-08T11:57:45.938Z</time></trkpt><trkpt lat="43.5804613" lon="12.6728841"><ele>226.75</ele><time>2026-03-08T11:57:46.939Z</time></trkpt><trkpt lat="43.5805744" lon="12.6729751"><ele>225.5</ele><time>2026-03-08T11:57:47.938Z</time></trkpt><trkpt lat="43.5806856" lon="12.6730499"><ele>224.25</ele><time>2026-03-08T11:57:48.938Z</time></trkpt><trkpt lat="43.5808002" lon="12.6731316"><ele>223.0</ele><time>2026-03-08T11:57:49.939Z</time></trkpt><trkpt lat="43.5809108" lon="12.673213"><ele>223.0</ele><time>2026-03-08T11:57:50.938Z</time></trkpt><trkpt lat="43.5810236" lon="12.6732937"><ele>223.0</ele><time>2026-03-08T11:57:51.938Z</time></trkpt><trkpt lat="43.5811444" lon="12.6733796"><ele>223.0</ele><time>2026-03-08T11:57:52.938Z</time></trkpt><trkpt lat="43.5812624" lon="12.673477"><ele>223.0</ele><time>2026-03-08T11:57:53.939Z</time></trkpt><trkpt lat="43.5813813" lon="12.6735649"><ele>222.0</ele><time>2026-03-08T11:57:54.938Z</time></trkpt><trkpt lat="43.5814952" lon="12.6736459"><ele>221.0</ele><time>2026-03-08T11:57:55.938Z</time></trkpt><trkpt lat="43.5816136" lon="12.6737291"><ele>220.0</ele><time>2026-03-08T11:57:56.939Z</time></trkpt><trkpt lat="43.5817225" lon="12.6738077"><ele>219.0</ele><time>2026-03-08T11:57:57.939Z</time></trkpt><trkpt lat="43.5818371" lon="12.6738975"><ele>219.0</ele><time>2026-03-08T11:57:58.939Z</time></trkpt><trkpt lat="43.581947" lon="12.6739764"><ele>219.0</ele><time>2026-03-08T11:57:59.938Z</time></trkpt><trkpt lat="43.5820474" lon="12.6740681"><ele>219.0</ele><time>2026-03-08T11:58:00.939Z</time></trkpt><trkpt lat="43.5821452" lon="12.6741575"><ele>219.0</ele><time>2026-03-08T11:58:01.939Z</time></trkpt><trkpt lat="43.5822408" lon="12.6742568"><ele>220.0</ele><time>2026-03-08T11:58:02.938Z</time></trkpt><trkpt lat="43.5823364" lon="12.6743319"><ele>221.0</ele><time>2026-03-08T11:58:03.939Z</time></trkpt><trkpt lat="43.582442" lon="12.6743935"><ele>222.0</ele><time>2026-03-08T11:58:04.938Z</time></trkpt><trkpt lat="43.5825497" lon="12.6744147"><ele>223.0</ele><time>2026-03-08T11:58:05.938Z</time></trkpt><trkpt lat="43.5826653" lon="12.6743976"><ele>223.0</ele><time>2026-03-08T11:58:06.938Z</time></trkpt><trkpt lat="43.5827738" lon="12.6743667"><ele>223.0</ele><time>2026-03-08T11:58:07.938Z</time></trkpt><trkpt lat="43.5828655" lon="12.6743027"><ele>223.0</ele><time>2026-03-08T11:58:08.938Z</time></trkpt><trkpt lat="43.5829511" lon="12.6742324"><ele>223.0</ele><time>2026-03-08T11:58:09.939Z</time></trkpt><trkpt lat="43.5830339" lon="12.6741788"><ele>223.0</ele><time>2026-03-08T11:58:10.938Z</time></trkpt><trkpt lat="43.583118" lon="12.6741346"><ele>223.33333333333331</ele><time>2026-03-08T11:58:11.939Z</time></trkpt><trkpt lat="43.5832014" lon="12.6740908"><ele>223.66666666666666</ele><time>2026-03-08T11:58:12.938Z</time></trkpt><trkpt lat="43.5832837" lon="12.6740387"><ele>224.0</ele><time>2026-03-08T11:58:13.938Z</time></trkpt><trkpt lat="43.5833542" lon="12.6739831"><ele>224.33333333333331</ele><time>2026-03-08T11:58:14.938Z</time></trkpt><trkpt lat="43.5834236" lon="12.6739027"><ele>224.66666666666666</ele><time>2026-03-08T11:58:15.938Z</time></trkpt><trkpt lat="43.5834917" lon="12.6738223"><ele>225.0</ele><time>2026-03-08T11:58:16.938Z</time></trkpt><trkpt lat="43.5835637" lon="12.6737313"><ele>225.0</ele><time>2026-03-08T11:58:17.938Z</time></trkpt><trkpt lat="43.5836352" lon="12.673649"><ele>225.0</ele><time>2026-03-08T11:58:18.938Z</time></trkpt><trkpt lat="43.5837062" lon="12.6735613"><ele>225.0</ele><time>2026-03-08T11:58:19.938Z</time></trkpt><trkpt lat="43.5837813" lon="12.6734772"><ele>225.0</ele><time>2026-03-08T11:58:20.937Z</time></trkpt><trkpt lat="43.5838414" lon="12.6733859"><ele>225.0</ele><time>2026-03-08T11:58:21.938Z</time></trkpt><trkpt lat="43.5838942" lon="12.6733202"><ele>225.0</ele><time>2026-03-08T11:58:22.939Z</time></trkpt><trkpt lat="43.5839348" lon="12.6732501"><ele>225.33333333333334</ele><time>2026-03-08T11:58:23.938Z</time></trkpt><trkpt lat="43.5839532" lon="12.6731618"><ele>225.66666666666669</ele><time>2026-03-08T11:58:24.938Z</time></trkpt><trkpt lat="43.5838652" lon="12.6730914"><ele>226.0</ele><time>2026-03-08T11:58:26.938Z</time></trkpt><trkpt lat="43.583792" lon="12.6730517"><ele>226.33333333333334</ele><time>2026-03-08T11:58:28.938Z</time></trkpt><trkpt lat="43.5837287" lon="12.6729942"><ele>226.66666666666669</ele><time>2026-03-08T11:58:31.938Z</time></trkpt><trkpt lat="43.5836959" lon="12.67291"><ele>227.0</ele><time>2026-03-08T11:58:34.938Z</time></trkpt><trkpt lat="43.5837318" lon="12.6727425"><ele>227.0</ele><time>2026-03-08T11:58:39.939Z</time></trkpt><trkpt lat="43.583889" lon="12.6728191"><ele>227.0</ele><time>2026-03-08T11:58:40.939Z</time></trkpt><trkpt lat="43.5839673" lon="12.6728551"><ele>227.0</ele><time>2026-03-08T11:58:41.939Z</time></trkpt><trkpt lat="43.5840848" lon="12.6729129"><ele>227.0</ele><time>2026-03-08T11:58:43.938Z</time></trkpt><trkpt lat="43.5841606" lon="12.6729208"><ele>227.00000000000003</ele><time>2026-03-08T11:58:44.938Z</time></trkpt><trkpt lat="43.5842534" lon="12.6728758"><ele>227.0</ele><time>2026-03-08T11:58:46.939Z</time></trkpt><trkpt lat="43.5843128" lon="12.6728417"><ele>227.0</ele><time>2026-03-08T11:58:47.938Z</time></trkpt><trkpt lat="43.5843783" lon="12.6727986"><ele>227.0</ele><time>2026-03-08T11:58:48.938Z</time></trkpt><trkpt lat="43.5844605" lon="12.6726917"><ele>227.00000000000003</ele><time>2026-03-08T11:58:50.938Z</time></trkpt><trkpt lat="43.5844188" lon="12.672616"><ele>227.0</ele><time>2026-03-08T11:58:51.939Z</time></trkpt><trkpt lat="43.5844958" lon="12.6726023"><ele>227.0</ele><time>2026-03-08T11:58:53.938Z</time></trkpt><trkpt lat="43.584599" lon="12.6726854"><ele>227.0</ele><time>2026-03-08T11:58:55.939Z</time></trkpt><trkpt lat="43.584657" lon="12.6727317"><ele>227.0</ele><time>2026-03-08T11:58:57.939Z</time></trkpt><trkpt lat="43.5847412" lon="12.6727806"><ele>227.0</ele><time>2026-03-08T11:58:59.938Z</time></trkpt><trkpt lat="43.5848418" lon="12.6728714"><ele>227.0</ele><time>2026-03-08T11:59:01.938Z</time></trkpt><trkpt lat="43.5849049" lon="12.6729063"><ele>227.00000000000003</ele><time>2026-03-08T11:59:02.938Z</time></trkpt><trkpt lat="43.5849751" lon="12.6729441"><ele>227.0</ele><time>2026-03-08T11:59:03.937Z</time></trkpt><trkpt lat="43.5850464" lon="12.6729973"><ele>227.0</ele><time>2026-03-08T11:59:04.937Z</time></trkpt><trkpt lat="43.5851204" lon="12.6730185"><ele>227.0</ele><time>2026-03-08T11:59:05.938Z</time></trkpt><trkpt lat="43.5851989" lon="12.6730421"><ele>227.00000000000003</ele><time>2026-03-08T11:59:06.938Z</time></trkpt><trkpt lat="43.5852797" lon="12.673066"><ele>227.0</ele><time>2026-03-08T11:59:07.938Z</time></trkpt><trkpt lat="43.585363" lon="12.6730866"><ele>227.0</ele><time>2026-03-08T11:59:08.938Z</time></trkpt><trkpt lat="43.5854453" lon="12.6731109"><ele>227.0</ele><time>2026-03-08T11:59:09.939Z</time></trkpt><trkpt lat="43.5855333" lon="12.6731339"><ele>227.0</ele><time>2026-03-08T11:59:10.938Z</time></trkpt><trkpt lat="43.585632" lon="12.6731568"><ele>227.0</ele><time>2026-03-08T11:59:11.938Z</time></trkpt><trkpt lat="43.5857243" lon="12.6731904"><ele>227.0</ele><time>2026-03-08T11:59:12.938Z</time></trkpt><trkpt lat="43.5858326" lon="12.6731991"><ele>227.0</ele><time>2026-03-08T11:59:13.938Z</time></trkpt><trkpt lat="43.585945" lon="12.6732331"><ele>227.0</ele><time>2026-03-08T11:59:14.938Z</time></trkpt><trkpt lat="43.5860679" lon="12.6732731"><ele>227.0</ele><time>2026-03-08T11:59:15.937Z</time></trkpt><trkpt lat="43.5861927" lon="12.673315"><ele>227.0</ele><time>2026-03-08T11:59:16.939Z</time></trkpt><trkpt lat="43.5863184" lon="12.6733578"><ele>228.75</ele><time>2026-03-08T11:59:17.937Z</time></trkpt><trkpt lat="43.5864439" lon="12.6733861"><ele>230.5</ele><time>2026-03-08T11:59:18.937Z</time></trkpt><trkpt lat="43.5865681" lon="12.6734202"><ele>232.25</ele><time>2026-03-08T11:59:19.938Z</time></trkpt><trkpt lat="43.5866935" lon="12.6734615"><ele>234.0</ele><time>2026-03-08T11:59:20.937Z</time></trkpt><trkpt lat="43.5868171" lon="12.6734889"><ele>234.0</ele><time>2026-03-08T11:59:21.938Z</time></trkpt><trkpt lat="43.5869356" lon="12.6735172"><ele>234.0</ele><time>2026-03-08T11:59:22.938Z</time></trkpt><trkpt lat="43.587052" lon="12.6735354"><ele>234.0</ele><time>2026-03-08T11:59:23.938Z</time></trkpt><trkpt lat="43.5871646" lon="12.6735699"><ele>234.0</ele><time>2026-03-08T11:59:24.938Z</time></trkpt><trkpt lat="43.5872897" lon="12.6735942"><ele>232.5</ele><time>2026-03-08T11:59:25.938Z</time></trkpt><trkpt lat="43.5874123" lon="12.6736262"><ele>231.0</ele><time>2026-03-08T11:59:26.938Z</time></trkpt><trkpt lat="43.5875288" lon="12.6736654"><ele>229.5</ele><time>2026-03-08T11:59:27.939Z</time></trkpt><trkpt lat="43.5876542" lon="12.6737043"><ele>228.0</ele><time>2026-03-08T11:59:28.938Z</time></trkpt><trkpt lat="43.5877697" lon="12.6737468"><ele>229.25</ele><time>2026-03-08T11:59:29.938Z</time></trkpt><trkpt lat="43.587891" lon="12.6737927"><ele>230.5</ele><time>2026-03-08T11:59:30.938Z</time></trkpt><trkpt lat="43.588019" lon="12.6738337"><ele>231.75</ele><time>2026-03-08T11:59:31.938Z</time></trkpt><trkpt lat="43.5881385" lon="12.6738795"><ele>233.0</ele><time>2026-03-08T11:59:32.938Z</time></trkpt><trkpt lat="43.5882658" lon="12.673922"><ele>233.0</ele><time>2026-03-08T11:59:33.938Z</time></trkpt><trkpt lat="43.5883833" lon="12.6739609"><ele>233.0</ele><time>2026-03-08T11:59:34.938Z</time></trkpt><trkpt lat="43.5885071" lon="12.6740048"><ele>233.0</ele><time>2026-03-08T11:59:35.937Z</time></trkpt><trkpt lat="43.5886305" lon="12.6740399"><ele>233.0</ele><time>2026-03-08T11:59:36.937Z</time></trkpt><trkpt lat="43.5887524" lon="12.6740893"><ele>234.5</ele><time>2026-03-08T11:59:37.937Z</time></trkpt><trkpt lat="43.5888794" lon="12.6741349"><ele>236.0</ele><time>2026-03-08T11:59:38.938Z</time></trkpt><trkpt lat="43.5890011" lon="12.6741803"><ele>237.5</ele><time>2026-03-08T11:59:39.938Z</time></trkpt><trkpt lat="43.5891267" lon="12.674228"><ele>239.0</ele><time>2026-03-08T11:59:40.939Z</time></trkpt><trkpt lat="43.5892467" lon="12.6742904"><ele>239.0</ele><time>2026-03-08T11:59:41.938Z</time></trkpt><trkpt lat="43.5893767" lon="12.6743327"><ele>239.0</ele><time>2026-03-08T11:59:42.938Z</time></trkpt><trkpt lat="43.5895069" lon="12.6743788"><ele>239.0</ele><time>2026-03-08T11:59:43.938Z</time></trkpt><trkpt lat="43.5896409" lon="12.6744113"><ele>239.0</ele><time>2026-03-08T11:59:44.938Z</time></trkpt><trkpt lat="43.5897745" lon="12.6744458"><ele>236.0</ele><time>2026-03-08T11:59:45.938Z</time></trkpt><trkpt lat="43.5899068" lon="12.6744738"><ele>233.0</ele><time>2026-03-08T11:59:46.938Z</time></trkpt><trkpt lat="43.5900355" lon="12.6745068"><ele>230.0</ele><time>2026-03-08T11:59:47.938Z</time></trkpt><trkpt lat="43.5901666" lon="12.6745365"><ele>227.0</ele><time>2026-03-08T11:59:48.939Z</time></trkpt><trkpt lat="43.5902984" lon="12.674571"><ele>227.5</ele><time>2026-03-08T11:59:49.938Z</time></trkpt><trkpt lat="43.5904307" lon="12.6745989"><ele>228.0</ele><time>2026-03-08T11:59:50.938Z</time></trkpt><trkpt lat="43.5905617" lon="12.6746345"><ele>228.5</ele><time>2026-03-08T11:59:51.938Z</time></trkpt><trkpt lat="43.5906973" lon="12.6746675"><ele>229.0</ele><time>2026-03-08T11:59:52.938Z</time></trkpt><trkpt lat="43.5908382" lon="12.6746876"><ele>229.0</ele><time>2026-03-08T11:59:53.938Z</time></trkpt><trkpt lat="43.5909723" lon="12.6747183"><ele>229.0</ele><time>2026-03-08T11:59:54.938Z</time></trkpt><trkpt lat="43.5911096" lon="12.6747493"><ele>229.0</ele><time>2026-03-08T11:59:55.938Z</time></trkpt><trkpt lat="43.5912486" lon="12.6747781"><ele>229.0</ele><time>2026-03-08T11:59:56.938Z</time></trkpt><trkpt lat="43.5913835" lon="12.674805"><ele>230.0</ele><time>2026-03-08T11:59:57.939Z</time></trkpt><trkpt lat="43.5915221" lon="12.674827"><ele>231.0</ele><time>2026-03-08T11:59:58.939Z</time></trkpt><trkpt lat="43.5916593" lon="12.6748476"><ele>232.0</ele><time>2026-03-08T11:59:59.938Z</time></trkpt><trkpt lat="43.5917971" lon="12.6748769"><ele>233.0</ele><time>2026-03-08T12:00:00.937Z</time></trkpt><trkpt lat="43.5919323" lon="12.6749011"><ele>232.25</ele><time>2026-03-08T12:00:01.938Z</time></trkpt><trkpt lat="43.592072" lon="12.6749162"><ele>231.5</ele><time>2026-03-08T12:00:02.938Z</time></trkpt><trkpt lat="43.5922119" lon="12.6749295"><ele>230.75</ele><time>2026-03-08T12:00:03.938Z</time></trkpt><trkpt lat="43.5923541" lon="12.6749418"><ele>230.0</ele><time>2026-03-08T12:00:04.937Z</time></trkpt><trkpt lat="43.5924993" lon="12.6749497"><ele>230.0</ele><time>2026-03-08T12:00:05.937Z</time></trkpt><trkpt lat="43.5926387" lon="12.674963"><ele>230.0</ele><time>2026-03-08T12:00:06.938Z</time></trkpt><trkpt lat="43.5927815" lon="12.6749696"><ele>230.0</ele><time>2026-03-08T12:00:07.939Z</time></trkpt><trkpt lat="43.5929227" lon="12.6749693"><ele>230.0</ele><time>2026-03-08T12:00:08.938Z</time></trkpt><trkpt lat="43.5930667" lon="12.6749764"><ele>230.25</ele><time>2026-03-08T12:00:09.938Z</time></trkpt><trkpt lat="43.5932148" lon="12.6749844"><ele>230.5</ele><time>2026-03-08T12:00:10.937Z</time></trkpt><trkpt lat="43.5933648" lon="12.6750073"><ele>230.75</ele><time>2026-03-08T12:00:11.938Z</time></trkpt><trkpt lat="43.593512" lon="12.6750142"><ele>231.0</ele><time>2026-03-08T12:00:12.938Z</time></trkpt><trkpt lat="43.5936547" lon="12.6750201"><ele>231.5</ele><time>2026-03-08T12:00:13.938Z</time></trkpt><trkpt lat="43.5938055" lon="12.6750279"><ele>232.0</ele><time>2026-03-08T12:00:14.938Z</time></trkpt><trkpt lat="43.5939517" lon="12.6750434"><ele>232.5</ele><time>2026-03-08T12:00:15.939Z</time></trkpt><trkpt lat="43.5940908" lon="12.6750663"><ele>233.0</ele><time>2026-03-08T12:00:16.939Z</time></trkpt><trkpt lat="43.5942374" lon="12.6750855"><ele>233.0</ele><time>2026-03-08T12:00:17.938Z</time></trkpt><trkpt lat="43.5943781" lon="12.6751082"><ele>233.0</ele><time>2026-03-08T12:00:18.938Z</time></trkpt><trkpt lat="43.5945111" lon="12.6751335"><ele>233.0</ele><time>2026-03-08T12:00:19.939Z</time></trkpt><trkpt lat="43.5946498" lon="12.6751594"><ele>233.0</ele><time>2026-03-08T12:00:20.938Z</time></trkpt><trkpt lat="43.5947832" lon="12.6751935"><ele>232.5</ele><time>2026-03-08T12:00:21.937Z</time></trkpt><trkpt lat="43.5949216" lon="12.6752345"><ele>232.0</ele><time>2026-03-08T12:00:22.939Z</time></trkpt><trkpt lat="43.5950571" lon="12.675265"><ele>231.5</ele><time>2026-03-08T12:00:23.937Z</time></trkpt><trkpt lat="43.5951956" lon="12.6753008"><ele>231.0</ele><time>2026-03-08T12:00:24.938Z</time></trkpt><trkpt lat="43.5953319" lon="12.6753396"><ele>229.5</ele><time>2026-03-08T12:00:25.938Z</time></trkpt><trkpt lat="43.5954607" lon="12.6753853"><ele>228.0</ele><time>2026-03-08T12:00:26.938Z</time></trkpt><trkpt lat="43.5955919" lon="12.6754201"><ele>226.5</ele><time>2026-03-08T12:00:27.938Z</time></trkpt><trkpt lat="43.5957231" lon="12.6754547"><ele>225.0</ele><time>2026-03-08T12:00:28.938Z</time></trkpt><trkpt lat="43.5958553" lon="12.6754983"><ele>225.0</ele><time>2026-03-08T12:00:29.938Z</time></trkpt><trkpt lat="43.5959807" lon="12.675535"><ele>225.0</ele><time>2026-03-08T12:00:30.938Z</time></trkpt><trkpt lat="43.5961134" lon="12.675558"><ele>225.0</ele><time>2026-03-08T12:00:31.938Z</time></trkpt><trkpt lat="43.5962469" lon="12.675572"><ele>225.0</ele><time>2026-03-08T12:00:32.938Z</time></trkpt><trkpt lat="43.5963845" lon="12.6755651"><ele>224.0</ele><time>2026-03-08T12:00:33.939Z</time></trkpt><trkpt lat="43.5965157" lon="12.67556"><ele>223.0</ele><time>2026-03-08T12:00:34.938Z</time></trkpt><trkpt lat="43.5966523" lon="12.6755609"><ele>222.0</ele><time>2026-03-08T12:00:35.937Z</time></trkpt><trkpt lat="43.5967889" lon="12.6755596"><ele>221.0</ele><time>2026-03-08T12:00:36.938Z</time></trkpt><trkpt lat="43.5969284" lon="12.6755602"><ele>220.5</ele><time>2026-03-08T12:00:37.937Z</time></trkpt><trkpt lat="43.5970679" lon="12.6755569"><ele>220.0</ele><time>2026-03-08T12:00:38.939Z</time></trkpt><trkpt lat="43.5972068" lon="12.6755616"><ele>219.5</ele><time>2026-03-08T12:00:39.938Z</time></trkpt><trkpt lat="43.5973453" lon="12.6755564"><ele>219.0</ele><time>2026-03-08T12:00:40.938Z</time></trkpt><trkpt lat="43.5974846" lon="12.6755464"><ele>219.0</ele><time>2026-03-08T12:00:41.939Z</time></trkpt><trkpt lat="43.5976332" lon="12.6755333"><ele>219.0</ele><time>2026-03-08T12:00:42.938Z</time></trkpt><trkpt lat="43.59777" lon="12.6755227"><ele>219.0</ele><time>2026-03-08T12:00:43.938Z</time></trkpt><trkpt lat="43.5979037" lon="12.6755091"><ele>219.0</ele><time>2026-03-08T12:00:44.938Z</time></trkpt><trkpt lat="43.5980346" lon="12.675499"><ele>218.5</ele><time>2026-03-08T12:00:45.938Z</time></trkpt><trkpt lat="43.5981667" lon="12.6754901"><ele>218.0</ele><time>2026-03-08T12:00:46.938Z</time></trkpt><trkpt lat="43.5983053" lon="12.675493"><ele>217.5</ele><time>2026-03-08T12:00:47.937Z</time></trkpt><trkpt lat="43.5984404" lon="12.6755001"><ele>217.0</ele><time>2026-03-08T12:00:48.938Z</time></trkpt><trkpt lat="43.5985772" lon="12.675503"><ele>216.5</ele><time>2026-03-08T12:00:49.937Z</time></trkpt><trkpt lat="43.5987101" lon="12.6755146"><ele>216.0</ele><time>2026-03-08T12:00:50.938Z</time></trkpt><trkpt lat="43.5988408" lon="12.6755324"><ele>215.5</ele><time>2026-03-08T12:00:51.938Z</time></trkpt><trkpt lat="43.5989778" lon="12.6755418"><ele>215.0</ele><time>2026-03-08T12:00:52.939Z</time></trkpt><trkpt lat="43.5991199" lon="12.6755545"><ele>215.0</ele><time>2026-03-08T12:00:53.938Z</time></trkpt><trkpt lat="43.5992607" lon="12.6755694"><ele>215.0</ele><time>2026-03-08T12:00:54.939Z</time></trkpt><trkpt lat="43.5994029" lon="12.6755778"><ele>215.0</ele><time>2026-03-08T12:00:55.938Z</time></trkpt><trkpt lat="43.5995482" lon="12.6755887"><ele>215.0</ele><time>2026-03-08T12:00:56.937Z</time></trkpt><trkpt lat="43.5996956" lon="12.6755983"><ele>215.0</ele><time>2026-03-08T12:00:57.937Z</time></trkpt><trkpt lat="43.5998351" lon="12.6755979"><ele>215.0</ele><time>2026-03-08T12:00:58.937Z</time></trkpt><trkpt lat="43.5999775" lon="12.6756046"><ele>215.0</ele><time>2026-03-08T12:00:59.938Z</time></trkpt><trkpt lat="43.6001256" lon="12.6756083"><ele>215.0</ele><time>2026-03-08T12:01:00.939Z</time></trkpt><trkpt lat="43.600269" lon="12.6756047"><ele>214.75</ele><time>2026-03-08T12:01:01.938Z</time></trkpt><trkpt lat="43.6004126" lon="12.6755936"><ele>214.5</ele><time>2026-03-08T12:01:02.938Z</time></trkpt><trkpt lat="43.6005628" lon="12.6755775"><ele>214.25</ele><time>2026-03-08T12:01:03.938Z</time></trkpt><trkpt lat="43.6007002" lon="12.6755565"><ele>214.0</ele><time>2026-03-08T12:01:04.937Z</time></trkpt><trkpt lat="43.6008408" lon="12.6755192"><ele>214.0</ele><time>2026-03-08T12:01:05.938Z</time></trkpt><trkpt lat="43.6009832" lon="12.6754615"><ele>214.0</ele><time>2026-03-08T12:01:06.938Z</time></trkpt><trkpt lat="43.6011117" lon="12.6754013"><ele>214.0</ele><time>2026-03-08T12:01:07.938Z</time></trkpt><trkpt lat="43.6012422" lon="12.6753566"><ele>214.0</ele><time>2026-03-08T12:01:08.938Z</time></trkpt><trkpt lat="43.6013736" lon="12.6752952"><ele>216.0</ele><time>2026-03-08T12:01:09.938Z</time></trkpt><trkpt lat="43.6014984" lon="12.6752374"><ele>218.0</ele><time>2026-03-08T12:01:10.938Z</time></trkpt><trkpt lat="43.6016234" lon="12.6751752"><ele>220.0</ele><time>2026-03-08T12:01:11.938Z</time></trkpt><trkpt lat="43.6017516" lon="12.6751237"><ele>222.0</ele><time>2026-03-08T12:01:12.938Z</time></trkpt><trkpt lat="43.6018788" lon="12.675066"><ele>220.5</ele><time>2026-03-08T12:01:13.938Z</time></trkpt><trkpt lat="43.6020074" lon="12.6750167"><ele>219.0</ele><time>2026-03-08T12:01:14.937Z</time></trkpt><trkpt lat="43.6021489" lon="12.6749823"><ele>217.5</ele><time>2026-03-08T12:01:15.938Z</time></trkpt><trkpt lat="43.602292" lon="12.6749649"><ele>216.0</ele><time>2026-03-08T12:01:16.938Z</time></trkpt><trkpt lat="43.6024281" lon="12.6749672"><ele>216.0</ele><time>2026-03-08T12:01:17.937Z</time></trkpt><trkpt lat="43.6025697" lon="12.674992"><ele>216.0</ele><time>2026-03-08T12:01:18.937Z</time></trkpt><trkpt lat="43.6027059" lon="12.675027"><ele>216.0</ele><time>2026-03-08T12:01:19.938Z</time></trkpt><trkpt lat="43.602841" lon="12.6750759"><ele>216.0</ele><time>2026-03-08T12:01:20.939Z</time></trkpt><trkpt lat="43.6029797" lon="12.6751148"><ele>216.5</ele><time>2026-03-08T12:01:21.938Z</time></trkpt><trkpt lat="43.603113" lon="12.6751506"><ele>217.0</ele><time>2026-03-08T12:01:22.937Z</time></trkpt><trkpt lat="43.6032474" lon="12.6751781"><ele>217.5</ele><time>2026-03-08T12:01:23.938Z</time></trkpt><trkpt lat="43.6033923" lon="12.6751896"><ele>218.0</ele><time>2026-03-08T12:01:24.938Z</time></trkpt><trkpt lat="43.6035265" lon="12.6751784"><ele>218.0</ele><time>2026-03-08T12:01:25.939Z</time></trkpt><trkpt lat="43.6036628" lon="12.6751646"><ele>218.0</ele><time>2026-03-08T12:01:26.938Z</time></trkpt><trkpt lat="43.6038099" lon="12.6751456"><ele>218.0</ele><time>2026-03-08T12:01:27.938Z</time></trkpt><trkpt lat="43.6039512" lon="12.6751284"><ele>218.0</ele><time>2026-03-08T12:01:28.938Z</time></trkpt><trkpt lat="43.6040867" lon="12.6751107"><ele>217.4</ele><time>2026-03-08T12:01:29.939Z</time></trkpt><trkpt lat="43.6042151" lon="12.6750945"><ele>216.8</ele><time>2026-03-08T12:01:30.937Z</time></trkpt><trkpt lat="43.6043327" lon="12.6750772"><ele>216.2</ele><time>2026-03-08T12:01:31.938Z</time></trkpt><trkpt lat="43.6044356" lon="12.6750608"><ele>215.6</ele><time>2026-03-08T12:01:32.938Z</time></trkpt><trkpt lat="43.6045276" lon="12.6750561"><ele>215.0</ele><time>2026-03-08T12:01:33.938Z</time></trkpt><trkpt lat="43.6046048" lon="12.6750888"><ele>214.57142857142856</ele><time>2026-03-08T12:01:34.938Z</time></trkpt><trkpt lat="43.6046635" lon="12.6751422"><ele>214.14285714285717</ele><time>2026-03-08T12:01:35.937Z</time></trkpt><trkpt lat="43.6047161" lon="12.6752125"><ele>213.71428571428572</ele><time>2026-03-08T12:01:36.938Z</time></trkpt><trkpt lat="43.6047481" lon="12.6752934"><ele>213.28571428571428</ele><time>2026-03-08T12:01:37.937Z</time></trkpt><trkpt lat="43.6047807" lon="12.6753679"><ele>212.85714285714283</ele><time>2026-03-08T12:01:38.938Z</time></trkpt><trkpt lat="43.6048373" lon="12.6754395"><ele>212.42857142857144</ele><time>2026-03-08T12:01:39.938Z</time></trkpt><trkpt lat="43.6049162" lon="12.6754744"><ele>212.0</ele><time>2026-03-08T12:01:40.937Z</time></trkpt><trkpt lat="43.6050083" lon="12.6754744"><ele>210.75</ele><time>2026-03-08T12:01:41.939Z</time></trkpt><trkpt lat="43.6051224" lon="12.6754346"><ele>209.5</ele><time>2026-03-08T12:01:42.938Z</time></trkpt><trkpt lat="43.6052462" lon="12.675387"><ele>208.25</ele><time>2026-03-08T12:01:43.938Z</time></trkpt><trkpt lat="43.6053784" lon="12.6753414"><ele>207.0</ele><time>2026-03-08T12:01:44.939Z</time></trkpt><trkpt lat="43.6055185" lon="12.6752947"><ele>207.75</ele><time>2026-03-08T12:01:45.938Z</time></trkpt><trkpt lat="43.6056585" lon="12.6752452"><ele>208.5</ele><time>2026-03-08T12:01:46.938Z</time></trkpt><trkpt lat="43.6058026" lon="12.6751834"><ele>209.25</ele><time>2026-03-08T12:01:47.937Z</time></trkpt><trkpt lat="43.6059453" lon="12.6751309"><ele>210.0</ele><time>2026-03-08T12:01:48.938Z</time></trkpt><trkpt lat="43.6060876" lon="12.6750751"><ele>209.33333333333331</ele><time>2026-03-08T12:01:49.938Z</time></trkpt><trkpt lat="43.6062351" lon="12.6750283"><ele>208.66666666666666</ele><time>2026-03-08T12:01:50.937Z</time></trkpt><trkpt lat="43.606383" lon="12.6749753"><ele>208.0</ele><time>2026-03-08T12:01:51.938Z</time></trkpt><trkpt lat="43.6065311" lon="12.6749246"><ele>208.0</ele><time>2026-03-08T12:01:52.938Z</time></trkpt><trkpt lat="43.6066742" lon="12.6748639"><ele>208.0</ele><time>2026-03-08T12:01:53.938Z</time></trkpt><trkpt lat="43.6068135" lon="12.6748199"><ele>208.0</ele><time>2026-03-08T12:01:54.938Z</time></trkpt><trkpt lat="43.606958" lon="12.674768"><ele>208.0</ele><time>2026-03-08T12:01:55.938Z</time></trkpt><trkpt lat="43.6070994" lon="12.6747219"><ele>208.0</ele><time>2026-03-08T12:01:56.937Z</time></trkpt><trkpt lat="43.6072393" lon="12.6746762"><ele>208.0</ele><time>2026-03-08T12:01:57.937Z</time></trkpt><trkpt lat="43.6073819" lon="12.6746351"><ele>208.0</ele><time>2026-03-08T12:01:58.938Z</time></trkpt><trkpt lat="43.6075257" lon="12.6746032"><ele>208.0</ele><time>2026-03-08T12:01:59.938Z</time></trkpt><trkpt lat="43.6076723" lon="12.6745625"><ele>208.0</ele><time>2026-03-08T12:02:00.938Z</time></trkpt><trkpt lat="43.6078137" lon="12.6745091"><ele>208.0</ele><time>2026-03-08T12:02:01.938Z</time></trkpt><trkpt lat="43.6079579" lon="12.6744555"><ele>208.0</ele><time>2026-03-08T12:02:02.937Z</time></trkpt><trkpt lat="43.6080994" lon="12.6744013"><ele>208.0</ele><time>2026-03-08T12:02:03.937Z</time></trkpt><trkpt lat="43.6082422" lon="12.6743515"><ele>208.5</ele><time>2026-03-08T12:02:04.938Z</time></trkpt><trkpt lat="43.6083848" lon="12.6742922"><ele>209.0</ele><time>2026-03-08T12:02:05.938Z</time></trkpt><trkpt lat="43.6085279" lon="12.6742368"><ele>209.5</ele><time>2026-03-08T12:02:06.938Z</time></trkpt><trkpt lat="43.6086708" lon="12.6741811"><ele>210.0</ele><time>2026-03-08T12:02:07.939Z</time></trkpt><trkpt lat="43.6088108" lon="12.674119"><ele>209.0</ele><time>2026-03-08T12:02:08.939Z</time></trkpt><trkpt lat="43.6089497" lon="12.6740507"><ele>208.0</ele><time>2026-03-08T12:02:09.937Z</time></trkpt><trkpt lat="43.609092" lon="12.6739878"><ele>207.0</ele><time>2026-03-08T12:02:10.938Z</time></trkpt><trkpt lat="43.6092311" lon="12.6739253"><ele>206.0</ele><time>2026-03-08T12:02:11.938Z</time></trkpt><trkpt lat="43.6093737" lon="12.673873"><ele>205.5</ele><time>2026-03-08T12:02:12.938Z</time></trkpt><trkpt lat="43.6095143" lon="12.6738108"><ele>205.0</ele><time>2026-03-08T12:02:13.938Z</time></trkpt><trkpt lat="43.6096536" lon="12.6737545"><ele>204.5</ele><time>2026-03-08T12:02:14.938Z</time></trkpt><trkpt lat="43.6097942" lon="12.673692"><ele>204.0</ele><time>2026-03-08T12:02:15.938Z</time></trkpt><trkpt lat="43.6099307" lon="12.6736304"><ele>205.25</ele><time>2026-03-08T12:02:16.938Z</time></trkpt><trkpt lat="43.6100691" lon="12.6735652"><ele>206.5</ele><time>2026-03-08T12:02:17.937Z</time></trkpt><trkpt lat="43.610207" lon="12.6735022"><ele>207.75</ele><time>2026-03-08T12:02:18.938Z</time></trkpt><trkpt lat="43.6103525" lon="12.67344"><ele>209.0</ele><time>2026-03-08T12:02:19.937Z</time></trkpt><trkpt lat="43.6104938" lon="12.673377"><ele>209.0</ele><time>2026-03-08T12:02:20.939Z</time></trkpt><trkpt lat="43.6106333" lon="12.6733128"><ele>209.0</ele><time>2026-03-08T12:02:21.937Z</time></trkpt><trkpt lat="43.6107704" lon="12.6732541"><ele>209.0</ele><time>2026-03-08T12:02:22.937Z</time></trkpt><trkpt lat="43.6109098" lon="12.6731849"><ele>209.0</ele><time>2026-03-08T12:02:23.938Z</time></trkpt><trkpt lat="43.6110488" lon="12.67312"><ele>208.75</ele><time>2026-03-08T12:02:24.937Z</time></trkpt><trkpt lat="43.6111946" lon="12.6730544"><ele>208.5</ele><time>2026-03-08T12:02:25.938Z</time></trkpt><trkpt lat="43.6113301" lon="12.6729923"><ele>208.25</ele><time>2026-03-08T12:02:26.939Z</time></trkpt><trkpt lat="43.6114691" lon="12.6729234"><ele>208.0</ele><time>2026-03-08T12:02:27.938Z</time></trkpt><trkpt lat="43.6116065" lon="12.6728531"><ele>208.0</ele><time>2026-03-08T12:02:28.938Z</time></trkpt><trkpt lat="43.6117409" lon="12.672789"><ele>208.0</ele><time>2026-03-08T12:02:29.939Z</time></trkpt><trkpt lat="43.6118812" lon="12.6727255"><ele>208.0</ele><time>2026-03-08T12:02:30.937Z</time></trkpt><trkpt lat="43.6120144" lon="12.6726525"><ele>208.0</ele><time>2026-03-08T12:02:31.938Z</time></trkpt><trkpt lat="43.6121588" lon="12.6725861"><ele>208.25</ele><time>2026-03-08T12:02:32.939Z</time></trkpt><trkpt lat="43.6122931" lon="12.6725184"><ele>208.5</ele><time>2026-03-08T12:02:33.937Z</time></trkpt><trkpt lat="43.6124195" lon="12.6724552"><ele>208.75</ele><time>2026-03-08T12:02:34.938Z</time></trkpt><trkpt lat="43.6125395" lon="12.672404"><ele>209.0</ele><time>2026-03-08T12:02:35.939Z</time></trkpt><trkpt lat="43.6126543" lon="12.6723486"><ele>209.0</ele><time>2026-03-08T12:02:36.938Z</time></trkpt><trkpt lat="43.6127667" lon="12.672302"><ele>209.0</ele><time>2026-03-08T12:02:37.938Z</time></trkpt><trkpt lat="43.6128791" lon="12.6722515"><ele>209.0</ele><time>2026-03-08T12:02:38.938Z</time></trkpt><trkpt lat="43.6129787" lon="12.6722108"><ele>209.0</ele><time>2026-03-08T12:02:39.938Z</time></trkpt><trkpt lat="43.613074" lon="12.6721767"><ele>209.0</ele><time>2026-03-08T12:02:40.939Z</time></trkpt><trkpt lat="43.6131732" lon="12.6721503"><ele>208.79999999999998</ele><time>2026-03-08T12:02:41.939Z</time></trkpt><trkpt lat="43.6132726" lon="12.6721324"><ele>208.6</ele><time>2026-03-08T12:02:42.937Z</time></trkpt><trkpt lat="43.6133699" lon="12.6721377"><ele>208.4</ele><time>2026-03-08T12:02:43.938Z</time></trkpt><trkpt lat="43.6134668" lon="12.6721468"><ele>208.2</ele><time>2026-03-08T12:02:44.938Z</time></trkpt><trkpt lat="43.613552" lon="12.6721637"><ele>208.0</ele><time>2026-03-08T12:02:45.938Z</time></trkpt><trkpt lat="43.6136331" lon="12.6721902"><ele>207.83333333333331</ele><time>2026-03-08T12:02:46.938Z</time></trkpt><trkpt lat="43.6136937" lon="12.672228"><ele>207.66666666666666</ele><time>2026-03-08T12:02:47.938Z</time></trkpt><trkpt lat="43.6137936" lon="12.6722771"><ele>207.5</ele><time>2026-03-08T12:02:49.938Z</time></trkpt><trkpt lat="43.6138516" lon="12.6723167"><ele>207.33333333333331</ele><time>2026-03-08T12:02:51.938Z</time></trkpt><trkpt lat="43.6139413" lon="12.6723418"><ele>207.16666666666666</ele><time>2026-03-08T12:03:09.938Z</time></trkpt><trkpt lat="43.6140125" lon="12.6723593"><ele>207.0</ele><time>2026-03-08T12:03:10.938Z</time></trkpt><trkpt lat="43.6140825" lon="12.6723917"><ele>207.0</ele><time>2026-03-08T12:03:11.938Z</time></trkpt><trkpt lat="43.6141676" lon="12.6724187"><ele>207.0</ele><time>2026-03-08T12:03:12.937Z</time></trkpt><trkpt lat="43.6142544" lon="12.6724577"><ele>207.0</ele><time>2026-03-08T12:03:13.938Z</time></trkpt><trkpt lat="43.6143528" lon="12.6724929"><ele>207.0</ele><time>2026-03-08T12:03:14.939Z</time></trkpt><trkpt lat="43.6144502" lon="12.6725349"><ele>207.0</ele><time>2026-03-08T12:03:15.938Z</time></trkpt><trkpt lat="43.6145507" lon="12.6725741"><ele>206.0</ele><time>2026-03-08T12:03:16.939Z</time></trkpt><trkpt lat="43.6146497" lon="12.6726102"><ele>205.0</ele><time>2026-03-08T12:03:17.939Z</time></trkpt><trkpt lat="43.6147549" lon="12.6726523"><ele>204.0</ele><time>2026-03-08T12:03:18.938Z</time></trkpt><trkpt lat="43.6148646" lon="12.6726693"><ele>203.0</ele><time>2026-03-08T12:03:19.937Z</time></trkpt><trkpt lat="43.6149764" lon="12.6726867"><ele>202.0</ele><time>2026-03-08T12:03:20.937Z</time></trkpt><trkpt lat="43.6150908" lon="12.6726895"><ele>202.0</ele><time>2026-03-08T12:03:21.938Z</time></trkpt><trkpt lat="43.6151991" lon="12.6726912"><ele>202.0</ele><time>2026-03-08T12:03:22.937Z</time></trkpt><trkpt lat="43.6153053" lon="12.6726948"><ele>202.0</ele><time>2026-03-08T12:03:23.939Z</time></trkpt><trkpt lat="43.6154179" lon="12.6726984"><ele>202.0</ele><time>2026-03-08T12:03:24.939Z</time></trkpt><trkpt lat="43.6155244" lon="12.6727033"><ele>202.0</ele><time>2026-03-08T12:03:25.938Z</time></trkpt><trkpt lat="43.6156317" lon="12.6727094"><ele>201.39999999999998</ele><time>2026-03-08T12:03:26.938Z</time></trkpt><trkpt lat="43.6157335" lon="12.6727182"><ele>200.79999999999998</ele><time>2026-03-08T12:03:27.939Z</time></trkpt><trkpt lat="43.6158273" lon="12.672728"><ele>200.2</ele><time>2026-03-08T12:03:28.938Z</time></trkpt><trkpt lat="43.6159177" lon="12.6727413"><ele>199.6</ele><time>2026-03-08T12:03:29.938Z</time></trkpt><trkpt lat="43.616002" lon="12.6727617"><ele>199.0</ele><time>2026-03-08T12:03:30.939Z</time></trkpt><trkpt lat="43.616088" lon="12.6727883"><ele>199.2</ele><time>2026-03-08T12:03:31.939Z</time></trkpt><trkpt lat="43.6161733" lon="12.6728079"><ele>199.39999999999998</ele><time>2026-03-08T12:03:32.937Z</time></trkpt><trkpt lat="43.6162604" lon="12.6728257"><ele>199.6</ele><time>2026-03-08T12:03:33.938Z</time></trkpt><trkpt lat="43.6163503" lon="12.6728364"><ele>199.8</ele><time>2026-03-08T12:03:34.938Z</time></trkpt><trkpt lat="43.6164422" lon="12.6728477"><ele>200.0</ele><time>2026-03-08T12:03:35.938Z</time></trkpt><trkpt lat="43.6165408" lon="12.6728498"><ele>200.0</ele><time>2026-03-08T12:03:36.938Z</time></trkpt><trkpt lat="43.6166396" lon="12.6728464"><ele>200.0</ele><time>2026-03-08T12:03:37.938Z</time></trkpt><trkpt lat="43.6167405" lon="12.6728452"><ele>200.0</ele><time>2026-03-08T12:03:38.938Z</time></trkpt><trkpt lat="43.6168425" lon="12.6728433"><ele>200.0</ele><time>2026-03-08T12:03:39.939Z</time></trkpt><trkpt lat="43.6169537" lon="12.6728481"><ele>200.0</ele><time>2026-03-08T12:03:40.94Z</time></trkpt><trkpt lat="43.6170662" lon="12.672847"><ele>200.0</ele><time>2026-03-08T12:03:41.938Z</time></trkpt><trkpt lat="43.6171805" lon="12.6728326"><ele>200.0</ele><time>2026-03-08T12:03:42.938Z</time></trkpt><trkpt lat="43.6172932" lon="12.672832"><ele>200.0</ele><time>2026-03-08T12:03:43.938Z</time></trkpt><trkpt lat="43.6174075" lon="12.6728295"><ele>200.0</ele><time>2026-03-08T12:03:44.939Z</time></trkpt><trkpt lat="43.6175171" lon="12.6728274"><ele>200.0</ele><time>2026-03-08T12:03:45.938Z</time></trkpt><trkpt lat="43.6176236" lon="12.6728343"><ele>200.0</ele><time>2026-03-08T12:03:46.938Z</time></trkpt><trkpt lat="43.6177346" lon="12.6728421"><ele>200.0</ele><time>2026-03-08T12:03:47.938Z</time></trkpt><trkpt lat="43.6178433" lon="12.6728461"><ele>200.0</ele><time>2026-03-08T12:03:48.938Z</time></trkpt><trkpt lat="43.6179516" lon="12.6728472"><ele>200.0</ele><time>2026-03-08T12:03:49.938Z</time></trkpt><trkpt lat="43.6180596" lon="12.6728552"><ele>200.0</ele><time>2026-03-08T12:03:50.938Z</time></trkpt><trkpt lat="43.618167" lon="12.6728603"><ele>200.0</ele><time>2026-03-08T12:03:51.938Z</time></trkpt><trkpt lat="43.6182754" lon="12.6728616"><ele>200.0</ele><time>2026-03-08T12:03:52.938Z</time></trkpt><trkpt lat="43.6183795" lon="12.6728869"><ele>200.0</ele><time>2026-03-08T12:03:53.939Z</time></trkpt><trkpt lat="43.6184909" lon="12.6729147"><ele>200.0</ele><time>2026-03-08T12:03:54.937Z</time></trkpt><trkpt lat="43.6185947" lon="12.6729486"><ele>200.4</ele><time>2026-03-08T12:03:55.938Z</time></trkpt><trkpt lat="43.6187001" lon="12.6729971"><ele>200.8</ele><time>2026-03-08T12:03:56.937Z</time></trkpt><trkpt lat="43.6188024" lon="12.6730446"><ele>201.2</ele><time>2026-03-08T12:03:57.939Z</time></trkpt><trkpt lat="43.6189073" lon="12.6730966"><ele>201.6</ele><time>2026-03-08T12:03:58.938Z</time></trkpt><trkpt lat="43.6190139" lon="12.6731506"><ele>202.0</ele><time>2026-03-08T12:03:59.937Z</time></trkpt><trkpt lat="43.6191215" lon="12.6731994"><ele>202.0</ele><time>2026-03-08T12:04:00.938Z</time></trkpt><trkpt lat="43.6192314" lon="12.6732438"><ele>202.0</ele><time>2026-03-08T12:04:01.938Z</time></trkpt><trkpt lat="43.6193419" lon="12.6732879"><ele>202.0</ele><time>2026-03-08T12:04:02.938Z</time></trkpt><trkpt lat="43.619451" lon="12.6733366"><ele>202.0</ele><time>2026-03-08T12:04:03.939Z</time></trkpt><trkpt lat="43.6195672" lon="12.6733881"><ele>202.0</ele><time>2026-03-08T12:04:04.938Z</time></trkpt><trkpt lat="43.61968" lon="12.6734416"><ele>202.0</ele><time>2026-03-08T12:04:05.938Z</time></trkpt><trkpt lat="43.6197874" lon="12.6734974"><ele>202.0</ele><time>2026-03-08T12:04:06.937Z</time></trkpt><trkpt lat="43.6199009" lon="12.6735586"><ele>202.0</ele><time>2026-03-08T12:04:07.937Z</time></trkpt><trkpt lat="43.6200197" lon="12.6736132"><ele>200.75</ele><time>2026-03-08T12:04:08.938Z</time></trkpt><trkpt lat="43.6201352" lon="12.673671"><ele>199.5</ele><time>2026-03-08T12:04:09.938Z</time></trkpt><trkpt lat="43.6202518" lon="12.6737274"><ele>198.25</ele><time>2026-03-08T12:04:10.938Z</time></trkpt><trkpt lat="43.6203613" lon="12.6737867"><ele>197.0</ele><time>2026-03-08T12:04:11.938Z</time></trkpt><trkpt lat="43.6204684" lon="12.673838"><ele>197.0</ele><time>2026-03-08T12:04:12.937Z</time></trkpt><trkpt lat="43.620577" lon="12.6738902"><ele>197.0</ele><time>2026-03-08T12:04:13.937Z</time></trkpt><trkpt lat="43.6206767" lon="12.6739399"><ele>197.0</ele><time>2026-03-08T12:04:14.937Z</time></trkpt><trkpt lat="43.6207743" lon="12.6739858"><ele>197.0</ele><time>2026-03-08T12:04:15.939Z</time></trkpt><trkpt lat="43.6208675" lon="12.6740418"><ele>197.0</ele><time>2026-03-08T12:04:16.938Z</time></trkpt><trkpt lat="43.6209564" lon="12.674105"><ele>197.0</ele><time>2026-03-08T12:04:17.937Z</time></trkpt><trkpt lat="43.6210385" lon="12.6741793"><ele>197.0</ele><time>2026-03-08T12:04:18.938Z</time></trkpt><trkpt lat="43.6211206" lon="12.6742651"><ele>197.0</ele><time>2026-03-08T12:04:19.938Z</time></trkpt><trkpt lat="43.6211899" lon="12.6743531"><ele>197.0</ele><time>2026-03-08T12:04:20.939Z</time></trkpt><trkpt lat="43.6212642" lon="12.6744658"><ele>197.0</ele><time>2026-03-08T12:04:21.939Z</time></trkpt><trkpt lat="43.6213261" lon="12.6745635"><ele>197.2</ele><time>2026-03-08T12:04:22.938Z</time></trkpt><trkpt lat="43.62139" lon="12.6746663"><ele>197.39999999999998</ele><time>2026-03-08T12:04:23.937Z</time></trkpt><trkpt lat="43.6214668" lon="12.6747684"><ele>197.60000000000002</ele><time>2026-03-08T12:04:24.938Z</time></trkpt><trkpt lat="43.6215314" lon="12.6748546"><ele>197.8</ele><time>2026-03-08T12:04:25.937Z</time></trkpt><trkpt lat="43.6215991" lon="12.6749459"><ele>198.0</ele><time>2026-03-08T12:04:26.939Z</time></trkpt><trkpt lat="43.6216717" lon="12.6750605"><ele>198.0</ele><time>2026-03-08T12:04:27.938Z</time></trkpt><trkpt lat="43.6217418" lon="12.6751647"><ele>198.0</ele><time>2026-03-08T12:04:28.939Z</time></trkpt><trkpt lat="43.6218174" lon="12.6752783"><ele>198.0</ele><time>2026-03-08T12:04:29.938Z</time></trkpt><trkpt lat="43.6218988" lon="12.6753922"><ele>198.0</ele><time>2026-03-08T12:04:30.938Z</time></trkpt><trkpt lat="43.621988" lon="12.6755082"><ele>197.75</ele><time>2026-03-08T12:04:31.938Z</time></trkpt><trkpt lat="43.6220781" lon="12.6756302"><ele>197.5</ele><time>2026-03-08T12:04:32.938Z</time></trkpt><trkpt lat="43.6221689" lon="12.6757593"><ele>197.25</ele><time>2026-03-08T12:04:33.937Z</time></trkpt><trkpt lat="43.6222561" lon="12.6758763"><ele>197.0</ele><time>2026-03-08T12:04:34.937Z</time></trkpt><trkpt lat="43.622345" lon="12.6759841"><ele>197.0</ele><time>2026-03-08T12:04:35.939Z</time></trkpt><trkpt lat="43.6224286" lon="12.6761016"><ele>197.0</ele><time>2026-03-08T12:04:36.937Z</time></trkpt><trkpt lat="43.6225081" lon="12.6762116"><ele>197.0</ele><time>2026-03-08T12:04:37.937Z</time></trkpt><trkpt lat="43.6225946" lon="12.6763211"><ele>197.0</ele><time>2026-03-08T12:04:38.938Z</time></trkpt><trkpt lat="43.6226772" lon="12.6764273"><ele>196.66666666666669</ele><time>2026-03-08T12:04:39.937Z</time></trkpt><trkpt lat="43.6227547" lon="12.6765347"><ele>196.33333333333334</ele><time>2026-03-08T12:04:40.938Z</time></trkpt><trkpt lat="43.6228268" lon="12.6766367"><ele>196.0</ele><time>2026-03-08T12:04:41.938Z</time></trkpt><trkpt lat="43.6228876" lon="12.6767225"><ele>195.66666666666669</ele><time>2026-03-08T12:04:42.937Z</time></trkpt><trkpt lat="43.6229352" lon="12.6768095"><ele>195.33333333333334</ele><time>2026-03-08T12:04:43.937Z</time></trkpt><trkpt lat="43.622975" lon="12.6768899"><ele>195.0</ele><time>2026-03-08T12:04:44.938Z</time></trkpt><trkpt lat="43.623031" lon="12.6769541"><ele>195.0</ele><time>2026-03-08T12:04:45.938Z</time></trkpt><trkpt lat="43.623144" lon="12.6769563"><ele>195.0</ele><time>2026-03-08T12:04:47.937Z</time></trkpt><trkpt lat="43.6231884" lon="12.6768931"><ele>195.0</ele><time>2026-03-08T12:04:48.938Z</time></trkpt><trkpt lat="43.6232236" lon="12.6768042"><ele>195.0</ele><time>2026-03-08T12:04:49.938Z</time></trkpt><trkpt lat="43.6232524" lon="12.6767078"><ele>195.0</ele><time>2026-03-08T12:04:50.938Z</time></trkpt><trkpt lat="43.6232829" lon="12.6766032"><ele>195.0</ele><time>2026-03-08T12:04:51.938Z</time></trkpt><trkpt lat="43.6233123" lon="12.6765103"><ele>195.0</ele><time>2026-03-08T12:04:52.937Z</time></trkpt><trkpt lat="43.6233459" lon="12.6764127"><ele>195.0</ele><time>2026-03-08T12:04:53.938Z</time></trkpt><trkpt lat="43.6233865" lon="12.6763211"><ele>195.0</ele><time>2026-03-08T12:04:54.939Z</time></trkpt><trkpt lat="43.6234356" lon="12.6762418"><ele>195.0</ele><time>2026-03-08T12:04:55.937Z</time></trkpt><trkpt lat="43.6235023" lon="12.6761833"><ele>195.0</ele><time>2026-03-08T12:04:56.939Z</time></trkpt><trkpt lat="43.6235758" lon="12.6761542"><ele>195.0</ele><time>2026-03-08T12:04:57.937Z</time></trkpt><trkpt lat="43.6236644" lon="12.6761479"><ele>195.4</ele><time>2026-03-08T12:04:58.938Z</time></trkpt><trkpt lat="43.6237619" lon="12.6761609"><ele>195.8</ele><time>2026-03-08T12:04:59.938Z</time></trkpt><trkpt lat="43.6238662" lon="12.676179"><ele>196.2</ele><time>2026-03-08T12:05:00.939Z</time></trkpt><trkpt lat="43.6239713" lon="12.6761882"><ele>196.6</ele><time>2026-03-08T12:05:01.939Z</time></trkpt><trkpt lat="43.6240755" lon="12.676194"><ele>197.0</ele><time>2026-03-08T12:05:02.939Z</time></trkpt><trkpt lat="43.6241688" lon="12.676218"><ele>197.0</ele><time>2026-03-08T12:05:03.938Z</time></trkpt><trkpt lat="43.6242635" lon="12.6762584"><ele>197.0</ele><time>2026-03-08T12:05:04.937Z</time></trkpt><trkpt lat="43.6243416" lon="12.676319"><ele>197.0</ele><time>2026-03-08T12:05:05.938Z</time></trkpt><trkpt lat="43.6244215" lon="12.6763978"><ele>197.0</ele><time>2026-03-08T12:05:06.937Z</time></trkpt><trkpt lat="43.6244988" lon="12.6764879"><ele>197.0</ele><time>2026-03-08T12:05:07.938Z</time></trkpt><trkpt lat="43.6245746" lon="12.6765765"><ele>197.0</ele><time>2026-03-08T12:05:08.937Z</time></trkpt><trkpt lat="43.6246518" lon="12.6766697"><ele>197.0</ele><time>2026-03-08T12:05:09.938Z</time></trkpt><trkpt lat="43.6247379" lon="12.676774"><ele>197.0</ele><time>2026-03-08T12:05:10.94Z</time></trkpt><trkpt lat="43.6248137" lon="12.6768611"><ele>197.0</ele><time>2026-03-08T12:05:11.937Z</time></trkpt><trkpt lat="43.6248911" lon="12.676951"><ele>197.0</ele><time>2026-03-08T12:05:12.938Z</time></trkpt><trkpt lat="43.6249732" lon="12.6770439"><ele>197.0</ele><time>2026-03-08T12:05:13.938Z</time></trkpt><trkpt lat="43.6250628" lon="12.6771571"><ele>197.0</ele><time>2026-03-08T12:05:14.939Z</time></trkpt><trkpt lat="43.625145" lon="12.677255"><ele>197.0</ele><time>2026-03-08T12:05:15.939Z</time></trkpt><trkpt lat="43.6252279" lon="12.6773574"><ele>197.0</ele><time>2026-03-08T12:05:16.938Z</time></trkpt><trkpt lat="43.6253112" lon="12.6774631"><ele>197.25</ele><time>2026-03-08T12:05:17.937Z</time></trkpt><trkpt lat="43.6254009" lon="12.6775726"><ele>197.5</ele><time>2026-03-08T12:05:18.938Z</time></trkpt><trkpt lat="43.6254927" lon="12.6776858"><ele>197.75</ele><time>2026-03-08T12:05:19.939Z</time></trkpt><trkpt lat="43.6255779" lon="12.6777854"><ele>198.0</ele><time>2026-03-08T12:05:20.937Z</time></trkpt><trkpt lat="43.625668" lon="12.6778936"><ele>198.0</ele><time>2026-03-08T12:05:21.938Z</time></trkpt><trkpt lat="43.6257588" lon="12.6780048"><ele>198.0</ele><time>2026-03-08T12:05:22.938Z</time></trkpt><trkpt lat="43.6258518" lon="12.6781099"><ele>198.0</ele><time>2026-03-08T12:05:23.938Z</time></trkpt><trkpt lat="43.6259475" lon="12.6782213"><ele>198.0</ele><time>2026-03-08T12:05:24.938Z</time></trkpt><trkpt lat="43.6260407" lon="12.6783241"><ele>198.0</ele><time>2026-03-08T12:05:25.937Z</time></trkpt><trkpt lat="43.6261319" lon="12.6784237"><ele>198.0</ele><time>2026-03-08T12:05:26.939Z</time></trkpt><trkpt lat="43.6262085" lon="12.6785153"><ele>198.0</ele><time>2026-03-08T12:05:27.937Z</time></trkpt><trkpt lat="43.6262606" lon="12.6785864"><ele>198.0</ele><time>2026-03-08T12:05:28.938Z</time></trkpt><trkpt lat="43.6263127" lon="12.6786766"><ele>198.0</ele><time>2026-03-08T12:05:30.939Z</time></trkpt><trkpt lat="43.6263168" lon="12.6788235"><ele>198.16666666666666</ele><time>2026-03-08T12:05:32.937Z</time></trkpt><trkpt lat="43.626338" lon="12.6789137"><ele>198.33333333333331</ele><time>2026-03-08T12:05:33.939Z</time></trkpt><trkpt lat="43.6263799" lon="12.6790046"><ele>198.5</ele><time>2026-03-08T12:05:34.938Z</time></trkpt><trkpt lat="43.626438" lon="12.6790999"><ele>198.66666666666666</ele><time>2026-03-08T12:05:35.938Z</time></trkpt><trkpt lat="43.6264963" lon="12.6792009"><ele>198.83333333333331</ele><time>2026-03-08T12:05:36.938Z</time></trkpt><trkpt lat="43.6265619" lon="12.6793129"><ele>199.0</ele><time>2026-03-08T12:05:37.937Z</time></trkpt><trkpt lat="43.6266272" lon="12.6794284"><ele>198.75</ele><time>2026-03-08T12:05:38.937Z</time></trkpt><trkpt lat="43.6266991" lon="12.6795484"><ele>198.5</ele><time>2026-03-08T12:05:39.938Z</time></trkpt><trkpt lat="43.6267766" lon="12.6796606"><ele>198.25</ele><time>2026-03-08T12:05:40.937Z</time></trkpt><trkpt lat="43.6268757" lon="12.6797682"><ele>198.0</ele><time>2026-03-08T12:05:41.937Z</time></trkpt><trkpt lat="43.6269708" lon="12.6798719"><ele>197.75</ele><time>2026-03-08T12:05:42.938Z</time></trkpt><trkpt lat="43.6270766" lon="12.6799609"><ele>197.5</ele><time>2026-03-08T12:05:43.939Z</time></trkpt><trkpt lat="43.6271776" lon="12.6800422"><ele>197.25</ele><time>2026-03-08T12:05:44.94Z</time></trkpt><trkpt lat="43.627276" lon="12.6801199"><ele>197.0</ele><time>2026-03-08T12:05:45.938Z</time></trkpt><trkpt lat="43.6273764" lon="12.6801949"><ele>197.0</ele><time>2026-03-08T12:05:46.938Z</time></trkpt><trkpt lat="43.6274796" lon="12.6802752"><ele>197.0</ele><time>2026-03-08T12:05:47.937Z</time></trkpt><trkpt lat="43.6275814" lon="12.6803493"><ele>197.0</ele><time>2026-03-08T12:05:48.938Z</time></trkpt><trkpt lat="43.6276796" lon="12.6804281"><ele>197.0</ele><time>2026-03-08T12:05:49.938Z</time></trkpt><trkpt lat="43.6277904" lon="12.6805058"><ele>196.75</ele><time>2026-03-08T12:05:50.937Z</time></trkpt><trkpt lat="43.6278981" lon="12.6805877"><ele>196.5</ele><time>2026-03-08T12:05:51.938Z</time></trkpt><trkpt lat="43.6280163" lon="12.6806737"><ele>196.25</ele><time>2026-03-08T12:05:52.938Z</time></trkpt><trkpt lat="43.6281328" lon="12.6807604"><ele>196.0</ele><time>2026-03-08T12:05:53.939Z</time></trkpt><trkpt lat="43.6282468" lon="12.6808456"><ele>196.0</ele><time>2026-03-08T12:05:54.938Z</time></trkpt><trkpt lat="43.6283637" lon="12.6809408"><ele>196.0</ele><time>2026-03-08T12:05:55.937Z</time></trkpt><trkpt lat="43.6284824" lon="12.6810383"><ele>196.0</ele><time>2026-03-08T12:05:56.937Z</time></trkpt><trkpt lat="43.6286087" lon="12.6811338"><ele>196.0</ele><time>2026-03-08T12:05:57.938Z</time></trkpt><trkpt lat="43.6287287" lon="12.6812192"><ele>195.5</ele><time>2026-03-08T12:05:58.938Z</time></trkpt><trkpt lat="43.6288481" lon="12.6813088"><ele>195.0</ele><time>2026-03-08T12:05:59.937Z</time></trkpt><trkpt lat="43.628971" lon="12.6813917"><ele>194.5</ele><time>2026-03-08T12:06:00.938Z</time></trkpt><trkpt lat="43.6290973" lon="12.6814746"><ele>194.0</ele><time>2026-03-08T12:06:01.938Z</time></trkpt><trkpt lat="43.6292198" lon="12.6815681"><ele>194.0</ele><time>2026-03-08T12:06:02.939Z</time></trkpt><trkpt lat="43.6293389" lon="12.6816685"><ele>194.0</ele><time>2026-03-08T12:06:03.939Z</time></trkpt><trkpt lat="43.6294579" lon="12.6817597"><ele>194.0</ele><time>2026-03-08T12:06:04.937Z</time></trkpt><trkpt lat="43.6295753" lon="12.6818469"><ele>194.0</ele><time>2026-03-08T12:06:05.938Z</time></trkpt><trkpt lat="43.6296942" lon="12.6819319"><ele>194.5</ele><time>2026-03-08T12:06:06.938Z</time></trkpt><trkpt lat="43.62981" lon="12.6820223"><ele>195.0</ele><time>2026-03-08T12:06:07.94Z</time></trkpt><trkpt lat="43.6299277" lon="12.6821011"><ele>195.5</ele><time>2026-03-08T12:06:08.937Z</time></trkpt><trkpt lat="43.6300358" lon="12.6821804"><ele>196.0</ele><time>2026-03-08T12:06:09.938Z</time></trkpt><trkpt lat="43.6301453" lon="12.6822701"><ele>196.0</ele><time>2026-03-08T12:06:10.938Z</time></trkpt><trkpt lat="43.6302574" lon="12.6823588"><ele>196.0</ele><time>2026-03-08T12:06:11.938Z</time></trkpt><trkpt lat="43.6303687" lon="12.6824547"><ele>196.0</ele><time>2026-03-08T12:06:12.938Z</time></trkpt><trkpt lat="43.6304725" lon="12.682537"><ele>196.0</ele><time>2026-03-08T12:06:13.938Z</time></trkpt><trkpt lat="43.6305699" lon="12.6826175"><ele>196.0</ele><time>2026-03-08T12:06:14.937Z</time></trkpt><trkpt lat="43.6306577" lon="12.6826845"><ele>196.0</ele><time>2026-03-08T12:06:15.937Z</time></trkpt><trkpt lat="43.6307241" lon="12.6827356"><ele>196.0</ele><time>2026-03-08T12:06:16.938Z</time></trkpt><trkpt lat="43.6308179" lon="12.6827959"><ele>196.0</ele><time>2026-03-08T12:06:18.937Z</time></trkpt><trkpt lat="43.6309031" lon="12.6827733"><ele>196.0</ele><time>2026-03-08T12:06:20.937Z</time></trkpt><trkpt lat="43.630984" lon="12.6826497"><ele>196.20000000000002</ele><time>2026-03-08T12:06:22.938Z</time></trkpt><trkpt lat="43.6310867" lon="12.6825903"><ele>196.4</ele><time>2026-03-08T12:06:24.937Z</time></trkpt><trkpt lat="43.6311541" lon="12.6826138"><ele>196.6</ele><time>2026-03-08T12:06:25.938Z</time></trkpt><trkpt lat="43.6312172" lon="12.6826817"><ele>196.8</ele><time>2026-03-08T12:06:26.937Z</time></trkpt><trkpt lat="43.631299" lon="12.6827572"><ele>197.0</ele><time>2026-03-08T12:06:27.939Z</time></trkpt><trkpt lat="43.6313964" lon="12.6828488"><ele>197.0</ele><time>2026-03-08T12:06:28.938Z</time></trkpt><trkpt lat="43.6314997" lon="12.6829366"><ele>197.0</ele><time>2026-03-08T12:06:29.937Z</time></trkpt><trkpt lat="43.6316078" lon="12.6830386"><ele>197.0</ele><time>2026-03-08T12:06:30.938Z</time></trkpt><trkpt lat="43.6317165" lon="12.6831355"><ele>197.0</ele><time>2026-03-08T12:06:31.938Z</time></trkpt><trkpt lat="43.6318268" lon="12.683237"><ele>197.0</ele><time>2026-03-08T12:06:32.938Z</time></trkpt><trkpt lat="43.6319382" lon="12.6833406"><ele>197.0</ele><time>2026-03-08T12:06:33.938Z</time></trkpt><trkpt lat="43.6320538" lon="12.6834334"><ele>197.0</ele><time>2026-03-08T12:06:34.938Z</time></trkpt><trkpt lat="43.6321723" lon="12.6835031"><ele>197.0</ele><time>2026-03-08T12:06:35.937Z</time></trkpt><trkpt lat="43.632298" lon="12.6835568"><ele>197.0</ele><time>2026-03-08T12:06:36.938Z</time></trkpt><trkpt lat="43.6324336" lon="12.6835747"><ele>197.0</ele><time>2026-03-08T12:06:37.937Z</time></trkpt><trkpt lat="43.6325618" lon="12.6835931"><ele>197.0</ele><time>2026-03-08T12:06:38.937Z</time></trkpt><trkpt lat="43.632691" lon="12.6836245"><ele>197.0</ele><time>2026-03-08T12:06:39.938Z</time></trkpt><trkpt lat="43.6328208" lon="12.6836569"><ele>197.25</ele><time>2026-03-08T12:06:40.937Z</time></trkpt><trkpt lat="43.6329482" lon="12.6836943"><ele>197.5</ele><time>2026-03-08T12:06:41.937Z</time></trkpt><trkpt lat="43.6330741" lon="12.6837398"><ele>197.75</ele><time>2026-03-08T12:06:42.937Z</time></trkpt><trkpt lat="43.6332017" lon="12.6837775"><ele>198.0</ele><time>2026-03-08T12:06:43.939Z</time></trkpt><trkpt lat="43.6333259" lon="12.6838225"><ele>198.0</ele><time>2026-03-08T12:06:44.938Z</time></trkpt><trkpt lat="43.6334456" lon="12.6838679"><ele>198.0</ele><time>2026-03-08T12:06:45.938Z</time></trkpt><trkpt lat="43.6335587" lon="12.6839038"><ele>198.0</ele><time>2026-03-08T12:06:46.938Z</time></trkpt><trkpt lat="43.6336706" lon="12.6839508"><ele>198.0</ele><time>2026-03-08T12:06:47.938Z</time></trkpt><trkpt lat="43.633771" lon="12.6839994"><ele>198.0</ele><time>2026-03-08T12:06:48.937Z</time></trkpt><trkpt lat="43.6338603" lon="12.6840364"><ele>198.0</ele><time>2026-03-08T12:06:49.938Z</time></trkpt><trkpt lat="43.6339432" lon="12.6840757"><ele>198.0</ele><time>2026-03-08T12:06:50.938Z</time></trkpt><trkpt lat="43.6340448" lon="12.6841615"><ele>198.0</ele><time>2026-03-08T12:06:52.938Z</time></trkpt><trkpt lat="43.6340806" lon="12.6842903"><ele>198.0</ele><time>2026-03-08T12:06:54.937Z</time></trkpt><trkpt lat="43.6341013" lon="12.6843834"><ele>197.8</ele><time>2026-03-08T12:06:55.937Z</time></trkpt><trkpt lat="43.6341292" lon="12.6844972"><ele>197.60000000000002</ele><time>2026-03-08T12:06:56.938Z</time></trkpt><trkpt lat="43.6341561" lon="12.684619"><ele>197.39999999999998</ele><time>2026-03-08T12:06:57.938Z</time></trkpt><trkpt lat="43.6341919" lon="12.6847415"><ele>197.2</ele><time>2026-03-08T12:06:58.938Z</time></trkpt><trkpt lat="43.6342422" lon="12.6848652"><ele>197.0</ele><time>2026-03-08T12:06:59.937Z</time></trkpt><trkpt lat="43.6342928" lon="12.6849727"><ele>197.0</ele><time>2026-03-08T12:07:00.938Z</time></trkpt><trkpt lat="43.634334" lon="12.6850914"><ele>197.0</ele><time>2026-03-08T12:07:01.938Z</time></trkpt><trkpt lat="43.6343713" lon="12.685219"><ele>197.0</ele><time>2026-03-08T12:07:02.938Z</time></trkpt><trkpt lat="43.6344032" lon="12.6853487"><ele>197.0</ele><time>2026-03-08T12:07:03.939Z</time></trkpt><trkpt lat="43.6344196" lon="12.6854815"><ele>197.0</ele><time>2026-03-08T12:07:04.937Z</time></trkpt><trkpt lat="43.6344267" lon="12.6856054"><ele>196.50000000000003</ele><time>2026-03-08T12:07:05.937Z</time></trkpt><trkpt lat="43.6344346" lon="12.6857255"><ele>196.0</ele><time>2026-03-08T12:07:06.937Z</time></trkpt><trkpt lat="43.6344448" lon="12.6858183"><ele>195.5</ele><time>2026-03-08T12:07:07.937Z</time></trkpt><trkpt lat="43.6344603" lon="12.685908"><ele>195.0</ele><time>2026-03-08T12:07:08.939Z</time></trkpt><trkpt lat="43.6345299" lon="12.6859338"><ele>194.50000000000003</ele><time>2026-03-08T12:07:10.938Z</time></trkpt><trkpt lat="43.6346271" lon="12.6858678"><ele>194.0</ele><time>2026-03-08T12:07:12.939Z</time></trkpt><trkpt lat="43.6347024" lon="12.6858365"><ele>194.00000000000003</ele><time>2026-03-08T12:07:13.938Z</time></trkpt><trkpt lat="43.6347825" lon="12.6858309"><ele>194.0</ele><time>2026-03-08T12:07:14.938Z</time></trkpt><trkpt lat="43.6348744" lon="12.6858596"><ele>194.0</ele><time>2026-03-08T12:07:15.938Z</time></trkpt><trkpt lat="43.6349515" lon="12.6859128"><ele>194.0</ele><time>2026-03-08T12:07:16.938Z</time></trkpt><trkpt lat="43.6350156" lon="12.6859786"><ele>194.00000000000003</ele><time>2026-03-08T12:07:17.938Z</time></trkpt><trkpt lat="43.6350789" lon="12.6860776"><ele>194.0</ele><time>2026-03-08T12:07:18.938Z</time></trkpt><trkpt lat="43.6351435" lon="12.6861777"><ele>194.2</ele><time>2026-03-08T12:07:19.937Z</time></trkpt><trkpt lat="43.6352137" lon="12.686282"><ele>194.39999999999998</ele><time>2026-03-08T12:07:20.937Z</time></trkpt><trkpt lat="43.6352825" lon="12.6863803"><ele>194.6</ele><time>2026-03-08T12:07:21.937Z</time></trkpt><trkpt lat="43.6353627" lon="12.6864878"><ele>194.8</ele><time>2026-03-08T12:07:22.939Z</time></trkpt><trkpt lat="43.6354479" lon="12.6865931"><ele>195.0</ele><time>2026-03-08T12:07:23.937Z</time></trkpt><trkpt lat="43.6355429" lon="12.6866975"><ele>195.0</ele><time>2026-03-08T12:07:24.939Z</time></trkpt><trkpt lat="43.6356422" lon="12.6868024"><ele>195.0</ele><time>2026-03-08T12:07:25.938Z</time></trkpt><trkpt lat="43.6357386" lon="12.6869124"><ele>195.0</ele><time>2026-03-08T12:07:26.938Z</time></trkpt><trkpt lat="43.6358389" lon="12.6870213"><ele>195.0</ele><time>2026-03-08T12:07:27.939Z</time></trkpt><trkpt lat="43.6359351" lon="12.6871317"><ele>194.6</ele><time>2026-03-08T12:07:28.938Z</time></trkpt><trkpt lat="43.6360298" lon="12.6872344"><ele>194.2</ele><time>2026-03-08T12:07:29.938Z</time></trkpt><trkpt lat="43.6361184" lon="12.6873408"><ele>193.8</ele><time>2026-03-08T12:07:30.937Z</time></trkpt><trkpt lat="43.6362052" lon="12.6874303"><ele>193.4</ele><time>2026-03-08T12:07:31.938Z</time></trkpt><trkpt lat="43.6362888" lon="12.6875026"><ele>193.0</ele><time>2026-03-08T12:07:32.937Z</time></trkpt><trkpt lat="43.63637" lon="12.6875657"><ele>193.66666666666666</ele><time>2026-03-08T12:07:33.938Z</time></trkpt><trkpt lat="43.6364386" lon="12.6876273"><ele>194.33333333333331</ele><time>2026-03-08T12:07:34.938Z</time></trkpt><trkpt lat="43.6365032" lon="12.6876888"><ele>195.0</ele><time>2026-03-08T12:07:35.938Z</time></trkpt><trkpt lat="43.6365551" lon="12.6877696"><ele>195.66666666666669</ele><time>2026-03-08T12:07:36.938Z</time></trkpt><trkpt lat="43.6366091" lon="12.6878503"><ele>196.33333333333334</ele><time>2026-03-08T12:07:37.938Z</time></trkpt><trkpt lat="43.6366615" lon="12.6879275"><ele>197.0</ele><time>2026-03-08T12:07:38.937Z</time></trkpt><trkpt lat="43.6367303" lon="12.6880423"><ele>197.0</ele><time>2026-03-08T12:07:40.937Z</time></trkpt><trkpt lat="43.6368057" lon="12.6881595"><ele>197.0</ele><time>2026-03-08T12:07:42.938Z</time></trkpt><trkpt lat="43.6368326" lon="12.6882583"><ele>197.0</ele><time>2026-03-08T12:07:44.937Z</time></trkpt><trkpt lat="43.6368292" lon="12.6881541"><ele>197.0</ele><time>2026-03-08T12:07:49.937Z</time></trkpt><trkpt lat="43.6367336" lon="12.6880378"><ele>197.0</ele><time>2026-03-08T12:07:51.937Z</time></trkpt><trkpt lat="43.6366845" lon="12.687967"><ele>197.00000000000003</ele><time>2026-03-08T12:07:52.938Z</time></trkpt><trkpt lat="43.6366282" lon="12.687883"><ele>197.0</ele><time>2026-03-08T12:07:53.937Z</time></trkpt><trkpt lat="43.636579" lon="12.6878004"><ele>197.0</ele><time>2026-03-08T12:07:54.938Z</time></trkpt><trkpt lat="43.6365366" lon="12.6877232"><ele>197.0</ele><time>2026-03-08T12:07:55.938Z</time></trkpt><trkpt lat="43.6364932" lon="12.687654"><ele>197.00000000000003</ele><time>2026-03-08T12:07:56.938Z</time></trkpt><trkpt lat="43.6364389" lon="12.6875627"><ele>197.0</ele><time>2026-03-08T12:07:58.937Z</time></trkpt><trkpt lat="43.6364548" lon="12.6874569"><ele>197.50000000000003</ele><time>2026-03-08T12:08:01.938Z</time></trkpt><trkpt lat="43.6365253" lon="12.6873348"><ele>198.0</ele><time>2026-03-08T12:08:30.938Z</time></trkpt><trkpt lat="43.6365555" lon="12.6872515"><ele>198.5</ele><time>2026-03-08T12:08:31.938Z</time></trkpt><trkpt lat="43.6365911" lon="12.6871722"><ele>199.0</ele><time>2026-03-08T12:08:32.937Z</time></trkpt><trkpt lat="43.6366613" lon="12.6870699"><ele>199.50000000000003</ele><time>2026-03-08T12:08:34.937Z</time></trkpt><trkpt lat="43.6365946" lon="12.6871604"><ele>200.0</ele><time>2026-03-08T12:08:40.937Z</time></trkpt><trkpt lat="43.6365606" lon="12.6872359"><ele>200.00000000000003</ele><time>2026-03-08T12:08:41.939Z</time></trkpt><trkpt lat="43.6364984" lon="12.6873771"><ele>200.0</ele><time>2026-03-08T12:08:43.937Z</time></trkpt><trkpt lat="43.6364445" lon="12.6874761"><ele>200.0</ele><time>2026-03-08T12:08:45.939Z</time></trkpt><trkpt lat="43.6363894" lon="12.6875184"><ele>200.0</ele><time>2026-03-08T12:08:47.938Z</time></trkpt><trkpt lat="43.636353" lon="12.687592"><ele>200.00000000000003</ele><time>2026-03-08T12:08:50.937Z</time></trkpt><trkpt lat="43.6363884" lon="12.6876757"><ele>200.0</ele><time>2026-03-08T12:08:52.937Z</time></trkpt><trkpt lat="43.6364724" lon="12.6878176"><ele>199.50000000000003</ele><time>2026-03-08T12:08:54.937Z</time></trkpt><trkpt lat="43.6365214" lon="12.6878936"><ele>199.0</ele><time>2026-03-08T12:08:55.939Z</time></trkpt><trkpt lat="43.6365729" lon="12.6879887"><ele>198.5</ele><time>2026-03-08T12:08:56.939Z</time></trkpt><trkpt lat="43.636629" lon="12.6880775"><ele>198.0</ele><time>2026-03-08T12:08:57.937Z</time></trkpt><trkpt lat="43.6366704" lon="12.6881564"><ele>197.50000000000003</ele><time>2026-03-08T12:08:58.938Z</time></trkpt><trkpt lat="43.6367577" lon="12.6882748"><ele>197.0</ele><time>2026-03-08T12:08:59.939Z</time></trkpt><trkpt lat="43.636819" lon="12.6883893"><ele>197.00000000000003</ele><time>2026-03-08T12:09:00.938Z</time></trkpt><trkpt lat="43.6368793" lon="12.6884927"><ele>197.0</ele><time>2026-03-08T12:09:01.938Z</time></trkpt><trkpt lat="43.6369467" lon="12.6885834"><ele>197.0</ele><time>2026-03-08T12:09:02.938Z</time></trkpt><trkpt lat="43.6369909" lon="12.688677"><ele>197.0</ele><time>2026-03-08T12:09:03.938Z</time></trkpt><trkpt lat="43.6370456" lon="12.6887422"><ele>197.00000000000003</ele><time>2026-03-08T12:09:04.937Z</time></trkpt><trkpt lat="43.6370893" lon="12.6888119"><ele>197.0</ele><time>2026-03-08T12:09:05.938Z</time></trkpt><trkpt lat="43.6371384" lon="12.6888872"><ele>196.33333333333334</ele><time>2026-03-08T12:09:06.938Z</time></trkpt><trkpt lat="43.6371945" lon="12.6889536"><ele>195.66666666666669</ele><time>2026-03-08T12:09:07.938Z</time></trkpt><trkpt lat="43.6372471" lon="12.6890145"><ele>195.0</ele><time>2026-03-08T12:09:08.938Z</time></trkpt><trkpt lat="43.6372987" lon="12.6890789"><ele>194.33333333333331</ele><time>2026-03-08T12:09:09.938Z</time></trkpt><trkpt lat="43.6373453" lon="12.6891651"><ele>193.66666666666666</ele><time>2026-03-08T12:09:11.937Z</time></trkpt><trkpt lat="43.6373252" lon="12.6892978"><ele>193.0</ele><time>2026-03-08T12:09:15.937Z</time></trkpt><trkpt lat="43.6373049" lon="12.6893863"><ele>192.99999999999997</ele><time>2026-03-08T12:09:16.937Z</time></trkpt><trkpt lat="43.6372873" lon="12.6894768"><ele>193.0</ele><time>2026-03-08T12:09:17.938Z</time></trkpt><trkpt lat="43.6373093" lon="12.6895661"><ele>193.0</ele><time>2026-03-08T12:09:18.938Z</time></trkpt><trkpt lat="43.6373462" lon="12.6896839"><ele>193.0</ele><time>2026-03-08T12:09:20.937Z</time></trkpt><trkpt lat="43.6374326" lon="12.6897495"><ele>192.99999999999997</ele><time>2026-03-08T12:09:22.938Z</time></trkpt><trkpt lat="43.6375204" lon="12.689765"><ele>193.0</ele><time>2026-03-08T12:09:24.939Z</time></trkpt><trkpt lat="43.6375902" lon="12.6898129"><ele>193.0</ele><time>2026-03-08T12:09:26.938Z</time></trkpt><trkpt lat="43.6376519" lon="12.6898391"><ele>193.0</ele><time>2026-03-08T12:09:28.938Z</time></trkpt><trkpt lat="43.6377281" lon="12.6899445"><ele>193.0</ele><time>2026-03-08T12:09:31.938Z</time></trkpt><trkpt lat="43.6378217" lon="12.6900762"><ele>193.0</ele><time>2026-03-08T12:09:33.937Z</time></trkpt><trkpt lat="43.6378807" lon="12.6901659"><ele>193.0</ele><time>2026-03-08T12:09:34.937Z</time></trkpt><trkpt lat="43.6379479" lon="12.6902611"><ele>194.2</ele><time>2026-03-08T12:09:35.937Z</time></trkpt><trkpt lat="43.6380206" lon="12.6903554"><ele>195.4</ele><time>2026-03-08T12:09:36.939Z</time></trkpt><trkpt lat="43.6380941" lon="12.6904599"><ele>196.6</ele><time>2026-03-08T12:09:37.938Z</time></trkpt><trkpt lat="43.638177" lon="12.6905381"><ele>197.79999999999998</ele><time>2026-03-08T12:09:38.938Z</time></trkpt><trkpt lat="43.6382724" lon="12.6905868"><ele>199.0</ele><time>2026-03-08T12:09:39.937Z</time></trkpt><trkpt lat="43.638373" lon="12.6906031"><ele>199.0</ele><time>2026-03-08T12:09:40.939Z</time></trkpt><trkpt lat="43.6384797" lon="12.6906094"><ele>199.0</ele><time>2026-03-08T12:09:41.937Z</time></trkpt><trkpt lat="43.6385868" lon="12.6906292"><ele>199.0</ele><time>2026-03-08T12:09:42.937Z</time></trkpt><trkpt lat="43.6386961" lon="12.69065"><ele>199.0</ele><time>2026-03-08T12:09:43.937Z</time></trkpt><trkpt lat="43.6388143" lon="12.6906899"><ele>199.0</ele><time>2026-03-08T12:09:44.938Z</time></trkpt><trkpt lat="43.6389291" lon="12.6907158"><ele>200.5</ele><time>2026-03-08T12:09:45.937Z</time></trkpt><trkpt lat="43.6390438" lon="12.6907625"><ele>202.0</ele><time>2026-03-08T12:09:46.938Z</time></trkpt><trkpt lat="43.6391514" lon="12.6908252"><ele>203.5</ele><time>2026-03-08T12:09:47.939Z</time></trkpt><trkpt lat="43.6392571" lon="12.6908979"><ele>205.0</ele><time>2026-03-08T12:09:48.937Z</time></trkpt><trkpt lat="43.639365" lon="12.6909635"><ele>205.0</ele><time>2026-03-08T12:09:49.939Z</time></trkpt><trkpt lat="43.6394612" lon="12.6910514"><ele>205.0</ele><time>2026-03-08T12:09:50.937Z</time></trkpt><trkpt lat="43.6395493" lon="12.6911397"><ele>205.0</ele><time>2026-03-08T12:09:51.937Z</time></trkpt><trkpt lat="43.6396316" lon="12.6912412"><ele>205.0</ele><time>2026-03-08T12:09:52.938Z</time></trkpt><trkpt lat="43.6397085" lon="12.6913423"><ele>205.0</ele><time>2026-03-08T12:09:53.938Z</time></trkpt><trkpt lat="43.6397816" lon="12.6914334"><ele>205.99999999999997</ele><time>2026-03-08T12:09:54.937Z</time></trkpt><trkpt lat="43.6398495" lon="12.691526"><ele>207.0</ele><time>2026-03-08T12:09:55.938Z</time></trkpt><trkpt lat="43.6399228" lon="12.6915964"><ele>208.0</ele><time>2026-03-08T12:09:56.938Z</time></trkpt><trkpt lat="43.6399838" lon="12.6916596"><ele>209.0</ele><time>2026-03-08T12:09:57.937Z</time></trkpt><trkpt lat="43.6400437" lon="12.6917254"><ele>209.99999999999997</ele><time>2026-03-08T12:09:58.937Z</time></trkpt><trkpt lat="43.6400963" lon="12.6917806"><ele>211.0</ele><time>2026-03-08T12:09:59.937Z</time></trkpt><trkpt lat="43.6401728" lon="12.6918712"><ele>211.0</ele><time>2026-03-08T12:10:01.939Z</time></trkpt><trkpt lat="43.6402361" lon="12.6919714"><ele>211.0</ele><time>2026-03-08T12:10:03.937Z</time></trkpt><trkpt lat="43.6403151" lon="12.6920717"><ele>211.0</ele><time>2026-03-08T12:10:05.937Z</time></trkpt><trkpt lat="43.6403964" lon="12.6921992"><ele>211.0</ele><time>2026-03-08T12:10:07.937Z</time></trkpt><trkpt lat="43.640468" lon="12.6923319"><ele>211.0</ele><time>2026-03-08T12:10:09.937Z</time></trkpt><trkpt lat="43.6405389" lon="12.6924288"><ele>213.0</ele><time>2026-03-08T12:10:11.938Z</time></trkpt><trkpt lat="43.6406749" lon="12.6924318"><ele>215.0</ele><time>2026-03-08T12:10:13.938Z</time></trkpt><trkpt lat="43.6407438" lon="12.69243"><ele>217.00000000000003</ele><time>2026-03-08T12:10:14.938Z</time></trkpt><trkpt lat="43.6408322" lon="12.6924378"><ele>219.0</ele><time>2026-03-08T12:10:15.938Z</time></trkpt><trkpt lat="43.6409161" lon="12.692441"><ele>221.0</ele><time>2026-03-08T12:10:16.937Z</time></trkpt><trkpt lat="43.6410117" lon="12.6924308"><ele>221.0</ele><time>2026-03-08T12:10:17.939Z</time></trkpt><trkpt lat="43.641105" lon="12.69243"><ele>221.00000000000003</ele><time>2026-03-08T12:10:18.937Z</time></trkpt><trkpt lat="43.6412115" lon="12.6924382"><ele>221.00000000000003</ele><time>2026-03-08T12:10:19.938Z</time></trkpt><trkpt lat="43.6413032" lon="12.6924416"><ele>221.0</ele><time>2026-03-08T12:10:20.938Z</time></trkpt><trkpt lat="43.6413899" lon="12.6924463"><ele>221.0</ele><time>2026-03-08T12:10:21.937Z</time></trkpt><trkpt lat="43.6414728" lon="12.6924461"><ele>222.66666666666669</ele><time>2026-03-08T12:10:22.938Z</time></trkpt><trkpt lat="43.6415538" lon="12.692452"><ele>224.33333333333334</ele><time>2026-03-08T12:10:23.938Z</time></trkpt><trkpt lat="43.6416342" lon="12.6924549"><ele>226.0</ele><time>2026-03-08T12:10:24.937Z</time></trkpt><trkpt lat="43.6417158" lon="12.6924582"><ele>227.66666666666669</ele><time>2026-03-08T12:10:25.938Z</time></trkpt><trkpt lat="43.6418029" lon="12.692451"><ele>229.33333333333334</ele><time>2026-03-08T12:10:26.938Z</time></trkpt><trkpt lat="43.6418925" lon="12.6924474"><ele>231.0</ele><time>2026-03-08T12:10:27.939Z</time></trkpt><trkpt lat="43.6419786" lon="12.6924472"><ele>232.33333333333334</ele><time>2026-03-08T12:10:28.937Z</time></trkpt><trkpt lat="43.6420646" lon="12.6924369"><ele>233.66666666666669</ele><time>2026-03-08T12:10:29.937Z</time></trkpt><trkpt lat="43.6421478" lon="12.6924292"><ele>235.0</ele><time>2026-03-08T12:10:30.937Z</time></trkpt><trkpt lat="43.6422313" lon="12.6924122"><ele>236.33333333333334</ele><time>2026-03-08T12:10:31.939Z</time></trkpt><trkpt lat="43.6423154" lon="12.6923855"><ele>237.66666666666669</ele><time>2026-03-08T12:10:32.938Z</time></trkpt><trkpt lat="43.6423982" lon="12.6923364"><ele>239.0</ele><time>2026-03-08T12:10:33.938Z</time></trkpt><trkpt lat="43.6424856" lon="12.6922861"><ele>239.0</ele><time>2026-03-08T12:10:34.938Z</time></trkpt><trkpt lat="43.6425662" lon="12.6922277"><ele>238.99999999999997</ele><time>2026-03-08T12:10:35.938Z</time></trkpt><trkpt lat="43.642653" lon="12.6921727"><ele>238.99999999999997</ele><time>2026-03-08T12:10:36.938Z</time></trkpt><trkpt lat="43.6427453" lon="12.6921219"><ele>239.0</ele><time>2026-03-08T12:10:37.938Z</time></trkpt><trkpt lat="43.6428446" lon="12.6920795"><ele>239.0</ele><time>2026-03-08T12:10:38.938Z</time></trkpt><trkpt lat="43.6429357" lon="12.6920368"><ele>240.83333333333334</ele><time>2026-03-08T12:10:39.937Z</time></trkpt><trkpt lat="43.6430274" lon="12.6919971"><ele>242.66666666666669</ele><time>2026-03-08T12:10:40.938Z</time></trkpt><trkpt lat="43.6431193" lon="12.691971"><ele>244.5</ele><time>2026-03-08T12:10:41.938Z</time></trkpt><trkpt lat="43.6432069" lon="12.6919501"><ele>246.33333333333331</ele><time>2026-03-08T12:10:42.938Z</time></trkpt><trkpt lat="43.6432776" lon="12.6919689"><ele>248.16666666666666</ele><time>2026-03-08T12:10:43.937Z</time></trkpt><trkpt lat="43.6433421" lon="12.6919966"><ele>250.0</ele><time>2026-03-08T12:10:44.938Z</time></trkpt><trkpt lat="43.64342" lon="12.6920794"><ele>249.99999999999997</ele><time>2026-03-08T12:10:46.937Z</time></trkpt><trkpt lat="43.6434914" lon="12.692111"><ele>250.0</ele><time>2026-03-08T12:10:48.938Z</time></trkpt><trkpt lat="43.6434448" lon="12.692033"><ele>250.0</ele><time>2026-03-08T12:10:53.937Z</time></trkpt><trkpt lat="43.643382" lon="12.6919787"><ele>250.0</ele><time>2026-03-08T12:10:54.938Z</time></trkpt><trkpt lat="43.6433065" lon="12.6919445"><ele>249.99999999999997</ele><time>2026-03-08T12:10:55.938Z</time></trkpt><trkpt lat="43.6431897" lon="12.6919447"><ele>250.0</ele><time>2026-03-08T12:10:57.938Z</time></trkpt><trkpt lat="43.6431004" lon="12.691965"><ele>250.0</ele><time>2026-03-08T12:10:58.938Z</time></trkpt><trkpt lat="43.6430225" lon="12.691995"><ele>250.0</ele><time>2026-03-08T12:10:59.938Z</time></trkpt><trkpt lat="43.6429364" lon="12.6920337"><ele>250.0</ele><time>2026-03-08T12:11:00.937Z</time></trkpt><trkpt lat="43.6428482" lon="12.6920715"><ele>250.0</ele><time>2026-03-08T12:11:01.937Z</time></trkpt><trkpt lat="43.6427503" lon="12.6920984"><ele>250.0</ele><time>2026-03-08T12:11:02.938Z</time></trkpt><trkpt lat="43.6426625" lon="12.6921463"><ele>248.16666666666666</ele><time>2026-03-08T12:11:03.937Z</time></trkpt><trkpt lat="43.642593" lon="12.6921972"><ele>246.33333333333331</ele><time>2026-03-08T12:11:04.938Z</time></trkpt><trkpt lat="43.6425168" lon="12.6922484"><ele>244.5</ele><time>2026-03-08T12:11:05.937Z</time></trkpt><trkpt lat="43.6424334" lon="12.6923019"><ele>242.66666666666669</ele><time>2026-03-08T12:11:06.937Z</time></trkpt><trkpt lat="43.6423522" lon="12.6923496"><ele>240.83333333333334</ele><time>2026-03-08T12:11:07.937Z</time></trkpt><trkpt lat="43.642268" lon="12.6923846"><ele>239.0</ele><time>2026-03-08T12:11:08.938Z</time></trkpt><trkpt lat="43.6421797" lon="12.6924179"><ele>239.0</ele><time>2026-03-08T12:11:09.937Z</time></trkpt><trkpt lat="43.6420881" lon="12.6924331"><ele>238.99999999999997</ele><time>2026-03-08T12:11:10.937Z</time></trkpt><trkpt lat="43.641986" lon="12.6924383"><ele>238.99999999999997</ele><time>2026-03-08T12:11:11.938Z</time></trkpt><trkpt lat="43.6418946" lon="12.6924362"><ele>239.0</ele><time>2026-03-08T12:11:12.937Z</time></trkpt><trkpt lat="43.6417953" lon="12.6924326"><ele>239.0</ele><time>2026-03-08T12:11:13.937Z</time></trkpt><trkpt lat="43.6416987" lon="12.6924271"><ele>237.39999999999998</ele><time>2026-03-08T12:11:14.938Z</time></trkpt><trkpt lat="43.6416084" lon="12.6924304"><ele>235.79999999999998</ele><time>2026-03-08T12:11:15.937Z</time></trkpt><trkpt lat="43.6415112" lon="12.6924269"><ele>234.20000000000002</ele><time>2026-03-08T12:11:16.937Z</time></trkpt><trkpt lat="43.6414109" lon="12.6924165"><ele>232.60000000000002</ele><time>2026-03-08T12:11:17.937Z</time></trkpt><trkpt lat="43.6413114" lon="12.6924191"><ele>231.0</ele><time>2026-03-08T12:11:18.938Z</time></trkpt><trkpt lat="43.6412183" lon="12.6924214"><ele>229.0</ele><time>2026-03-08T12:11:19.938Z</time></trkpt><trkpt lat="43.6411204" lon="12.6924238"><ele>227.00000000000003</ele><time>2026-03-08T12:11:20.938Z</time></trkpt><trkpt lat="43.6410285" lon="12.6924228"><ele>225.00000000000003</ele><time>2026-03-08T12:11:21.938Z</time></trkpt><trkpt lat="43.6409353" lon="12.6924238"><ele>223.0</ele><time>2026-03-08T12:11:22.937Z</time></trkpt><trkpt lat="43.640845" lon="12.692427"><ele>221.0</ele><time>2026-03-08T12:11:23.938Z</time></trkpt><trkpt lat="43.6407639" lon="12.6924204"><ele>221.00000000000003</ele><time>2026-03-08T12:11:24.938Z</time></trkpt><trkpt lat="43.6406847" lon="12.6924166"><ele>221.0</ele><time>2026-03-08T12:11:25.938Z</time></trkpt><trkpt lat="43.6406089" lon="12.6924246"><ele>221.0</ele><time>2026-03-08T12:11:26.938Z</time></trkpt><trkpt lat="43.6405403" lon="12.6924712"><ele>221.0</ele><time>2026-03-08T12:11:27.938Z</time></trkpt><trkpt lat="43.6404692" lon="12.6925417"><ele>221.00000000000003</ele><time>2026-03-08T12:11:28.937Z</time></trkpt><trkpt lat="43.6404042" lon="12.6926441"><ele>221.0</ele><time>2026-03-08T12:11:29.938Z</time></trkpt><trkpt lat="43.6403417" lon="12.6927608"><ele>219.0</ele><time>2026-03-08T12:11:30.937Z</time></trkpt><trkpt lat="43.6402713" lon="12.6928926"><ele>217.0</ele><time>2026-03-08T12:11:31.937Z</time></trkpt><trkpt lat="43.6402013" lon="12.6930161"><ele>215.0</ele><time>2026-03-08T12:11:32.938Z</time></trkpt><trkpt lat="43.6401315" lon="12.6931441"><ele>213.0</ele><time>2026-03-08T12:11:33.938Z</time></trkpt><trkpt lat="43.6400564" lon="12.6932734"><ele>213.0</ele><time>2026-03-08T12:11:34.938Z</time></trkpt><trkpt lat="43.639976" lon="12.6934048"><ele>213.0</ele><time>2026-03-08T12:11:35.937Z</time></trkpt><trkpt lat="43.639912" lon="12.693538"><ele>213.0</ele><time>2026-03-08T12:11:36.937Z</time></trkpt><trkpt lat="43.6398462" lon="12.6936489"><ele>213.0</ele><time>2026-03-08T12:11:37.938Z</time></trkpt><trkpt lat="43.6397826" lon="12.6937545"><ele>213.0</ele><time>2026-03-08T12:11:38.937Z</time></trkpt><trkpt lat="43.6397104" lon="12.6938742"><ele>212.4</ele><time>2026-03-08T12:11:39.937Z</time></trkpt><trkpt lat="43.6396471" lon="12.6939847"><ele>211.8</ele><time>2026-03-08T12:11:40.937Z</time></trkpt><trkpt lat="43.6395911" lon="12.6940909"><ele>211.2</ele><time>2026-03-08T12:11:41.938Z</time></trkpt><trkpt lat="43.6395323" lon="12.6942021"><ele>210.6</ele><time>2026-03-08T12:11:42.937Z</time></trkpt><trkpt lat="43.639467" lon="12.6943082"><ele>210.0</ele><time>2026-03-08T12:11:43.938Z</time></trkpt><trkpt lat="43.6393989" lon="12.6944232"><ele>207.75</ele><time>2026-03-08T12:11:44.937Z</time></trkpt><trkpt lat="43.6393274" lon="12.6945437"><ele>205.5</ele><time>2026-03-08T12:11:45.937Z</time></trkpt><trkpt lat="43.6392512" lon="12.6946677"><ele>203.25</ele><time>2026-03-08T12:11:46.937Z</time></trkpt><trkpt lat="43.6391681" lon="12.6947868"><ele>201.0</ele><time>2026-03-08T12:11:47.938Z</time></trkpt><trkpt lat="43.6390853" lon="12.6949102"><ele>201.0</ele><time>2026-03-08T12:11:48.937Z</time></trkpt><trkpt lat="43.6390008" lon="12.6950394"><ele>201.0</ele><time>2026-03-08T12:11:49.937Z</time></trkpt><trkpt lat="43.6389108" lon="12.695166"><ele>201.0</ele><time>2026-03-08T12:11:50.937Z</time></trkpt><trkpt lat="43.6388146" lon="12.6952937"><ele>201.0</ele><time>2026-03-08T12:11:51.938Z</time></trkpt><trkpt lat="43.6387152" lon="12.6954189"><ele>199.5</ele><time>2026-03-08T12:11:52.937Z</time></trkpt><trkpt lat="43.638628" lon="12.6955343"><ele>198.0</ele><time>2026-03-08T12:11:53.937Z</time></trkpt><trkpt lat="43.6385357" lon="12.6956548"><ele>196.5</ele><time>2026-03-08T12:11:54.938Z</time></trkpt><trkpt lat="43.6384443" lon="12.6957775"><ele>195.0</ele><time>2026-03-08T12:11:55.939Z</time></trkpt><trkpt lat="43.6383399" lon="12.6959285"><ele>195.0</ele><time>2026-03-08T12:11:57.938Z</time></trkpt><trkpt lat="43.6382662" lon="12.6960295"><ele>195.0</ele><time>2026-03-08T12:11:58.938Z</time></trkpt><trkpt lat="43.6381934" lon="12.6961467"><ele>195.0</ele><time>2026-03-08T12:11:59.938Z</time></trkpt><trkpt lat="43.6381402" lon="12.6962396"><ele>195.0</ele><time>2026-03-08T12:12:00.939Z</time></trkpt><trkpt lat="43.6381036" lon="12.6963537"><ele>195.0</ele><time>2026-03-08T12:12:01.938Z</time></trkpt><trkpt lat="43.6380684" lon="12.6964683"><ele>195.0</ele><time>2026-03-08T12:12:02.938Z</time></trkpt><trkpt lat="43.6380377" lon="12.6965895"><ele>195.0</ele><time>2026-03-08T12:12:03.939Z</time></trkpt><trkpt lat="43.6380066" lon="12.6967128"><ele>195.0</ele><time>2026-03-08T12:12:04.938Z</time></trkpt><trkpt lat="43.6379782" lon="12.696854"><ele>195.0</ele><time>2026-03-08T12:12:05.938Z</time></trkpt><trkpt lat="43.6379613" lon="12.6969882"><ele>195.0</ele><time>2026-03-08T12:12:06.938Z</time></trkpt><trkpt lat="43.6379343" lon="12.6971256"><ele>195.0</ele><time>2026-03-08T12:12:07.937Z</time></trkpt><trkpt lat="43.6379095" lon="12.6972488"><ele>195.0</ele><time>2026-03-08T12:12:08.938Z</time></trkpt><trkpt lat="43.637878" lon="12.6973718"><ele>195.0</ele><time>2026-03-08T12:12:09.937Z</time></trkpt><trkpt lat="43.6378315" lon="12.6974823"><ele>195.0</ele><time>2026-03-08T12:12:10.937Z</time></trkpt><trkpt lat="43.6377742" lon="12.6975998"><ele>195.0</ele><time>2026-03-08T12:12:11.937Z</time></trkpt><trkpt lat="43.6377133" lon="12.6977042"><ele>194.0</ele><time>2026-03-08T12:12:12.938Z</time></trkpt><trkpt lat="43.637651" lon="12.6978131"><ele>193.0</ele><time>2026-03-08T12:12:13.939Z</time></trkpt><trkpt lat="43.6375853" lon="12.6979253"><ele>192.0</ele><time>2026-03-08T12:12:14.937Z</time></trkpt><trkpt lat="43.6375256" lon="12.6980507"><ele>191.0</ele><time>2026-03-08T12:12:15.937Z</time></trkpt><trkpt lat="43.6374705" lon="12.6981721"><ele>190.0</ele><time>2026-03-08T12:12:16.939Z</time></trkpt><trkpt lat="43.6374149" lon="12.6982912"><ele>190.0</ele><time>2026-03-08T12:12:17.937Z</time></trkpt><trkpt lat="43.6373622" lon="12.6984168"><ele>190.0</ele><time>2026-03-08T12:12:18.938Z</time></trkpt><trkpt lat="43.6373114" lon="12.6985353"><ele>190.0</ele><time>2026-03-08T12:12:19.937Z</time></trkpt><trkpt lat="43.6372611" lon="12.6986619"><ele>190.0</ele><time>2026-03-08T12:12:20.937Z</time></trkpt><trkpt lat="43.6372137" lon="12.6987847"><ele>190.0</ele><time>2026-03-08T12:12:21.938Z</time></trkpt><trkpt lat="43.6371692" lon="12.6989034"><ele>189.33333333333334</ele><time>2026-03-08T12:12:22.937Z</time></trkpt><trkpt lat="43.6371271" lon="12.6990173"><ele>188.66666666666669</ele><time>2026-03-08T12:12:23.937Z</time></trkpt><trkpt lat="43.6370907" lon="12.6991188"><ele>188.0</ele><time>2026-03-08T12:12:24.939Z</time></trkpt><trkpt lat="43.637049" lon="12.6991995"><ele>187.33333333333334</ele><time>2026-03-08T12:12:25.937Z</time></trkpt><trkpt lat="43.6370011" lon="12.6992838"><ele>186.66666666666666</ele><time>2026-03-08T12:12:26.937Z</time></trkpt><trkpt lat="43.6369706" lon="12.6993608"><ele>186.0</ele><time>2026-03-08T12:12:28.939Z</time></trkpt><trkpt lat="43.6369894" lon="12.6994541"><ele>185.0</ele><time>2026-03-08T12:12:30.937Z</time></trkpt><trkpt lat="43.637046" lon="12.699589"><ele>184.0</ele><time>2026-03-08T12:12:32.937Z</time></trkpt><trkpt lat="43.6370824" lon="12.6996643"><ele>183.0</ele><time>2026-03-08T12:12:33.937Z</time></trkpt><trkpt lat="43.6371271" lon="12.6997343"><ele>182.0</ele><time>2026-03-08T12:12:34.938Z</time></trkpt><trkpt lat="43.6371681" lon="12.6998137"><ele>181.0</ele><time>2026-03-08T12:12:35.938Z</time></trkpt><trkpt lat="43.6372072" lon="12.6998909"><ele>180.0</ele><time>2026-03-08T12:12:36.938Z</time></trkpt><trkpt lat="43.6372774" lon="12.7000336"><ele>180.0</ele><time>2026-03-08T12:12:38.937Z</time></trkpt><trkpt lat="43.6373155" lon="12.7001046"><ele>180.0</ele><time>2026-03-08T12:12:39.939Z</time></trkpt><trkpt lat="43.6373877" lon="12.7002569"><ele>180.0</ele><time>2026-03-08T12:12:41.937Z</time></trkpt><trkpt lat="43.6374329" lon="12.7003508"><ele>180.0</ele><time>2026-03-08T12:12:42.937Z</time></trkpt><trkpt lat="43.6374861" lon="12.7004427"><ele>180.0</ele><time>2026-03-08T12:12:43.937Z</time></trkpt><trkpt lat="43.6375362" lon="12.700539"><ele>180.0</ele><time>2026-03-08T12:12:44.937Z</time></trkpt><trkpt lat="43.637598" lon="12.7006373"><ele>179.2</ele><time>2026-03-08T12:12:45.938Z</time></trkpt><trkpt lat="43.6376552" lon="12.700753"><ele>178.4</ele><time>2026-03-08T12:12:46.938Z</time></trkpt><trkpt lat="43.6377212" lon="12.7008612"><ele>177.60000000000002</ele><time>2026-03-08T12:12:47.937Z</time></trkpt><trkpt lat="43.637786" lon="12.7009776"><ele>176.8</ele><time>2026-03-08T12:12:48.937Z</time></trkpt><trkpt lat="43.6378607" lon="12.7011093"><ele>176.0</ele><time>2026-03-08T12:12:49.938Z</time></trkpt><trkpt lat="43.6379293" lon="12.701231"><ele>175.5</ele><time>2026-03-08T12:12:50.937Z</time></trkpt><trkpt lat="43.6380006" lon="12.7013582"><ele>175.0</ele><time>2026-03-08T12:12:51.937Z</time></trkpt><trkpt lat="43.6380643" lon="12.7014824"><ele>174.5</ele><time>2026-03-08T12:12:52.937Z</time></trkpt><trkpt lat="43.6381328" lon="12.7016119"><ele>174.0</ele><time>2026-03-08T12:12:53.937Z</time></trkpt><trkpt lat="43.6382057" lon="12.7017431"><ele>174.0</ele><time>2026-03-08T12:12:54.937Z</time></trkpt><trkpt lat="43.6382698" lon="12.701862"><ele>174.0</ele><time>2026-03-08T12:12:55.937Z</time></trkpt><trkpt lat="43.6383353" lon="12.7019835"><ele>174.0</ele><time>2026-03-08T12:12:56.938Z</time></trkpt><trkpt lat="43.6383987" lon="12.7021134"><ele>174.0</ele><time>2026-03-08T12:12:57.937Z</time></trkpt><trkpt lat="43.6384615" lon="12.7022489"><ele>174.0</ele><time>2026-03-08T12:12:58.937Z</time></trkpt><trkpt lat="43.6385209" lon="12.7023881"><ele>175.0</ele><time>2026-03-08T12:12:59.937Z</time></trkpt><trkpt lat="43.6385836" lon="12.7025239"><ele>176.0</ele><time>2026-03-08T12:13:00.938Z</time></trkpt><trkpt lat="43.6386427" lon="12.7026844"><ele>177.0</ele><time>2026-03-08T12:13:01.937Z</time></trkpt><trkpt lat="43.6386984" lon="12.7028412"><ele>178.0</ele><time>2026-03-08T12:13:02.938Z</time></trkpt><trkpt lat="43.6387373" lon="12.7030088"><ele>180.25</ele><time>2026-03-08T12:13:03.937Z</time></trkpt><trkpt lat="43.6387502" lon="12.7031853"><ele>182.5</ele><time>2026-03-08T12:13:04.937Z</time></trkpt><trkpt lat="43.6387258" lon="12.7033678"><ele>184.75</ele><time>2026-03-08T12:13:05.937Z</time></trkpt><trkpt lat="43.6386724" lon="12.7035517"><ele>187.0</ele><time>2026-03-08T12:13:06.938Z</time></trkpt><trkpt lat="43.6386068" lon="12.7037384"><ele>187.0</ele><time>2026-03-08T12:13:07.937Z</time></trkpt><trkpt lat="43.6385405" lon="12.7039108"><ele>187.0</ele><time>2026-03-08T12:13:08.937Z</time></trkpt><trkpt lat="43.6384768" lon="12.7040911"><ele>187.0</ele><time>2026-03-08T12:13:09.937Z</time></trkpt><trkpt lat="43.6384131" lon="12.7042826"><ele>187.0</ele><time>2026-03-08T12:13:10.937Z</time></trkpt><trkpt lat="43.6383581" lon="12.7044655"><ele>188.75</ele><time>2026-03-08T12:13:11.937Z</time></trkpt><trkpt lat="43.6383072" lon="12.7046509"><ele>190.5</ele><time>2026-03-08T12:13:12.937Z</time></trkpt><trkpt lat="43.6382498" lon="12.7048372"><ele>192.25</ele><time>2026-03-08T12:13:13.937Z</time></trkpt><trkpt lat="43.6381855" lon="12.7050214"><ele>194.0</ele><time>2026-03-08T12:13:14.939Z</time></trkpt><trkpt lat="43.6381215" lon="12.7051972"><ele>199.25</ele><time>2026-03-08T12:13:15.937Z</time></trkpt><trkpt lat="43.6380537" lon="12.70538"><ele>204.5</ele><time>2026-03-08T12:13:16.937Z</time></trkpt><trkpt lat="43.6379872" lon="12.7055577"><ele>209.75</ele><time>2026-03-08T12:13:17.937Z</time></trkpt><trkpt lat="43.637912" lon="12.7057362"><ele>215.0</ele><time>2026-03-08T12:13:18.938Z</time></trkpt><trkpt lat="43.6378359" lon="12.7059131"><ele>208.0</ele><time>2026-03-08T12:13:19.937Z</time></trkpt><trkpt lat="43.6377558" lon="12.7060937"><ele>201.0</ele><time>2026-03-08T12:13:20.937Z</time></trkpt><trkpt lat="43.637676" lon="12.7062723"><ele>194.0</ele><time>2026-03-08T12:13:21.938Z</time></trkpt><trkpt lat="43.6375981" lon="12.7064382"><ele>187.0</ele><time>2026-03-08T12:13:22.937Z</time></trkpt><trkpt lat="43.6375186" lon="12.7066148"><ele>187.0</ele><time>2026-03-08T12:13:23.937Z</time></trkpt><trkpt lat="43.6374389" lon="12.7067898"><ele>187.0</ele><time>2026-03-08T12:13:24.938Z</time></trkpt><trkpt lat="43.6373543" lon="12.7069625"><ele>187.0</ele><time>2026-03-08T12:13:25.938Z</time></trkpt><trkpt lat="43.6372811" lon="12.7071215"><ele>187.0</ele><time>2026-03-08T12:13:26.937Z</time></trkpt><trkpt lat="43.6371945" lon="12.7072856"><ele>187.75</ele><time>2026-03-08T12:13:27.937Z</time></trkpt><trkpt lat="43.6371122" lon="12.7074495"><ele>188.5</ele><time>2026-03-08T12:13:28.937Z</time></trkpt><trkpt lat="43.6370304" lon="12.7076148"><ele>189.25</ele><time>2026-03-08T12:13:29.937Z</time></trkpt><trkpt lat="43.6369573" lon="12.7077831"><ele>190.0</ele><time>2026-03-08T12:13:30.938Z</time></trkpt><trkpt lat="43.6368716" lon="12.7079492"><ele>190.0</ele><time>2026-03-08T12:13:31.938Z</time></trkpt><trkpt lat="43.6367943" lon="12.7081156"><ele>190.0</ele><time>2026-03-08T12:13:32.937Z</time></trkpt><trkpt lat="43.6367225" lon="12.708279"><ele>190.0</ele><time>2026-03-08T12:13:33.938Z</time></trkpt><trkpt lat="43.6366502" lon="12.7084508"><ele>190.0</ele><time>2026-03-08T12:13:34.937Z</time></trkpt><trkpt lat="43.6365845" lon="12.7086066"><ele>193.75</ele><time>2026-03-08T12:13:35.937Z</time></trkpt><trkpt lat="43.6365214" lon="12.7087732"><ele>197.5</ele><time>2026-03-08T12:13:36.938Z</time></trkpt><trkpt lat="43.6364594" lon="12.7089438"><ele>201.25</ele><time>2026-03-08T12:13:37.938Z</time></trkpt><trkpt lat="43.6363998" lon="12.7091135"><ele>205.0</ele><time>2026-03-08T12:13:38.937Z</time></trkpt><trkpt lat="43.6363481" lon="12.7092878"><ele>207.5</ele><time>2026-03-08T12:13:39.938Z</time></trkpt><trkpt lat="43.636298" lon="12.70946"><ele>210.0</ele><time>2026-03-08T12:13:40.937Z</time></trkpt><trkpt lat="43.63625" lon="12.7096338"><ele>212.5</ele><time>2026-03-08T12:13:41.937Z</time></trkpt><trkpt lat="43.6362144" lon="12.7098095"><ele>215.0</ele><time>2026-03-08T12:13:42.938Z</time></trkpt><trkpt lat="43.6361973" lon="12.7099836"><ele>215.0</ele><time>2026-03-08T12:13:43.937Z</time></trkpt><trkpt lat="43.6362055" lon="12.7101557"><ele>215.0</ele><time>2026-03-08T12:13:44.937Z</time></trkpt><trkpt lat="43.6362235" lon="12.7103316"><ele>215.0</ele><time>2026-03-08T12:13:45.938Z</time></trkpt><trkpt lat="43.6362494" lon="12.7105043"><ele>215.0</ele><time>2026-03-08T12:13:46.937Z</time></trkpt><trkpt lat="43.6362838" lon="12.7106855"><ele>215.25</ele><time>2026-03-08T12:13:47.937Z</time></trkpt><trkpt lat="43.6363162" lon="12.7108684"><ele>215.5</ele><time>2026-03-08T12:13:48.937Z</time></trkpt><trkpt lat="43.6363439" lon="12.7110397"><ele>215.75</ele><time>2026-03-08T12:13:49.937Z</time></trkpt><trkpt lat="43.6363703" lon="12.7112179"><ele>216.0</ele><time>2026-03-08T12:13:50.937Z</time></trkpt><trkpt lat="43.6363975" lon="12.7113981"><ele>213.5</ele><time>2026-03-08T12:13:51.938Z</time></trkpt><trkpt lat="43.6364256" lon="12.7115735"><ele>211.0</ele><time>2026-03-08T12:13:52.937Z</time></trkpt><trkpt lat="43.6364565" lon="12.711753"><ele>208.5</ele><time>2026-03-08T12:13:53.937Z</time></trkpt><trkpt lat="43.6364933" lon="12.7119264"><ele>206.0</ele><time>2026-03-08T12:13:54.937Z</time></trkpt><trkpt lat="43.6365461" lon="12.7120901"><ele>201.25</ele><time>2026-03-08T12:13:55.938Z</time></trkpt><trkpt lat="43.636612" lon="12.7122492"><ele>196.5</ele><time>2026-03-08T12:13:56.937Z</time></trkpt><trkpt lat="43.6366917" lon="12.7123955"><ele>191.75</ele><time>2026-03-08T12:13:57.937Z</time></trkpt><trkpt lat="43.6367731" lon="12.7125404"><ele>187.0</ele><time>2026-03-08T12:13:58.938Z</time></trkpt><trkpt lat="43.636855" lon="12.7126418"><ele>187.0</ele><time>2026-03-08T12:13:59.937Z</time></trkpt><trkpt lat="43.6369442" lon="12.7127311"><ele>187.0</ele><time>2026-03-08T12:14:00.939Z</time></trkpt><trkpt lat="43.6370387" lon="12.7128009"><ele>187.0</ele><time>2026-03-08T12:14:01.937Z</time></trkpt><trkpt lat="43.6371284" lon="12.7128698"><ele>187.0</ele><time>2026-03-08T12:14:02.939Z</time></trkpt><trkpt lat="43.6372254" lon="12.7129409"><ele>187.0</ele><time>2026-03-08T12:14:03.937Z</time></trkpt><trkpt lat="43.637321" lon="12.7129873"><ele>186.83333333333334</ele><time>2026-03-08T12:14:04.938Z</time></trkpt><trkpt lat="43.6374083" lon="12.7130297"><ele>186.66666666666669</ele><time>2026-03-08T12:14:05.937Z</time></trkpt><trkpt lat="43.6374879" lon="12.7130679"><ele>186.5</ele><time>2026-03-08T12:14:06.937Z</time></trkpt><trkpt lat="43.6375704" lon="12.7131081"><ele>186.33333333333334</ele><time>2026-03-08T12:14:07.937Z</time></trkpt><trkpt lat="43.637639" lon="12.7131473"><ele>186.16666666666666</ele><time>2026-03-08T12:14:08.938Z</time></trkpt><trkpt lat="43.6377069" lon="12.7131773"><ele>186.0</ele><time>2026-03-08T12:14:09.938Z</time></trkpt><trkpt lat="43.6377837" lon="12.713203"><ele>187.16666666666666</ele><time>2026-03-08T12:14:10.938Z</time></trkpt><trkpt lat="43.6378586" lon="12.7132317"><ele>188.33333333333331</ele><time>2026-03-08T12:14:11.938Z</time></trkpt><trkpt lat="43.6379296" lon="12.7132673"><ele>189.5</ele><time>2026-03-08T12:14:12.937Z</time></trkpt><trkpt lat="43.6379982" lon="12.7133048"><ele>190.66666666666666</ele><time>2026-03-08T12:14:13.937Z</time></trkpt><trkpt lat="43.6380641" lon="12.7133365"><ele>191.83333333333331</ele><time>2026-03-08T12:14:14.937Z</time></trkpt><trkpt lat="43.6381362" lon="12.7133688"><ele>193.0</ele><time>2026-03-08T12:14:15.937Z</time></trkpt><trkpt lat="43.6382103" lon="12.7133973"><ele>193.00000000000003</ele><time>2026-03-08T12:14:16.938Z</time></trkpt><trkpt lat="43.6382811" lon="12.7134329"><ele>193.0</ele><time>2026-03-08T12:14:17.937Z</time></trkpt><trkpt lat="43.6383487" lon="12.7134671"><ele>193.0</ele><time>2026-03-08T12:14:18.938Z</time></trkpt><trkpt lat="43.6384106" lon="12.7135047"><ele>193.0</ele><time>2026-03-08T12:14:19.937Z</time></trkpt><trkpt lat="43.6384726" lon="12.7135557"><ele>193.0</ele><time>2026-03-08T12:14:20.937Z</time></trkpt><trkpt lat="43.6385352" lon="12.7136175"><ele>193.00000000000003</ele><time>2026-03-08T12:14:21.938Z</time></trkpt><trkpt lat="43.6386" lon="12.7136685"><ele>193.0</ele><time>2026-03-08T12:14:22.938Z</time></trkpt><trkpt lat="43.6386666" lon="12.7137207"><ele>192.99999999999997</ele><time>2026-03-08T12:14:23.937Z</time></trkpt><trkpt lat="43.6387334" lon="12.7137766"><ele>193.0</ele><time>2026-03-08T12:14:24.937Z</time></trkpt><trkpt lat="43.6387974" lon="12.7138371"><ele>193.0</ele><time>2026-03-08T12:14:25.937Z</time></trkpt><trkpt lat="43.6388682" lon="12.7138964"><ele>193.0</ele><time>2026-03-08T12:14:26.937Z</time></trkpt><trkpt lat="43.6389258" lon="12.7139511"><ele>192.99999999999997</ele><time>2026-03-08T12:14:27.937Z</time></trkpt><trkpt lat="43.6389852" lon="12.7140125"><ele>193.0</ele><time>2026-03-08T12:14:28.937Z</time></trkpt><trkpt lat="43.6390463" lon="12.7140752"><ele>193.00000000000003</ele><time>2026-03-08T12:14:29.938Z</time></trkpt><trkpt lat="43.639107" lon="12.7141295"><ele>193.0</ele><time>2026-03-08T12:14:30.937Z</time></trkpt><trkpt lat="43.6391665" lon="12.7141892"><ele>193.0</ele><time>2026-03-08T12:14:31.937Z</time></trkpt><trkpt lat="43.6392289" lon="12.7142403"><ele>193.0</ele><time>2026-03-08T12:14:32.937Z</time></trkpt><trkpt lat="43.6392814" lon="12.7143005"><ele>193.0</ele><time>2026-03-08T12:14:33.938Z</time></trkpt><trkpt lat="43.6393308" lon="12.7143569"><ele>193.00000000000003</ele><time>2026-03-08T12:14:34.937Z</time></trkpt><trkpt lat="43.6393831" lon="12.7144083"><ele>193.0</ele><time>2026-03-08T12:14:35.937Z</time></trkpt><trkpt lat="43.6394595" lon="12.7144976"><ele>192.49999999999997</ele><time>2026-03-08T12:14:37.938Z</time></trkpt><trkpt lat="43.6395284" lon="12.7145652"><ele>192.0</ele><time>2026-03-08T12:14:39.937Z</time></trkpt><trkpt lat="43.6395868" lon="12.7146293"><ele>191.5</ele><time>2026-03-08T12:14:41.937Z</time></trkpt><trkpt lat="43.639654" lon="12.7147026"><ele>191.0</ele><time>2026-03-08T12:14:43.937Z</time></trkpt><trkpt lat="43.6396915" lon="12.7147796"><ele>190.5</ele><time>2026-03-08T12:14:45.937Z</time></trkpt><trkpt lat="43.6397248" lon="12.7148776"><ele>190.0</ele><time>2026-03-08T12:14:48.937Z</time></trkpt><trkpt lat="43.6397381" lon="12.714787"><ele>190.0</ele><time>2026-03-08T12:17:49.937Z</time></trkpt><trkpt lat="43.639704" lon="12.7147115"><ele>190.0</ele><time>2026-03-08T12:18:00.938Z</time></trkpt><trkpt lat="43.639698" lon="12.7146169"><ele>190.0</ele><time>2026-03-08T12:18:17.937Z</time></trkpt><trkpt lat="43.6396584" lon="12.7145465"><ele>190.0</ele><time>2026-03-08T12:18:25.937Z</time></trkpt><trkpt lat="43.639604" lon="12.7144967"><ele>190.0</ele><time>2026-03-08T12:18:32.937Z</time></trkpt><trkpt lat="43.639538" lon="12.714435"><ele>190.0</ele><time>2026-03-08T12:19:08.937Z</time></trkpt><trkpt lat="43.6394864" lon="12.7145852"><ele>190.0</ele><time>2026-03-08T12:20:25.937Z</time></trkpt><trkpt lat="43.6395546" lon="12.7145075"><ele>190.0</ele><time>2026-03-08T12:24:41.967Z</time></trkpt><trkpt lat="43.6168937" lon="12.6712336"><ele>190.0</ele><time>2026-03-08T12:25:20.838Z</time></trkpt><trkpt lat="43.6396183" lon="12.7144959"><ele>190.0</ele><time>2026-03-08T12:25:24.938Z</time></trkpt><trkpt lat="43.6396172" lon="12.7145894"><ele>190.0</ele><time>2026-03-08T12:25:41.9Z</time></trkpt><trkpt lat="43.6395447" lon="12.7145923"><ele>190.0</ele><time>2026-03-08T12:26:01.937Z</time></trkpt><trkpt lat="43.6395038" lon="12.714526"><ele>190.0</ele><time>2026-03-08T12:26:06.937Z</time></trkpt><trkpt lat="43.6395561" lon="12.7144574"><ele>190.0</ele><time>2026-03-08T12:35:16.938Z</time></trkpt><trkpt lat="43.6396122" lon="12.7145173"><ele>190.0</ele><time>2026-03-08T13:33:08.946Z</time></trkpt><trkpt lat="43.6396652" lon="12.7145844"><ele>190.0</ele><time>2026-03-08T13:33:14.946Z</time></trkpt><trkpt lat="43.6396645" lon="12.7146811"><ele>190.0</ele><time>2026-03-08T13:33:23.946Z</time></trkpt><trkpt lat="43.6397018" lon="12.7147517"><ele>190.0</ele><time>2026-03-08T13:33:28.946Z</time></trkpt><trkpt lat="43.6397164" lon="12.7148368"><ele>190.0</ele><time>2026-03-08T13:33:33.946Z</time></trkpt><trkpt lat="43.6397187" lon="12.71493"><ele>190.0</ele><time>2026-03-08T13:33:39.946Z</time></trkpt><trkpt lat="43.6396958" lon="12.7148176"><ele>190.0</ele><time>2026-03-08T13:34:34.946Z</time></trkpt><trkpt lat="43.639662" lon="12.7147352"><ele>190.0</ele><time>2026-03-08T13:34:52.947Z</time></trkpt><trkpt lat="43.6397394" lon="12.7147239"><ele>190.0</ele><time>2026-03-08T13:35:02.946Z</time></trkpt><trkpt lat="43.6396871" lon="12.7145918"><ele>190.0</ele><time>2026-03-08T13:35:04.946Z</time></trkpt><trkpt lat="43.6396058" lon="12.7145101"><ele>190.0</ele><time>2026-03-08T13:35:05.947Z</time></trkpt><trkpt lat="43.6395178" lon="12.7144155"><ele>190.0</ele><time>2026-03-08T13:35:06.947Z</time></trkpt><trkpt lat="43.6394392" lon="12.7143607"><ele>190.0</ele><time>2026-03-08T13:35:07.946Z</time></trkpt><trkpt lat="43.6393586" lon="12.7143161"><ele>190.0</ele><time>2026-03-08T13:35:08.946Z</time></trkpt><trkpt lat="43.639273" lon="12.7142448"><ele>190.75</ele><time>2026-03-08T13:35:09.946Z</time></trkpt><trkpt lat="43.639177" lon="12.7141531"><ele>191.5</ele><time>2026-03-08T13:35:10.946Z</time></trkpt><trkpt lat="43.6390805" lon="12.7140632"><ele>192.25</ele><time>2026-03-08T13:35:11.947Z</time></trkpt><trkpt lat="43.6390229" lon="12.7139748"><ele>193.0</ele><time>2026-03-08T13:35:12.946Z</time></trkpt><trkpt lat="43.6389029" lon="12.7138495"><ele>193.0</ele><time>2026-03-08T13:35:14.946Z</time></trkpt><trkpt lat="43.6388229" lon="12.7137381"><ele>193.0</ele><time>2026-03-08T13:35:15.946Z</time></trkpt><trkpt lat="43.6387458" lon="12.7136447"><ele>193.0</ele><time>2026-03-08T13:35:16.946Z</time></trkpt><trkpt lat="43.6386667" lon="12.713543"><ele>193.0</ele><time>2026-03-08T13:35:18.946Z</time></trkpt><trkpt lat="43.6386946" lon="12.7134371"><ele>193.0</ele><time>2026-03-08T13:35:20.947Z</time></trkpt><trkpt lat="43.6388351" lon="12.7134948"><ele>193.0</ele><time>2026-03-08T13:35:22.947Z</time></trkpt><trkpt lat="43.638923" lon="12.7135341"><ele>193.0</ele><time>2026-03-08T13:35:23.946Z</time></trkpt><trkpt lat="43.6390323" lon="12.7135878"><ele>193.0</ele><time>2026-03-08T13:35:24.946Z</time></trkpt><trkpt lat="43.6391301" lon="12.7136443"><ele>193.0</ele><time>2026-03-08T13:35:25.946Z</time></trkpt><trkpt lat="43.6392448" lon="12.713716"><ele>193.0</ele><time>2026-03-08T13:35:26.946Z</time></trkpt><trkpt lat="43.6393614" lon="12.7137896"><ele>193.0</ele><time>2026-03-08T13:35:27.946Z</time></trkpt><trkpt lat="43.6394658" lon="12.7138918"><ele>193.0</ele><time>2026-03-08T13:35:28.947Z</time></trkpt><trkpt lat="43.6395746" lon="12.7139857"><ele>193.0</ele><time>2026-03-08T13:35:29.946Z</time></trkpt><trkpt lat="43.6396722" lon="12.7140651"><ele>193.0</ele><time>2026-03-08T13:35:30.946Z</time></trkpt><trkpt lat="43.6397838" lon="12.7141446"><ele>192.4</ele><time>2026-03-08T13:35:31.947Z</time></trkpt><trkpt lat="43.6398893" lon="12.7141984"><ele>191.8</ele><time>2026-03-08T13:35:32.946Z</time></trkpt><trkpt lat="43.6399725" lon="12.7142732"><ele>191.2</ele><time>2026-03-08T13:35:33.947Z</time></trkpt><trkpt lat="43.640073" lon="12.7143447"><ele>190.6</ele><time>2026-03-08T13:35:34.946Z</time></trkpt><trkpt lat="43.6401682" lon="12.714421"><ele>190.0</ele><time>2026-03-08T13:35:35.946Z</time></trkpt><trkpt lat="43.6402844" lon="12.7145125"><ele>192.33333333333334</ele><time>2026-03-08T13:35:36.946Z</time></trkpt><trkpt lat="43.6403751" lon="12.7145629"><ele>194.66666666666669</ele><time>2026-03-08T13:35:37.947Z</time></trkpt><trkpt lat="43.6404473" lon="12.7145847"><ele>197.0</ele><time>2026-03-08T13:35:38.947Z</time></trkpt><trkpt lat="43.6405248" lon="12.7145484"><ele>199.33333333333334</ele><time>2026-03-08T13:35:39.946Z</time></trkpt><trkpt lat="43.6404959" lon="12.7144574"><ele>201.66666666666666</ele><time>2026-03-08T13:35:41.946Z</time></trkpt><trkpt lat="43.6404133" lon="12.7144137"><ele>204.0</ele><time>2026-03-08T13:35:42.947Z</time></trkpt><trkpt lat="43.6403563" lon="12.7143324"><ele>205.6</ele><time>2026-03-08T13:35:43.946Z</time></trkpt><trkpt lat="43.6402799" lon="12.7142911"><ele>207.2</ele><time>2026-03-08T13:35:44.947Z</time></trkpt><trkpt lat="43.6401822" lon="12.7142417"><ele>208.79999999999998</ele><time>2026-03-08T13:35:45.948Z</time></trkpt><trkpt lat="43.640079" lon="12.714158"><ele>210.39999999999998</ele><time>2026-03-08T13:35:46.947Z</time></trkpt><trkpt lat="43.6399821" lon="12.7141129"><ele>212.0</ele><time>2026-03-08T13:35:47.946Z</time></trkpt><trkpt lat="43.6398668" lon="12.7140493"><ele>212.0</ele><time>2026-03-08T13:35:48.946Z</time></trkpt><trkpt lat="43.6397871" lon="12.713993"><ele>212.0</ele><time>2026-03-08T13:35:49.946Z</time></trkpt><trkpt lat="43.6397209" lon="12.7139306"><ele>212.0</ele><time>2026-03-08T13:35:50.947Z</time></trkpt><trkpt lat="43.6396709" lon="12.7138181"><ele>212.0</ele><time>2026-03-08T13:35:52.946Z</time></trkpt><trkpt lat="43.6395961" lon="12.7136784"><ele>212.0</ele><time>2026-03-08T13:35:54.947Z</time></trkpt><trkpt lat="43.6395433" lon="12.713607"><ele>212.50000000000003</ele><time>2026-03-08T13:35:55.946Z</time></trkpt><trkpt lat="43.6394774" lon="12.7135484"><ele>213.0</ele><time>2026-03-08T13:35:56.946Z</time></trkpt><trkpt lat="43.6394223" lon="12.7134852"><ele>213.5</ele><time>2026-03-08T13:35:57.946Z</time></trkpt><trkpt lat="43.6393796" lon="12.7134036"><ele>214.0</ele><time>2026-03-08T13:35:58.946Z</time></trkpt><trkpt lat="43.6393384" lon="12.7133049"><ele>214.50000000000003</ele><time>2026-03-08T13:35:59.946Z</time></trkpt><trkpt lat="43.6392706" lon="12.7132465"><ele>215.0</ele><time>2026-03-08T13:36:00.946Z</time></trkpt><trkpt lat="43.6392185" lon="12.7131375"><ele>215.0</ele><time>2026-03-08T13:36:01.948Z</time></trkpt><trkpt lat="43.6391676" lon="12.7129808"><ele>215.0</ele><time>2026-03-08T13:36:02.947Z</time></trkpt><trkpt lat="43.6390566" lon="12.7128796"><ele>215.0</ele><time>2026-03-08T13:36:03.947Z</time></trkpt><trkpt lat="43.6389499" lon="12.7128006"><ele>215.0</ele><time>2026-03-08T13:36:04.946Z</time></trkpt><trkpt lat="43.6388344" lon="12.7127009"><ele>218.0</ele><time>2026-03-08T13:36:05.946Z</time></trkpt><trkpt lat="43.6387642" lon="12.7126797"><ele>221.0</ele><time>2026-03-08T13:36:06.947Z</time></trkpt><trkpt lat="43.6386638" lon="12.7126861"><ele>224.0</ele><time>2026-03-08T13:36:07.946Z</time></trkpt><trkpt lat="43.6385655" lon="12.7126712"><ele>227.0</ele><time>2026-03-08T13:36:09.946Z</time></trkpt><trkpt lat="43.6385758" lon="12.7125498"><ele>230.0</ele><time>2026-03-08T13:36:11.947Z</time></trkpt><trkpt lat="43.6386724" lon="12.7125629"><ele>236.0</ele><time>2026-03-08T13:36:14.946Z</time></trkpt><trkpt lat="43.6388444" lon="12.7125404"><ele>242.0</ele><time>2026-03-08T13:36:16.946Z</time></trkpt><trkpt lat="43.6389384" lon="12.7125882"><ele>248.0</ele><time>2026-03-08T13:36:17.947Z</time></trkpt><trkpt lat="43.6390366" lon="12.7126304"><ele>254.0</ele><time>2026-03-08T13:36:18.947Z</time></trkpt><trkpt lat="43.6391377" lon="12.7126643"><ele>253.25</ele><time>2026-03-08T13:36:19.946Z</time></trkpt><trkpt lat="43.6392305" lon="12.7127829"><ele>252.5</ele><time>2026-03-08T13:36:20.946Z</time></trkpt><trkpt lat="43.6393358" lon="12.7128994"><ele>251.75</ele><time>2026-03-08T13:36:21.946Z</time></trkpt><trkpt lat="43.6394265" lon="12.7129793"><ele>251.0</ele><time>2026-03-08T13:36:22.946Z</time></trkpt><trkpt lat="43.6395212" lon="12.7130868"><ele>251.0</ele><time>2026-03-08T13:36:23.947Z</time></trkpt><trkpt lat="43.6395906" lon="12.7131999"><ele>251.00000000000003</ele><time>2026-03-08T13:36:24.946Z</time></trkpt><trkpt lat="43.6396698" lon="12.7133106"><ele>251.00000000000003</ele><time>2026-03-08T13:36:25.946Z</time></trkpt><trkpt lat="43.6397507" lon="12.7133979"><ele>251.0</ele><time>2026-03-08T13:36:26.946Z</time></trkpt><trkpt lat="43.6398281" lon="12.713473"><ele>251.0</ele><time>2026-03-08T13:36:27.947Z</time></trkpt><trkpt lat="43.6399059" lon="12.7135658"><ele>245.4</ele><time>2026-03-08T13:36:28.946Z</time></trkpt><trkpt lat="43.6399967" lon="12.7136192"><ele>239.8</ele><time>2026-03-08T13:36:29.947Z</time></trkpt><trkpt lat="43.6400917" lon="12.713636"><ele>234.20000000000002</ele><time>2026-03-08T13:36:30.947Z</time></trkpt><trkpt lat="43.6401838" lon="12.7136667"><ele>228.60000000000002</ele><time>2026-03-08T13:36:31.946Z</time></trkpt><trkpt lat="43.6402789" lon="12.7136964"><ele>223.0</ele><time>2026-03-08T13:36:32.946Z</time></trkpt><trkpt lat="43.6403957" lon="12.7137316"><ele>223.0</ele><time>2026-03-08T13:36:33.946Z</time></trkpt><trkpt lat="43.6405091" lon="12.7137391"><ele>223.0</ele><time>2026-03-08T13:36:34.947Z</time></trkpt><trkpt lat="43.6405857" lon="12.7137408"><ele>223.0</ele><time>2026-03-08T13:36:35.947Z</time></trkpt><trkpt lat="43.6406783" lon="12.7137308"><ele>223.0</ele><time>2026-03-08T13:36:36.946Z</time></trkpt><trkpt lat="43.6407793" lon="12.7136641"><ele>223.0</ele><time>2026-03-08T13:36:37.947Z</time></trkpt><trkpt lat="43.6408875" lon="12.713596"><ele>230.8</ele><time>2026-03-08T13:36:38.948Z</time></trkpt><trkpt lat="43.6409533" lon="12.7135242"><ele>238.60000000000002</ele><time>2026-03-08T13:36:39.947Z</time></trkpt><trkpt lat="43.6410167" lon="12.7134409"><ele>246.39999999999998</ele><time>2026-03-08T13:36:40.946Z</time></trkpt><trkpt lat="43.6410788" lon="12.7133626"><ele>254.2</ele><time>2026-03-08T13:36:41.947Z</time></trkpt><trkpt lat="43.6411388" lon="12.7132754"><ele>262.0</ele><time>2026-03-08T13:36:42.947Z</time></trkpt><trkpt lat="43.6412143" lon="12.7131462"><ele>262.0</ele><time>2026-03-08T13:36:43.946Z</time></trkpt><trkpt lat="43.6412702" lon="12.7130828"><ele>262.0</ele><time>2026-03-08T13:36:45.946Z</time></trkpt><trkpt lat="43.641195" lon="12.7130973"><ele>262.0</ele><time>2026-03-08T13:36:49.946Z</time></trkpt><trkpt lat="43.6411175" lon="12.7131575"><ele>262.0</ele><time>2026-03-08T13:36:51.946Z</time></trkpt><trkpt lat="43.6409981" lon="12.7132744"><ele>262.0</ele><time>2026-03-08T13:36:52.947Z</time></trkpt><trkpt lat="43.6409238" lon="12.7133567"><ele>264.25</ele><time>2026-03-08T13:36:53.946Z</time></trkpt><trkpt lat="43.6408161" lon="12.713389"><ele>266.5</ele><time>2026-03-08T13:36:54.947Z</time></trkpt><trkpt lat="43.6407132" lon="12.7133854"><ele>268.75</ele><time>2026-03-08T13:36:55.946Z</time></trkpt><trkpt lat="43.6406018" lon="12.71339"><ele>271.0</ele><time>2026-03-08T13:36:56.946Z</time></trkpt><trkpt lat="43.6404742" lon="12.7134059"><ele>271.0</ele><time>2026-03-08T13:36:57.946Z</time></trkpt><trkpt lat="43.6403605" lon="12.7133662"><ele>271.0</ele><time>2026-03-08T13:36:58.946Z</time></trkpt><trkpt lat="43.6402367" lon="12.7133173"><ele>271.0</ele><time>2026-03-08T13:36:59.946Z</time></trkpt><trkpt lat="43.6401113" lon="12.7133616"><ele>271.0</ele><time>2026-03-08T13:37:00.946Z</time></trkpt><trkpt lat="43.6401386" lon="12.7132522"><ele>273.8</ele><time>2026-03-08T13:37:01.946Z</time></trkpt><trkpt lat="43.6400786" lon="12.7131851"><ele>276.6</ele><time>2026-03-08T13:37:02.946Z</time></trkpt><trkpt lat="43.6400498" lon="12.7130468"><ele>279.4</ele><time>2026-03-08T13:37:03.947Z</time></trkpt><trkpt lat="43.6400115" lon="12.7129348"><ele>282.2</ele><time>2026-03-08T13:37:04.946Z</time></trkpt><trkpt lat="43.6399238" lon="12.7128101"><ele>285.0</ele><time>2026-03-08T13:37:05.946Z</time></trkpt><trkpt lat="43.639864" lon="12.7126736"><ele>285.0</ele><time>2026-03-08T13:37:06.946Z</time></trkpt><trkpt lat="43.6397917" lon="12.7125398"><ele>285.0</ele><time>2026-03-08T13:37:07.946Z</time></trkpt><trkpt lat="43.6397469" lon="12.7123915"><ele>285.0</ele><time>2026-03-08T13:37:08.946Z</time></trkpt><trkpt lat="43.6396938" lon="12.7122436"><ele>285.0</ele><time>2026-03-08T13:37:09.946Z</time></trkpt><trkpt lat="43.6396437" lon="12.7121135"><ele>285.0</ele><time>2026-03-08T13:37:10.946Z</time></trkpt><trkpt lat="43.639588" lon="12.7119858"><ele>285.0</ele><time>2026-03-08T13:37:11.946Z</time></trkpt><trkpt lat="43.6394913" lon="12.7119548"><ele>285.0</ele><time>2026-03-08T13:37:12.946Z</time></trkpt><trkpt lat="43.6394175" lon="12.7118939"><ele>285.0</ele><time>2026-03-08T13:37:13.946Z</time></trkpt><trkpt lat="43.6393177" lon="12.7118533"><ele>285.0</ele><time>2026-03-08T13:37:14.946Z</time></trkpt><trkpt lat="43.6392184" lon="12.7118043"><ele>288.0</ele><time>2026-03-08T13:37:15.946Z</time></trkpt><trkpt lat="43.639081" lon="12.7117747"><ele>291.0</ele><time>2026-03-08T13:37:16.946Z</time></trkpt><trkpt lat="43.6389714" lon="12.7117431"><ele>294.0</ele><time>2026-03-08T13:37:17.947Z</time></trkpt><trkpt lat="43.6388727" lon="12.7116941"><ele>297.0</ele><time>2026-03-08T13:37:18.947Z</time></trkpt><trkpt lat="43.63877" lon="12.7116618"><ele>297.0</ele><time>2026-03-08T13:37:19.946Z</time></trkpt><trkpt lat="43.6386837" lon="12.7115436"><ele>297.0</ele><time>2026-03-08T13:37:20.946Z</time></trkpt><trkpt lat="43.6386509" lon="12.7114358"><ele>297.0</ele><time>2026-03-08T13:37:21.947Z</time></trkpt><trkpt lat="43.6385557" lon="12.7113709"><ele>297.0</ele><time>2026-03-08T13:37:22.946Z</time></trkpt><trkpt lat="43.6384475" lon="12.7113247"><ele>297.0</ele><time>2026-03-08T13:37:23.947Z</time></trkpt><trkpt lat="43.6383094" lon="12.7113232"><ele>290.75</ele><time>2026-03-08T13:37:24.946Z</time></trkpt><trkpt lat="43.6381722" lon="12.7113208"><ele>284.5</ele><time>2026-03-08T13:37:25.946Z</time></trkpt><trkpt lat="43.6380521" lon="12.711316"><ele>278.25</ele><time>2026-03-08T13:37:26.945Z</time></trkpt><trkpt lat="43.6379327" lon="12.7112884"><ele>272.0</ele><time>2026-03-08T13:37:27.946Z</time></trkpt><trkpt lat="43.6378497" lon="12.7112614"><ele>271.6</ele><time>2026-03-08T13:37:28.946Z</time></trkpt><trkpt lat="43.637784" lon="12.7112071"><ele>271.2</ele><time>2026-03-08T13:37:29.945Z</time></trkpt><trkpt lat="43.637755" lon="12.7111097"><ele>270.8</ele><time>2026-03-08T13:37:30.945Z</time></trkpt><trkpt lat="43.6377486" lon="12.7109868"><ele>270.4</ele><time>2026-03-08T13:37:31.946Z</time></trkpt><trkpt lat="43.6377666" lon="12.7108459"><ele>270.0</ele><time>2026-03-08T13:37:32.946Z</time></trkpt><trkpt lat="43.6377987" lon="12.710689"><ele>279.0</ele><time>2026-03-08T13:37:33.946Z</time></trkpt><trkpt lat="43.6378276" lon="12.7105283"><ele>288.0</ele><time>2026-03-08T13:37:34.945Z</time></trkpt><trkpt lat="43.6379014" lon="12.7103681"><ele>297.0</ele><time>2026-03-08T13:37:35.945Z</time></trkpt><trkpt lat="43.6379835" lon="12.7102128"><ele>306.0</ele><time>2026-03-08T13:37:36.946Z</time></trkpt><trkpt lat="43.6380839" lon="12.7100607"><ele>306.0</ele><time>2026-03-08T13:37:37.946Z</time></trkpt><trkpt lat="43.6381782" lon="12.7099031"><ele>306.0</ele><time>2026-03-08T13:37:38.945Z</time></trkpt><trkpt lat="43.6382675" lon="12.7097388"><ele>306.0</ele><time>2026-03-08T13:37:39.946Z</time></trkpt><trkpt lat="43.6383458" lon="12.7095946"><ele>306.0</ele><time>2026-03-08T13:37:40.947Z</time></trkpt><trkpt lat="43.6384366" lon="12.709479"><ele>310.0</ele><time>2026-03-08T13:37:41.946Z</time></trkpt><trkpt lat="43.6385417" lon="12.7094044"><ele>314.0</ele><time>2026-03-08T13:37:42.946Z</time></trkpt><trkpt lat="43.6386581" lon="12.7093266"><ele>318.0</ele><time>2026-03-08T13:37:43.947Z</time></trkpt><trkpt lat="43.6387631" lon="12.7091939"><ele>322.0</ele><time>2026-03-08T13:37:44.945Z</time></trkpt><trkpt lat="43.6388487" lon="12.7090588"><ele>322.0</ele><time>2026-03-08T13:37:45.946Z</time></trkpt><trkpt lat="43.6389271" lon="12.7089291"><ele>322.0</ele><time>2026-03-08T13:37:46.946Z</time></trkpt><trkpt lat="43.6389865" lon="12.7088336"><ele>322.0</ele><time>2026-03-08T13:37:47.946Z</time></trkpt><trkpt lat="43.639044" lon="12.7087738"><ele>322.0</ele><time>2026-03-08T13:37:48.945Z</time></trkpt><trkpt lat="43.6391105" lon="12.708818"><ele>322.0</ele><time>2026-03-08T13:37:50.945Z</time></trkpt><trkpt lat="43.6390292" lon="12.7089575"><ele>322.0</ele><time>2026-03-08T13:37:52.945Z</time></trkpt><trkpt lat="43.6389731" lon="12.7090441"><ele>322.0</ele><time>2026-03-08T13:37:53.946Z</time></trkpt><trkpt lat="43.6389103" lon="12.7091547"><ele>322.0</ele><time>2026-03-08T13:37:54.945Z</time></trkpt><trkpt lat="43.6388546" lon="12.7092856"><ele>322.0</ele><time>2026-03-08T13:37:55.946Z</time></trkpt><trkpt lat="43.6388083" lon="12.7094164"><ele>322.0</ele><time>2026-03-08T13:37:56.947Z</time></trkpt><trkpt lat="43.6387687" lon="12.7095497"><ele>318.8</ele><time>2026-03-08T13:37:57.946Z</time></trkpt><trkpt lat="43.6387266" lon="12.7096603"><ele>315.6</ele><time>2026-03-08T13:37:58.947Z</time></trkpt><trkpt lat="43.6386795" lon="12.7097711"><ele>312.40000000000003</ele><time>2026-03-08T13:37:59.946Z</time></trkpt><trkpt lat="43.6386352" lon="12.7098727"><ele>309.20000000000005</ele><time>2026-03-08T13:38:00.946Z</time></trkpt><trkpt lat="43.6385803" lon="12.7100566"><ele>306.0</ele><time>2026-03-08T13:38:02.946Z</time></trkpt><trkpt lat="43.6385509" lon="12.710177"><ele>306.3333333333333</ele><time>2026-03-08T13:38:03.945Z</time></trkpt><trkpt lat="43.6385232" lon="12.7102865"><ele>306.6666666666667</ele><time>2026-03-08T13:38:04.947Z</time></trkpt><trkpt lat="43.6385062" lon="12.7103703"><ele>307.0</ele><time>2026-03-08T13:38:05.947Z</time></trkpt><trkpt lat="43.6385069" lon="12.7104801"><ele>307.33333333333337</ele><time>2026-03-08T13:38:06.945Z</time></trkpt><trkpt lat="43.6385252" lon="12.7105904"><ele>307.6666666666667</ele><time>2026-03-08T13:38:07.945Z</time></trkpt><trkpt lat="43.6386049" lon="12.7106362"><ele>308.0</ele><time>2026-03-08T13:38:08.945Z</time></trkpt><trkpt lat="43.6386962" lon="12.7106781"><ele>312.6</ele><time>2026-03-08T13:38:09.945Z</time></trkpt><trkpt lat="43.6387962" lon="12.7107155"><ele>317.20000000000005</ele><time>2026-03-08T13:38:10.946Z</time></trkpt><trkpt lat="43.6388915" lon="12.7107397"><ele>321.8</ele><time>2026-03-08T13:38:11.945Z</time></trkpt><trkpt lat="43.6390125" lon="12.7107637"><ele>326.40000000000003</ele><time>2026-03-08T13:38:12.946Z</time></trkpt><trkpt lat="43.6391168" lon="12.7107624"><ele>331.0</ele><time>2026-03-08T13:38:13.946Z</time></trkpt><trkpt lat="43.6392044" lon="12.7107227"><ele>331.0</ele><time>2026-03-08T13:38:14.947Z</time></trkpt><trkpt lat="43.6392983" lon="12.710695"><ele>331.0</ele><time>2026-03-08T13:38:15.945Z</time></trkpt><trkpt lat="43.6394143" lon="12.7106827"><ele>331.0</ele><time>2026-03-08T13:38:17.947Z</time></trkpt><trkpt lat="43.6395509" lon="12.7107298"><ele>331.0</ele><time>2026-03-08T13:38:18.946Z</time></trkpt><trkpt lat="43.6396558" lon="12.7107856"><ele>335.0</ele><time>2026-03-08T13:38:19.947Z</time></trkpt><trkpt lat="43.6397823" lon="12.7108194"><ele>339.0</ele><time>2026-03-08T13:38:20.946Z</time></trkpt><trkpt lat="43.6398903" lon="12.7108819"><ele>343.0</ele><time>2026-03-08T13:38:21.947Z</time></trkpt><trkpt lat="43.6399989" lon="12.7109431"><ele>347.0</ele><time>2026-03-08T13:38:22.945Z</time></trkpt><trkpt lat="43.6401285" lon="12.7110136"><ele>347.0</ele><time>2026-03-08T13:38:23.947Z</time></trkpt><trkpt lat="43.6402464" lon="12.7110493"><ele>347.0</ele><time>2026-03-08T13:38:24.946Z</time></trkpt><trkpt lat="43.6403725" lon="12.7111072"><ele>347.0</ele><time>2026-03-08T13:38:25.946Z</time></trkpt><trkpt lat="43.6404833" lon="12.7112241"><ele>347.0</ele><time>2026-03-08T13:38:26.946Z</time></trkpt><trkpt lat="43.6405743" lon="12.7113152"><ele>345.0</ele><time>2026-03-08T13:38:27.945Z</time></trkpt><trkpt lat="43.6406553" lon="12.7113887"><ele>343.0</ele><time>2026-03-08T13:38:28.946Z</time></trkpt><trkpt lat="43.6407387" lon="12.7114791"><ele>341.0</ele><time>2026-03-08T13:38:29.947Z</time></trkpt><trkpt lat="43.6408331" lon="12.7115019"><ele>339.0</ele><time>2026-03-08T13:38:30.946Z</time></trkpt><trkpt lat="43.6409391" lon="12.7114587"><ele>337.0</ele><time>2026-03-08T13:38:32.945Z</time></trkpt><trkpt lat="43.6408971" lon="12.7113106"><ele>337.0</ele><time>2026-03-08T13:38:34.946Z</time></trkpt><trkpt lat="43.6408434" lon="12.7112462"><ele>337.0</ele><time>2026-03-08T13:38:35.946Z</time></trkpt><trkpt lat="43.6407521" lon="12.711189"><ele>337.0</ele><time>2026-03-08T13:38:36.946Z</time></trkpt><trkpt lat="43.6406553" lon="12.7111089"><ele>337.0</ele><time>2026-03-08T13:38:37.945Z</time></trkpt><trkpt lat="43.6405673" lon="12.7110085"><ele>337.0</ele><time>2026-03-08T13:38:38.946Z</time></trkpt><trkpt lat="43.6404709" lon="12.710902"><ele>339.5</ele><time>2026-03-08T13:38:39.946Z</time></trkpt><trkpt lat="43.6403937" lon="12.7107867"><ele>342.0</ele><time>2026-03-08T13:38:40.946Z</time></trkpt><trkpt lat="43.6403105" lon="12.7106825"><ele>344.5</ele><time>2026-03-08T13:38:41.947Z</time></trkpt><trkpt lat="43.6402245" lon="12.7105946"><ele>347.0</ele><time>2026-03-08T13:38:42.945Z</time></trkpt><trkpt lat="43.6401313" lon="12.7104932"><ele>347.0</ele><time>2026-03-08T13:38:43.945Z</time></trkpt><trkpt lat="43.6400372" lon="12.7104069"><ele>347.0</ele><time>2026-03-08T13:38:44.946Z</time></trkpt><trkpt lat="43.6399631" lon="12.7103091"><ele>347.0</ele><time>2026-03-08T13:38:45.945Z</time></trkpt><trkpt lat="43.6398895" lon="12.7102274"><ele>347.0</ele><time>2026-03-08T13:38:46.946Z</time></trkpt><trkpt lat="43.6398117" lon="12.7101743"><ele>347.0</ele><time>2026-03-08T13:38:47.945Z</time></trkpt><trkpt lat="43.6397445" lon="12.7101071"><ele>350.33333333333337</ele><time>2026-03-08T13:38:48.946Z</time></trkpt><trkpt lat="43.6397055" lon="12.7100249"><ele>353.6666666666667</ele><time>2026-03-08T13:38:49.946Z</time></trkpt><trkpt lat="43.6396945" lon="12.7099225"><ele>357.0</ele><time>2026-03-08T13:38:50.946Z</time></trkpt><trkpt lat="43.639722" lon="12.7098284"><ele>360.3333333333333</ele><time>2026-03-08T13:38:51.946Z</time></trkpt><trkpt lat="43.6397824" lon="12.7096984"><ele>363.66666666666663</ele><time>2026-03-08T13:38:53.947Z</time></trkpt><trkpt lat="43.6398446" lon="12.709626"><ele>367.0</ele><time>2026-03-08T13:38:56.947Z</time></trkpt><trkpt lat="43.6399099" lon="12.7095574"><ele>367.0</ele><time>2026-03-08T13:38:58.946Z</time></trkpt><trkpt lat="43.6399616" lon="12.7094692"><ele>367.0</ele><time>2026-03-08T13:39:00.947Z</time></trkpt><trkpt lat="43.640032" lon="12.7093484"><ele>367.0</ele><time>2026-03-08T13:39:02.945Z</time></trkpt><trkpt lat="43.6400959" lon="12.7092407"><ele>367.0</ele><time>2026-03-08T13:39:04.946Z</time></trkpt><trkpt lat="43.6401655" lon="12.7091509"><ele>367.0</ele><time>2026-03-08T13:39:06.946Z</time></trkpt><trkpt lat="43.6402286" lon="12.709023"><ele>365.8</ele><time>2026-03-08T13:39:08.946Z</time></trkpt><trkpt lat="43.6402757" lon="12.7089071"><ele>364.6</ele><time>2026-03-08T13:39:10.946Z</time></trkpt><trkpt lat="43.6403263" lon="12.7087935"><ele>363.40000000000003</ele><time>2026-03-08T13:39:12.946Z</time></trkpt><trkpt lat="43.640378" lon="12.7087003"><ele>362.20000000000005</ele><time>2026-03-08T13:39:14.945Z</time></trkpt><trkpt lat="43.6404333" lon="12.7087617"><ele>361.0</ele><time>2026-03-08T13:39:17.946Z</time></trkpt><trkpt lat="43.6403762" lon="12.7088897"><ele>361.0</ele><time>2026-03-08T13:39:19.946Z</time></trkpt><trkpt lat="43.6403234" lon="12.7089708"><ele>361.0</ele><time>2026-03-08T13:39:20.945Z</time></trkpt><trkpt lat="43.6402675" lon="12.7090921"><ele>361.0</ele><time>2026-03-08T13:39:21.945Z</time></trkpt><trkpt lat="43.6402209" lon="12.7092258"><ele>361.0</ele><time>2026-03-08T13:39:22.947Z</time></trkpt><trkpt lat="43.6401781" lon="12.7093502"><ele>361.0</ele><time>2026-03-08T13:39:23.946Z</time></trkpt><trkpt lat="43.6401409" lon="12.7094667"><ele>362.0</ele><time>2026-03-08T13:39:24.947Z</time></trkpt><trkpt lat="43.6401117" lon="12.7095715"><ele>363.0</ele><time>2026-03-08T13:39:25.946Z</time></trkpt><trkpt lat="43.6401048" lon="12.7096831"><ele>364.0</ele><time>2026-03-08T13:39:26.946Z</time></trkpt><trkpt lat="43.6401207" lon="12.7097751"><ele>365.0</ele><time>2026-03-08T13:39:27.946Z</time></trkpt><trkpt lat="43.6401682" lon="12.7098615"><ele>366.0</ele><time>2026-03-08T13:39:28.947Z</time></trkpt><trkpt lat="43.6402397" lon="12.7099349"><ele>367.0</ele><time>2026-03-08T13:39:29.946Z</time></trkpt><trkpt lat="43.6403287" lon="12.7100056"><ele>368.0</ele><time>2026-03-08T13:39:30.947Z</time></trkpt><trkpt lat="43.6404298" lon="12.7100734"><ele>369.0</ele><time>2026-03-08T13:39:31.946Z</time></trkpt><trkpt lat="43.6405343" lon="12.7101407"><ele>370.0</ele><time>2026-03-08T13:39:32.946Z</time></trkpt><trkpt lat="43.6406512" lon="12.7102044"><ele>371.0</ele><time>2026-03-08T13:39:33.945Z</time></trkpt><trkpt lat="43.6407584" lon="12.7102759"><ele>371.0</ele><time>2026-03-08T13:39:34.945Z</time></trkpt><trkpt lat="43.6408615" lon="12.7103518"><ele>371.0</ele><time>2026-03-08T13:39:35.946Z</time></trkpt><trkpt lat="43.6409598" lon="12.7104224"><ele>371.0</ele><time>2026-03-08T13:39:36.946Z</time></trkpt><trkpt lat="43.6410608" lon="12.7104768"><ele>371.0</ele><time>2026-03-08T13:39:37.946Z</time></trkpt><trkpt lat="43.6411521" lon="12.7105055"><ele>371.0</ele><time>2026-03-08T13:39:38.946Z</time></trkpt><trkpt lat="43.6412336" lon="12.7105111"><ele>373.4</ele><time>2026-03-08T13:39:39.946Z</time></trkpt><trkpt lat="43.6413355" lon="12.7104913"><ele>375.8</ele><time>2026-03-08T13:39:40.946Z</time></trkpt><trkpt lat="43.6414356" lon="12.7105072"><ele>378.2</ele><time>2026-03-08T13:39:41.946Z</time></trkpt><trkpt lat="43.6415322" lon="12.71051"><ele>380.59999999999997</ele><time>2026-03-08T13:39:42.945Z</time></trkpt><trkpt lat="43.64163" lon="12.7105028"><ele>383.0</ele><time>2026-03-08T13:39:43.946Z</time></trkpt><trkpt lat="43.6417231" lon="12.7104949"><ele>383.0</ele><time>2026-03-08T13:39:44.946Z</time></trkpt><trkpt lat="43.6418035" lon="12.7104775"><ele>383.0</ele><time>2026-03-08T13:39:45.946Z</time></trkpt><trkpt lat="43.6418754" lon="12.7104655"><ele>383.0</ele><time>2026-03-08T13:39:46.947Z</time></trkpt><trkpt lat="43.6419259" lon="12.7103494"><ele>383.0</ele><time>2026-03-08T13:39:48.946Z</time></trkpt><trkpt lat="43.6419136" lon="12.7102311"><ele>383.0</ele><time>2026-03-08T13:39:50.947Z</time></trkpt><trkpt lat="43.6418358" lon="12.7102771"><ele>383.0</ele><time>2026-03-08T13:39:51.947Z</time></trkpt><trkpt lat="43.6417616" lon="12.7102998"><ele>383.0</ele><time>2026-03-08T13:39:52.946Z</time></trkpt><trkpt lat="43.6416842" lon="12.7103252"><ele>383.0</ele><time>2026-03-08T13:39:53.947Z</time></trkpt><trkpt lat="43.6415986" lon="12.7103298"><ele>383.0</ele><time>2026-03-08T13:39:54.945Z</time></trkpt><trkpt lat="43.6415145" lon="12.7103138"><ele>383.0</ele><time>2026-03-08T13:39:55.946Z</time></trkpt><trkpt lat="43.6414339" lon="12.7102744"><ele>383.0</ele><time>2026-03-08T13:39:56.945Z</time></trkpt><trkpt lat="43.641354" lon="12.7102375"><ele>383.0</ele><time>2026-03-08T13:39:57.947Z</time></trkpt><trkpt lat="43.641274" lon="12.710195"><ele>385.5</ele><time>2026-03-08T13:39:58.947Z</time></trkpt><trkpt lat="43.641199" lon="12.7101372"><ele>388.0</ele><time>2026-03-08T13:39:59.946Z</time></trkpt><trkpt lat="43.6411408" lon="12.7100451"><ele>390.5</ele><time>2026-03-08T13:40:00.945Z</time></trkpt><trkpt lat="43.6410889" lon="12.7099498"><ele>393.0</ele><time>2026-03-08T13:40:01.945Z</time></trkpt><trkpt lat="43.6410355" lon="12.7098728"><ele>395.49999999999994</ele><time>2026-03-08T13:40:02.945Z</time></trkpt><trkpt lat="43.6409816" lon="12.7097762"><ele>398.0</ele><time>2026-03-08T13:40:03.946Z</time></trkpt><trkpt lat="43.6409297" lon="12.7096853"><ele>398.0</ele><time>2026-03-08T13:40:04.945Z</time></trkpt><trkpt lat="43.6409018" lon="12.7095638"><ele>398.0</ele><time>2026-03-08T13:40:05.946Z</time></trkpt><trkpt lat="43.6409025" lon="12.7094455"><ele>398.0</ele><time>2026-03-08T13:40:06.946Z</time></trkpt><trkpt lat="43.6409279" lon="12.7093171"><ele>398.0</ele><time>2026-03-08T13:40:07.945Z</time></trkpt><trkpt lat="43.6409689" lon="12.7091897"><ele>398.0</ele><time>2026-03-08T13:40:08.945Z</time></trkpt><trkpt lat="43.6410091" lon="12.7090769"><ele>399.2</ele><time>2026-03-08T13:40:09.947Z</time></trkpt><trkpt lat="43.6410525" lon="12.7089599"><ele>400.4</ele><time>2026-03-08T13:40:10.945Z</time></trkpt><trkpt lat="43.6411006" lon="12.7088432"><ele>401.59999999999997</ele><time>2026-03-08T13:40:11.946Z</time></trkpt><trkpt lat="43.6411528" lon="12.7087304"><ele>402.79999999999995</ele><time>2026-03-08T13:40:12.945Z</time></trkpt><trkpt lat="43.641213" lon="12.7086283"><ele>404.0</ele><time>2026-03-08T13:40:13.946Z</time></trkpt><trkpt lat="43.6412637" lon="12.708528"><ele>409.49999999999994</ele><time>2026-03-08T13:40:14.946Z</time></trkpt><trkpt lat="43.6413149" lon="12.7084309"><ele>415.0</ele><time>2026-03-08T13:40:15.945Z</time></trkpt><trkpt lat="43.6413705" lon="12.7083338"><ele>420.5</ele><time>2026-03-08T13:40:16.947Z</time></trkpt><trkpt lat="43.6414265" lon="12.7082394"><ele>426.0</ele><time>2026-03-08T13:40:17.946Z</time></trkpt><trkpt lat="43.6414782" lon="12.7081473"><ele>431.49999999999994</ele><time>2026-03-08T13:40:18.947Z</time></trkpt><trkpt lat="43.6415361" lon="12.7080631"><ele>437.0</ele><time>2026-03-08T13:40:19.947Z</time></trkpt><trkpt lat="43.6415907" lon="12.7079672"><ele>436.99999999999994</ele><time>2026-03-08T13:40:20.946Z</time></trkpt><trkpt lat="43.6416475" lon="12.7078825"><ele>437.0</ele><time>2026-03-08T13:40:21.946Z</time></trkpt><trkpt lat="43.6416978" lon="12.7077836"><ele>437.0</ele><time>2026-03-08T13:40:22.946Z</time></trkpt><trkpt lat="43.6417437" lon="12.7076832"><ele>437.0</ele><time>2026-03-08T13:40:23.946Z</time></trkpt><trkpt lat="43.641776" lon="12.7075823"><ele>436.99999999999994</ele><time>2026-03-08T13:40:24.946Z</time></trkpt><trkpt lat="43.6418067" lon="12.7074805"><ele>437.0</ele><time>2026-03-08T13:40:25.945Z</time></trkpt><trkpt lat="43.6418346" lon="12.7073946"><ele>437.0</ele><time>2026-03-08T13:40:26.946Z</time></trkpt><trkpt lat="43.6419064" lon="12.7073116"><ele>437.00000000000006</ele><time>2026-03-08T13:40:28.945Z</time></trkpt><trkpt lat="43.6419293" lon="12.7074299"><ele>437.00000000000006</ele><time>2026-03-08T13:40:30.946Z</time></trkpt><trkpt lat="43.6418532" lon="12.707618"><ele>437.0</ele><time>2026-03-08T13:40:32.947Z</time></trkpt><trkpt lat="43.6418151" lon="12.7077474"><ele>437.0</ele><time>2026-03-08T13:40:33.945Z</time></trkpt><trkpt lat="43.6417723" lon="12.7078553"><ele>436.99999999999994</ele><time>2026-03-08T13:40:34.946Z</time></trkpt><trkpt lat="43.6417449" lon="12.7079652"><ele>437.0</ele><time>2026-03-08T13:40:35.945Z</time></trkpt><trkpt lat="43.6417093" lon="12.7080721"><ele>437.0</ele><time>2026-03-08T13:40:36.946Z</time></trkpt><trkpt lat="43.6416697" lon="12.7081747"><ele>437.0</ele><time>2026-03-08T13:40:37.946Z</time></trkpt><trkpt lat="43.6416371" lon="12.7082856"><ele>436.99999999999994</ele><time>2026-03-08T13:40:38.946Z</time></trkpt><trkpt lat="43.6416096" lon="12.7083962"><ele>437.0</ele><time>2026-03-08T13:40:39.946Z</time></trkpt><trkpt lat="43.6415784" lon="12.7084837"><ele>437.0</ele><time>2026-03-08T13:40:40.947Z</time></trkpt><trkpt lat="43.6415496" lon="12.7085729"><ele>437.0</ele><time>2026-03-08T13:40:41.946Z</time></trkpt><trkpt lat="43.6415177" lon="12.7086628"><ele>437.0</ele><time>2026-03-08T13:40:42.945Z</time></trkpt><trkpt lat="43.6414862" lon="12.7087464"><ele>437.0</ele><time>2026-03-08T13:40:43.946Z</time></trkpt><trkpt lat="43.6414582" lon="12.7088331"><ele>437.0</ele><time>2026-03-08T13:40:44.946Z</time></trkpt><trkpt lat="43.6414445" lon="12.7089302"><ele>437.0</ele><time>2026-03-08T13:40:45.946Z</time></trkpt><trkpt lat="43.6414377" lon="12.7090197"><ele>437.0</ele><time>2026-03-08T13:40:46.946Z</time></trkpt><trkpt lat="43.6414329" lon="12.7091576"><ele>437.66666666666663</ele><time>2026-03-08T13:40:47.945Z</time></trkpt><trkpt lat="43.6414515" lon="12.7092633"><ele>438.3333333333333</ele><time>2026-03-08T13:40:48.946Z</time></trkpt><trkpt lat="43.6414957" lon="12.7093511"><ele>439.0</ele><time>2026-03-08T13:40:49.947Z</time></trkpt><trkpt lat="43.6415583" lon="12.7094009"><ele>439.66666666666663</ele><time>2026-03-08T13:40:50.946Z</time></trkpt><trkpt lat="43.641634" lon="12.7094366"><ele>440.3333333333333</ele><time>2026-03-08T13:40:51.946Z</time></trkpt><trkpt lat="43.6417204" lon="12.7094276"><ele>441.0</ele><time>2026-03-08T13:40:52.946Z</time></trkpt><trkpt lat="43.6418081" lon="12.7093998"><ele>441.0</ele><time>2026-03-08T13:40:53.946Z</time></trkpt><trkpt lat="43.6419034" lon="12.7093464"><ele>441.0</ele><time>2026-03-08T13:40:54.947Z</time></trkpt><trkpt lat="43.6420027" lon="12.7092887"><ele>441.0</ele><time>2026-03-08T13:40:55.946Z</time></trkpt><trkpt lat="43.6421236" lon="12.7092399"><ele>441.0</ele><time>2026-03-08T13:40:56.947Z</time></trkpt><trkpt lat="43.6422571" lon="12.7092052"><ele>445.0</ele><time>2026-03-08T13:40:57.946Z</time></trkpt><trkpt lat="43.64238" lon="12.7091611"><ele>449.0</ele><time>2026-03-08T13:40:58.946Z</time></trkpt><trkpt lat="43.6424957" lon="12.7091254"><ele>453.0</ele><time>2026-03-08T13:40:59.946Z</time></trkpt><trkpt lat="43.6426262" lon="12.7091103"><ele>457.0</ele><time>2026-03-08T13:41:00.946Z</time></trkpt><trkpt lat="43.6427565" lon="12.7091096"><ele>459.75</ele><time>2026-03-08T13:41:01.945Z</time></trkpt><trkpt lat="43.6428868" lon="12.7091056"><ele>462.5</ele><time>2026-03-08T13:41:02.946Z</time></trkpt><trkpt lat="43.6430104" lon="12.709128"><ele>465.25</ele><time>2026-03-08T13:41:03.946Z</time></trkpt><trkpt lat="43.6431386" lon="12.7091362"><ele>468.0</ele><time>2026-03-08T13:41:04.945Z</time></trkpt><trkpt lat="43.6432602" lon="12.7091691"><ele>468.0</ele><time>2026-03-08T13:41:05.945Z</time></trkpt><trkpt lat="43.6433821" lon="12.7092042"><ele>468.0</ele><time>2026-03-08T13:41:06.947Z</time></trkpt><trkpt lat="43.6435165" lon="12.7092377"><ele>468.0</ele><time>2026-03-08T13:41:07.946Z</time></trkpt><trkpt lat="43.6436443" lon="12.7092848"><ele>468.0</ele><time>2026-03-08T13:41:08.946Z</time></trkpt><trkpt lat="43.6437684" lon="12.7093265"><ele>462.75</ele><time>2026-03-08T13:41:09.947Z</time></trkpt><trkpt lat="43.6438928" lon="12.7093548"><ele>457.5</ele><time>2026-03-08T13:41:10.946Z</time></trkpt><trkpt lat="43.6440108" lon="12.7094051"><ele>452.25</ele><time>2026-03-08T13:41:11.947Z</time></trkpt><trkpt lat="43.6441287" lon="12.7094594"><ele>447.0</ele><time>2026-03-08T13:41:12.946Z</time></trkpt><trkpt lat="43.6442446" lon="12.7095162"><ele>447.0</ele><time>2026-03-08T13:41:13.946Z</time></trkpt><trkpt lat="43.6443535" lon="12.7095539"><ele>447.0</ele><time>2026-03-08T13:41:14.946Z</time></trkpt><trkpt lat="43.6444652" lon="12.7096179"><ele>447.0</ele><time>2026-03-08T13:41:15.946Z</time></trkpt><trkpt lat="43.6445847" lon="12.7096546"><ele>447.0</ele><time>2026-03-08T13:41:16.946Z</time></trkpt><trkpt lat="43.6446981" lon="12.7096723"><ele>454.75</ele><time>2026-03-08T13:41:17.946Z</time></trkpt><trkpt lat="43.6448102" lon="12.70974"><ele>462.5</ele><time>2026-03-08T13:41:18.946Z</time></trkpt><trkpt lat="43.6449058" lon="12.7098167"><ele>470.25</ele><time>2026-03-08T13:41:19.947Z</time></trkpt><trkpt lat="43.6450085" lon="12.7098994"><ele>478.0</ele><time>2026-03-08T13:41:20.946Z</time></trkpt><trkpt lat="43.6451157" lon="12.7099685"><ele>478.0</ele><time>2026-03-08T13:41:21.946Z</time></trkpt><trkpt lat="43.6452277" lon="12.7100044"><ele>477.99999999999994</ele><time>2026-03-08T13:41:22.946Z</time></trkpt><trkpt lat="43.6453334" lon="12.7100445"><ele>477.99999999999994</ele><time>2026-03-08T13:41:23.946Z</time></trkpt><trkpt lat="43.6454366" lon="12.7101048"><ele>478.0</ele><time>2026-03-08T13:41:24.947Z</time></trkpt><trkpt lat="43.6455305" lon="12.7101792"><ele>478.0</ele><time>2026-03-08T13:41:25.945Z</time></trkpt><trkpt lat="43.6456212" lon="12.7102868"><ele>478.75</ele><time>2026-03-08T13:41:26.947Z</time></trkpt><trkpt lat="43.6457258" lon="12.7103728"><ele>479.5</ele><time>2026-03-08T13:41:27.946Z</time></trkpt><trkpt lat="43.6458362" lon="12.7104902"><ele>480.25</ele><time>2026-03-08T13:41:28.946Z</time></trkpt><trkpt lat="43.6459506" lon="12.7105881"><ele>481.0</ele><time>2026-03-08T13:41:29.946Z</time></trkpt><trkpt lat="43.6460639" lon="12.7106821"><ele>480.8</ele><time>2026-03-08T13:41:30.946Z</time></trkpt><trkpt lat="43.6461621" lon="12.7107793"><ele>480.6</ele><time>2026-03-08T13:41:31.946Z</time></trkpt><trkpt lat="43.6462404" lon="12.7108613"><ele>480.4</ele><time>2026-03-08T13:41:32.946Z</time></trkpt><trkpt lat="43.6463147" lon="12.7109548"><ele>480.2</ele><time>2026-03-08T13:41:33.945Z</time></trkpt><trkpt lat="43.6463891" lon="12.7110403"><ele>480.0</ele><time>2026-03-08T13:41:34.946Z</time></trkpt><trkpt lat="43.6464522" lon="12.7111249"><ele>480.0</ele><time>2026-03-08T13:41:35.946Z</time></trkpt><trkpt lat="43.6465269" lon="12.7111847"><ele>480.0</ele><time>2026-03-08T13:41:36.945Z</time></trkpt><trkpt lat="43.6466011" lon="12.7112245"><ele>480.0</ele><time>2026-03-08T13:41:37.947Z</time></trkpt><trkpt lat="43.6466818" lon="12.7112343"><ele>480.0</ele><time>2026-03-08T13:41:38.946Z</time></trkpt><trkpt lat="43.6467573" lon="12.7112616"><ele>480.0</ele><time>2026-03-08T13:41:39.947Z</time></trkpt><trkpt lat="43.646845" lon="12.7112947"><ele>480.0</ele><time>2026-03-08T13:41:40.945Z</time></trkpt><trkpt lat="43.6469282" lon="12.7113073"><ele>485.8333333333333</ele><time>2026-03-08T13:41:41.945Z</time></trkpt><trkpt lat="43.647011" lon="12.7113177"><ele>491.66666666666663</ele><time>2026-03-08T13:41:42.946Z</time></trkpt><trkpt lat="43.6470827" lon="12.7113539"><ele>497.5</ele><time>2026-03-08T13:41:43.946Z</time></trkpt><trkpt lat="43.6471621" lon="12.7113896"><ele>503.3333333333333</ele><time>2026-03-08T13:41:44.947Z</time></trkpt><trkpt lat="43.647242" lon="12.7114263"><ele>509.16666666666663</ele><time>2026-03-08T13:41:45.946Z</time></trkpt><trkpt lat="43.6473266" lon="12.7114483"><ele>515.0</ele><time>2026-03-08T13:41:46.947Z</time></trkpt><trkpt lat="43.6474061" lon="12.7115108"><ele>515.0</ele><time>2026-03-08T13:41:47.945Z</time></trkpt><trkpt lat="43.6475011" lon="12.7115561"><ele>515.0</ele><time>2026-03-08T13:41:48.946Z</time></trkpt><trkpt lat="43.6475953" lon="12.711619"><ele>515.0</ele><time>2026-03-08T13:41:49.947Z</time></trkpt><trkpt lat="43.6476761" lon="12.7116841"><ele>515.0</ele><time>2026-03-08T13:41:50.947Z</time></trkpt><trkpt lat="43.647747" lon="12.7117644"><ele>515.0</ele><time>2026-03-08T13:41:51.946Z</time></trkpt><trkpt lat="43.6477958" lon="12.7118505"><ele>513.6666666666666</ele><time>2026-03-08T13:41:52.947Z</time></trkpt><trkpt lat="43.647815" lon="12.7119593"><ele>512.3333333333333</ele><time>2026-03-08T13:41:53.947Z</time></trkpt><trkpt lat="43.6478089" lon="12.7120803"><ele>511.0</ele><time>2026-03-08T13:41:54.946Z</time></trkpt><trkpt lat="43.6477971" lon="12.7122012"><ele>509.66666666666663</ele><time>2026-03-08T13:41:55.946Z</time></trkpt><trkpt lat="43.6477677" lon="12.7123234"><ele>508.3333333333333</ele><time>2026-03-08T13:41:56.947Z</time></trkpt><trkpt lat="43.6477206" lon="12.7124419"><ele>507.0</ele><time>2026-03-08T13:41:57.945Z</time></trkpt><trkpt lat="43.6476566" lon="12.7125446"><ele>507.0</ele><time>2026-03-08T13:41:58.947Z</time></trkpt><trkpt lat="43.6475894" lon="12.712638"><ele>507.00000000000006</ele><time>2026-03-08T13:41:59.946Z</time></trkpt><trkpt lat="43.6475421" lon="12.712744"><ele>507.00000000000006</ele><time>2026-03-08T13:42:00.946Z</time></trkpt><trkpt lat="43.6475071" lon="12.7128743"><ele>507.0</ele><time>2026-03-08T13:42:01.946Z</time></trkpt><trkpt lat="43.6474666" lon="12.7130042"><ele>507.0</ele><time>2026-03-08T13:42:02.946Z</time></trkpt><trkpt lat="43.6474339" lon="12.7131359"><ele>510.20000000000005</ele><time>2026-03-08T13:42:03.946Z</time></trkpt><trkpt lat="43.6473921" lon="12.7132601"><ele>513.4000000000001</ele><time>2026-03-08T13:42:04.947Z</time></trkpt><trkpt lat="43.6473458" lon="12.713379"><ele>516.5999999999999</ele><time>2026-03-08T13:42:05.946Z</time></trkpt><trkpt lat="43.6472967" lon="12.7135053"><ele>519.8</ele><time>2026-03-08T13:42:06.946Z</time></trkpt><trkpt lat="43.6472463" lon="12.7136278"><ele>523.0</ele><time>2026-03-08T13:42:07.946Z</time></trkpt><trkpt lat="43.6472024" lon="12.7137266"><ele>526.8</ele><time>2026-03-08T13:42:08.947Z</time></trkpt><trkpt lat="43.64716" lon="12.7138511"><ele>530.5999999999999</ele><time>2026-03-08T13:42:09.945Z</time></trkpt><trkpt lat="43.6471152" lon="12.7139744"><ele>534.4000000000001</ele><time>2026-03-08T13:42:10.945Z</time></trkpt><trkpt lat="43.6470679" lon="12.7140885"><ele>538.2</ele><time>2026-03-08T13:42:11.946Z</time></trkpt><trkpt lat="43.6470121" lon="12.7141957"><ele>542.0</ele><time>2026-03-08T13:42:12.946Z</time></trkpt><trkpt lat="43.6469469" lon="12.7142996"><ele>537.8000000000001</ele><time>2026-03-08T13:42:13.946Z</time></trkpt><trkpt lat="43.6468832" lon="12.7144098"><ele>533.6</ele><time>2026-03-08T13:42:14.946Z</time></trkpt><trkpt lat="43.6468225" lon="12.714527"><ele>529.4000000000001</ele><time>2026-03-08T13:42:15.945Z</time></trkpt><trkpt lat="43.6467597" lon="12.7146322"><ele>525.2</ele><time>2026-03-08T13:42:16.946Z</time></trkpt><trkpt lat="43.6467016" lon="12.7147474"><ele>521.0</ele><time>2026-03-08T13:42:17.946Z</time></trkpt><trkpt lat="43.646658" lon="12.7148605"><ele>521.0</ele><time>2026-03-08T13:42:18.946Z</time></trkpt><trkpt lat="43.6466201" lon="12.7149595"><ele>521.0</ele><time>2026-03-08T13:42:19.946Z</time></trkpt><trkpt lat="43.6465912" lon="12.7150467"><ele>521.0</ele><time>2026-03-08T13:42:20.946Z</time></trkpt><trkpt lat="43.6465818" lon="12.7151459"><ele>521.0</ele><time>2026-03-08T13:42:21.946Z</time></trkpt><trkpt lat="43.6466424" lon="12.7152953"><ele>521.0</ele><time>2026-03-08T13:42:23.945Z</time></trkpt><trkpt lat="43.6466904" lon="12.7153722"><ele>521.0</ele><time>2026-03-08T13:42:24.946Z</time></trkpt><trkpt lat="43.6467429" lon="12.7154436"><ele>520.6666666666666</ele><time>2026-03-08T13:42:25.946Z</time></trkpt><trkpt lat="43.6467911" lon="12.7155222"><ele>520.3333333333333</ele><time>2026-03-08T13:42:26.946Z</time></trkpt><trkpt lat="43.646849" lon="12.715602"><ele>520.0</ele><time>2026-03-08T13:42:27.947Z</time></trkpt><trkpt lat="43.6469051" lon="12.7156699"><ele>519.6666666666666</ele><time>2026-03-08T13:42:28.945Z</time></trkpt><trkpt lat="43.6469698" lon="12.7157284"><ele>519.3333333333334</ele><time>2026-03-08T13:42:29.946Z</time></trkpt><trkpt lat="43.647042" lon="12.7157694"><ele>519.0</ele><time>2026-03-08T13:42:30.946Z</time></trkpt><trkpt lat="43.6471181" lon="12.7157855"><ele>522.6666666666666</ele><time>2026-03-08T13:42:31.947Z</time></trkpt><trkpt lat="43.647192" lon="12.7157748"><ele>526.3333333333334</ele><time>2026-03-08T13:42:32.946Z</time></trkpt><trkpt lat="43.6472656" lon="12.715753"><ele>530.0</ele><time>2026-03-08T13:42:33.946Z</time></trkpt><trkpt lat="43.6473383" lon="12.715726"><ele>533.6666666666667</ele><time>2026-03-08T13:42:34.945Z</time></trkpt><trkpt lat="43.6474011" lon="12.7156703"><ele>537.3333333333334</ele><time>2026-03-08T13:42:35.946Z</time></trkpt><trkpt lat="43.6474549" lon="12.7155987"><ele>541.0</ele><time>2026-03-08T13:42:36.945Z</time></trkpt><trkpt lat="43.6475012" lon="12.7155032"><ele>541.0</ele><time>2026-03-08T13:42:37.947Z</time></trkpt><trkpt lat="43.6475481" lon="12.7154056"><ele>541.0</ele><time>2026-03-08T13:42:38.947Z</time></trkpt><trkpt lat="43.6476105" lon="12.7153157"><ele>541.0</ele><time>2026-03-08T13:42:39.945Z</time></trkpt><trkpt lat="43.6476848" lon="12.7152586"><ele>541.0</ele><time>2026-03-08T13:42:40.945Z</time></trkpt><trkpt lat="43.6477642" lon="12.7152381"><ele>541.0</ele><time>2026-03-08T13:42:41.945Z</time></trkpt><trkpt lat="43.6478416" lon="12.7152521"><ele>541.0</ele><time>2026-03-08T13:42:42.946Z</time></trkpt><trkpt lat="43.6479184" lon="12.7152649"><ele>546.0</ele><time>2026-03-08T13:42:43.947Z</time></trkpt><trkpt lat="43.6479998" lon="12.7153104"><ele>551.0</ele><time>2026-03-08T13:42:44.945Z</time></trkpt><trkpt lat="43.6481272" lon="12.7153678"><ele>556.0</ele><time>2026-03-08T13:42:46.945Z</time></trkpt><trkpt lat="43.6482057" lon="12.7154838"><ele>561.0</ele><time>2026-03-08T13:42:48.945Z</time></trkpt><trkpt lat="43.6481829" lon="12.715575"><ele>566.0</ele><time>2026-03-08T13:42:49.946Z</time></trkpt><trkpt lat="43.6481119" lon="12.7156991"><ele>566.0</ele><time>2026-03-08T13:42:51.946Z</time></trkpt><trkpt lat="43.6481025" lon="12.7158086"><ele>566.0</ele><time>2026-03-08T13:42:52.945Z</time></trkpt><trkpt lat="43.6481531" lon="12.7159616"><ele>566.0</ele><time>2026-03-08T13:42:54.945Z</time></trkpt><trkpt lat="43.6481989" lon="12.7160291"><ele>566.0</ele><time>2026-03-08T13:42:55.946Z</time></trkpt><trkpt lat="43.6482486" lon="12.7161042"><ele>566.0</ele><time>2026-03-08T13:42:56.946Z</time></trkpt><trkpt lat="43.6482685" lon="12.7161883"><ele>566.0</ele><time>2026-03-08T13:42:57.946Z</time></trkpt><trkpt lat="43.6482225" lon="12.7163697"><ele>566.5</ele><time>2026-03-08T13:42:59.947Z</time></trkpt><trkpt lat="43.648198" lon="12.7164611"><ele>567.0</ele><time>2026-03-08T13:43:00.946Z</time></trkpt><trkpt lat="43.6481909" lon="12.7165732"><ele>567.5</ele><time>2026-03-08T13:43:01.947Z</time></trkpt><trkpt lat="43.6482034" lon="12.716685"><ele>568.0</ele><time>2026-03-08T13:43:02.946Z</time></trkpt><trkpt lat="43.6482168" lon="12.7168019"><ele>568.5</ele><time>2026-03-08T13:43:03.945Z</time></trkpt><trkpt lat="43.648238" lon="12.7169003"><ele>569.0</ele><time>2026-03-08T13:43:04.947Z</time></trkpt><trkpt lat="43.6482559" lon="12.7170151"><ele>569.25</ele><time>2026-03-08T13:43:05.946Z</time></trkpt><trkpt lat="43.6483346" lon="12.7171532"><ele>569.5</ele><time>2026-03-08T13:43:07.946Z</time></trkpt><trkpt lat="43.6484134" lon="12.7172893"><ele>569.75</ele><time>2026-03-08T13:43:09.946Z</time></trkpt><trkpt lat="43.6485129" lon="12.7174106"><ele>570.0</ele><time>2026-03-08T13:43:11.945Z</time></trkpt><trkpt lat="43.6486047" lon="12.7174959"><ele>573.8333333333334</ele><time>2026-03-08T13:43:13.946Z</time></trkpt><trkpt lat="43.6486756" lon="12.7175649"><ele>577.6666666666666</ele><time>2026-03-08T13:43:15.945Z</time></trkpt><trkpt lat="43.6487717" lon="12.7176282"><ele>581.5</ele><time>2026-03-08T13:43:17.947Z</time></trkpt><trkpt lat="43.6488378" lon="12.71763"><ele>585.3333333333333</ele><time>2026-03-08T13:43:18.946Z</time></trkpt><trkpt lat="43.6489128" lon="12.717611"><ele>589.1666666666666</ele><time>2026-03-08T13:43:19.946Z</time></trkpt><trkpt lat="43.6490003" lon="12.7175862"><ele>593.0</ele><time>2026-03-08T13:43:20.946Z</time></trkpt><trkpt lat="43.6491026" lon="12.7175802"><ele>593.0</ele><time>2026-03-08T13:43:21.946Z</time></trkpt><trkpt lat="43.6491963" lon="12.7175717"><ele>593.0</ele><time>2026-03-08T13:43:22.946Z</time></trkpt><trkpt lat="43.6492997" lon="12.7175433"><ele>593.0</ele><time>2026-03-08T13:43:23.946Z</time></trkpt><trkpt lat="43.6494041" lon="12.7175023"><ele>593.0</ele><time>2026-03-08T13:43:24.946Z</time></trkpt><trkpt lat="43.6495026" lon="12.7174366"><ele>593.0</ele><time>2026-03-08T13:43:25.946Z</time></trkpt><trkpt lat="43.6496515" lon="12.7173808"><ele>596.0</ele><time>2026-03-08T13:43:26.945Z</time></trkpt><trkpt lat="43.6497553" lon="12.7173227"><ele>599.0</ele><time>2026-03-08T13:43:27.946Z</time></trkpt><trkpt lat="43.6498751" lon="12.7172811"><ele>602.0</ele><time>2026-03-08T13:43:28.945Z</time></trkpt><trkpt lat="43.6499856" lon="12.7172529"><ele>605.0</ele><time>2026-03-08T13:43:29.946Z</time></trkpt><trkpt lat="43.650093" lon="12.7172233"><ele>605.0</ele><time>2026-03-08T13:43:30.946Z</time></trkpt><trkpt lat="43.6502097" lon="12.7172054"><ele>605.0</ele><time>2026-03-08T13:43:31.946Z</time></trkpt><trkpt lat="43.6503158" lon="12.7172173"><ele>605.0</ele><time>2026-03-08T13:43:32.947Z</time></trkpt><trkpt lat="43.6504176" lon="12.7172487"><ele>605.0</ele><time>2026-03-08T13:43:33.946Z</time></trkpt><trkpt lat="43.6504998" lon="12.7173028"><ele>605.0</ele><time>2026-03-08T13:43:34.946Z</time></trkpt><trkpt lat="43.6505846" lon="12.717382"><ele>608.6</ele><time>2026-03-08T13:43:35.947Z</time></trkpt><trkpt lat="43.6506538" lon="12.7174885"><ele>612.2</ele><time>2026-03-08T13:43:36.946Z</time></trkpt><trkpt lat="43.6506813" lon="12.7175819"><ele>615.8</ele><time>2026-03-08T13:43:37.946Z</time></trkpt><trkpt lat="43.6506712" lon="12.7177256"><ele>619.4</ele><time>2026-03-08T13:43:39.945Z</time></trkpt><trkpt lat="43.650642" lon="12.7178061"><ele>623.0</ele><time>2026-03-08T13:43:40.946Z</time></trkpt><trkpt lat="43.6505478" lon="12.7179431"><ele>623.0</ele><time>2026-03-08T13:43:42.946Z</time></trkpt><trkpt lat="43.6505181" lon="12.7180968"><ele>623.0</ele><time>2026-03-08T13:43:43.946Z</time></trkpt><trkpt lat="43.6504926" lon="12.718229"><ele>623.0</ele><time>2026-03-08T13:43:44.945Z</time></trkpt><trkpt lat="43.6505255" lon="12.7183545"><ele>623.0</ele><time>2026-03-08T13:43:45.946Z</time></trkpt><trkpt lat="43.6505716" lon="12.7184825"><ele>623.0</ele><time>2026-03-08T13:43:46.946Z</time></trkpt><trkpt lat="43.6506188" lon="12.7186049"><ele>622.6</ele><time>2026-03-08T13:43:47.945Z</time></trkpt><trkpt lat="43.6507066" lon="12.7187078"><ele>622.1999999999999</ele><time>2026-03-08T13:43:48.945Z</time></trkpt><trkpt lat="43.6507884" lon="12.7188134"><ele>621.8</ele><time>2026-03-08T13:43:49.946Z</time></trkpt><trkpt lat="43.6508652" lon="12.7189162"><ele>621.4</ele><time>2026-03-08T13:43:50.946Z</time></trkpt><trkpt lat="43.6509197" lon="12.7190293"><ele>621.0</ele><time>2026-03-08T13:43:51.947Z</time></trkpt><trkpt lat="43.6509333" lon="12.7191544"><ele>621.0</ele><time>2026-03-08T13:43:52.945Z</time></trkpt><trkpt lat="43.6509395" lon="12.7193155"><ele>621.0</ele><time>2026-03-08T13:43:53.946Z</time></trkpt><trkpt lat="43.6509133" lon="12.7194717"><ele>621.0</ele><time>2026-03-08T13:43:54.946Z</time></trkpt><trkpt lat="43.6508892" lon="12.7196286"><ele>621.0</ele><time>2026-03-08T13:43:55.945Z</time></trkpt><trkpt lat="43.6508337" lon="12.7197924"><ele>623.75</ele><time>2026-03-08T13:43:56.946Z</time></trkpt><trkpt lat="43.6507885" lon="12.7199659"><ele>626.5</ele><time>2026-03-08T13:43:57.946Z</time></trkpt><trkpt lat="43.650744" lon="12.7201463"><ele>629.25</ele><time>2026-03-08T13:43:58.945Z</time></trkpt><trkpt lat="43.6506961" lon="12.7203178"><ele>632.0</ele><time>2026-03-08T13:43:59.946Z</time></trkpt><trkpt lat="43.6506198" lon="12.7204814"><ele>634.5</ele><time>2026-03-08T13:44:00.947Z</time></trkpt><trkpt lat="43.6505598" lon="12.7206515"><ele>637.0</ele><time>2026-03-08T13:44:01.946Z</time></trkpt><trkpt lat="43.6504552" lon="12.7206882"><ele>639.5</ele><time>2026-03-08T13:44:02.946Z</time></trkpt><trkpt lat="43.6503765" lon="12.7207942"><ele>642.0</ele><time>2026-03-08T13:44:03.946Z</time></trkpt><trkpt lat="43.650308" lon="12.7208902"><ele>642.0</ele><time>2026-03-08T13:44:04.946Z</time></trkpt><trkpt lat="43.6502546" lon="12.7209564"><ele>642.0</ele><time>2026-03-08T13:44:05.945Z</time></trkpt><trkpt lat="43.6502157" lon="12.7210882"><ele>642.0</ele><time>2026-03-08T13:44:07.945Z</time></trkpt><trkpt lat="43.6502576" lon="12.721159"><ele>642.0</ele><time>2026-03-08T13:44:09.946Z</time></trkpt><trkpt lat="43.6503489" lon="12.7211368"><ele>642.0</ele><time>2026-03-08T13:44:12.946Z</time></trkpt><trkpt lat="43.6504092" lon="12.7210469"><ele>642.0</ele><time>2026-03-08T13:44:14.946Z</time></trkpt><trkpt lat="43.650511" lon="12.7209629"><ele>642.0</ele><time>2026-03-08T13:44:16.946Z</time></trkpt><trkpt lat="43.6505689" lon="12.7208885"><ele>642.0</ele><time>2026-03-08T13:44:17.946Z</time></trkpt><trkpt lat="43.6506663" lon="12.720832"><ele>642.0</ele><time>2026-03-08T13:44:18.945Z</time></trkpt><trkpt lat="43.6507544" lon="12.7207777"><ele>642.0</ele><time>2026-03-08T13:44:19.946Z</time></trkpt><trkpt lat="43.6508647" lon="12.7206912"><ele>642.0</ele><time>2026-03-08T13:44:20.947Z</time></trkpt><trkpt lat="43.65098" lon="12.7206008"><ele>642.0</ele><time>2026-03-08T13:44:21.946Z</time></trkpt><trkpt lat="43.6510765" lon="12.7205015"><ele>642.0</ele><time>2026-03-08T13:44:22.946Z</time></trkpt><trkpt lat="43.6511647" lon="12.720396"><ele>642.0</ele><time>2026-03-08T13:44:23.946Z</time></trkpt><trkpt lat="43.6512434" lon="12.7202876"><ele>642.0</ele><time>2026-03-08T13:44:24.946Z</time></trkpt><trkpt lat="43.6513237" lon="12.7201761"><ele>644.8</ele><time>2026-03-08T13:44:25.946Z</time></trkpt><trkpt lat="43.651401" lon="12.7200763"><ele>647.6</ele><time>2026-03-08T13:44:26.946Z</time></trkpt><trkpt lat="43.6514691" lon="12.7199657"><ele>650.4</ele><time>2026-03-08T13:44:27.946Z</time></trkpt><trkpt lat="43.6515418" lon="12.7198571"><ele>653.1999999999999</ele><time>2026-03-08T13:44:28.947Z</time></trkpt><trkpt lat="43.6515919" lon="12.7197349"><ele>656.0</ele><time>2026-03-08T13:44:29.947Z</time></trkpt><trkpt lat="43.6515958" lon="12.7195704"><ele>656.0</ele><time>2026-03-08T13:44:30.946Z</time></trkpt><trkpt lat="43.6516213" lon="12.7194336"><ele>656.0</ele><time>2026-03-08T13:44:31.946Z</time></trkpt><trkpt lat="43.6516474" lon="12.7193017"><ele>656.0</ele><time>2026-03-08T13:44:32.946Z</time></trkpt><trkpt lat="43.6516629" lon="12.7191785"><ele>656.0</ele><time>2026-03-08T13:44:33.945Z</time></trkpt><trkpt lat="43.6516841" lon="12.7190648"><ele>656.0</ele><time>2026-03-08T13:44:34.945Z</time></trkpt><trkpt lat="43.6517313" lon="12.7189913"><ele>656.0</ele><time>2026-03-08T13:44:35.947Z</time></trkpt><trkpt lat="43.6517756" lon="12.718922"><ele>655.3333333333333</ele><time>2026-03-08T13:44:36.947Z</time></trkpt><trkpt lat="43.6518418" lon="12.7188605"><ele>654.6666666666666</ele><time>2026-03-08T13:44:37.945Z</time></trkpt><trkpt lat="43.6519137" lon="12.7188005"><ele>654.0</ele><time>2026-03-08T13:44:38.945Z</time></trkpt><trkpt lat="43.6519872" lon="12.7187281"><ele>653.3333333333334</ele><time>2026-03-08T13:44:39.948Z</time></trkpt><trkpt lat="43.652068" lon="12.7186443"><ele>652.6666666666667</ele><time>2026-03-08T13:44:40.946Z</time></trkpt><trkpt lat="43.652145" lon="12.7185767"><ele>652.0</ele><time>2026-03-08T13:44:41.947Z</time></trkpt><trkpt lat="43.6522001" lon="12.7185071"><ele>653.6666666666667</ele><time>2026-03-08T13:44:42.946Z</time></trkpt><trkpt lat="43.6522706" lon="12.7184647"><ele>655.3333333333334</ele><time>2026-03-08T13:44:43.946Z</time></trkpt><trkpt lat="43.6523421" lon="12.7184277"><ele>657.0</ele><time>2026-03-08T13:44:44.946Z</time></trkpt><trkpt lat="43.6524164" lon="12.7184137"><ele>658.6666666666666</ele><time>2026-03-08T13:44:45.945Z</time></trkpt><trkpt lat="43.652502" lon="12.7183954"><ele>660.3333333333333</ele><time>2026-03-08T13:44:46.946Z</time></trkpt><trkpt lat="43.652578" lon="12.7183854"><ele>662.0</ele><time>2026-03-08T13:44:47.946Z</time></trkpt><trkpt lat="43.6526667" lon="12.718382"><ele>662.0</ele><time>2026-03-08T13:44:48.947Z</time></trkpt><trkpt lat="43.6527476" lon="12.718391"><ele>662.0</ele><time>2026-03-08T13:44:49.946Z</time></trkpt><trkpt lat="43.6528377" lon="12.7184186"><ele>662.0</ele><time>2026-03-08T13:44:50.946Z</time></trkpt><trkpt lat="43.6529204" lon="12.7184169"><ele>662.0</ele><time>2026-03-08T13:44:51.946Z</time></trkpt><trkpt lat="43.6530158" lon="12.7184337"><ele>662.0</ele><time>2026-03-08T13:44:52.945Z</time></trkpt><trkpt lat="43.6531123" lon="12.7184348"><ele>662.0</ele><time>2026-03-08T13:44:53.945Z</time></trkpt><trkpt lat="43.6532015" lon="12.7184233"><ele>663.0</ele><time>2026-03-08T13:44:54.947Z</time></trkpt><trkpt lat="43.6533121" lon="12.7184418"><ele>664.0</ele><time>2026-03-08T13:44:55.945Z</time></trkpt><trkpt lat="43.6534182" lon="12.7184423"><ele>665.0</ele><time>2026-03-08T13:44:56.945Z</time></trkpt><trkpt lat="43.6535536" lon="12.7184465"><ele>666.0</ele><time>2026-03-08T13:44:57.947Z</time></trkpt><trkpt lat="43.6536792" lon="12.7184373"><ele>666.0</ele><time>2026-03-08T13:44:58.947Z</time></trkpt><trkpt lat="43.6538015" lon="12.7184039"><ele>666.0</ele><time>2026-03-08T13:44:59.946Z</time></trkpt><trkpt lat="43.6539336" lon="12.71839"><ele>666.0</ele><time>2026-03-08T13:45:00.946Z</time></trkpt><trkpt lat="43.6540654" lon="12.718376"><ele>666.0</ele><time>2026-03-08T13:45:01.946Z</time></trkpt><trkpt lat="43.65419" lon="12.7183634"><ele>666.0</ele><time>2026-03-08T13:45:02.945Z</time></trkpt><trkpt lat="43.6543152" lon="12.7183417"><ele>666.0</ele><time>2026-03-08T13:45:03.947Z</time></trkpt><trkpt lat="43.6544441" lon="12.7183195"><ele>666.0</ele><time>2026-03-08T13:45:04.946Z</time></trkpt><trkpt lat="43.6545577" lon="12.718303"><ele>666.0</ele><time>2026-03-08T13:45:05.946Z</time></trkpt><trkpt lat="43.6546837" lon="12.7182935"><ele>666.0</ele><time>2026-03-08T13:45:06.945Z</time></trkpt><trkpt lat="43.6548048" lon="12.7182741"><ele>666.0</ele><time>2026-03-08T13:45:07.946Z</time></trkpt><trkpt lat="43.6549278" lon="12.7182619"><ele>666.0</ele><time>2026-03-08T13:45:08.947Z</time></trkpt><trkpt lat="43.655056" lon="12.7182351"><ele>666.0</ele><time>2026-03-08T13:45:09.946Z</time></trkpt><trkpt lat="43.655191" lon="12.7182149"><ele>666.1999999999999</ele><time>2026-03-08T13:45:10.946Z</time></trkpt><trkpt lat="43.6553013" lon="12.718197"><ele>666.4</ele><time>2026-03-08T13:45:11.946Z</time></trkpt><trkpt lat="43.6554179" lon="12.7181796"><ele>666.6</ele><time>2026-03-08T13:45:12.946Z</time></trkpt><trkpt lat="43.6555084" lon="12.718146"><ele>666.8</ele><time>2026-03-08T13:45:13.946Z</time></trkpt><trkpt lat="43.6556174" lon="12.7180932"><ele>667.0</ele><time>2026-03-08T13:45:14.947Z</time></trkpt><trkpt lat="43.655724" lon="12.7180459"><ele>667.0</ele><time>2026-03-08T13:45:15.946Z</time></trkpt><trkpt lat="43.6558249" lon="12.7179908"><ele>667.0</ele><time>2026-03-08T13:45:16.947Z</time></trkpt><trkpt lat="43.6559029" lon="12.7179336"><ele>667.0</ele><time>2026-03-08T13:45:17.945Z</time></trkpt><trkpt lat="43.6559727" lon="12.7178759"><ele>667.0</ele><time>2026-03-08T13:45:18.945Z</time></trkpt><trkpt lat="43.6559878" lon="12.7177768"><ele>667.0</ele><time>2026-03-08T13:45:19.945Z</time></trkpt><trkpt lat="43.6559577" lon="12.7176398"><ele>670.2857142857143</ele><time>2026-03-08T13:45:21.945Z</time></trkpt><trkpt lat="43.6558936" lon="12.7176073"><ele>673.5714285714286</ele><time>2026-03-08T13:45:22.946Z</time></trkpt><trkpt lat="43.6558259" lon="12.71759"><ele>676.8571428571429</ele><time>2026-03-08T13:45:23.947Z</time></trkpt><trkpt lat="43.6557573" lon="12.7176549"><ele>680.1428571428571</ele><time>2026-03-08T13:45:24.947Z</time></trkpt><trkpt lat="43.6556929" lon="12.7176882"><ele>683.4285714285714</ele><time>2026-03-08T13:45:25.945Z</time></trkpt><trkpt lat="43.6556189" lon="12.7176874"><ele>686.7142857142858</ele><time>2026-03-08T13:45:26.946Z</time></trkpt><trkpt lat="43.6555426" lon="12.7176724"><ele>690.0</ele><time>2026-03-08T13:45:27.947Z</time></trkpt><trkpt lat="43.6554654" lon="12.7176322"><ele>690.0</ele><time>2026-03-08T13:45:28.946Z</time></trkpt><trkpt lat="43.6553689" lon="12.717572"><ele>690.0</ele><time>2026-03-08T13:45:29.947Z</time></trkpt><trkpt lat="43.655266" lon="12.7175013"><ele>690.0</ele><time>2026-03-08T13:45:30.946Z</time></trkpt><trkpt lat="43.6551612" lon="12.7174388"><ele>690.0</ele><time>2026-03-08T13:45:31.946Z</time></trkpt><trkpt lat="43.6550355" lon="12.7173783"><ele>690.75</ele><time>2026-03-08T13:45:32.945Z</time></trkpt><trkpt lat="43.6549056" lon="12.7173149"><ele>691.5</ele><time>2026-03-08T13:45:33.945Z</time></trkpt><trkpt lat="43.65478" lon="12.7172185"><ele>692.25</ele><time>2026-03-08T13:45:34.945Z</time></trkpt><trkpt lat="43.6546454" lon="12.717134"><ele>693.0</ele><time>2026-03-08T13:45:35.946Z</time></trkpt><trkpt lat="43.6545051" lon="12.7170478"><ele>691.3333333333334</ele><time>2026-03-08T13:45:36.946Z</time></trkpt><trkpt lat="43.6543728" lon="12.716953"><ele>689.6666666666667</ele><time>2026-03-08T13:45:37.946Z</time></trkpt><trkpt lat="43.6542387" lon="12.7168605"><ele>688.0</ele><time>2026-03-08T13:45:38.946Z</time></trkpt><trkpt lat="43.6540964" lon="12.7167547"><ele>698.0</ele><time>2026-03-08T13:45:39.946Z</time></trkpt><trkpt lat="43.65396" lon="12.7166608"><ele>708.0</ele><time>2026-03-08T13:45:40.946Z</time></trkpt><trkpt lat="43.6538009" lon="12.716554"><ele>718.0</ele><time>2026-03-08T13:45:41.947Z</time></trkpt><trkpt lat="43.6536633" lon="12.7164441"><ele>715.6666666666667</ele><time>2026-03-08T13:45:42.946Z</time></trkpt><trkpt lat="43.6535396" lon="12.7163137"><ele>713.3333333333334</ele><time>2026-03-08T13:45:43.947Z</time></trkpt><trkpt lat="43.6534101" lon="12.7162646"><ele>711.0</ele><time>2026-03-08T13:45:44.946Z</time></trkpt><trkpt lat="43.65326" lon="12.7161545"><ele>711.0</ele><time>2026-03-08T13:45:45.945Z</time></trkpt><trkpt lat="43.6531406" lon="12.7160701"><ele>711.0</ele><time>2026-03-08T13:45:46.946Z</time></trkpt><trkpt lat="43.6530036" lon="12.7159706"><ele>711.0</ele><time>2026-03-08T13:45:47.946Z</time></trkpt><trkpt lat="43.6528835" lon="12.7158505"><ele>711.0</ele><time>2026-03-08T13:45:48.947Z</time></trkpt><trkpt lat="43.6527609" lon="12.7157295"><ele>714.0</ele><time>2026-03-08T13:45:49.947Z</time></trkpt><trkpt lat="43.6526366" lon="12.7156243"><ele>717.0</ele><time>2026-03-08T13:45:50.945Z</time></trkpt><trkpt lat="43.6525393" lon="12.7155009"><ele>720.0</ele><time>2026-03-08T13:45:51.946Z</time></trkpt><trkpt lat="43.6524609" lon="12.7153642"><ele>723.0</ele><time>2026-03-08T13:45:52.946Z</time></trkpt><trkpt lat="43.6523805" lon="12.7152097"><ele>732.0</ele><time>2026-03-08T13:45:53.945Z</time></trkpt><trkpt lat="43.6523036" lon="12.7150156"><ele>741.0</ele><time>2026-03-08T13:45:54.946Z</time></trkpt><trkpt lat="43.6522076" lon="12.7148501"><ele>750.0</ele><time>2026-03-08T13:45:55.947Z</time></trkpt><trkpt lat="43.6521226" lon="12.7146933"><ele>750.0</ele><time>2026-03-08T13:45:56.945Z</time></trkpt><trkpt lat="43.6520161" lon="12.7145389"><ele>750.0</ele><time>2026-03-08T13:45:57.946Z</time></trkpt><trkpt lat="43.6519186" lon="12.7143823"><ele>750.0</ele><time>2026-03-08T13:45:58.947Z</time></trkpt><trkpt lat="43.6518258" lon="12.714235"><ele>750.0</ele><time>2026-03-08T13:45:59.946Z</time></trkpt><trkpt lat="43.6517572" lon="12.7141027"><ele>748.3333333333334</ele><time>2026-03-08T13:46:00.946Z</time></trkpt><trkpt lat="43.6516933" lon="12.713992"><ele>746.6666666666666</ele><time>2026-03-08T13:46:01.946Z</time></trkpt><trkpt lat="43.6517025" lon="12.7138891"><ele>745.0</ele><time>2026-03-08T13:46:03.946Z</time></trkpt><trkpt lat="43.6517502" lon="12.7138078"><ele>743.3333333333333</ele><time>2026-03-08T13:46:06.946Z</time></trkpt><trkpt lat="43.6518029" lon="12.713882"><ele>741.6666666666666</ele><time>2026-03-08T13:46:10.946Z</time></trkpt><trkpt lat="43.6518563" lon="12.7139496"><ele>740.0</ele><time>2026-03-08T13:46:14.946Z</time></trkpt><trkpt lat="43.6518548" lon="12.7140446"><ele>740.0</ele><time>2026-03-08T13:47:57.946Z</time></trkpt><trkpt lat="43.6518519" lon="12.7139422"><ele>740.0</ele><time>2026-03-08T13:48:04.946Z</time></trkpt><trkpt lat="43.6517984" lon="12.7138405"><ele>740.0</ele><time>2026-03-08T13:48:06.946Z</time></trkpt><trkpt lat="43.6517007" lon="12.7138605"><ele>740.0</ele><time>2026-03-08T13:48:08.946Z</time></trkpt><trkpt lat="43.6516723" lon="12.7139591"><ele>740.0</ele><time>2026-03-08T13:48:10.946Z</time></trkpt><trkpt lat="43.6516763" lon="12.7140746"><ele>740.0</ele><time>2026-03-08T13:48:12.946Z</time></trkpt><trkpt lat="43.6517246" lon="12.7142136"><ele>740.0</ele><time>2026-03-08T13:48:14.946Z</time></trkpt><trkpt lat="43.6517787" lon="12.7142945"><ele>740.0</ele><time>2026-03-08T13:48:15.947Z</time></trkpt><trkpt lat="43.651827" lon="12.7143769"><ele>740.0</ele><time>2026-03-08T13:48:16.946Z</time></trkpt><trkpt lat="43.651877" lon="12.7144677"><ele>740.0</ele><time>2026-03-08T13:48:17.946Z</time></trkpt><trkpt lat="43.6519317" lon="12.7145643"><ele>740.0</ele><time>2026-03-08T13:48:18.945Z</time></trkpt><trkpt lat="43.6519983" lon="12.7146388"><ele>740.0</ele><time>2026-03-08T13:48:19.946Z</time></trkpt><trkpt lat="43.652061" lon="12.7147178"><ele>741.6666666666666</ele><time>2026-03-08T13:48:20.946Z</time></trkpt><trkpt lat="43.6521286" lon="12.7147576"><ele>743.3333333333333</ele><time>2026-03-08T13:48:21.946Z</time></trkpt><trkpt lat="43.6521933" lon="12.7148532"><ele>745.0</ele><time>2026-03-08T13:48:22.946Z</time></trkpt><trkpt lat="43.6522485" lon="12.7149576"><ele>746.6666666666666</ele><time>2026-03-08T13:48:23.947Z</time></trkpt><trkpt lat="43.6522968" lon="12.7150583"><ele>748.3333333333334</ele><time>2026-03-08T13:48:24.946Z</time></trkpt><trkpt lat="43.6523491" lon="12.7151595"><ele>750.0</ele><time>2026-03-08T13:48:25.945Z</time></trkpt><trkpt lat="43.6523991" lon="12.7152531"><ele>745.5</ele><time>2026-03-08T13:48:26.946Z</time></trkpt><trkpt lat="43.6524515" lon="12.7153502"><ele>741.0</ele><time>2026-03-08T13:48:27.946Z</time></trkpt><trkpt lat="43.6524937" lon="12.7154238"><ele>736.5</ele><time>2026-03-08T13:48:28.944Z</time></trkpt><trkpt lat="43.652547" lon="12.715505"><ele>732.0</ele><time>2026-03-08T13:48:29.946Z</time></trkpt><trkpt lat="43.6526048" lon="12.7155811"><ele>727.5</ele><time>2026-03-08T13:48:30.946Z</time></trkpt><trkpt lat="43.6526967" lon="12.7156749"><ele>723.0</ele><time>2026-03-08T13:48:32.946Z</time></trkpt><trkpt lat="43.652752" lon="12.7157202"><ele>721.0</ele><time>2026-03-08T13:48:33.947Z</time></trkpt><trkpt lat="43.6528456" lon="12.7158182"><ele>719.0</ele><time>2026-03-08T13:48:35.946Z</time></trkpt><trkpt lat="43.6529108" lon="12.7158746"><ele>717.0</ele><time>2026-03-08T13:48:36.946Z</time></trkpt><trkpt lat="43.6529739" lon="12.7159233"><ele>715.0</ele><time>2026-03-08T13:48:37.946Z</time></trkpt><trkpt lat="43.6530597" lon="12.7159821"><ele>713.0</ele><time>2026-03-08T13:48:38.946Z</time></trkpt><trkpt lat="43.6531155" lon="12.7160435"><ele>711.0</ele><time>2026-03-08T13:48:39.947Z</time></trkpt><trkpt lat="43.6531727" lon="12.7160992"><ele>711.0</ele><time>2026-03-08T13:48:40.946Z</time></trkpt><trkpt lat="43.6532785" lon="12.7161741"><ele>711.0</ele><time>2026-03-08T13:48:42.946Z</time></trkpt><trkpt lat="43.6533399" lon="12.7162444"><ele>711.0</ele><time>2026-03-08T13:48:44.946Z</time></trkpt><trkpt lat="43.6534027" lon="12.7162708"><ele>711.0</ele><time>2026-03-08T13:48:46.945Z</time></trkpt><trkpt lat="43.6534802" lon="12.7162991"><ele>711.0</ele><time>2026-03-08T13:48:49.947Z</time></trkpt><trkpt lat="43.6535436" lon="12.7162797"><ele>711.0</ele><time>2026-03-08T13:48:52.945Z</time></trkpt><trkpt lat="43.6534373" lon="12.7162917"><ele>711.0</ele><time>2026-03-08T13:48:58.946Z</time></trkpt><trkpt lat="43.6533769" lon="12.7162613"><ele>711.0</ele><time>2026-03-08T13:48:59.946Z</time></trkpt><trkpt lat="43.6533178" lon="12.7162032"><ele>711.0</ele><time>2026-03-08T13:49:00.946Z</time></trkpt><trkpt lat="43.6532502" lon="12.7161478"><ele>711.0</ele><time>2026-03-08T13:49:01.946Z</time></trkpt><trkpt lat="43.653165" lon="12.7160727"><ele>711.0</ele><time>2026-03-08T13:49:02.946Z</time></trkpt><trkpt lat="43.6530636" lon="12.7160091"><ele>711.0</ele><time>2026-03-08T13:49:03.946Z</time></trkpt><trkpt lat="43.6529615" lon="12.71592"><ele>714.0</ele><time>2026-03-08T13:49:04.947Z</time></trkpt><trkpt lat="43.6528455" lon="12.7157809"><ele>717.0</ele><time>2026-03-08T13:49:05.946Z</time></trkpt><trkpt lat="43.6527506" lon="12.7156901"><ele>720.0</ele><time>2026-03-08T13:49:06.946Z</time></trkpt><trkpt lat="43.6526497" lon="12.7156056"><ele>723.0</ele><time>2026-03-08T13:49:07.947Z</time></trkpt><trkpt lat="43.6525597" lon="12.7154918"><ele>723.0</ele><time>2026-03-08T13:49:08.945Z</time></trkpt><trkpt lat="43.6524724" lon="12.7153812"><ele>723.0</ele><time>2026-03-08T13:49:09.946Z</time></trkpt><trkpt lat="43.6523874" lon="12.7152517"><ele>723.0</ele><time>2026-03-08T13:49:10.945Z</time></trkpt><trkpt lat="43.6523161" lon="12.7151362"><ele>723.0</ele><time>2026-03-08T13:49:11.946Z</time></trkpt><trkpt lat="43.652252" lon="12.7150117"><ele>722.4</ele><time>2026-03-08T13:49:12.945Z</time></trkpt><trkpt lat="43.6521831" lon="12.7148843"><ele>721.8</ele><time>2026-03-08T13:49:13.945Z</time></trkpt><trkpt lat="43.6521007" lon="12.7148125"><ele>721.2</ele><time>2026-03-08T13:49:14.946Z</time></trkpt><trkpt lat="43.6520575" lon="12.7147097"><ele>720.6</ele><time>2026-03-08T13:49:15.946Z</time></trkpt><trkpt lat="43.6519908" lon="12.7146058"><ele>720.0</ele><time>2026-03-08T13:49:16.945Z</time></trkpt><trkpt lat="43.651929" lon="12.7145049"><ele>723.3333333333334</ele><time>2026-03-08T13:49:17.946Z</time></trkpt><trkpt lat="43.6518743" lon="12.7144017"><ele>726.6666666666666</ele><time>2026-03-08T13:49:18.946Z</time></trkpt><trkpt lat="43.651819" lon="12.7143067"><ele>730.0</ele><time>2026-03-08T13:49:19.947Z</time></trkpt><trkpt lat="43.6517572" lon="12.7142047"><ele>733.3333333333333</ele><time>2026-03-08T13:49:20.946Z</time></trkpt><trkpt lat="43.6517059" lon="12.7141162"><ele>736.6666666666666</ele><time>2026-03-08T13:49:21.947Z</time></trkpt><trkpt lat="43.6516769" lon="12.7140334"><ele>740.0</ele><time>2026-03-08T13:49:22.946Z</time></trkpt><trkpt lat="43.6517015" lon="12.7139087"><ele>740.0</ele><time>2026-03-08T13:49:24.946Z</time></trkpt><trkpt lat="43.6517991" lon="12.7139119"><ele>740.0</ele><time>2026-03-08T13:49:26.945Z</time></trkpt><trkpt lat="43.6518853" lon="12.7140232"><ele>740.0</ele><time>2026-03-08T13:49:28.947Z</time></trkpt><trkpt lat="43.6519511" lon="12.7141289"><ele>740.0</ele><time>2026-03-08T13:49:29.946Z</time></trkpt><trkpt lat="43.6520306" lon="12.7142374"><ele>740.0</ele><time>2026-03-08T13:49:30.946Z</time></trkpt><trkpt lat="43.6521265" lon="12.7143314"><ele>742.5</ele><time>2026-03-08T13:49:31.947Z</time></trkpt><trkpt lat="43.6522548" lon="12.7144312"><ele>745.0</ele><time>2026-03-08T13:49:32.946Z</time></trkpt><trkpt lat="43.6523795" lon="12.7145126"><ele>747.5</ele><time>2026-03-08T13:49:33.946Z</time></trkpt><trkpt lat="43.652507" lon="12.7145862"><ele>750.0</ele><time>2026-03-08T13:49:34.946Z</time></trkpt><trkpt lat="43.6526456" lon="12.714661"><ele>750.0</ele><time>2026-03-08T13:49:35.947Z</time></trkpt><trkpt lat="43.6527677" lon="12.7147361"><ele>750.0</ele><time>2026-03-08T13:49:36.947Z</time></trkpt><trkpt lat="43.6529103" lon="12.7147936"><ele>750.0</ele><time>2026-03-08T13:49:37.946Z</time></trkpt><trkpt lat="43.6530138" lon="12.714846"><ele>750.0</ele><time>2026-03-08T13:49:38.946Z</time></trkpt><trkpt lat="43.653117" lon="12.7148688"><ele>754.2</ele><time>2026-03-08T13:49:39.947Z</time></trkpt><trkpt lat="43.6532265" lon="12.7148962"><ele>758.4</ele><time>2026-03-08T13:49:40.946Z</time></trkpt><trkpt lat="43.6533165" lon="12.714911"><ele>762.5999999999999</ele><time>2026-03-08T13:49:41.946Z</time></trkpt><trkpt lat="43.6534291" lon="12.7149393"><ele>766.8</ele><time>2026-03-08T13:49:42.947Z</time></trkpt><trkpt lat="43.6535362" lon="12.7149549"><ele>771.0</ele><time>2026-03-08T13:49:43.945Z</time></trkpt><trkpt lat="43.6536476" lon="12.7149849"><ele>775.25</ele><time>2026-03-08T13:49:44.946Z</time></trkpt><trkpt lat="43.6537532" lon="12.7150004"><ele>779.5</ele><time>2026-03-08T13:49:45.946Z</time></trkpt><trkpt lat="43.6538571" lon="12.7150366"><ele>783.75</ele><time>2026-03-08T13:49:46.946Z</time></trkpt><trkpt lat="43.6539654" lon="12.7150598"><ele>788.0</ele><time>2026-03-08T13:49:47.947Z</time></trkpt><trkpt lat="43.6541135" lon="12.7150753"><ele>788.0</ele><time>2026-03-08T13:49:49.947Z</time></trkpt><trkpt lat="43.6543142" lon="12.7151374"><ele>788.0</ele><time>2026-03-08T13:49:51.947Z</time></trkpt><trkpt lat="43.6544305" lon="12.7151789"><ele>788.0</ele><time>2026-03-08T13:49:52.946Z</time></trkpt><trkpt lat="43.6545369" lon="12.7152045"><ele>788.0</ele><time>2026-03-08T13:49:53.946Z</time></trkpt><trkpt lat="43.6546259" lon="12.7152121"><ele>791.8</ele><time>2026-03-08T13:49:54.946Z</time></trkpt><trkpt lat="43.6547278" lon="12.7152276"><ele>795.5999999999999</ele><time>2026-03-08T13:49:55.946Z</time></trkpt><trkpt lat="43.6548508" lon="12.7152609"><ele>799.4000000000001</ele><time>2026-03-08T13:49:56.946Z</time></trkpt><trkpt lat="43.6549485" lon="12.7152731"><ele>803.2</ele><time>2026-03-08T13:49:57.946Z</time></trkpt><trkpt lat="43.6550531" lon="12.7153046"><ele>807.0</ele><time>2026-03-08T13:49:58.946Z</time></trkpt><trkpt lat="43.6551751" lon="12.7153092"><ele>801.6</ele><time>2026-03-08T13:49:59.946Z</time></trkpt><trkpt lat="43.6552926" lon="12.7153097"><ele>796.2</ele><time>2026-03-08T13:50:00.947Z</time></trkpt><trkpt lat="43.6553864" lon="12.7152841"><ele>790.8</ele><time>2026-03-08T13:50:01.947Z</time></trkpt><trkpt lat="43.6554699" lon="12.7152905"><ele>785.4</ele><time>2026-03-08T13:50:02.947Z</time></trkpt><trkpt lat="43.6555616" lon="12.715303"><ele>780.0</ele><time>2026-03-08T13:50:03.947Z</time></trkpt><trkpt lat="43.6556563" lon="12.7153292"><ele>780.0</ele><time>2026-03-08T13:50:04.946Z</time></trkpt><trkpt lat="43.6557712" lon="12.7153635"><ele>780.0</ele><time>2026-03-08T13:50:05.947Z</time></trkpt><trkpt lat="43.6558587" lon="12.7153664"><ele>780.0</ele><time>2026-03-08T13:50:06.946Z</time></trkpt><trkpt lat="43.6559754" lon="12.7153414"><ele>780.0</ele><time>2026-03-08T13:50:07.946Z</time></trkpt><trkpt lat="43.6560622" lon="12.7153548"><ele>780.0</ele><time>2026-03-08T13:50:08.946Z</time></trkpt><trkpt lat="43.6561651" lon="12.7153724"><ele>784.0</ele><time>2026-03-08T13:50:09.946Z</time></trkpt><trkpt lat="43.6562652" lon="12.7153895"><ele>788.0</ele><time>2026-03-08T13:50:10.946Z</time></trkpt><trkpt lat="43.6563784" lon="12.7153988"><ele>792.0</ele><time>2026-03-08T13:50:11.946Z</time></trkpt><trkpt lat="43.6564942" lon="12.7154065"><ele>796.0</ele><time>2026-03-08T13:50:12.946Z</time></trkpt><trkpt lat="43.6566244" lon="12.715426"><ele>796.0</ele><time>2026-03-08T13:50:13.946Z</time></trkpt><trkpt lat="43.6567275" lon="12.7154589"><ele>796.0</ele><time>2026-03-08T13:50:14.946Z</time></trkpt><trkpt lat="43.6568755" lon="12.7155291"><ele>796.0</ele><time>2026-03-08T13:50:15.946Z</time></trkpt><trkpt lat="43.6569728" lon="12.7155345"><ele>796.0</ele><time>2026-03-08T13:50:16.947Z</time></trkpt><trkpt lat="43.6570798" lon="12.7155742"><ele>797.5999999999999</ele><time>2026-03-08T13:50:17.946Z</time></trkpt><trkpt lat="43.6571826" lon="12.7156075"><ele>799.2</ele><time>2026-03-08T13:50:18.946Z</time></trkpt><trkpt lat="43.657284" lon="12.7156386"><ele>800.8</ele><time>2026-03-08T13:50:19.946Z</time></trkpt><trkpt lat="43.6573807" lon="12.7156719"><ele>802.4000000000001</ele><time>2026-03-08T13:50:20.948Z</time></trkpt><trkpt lat="43.6574785" lon="12.7156636"><ele>804.0</ele><time>2026-03-08T13:50:21.946Z</time></trkpt><trkpt lat="43.6575759" lon="12.7156561"><ele>804.0</ele><time>2026-03-08T13:50:22.946Z</time></trkpt><trkpt lat="43.6576471" lon="12.7155768"><ele>804.0</ele><time>2026-03-08T13:50:23.946Z</time></trkpt><trkpt lat="43.6577186" lon="12.7155127"><ele>804.0</ele><time>2026-03-08T13:50:24.945Z</time></trkpt><trkpt lat="43.6577975" lon="12.7154767"><ele>804.0</ele><time>2026-03-08T13:50:25.948Z</time></trkpt><trkpt lat="43.6578825" lon="12.7154369"><ele>804.0</ele><time>2026-03-08T13:50:26.945Z</time></trkpt><trkpt lat="43.6579663" lon="12.7153966"><ele>804.0</ele><time>2026-03-08T13:50:27.946Z</time></trkpt><trkpt lat="43.6580666" lon="12.7153541"><ele>805.0</ele><time>2026-03-08T13:50:28.946Z</time></trkpt><trkpt lat="43.6581837" lon="12.7153349"><ele>806.0</ele><time>2026-03-08T13:50:29.947Z</time></trkpt><trkpt lat="43.658283" lon="12.7153851"><ele>807.0</ele><time>2026-03-08T13:50:30.945Z</time></trkpt><trkpt lat="43.6584004" lon="12.715408"><ele>808.0</ele><time>2026-03-08T13:50:31.946Z</time></trkpt><trkpt lat="43.6585169" lon="12.7154318"><ele>812.0</ele><time>2026-03-08T13:50:32.945Z</time></trkpt><trkpt lat="43.658669" lon="12.7154868"><ele>816.0</ele><time>2026-03-08T13:50:33.947Z</time></trkpt><trkpt lat="43.6588007" lon="12.7155507"><ele>820.0</ele><time>2026-03-08T13:50:34.946Z</time></trkpt><trkpt lat="43.6589005" lon="12.7156156"><ele>824.0</ele><time>2026-03-08T13:50:35.945Z</time></trkpt><trkpt lat="43.6589965" lon="12.7157073"><ele>824.0</ele><time>2026-03-08T13:50:36.946Z</time></trkpt><trkpt lat="43.659104" lon="12.7157692"><ele>824.0</ele><time>2026-03-08T13:50:37.946Z</time></trkpt><trkpt lat="43.659192" lon="12.7158425"><ele>824.0</ele><time>2026-03-08T13:50:38.945Z</time></trkpt><trkpt lat="43.6592787" lon="12.7159029"><ele>824.0</ele><time>2026-03-08T13:50:39.946Z</time></trkpt><trkpt lat="43.6593415" lon="12.7159816"><ele>824.0</ele><time>2026-03-08T13:50:40.947Z</time></trkpt><trkpt lat="43.6594035" lon="12.716039"><ele>822.1666666666667</ele><time>2026-03-08T13:50:41.947Z</time></trkpt><trkpt lat="43.6594823" lon="12.7159911"><ele>820.3333333333334</ele><time>2026-03-08T13:50:43.946Z</time></trkpt><trkpt lat="43.6594971" lon="12.7158438"><ele>818.5</ele><time>2026-03-08T13:50:45.946Z</time></trkpt><trkpt lat="43.6594992" lon="12.7157465"><ele>816.6666666666667</ele><time>2026-03-08T13:50:46.946Z</time></trkpt><trkpt lat="43.6595211" lon="12.7156386"><ele>814.8333333333334</ele><time>2026-03-08T13:50:47.945Z</time></trkpt><trkpt lat="43.6595643" lon="12.7155511"><ele>813.0</ele><time>2026-03-08T13:50:48.946Z</time></trkpt><trkpt lat="43.6596341" lon="12.7154868"><ele>813.0</ele><time>2026-03-08T13:50:49.945Z</time></trkpt><trkpt lat="43.6597165" lon="12.7154268"><ele>813.0</ele><time>2026-03-08T13:50:50.946Z</time></trkpt><trkpt lat="43.6598139" lon="12.7153677"><ele>813.0</ele><time>2026-03-08T13:50:51.946Z</time></trkpt><trkpt lat="43.659917" lon="12.7153023"><ele>813.0</ele><time>2026-03-08T13:50:52.945Z</time></trkpt><trkpt lat="43.660017" lon="12.7152292"><ele>813.0</ele><time>2026-03-08T13:50:53.946Z</time></trkpt><trkpt lat="43.660117" lon="12.7151412"><ele>811.4</ele><time>2026-03-08T13:50:54.946Z</time></trkpt><trkpt lat="43.6602106" lon="12.7150611"><ele>809.8</ele><time>2026-03-08T13:50:55.946Z</time></trkpt><trkpt lat="43.6603021" lon="12.7149908"><ele>808.2</ele><time>2026-03-08T13:50:56.947Z</time></trkpt><trkpt lat="43.6603861" lon="12.7149211"><ele>806.6</ele><time>2026-03-08T13:50:57.946Z</time></trkpt><trkpt lat="43.660459" lon="12.7148546"><ele>805.0</ele><time>2026-03-08T13:50:58.945Z</time></trkpt><trkpt lat="43.66052" lon="12.714761"><ele>804.9999999999999</ele><time>2026-03-08T13:50:59.946Z</time></trkpt><trkpt lat="43.6605626" lon="12.7146574"><ele>805.0</ele><time>2026-03-08T13:51:00.946Z</time></trkpt><trkpt lat="43.6605993" lon="12.714559"><ele>805.0</ele><time>2026-03-08T13:51:01.946Z</time></trkpt><trkpt lat="43.6606283" lon="12.7144353"><ele>805.0</ele><time>2026-03-08T13:51:02.945Z</time></trkpt><trkpt lat="43.6606532" lon="12.7143069"><ele>804.9999999999999</ele><time>2026-03-08T13:51:03.946Z</time></trkpt><trkpt lat="43.6606711" lon="12.7141841"><ele>805.0</ele><time>2026-03-08T13:51:04.946Z</time></trkpt><trkpt lat="43.6606741" lon="12.7140587"><ele>807.0</ele><time>2026-03-08T13:51:05.945Z</time></trkpt><trkpt lat="43.6606807" lon="12.7139328"><ele>809.0</ele><time>2026-03-08T13:51:06.947Z</time></trkpt><trkpt lat="43.6606842" lon="12.7137995"><ele>811.0</ele><time>2026-03-08T13:51:07.947Z</time></trkpt><trkpt lat="43.660682" lon="12.7136649"><ele>813.0</ele><time>2026-03-08T13:51:08.946Z</time></trkpt><trkpt lat="43.6606821" lon="12.7135357"><ele>815.0</ele><time>2026-03-08T13:51:09.946Z</time></trkpt><trkpt lat="43.6606719" lon="12.7134131"><ele>815.0</ele><time>2026-03-08T13:51:10.947Z</time></trkpt><trkpt lat="43.6606547" lon="12.7132861"><ele>815.0</ele><time>2026-03-08T13:51:11.946Z</time></trkpt><trkpt lat="43.6606192" lon="12.7131727"><ele>815.0</ele><time>2026-03-08T13:51:12.946Z</time></trkpt><trkpt lat="43.6605733" lon="12.7130526"><ele>815.0</ele><time>2026-03-08T13:51:13.947Z</time></trkpt><trkpt lat="43.660545" lon="12.7129262"><ele>815.0</ele><time>2026-03-08T13:51:14.946Z</time></trkpt><trkpt lat="43.6605203" lon="12.7127981"><ele>813.8</ele><time>2026-03-08T13:51:15.946Z</time></trkpt><trkpt lat="43.6605274" lon="12.7126554"><ele>812.6</ele><time>2026-03-08T13:51:16.946Z</time></trkpt><trkpt lat="43.6605162" lon="12.7125041"><ele>811.4000000000001</ele><time>2026-03-08T13:51:17.946Z</time></trkpt><trkpt lat="43.6604998" lon="12.7123523"><ele>810.2</ele><time>2026-03-08T13:51:18.946Z</time></trkpt><trkpt lat="43.6604729" lon="12.7122018"><ele>809.0</ele><time>2026-03-08T13:51:19.946Z</time></trkpt><trkpt lat="43.6604582" lon="12.7120325"><ele>808.25</ele><time>2026-03-08T13:51:20.946Z</time></trkpt><trkpt lat="43.660451" lon="12.7118655"><ele>807.5</ele><time>2026-03-08T13:51:21.946Z</time></trkpt><trkpt lat="43.660464" lon="12.7117069"><ele>806.75</ele><time>2026-03-08T13:51:22.947Z</time></trkpt><trkpt lat="43.6604645" lon="12.7115395"><ele>806.0</ele><time>2026-03-08T13:51:23.945Z</time></trkpt><trkpt lat="43.6604529" lon="12.7113755"><ele>806.0</ele><time>2026-03-08T13:51:24.946Z</time></trkpt><trkpt lat="43.6604285" lon="12.7112205"><ele>806.0</ele><time>2026-03-08T13:51:25.946Z</time></trkpt><trkpt lat="43.6604224" lon="12.7110577"><ele>806.0</ele><time>2026-03-08T13:51:26.946Z</time></trkpt><trkpt lat="43.6604172" lon="12.7109075"><ele>806.0</ele><time>2026-03-08T13:51:27.947Z</time></trkpt><trkpt lat="43.6604124" lon="12.7107507"><ele>806.25</ele><time>2026-03-08T13:51:28.946Z</time></trkpt><trkpt lat="43.6604065" lon="12.7105937"><ele>806.5</ele><time>2026-03-08T13:51:29.946Z</time></trkpt><trkpt lat="43.6603985" lon="12.7104365"><ele>806.75</ele><time>2026-03-08T13:51:30.946Z</time></trkpt><trkpt lat="43.6603825" lon="12.7102776"><ele>807.0</ele><time>2026-03-08T13:51:31.947Z</time></trkpt><trkpt lat="43.6603576" lon="12.7101263"><ele>806.6</ele><time>2026-03-08T13:51:32.946Z</time></trkpt><trkpt lat="43.6603294" lon="12.7099817"><ele>806.2</ele><time>2026-03-08T13:51:33.946Z</time></trkpt><trkpt lat="43.6603028" lon="12.7098327"><ele>805.8</ele><time>2026-03-08T13:51:34.946Z</time></trkpt><trkpt lat="43.660275" lon="12.7096874"><ele>805.4</ele><time>2026-03-08T13:51:35.946Z</time></trkpt><trkpt lat="43.6602412" lon="12.7095564"><ele>805.0</ele><time>2026-03-08T13:51:36.946Z</time></trkpt><trkpt lat="43.660196" lon="12.7094453"><ele>807.9999999999999</ele><time>2026-03-08T13:51:37.946Z</time></trkpt><trkpt lat="43.6601488" lon="12.7093469"><ele>811.0</ele><time>2026-03-08T13:51:38.945Z</time></trkpt><trkpt lat="43.6601019" lon="12.7092681"><ele>814.0</ele><time>2026-03-08T13:51:39.945Z</time></trkpt><trkpt lat="43.6600819" lon="12.709174"><ele>817.0</ele><time>2026-03-08T13:51:40.946Z</time></trkpt><trkpt lat="43.6600846" lon="12.7090861"><ele>819.9999999999999</ele><time>2026-03-08T13:51:41.947Z</time></trkpt><trkpt lat="43.6601389" lon="12.7090319"><ele>823.0</ele><time>2026-03-08T13:51:42.946Z</time></trkpt><trkpt lat="43.6602228" lon="12.7089882"><ele>817.5</ele><time>2026-03-08T13:51:43.946Z</time></trkpt><trkpt lat="43.6603227" lon="12.7089433"><ele>812.0</ele><time>2026-03-08T13:51:44.946Z</time></trkpt><trkpt lat="43.6604297" lon="12.7088803"><ele>806.5</ele><time>2026-03-08T13:51:45.945Z</time></trkpt><trkpt lat="43.6605292" lon="12.7088065"><ele>801.0</ele><time>2026-03-08T13:51:46.947Z</time></trkpt><trkpt lat="43.6606264" lon="12.7087137"><ele>801.0</ele><time>2026-03-08T13:51:47.946Z</time></trkpt><trkpt lat="43.6607125" lon="12.7086263"><ele>801.0</ele><time>2026-03-08T13:51:48.946Z</time></trkpt><trkpt lat="43.6607855" lon="12.7085328"><ele>801.0</ele><time>2026-03-08T13:51:49.945Z</time></trkpt><trkpt lat="43.6608427" lon="12.7084151"><ele>801.0</ele><time>2026-03-08T13:51:50.946Z</time></trkpt><trkpt lat="43.6608931" lon="12.7082836"><ele>801.0</ele><time>2026-03-08T13:51:51.946Z</time></trkpt><trkpt lat="43.6609415" lon="12.7081393"><ele>802.5</ele><time>2026-03-08T13:51:52.947Z</time></trkpt><trkpt lat="43.6609859" lon="12.7079749"><ele>804.0</ele><time>2026-03-08T13:51:53.947Z</time></trkpt><trkpt lat="43.6610455" lon="12.707824"><ele>805.5</ele><time>2026-03-08T13:51:54.946Z</time></trkpt><trkpt lat="43.661108" lon="12.7076603"><ele>807.0</ele><time>2026-03-08T13:51:55.947Z</time></trkpt><trkpt lat="43.6611695" lon="12.7075044"><ele>801.75</ele><time>2026-03-08T13:51:56.946Z</time></trkpt><trkpt lat="43.6612276" lon="12.7073575"><ele>796.5</ele><time>2026-03-08T13:51:57.947Z</time></trkpt><trkpt lat="43.6612856" lon="12.7072124"><ele>791.25</ele><time>2026-03-08T13:51:58.946Z</time></trkpt><trkpt lat="43.6613426" lon="12.7070761"><ele>786.0</ele><time>2026-03-08T13:51:59.945Z</time></trkpt><trkpt lat="43.6614083" lon="12.7069304"><ele>787.0</ele><time>2026-03-08T13:52:00.947Z</time></trkpt><trkpt lat="43.6614575" lon="12.7067742"><ele>788.0</ele><time>2026-03-08T13:52:01.946Z</time></trkpt><trkpt lat="43.661497" lon="12.7066263"><ele>789.0</ele><time>2026-03-08T13:52:02.946Z</time></trkpt><trkpt lat="43.6615303" lon="12.7064609"><ele>790.0</ele><time>2026-03-08T13:52:03.946Z</time></trkpt><trkpt lat="43.6615539" lon="12.7063052"><ele>790.0</ele><time>2026-03-08T13:52:04.946Z</time></trkpt><trkpt lat="43.6615988" lon="12.7061406"><ele>790.0</ele><time>2026-03-08T13:52:05.946Z</time></trkpt><trkpt lat="43.6616552" lon="12.7059947"><ele>790.0</ele><time>2026-03-08T13:52:06.946Z</time></trkpt><trkpt lat="43.6617225" lon="12.7058405"><ele>790.0</ele><time>2026-03-08T13:52:07.946Z</time></trkpt><trkpt lat="43.6617932" lon="12.7056969"><ele>790.75</ele><time>2026-03-08T13:52:08.946Z</time></trkpt><trkpt lat="43.6618606" lon="12.7055508"><ele>791.5</ele><time>2026-03-08T13:52:09.946Z</time></trkpt><trkpt lat="43.661926" lon="12.7054127"><ele>792.25</ele><time>2026-03-08T13:52:10.946Z</time></trkpt><trkpt lat="43.6619824" lon="12.70527"><ele>793.0</ele><time>2026-03-08T13:52:11.946Z</time></trkpt><trkpt lat="43.662024" lon="12.7051349"><ele>787.25</ele><time>2026-03-08T13:52:12.946Z</time></trkpt><trkpt lat="43.6620615" lon="12.7049833"><ele>781.5</ele><time>2026-03-08T13:52:13.946Z</time></trkpt><trkpt lat="43.6620945" lon="12.7048181"><ele>775.75</ele><time>2026-03-08T13:52:14.946Z</time></trkpt><trkpt lat="43.6621154" lon="12.7046483"><ele>770.0</ele><time>2026-03-08T13:52:15.946Z</time></trkpt><trkpt lat="43.6621357" lon="12.70447"><ele>769.5</ele><time>2026-03-08T13:52:16.946Z</time></trkpt><trkpt lat="43.662147" lon="12.7042927"><ele>769.0</ele><time>2026-03-08T13:52:17.946Z</time></trkpt><trkpt lat="43.6621572" lon="12.7041184"><ele>768.5</ele><time>2026-03-08T13:52:18.946Z</time></trkpt><trkpt lat="43.6621721" lon="12.7039469"><ele>768.0</ele><time>2026-03-08T13:52:19.946Z</time></trkpt><trkpt lat="43.6621927" lon="12.703787"><ele>768.0</ele><time>2026-03-08T13:52:20.946Z</time></trkpt><trkpt lat="43.6622236" lon="12.7036363"><ele>768.0</ele><time>2026-03-08T13:52:21.947Z</time></trkpt><trkpt lat="43.6622599" lon="12.7034927"><ele>768.0</ele><time>2026-03-08T13:52:22.946Z</time></trkpt><trkpt lat="43.6622974" lon="12.7033526"><ele>768.0</ele><time>2026-03-08T13:52:23.945Z</time></trkpt><trkpt lat="43.6623413" lon="12.7032213"><ele>768.0</ele><time>2026-03-08T13:52:24.947Z</time></trkpt><trkpt lat="43.6623864" lon="12.7030967"><ele>768.6666666666666</ele><time>2026-03-08T13:52:25.946Z</time></trkpt><trkpt lat="43.6624382" lon="12.7029968"><ele>769.3333333333333</ele><time>2026-03-08T13:52:26.946Z</time></trkpt><trkpt lat="43.6624916" lon="12.7029089"><ele>770.0</ele><time>2026-03-08T13:52:27.947Z</time></trkpt><trkpt lat="43.6625527" lon="12.7028179"><ele>770.6666666666666</ele><time>2026-03-08T13:52:28.947Z</time></trkpt><trkpt lat="43.6626033" lon="12.7027258"><ele>771.3333333333333</ele><time>2026-03-08T13:52:29.946Z</time></trkpt><trkpt lat="43.662649" lon="12.702649"><ele>772.0</ele><time>2026-03-08T13:52:30.946Z</time></trkpt><trkpt lat="43.6627378" lon="12.70254"><ele>769.4000000000001</ele><time>2026-03-08T13:52:32.947Z</time></trkpt><trkpt lat="43.662848" lon="12.7024287"><ele>766.8000000000001</ele><time>2026-03-08T13:52:34.947Z</time></trkpt><trkpt lat="43.6628981" lon="12.7023382"><ele>764.2</ele><time>2026-03-08T13:52:35.946Z</time></trkpt><trkpt lat="43.6629378" lon="12.7022226"><ele>761.6</ele><time>2026-03-08T13:52:36.946Z</time></trkpt><trkpt lat="43.6629676" lon="12.7021035"><ele>759.0</ele><time>2026-03-08T13:52:37.946Z</time></trkpt><trkpt lat="43.6629822" lon="12.7019762"><ele>759.6666666666666</ele><time>2026-03-08T13:52:38.947Z</time></trkpt><trkpt lat="43.6629943" lon="12.7018547"><ele>760.3333333333334</ele><time>2026-03-08T13:52:39.947Z</time></trkpt><trkpt lat="43.6630021" lon="12.7017402"><ele>761.0</ele><time>2026-03-08T13:52:40.946Z</time></trkpt><trkpt lat="43.663002" lon="12.7016233"><ele>761.6666666666667</ele><time>2026-03-08T13:52:41.946Z</time></trkpt><trkpt lat="43.6629969" lon="12.7015195"><ele>762.3333333333334</ele><time>2026-03-08T13:52:42.946Z</time></trkpt><trkpt lat="43.662987" lon="12.7014256"><ele>763.0</ele><time>2026-03-08T13:52:43.946Z</time></trkpt><trkpt lat="43.6629741" lon="12.7013291"><ele>763.0</ele><time>2026-03-08T13:52:44.947Z</time></trkpt><trkpt lat="43.6629518" lon="12.7012359"><ele>763.0</ele><time>2026-03-08T13:52:45.946Z</time></trkpt><trkpt lat="43.6629244" lon="12.7011332"><ele>763.0</ele><time>2026-03-08T13:52:46.946Z</time></trkpt><trkpt lat="43.6628875" lon="12.7010297"><ele>763.0</ele><time>2026-03-08T13:52:47.946Z</time></trkpt><trkpt lat="43.6628557" lon="12.7009298"><ele>763.0</ele><time>2026-03-08T13:52:48.946Z</time></trkpt><trkpt lat="43.6628146" lon="12.7008155"><ele>763.0</ele><time>2026-03-08T13:52:49.946Z</time></trkpt><trkpt lat="43.6627731" lon="12.7007055"><ele>763.0</ele><time>2026-03-08T13:52:50.947Z</time></trkpt><trkpt lat="43.662724" lon="12.700594"><ele>763.0</ele><time>2026-03-08T13:52:51.946Z</time></trkpt><trkpt lat="43.6626625" lon="12.7004907"><ele>763.0</ele><time>2026-03-08T13:52:52.945Z</time></trkpt><trkpt lat="43.6625938" lon="12.7003732"><ele>763.0</ele><time>2026-03-08T13:52:53.946Z</time></trkpt><trkpt lat="43.6625223" lon="12.7002725"><ele>763.0</ele><time>2026-03-08T13:52:54.946Z</time></trkpt><trkpt lat="43.6624443" lon="12.7001824"><ele>763.0</ele><time>2026-03-08T13:52:55.946Z</time></trkpt><trkpt lat="43.6623561" lon="12.7001014"><ele>763.0</ele><time>2026-03-08T13:52:56.945Z</time></trkpt><trkpt lat="43.6622604" lon="12.7000306"><ele>763.0</ele><time>2026-03-08T13:52:57.946Z</time></trkpt><trkpt lat="43.6621666" lon="12.6999664"><ele>763.0</ele><time>2026-03-08T13:52:58.947Z</time></trkpt><trkpt lat="43.6620661" lon="12.6999044"><ele>763.0</ele><time>2026-03-08T13:52:59.946Z</time></trkpt><trkpt lat="43.6619689" lon="12.6998293"><ele>768.0</ele><time>2026-03-08T13:53:00.945Z</time></trkpt><trkpt lat="43.6618711" lon="12.6997625"><ele>773.0</ele><time>2026-03-08T13:53:01.946Z</time></trkpt><trkpt lat="43.6617703" lon="12.699693"><ele>778.0</ele><time>2026-03-08T13:53:02.947Z</time></trkpt><trkpt lat="43.6616733" lon="12.6996074"><ele>783.0</ele><time>2026-03-08T13:53:03.946Z</time></trkpt><trkpt lat="43.6615845" lon="12.6995103"><ele>780.2</ele><time>2026-03-08T13:53:04.947Z</time></trkpt><trkpt lat="43.661498" lon="12.6994117"><ele>777.4</ele><time>2026-03-08T13:53:05.947Z</time></trkpt><trkpt lat="43.6614215" lon="12.6993041"><ele>774.6</ele><time>2026-03-08T13:53:06.946Z</time></trkpt><trkpt lat="43.66135" lon="12.6991924"><ele>771.8000000000001</ele><time>2026-03-08T13:53:07.946Z</time></trkpt><trkpt lat="43.6612761" lon="12.6990843"><ele>769.0</ele><time>2026-03-08T13:53:08.947Z</time></trkpt><trkpt lat="43.6612074" lon="12.6989771"><ele>769.0</ele><time>2026-03-08T13:53:09.946Z</time></trkpt><trkpt lat="43.6611567" lon="12.6988632"><ele>769.0</ele><time>2026-03-08T13:53:10.947Z</time></trkpt><trkpt lat="43.6611145" lon="12.6987361"><ele>769.0</ele><time>2026-03-08T13:53:11.946Z</time></trkpt><trkpt lat="43.661068" lon="12.6985859"><ele>769.0</ele><time>2026-03-08T13:53:12.946Z</time></trkpt><trkpt lat="43.661028" lon="12.6984485"><ele>769.0</ele><time>2026-03-08T13:53:13.947Z</time></trkpt><trkpt lat="43.6609822" lon="12.6983031"><ele>769.4000000000001</ele><time>2026-03-08T13:53:14.946Z</time></trkpt><trkpt lat="43.6609358" lon="12.6981685"><ele>769.8</ele><time>2026-03-08T13:53:15.946Z</time></trkpt><trkpt lat="43.6608915" lon="12.6980388"><ele>770.2</ele><time>2026-03-08T13:53:16.946Z</time></trkpt><trkpt lat="43.6608521" lon="12.6979267"><ele>770.5999999999999</ele><time>2026-03-08T13:53:17.945Z</time></trkpt><trkpt lat="43.6608197" lon="12.6978113"><ele>771.0</ele><time>2026-03-08T13:53:18.946Z</time></trkpt><trkpt lat="43.6607711" lon="12.697715"><ele>769.6666666666666</ele><time>2026-03-08T13:53:19.946Z</time></trkpt><trkpt lat="43.6607284" lon="12.6976228"><ele>768.3333333333334</ele><time>2026-03-08T13:53:20.945Z</time></trkpt><trkpt lat="43.6606751" lon="12.6975441"><ele>767.0</ele><time>2026-03-08T13:53:21.946Z</time></trkpt><trkpt lat="43.6606138" lon="12.6974578"><ele>765.6666666666667</ele><time>2026-03-08T13:53:22.946Z</time></trkpt><trkpt lat="43.6605568" lon="12.6973912"><ele>764.3333333333334</ele><time>2026-03-08T13:53:23.945Z</time></trkpt><trkpt lat="43.6604889" lon="12.6973356"><ele>763.0</ele><time>2026-03-08T13:53:24.946Z</time></trkpt><trkpt lat="43.6604233" lon="12.6972707"><ele>763.0</ele><time>2026-03-08T13:53:25.945Z</time></trkpt><trkpt lat="43.6603536" lon="12.697211"><ele>763.0</ele><time>2026-03-08T13:53:26.947Z</time></trkpt><trkpt lat="43.6602872" lon="12.6971579"><ele>763.0</ele><time>2026-03-08T13:53:27.947Z</time></trkpt><trkpt lat="43.6601912" lon="12.6970505"><ele>763.0</ele><time>2026-03-08T13:53:29.946Z</time></trkpt><trkpt lat="43.660109" lon="12.6969733"><ele>763.0</ele><time>2026-03-08T13:53:31.946Z</time></trkpt><trkpt lat="43.6600281" lon="12.6969115"><ele>761.8333333333334</ele><time>2026-03-08T13:53:33.945Z</time></trkpt><trkpt lat="43.6599368" lon="12.6968348"><ele>760.6666666666667</ele><time>2026-03-08T13:53:35.946Z</time></trkpt><trkpt lat="43.6598795" lon="12.6967806"><ele>759.5</ele><time>2026-03-08T13:53:36.946Z</time></trkpt><trkpt lat="43.6598127" lon="12.6967137"><ele>758.3333333333334</ele><time>2026-03-08T13:53:37.946Z</time></trkpt><trkpt lat="43.6597536" lon="12.6966572"><ele>757.1666666666666</ele><time>2026-03-08T13:53:38.946Z</time></trkpt><trkpt lat="43.6596935" lon="12.6966141"><ele>756.0</ele><time>2026-03-08T13:53:39.947Z</time></trkpt><trkpt lat="43.6595964" lon="12.6965763"><ele>756.0</ele><time>2026-03-08T13:53:41.946Z</time></trkpt><trkpt lat="43.659565" lon="12.6964862"><ele>756.0</ele><time>2026-03-08T13:53:44.945Z</time></trkpt><trkpt lat="43.6596469" lon="12.6964391"><ele>756.0</ele><time>2026-03-08T13:53:47.946Z</time></trkpt><trkpt lat="43.6597321" lon="12.6964461"><ele>756.0</ele><time>2026-03-08T13:53:49.947Z</time></trkpt><trkpt lat="43.6598086" lon="12.696467"><ele>756.0</ele><time>2026-03-08T13:53:50.946Z</time></trkpt><trkpt lat="43.6599" lon="12.6964923"><ele>756.0</ele><time>2026-03-08T13:53:51.946Z</time></trkpt><trkpt lat="43.6599806" lon="12.6965076"><ele>756.0</ele><time>2026-03-08T13:53:52.946Z</time></trkpt><trkpt lat="43.6600661" lon="12.6965163"><ele>756.0</ele><time>2026-03-08T13:53:53.946Z</time></trkpt><trkpt lat="43.6601527" lon="12.6965434"><ele>756.0</ele><time>2026-03-08T13:53:54.947Z</time></trkpt><trkpt lat="43.6602329" lon="12.6965676"><ele>756.0</ele><time>2026-03-08T13:53:55.946Z</time></trkpt><trkpt lat="43.6603247" lon="12.6966042"><ele>756.0</ele><time>2026-03-08T13:53:56.946Z</time></trkpt><trkpt lat="43.6604147" lon="12.6966451"><ele>756.0</ele><time>2026-03-08T13:53:57.947Z</time></trkpt><trkpt lat="43.6605098" lon="12.6966653"><ele>754.5</ele><time>2026-03-08T13:53:58.946Z</time></trkpt><trkpt lat="43.6606087" lon="12.6966891"><ele>753.0</ele><time>2026-03-08T13:53:59.946Z</time></trkpt><trkpt lat="43.6607348" lon="12.6967111"><ele>751.5</ele><time>2026-03-08T13:54:00.947Z</time></trkpt><trkpt lat="43.6608506" lon="12.6967397"><ele>750.0</ele><time>2026-03-08T13:54:01.947Z</time></trkpt><trkpt lat="43.6609613" lon="12.6967627"><ele>750.0</ele><time>2026-03-08T13:54:02.946Z</time></trkpt><trkpt lat="43.6610797" lon="12.6967811"><ele>750.0</ele><time>2026-03-08T13:54:03.947Z</time></trkpt><trkpt lat="43.6611837" lon="12.6967809"><ele>750.0</ele><time>2026-03-08T13:54:04.946Z</time></trkpt><trkpt lat="43.6613008" lon="12.6967727"><ele>750.0</ele><time>2026-03-08T13:54:05.945Z</time></trkpt><trkpt lat="43.6614375" lon="12.6968734"><ele>748.2</ele><time>2026-03-08T13:54:06.946Z</time></trkpt><trkpt lat="43.6615449" lon="12.6969011"><ele>746.4</ele><time>2026-03-08T13:54:07.947Z</time></trkpt><trkpt lat="43.6616438" lon="12.6968967"><ele>744.5999999999999</ele><time>2026-03-08T13:54:08.946Z</time></trkpt><trkpt lat="43.6617583" lon="12.6969068"><ele>742.8</ele><time>2026-03-08T13:54:09.947Z</time></trkpt><trkpt lat="43.6618395" lon="12.6968762"><ele>741.0</ele><time>2026-03-08T13:54:10.946Z</time></trkpt><trkpt lat="43.6619162" lon="12.6968294"><ele>739.5</ele><time>2026-03-08T13:54:11.946Z</time></trkpt><trkpt lat="43.6619846" lon="12.6967887"><ele>738.0</ele><time>2026-03-08T13:54:12.947Z</time></trkpt><trkpt lat="43.6620792" lon="12.6967799"><ele>736.5</ele><time>2026-03-08T13:54:13.945Z</time></trkpt><trkpt lat="43.662167" lon="12.6967946"><ele>735.0</ele><time>2026-03-08T13:54:14.946Z</time></trkpt><trkpt lat="43.6622372" lon="12.6968272"><ele>733.5</ele><time>2026-03-08T13:54:15.945Z</time></trkpt><trkpt lat="43.6623165" lon="12.6968596"><ele>732.0</ele><time>2026-03-08T13:54:16.946Z</time></trkpt><trkpt lat="43.6624022" lon="12.6968893"><ele>733.6</ele><time>2026-03-08T13:54:17.946Z</time></trkpt><trkpt lat="43.6624757" lon="12.6969344"><ele>735.2</ele><time>2026-03-08T13:54:18.946Z</time></trkpt><trkpt lat="43.6625589" lon="12.6969735"><ele>736.8</ele><time>2026-03-08T13:54:19.947Z</time></trkpt><trkpt lat="43.6626561" lon="12.6970343"><ele>738.4</ele><time>2026-03-08T13:54:20.946Z</time></trkpt><trkpt lat="43.6627502" lon="12.6970994"><ele>740.0</ele><time>2026-03-08T13:54:21.946Z</time></trkpt><trkpt lat="43.6628319" lon="12.6971728"><ele>736.2</ele><time>2026-03-08T13:54:22.946Z</time></trkpt><trkpt lat="43.6629232" lon="12.697254"><ele>732.4</ele><time>2026-03-08T13:54:23.947Z</time></trkpt><trkpt lat="43.6630155" lon="12.6973368"><ele>728.5999999999999</ele><time>2026-03-08T13:54:24.946Z</time></trkpt><trkpt lat="43.6630966" lon="12.6974137"><ele>724.8</ele><time>2026-03-08T13:54:25.946Z</time></trkpt><trkpt lat="43.6631657" lon="12.6974965"><ele>721.0</ele><time>2026-03-08T13:54:26.946Z</time></trkpt><trkpt lat="43.6632424" lon="12.6975932"><ele>721.0</ele><time>2026-03-08T13:54:27.946Z</time></trkpt><trkpt lat="43.6633083" lon="12.6976826"><ele>721.0</ele><time>2026-03-08T13:54:28.946Z</time></trkpt><trkpt lat="43.6633775" lon="12.6977807"><ele>721.0</ele><time>2026-03-08T13:54:29.946Z</time></trkpt><trkpt lat="43.6634498" lon="12.6978731"><ele>721.0</ele><time>2026-03-08T13:54:30.946Z</time></trkpt><trkpt lat="43.6635174" lon="12.6979773"><ele>721.0</ele><time>2026-03-08T13:54:31.946Z</time></trkpt><trkpt lat="43.6635804" lon="12.6980731"><ele>717.5</ele><time>2026-03-08T13:54:32.946Z</time></trkpt><trkpt lat="43.6636391" lon="12.6981626"><ele>714.0</ele><time>2026-03-08T13:54:33.946Z</time></trkpt><trkpt lat="43.6636913" lon="12.6982564"><ele>710.5</ele><time>2026-03-08T13:54:34.946Z</time></trkpt><trkpt lat="43.6637309" lon="12.6983725"><ele>707.0</ele><time>2026-03-08T13:54:36.946Z</time></trkpt><trkpt lat="43.6637933" lon="12.6983891"><ele>703.5</ele><time>2026-03-08T13:54:38.946Z</time></trkpt><trkpt lat="43.6638173" lon="12.6982965"><ele>700.0</ele><time>2026-03-08T13:54:40.946Z</time></trkpt><trkpt lat="43.663787" lon="12.6981254"><ele>700.0</ele><time>2026-03-08T13:54:42.946Z</time></trkpt><trkpt lat="43.6637554" lon="12.6980139"><ele>700.0</ele><time>2026-03-08T13:54:43.946Z</time></trkpt><trkpt lat="43.6637232" lon="12.6978987"><ele>700.0</ele><time>2026-03-08T13:54:44.947Z</time></trkpt><trkpt lat="43.6636888" lon="12.6977708"><ele>700.0</ele><time>2026-03-08T13:54:45.947Z</time></trkpt><trkpt lat="43.6636592" lon="12.6976416"><ele>700.0</ele><time>2026-03-08T13:54:46.945Z</time></trkpt><trkpt lat="43.6636088" lon="12.6975133"><ele>703.5</ele><time>2026-03-08T13:54:47.946Z</time></trkpt><trkpt lat="43.6635553" lon="12.6973601"><ele>707.0</ele><time>2026-03-08T13:54:48.946Z</time></trkpt><trkpt lat="43.6635044" lon="12.697203"><ele>710.5</ele><time>2026-03-08T13:54:49.946Z</time></trkpt><trkpt lat="43.6634397" lon="12.6970478"><ele>714.0</ele><time>2026-03-08T13:54:50.947Z</time></trkpt><trkpt lat="43.6633798" lon="12.6969087"><ele>714.0</ele><time>2026-03-08T13:54:51.946Z</time></trkpt><trkpt lat="43.6633284" lon="12.6967696"><ele>714.0</ele><time>2026-03-08T13:54:52.946Z</time></trkpt><trkpt lat="43.6632766" lon="12.6966258"><ele>714.0</ele><time>2026-03-08T13:54:53.946Z</time></trkpt><trkpt lat="43.663217" lon="12.6964894"><ele>714.0</ele><time>2026-03-08T13:54:54.947Z</time></trkpt><trkpt lat="43.6631646" lon="12.6963513"><ele>714.0</ele><time>2026-03-08T13:54:55.946Z</time></trkpt><trkpt lat="43.663116" lon="12.6962145"><ele>714.0</ele><time>2026-03-08T13:54:56.946Z</time></trkpt><trkpt lat="43.6630749" lon="12.6960788"><ele>714.0</ele><time>2026-03-08T13:54:57.946Z</time></trkpt><trkpt lat="43.6630413" lon="12.6959605"><ele>714.0</ele><time>2026-03-08T13:54:58.946Z</time></trkpt><trkpt lat="43.6630097" lon="12.69584"><ele>714.0</ele><time>2026-03-08T13:54:59.946Z</time></trkpt><trkpt lat="43.6629831" lon="12.6957266"><ele>712.1666666666666</ele><time>2026-03-08T13:55:00.946Z</time></trkpt><trkpt lat="43.662962" lon="12.6956332"><ele>710.3333333333334</ele><time>2026-03-08T13:55:01.946Z</time></trkpt><trkpt lat="43.6629326" lon="12.6955175"><ele>708.5</ele><time>2026-03-08T13:55:02.947Z</time></trkpt><trkpt lat="43.6629057" lon="12.6954124"><ele>706.6666666666667</ele><time>2026-03-08T13:55:03.946Z</time></trkpt><trkpt lat="43.662887" lon="12.695311"><ele>704.8333333333334</ele><time>2026-03-08T13:55:04.946Z</time></trkpt><trkpt lat="43.6628765" lon="12.6951885"><ele>703.0</ele><time>2026-03-08T13:55:05.947Z</time></trkpt><trkpt lat="43.6628809" lon="12.6950647"><ele>702.3333333333334</ele><time>2026-03-08T13:55:06.946Z</time></trkpt><trkpt lat="43.6628996" lon="12.6949302"><ele>701.6666666666667</ele><time>2026-03-08T13:55:07.946Z</time></trkpt><trkpt lat="43.6629235" lon="12.6948027"><ele>701.0</ele><time>2026-03-08T13:55:08.946Z</time></trkpt><trkpt lat="43.6629518" lon="12.6946918"><ele>700.3333333333334</ele><time>2026-03-08T13:55:09.947Z</time></trkpt><trkpt lat="43.6629849" lon="12.6945853"><ele>699.6666666666666</ele><time>2026-03-08T13:55:10.946Z</time></trkpt><trkpt lat="43.6630082" lon="12.6944907"><ele>699.0</ele><time>2026-03-08T13:55:11.946Z</time></trkpt><trkpt lat="43.6630222" lon="12.6943884"><ele>698.8333333333334</ele><time>2026-03-08T13:55:12.947Z</time></trkpt><trkpt lat="43.6630288" lon="12.6942984"><ele>698.6666666666666</ele><time>2026-03-08T13:55:13.946Z</time></trkpt><trkpt lat="43.6630317" lon="12.6941393"><ele>698.5</ele><time>2026-03-08T13:55:15.946Z</time></trkpt><trkpt lat="43.6630036" lon="12.6939979"><ele>698.3333333333333</ele><time>2026-03-08T13:55:17.946Z</time></trkpt><trkpt lat="43.66299" lon="12.6939035"><ele>698.1666666666666</ele><time>2026-03-08T13:55:19.946Z</time></trkpt><trkpt lat="43.6629648" lon="12.6940106"><ele>698.0</ele><time>2026-03-08T13:55:24.945Z</time></trkpt><trkpt lat="43.6629974" lon="12.6941869"><ele>698.0</ele><time>2026-03-08T13:55:26.946Z</time></trkpt><trkpt lat="43.6629941" lon="12.6942963"><ele>698.0</ele><time>2026-03-08T13:55:27.946Z</time></trkpt><trkpt lat="43.6629761" lon="12.6943984"><ele>698.0</ele><time>2026-03-08T13:55:28.947Z</time></trkpt><trkpt lat="43.6629543" lon="12.6945061"><ele>698.0</ele><time>2026-03-08T13:55:29.946Z</time></trkpt><trkpt lat="43.6629261" lon="12.6946141"><ele>698.0</ele><time>2026-03-08T13:55:30.946Z</time></trkpt><trkpt lat="43.662899" lon="12.6947229"><ele>698.0</ele><time>2026-03-08T13:55:31.946Z</time></trkpt><trkpt lat="43.662876" lon="12.6948198"><ele>698.1666666666666</ele><time>2026-03-08T13:55:32.946Z</time></trkpt><trkpt lat="43.6628625" lon="12.6949166"><ele>698.3333333333333</ele><time>2026-03-08T13:55:33.946Z</time></trkpt><trkpt lat="43.6628474" lon="12.6950128"><ele>698.5</ele><time>2026-03-08T13:55:34.945Z</time></trkpt><trkpt lat="43.6628351" lon="12.6951734"><ele>698.6666666666666</ele><time>2026-03-08T13:55:36.946Z</time></trkpt><trkpt lat="43.6628549" lon="12.6952993"><ele>698.8333333333334</ele><time>2026-03-08T13:55:38.947Z</time></trkpt><trkpt lat="43.6628688" lon="12.6954273"><ele>699.0</ele><time>2026-03-08T13:55:40.946Z</time></trkpt><trkpt lat="43.6628903" lon="12.6955377"><ele>699.8000000000001</ele><time>2026-03-08T13:55:42.947Z</time></trkpt><trkpt lat="43.6629354" lon="12.6956588"><ele>700.6</ele><time>2026-03-08T13:55:44.946Z</time></trkpt><trkpt lat="43.6629717" lon="12.6957928"><ele>701.4</ele><time>2026-03-08T13:55:46.946Z</time></trkpt><trkpt lat="43.6630004" lon="12.6959378"><ele>702.2</ele><time>2026-03-08T13:55:48.947Z</time></trkpt><trkpt lat="43.6630169" lon="12.6960309"><ele>703.0</ele><time>2026-03-08T13:55:49.946Z</time></trkpt><trkpt lat="43.6630471" lon="12.6961629"><ele>705.2</ele><time>2026-03-08T13:55:51.946Z</time></trkpt><trkpt lat="43.663102" lon="12.6963057"><ele>707.4</ele><time>2026-03-08T13:55:53.946Z</time></trkpt><trkpt lat="43.6631355" lon="12.6963877"><ele>709.6</ele><time>2026-03-08T13:55:54.946Z</time></trkpt><trkpt lat="43.6631996" lon="12.6965555"><ele>711.8000000000001</ele><time>2026-03-08T13:55:56.947Z</time></trkpt><trkpt lat="43.6632399" lon="12.6966425"><ele>714.0</ele><time>2026-03-08T13:55:57.946Z</time></trkpt><trkpt lat="43.6632734" lon="12.696731"><ele>714.0</ele><time>2026-03-08T13:55:58.946Z</time></trkpt><trkpt lat="43.6633079" lon="12.6968229"><ele>714.0</ele><time>2026-03-08T13:55:59.946Z</time></trkpt><trkpt lat="43.6633452" lon="12.6969144"><ele>714.0</ele><time>2026-03-08T13:56:00.946Z</time></trkpt><trkpt lat="43.6633863" lon="12.6970057"><ele>714.0</ele><time>2026-03-08T13:56:01.946Z</time></trkpt><trkpt lat="43.663431" lon="12.697104"><ele>714.0</ele><time>2026-03-08T13:56:02.947Z</time></trkpt><trkpt lat="43.6634689" lon="12.6971975"><ele>714.0</ele><time>2026-03-08T13:56:03.946Z</time></trkpt><trkpt lat="43.6635039" lon="12.697301"><ele>715.1666666666666</ele><time>2026-03-08T13:56:04.946Z</time></trkpt><trkpt lat="43.6635443" lon="12.6973992"><ele>716.3333333333334</ele><time>2026-03-08T13:56:05.946Z</time></trkpt><trkpt lat="43.6635807" lon="12.6974996"><ele>717.5</ele><time>2026-03-08T13:56:06.946Z</time></trkpt><trkpt lat="43.6636114" lon="12.6976002"><ele>718.6666666666667</ele><time>2026-03-08T13:56:07.946Z</time></trkpt><trkpt lat="43.6636393" lon="12.6977035"><ele>719.8333333333334</ele><time>2026-03-08T13:56:08.946Z</time></trkpt><trkpt lat="43.6636703" lon="12.6978064"><ele>721.0</ele><time>2026-03-08T13:56:09.946Z</time></trkpt><trkpt lat="43.6637058" lon="12.6979085"><ele>717.5</ele><time>2026-03-08T13:56:10.947Z</time></trkpt><trkpt lat="43.6637344" lon="12.698023"><ele>714.0</ele><time>2026-03-08T13:56:11.946Z</time></trkpt><trkpt lat="43.6637599" lon="12.6981387"><ele>710.5</ele><time>2026-03-08T13:56:12.946Z</time></trkpt><trkpt lat="43.6637817" lon="12.6982369"><ele>707.0</ele><time>2026-03-08T13:56:13.946Z</time></trkpt><trkpt lat="43.6637965" lon="12.698329"><ele>703.5</ele><time>2026-03-08T13:56:14.946Z</time></trkpt><trkpt lat="43.6637647" lon="12.6984192"><ele>700.0</ele><time>2026-03-08T13:56:16.946Z</time></trkpt><trkpt lat="43.6637073" lon="12.6983767"><ele>700.0</ele><time>2026-03-08T13:56:19.947Z</time></trkpt><trkpt lat="43.6636648" lon="12.698255"><ele>700.0</ele><time>2026-03-08T13:56:21.946Z</time></trkpt><trkpt lat="43.6636301" lon="12.6981774"><ele>700.0</ele><time>2026-03-08T13:56:22.947Z</time></trkpt><trkpt lat="43.6635851" lon="12.6980968"><ele>700.0</ele><time>2026-03-08T13:56:23.947Z</time></trkpt><trkpt lat="43.6635361" lon="12.698004"><ele>700.0</ele><time>2026-03-08T13:56:24.946Z</time></trkpt><trkpt lat="43.6634744" lon="12.6979047"><ele>700.0</ele><time>2026-03-08T13:56:25.947Z</time></trkpt><trkpt lat="43.6634043" lon="12.6978081"><ele>704.2</ele><time>2026-03-08T13:56:26.946Z</time></trkpt><trkpt lat="43.6633278" lon="12.6977021"><ele>708.4</ele><time>2026-03-08T13:56:27.946Z</time></trkpt><trkpt lat="43.6632518" lon="12.6976079"><ele>712.5999999999999</ele><time>2026-03-08T13:56:28.947Z</time></trkpt><trkpt lat="43.6631819" lon="12.6975056"><ele>716.8</ele><time>2026-03-08T13:56:29.946Z</time></trkpt><trkpt lat="43.6631019" lon="12.6974231"><ele>721.0</ele><time>2026-03-08T13:56:30.946Z</time></trkpt><trkpt lat="43.6630186" lon="12.6973543"><ele>721.0</ele><time>2026-03-08T13:56:31.946Z</time></trkpt><trkpt lat="43.6629331" lon="12.6972836"><ele>721.0</ele><time>2026-03-08T13:56:32.946Z</time></trkpt><trkpt lat="43.6628448" lon="12.6972111"><ele>721.0</ele><time>2026-03-08T13:56:33.946Z</time></trkpt><trkpt lat="43.662765" lon="12.6971419"><ele>721.0</ele><time>2026-03-08T13:56:34.946Z</time></trkpt><trkpt lat="43.6626817" lon="12.6970887"><ele>721.0</ele><time>2026-03-08T13:56:35.945Z</time></trkpt><trkpt lat="43.6625996" lon="12.6970489"><ele>723.1999999999999</ele><time>2026-03-08T13:56:36.946Z</time></trkpt><trkpt lat="43.6625148" lon="12.6969988"><ele>725.4</ele><time>2026-03-08T13:56:37.946Z</time></trkpt><trkpt lat="43.6624281" lon="12.6969569"><ele>727.6</ele><time>2026-03-08T13:56:38.946Z</time></trkpt><trkpt lat="43.6623392" lon="12.6969203"><ele>729.8</ele><time>2026-03-08T13:56:39.946Z</time></trkpt><trkpt lat="43.6622487" lon="12.6968832"><ele>732.0</ele><time>2026-03-08T13:56:40.948Z</time></trkpt><trkpt lat="43.6621559" lon="12.6968537"><ele>732.0</ele><time>2026-03-08T13:56:41.946Z</time></trkpt><trkpt lat="43.6620554" lon="12.6968506"><ele>732.0</ele><time>2026-03-08T13:56:42.947Z</time></trkpt><trkpt lat="43.6619539" lon="12.6968617"><ele>732.0</ele><time>2026-03-08T13:56:43.947Z</time></trkpt><trkpt lat="43.6618558" lon="12.696883"><ele>732.0</ele><time>2026-03-08T13:56:44.946Z</time></trkpt><trkpt lat="43.6617622" lon="12.6969182"><ele>732.0</ele><time>2026-03-08T13:56:45.947Z</time></trkpt><trkpt lat="43.6616651" lon="12.6969504"><ele>734.25</ele><time>2026-03-08T13:56:46.947Z</time></trkpt><trkpt lat="43.661579" lon="12.696953"><ele>736.5</ele><time>2026-03-08T13:56:47.947Z</time></trkpt><trkpt lat="43.661484" lon="12.6969435"><ele>738.75</ele><time>2026-03-08T13:56:48.946Z</time></trkpt><trkpt lat="43.6613322" lon="12.6969165"><ele>741.0</ele><time>2026-03-08T13:56:49.946Z</time></trkpt><trkpt lat="43.6612148" lon="12.6968646"><ele>743.25</ele><time>2026-03-08T13:56:50.946Z</time></trkpt><trkpt lat="43.6610941" lon="12.6968261"><ele>745.5</ele><time>2026-03-08T13:56:51.946Z</time></trkpt><trkpt lat="43.660972" lon="12.6968231"><ele>747.75</ele><time>2026-03-08T13:56:52.948Z</time></trkpt><trkpt lat="43.6608346" lon="12.6968031"><ele>750.0</ele><time>2026-03-08T13:56:53.947Z</time></trkpt><trkpt lat="43.660731" lon="12.6968022"><ele>750.0</ele><time>2026-03-08T13:56:54.946Z</time></trkpt><trkpt lat="43.6606225" lon="12.6967869"><ele>750.0</ele><time>2026-03-08T13:56:55.946Z</time></trkpt><trkpt lat="43.6605055" lon="12.6967416"><ele>750.0</ele><time>2026-03-08T13:56:56.947Z</time></trkpt><trkpt lat="43.6603678" lon="12.6966683"><ele>750.0</ele><time>2026-03-08T13:56:57.947Z</time></trkpt><trkpt lat="43.6602764" lon="12.6965952"><ele>751.5</ele><time>2026-03-08T13:56:58.946Z</time></trkpt><trkpt lat="43.6601603" lon="12.6965656"><ele>753.0</ele><time>2026-03-08T13:56:59.946Z</time></trkpt><trkpt lat="43.6600345" lon="12.6965248"><ele>754.5</ele><time>2026-03-08T13:57:00.946Z</time></trkpt><trkpt lat="43.6599227" lon="12.6964803"><ele>756.0</ele><time>2026-03-08T13:57:01.946Z</time></trkpt><trkpt lat="43.6598023" lon="12.6964712"><ele>756.0</ele><time>2026-03-08T13:57:02.946Z</time></trkpt><trkpt lat="43.6597181" lon="12.6964731"><ele>756.0</ele><time>2026-03-08T13:57:03.946Z</time></trkpt><trkpt lat="43.6596223" lon="12.6964604"><ele>756.0</ele><time>2026-03-08T13:57:04.946Z</time></trkpt><trkpt lat="43.6595321" lon="12.6964558"><ele>756.0</ele><time>2026-03-08T13:57:06.946Z</time></trkpt><trkpt lat="43.6595369" lon="12.6965561"><ele>756.0</ele><time>2026-03-08T13:57:08.946Z</time></trkpt><trkpt lat="43.6596002" lon="12.6966003"><ele>756.0</ele><time>2026-03-08T13:57:10.946Z</time></trkpt><trkpt lat="43.6597025" lon="12.6966134"><ele>756.0</ele><time>2026-03-08T13:57:12.946Z</time></trkpt><trkpt lat="43.6598237" lon="12.6967124"><ele>756.0</ele><time>2026-03-08T13:57:14.946Z</time></trkpt><trkpt lat="43.6598952" lon="12.6967825"><ele>756.0</ele><time>2026-03-08T13:57:15.946Z</time></trkpt><trkpt lat="43.6599727" lon="12.6968515"><ele>756.0</ele><time>2026-03-08T13:57:16.947Z</time></trkpt><trkpt lat="43.6600546" lon="12.6969292"><ele>756.0</ele><time>2026-03-08T13:57:17.946Z</time></trkpt><trkpt lat="43.6601379" lon="12.697002"><ele>757.1999999999999</ele><time>2026-03-08T13:57:18.946Z</time></trkpt><trkpt lat="43.6602251" lon="12.6970816"><ele>758.4</ele><time>2026-03-08T13:57:19.946Z</time></trkpt><trkpt lat="43.6603104" lon="12.6971698"><ele>759.6</ele><time>2026-03-08T13:57:20.946Z</time></trkpt><trkpt lat="43.6604045" lon="12.6972555"><ele>760.8</ele><time>2026-03-08T13:57:21.946Z</time></trkpt><trkpt lat="43.6605001" lon="12.6973444"><ele>762.0</ele><time>2026-03-08T13:57:22.946Z</time></trkpt><trkpt lat="43.6605885" lon="12.697434"><ele>762.2</ele><time>2026-03-08T13:57:23.946Z</time></trkpt><trkpt lat="43.6606697" lon="12.6975493"><ele>762.4000000000001</ele><time>2026-03-08T13:57:24.946Z</time></trkpt><trkpt lat="43.6607311" lon="12.6976646"><ele>762.5999999999999</ele><time>2026-03-08T13:57:25.946Z</time></trkpt><trkpt lat="43.6607883" lon="12.697789"><ele>762.8</ele><time>2026-03-08T13:57:26.946Z</time></trkpt><trkpt lat="43.6608479" lon="12.6979239"><ele>763.0</ele><time>2026-03-08T13:57:27.946Z</time></trkpt><trkpt lat="43.6609047" lon="12.6980742"><ele>765.0</ele><time>2026-03-08T13:57:28.946Z</time></trkpt><trkpt lat="43.6609432" lon="12.698218"><ele>767.0</ele><time>2026-03-08T13:57:29.946Z</time></trkpt><trkpt lat="43.6609846" lon="12.6983711"><ele>769.0</ele><time>2026-03-08T13:57:30.946Z</time></trkpt><trkpt lat="43.6610378" lon="12.6985719"><ele>771.0</ele><time>2026-03-08T13:57:31.946Z</time></trkpt><trkpt lat="43.6610832" lon="12.698725"><ele>770.5</ele><time>2026-03-08T13:57:32.947Z</time></trkpt><trkpt lat="43.6611376" lon="12.698867"><ele>770.0</ele><time>2026-03-08T13:57:33.947Z</time></trkpt><trkpt lat="43.6611886" lon="12.6990051"><ele>769.5</ele><time>2026-03-08T13:57:34.947Z</time></trkpt><trkpt lat="43.6612557" lon="12.699136"><ele>769.0</ele><time>2026-03-08T13:57:35.946Z</time></trkpt><trkpt lat="43.6613324" lon="12.6992568"><ele>769.0</ele><time>2026-03-08T13:57:36.946Z</time></trkpt><trkpt lat="43.6614179" lon="12.6993635"><ele>769.0</ele><time>2026-03-08T13:57:37.946Z</time></trkpt><trkpt lat="43.6615037" lon="12.6994811"><ele>769.0</ele><time>2026-03-08T13:57:38.946Z</time></trkpt><trkpt lat="43.6616" lon="12.6996073"><ele>769.0</ele><time>2026-03-08T13:57:39.947Z</time></trkpt><trkpt lat="43.6617019" lon="12.699702"><ele>767.5</ele><time>2026-03-08T13:57:40.946Z</time></trkpt><trkpt lat="43.6618115" lon="12.6997859"><ele>766.0</ele><time>2026-03-08T13:57:41.946Z</time></trkpt><trkpt lat="43.661926" lon="12.6998549"><ele>764.5</ele><time>2026-03-08T13:57:42.947Z</time></trkpt><trkpt lat="43.6620397" lon="12.699926"><ele>763.0</ele><time>2026-03-08T13:57:43.946Z</time></trkpt><trkpt lat="43.6621579" lon="12.7000112"><ele>763.0</ele><time>2026-03-08T13:57:44.947Z</time></trkpt><trkpt lat="43.6622693" lon="12.7000914"><ele>763.0</ele><time>2026-03-08T13:57:45.946Z</time></trkpt><trkpt lat="43.6623793" lon="12.700184"><ele>763.0</ele><time>2026-03-08T13:57:46.946Z</time></trkpt><trkpt lat="43.6624776" lon="12.7002774"><ele>763.0</ele><time>2026-03-08T13:57:47.946Z</time></trkpt><trkpt lat="43.6625759" lon="12.7003922"><ele>761.75</ele><time>2026-03-08T13:57:48.946Z</time></trkpt><trkpt lat="43.6626544" lon="12.7005226"><ele>760.5</ele><time>2026-03-08T13:57:49.946Z</time></trkpt><trkpt lat="43.6627289" lon="12.7006589"><ele>759.25</ele><time>2026-03-08T13:57:50.946Z</time></trkpt><trkpt lat="43.6627911" lon="12.7008111"><ele>758.0</ele><time>2026-03-08T13:57:51.947Z</time></trkpt><trkpt lat="43.6628469" lon="12.7009605"><ele>759.25</ele><time>2026-03-08T13:57:52.948Z</time></trkpt><trkpt lat="43.6629024" lon="12.7011065"><ele>760.5</ele><time>2026-03-08T13:57:53.946Z</time></trkpt><trkpt lat="43.6629491" lon="12.7012454"><ele>761.75</ele><time>2026-03-08T13:57:54.946Z</time></trkpt><trkpt lat="43.6629845" lon="12.7013881"><ele>763.0</ele><time>2026-03-08T13:57:55.946Z</time></trkpt><trkpt lat="43.6630054" lon="12.7015433"><ele>763.0</ele><time>2026-03-08T13:57:56.947Z</time></trkpt><trkpt lat="43.663014" lon="12.7017038"><ele>763.0</ele><time>2026-03-08T13:57:57.946Z</time></trkpt><trkpt lat="43.6630082" lon="12.7018687"><ele>763.0</ele><time>2026-03-08T13:57:58.947Z</time></trkpt><trkpt lat="43.6629875" lon="12.7020191"><ele>763.0</ele><time>2026-03-08T13:57:59.946Z</time></trkpt><trkpt lat="43.6629657" lon="12.7021649"><ele>762.3333333333334</ele><time>2026-03-08T13:58:00.946Z</time></trkpt><trkpt lat="43.6629337" lon="12.7022866"><ele>761.6666666666667</ele><time>2026-03-08T13:58:01.946Z</time></trkpt><trkpt lat="43.662892" lon="12.702399"><ele>761.0</ele><time>2026-03-08T13:58:02.947Z</time></trkpt><trkpt lat="43.6628477" lon="12.7024908"><ele>760.3333333333334</ele><time>2026-03-08T13:58:03.947Z</time></trkpt><trkpt lat="43.66281" lon="12.7025835"><ele>759.6666666666666</ele><time>2026-03-08T13:58:04.947Z</time></trkpt><trkpt lat="43.6627791" lon="12.7026622"><ele>759.0</ele><time>2026-03-08T13:58:05.946Z</time></trkpt><trkpt lat="43.6627078" lon="12.7027869"><ele>761.1666666666666</ele><time>2026-03-08T13:58:07.947Z</time></trkpt><trkpt lat="43.6626617" lon="12.7028507"><ele>763.3333333333333</ele><time>2026-03-08T13:58:08.946Z</time></trkpt><trkpt lat="43.6626216" lon="12.7029487"><ele>765.5</ele><time>2026-03-08T13:58:09.947Z</time></trkpt><trkpt lat="43.6625741" lon="12.7030596"><ele>767.6666666666666</ele><time>2026-03-08T13:58:10.947Z</time></trkpt><trkpt lat="43.6625261" lon="12.7031807"><ele>769.8333333333333</ele><time>2026-03-08T13:58:11.947Z</time></trkpt><trkpt lat="43.6624827" lon="12.7033036"><ele>772.0</ele><time>2026-03-08T13:58:12.947Z</time></trkpt><trkpt lat="43.6624405" lon="12.7034338"><ele>772.0</ele><time>2026-03-08T13:58:13.946Z</time></trkpt><trkpt lat="43.662413" lon="12.7035696"><ele>772.0</ele><time>2026-03-08T13:58:14.946Z</time></trkpt><trkpt lat="43.6623969" lon="12.7037065"><ele>772.0</ele><time>2026-03-08T13:58:15.946Z</time></trkpt><trkpt lat="43.6623949" lon="12.7038491"><ele>772.0</ele><time>2026-03-08T13:58:16.946Z</time></trkpt><trkpt lat="43.6623966" lon="12.703999"><ele>772.0</ele><time>2026-03-08T13:58:17.946Z</time></trkpt><trkpt lat="43.6623985" lon="12.7041281"><ele>771.7142857142858</ele><time>2026-03-08T13:58:18.947Z</time></trkpt><trkpt lat="43.6624238" lon="12.7042417"><ele>771.4285714285714</ele><time>2026-03-08T13:58:19.946Z</time></trkpt><trkpt lat="43.6624392" lon="12.7043445"><ele>771.1428571428571</ele><time>2026-03-08T13:58:20.946Z</time></trkpt><trkpt lat="43.6624632" lon="12.7044446"><ele>770.8571428571429</ele><time>2026-03-08T13:58:21.946Z</time></trkpt><trkpt lat="43.6624882" lon="12.7045299"><ele>770.5714285714286</ele><time>2026-03-08T13:58:22.946Z</time></trkpt><trkpt lat="43.6624959" lon="12.7046182"><ele>770.2857142857143</ele><time>2026-03-08T13:58:23.946Z</time></trkpt><trkpt lat="43.6625213" lon="12.7047086"><ele>770.0</ele><time>2026-03-08T13:58:24.947Z</time></trkpt><trkpt lat="43.6625515" lon="12.70481"><ele>770.0</ele><time>2026-03-08T13:58:25.947Z</time></trkpt><trkpt lat="43.6625785" lon="12.7049249"><ele>770.0</ele><time>2026-03-08T13:58:26.947Z</time></trkpt><trkpt lat="43.6625997" lon="12.7050461"><ele>770.0</ele><time>2026-03-08T13:58:27.947Z</time></trkpt><trkpt lat="43.6626187" lon="12.7051828"><ele>770.0</ele><time>2026-03-08T13:58:28.946Z</time></trkpt><trkpt lat="43.6626436" lon="12.7053418"><ele>770.0</ele><time>2026-03-08T13:58:29.947Z</time></trkpt><trkpt lat="43.6626618" lon="12.7055017"><ele>769.0</ele><time>2026-03-08T13:58:30.946Z</time></trkpt><trkpt lat="43.6626576" lon="12.7056679"><ele>768.0</ele><time>2026-03-08T13:58:31.946Z</time></trkpt><trkpt lat="43.6626523" lon="12.7058222"><ele>767.0</ele><time>2026-03-08T13:58:32.947Z</time></trkpt><trkpt lat="43.6626424" lon="12.7059759"><ele>766.0</ele><time>2026-03-08T13:58:33.946Z</time></trkpt><trkpt lat="43.6626229" lon="12.7061273"><ele>764.5999999999999</ele><time>2026-03-08T13:58:34.947Z</time></trkpt><trkpt lat="43.6626027" lon="12.7062848"><ele>763.2</ele><time>2026-03-08T13:58:35.948Z</time></trkpt><trkpt lat="43.6625737" lon="12.7064331"><ele>761.8</ele><time>2026-03-08T13:58:36.946Z</time></trkpt><trkpt lat="43.6625368" lon="12.7065693"><ele>760.4000000000001</ele><time>2026-03-08T13:58:37.946Z</time></trkpt><trkpt lat="43.6624897" lon="12.7067067"><ele>759.0</ele><time>2026-03-08T13:58:38.946Z</time></trkpt><trkpt lat="43.6624392" lon="12.706838"><ele>757.4000000000001</ele><time>2026-03-08T13:58:39.946Z</time></trkpt><trkpt lat="43.6623905" lon="12.7069581"><ele>755.8</ele><time>2026-03-08T13:58:40.947Z</time></trkpt><trkpt lat="43.6623644" lon="12.7070823"><ele>754.2</ele><time>2026-03-08T13:58:41.946Z</time></trkpt><trkpt lat="43.6623524" lon="12.7072314"><ele>752.5999999999999</ele><time>2026-03-08T13:58:42.946Z</time></trkpt><trkpt lat="43.6623396" lon="12.7073912"><ele>751.0</ele><time>2026-03-08T13:58:43.946Z</time></trkpt><trkpt lat="43.6623202" lon="12.7075693"><ele>751.0</ele><time>2026-03-08T13:58:44.946Z</time></trkpt><trkpt lat="43.6623136" lon="12.7077332"><ele>751.0</ele><time>2026-03-08T13:58:45.946Z</time></trkpt><trkpt lat="43.662327" lon="12.7079152"><ele>751.0</ele><time>2026-03-08T13:58:46.948Z</time></trkpt><trkpt lat="43.6623453" lon="12.7080762"><ele>751.0</ele><time>2026-03-08T13:58:47.946Z</time></trkpt><trkpt lat="43.6623688" lon="12.7082543"><ele>750.1999999999999</ele><time>2026-03-08T13:58:48.946Z</time></trkpt><trkpt lat="43.6623545" lon="12.70842"><ele>749.4</ele><time>2026-03-08T13:58:49.946Z</time></trkpt><trkpt lat="43.6623415" lon="12.7085782"><ele>748.6</ele><time>2026-03-08T13:58:50.946Z</time></trkpt><trkpt lat="43.6623151" lon="12.7087117"><ele>747.8</ele><time>2026-03-08T13:58:51.946Z</time></trkpt><trkpt lat="43.6622737" lon="12.7088283"><ele>747.0</ele><time>2026-03-08T13:58:52.947Z</time></trkpt><trkpt lat="43.6622129" lon="12.7089301"><ele>747.6</ele><time>2026-03-08T13:58:53.946Z</time></trkpt><trkpt lat="43.6621474" lon="12.7090324"><ele>748.2</ele><time>2026-03-08T13:58:54.946Z</time></trkpt><trkpt lat="43.6620823" lon="12.7091337"><ele>748.8</ele><time>2026-03-08T13:58:55.946Z</time></trkpt><trkpt lat="43.6620158" lon="12.7092247"><ele>749.4</ele><time>2026-03-08T13:58:56.946Z</time></trkpt><trkpt lat="43.6619368" lon="12.7093597"><ele>750.0</ele><time>2026-03-08T13:58:58.946Z</time></trkpt><trkpt lat="43.6619954" lon="12.7094467"><ele>750.0</ele><time>2026-03-08T13:59:00.947Z</time></trkpt><trkpt lat="43.6620847" lon="12.7095005"><ele>750.0</ele><time>2026-03-08T13:59:02.947Z</time></trkpt><trkpt lat="43.662282" lon="12.7095241"><ele>750.0</ele><time>2026-03-08T13:59:04.948Z</time></trkpt><trkpt lat="43.6623804" lon="12.7095662"><ele>750.0</ele><time>2026-03-08T13:59:05.946Z</time></trkpt><trkpt lat="43.662467" lon="12.7096123"><ele>750.0</ele><time>2026-03-08T13:59:06.946Z</time></trkpt><trkpt lat="43.6625517" lon="12.7096589"><ele>750.0</ele><time>2026-03-08T13:59:07.946Z</time></trkpt><trkpt lat="43.6626037" lon="12.7097228"><ele>750.0</ele><time>2026-03-08T13:59:08.946Z</time></trkpt><trkpt lat="43.6626578" lon="12.7098021"><ele>750.0</ele><time>2026-03-08T13:59:09.946Z</time></trkpt><trkpt lat="43.6626985" lon="12.7099099"><ele>750.0</ele><time>2026-03-08T13:59:10.946Z</time></trkpt><trkpt lat="43.6627563" lon="12.7100526"><ele>750.0</ele><time>2026-03-08T13:59:11.946Z</time></trkpt><trkpt lat="43.6627792" lon="12.7101682"><ele>750.8333333333334</ele><time>2026-03-08T13:59:12.946Z</time></trkpt><trkpt lat="43.6628207" lon="12.7102772"><ele>751.6666666666666</ele><time>2026-03-08T13:59:13.946Z</time></trkpt><trkpt lat="43.6628469" lon="12.7103654"><ele>752.5</ele><time>2026-03-08T13:59:14.946Z</time></trkpt><trkpt lat="43.6628667" lon="12.7104555"><ele>753.3333333333333</ele><time>2026-03-08T13:59:15.946Z</time></trkpt><trkpt lat="43.6628255" lon="12.7105394"><ele>754.1666666666666</ele><time>2026-03-08T13:59:16.947Z</time></trkpt><trkpt lat="43.6627507" lon="12.7106502"><ele>755.0</ele><time>2026-03-08T13:59:18.946Z</time></trkpt><trkpt lat="43.6627395" lon="12.7107601"><ele>749.3333333333333</ele><time>2026-03-08T13:59:20.946Z</time></trkpt><trkpt lat="43.6627926" lon="12.7108238"><ele>743.6666666666666</ele><time>2026-03-08T13:59:24.947Z</time></trkpt><trkpt lat="43.6628755" lon="12.7108539"><ele>738.0</ele><time>2026-03-08T13:59:26.946Z</time></trkpt><trkpt lat="43.662979" lon="12.7108864"><ele>732.3333333333334</ele><time>2026-03-08T13:59:28.947Z</time></trkpt><trkpt lat="43.6630572" lon="12.7109323"><ele>726.6666666666667</ele><time>2026-03-08T13:59:29.946Z</time></trkpt><trkpt lat="43.66315" lon="12.7109919"><ele>721.0</ele><time>2026-03-08T13:59:30.946Z</time></trkpt><trkpt lat="43.6632503" lon="12.711059"><ele>718.0</ele><time>2026-03-08T13:59:31.946Z</time></trkpt><trkpt lat="43.6633438" lon="12.7111406"><ele>715.0</ele><time>2026-03-08T13:59:32.946Z</time></trkpt><trkpt lat="43.6634258" lon="12.7112181"><ele>712.0</ele><time>2026-03-08T13:59:33.946Z</time></trkpt><trkpt lat="43.6634936" lon="12.711326"><ele>709.0</ele><time>2026-03-08T13:59:34.947Z</time></trkpt><trkpt lat="43.6635539" lon="12.7114503"><ele>706.0</ele><time>2026-03-08T13:59:35.946Z</time></trkpt><trkpt lat="43.6636312" lon="12.7115768"><ele>706.0</ele><time>2026-03-08T13:59:36.947Z</time></trkpt><trkpt lat="43.6636867" lon="12.7116964"><ele>706.0</ele><time>2026-03-08T13:59:37.946Z</time></trkpt><trkpt lat="43.6637718" lon="12.7118159"><ele>706.0</ele><time>2026-03-08T13:59:38.946Z</time></trkpt><trkpt lat="43.6638518" lon="12.7119444"><ele>706.0</ele><time>2026-03-08T13:59:39.946Z</time></trkpt><trkpt lat="43.6639207" lon="12.7120576"><ele>709.5</ele><time>2026-03-08T13:59:40.947Z</time></trkpt><trkpt lat="43.6639804" lon="12.7121822"><ele>713.0</ele><time>2026-03-08T13:59:41.946Z</time></trkpt><trkpt lat="43.664009" lon="12.71238"><ele>716.5</ele><time>2026-03-08T13:59:42.948Z</time></trkpt><trkpt lat="43.6640712" lon="12.7124922"><ele>720.0</ele><time>2026-03-08T13:59:43.947Z</time></trkpt><trkpt lat="43.6641522" lon="12.7126024"><ele>720.0</ele><time>2026-03-08T13:59:44.946Z</time></trkpt><trkpt lat="43.6642344" lon="12.7127299"><ele>720.0</ele><time>2026-03-08T13:59:45.946Z</time></trkpt><trkpt lat="43.6642894" lon="12.7128682"><ele>720.0</ele><time>2026-03-08T13:59:46.947Z</time></trkpt><trkpt lat="43.6643127" lon="12.7130049"><ele>720.0</ele><time>2026-03-08T13:59:47.946Z</time></trkpt><trkpt lat="43.6643308" lon="12.7131416"><ele>720.0</ele><time>2026-03-08T13:59:48.947Z</time></trkpt><trkpt lat="43.6643013" lon="12.7132795"><ele>718.0</ele><time>2026-03-08T13:59:49.946Z</time></trkpt><trkpt lat="43.6642583" lon="12.7134293"><ele>716.0</ele><time>2026-03-08T13:59:50.946Z</time></trkpt><trkpt lat="43.6641903" lon="12.7135432"><ele>714.0</ele><time>2026-03-08T13:59:51.946Z</time></trkpt><trkpt lat="43.6641172" lon="12.7136615"><ele>712.0</ele><time>2026-03-08T13:59:52.947Z</time></trkpt><trkpt lat="43.6640515" lon="12.7137913"><ele>708.6</ele><time>2026-03-08T13:59:53.946Z</time></trkpt><trkpt lat="43.6639967" lon="12.7138973"><ele>705.2</ele><time>2026-03-08T13:59:54.946Z</time></trkpt><trkpt lat="43.6639427" lon="12.7140086"><ele>701.8</ele><time>2026-03-08T13:59:55.947Z</time></trkpt><trkpt lat="43.6638669" lon="12.7141109"><ele>698.4</ele><time>2026-03-08T13:59:56.946Z</time></trkpt><trkpt lat="43.6638178" lon="12.7141991"><ele>695.0</ele><time>2026-03-08T13:59:57.947Z</time></trkpt><trkpt lat="43.6637871" lon="12.7143126"><ele>692.8333333333333</ele><time>2026-03-08T13:59:58.946Z</time></trkpt><trkpt lat="43.6637843" lon="12.7144199"><ele>690.6666666666666</ele><time>2026-03-08T13:59:59.946Z</time></trkpt><trkpt lat="43.6637786" lon="12.7145387"><ele>688.5</ele><time>2026-03-08T14:00:00.946Z</time></trkpt><trkpt lat="43.6637422" lon="12.7146501"><ele>686.3333333333334</ele><time>2026-03-08T14:00:01.946Z</time></trkpt><trkpt lat="43.6637071" lon="12.7147456"><ele>684.1666666666667</ele><time>2026-03-08T14:00:02.946Z</time></trkpt><trkpt lat="43.6636444" lon="12.7148292"><ele>682.0</ele><time>2026-03-08T14:00:03.946Z</time></trkpt><trkpt lat="43.6636043" lon="12.7149178"><ele>682.0</ele><time>2026-03-08T14:00:04.946Z</time></trkpt><trkpt lat="43.6636388" lon="12.7150527"><ele>682.0</ele><time>2026-03-08T14:00:06.946Z</time></trkpt><trkpt lat="43.6637225" lon="12.7150294"><ele>682.0</ele><time>2026-03-08T14:00:08.946Z</time></trkpt><trkpt lat="43.6637917" lon="12.7149618"><ele>682.0</ele><time>2026-03-08T14:00:09.946Z</time></trkpt><trkpt lat="43.6638417" lon="12.7148728"><ele>682.0</ele><time>2026-03-08T14:00:10.946Z</time></trkpt><trkpt lat="43.6639128" lon="12.7147788"><ele>682.0</ele><time>2026-03-08T14:00:11.947Z</time></trkpt><trkpt lat="43.6639909" lon="12.714693"><ele>682.0</ele><time>2026-03-08T14:00:12.946Z</time></trkpt><trkpt lat="43.6640805" lon="12.7146254"><ele>682.0</ele><time>2026-03-08T14:00:13.947Z</time></trkpt><trkpt lat="43.6641643" lon="12.7145735"><ele>682.0</ele><time>2026-03-08T14:00:14.946Z</time></trkpt><trkpt lat="43.6642303" lon="12.7145301"><ele>682.0</ele><time>2026-03-08T14:00:15.946Z</time></trkpt><trkpt lat="43.6643304" lon="12.714506"><ele>682.0</ele><time>2026-03-08T14:00:17.947Z</time></trkpt><trkpt lat="43.664365" lon="12.7146155"><ele>682.0</ele><time>2026-03-08T14:00:19.947Z</time></trkpt><trkpt lat="43.6642988" lon="12.7147593"><ele>682.0</ele><time>2026-03-08T14:00:21.949Z</time></trkpt><trkpt lat="43.6642326" lon="12.7148275"><ele>682.0</ele><time>2026-03-08T14:00:22.947Z</time></trkpt><trkpt lat="43.6641659" lon="12.7148748"><ele>682.0</ele><time>2026-03-08T14:00:23.946Z</time></trkpt><trkpt lat="43.6641096" lon="12.7149255"><ele>682.0</ele><time>2026-03-08T14:00:24.947Z</time></trkpt><trkpt lat="43.664114" lon="12.7150585"><ele>682.0</ele><time>2026-03-08T14:00:26.946Z</time></trkpt><trkpt lat="43.6642091" lon="12.7150807"><ele>682.0</ele><time>2026-03-08T14:00:28.946Z</time></trkpt><trkpt lat="43.6642771" lon="12.7150394"><ele>682.0</ele><time>2026-03-08T14:00:29.947Z</time></trkpt><trkpt lat="43.6643559" lon="12.714995"><ele>682.0</ele><time>2026-03-08T14:00:30.947Z</time></trkpt><trkpt lat="43.6644436" lon="12.7149666"><ele>682.0</ele><time>2026-03-08T14:00:31.946Z</time></trkpt><trkpt lat="43.6645145" lon="12.7149113"><ele>682.0</ele><time>2026-03-08T14:00:32.946Z</time></trkpt><trkpt lat="43.6645741" lon="12.7148319"><ele>679.5</ele><time>2026-03-08T14:00:33.946Z</time></trkpt><trkpt lat="43.6646218" lon="12.7147407"><ele>677.0</ele><time>2026-03-08T14:00:34.947Z</time></trkpt><trkpt lat="43.6646634" lon="12.7146494"><ele>674.5</ele><time>2026-03-08T14:00:35.947Z</time></trkpt><trkpt lat="43.6646815" lon="12.7145423"><ele>672.0</ele><time>2026-03-08T14:00:36.947Z</time></trkpt><trkpt lat="43.6646381" lon="12.7143828"><ele>669.5</ele><time>2026-03-08T14:00:38.947Z</time></trkpt><trkpt lat="43.6646051" lon="12.7142988"><ele>667.0</ele><time>2026-03-08T14:00:39.946Z</time></trkpt><trkpt lat="43.6645736" lon="12.7142201"><ele>667.0</ele><time>2026-03-08T14:00:40.946Z</time></trkpt><trkpt lat="43.6646077" lon="12.7141249"><ele>667.0</ele><time>2026-03-08T14:00:42.946Z</time></trkpt><trkpt lat="43.6646716" lon="12.7141267"><ele>667.0</ele><time>2026-03-08T14:00:51.946Z</time></trkpt><trkpt lat="43.6647036" lon="12.7142375"><ele>667.0</ele><time>2026-03-08T14:00:53.948Z</time></trkpt><trkpt lat="43.6647365" lon="12.7143217"><ele>667.0</ele><time>2026-03-08T14:00:54.946Z</time></trkpt><trkpt lat="43.6647796" lon="12.7144188"><ele>667.0</ele><time>2026-03-08T14:00:55.946Z</time></trkpt><trkpt lat="43.6648071" lon="12.7145099"><ele>665.5714285714287</ele><time>2026-03-08T14:00:56.947Z</time></trkpt><trkpt lat="43.6648241" lon="12.7146112"><ele>664.1428571428571</ele><time>2026-03-08T14:00:57.946Z</time></trkpt><trkpt lat="43.6648301" lon="12.7147143"><ele>662.7142857142858</ele><time>2026-03-08T14:00:58.946Z</time></trkpt><trkpt lat="43.6648206" lon="12.7148141"><ele>661.2857142857143</ele><time>2026-03-08T14:00:59.946Z</time></trkpt><trkpt lat="43.6647972" lon="12.714907"><ele>659.8571428571429</ele><time>2026-03-08T14:01:00.946Z</time></trkpt><trkpt lat="43.664767" lon="12.7149937"><ele>658.4285714285714</ele><time>2026-03-08T14:01:01.946Z</time></trkpt><trkpt lat="43.6647315" lon="12.7150815"><ele>657.0</ele><time>2026-03-08T14:01:02.946Z</time></trkpt><trkpt lat="43.6646904" lon="12.7151677"><ele>655.0</ele><time>2026-03-08T14:01:03.947Z</time></trkpt><trkpt lat="43.6646326" lon="12.7152451"><ele>653.0</ele><time>2026-03-08T14:01:04.947Z</time></trkpt><trkpt lat="43.6645699" lon="12.7153249"><ele>651.0</ele><time>2026-03-08T14:01:05.946Z</time></trkpt><trkpt lat="43.6645032" lon="12.7154084"><ele>649.0</ele><time>2026-03-08T14:01:06.946Z</time></trkpt><trkpt lat="43.6644282" lon="12.7155007"><ele>647.0</ele><time>2026-03-08T14:01:07.946Z</time></trkpt><trkpt lat="43.6643459" lon="12.7155905"><ele>652.5</ele><time>2026-03-08T14:01:08.946Z</time></trkpt><trkpt lat="43.6642502" lon="12.7156879"><ele>658.0</ele><time>2026-03-08T14:01:09.946Z</time></trkpt><trkpt lat="43.664161" lon="12.7157831"><ele>663.5</ele><time>2026-03-08T14:01:10.946Z</time></trkpt><trkpt lat="43.6640759" lon="12.7158907"><ele>669.0</ele><time>2026-03-08T14:01:11.947Z</time></trkpt><trkpt lat="43.6639863" lon="12.7160133"><ele>666.6</ele><time>2026-03-08T14:01:12.946Z</time></trkpt><trkpt lat="43.6639112" lon="12.7161236"><ele>664.2</ele><time>2026-03-08T14:01:13.947Z</time></trkpt><trkpt lat="43.6638408" lon="12.7162482"><ele>661.8000000000001</ele><time>2026-03-08T14:01:14.947Z</time></trkpt><trkpt lat="43.6637791" lon="12.7163799"><ele>659.4000000000001</ele><time>2026-03-08T14:01:15.947Z</time></trkpt><trkpt lat="43.6637478" lon="12.7164704"><ele>657.0</ele><time>2026-03-08T14:01:16.946Z</time></trkpt><trkpt lat="43.6637382" lon="12.716586"><ele>657.0</ele><time>2026-03-08T14:01:17.946Z</time></trkpt><trkpt lat="43.6637441" lon="12.7167026"><ele>657.0</ele><time>2026-03-08T14:01:18.946Z</time></trkpt><trkpt lat="43.6637369" lon="12.716813"><ele>657.0</ele><time>2026-03-08T14:01:19.946Z</time></trkpt><trkpt lat="43.6637088" lon="12.71693"><ele>657.0</ele><time>2026-03-08T14:01:20.946Z</time></trkpt><trkpt lat="43.6637062" lon="12.7170294"><ele>657.0</ele><time>2026-03-08T14:01:21.948Z</time></trkpt><trkpt lat="43.6637126" lon="12.7171581"><ele>657.0</ele><time>2026-03-08T14:01:22.947Z</time></trkpt><trkpt lat="43.6637191" lon="12.7172847"><ele>656.2</ele><time>2026-03-08T14:01:23.947Z</time></trkpt><trkpt lat="43.6637238" lon="12.7173977"><ele>655.4000000000001</ele><time>2026-03-08T14:01:24.946Z</time></trkpt><trkpt lat="43.6637452" lon="12.717488"><ele>654.5999999999999</ele><time>2026-03-08T14:01:25.946Z</time></trkpt><trkpt lat="43.6637122" lon="12.7176239"><ele>653.8</ele><time>2026-03-08T14:01:27.946Z</time></trkpt><trkpt lat="43.6635637" lon="12.7176696"><ele>653.0</ele><time>2026-03-08T14:01:29.948Z</time></trkpt><trkpt lat="43.6634656" lon="12.7176424"><ele>654.8571428571429</ele><time>2026-03-08T14:01:30.947Z</time></trkpt><trkpt lat="43.6633848" lon="12.7176451"><ele>656.7142857142858</ele><time>2026-03-08T14:01:31.946Z</time></trkpt><trkpt lat="43.663313" lon="12.7176483"><ele>658.5714285714287</ele><time>2026-03-08T14:01:32.946Z</time></trkpt><trkpt lat="43.6632395" lon="12.7176961"><ele>660.4285714285714</ele><time>2026-03-08T14:01:34.946Z</time></trkpt><trkpt lat="43.6632577" lon="12.7177879"><ele>662.2857142857142</ele><time>2026-03-08T14:01:35.946Z</time></trkpt><trkpt lat="43.6632776" lon="12.7178728"><ele>664.1428571428572</ele><time>2026-03-08T14:01:36.946Z</time></trkpt><trkpt lat="43.6633032" lon="12.7179757"><ele>666.0</ele><time>2026-03-08T14:01:37.947Z</time></trkpt><trkpt lat="43.6633116" lon="12.7180982"><ele>666.0</ele><time>2026-03-08T14:01:38.947Z</time></trkpt><trkpt lat="43.6633099" lon="12.7182279"><ele>666.0</ele><time>2026-03-08T14:01:39.946Z</time></trkpt><trkpt lat="43.6633091" lon="12.7183664"><ele>666.0</ele><time>2026-03-08T14:01:40.947Z</time></trkpt><trkpt lat="43.6633012" lon="12.7184964"><ele>666.0</ele><time>2026-03-08T14:01:41.948Z</time></trkpt><trkpt lat="43.6632946" lon="12.7186421"><ele>666.0</ele><time>2026-03-08T14:01:42.947Z</time></trkpt><trkpt lat="43.6632575" lon="12.7187749"><ele>664.0</ele><time>2026-03-08T14:01:43.946Z</time></trkpt><trkpt lat="43.6632128" lon="12.7188891"><ele>662.0</ele><time>2026-03-08T14:01:44.947Z</time></trkpt><trkpt lat="43.6631628" lon="12.7190074"><ele>660.0</ele><time>2026-03-08T14:01:45.947Z</time></trkpt><trkpt lat="43.6631282" lon="12.7191359"><ele>658.0</ele><time>2026-03-08T14:01:46.946Z</time></trkpt><trkpt lat="43.6630794" lon="12.7192637"><ele>656.0</ele><time>2026-03-08T14:01:47.948Z</time></trkpt><trkpt lat="43.663018" lon="12.7193513"><ele>654.5999999999999</ele><time>2026-03-08T14:01:48.947Z</time></trkpt><trkpt lat="43.6629918" lon="12.7194774"><ele>653.2</ele><time>2026-03-08T14:01:49.946Z</time></trkpt><trkpt lat="43.6629662" lon="12.7195667"><ele>651.8</ele><time>2026-03-08T14:01:50.946Z</time></trkpt><trkpt lat="43.6629192" lon="12.7196971"><ele>650.4000000000001</ele><time>2026-03-08T14:01:51.947Z</time></trkpt><trkpt lat="43.6628692" lon="12.7198153"><ele>649.0</ele><time>2026-03-08T14:01:52.946Z</time></trkpt><trkpt lat="43.6628171" lon="12.7199157"><ele>650.3333333333334</ele><time>2026-03-08T14:01:53.947Z</time></trkpt><trkpt lat="43.6627694" lon="12.7200196"><ele>651.6666666666667</ele><time>2026-03-08T14:01:54.946Z</time></trkpt><trkpt lat="43.6627195" lon="12.7201061"><ele>653.0</ele><time>2026-03-08T14:01:55.947Z</time></trkpt><trkpt lat="43.662687" lon="12.7201912"><ele>654.3333333333334</ele><time>2026-03-08T14:01:56.947Z</time></trkpt><trkpt lat="43.6626922" lon="12.7203478"><ele>655.6666666666666</ele><time>2026-03-08T14:01:58.947Z</time></trkpt><trkpt lat="43.6627448" lon="12.7204093"><ele>657.0</ele><time>2026-03-08T14:01:59.946Z</time></trkpt><trkpt lat="43.6627972" lon="12.7204612"><ele>657.0</ele><time>2026-03-08T14:02:00.949Z</time></trkpt><trkpt lat="43.6628634" lon="12.7205586"><ele>657.0</ele><time>2026-03-08T14:02:01.946Z</time></trkpt><trkpt lat="43.6629287" lon="12.7206317"><ele>657.0</ele><time>2026-03-08T14:02:02.946Z</time></trkpt><trkpt lat="43.6630013" lon="12.720726"><ele>657.0</ele><time>2026-03-08T14:02:03.947Z</time></trkpt><trkpt lat="43.6630992" lon="12.7207833"><ele>657.0</ele><time>2026-03-08T14:02:04.947Z</time></trkpt><trkpt lat="43.6631863" lon="12.7208382"><ele>657.0</ele><time>2026-03-08T14:02:05.946Z</time></trkpt><trkpt lat="43.6633364" lon="12.720926"><ele>657.0</ele><time>2026-03-08T14:02:06.948Z</time></trkpt><trkpt lat="43.6634235" lon="12.7210023"><ele>657.0</ele><time>2026-03-08T14:02:07.946Z</time></trkpt><trkpt lat="43.6635219" lon="12.7211058"><ele>657.0</ele><time>2026-03-08T14:02:08.946Z</time></trkpt><trkpt lat="43.6635964" lon="12.7211939"><ele>652.75</ele><time>2026-03-08T14:02:09.946Z</time></trkpt><trkpt lat="43.6636698" lon="12.7213042"><ele>648.5</ele><time>2026-03-08T14:02:10.947Z</time></trkpt><trkpt lat="43.6637505" lon="12.7214624"><ele>644.25</ele><time>2026-03-08T14:02:11.946Z</time></trkpt><trkpt lat="43.6637987" lon="12.7216086"><ele>640.0</ele><time>2026-03-08T14:02:12.946Z</time></trkpt><trkpt lat="43.6638722" lon="12.7217323"><ele>640.0</ele><time>2026-03-08T14:02:13.946Z</time></trkpt><trkpt lat="43.6639582" lon="12.7218353"><ele>640.0</ele><time>2026-03-08T14:02:14.948Z</time></trkpt><trkpt lat="43.6640102" lon="12.7219574"><ele>640.0</ele><time>2026-03-08T14:02:15.946Z</time></trkpt><trkpt lat="43.6640747" lon="12.7220984"><ele>640.0</ele><time>2026-03-08T14:02:16.946Z</time></trkpt><trkpt lat="43.6641239" lon="12.7222407"><ele>640.75</ele><time>2026-03-08T14:02:17.948Z</time></trkpt><trkpt lat="43.6641488" lon="12.7223813"><ele>641.5</ele><time>2026-03-08T14:02:18.947Z</time></trkpt><trkpt lat="43.6640861" lon="12.7225632"><ele>642.25</ele><time>2026-03-08T14:02:19.947Z</time></trkpt><trkpt lat="43.6640635" lon="12.7227201"><ele>643.0</ele><time>2026-03-08T14:02:20.946Z</time></trkpt><trkpt lat="43.66406" lon="12.7228736"><ele>643.0</ele><time>2026-03-08T14:02:21.948Z</time></trkpt><trkpt lat="43.664075" lon="12.7230312"><ele>643.0</ele><time>2026-03-08T14:02:22.947Z</time></trkpt><trkpt lat="43.6640935" lon="12.7231787"><ele>643.0</ele><time>2026-03-08T14:02:23.946Z</time></trkpt><trkpt lat="43.6641172" lon="12.723337"><ele>643.0</ele><time>2026-03-08T14:02:24.946Z</time></trkpt><trkpt lat="43.66415" lon="12.7235122"><ele>642.8</ele><time>2026-03-08T14:02:25.948Z</time></trkpt><trkpt lat="43.6641515" lon="12.7236736"><ele>642.5999999999999</ele><time>2026-03-08T14:02:26.946Z</time></trkpt><trkpt lat="43.6641568" lon="12.7238072"><ele>642.4000000000001</ele><time>2026-03-08T14:02:27.946Z</time></trkpt><trkpt lat="43.6641584" lon="12.7239538"><ele>642.2</ele><time>2026-03-08T14:02:28.947Z</time></trkpt><trkpt lat="43.6641778" lon="12.7241108"><ele>642.0</ele><time>2026-03-08T14:02:29.946Z</time></trkpt><trkpt lat="43.664198" lon="12.7242674"><ele>640.8000000000001</ele><time>2026-03-08T14:02:30.947Z</time></trkpt><trkpt lat="43.6642309" lon="12.7244091"><ele>639.6</ele><time>2026-03-08T14:02:31.947Z</time></trkpt><trkpt lat="43.6642591" lon="12.7245476"><ele>638.4000000000001</ele><time>2026-03-08T14:02:32.948Z</time></trkpt><trkpt lat="43.6642741" lon="12.7246856"><ele>637.2</ele><time>2026-03-08T14:02:33.948Z</time></trkpt><trkpt lat="43.6643045" lon="12.7248504"><ele>636.0</ele><time>2026-03-08T14:02:34.946Z</time></trkpt><trkpt lat="43.6643067" lon="12.7250045"><ele>636.0</ele><time>2026-03-08T14:02:35.946Z</time></trkpt><trkpt lat="43.6642878" lon="12.725144"><ele>636.0</ele><time>2026-03-08T14:02:36.947Z</time></trkpt><trkpt lat="43.6642559" lon="12.7253006"><ele>636.0</ele><time>2026-03-08T14:02:37.946Z</time></trkpt><trkpt lat="43.6642344" lon="12.725451"><ele>636.0</ele><time>2026-03-08T14:02:38.947Z</time></trkpt><trkpt lat="43.6642105" lon="12.7256008"><ele>636.0</ele><time>2026-03-08T14:02:39.947Z</time></trkpt><trkpt lat="43.6641729" lon="12.7257372"><ele>633.0</ele><time>2026-03-08T14:02:40.946Z</time></trkpt><trkpt lat="43.6641255" lon="12.7258729"><ele>630.0</ele><time>2026-03-08T14:02:41.946Z</time></trkpt><trkpt lat="43.6640876" lon="12.726006"><ele>627.0</ele><time>2026-03-08T14:02:42.947Z</time></trkpt><trkpt lat="43.6640307" lon="12.7261327"><ele>624.0</ele><time>2026-03-08T14:02:43.947Z</time></trkpt><trkpt lat="43.6639409" lon="12.7262262"><ele>621.0</ele><time>2026-03-08T14:02:44.946Z</time></trkpt><trkpt lat="43.6638809" lon="12.7262945"><ele>618.8333333333334</ele><time>2026-03-08T14:02:45.946Z</time></trkpt><trkpt lat="43.6638042" lon="12.7263481"><ele>616.6666666666666</ele><time>2026-03-08T14:02:46.946Z</time></trkpt><trkpt lat="43.6637191" lon="12.7263693"><ele>614.5</ele><time>2026-03-08T14:02:47.947Z</time></trkpt><trkpt lat="43.6636628" lon="12.7264278"><ele>612.3333333333333</ele><time>2026-03-08T14:02:48.947Z</time></trkpt><trkpt lat="43.6636629" lon="12.7265705"><ele>610.1666666666666</ele><time>2026-03-08T14:02:50.946Z</time></trkpt><trkpt lat="43.663758" lon="12.7265949"><ele>608.0</ele><time>2026-03-08T14:02:52.946Z</time></trkpt><trkpt lat="43.6638936" lon="12.7265012"><ele>608.0</ele><time>2026-03-08T14:02:54.946Z</time></trkpt><trkpt lat="43.6639713" lon="12.7264473"><ele>608.0</ele><time>2026-03-08T14:02:55.946Z</time></trkpt><trkpt lat="43.6640589" lon="12.7263898"><ele>608.0</ele><time>2026-03-08T14:02:56.947Z</time></trkpt><trkpt lat="43.6641472" lon="12.7263344"><ele>608.0</ele><time>2026-03-08T14:02:57.946Z</time></trkpt><trkpt lat="43.6642182" lon="12.7262468"><ele>608.0</ele><time>2026-03-08T14:02:58.946Z</time></trkpt><trkpt lat="43.6643008" lon="12.7261707"><ele>608.0</ele><time>2026-03-08T14:02:59.946Z</time></trkpt><trkpt lat="43.6643733" lon="12.7260784"><ele>608.0</ele><time>2026-03-08T14:03:00.946Z</time></trkpt><trkpt lat="43.6644315" lon="12.7259917"><ele>608.0</ele><time>2026-03-08T14:03:01.947Z</time></trkpt><trkpt lat="43.664505" lon="12.7258886"><ele>608.0</ele><time>2026-03-08T14:03:02.947Z</time></trkpt><trkpt lat="43.664582" lon="12.7257948"><ele>608.0</ele><time>2026-03-08T14:03:03.946Z</time></trkpt><trkpt lat="43.6646615" lon="12.7257008"><ele>607.0</ele><time>2026-03-08T14:03:04.946Z</time></trkpt><trkpt lat="43.664705" lon="12.7255934"><ele>606.0</ele><time>2026-03-08T14:03:05.946Z</time></trkpt><trkpt lat="43.6647664" lon="12.7254569"><ele>605.0</ele><time>2026-03-08T14:03:06.947Z</time></trkpt><trkpt lat="43.664816" lon="12.7253307"><ele>604.0</ele><time>2026-03-08T14:03:07.946Z</time></trkpt><trkpt lat="43.6648626" lon="12.7251879"><ele>603.0</ele><time>2026-03-08T14:03:08.948Z</time></trkpt><trkpt lat="43.6649096" lon="12.7250104"><ele>603.0</ele><time>2026-03-08T14:03:09.946Z</time></trkpt><trkpt lat="43.6649699" lon="12.7248395"><ele>603.0</ele><time>2026-03-08T14:03:10.947Z</time></trkpt><trkpt lat="43.6650226" lon="12.7246769"><ele>603.0</ele><time>2026-03-08T14:03:11.947Z</time></trkpt><trkpt lat="43.6650624" lon="12.7245049"><ele>603.0</ele><time>2026-03-08T14:03:12.946Z</time></trkpt><trkpt lat="43.6650978" lon="12.7243503"><ele>603.75</ele><time>2026-03-08T14:03:13.948Z</time></trkpt><trkpt lat="43.6651345" lon="12.7241808"><ele>604.5</ele><time>2026-03-08T14:03:14.946Z</time></trkpt><trkpt lat="43.6651699" lon="12.7240192"><ele>605.25</ele><time>2026-03-08T14:03:15.948Z</time></trkpt><trkpt lat="43.6652048" lon="12.7238462"><ele>606.0</ele><time>2026-03-08T14:03:16.947Z</time></trkpt><trkpt lat="43.6652232" lon="12.7236695"><ele>606.5</ele><time>2026-03-08T14:03:17.946Z</time></trkpt><trkpt lat="43.6652388" lon="12.7234936"><ele>607.0</ele><time>2026-03-08T14:03:18.946Z</time></trkpt><trkpt lat="43.6652596" lon="12.7233275"><ele>607.5</ele><time>2026-03-08T14:03:19.947Z</time></trkpt><trkpt lat="43.6653122" lon="12.7231444"><ele>608.0</ele><time>2026-03-08T14:03:20.946Z</time></trkpt><trkpt lat="43.6653183" lon="12.7229852"><ele>597.75</ele><time>2026-03-08T14:03:21.946Z</time></trkpt><trkpt lat="43.6653324" lon="12.7228141"><ele>587.5</ele><time>2026-03-08T14:03:22.946Z</time></trkpt><trkpt lat="43.6653371" lon="12.7226518"><ele>577.25</ele><time>2026-03-08T14:03:23.947Z</time></trkpt><trkpt lat="43.6653247" lon="12.722478"><ele>567.0</ele><time>2026-03-08T14:03:24.946Z</time></trkpt><trkpt lat="43.6653013" lon="12.7223068"><ele>573.75</ele><time>2026-03-08T14:03:25.946Z</time></trkpt><trkpt lat="43.6652527" lon="12.7221283"><ele>580.5</ele><time>2026-03-08T14:03:26.946Z</time></trkpt><trkpt lat="43.6652038" lon="12.7219596"><ele>587.25</ele><time>2026-03-08T14:03:27.946Z</time></trkpt><trkpt lat="43.6651443" lon="12.7217819"><ele>594.0</ele><time>2026-03-08T14:03:28.947Z</time></trkpt><trkpt lat="43.6650996" lon="12.7216479"><ele>594.0</ele><time>2026-03-08T14:03:29.947Z</time></trkpt><trkpt lat="43.6650238" lon="12.7214883"><ele>594.0</ele><time>2026-03-08T14:03:30.947Z</time></trkpt><trkpt lat="43.6649519" lon="12.7213303"><ele>594.0</ele><time>2026-03-08T14:03:31.946Z</time></trkpt><trkpt lat="43.6649138" lon="12.7212211"><ele>594.0</ele><time>2026-03-08T14:03:32.947Z</time></trkpt><trkpt lat="43.6648457" lon="12.7210858"><ele>588.5</ele><time>2026-03-08T14:03:33.947Z</time></trkpt><trkpt lat="43.6647709" lon="12.7209582"><ele>583.0</ele><time>2026-03-08T14:03:34.946Z</time></trkpt><trkpt lat="43.6646866" lon="12.7208376"><ele>577.5</ele><time>2026-03-08T14:03:35.948Z</time></trkpt><trkpt lat="43.664599" lon="12.7207064"><ele>572.0</ele><time>2026-03-08T14:03:36.946Z</time></trkpt><trkpt lat="43.6645247" lon="12.720604"><ele>580.0</ele><time>2026-03-08T14:03:37.946Z</time></trkpt><trkpt lat="43.6644446" lon="12.720499"><ele>588.0</ele><time>2026-03-08T14:03:38.948Z</time></trkpt><trkpt lat="43.6643891" lon="12.720416"><ele>596.0</ele><time>2026-03-08T14:03:39.947Z</time></trkpt><trkpt lat="43.6643907" lon="12.72027"><ele>604.0</ele><time>2026-03-08T14:03:40.946Z</time></trkpt><trkpt lat="43.664399" lon="12.7201454"><ele>612.0</ele><time>2026-03-08T14:03:41.947Z</time></trkpt><trkpt lat="43.6644188" lon="12.7200187"><ele>612.0</ele><time>2026-03-08T14:03:42.946Z</time></trkpt><trkpt lat="43.6644279" lon="12.7198619"><ele>612.0</ele><time>2026-03-08T14:03:43.946Z</time></trkpt><trkpt lat="43.6644385" lon="12.7197062"><ele>612.0</ele><time>2026-03-08T14:03:44.946Z</time></trkpt><trkpt lat="43.6644574" lon="12.7195668"><ele>612.0</ele><time>2026-03-08T14:03:45.947Z</time></trkpt><trkpt lat="43.6644919" lon="12.7194451"><ele>612.0</ele><time>2026-03-08T14:03:46.947Z</time></trkpt><trkpt lat="43.664539" lon="12.7193584"><ele>604.75</ele><time>2026-03-08T14:03:47.946Z</time></trkpt><trkpt lat="43.664583" lon="12.7192849"><ele>597.5</ele><time>2026-03-08T14:03:48.946Z</time></trkpt><trkpt lat="43.6647303" lon="12.7192174"><ele>590.25</ele><time>2026-03-08T14:03:50.946Z</time></trkpt><trkpt lat="43.6648544" lon="12.7192415"><ele>583.0</ele><time>2026-03-08T14:03:51.948Z</time></trkpt><trkpt lat="43.6649585" lon="12.7192164"><ele>583.0</ele><time>2026-03-08T14:03:52.947Z</time></trkpt><trkpt lat="43.6650481" lon="12.7192012"><ele>583.0</ele><time>2026-03-08T14:03:53.948Z</time></trkpt><trkpt lat="43.665146" lon="12.7191674"><ele>583.0</ele><time>2026-03-08T14:03:54.948Z</time></trkpt><trkpt lat="43.6652101" lon="12.7190904"><ele>583.0</ele><time>2026-03-08T14:03:55.946Z</time></trkpt><trkpt lat="43.6652826" lon="12.7189562"><ele>583.0</ele><time>2026-03-08T14:03:57.946Z</time></trkpt><trkpt lat="43.6652803" lon="12.7188409"><ele>583.0</ele><time>2026-03-08T14:03:58.947Z</time></trkpt><trkpt lat="43.6652804" lon="12.7187209"><ele>583.0</ele><time>2026-03-08T14:03:59.946Z</time></trkpt><trkpt lat="43.6652769" lon="12.7186163"><ele>583.0</ele><time>2026-03-08T14:04:00.948Z</time></trkpt><trkpt lat="43.6652992" lon="12.7185038"><ele>583.0</ele><time>2026-03-08T14:04:01.947Z</time></trkpt><trkpt lat="43.6653995" lon="12.7184133"><ele>583.0</ele><time>2026-03-08T14:04:03.947Z</time></trkpt><trkpt lat="43.6655109" lon="12.7184342"><ele>581.6</ele><time>2026-03-08T14:04:04.946Z</time></trkpt><trkpt lat="43.6656151" lon="12.7184384"><ele>580.1999999999999</ele><time>2026-03-08T14:04:05.946Z</time></trkpt><trkpt lat="43.6657148" lon="12.718403"><ele>578.8</ele><time>2026-03-08T14:04:06.947Z</time></trkpt><trkpt lat="43.6658198" lon="12.7183691"><ele>577.4</ele><time>2026-03-08T14:04:07.946Z</time></trkpt><trkpt lat="43.6659049" lon="12.7183392"><ele>576.0</ele><time>2026-03-08T14:04:08.948Z</time></trkpt><trkpt lat="43.6660099" lon="12.71834"><ele>576.0</ele><time>2026-03-08T14:04:09.946Z</time></trkpt><trkpt lat="43.6661035" lon="12.7183498"><ele>576.0</ele><time>2026-03-08T14:04:10.947Z</time></trkpt><trkpt lat="43.6661761" lon="12.7183466"><ele>576.0</ele><time>2026-03-08T14:04:11.947Z</time></trkpt><trkpt lat="43.6662922" lon="12.7182645"><ele>576.0</ele><time>2026-03-08T14:04:13.946Z</time></trkpt><trkpt lat="43.6663383" lon="12.7181363"><ele>576.0</ele><time>2026-03-08T14:04:15.947Z</time></trkpt><trkpt lat="43.6663905" lon="12.7180669"><ele>572.5</ele><time>2026-03-08T14:04:16.948Z</time></trkpt><trkpt lat="43.66643" lon="12.7179812"><ele>569.0</ele><time>2026-03-08T14:04:17.946Z</time></trkpt><trkpt lat="43.6665009" lon="12.7179188"><ele>565.5</ele><time>2026-03-08T14:04:18.947Z</time></trkpt><trkpt lat="43.6665998" lon="12.7178632"><ele>562.0</ele><time>2026-03-08T14:04:19.947Z</time></trkpt><trkpt lat="43.6667885" lon="12.7179091"><ele>562.0</ele><time>2026-03-08T14:04:20.947Z</time></trkpt><trkpt lat="43.666911" lon="12.7179113"><ele>562.0</ele><time>2026-03-08T14:04:21.947Z</time></trkpt><trkpt lat="43.6670263" lon="12.7179285"><ele>562.0</ele><time>2026-03-08T14:04:22.948Z</time></trkpt><trkpt lat="43.667139" lon="12.7179536"><ele>562.0</ele><time>2026-03-08T14:04:23.946Z</time></trkpt><trkpt lat="43.6672465" lon="12.7179517"><ele>559.8000000000001</ele><time>2026-03-08T14:04:24.947Z</time></trkpt><trkpt lat="43.6673584" lon="12.7179543"><ele>557.6</ele><time>2026-03-08T14:04:25.947Z</time></trkpt><trkpt lat="43.6674625" lon="12.7179576"><ele>555.4000000000001</ele><time>2026-03-08T14:04:26.946Z</time></trkpt><trkpt lat="43.667554" lon="12.7179016"><ele>553.2</ele><time>2026-03-08T14:04:27.947Z</time></trkpt><trkpt lat="43.6676313" lon="12.7178589"><ele>551.0</ele><time>2026-03-08T14:04:28.947Z</time></trkpt><trkpt lat="43.6676993" lon="12.7177602"><ele>550.4</ele><time>2026-03-08T14:04:29.948Z</time></trkpt><trkpt lat="43.6677836" lon="12.7176813"><ele>549.8</ele><time>2026-03-08T14:04:30.947Z</time></trkpt><trkpt lat="43.6678483" lon="12.7175652"><ele>549.1999999999999</ele><time>2026-03-08T14:04:31.947Z</time></trkpt><trkpt lat="43.6679104" lon="12.7174523"><ele>548.6</ele><time>2026-03-08T14:04:32.947Z</time></trkpt><trkpt lat="43.6679613" lon="12.7173187"><ele>548.0</ele><time>2026-03-08T14:04:33.946Z</time></trkpt><trkpt lat="43.6680011" lon="12.7171893"><ele>548.0</ele><time>2026-03-08T14:04:34.947Z</time></trkpt><trkpt lat="43.6680359" lon="12.7170745"><ele>548.0</ele><time>2026-03-08T14:04:35.947Z</time></trkpt><trkpt lat="43.6680651" lon="12.7169578"><ele>548.0</ele><time>2026-03-08T14:04:36.946Z</time></trkpt><trkpt lat="43.6680972" lon="12.7168407"><ele>548.0</ele><time>2026-03-08T14:04:37.947Z</time></trkpt><trkpt lat="43.6681377" lon="12.7167418"><ele>548.0</ele><time>2026-03-08T14:04:38.946Z</time></trkpt><trkpt lat="43.6681923" lon="12.7166484"><ele>548.0</ele><time>2026-03-08T14:04:39.947Z</time></trkpt><trkpt lat="43.6682373" lon="12.7165583"><ele>549.6666666666666</ele><time>2026-03-08T14:04:40.947Z</time></trkpt><trkpt lat="43.6682749" lon="12.7164584"><ele>551.3333333333333</ele><time>2026-03-08T14:04:41.946Z</time></trkpt><trkpt lat="43.6683144" lon="12.7163563"><ele>553.0</ele><time>2026-03-08T14:04:42.946Z</time></trkpt><trkpt lat="43.6683527" lon="12.7162628"><ele>554.6666666666666</ele><time>2026-03-08T14:04:43.946Z</time></trkpt><trkpt lat="43.668387" lon="12.7161635"><ele>556.3333333333334</ele><time>2026-03-08T14:04:44.946Z</time></trkpt><trkpt lat="43.6684304" lon="12.7160666"><ele>558.0</ele><time>2026-03-08T14:04:45.947Z</time></trkpt><trkpt lat="43.6684997" lon="12.7159817"><ele>559.1666666666666</ele><time>2026-03-08T14:04:46.947Z</time></trkpt><trkpt lat="43.6685541" lon="12.7158982"><ele>560.3333333333334</ele><time>2026-03-08T14:04:47.949Z</time></trkpt><trkpt lat="43.6686117" lon="12.7158186"><ele>561.5</ele><time>2026-03-08T14:04:48.947Z</time></trkpt><trkpt lat="43.6686448" lon="12.7157093"><ele>562.6666666666667</ele><time>2026-03-08T14:04:49.946Z</time></trkpt><trkpt lat="43.6686757" lon="12.7155938"><ele>563.8333333333334</ele><time>2026-03-08T14:04:50.946Z</time></trkpt><trkpt lat="43.6686879" lon="12.7154711"><ele>565.0</ele><time>2026-03-08T14:04:51.947Z</time></trkpt><trkpt lat="43.6686986" lon="12.7153629"><ele>560.6666666666667</ele><time>2026-03-08T14:04:52.947Z</time></trkpt><trkpt lat="43.6686996" lon="12.7152677"><ele>556.3333333333334</ele><time>2026-03-08T14:04:53.946Z</time></trkpt><trkpt lat="43.6687025" lon="12.7151802"><ele>552.0</ele><time>2026-03-08T14:04:54.947Z</time></trkpt><trkpt lat="43.668696" lon="12.7150205"><ele>547.6666666666666</ele><time>2026-03-08T14:04:56.946Z</time></trkpt><trkpt lat="43.6686965" lon="12.7149205"><ele>543.3333333333333</ele><time>2026-03-08T14:04:57.947Z</time></trkpt><trkpt lat="43.6686901" lon="12.7148105"><ele>539.0</ele><time>2026-03-08T14:04:58.946Z</time></trkpt><trkpt lat="43.6686887" lon="12.7147103"><ele>539.0</ele><time>2026-03-08T14:04:59.947Z</time></trkpt><trkpt lat="43.6686703" lon="12.7145809"><ele>539.0</ele><time>2026-03-08T14:05:00.946Z</time></trkpt><trkpt lat="43.6686352" lon="12.714445"><ele>539.0</ele><time>2026-03-08T14:05:01.946Z</time></trkpt><trkpt lat="43.6685999" lon="12.7142932"><ele>539.0</ele><time>2026-03-08T14:05:02.946Z</time></trkpt><trkpt lat="43.6685672" lon="12.7141379"><ele>539.0</ele><time>2026-03-08T14:05:03.947Z</time></trkpt><trkpt lat="43.6685296" lon="12.7139424"><ele>545.5</ele><time>2026-03-08T14:05:04.947Z</time></trkpt><trkpt lat="43.6685177" lon="12.71376"><ele>552.0</ele><time>2026-03-08T14:05:05.947Z</time></trkpt><trkpt lat="43.6684598" lon="12.7136061"><ele>558.5</ele><time>2026-03-08T14:05:06.947Z</time></trkpt><trkpt lat="43.668408" lon="12.7134451"><ele>565.0</ele><time>2026-03-08T14:05:07.946Z</time></trkpt><trkpt lat="43.6683606" lon="12.7132802"><ele>565.0</ele><time>2026-03-08T14:05:08.947Z</time></trkpt><trkpt lat="43.6683048" lon="12.7131864"><ele>565.0</ele><time>2026-03-08T14:05:09.947Z</time></trkpt><trkpt lat="43.6682454" lon="12.7130294"><ele>565.0</ele><time>2026-03-08T14:05:10.947Z</time></trkpt><trkpt lat="43.6681739" lon="12.7128565"><ele>565.0</ele><time>2026-03-08T14:05:11.946Z</time></trkpt><trkpt lat="43.6681788" lon="12.712694"><ele>562.0</ele><time>2026-03-08T14:05:12.946Z</time></trkpt><trkpt lat="43.6681447" lon="12.7125554"><ele>559.0</ele><time>2026-03-08T14:05:13.946Z</time></trkpt><trkpt lat="43.6681306" lon="12.7123877"><ele>556.0</ele><time>2026-03-08T14:05:14.946Z</time></trkpt><trkpt lat="43.6681219" lon="12.7122776"><ele>553.0</ele><time>2026-03-08T14:05:15.946Z</time></trkpt><trkpt lat="43.6681103" lon="12.7121684"><ele>550.0</ele><time>2026-03-08T14:05:16.946Z</time></trkpt><trkpt lat="43.6680617" lon="12.7120513"><ele>550.0</ele><time>2026-03-08T14:05:17.946Z</time></trkpt><trkpt lat="43.6679826" lon="12.7119763"><ele>550.0</ele><time>2026-03-08T14:05:18.946Z</time></trkpt><trkpt lat="43.6679205" lon="12.711885"><ele>550.0</ele><time>2026-03-08T14:05:19.946Z</time></trkpt><trkpt lat="43.6678205" lon="12.7118132"><ele>550.0</ele><time>2026-03-08T14:05:20.948Z</time></trkpt><trkpt lat="43.6677375" lon="12.7117601"><ele>550.0</ele><time>2026-03-08T14:05:21.948Z</time></trkpt><trkpt lat="43.667646" lon="12.7116982"><ele>551.8</ele><time>2026-03-08T14:05:22.947Z</time></trkpt><trkpt lat="43.6675669" lon="12.7116629"><ele>553.6</ele><time>2026-03-08T14:05:23.947Z</time></trkpt><trkpt lat="43.6674927" lon="12.7115911"><ele>555.4</ele><time>2026-03-08T14:05:24.946Z</time></trkpt><trkpt lat="43.6674114" lon="12.7115056"><ele>557.2</ele><time>2026-03-08T14:05:25.947Z</time></trkpt><trkpt lat="43.6673218" lon="12.7113775"><ele>559.0</ele><time>2026-03-08T14:05:27.947Z</time></trkpt><trkpt lat="43.6672737" lon="12.7112392"><ele>559.0</ele><time>2026-03-08T14:05:28.946Z</time></trkpt><trkpt lat="43.6672341" lon="12.7111176"><ele>559.0</ele><time>2026-03-08T14:05:29.947Z</time></trkpt><trkpt lat="43.6672464" lon="12.7110236"><ele>559.0</ele><time>2026-03-08T14:05:30.948Z</time></trkpt><trkpt lat="43.6671951" lon="12.7109287"><ele>559.0</ele><time>2026-03-08T14:05:31.946Z</time></trkpt><trkpt lat="43.667151" lon="12.7108445"><ele>559.0</ele><time>2026-03-08T14:05:32.947Z</time></trkpt><trkpt lat="43.6671395" lon="12.7107287"><ele>559.0</ele><time>2026-03-08T14:05:34.946Z</time></trkpt><trkpt lat="43.6672016" lon="12.7106677"><ele>559.0</ele><time>2026-03-08T14:05:36.946Z</time></trkpt><trkpt lat="43.6672788" lon="12.7107458"><ele>559.0</ele><time>2026-03-08T14:05:38.947Z</time></trkpt><trkpt lat="43.6673012" lon="12.7108371"><ele>559.0</ele><time>2026-03-08T14:05:39.946Z</time></trkpt><trkpt lat="43.6673161" lon="12.7109432"><ele>559.0</ele><time>2026-03-08T14:05:40.946Z</time></trkpt><trkpt lat="43.6673486" lon="12.7110682"><ele>559.0</ele><time>2026-03-08T14:05:41.947Z</time></trkpt><trkpt lat="43.667384" lon="12.7111599"><ele>559.0</ele><time>2026-03-08T14:05:42.947Z</time></trkpt><trkpt lat="43.6674169" lon="12.7112584"><ele>559.0</ele><time>2026-03-08T14:05:43.946Z</time></trkpt><trkpt lat="43.6674603" lon="12.7113448"><ele>559.0</ele><time>2026-03-08T14:05:44.947Z</time></trkpt><trkpt lat="43.6675418" lon="12.7113846"><ele>559.0</ele><time>2026-03-08T14:05:45.946Z</time></trkpt><trkpt lat="43.6676303" lon="12.7114405"><ele>559.0</ele><time>2026-03-08T14:05:46.946Z</time></trkpt><trkpt lat="43.6677023" lon="12.711458"><ele>559.0</ele><time>2026-03-08T14:05:47.947Z</time></trkpt><trkpt lat="43.667945" lon="12.7114583"><ele>552.0</ele><time>2026-03-08T14:05:48.947Z</time></trkpt><trkpt lat="43.6680904" lon="12.7114538"><ele>545.0</ele><time>2026-03-08T14:05:49.946Z</time></trkpt><trkpt lat="43.6682179" lon="12.7114492"><ele>538.0</ele><time>2026-03-08T14:05:50.948Z</time></trkpt><trkpt lat="43.6683506" lon="12.7115258"><ele>531.0</ele><time>2026-03-08T14:05:51.946Z</time></trkpt><trkpt lat="43.6684668" lon="12.7115742"><ele>531.0</ele><time>2026-03-08T14:05:52.946Z</time></trkpt><trkpt lat="43.6685622" lon="12.711657"><ele>531.0</ele><time>2026-03-08T14:05:53.948Z</time></trkpt><trkpt lat="43.6686429" lon="12.7117761"><ele>531.0</ele><time>2026-03-08T14:05:54.947Z</time></trkpt><trkpt lat="43.6687388" lon="12.7119536"><ele>531.0</ele><time>2026-03-08T14:05:55.946Z</time></trkpt><trkpt lat="43.6688085" lon="12.7121152"><ele>525.3333333333334</ele><time>2026-03-08T14:05:56.947Z</time></trkpt><trkpt lat="43.6688734" lon="12.7123098"><ele>519.6666666666667</ele><time>2026-03-08T14:05:57.946Z</time></trkpt><trkpt lat="43.6689454" lon="12.7125451"><ele>514.0</ele><time>2026-03-08T14:05:58.946Z</time></trkpt><trkpt lat="43.6690487" lon="12.7127282"><ele>517.3333333333334</ele><time>2026-03-08T14:05:59.946Z</time></trkpt><trkpt lat="43.6691348" lon="12.712902"><ele>520.6666666666666</ele><time>2026-03-08T14:06:00.947Z</time></trkpt><trkpt lat="43.6692297" lon="12.7130893"><ele>524.0</ele><time>2026-03-08T14:06:01.948Z</time></trkpt><trkpt lat="43.6692956" lon="12.7132499"><ele>524.0</ele><time>2026-03-08T14:06:02.947Z</time></trkpt><trkpt lat="43.6693489" lon="12.7134011"><ele>524.0</ele><time>2026-03-08T14:06:03.946Z</time></trkpt><trkpt lat="43.6693807" lon="12.7135356"><ele>524.0</ele><time>2026-03-08T14:06:04.947Z</time></trkpt><trkpt lat="43.6694132" lon="12.7136142"><ele>524.0</ele><time>2026-03-08T14:06:05.947Z</time></trkpt><trkpt lat="43.6695293" lon="12.7136896"><ele>524.0</ele><time>2026-03-08T14:06:07.947Z</time></trkpt><trkpt lat="43.6695386" lon="12.7135343"><ele>513.25</ele><time>2026-03-08T14:06:08.947Z</time></trkpt><trkpt lat="43.6695413" lon="12.7133759"><ele>502.5</ele><time>2026-03-08T14:06:10.946Z</time></trkpt><trkpt lat="43.66951" lon="12.7132481"><ele>491.75</ele><time>2026-03-08T14:06:11.948Z</time></trkpt><trkpt lat="43.6694996" lon="12.7130683"><ele>481.0</ele><time>2026-03-08T14:06:12.946Z</time></trkpt><trkpt lat="43.6695037" lon="12.7128639"><ele>480.33333333333337</ele><time>2026-03-08T14:06:13.948Z</time></trkpt><trkpt lat="43.6695226" lon="12.7126425"><ele>479.66666666666663</ele><time>2026-03-08T14:06:14.947Z</time></trkpt><trkpt lat="43.6695387" lon="12.7124367"><ele>479.0</ele><time>2026-03-08T14:06:15.946Z</time></trkpt><trkpt lat="43.6695466" lon="12.7122409"><ele>479.0</ele><time>2026-03-08T14:06:16.947Z</time></trkpt><trkpt lat="43.6695528" lon="12.712053"><ele>479.0</ele><time>2026-03-08T14:06:17.947Z</time></trkpt><trkpt lat="43.6695451" lon="12.7118872"><ele>479.0</ele><time>2026-03-08T14:06:18.948Z</time></trkpt><trkpt lat="43.6695479" lon="12.7117278"><ele>479.0</ele><time>2026-03-08T14:06:19.947Z</time></trkpt><trkpt lat="43.6694862" lon="12.7116354"><ele>484.5</ele><time>2026-03-08T14:06:20.947Z</time></trkpt><trkpt lat="43.6694226" lon="12.7115349"><ele>490.0</ele><time>2026-03-08T14:06:21.948Z</time></trkpt><trkpt lat="43.6693418" lon="12.7114617"><ele>495.5</ele><time>2026-03-08T14:06:22.946Z</time></trkpt><trkpt lat="43.6692561" lon="12.7113531"><ele>501.0</ele><time>2026-03-08T14:06:23.947Z</time></trkpt><trkpt lat="43.6691355" lon="12.7112325"><ele>501.0</ele><time>2026-03-08T14:06:24.948Z</time></trkpt><trkpt lat="43.6690224" lon="12.7111273"><ele>501.0</ele><time>2026-03-08T14:06:25.946Z</time></trkpt><trkpt lat="43.6689096" lon="12.711019"><ele>501.0</ele><time>2026-03-08T14:06:26.947Z</time></trkpt><trkpt lat="43.6687981" lon="12.7109073"><ele>501.0</ele><time>2026-03-08T14:06:27.946Z</time></trkpt><trkpt lat="43.6686931" lon="12.7107655"><ele>501.5</ele><time>2026-03-08T14:06:28.946Z</time></trkpt><trkpt lat="43.6686035" lon="12.7106533"><ele>502.0</ele><time>2026-03-08T14:06:29.946Z</time></trkpt><trkpt lat="43.6685198" lon="12.7105009"><ele>502.5</ele><time>2026-03-08T14:06:30.946Z</time></trkpt><trkpt lat="43.668457" lon="12.7104054"><ele>503.0</ele><time>2026-03-08T14:06:31.947Z</time></trkpt><trkpt lat="43.6684722" lon="12.7102414"><ele>499.66666666666663</ele><time>2026-03-08T14:06:33.947Z</time></trkpt><trkpt lat="43.6685709" lon="12.7102197"><ele>496.3333333333333</ele><time>2026-03-08T14:06:35.947Z</time></trkpt><trkpt lat="43.668618" lon="12.7103631"><ele>493.0</ele><time>2026-03-08T14:06:37.946Z</time></trkpt><trkpt lat="43.6686519" lon="12.7104613"><ele>489.66666666666663</ele><time>2026-03-08T14:06:38.946Z</time></trkpt><trkpt lat="43.6686977" lon="12.7105361"><ele>486.3333333333333</ele><time>2026-03-08T14:06:39.947Z</time></trkpt><trkpt lat="43.6687656" lon="12.7105885"><ele>483.0</ele><time>2026-03-08T14:06:40.947Z</time></trkpt><trkpt lat="43.6688584" lon="12.7106241"><ele>480.25</ele><time>2026-03-08T14:06:41.947Z</time></trkpt><trkpt lat="43.6689844" lon="12.710715"><ele>477.5</ele><time>2026-03-08T14:06:42.946Z</time></trkpt><trkpt lat="43.6691268" lon="12.7107733"><ele>474.75</ele><time>2026-03-08T14:06:43.946Z</time></trkpt><trkpt lat="43.6692676" lon="12.710827"><ele>472.0</ele><time>2026-03-08T14:06:44.946Z</time></trkpt><trkpt lat="43.6693971" lon="12.7108779"><ele>465.25</ele><time>2026-03-08T14:06:45.947Z</time></trkpt><trkpt lat="43.6695226" lon="12.7109428"><ele>458.5</ele><time>2026-03-08T14:06:46.947Z</time></trkpt><trkpt lat="43.6696525" lon="12.7109845"><ele>451.75</ele><time>2026-03-08T14:06:47.946Z</time></trkpt><trkpt lat="43.6697725" lon="12.71101"><ele>445.0</ele><time>2026-03-08T14:06:48.947Z</time></trkpt><trkpt lat="43.6698904" lon="12.7110474"><ele>441.25</ele><time>2026-03-08T14:06:49.948Z</time></trkpt><trkpt lat="43.6699875" lon="12.7110906"><ele>437.5</ele><time>2026-03-08T14:06:50.946Z</time></trkpt><trkpt lat="43.6700928" lon="12.7111538"><ele>433.75</ele><time>2026-03-08T14:06:51.948Z</time></trkpt><trkpt lat="43.670216" lon="12.7112782"><ele>430.0</ele><time>2026-03-08T14:06:52.947Z</time></trkpt><trkpt lat="43.6703495" lon="12.711444"><ele>430.0</ele><time>2026-03-08T14:06:53.947Z</time></trkpt><trkpt lat="43.6704357" lon="12.7115343"><ele>430.0</ele><time>2026-03-08T14:06:54.946Z</time></trkpt><trkpt lat="43.6705188" lon="12.7116452"><ele>430.0</ele><time>2026-03-08T14:06:55.947Z</time></trkpt><trkpt lat="43.6705823" lon="12.7117707"><ele>430.0</ele><time>2026-03-08T14:06:56.948Z</time></trkpt><trkpt lat="43.6706261" lon="12.7118969"><ele>430.0</ele><time>2026-03-08T14:06:57.946Z</time></trkpt><trkpt lat="43.6706525" lon="12.7120293"><ele>431.0</ele><time>2026-03-08T14:06:58.946Z</time></trkpt><trkpt lat="43.6706972" lon="12.712172"><ele>432.0</ele><time>2026-03-08T14:06:59.948Z</time></trkpt><trkpt lat="43.6707323" lon="12.7122959"><ele>433.0</ele><time>2026-03-08T14:07:00.947Z</time></trkpt><trkpt lat="43.6707483" lon="12.7124317"><ele>434.0</ele><time>2026-03-08T14:07:01.946Z</time></trkpt><trkpt lat="43.6707685" lon="12.7125697"><ele>435.0</ele><time>2026-03-08T14:07:02.947Z</time></trkpt><trkpt lat="43.6707662" lon="12.7126969"><ele>433.4</ele><time>2026-03-08T14:07:03.946Z</time></trkpt><trkpt lat="43.6707742" lon="12.7128464"><ele>431.8</ele><time>2026-03-08T14:07:04.948Z</time></trkpt><trkpt lat="43.6707648" lon="12.7130133"><ele>430.20000000000005</ele><time>2026-03-08T14:07:05.946Z</time></trkpt><trkpt lat="43.6707718" lon="12.7131442"><ele>428.6</ele><time>2026-03-08T14:07:06.946Z</time></trkpt><trkpt lat="43.67076" lon="12.7132683"><ele>427.0</ele><time>2026-03-08T14:07:07.946Z</time></trkpt><trkpt lat="43.6707342" lon="12.7133777"><ele>427.0</ele><time>2026-03-08T14:07:08.947Z</time></trkpt><trkpt lat="43.6706804" lon="12.7134906"><ele>427.00000000000006</ele><time>2026-03-08T14:07:09.946Z</time></trkpt><trkpt lat="43.6706193" lon="12.7136062"><ele>427.00000000000006</ele><time>2026-03-08T14:07:10.947Z</time></trkpt><trkpt lat="43.6705688" lon="12.7137349"><ele>427.0</ele><time>2026-03-08T14:07:11.947Z</time></trkpt><trkpt lat="43.6705452" lon="12.7138497"><ele>427.0</ele><time>2026-03-08T14:07:12.946Z</time></trkpt><trkpt lat="43.6705416" lon="12.7139561"><ele>426.6</ele><time>2026-03-08T14:07:13.947Z</time></trkpt><trkpt lat="43.6705722" lon="12.7140861"><ele>426.20000000000005</ele><time>2026-03-08T14:07:14.947Z</time></trkpt><trkpt lat="43.6705883" lon="12.714199"><ele>425.8</ele><time>2026-03-08T14:07:15.947Z</time></trkpt><trkpt lat="43.6705951" lon="12.7143181"><ele>425.4</ele><time>2026-03-08T14:07:16.947Z</time></trkpt><trkpt lat="43.6705854" lon="12.7144565"><ele>425.0</ele><time>2026-03-08T14:07:17.947Z</time></trkpt><trkpt lat="43.6705894" lon="12.7145997"><ele>425.0</ele><time>2026-03-08T14:07:18.946Z</time></trkpt><trkpt lat="43.6706289" lon="12.7147388"><ele>425.0</ele><time>2026-03-08T14:07:19.946Z</time></trkpt><trkpt lat="43.6706852" lon="12.7148809"><ele>425.0</ele><time>2026-03-08T14:07:20.946Z</time></trkpt><trkpt lat="43.6707435" lon="12.7150112"><ele>425.0</ele><time>2026-03-08T14:07:21.946Z</time></trkpt><trkpt lat="43.6707893" lon="12.7151525"><ele>425.0</ele><time>2026-03-08T14:07:22.947Z</time></trkpt><trkpt lat="43.6708258" lon="12.7152658"><ele>425.4</ele><time>2026-03-08T14:07:23.947Z</time></trkpt><trkpt lat="43.6708497" lon="12.7153805"><ele>425.8</ele><time>2026-03-08T14:07:24.946Z</time></trkpt><trkpt lat="43.6708327" lon="12.7154909"><ele>426.20000000000005</ele><time>2026-03-08T14:07:25.947Z</time></trkpt><trkpt lat="43.6708195" lon="12.7156102"><ele>426.6</ele><time>2026-03-08T14:07:26.947Z</time></trkpt><trkpt lat="43.6707929" lon="12.7157783"><ele>427.0</ele><time>2026-03-08T14:07:27.946Z</time></trkpt><trkpt lat="43.670805" lon="12.715932"><ele>427.0</ele><time>2026-03-08T14:07:28.947Z</time></trkpt><trkpt lat="43.6708171" lon="12.7160671"><ele>427.00000000000006</ele><time>2026-03-08T14:07:29.947Z</time></trkpt><trkpt lat="43.6708826" lon="12.7161553"><ele>427.00000000000006</ele><time>2026-03-08T14:07:30.947Z</time></trkpt><trkpt lat="43.6709267" lon="12.7162826"><ele>427.0</ele><time>2026-03-08T14:07:31.946Z</time></trkpt><trkpt lat="43.6709584" lon="12.7163905"><ele>427.0</ele><time>2026-03-08T14:07:32.946Z</time></trkpt><trkpt lat="43.670941" lon="12.7165124"><ele>426.6</ele><time>2026-03-08T14:07:33.947Z</time></trkpt><trkpt lat="43.6709469" lon="12.7166523"><ele>426.20000000000005</ele><time>2026-03-08T14:07:34.946Z</time></trkpt><trkpt lat="43.6709654" lon="12.7167934"><ele>425.8</ele><time>2026-03-08T14:07:35.948Z</time></trkpt><trkpt lat="43.670995" lon="12.7169289"><ele>425.4</ele><time>2026-03-08T14:07:36.947Z</time></trkpt><trkpt lat="43.6710609" lon="12.7170558"><ele>425.0</ele><time>2026-03-08T14:07:37.946Z</time></trkpt><trkpt lat="43.6711072" lon="12.7171744"><ele>416.8</ele><time>2026-03-08T14:07:38.947Z</time></trkpt><trkpt lat="43.6711412" lon="12.7173237"><ele>408.6</ele><time>2026-03-08T14:07:39.946Z</time></trkpt><trkpt lat="43.671174" lon="12.7174599"><ele>400.4</ele><time>2026-03-08T14:07:40.947Z</time></trkpt><trkpt lat="43.6712123" lon="12.7175794"><ele>392.2</ele><time>2026-03-08T14:07:41.948Z</time></trkpt><trkpt lat="43.6712507" lon="12.7176874"><ele>384.0</ele><time>2026-03-08T14:07:42.947Z</time></trkpt><trkpt lat="43.6712719" lon="12.7178003"><ele>383.6666666666667</ele><time>2026-03-08T14:07:43.947Z</time></trkpt><trkpt lat="43.6712809" lon="12.7179148"><ele>383.3333333333333</ele><time>2026-03-08T14:07:44.947Z</time></trkpt><trkpt lat="43.6712632" lon="12.7180313"><ele>383.0</ele><time>2026-03-08T14:07:45.948Z</time></trkpt><trkpt lat="43.6712323" lon="12.718136"><ele>382.66666666666663</ele><time>2026-03-08T14:07:46.947Z</time></trkpt><trkpt lat="43.6711962" lon="12.718241"><ele>382.3333333333333</ele><time>2026-03-08T14:07:47.947Z</time></trkpt><trkpt lat="43.6711526" lon="12.7183249"><ele>382.0</ele><time>2026-03-08T14:07:48.946Z</time></trkpt><trkpt lat="43.6710888" lon="12.7183832"><ele>384.0</ele><time>2026-03-08T14:07:49.946Z</time></trkpt><trkpt lat="43.6710063" lon="12.7184272"><ele>386.0</ele><time>2026-03-08T14:07:50.947Z</time></trkpt><trkpt lat="43.6709214" lon="12.718501"><ele>388.0</ele><time>2026-03-08T14:07:51.948Z</time></trkpt><trkpt lat="43.6708525" lon="12.7185979"><ele>390.0</ele><time>2026-03-08T14:07:52.947Z</time></trkpt><trkpt lat="43.6707854" lon="12.7187097"><ele>392.0</ele><time>2026-03-08T14:07:53.947Z</time></trkpt><trkpt lat="43.6707191" lon="12.718842"><ele>392.0</ele><time>2026-03-08T14:07:54.946Z</time></trkpt><trkpt lat="43.670656" lon="12.7189716"><ele>392.0</ele><time>2026-03-08T14:07:55.948Z</time></trkpt><trkpt lat="43.6706377" lon="12.7191571"><ele>392.0</ele><time>2026-03-08T14:07:56.947Z</time></trkpt><trkpt lat="43.6706062" lon="12.7193354"><ele>392.0</ele><time>2026-03-08T14:07:57.948Z</time></trkpt><trkpt lat="43.6705821" lon="12.7194878"><ele>388.8</ele><time>2026-03-08T14:07:58.947Z</time></trkpt><trkpt lat="43.6705537" lon="12.7196353"><ele>385.6</ele><time>2026-03-08T14:07:59.946Z</time></trkpt><trkpt lat="43.6705306" lon="12.7197799"><ele>382.40000000000003</ele><time>2026-03-08T14:08:00.948Z</time></trkpt><trkpt lat="43.6705819" lon="12.7198552"><ele>379.20000000000005</ele><time>2026-03-08T14:08:01.949Z</time></trkpt><trkpt lat="43.670658" lon="12.719903"><ele>376.0</ele><time>2026-03-08T14:08:03.948Z</time></trkpt><trkpt lat="43.67073" lon="12.7197679"><ele>376.0</ele><time>2026-03-08T14:08:05.946Z</time></trkpt><trkpt lat="43.6707643" lon="12.7196578"><ele>376.0</ele><time>2026-03-08T14:08:06.947Z</time></trkpt><trkpt lat="43.6708239" lon="12.7195285"><ele>376.0</ele><time>2026-03-08T14:08:07.948Z</time></trkpt><trkpt lat="43.6708681" lon="12.719414"><ele>376.0</ele><time>2026-03-08T14:08:08.947Z</time></trkpt><trkpt lat="43.6708965" lon="12.7192968"><ele>376.0</ele><time>2026-03-08T14:08:09.947Z</time></trkpt><trkpt lat="43.6709229" lon="12.7191747"><ele>374.20000000000005</ele><time>2026-03-08T14:08:10.947Z</time></trkpt><trkpt lat="43.6709523" lon="12.7190844"><ele>372.40000000000003</ele><time>2026-03-08T14:08:11.946Z</time></trkpt><trkpt lat="43.6710706" lon="12.7190008"><ele>370.6</ele><time>2026-03-08T14:08:13.946Z</time></trkpt><trkpt lat="43.6711433" lon="12.7190303"><ele>368.8</ele><time>2026-03-08T14:08:14.947Z</time></trkpt><trkpt lat="43.6712137" lon="12.7190662"><ele>367.0</ele><time>2026-03-08T14:08:15.947Z</time></trkpt><trkpt lat="43.6713096" lon="12.7191109"><ele>367.0</ele><time>2026-03-08T14:08:16.946Z</time></trkpt><trkpt lat="43.6713962" lon="12.7191318"><ele>367.0</ele><time>2026-03-08T14:08:17.946Z</time></trkpt><trkpt lat="43.6714866" lon="12.7191307"><ele>367.0</ele><time>2026-03-08T14:08:18.947Z</time></trkpt><trkpt lat="43.6715771" lon="12.7191076"><ele>367.0</ele><time>2026-03-08T14:08:19.947Z</time></trkpt><trkpt lat="43.6716709" lon="12.7190621"><ele>367.0</ele><time>2026-03-08T14:08:20.946Z</time></trkpt><trkpt lat="43.6717592" lon="12.7190094"><ele>367.0</ele><time>2026-03-08T14:08:21.946Z</time></trkpt><trkpt lat="43.6718331" lon="12.7189356"><ele>367.0</ele><time>2026-03-08T14:08:22.947Z</time></trkpt><trkpt lat="43.6719009" lon="12.7188591"><ele>367.0</ele><time>2026-03-08T14:08:23.947Z</time></trkpt><trkpt lat="43.6719573" lon="12.7187594"><ele>367.0</ele><time>2026-03-08T14:08:24.946Z</time></trkpt><trkpt lat="43.6719895" lon="12.7186655"><ele>367.0</ele><time>2026-03-08T14:08:25.946Z</time></trkpt><trkpt lat="43.6720056" lon="12.718564"><ele>367.0</ele><time>2026-03-08T14:08:26.947Z</time></trkpt><trkpt lat="43.6720351" lon="12.7184071"><ele>366.0</ele><time>2026-03-08T14:08:28.947Z</time></trkpt><trkpt lat="43.672094" lon="12.7183451"><ele>365.0</ele><time>2026-03-08T14:08:30.946Z</time></trkpt><trkpt lat="43.6721549" lon="12.71842"><ele>364.0</ele><time>2026-03-08T14:10:09.947Z</time></trkpt><trkpt lat="43.6721662" lon="12.7185677"><ele>363.0</ele><time>2026-03-08T14:10:11.947Z</time></trkpt><trkpt lat="43.6721374" lon="12.7186533"><ele>362.0</ele><time>2026-03-08T14:10:12.946Z</time></trkpt><trkpt lat="43.6721025" lon="12.7187495"><ele>361.0</ele><time>2026-03-08T14:10:13.947Z</time></trkpt><trkpt lat="43.6720717" lon="12.7188747"><ele>361.0</ele><time>2026-03-08T14:10:14.947Z</time></trkpt><trkpt lat="43.6720256" lon="12.718992"><ele>361.0</ele><time>2026-03-08T14:10:15.946Z</time></trkpt><trkpt lat="43.6719992" lon="12.719119"><ele>361.0</ele><time>2026-03-08T14:10:16.947Z</time></trkpt><trkpt lat="43.6719215" lon="12.7192197"><ele>361.0</ele><time>2026-03-08T14:10:17.947Z</time></trkpt><trkpt lat="43.6718342" lon="12.7192999"><ele>361.0</ele><time>2026-03-08T14:10:18.947Z</time></trkpt><trkpt lat="43.671751" lon="12.719364"><ele>358.6</ele><time>2026-03-08T14:10:19.947Z</time></trkpt><trkpt lat="43.6716616" lon="12.7194249"><ele>356.20000000000005</ele><time>2026-03-08T14:10:20.947Z</time></trkpt><trkpt lat="43.6715685" lon="12.7194584"><ele>353.79999999999995</ele><time>2026-03-08T14:10:21.947Z</time></trkpt><trkpt lat="43.6714815" lon="12.7194871"><ele>351.4</ele><time>2026-03-08T14:10:22.947Z</time></trkpt><trkpt lat="43.6713935" lon="12.7195227"><ele>349.0</ele><time>2026-03-08T14:10:23.947Z</time></trkpt><trkpt lat="43.6713146" lon="12.7195486"><ele>349.0</ele><time>2026-03-08T14:10:24.946Z</time></trkpt><trkpt lat="43.6712443" lon="12.719598"><ele>349.0</ele><time>2026-03-08T14:10:25.947Z</time></trkpt><trkpt lat="43.6712069" lon="12.7196762"><ele>349.0</ele><time>2026-03-08T14:10:26.947Z</time></trkpt><trkpt lat="43.6711706" lon="12.7197844"><ele>349.0</ele><time>2026-03-08T14:10:27.948Z</time></trkpt><trkpt lat="43.6711582" lon="12.7199309"><ele>349.0</ele><time>2026-03-08T14:10:28.947Z</time></trkpt><trkpt lat="43.6711624" lon="12.720061"><ele>349.0</ele><time>2026-03-08T14:10:29.948Z</time></trkpt><trkpt lat="43.6712176" lon="12.720189"><ele>345.0</ele><time>2026-03-08T14:10:30.947Z</time></trkpt><trkpt lat="43.6712154" lon="12.7203404"><ele>341.0</ele><time>2026-03-08T14:10:31.946Z</time></trkpt><trkpt lat="43.6712299" lon="12.7204732"><ele>337.0</ele><time>2026-03-08T14:10:32.947Z</time></trkpt><trkpt lat="43.6712071" lon="12.7206279"><ele>333.0</ele><time>2026-03-08T14:10:33.946Z</time></trkpt><trkpt lat="43.6711858" lon="12.7207487"><ele>329.0</ele><time>2026-03-08T14:10:34.947Z</time></trkpt><trkpt lat="43.6711571" lon="12.7208684"><ele>328.4</ele><time>2026-03-08T14:10:35.947Z</time></trkpt><trkpt lat="43.6711" lon="12.7209812"><ele>327.79999999999995</ele><time>2026-03-08T14:10:36.949Z</time></trkpt><trkpt lat="43.6710322" lon="12.7210786"><ele>327.20000000000005</ele><time>2026-03-08T14:10:37.948Z</time></trkpt><trkpt lat="43.6709469" lon="12.7211494"><ele>326.6</ele><time>2026-03-08T14:10:38.947Z</time></trkpt><trkpt lat="43.670852" lon="12.7212155"><ele>326.0</ele><time>2026-03-08T14:10:39.947Z</time></trkpt><trkpt lat="43.6707768" lon="12.7212473"><ele>326.0</ele><time>2026-03-08T14:10:40.947Z</time></trkpt><trkpt lat="43.6706972" lon="12.7212597"><ele>326.0</ele><time>2026-03-08T14:10:41.946Z</time></trkpt><trkpt lat="43.6706158" lon="12.7212748"><ele>326.0</ele><time>2026-03-08T14:10:42.947Z</time></trkpt><trkpt lat="43.6705464" lon="12.7212934"><ele>326.0</ele><time>2026-03-08T14:10:43.946Z</time></trkpt><trkpt lat="43.6704538" lon="12.721315"><ele>326.0</ele><time>2026-03-08T14:10:45.947Z</time></trkpt><trkpt lat="43.6703914" lon="12.7213452"><ele>326.0</ele><time>2026-03-08T14:10:47.948Z</time></trkpt><trkpt lat="43.6703299" lon="12.7213774"><ele>330.8</ele><time>2026-03-08T14:10:49.947Z</time></trkpt><trkpt lat="43.6702373" lon="12.721431"><ele>335.6</ele><time>2026-03-08T14:10:51.947Z</time></trkpt><trkpt lat="43.6701216" lon="12.7214886"><ele>340.4</ele><time>2026-03-08T14:10:53.948Z</time></trkpt><trkpt lat="43.6700007" lon="12.7215373"><ele>345.2</ele><time>2026-03-08T14:10:55.948Z</time></trkpt><trkpt lat="43.6699321" lon="12.7215787"><ele>350.0</ele><time>2026-03-08T14:10:56.946Z</time></trkpt><trkpt lat="43.6698504" lon="12.7216401"><ele>350.0</ele><time>2026-03-08T14:10:57.947Z</time></trkpt><trkpt lat="43.6697768" lon="12.7217149"><ele>350.0</ele><time>2026-03-08T14:10:58.947Z</time></trkpt><trkpt lat="43.669712" lon="12.7217775"><ele>350.0</ele><time>2026-03-08T14:10:59.948Z</time></trkpt><trkpt lat="43.6696544" lon="12.7218399"><ele>350.0</ele><time>2026-03-08T14:11:00.947Z</time></trkpt><trkpt lat="43.6695971" lon="12.7218884"><ele>350.0</ele><time>2026-03-08T14:11:01.947Z</time></trkpt><trkpt lat="43.6695295" lon="12.7219968"><ele>350.0</ele><time>2026-03-08T14:11:03.947Z</time></trkpt><trkpt lat="43.6695838" lon="12.722073"><ele>348.0</ele><time>2026-03-08T14:11:06.946Z</time></trkpt><trkpt lat="43.6696867" lon="12.7219891"><ele>346.0</ele><time>2026-03-08T14:11:08.946Z</time></trkpt><trkpt lat="43.6697446" lon="12.7219504"><ele>344.0</ele><time>2026-03-08T14:11:09.947Z</time></trkpt><trkpt lat="43.6698418" lon="12.7219435"><ele>342.0</ele><time>2026-03-08T14:11:11.947Z</time></trkpt><trkpt lat="43.6698831" lon="12.7220316"><ele>340.0</ele><time>2026-03-08T14:11:12.948Z</time></trkpt><trkpt lat="43.6699202" lon="12.7221871"><ele>340.0</ele><time>2026-03-08T14:11:14.948Z</time></trkpt><trkpt lat="43.6700041" lon="12.7222331"><ele>340.0</ele><time>2026-03-08T14:11:16.947Z</time></trkpt><trkpt lat="43.6701028" lon="12.7221273"><ele>340.0</ele><time>2026-03-08T14:11:18.947Z</time></trkpt><trkpt lat="43.6701632" lon="12.7220844"><ele>340.0</ele><time>2026-03-08T14:11:19.947Z</time></trkpt><trkpt lat="43.6702142" lon="12.7220205"><ele>340.0</ele><time>2026-03-08T14:11:20.947Z</time></trkpt><trkpt lat="43.6702736" lon="12.7219815"><ele>340.0</ele><time>2026-03-08T14:11:21.946Z</time></trkpt><trkpt lat="43.670333" lon="12.7219424"><ele>337.66666666666663</ele><time>2026-03-08T14:11:22.946Z</time></trkpt><trkpt lat="43.6703977" lon="12.7219151"><ele>335.3333333333333</ele><time>2026-03-08T14:11:23.946Z</time></trkpt><trkpt lat="43.6705115" lon="12.7218711"><ele>333.0</ele><time>2026-03-08T14:11:25.947Z</time></trkpt><trkpt lat="43.6705835" lon="12.7218605"><ele>330.6666666666667</ele><time>2026-03-08T14:11:26.947Z</time></trkpt><trkpt lat="43.6706589" lon="12.7218345"><ele>328.33333333333337</ele><time>2026-03-08T14:11:27.948Z</time></trkpt><trkpt lat="43.6707482" lon="12.7218151"><ele>326.0</ele><time>2026-03-08T14:11:28.947Z</time></trkpt><trkpt lat="43.6708453" lon="12.7217843"><ele>326.0</ele><time>2026-03-08T14:11:29.947Z</time></trkpt><trkpt lat="43.6709338" lon="12.7217708"><ele>326.0</ele><time>2026-03-08T14:11:30.946Z</time></trkpt><trkpt lat="43.6710237" lon="12.7217445"><ele>326.0</ele><time>2026-03-08T14:11:31.947Z</time></trkpt><trkpt lat="43.6711149" lon="12.7217083"><ele>326.0</ele><time>2026-03-08T14:11:32.947Z</time></trkpt><trkpt lat="43.6711823" lon="12.7216934"><ele>326.0</ele><time>2026-03-08T14:11:33.947Z</time></trkpt><trkpt lat="43.6712769" lon="12.7216912"><ele>326.0</ele><time>2026-03-08T14:11:34.948Z</time></trkpt><trkpt lat="43.6713472" lon="12.7217133"><ele>321.8</ele><time>2026-03-08T14:11:35.947Z</time></trkpt><trkpt lat="43.6714454" lon="12.7217862"><ele>317.6</ele><time>2026-03-08T14:11:36.947Z</time></trkpt><trkpt lat="43.6715236" lon="12.7218152"><ele>313.4</ele><time>2026-03-08T14:11:37.947Z</time></trkpt><trkpt lat="43.6716078" lon="12.7218563"><ele>309.2</ele><time>2026-03-08T14:11:38.947Z</time></trkpt><trkpt lat="43.6716727" lon="12.7219137"><ele>305.0</ele><time>2026-03-08T14:11:39.947Z</time></trkpt><trkpt lat="43.6717557" lon="12.7220114"><ele>303.6666666666667</ele><time>2026-03-08T14:11:40.947Z</time></trkpt><trkpt lat="43.6718241" lon="12.7220838"><ele>302.33333333333337</ele><time>2026-03-08T14:11:41.948Z</time></trkpt><trkpt lat="43.6719122" lon="12.7221541"><ele>301.0</ele><time>2026-03-08T14:11:42.948Z</time></trkpt><trkpt lat="43.6719842" lon="12.7222183"><ele>299.6666666666667</ele><time>2026-03-08T14:11:43.947Z</time></trkpt><trkpt lat="43.6720588" lon="12.7222662"><ele>298.3333333333333</ele><time>2026-03-08T14:11:44.947Z</time></trkpt><trkpt lat="43.672126" lon="12.7223347"><ele>297.0</ele><time>2026-03-08T14:11:45.947Z</time></trkpt><trkpt lat="43.6721886" lon="12.7224058"><ele>295.2</ele><time>2026-03-08T14:11:46.947Z</time></trkpt><trkpt lat="43.672259" lon="12.7224904"><ele>293.4</ele><time>2026-03-08T14:11:47.947Z</time></trkpt><trkpt lat="43.6723202" lon="12.7225788"><ele>291.6</ele><time>2026-03-08T14:11:48.947Z</time></trkpt><trkpt lat="43.6723887" lon="12.7226782"><ele>289.8</ele><time>2026-03-08T14:11:49.946Z</time></trkpt><trkpt lat="43.6724467" lon="12.722773"><ele>288.0</ele><time>2026-03-08T14:11:50.946Z</time></trkpt><trkpt lat="43.6724998" lon="12.7228913"><ele>286.2</ele><time>2026-03-08T14:11:51.947Z</time></trkpt><trkpt lat="43.6725459" lon="12.7230036"><ele>284.4</ele><time>2026-03-08T14:11:52.948Z</time></trkpt><trkpt lat="43.6725796" lon="12.7231119"><ele>282.59999999999997</ele><time>2026-03-08T14:11:53.946Z</time></trkpt><trkpt lat="43.6726171" lon="12.7232274"><ele>280.8</ele><time>2026-03-08T14:11:54.948Z</time></trkpt><trkpt lat="43.6726647" lon="12.7233487"><ele>279.0</ele><time>2026-03-08T14:11:55.947Z</time></trkpt><trkpt lat="43.6727088" lon="12.7234573"><ele>279.0</ele><time>2026-03-08T14:11:56.947Z</time></trkpt><trkpt lat="43.6727537" lon="12.7235432"><ele>279.0</ele><time>2026-03-08T14:11:57.947Z</time></trkpt><trkpt lat="43.67281" lon="12.7236192"><ele>279.0</ele><time>2026-03-08T14:11:58.947Z</time></trkpt><trkpt lat="43.6728691" lon="12.7236944"><ele>279.0</ele><time>2026-03-08T14:11:59.948Z</time></trkpt><trkpt lat="43.6729443" lon="12.7237631"><ele>279.0</ele><time>2026-03-08T14:12:00.947Z</time></trkpt><trkpt lat="43.6730275" lon="12.7238441"><ele>279.0</ele><time>2026-03-08T14:12:01.946Z</time></trkpt><trkpt lat="43.6731059" lon="12.7239224"><ele>274.8</ele><time>2026-03-08T14:12:02.947Z</time></trkpt><trkpt lat="43.6731714" lon="12.7240084"><ele>270.59999999999997</ele><time>2026-03-08T14:12:03.948Z</time></trkpt><trkpt lat="43.6732373" lon="12.7240872"><ele>266.4</ele><time>2026-03-08T14:12:04.948Z</time></trkpt><trkpt lat="43.6733105" lon="12.7241693"><ele>262.2</ele><time>2026-03-08T14:12:05.947Z</time></trkpt><trkpt lat="43.6733738" lon="12.7242648"><ele>258.0</ele><time>2026-03-08T14:12:06.947Z</time></trkpt><trkpt lat="43.6734429" lon="12.7243637"><ele>256.2</ele><time>2026-03-08T14:12:07.948Z</time></trkpt><trkpt lat="43.673505" lon="12.7244592"><ele>254.4</ele><time>2026-03-08T14:12:08.946Z</time></trkpt><trkpt lat="43.6735711" lon="12.7245508"><ele>252.59999999999997</ele><time>2026-03-08T14:12:09.947Z</time></trkpt><trkpt lat="43.6736393" lon="12.7246328"><ele>250.79999999999998</ele><time>2026-03-08T14:12:10.947Z</time></trkpt><trkpt lat="43.6737178" lon="12.7247028"><ele>249.0</ele><time>2026-03-08T14:12:11.947Z</time></trkpt><trkpt lat="43.6737902" lon="12.7247711"><ele>247.2</ele><time>2026-03-08T14:12:12.946Z</time></trkpt><trkpt lat="43.6738684" lon="12.7248493"><ele>245.39999999999998</ele><time>2026-03-08T14:12:13.947Z</time></trkpt><trkpt lat="43.6739473" lon="12.7249368"><ele>243.6</ele><time>2026-03-08T14:12:14.947Z</time></trkpt><trkpt lat="43.6740191" lon="12.7250156"><ele>241.8</ele><time>2026-03-08T14:12:15.947Z</time></trkpt><trkpt lat="43.6740973" lon="12.7250936"><ele>240.0</ele><time>2026-03-08T14:12:16.947Z</time></trkpt><trkpt lat="43.6741639" lon="12.725165"><ele>240.0</ele><time>2026-03-08T14:12:17.947Z</time></trkpt><trkpt lat="43.674222" lon="12.7252286"><ele>240.0</ele><time>2026-03-08T14:12:18.947Z</time></trkpt><trkpt lat="43.6742718" lon="12.7252971"><ele>240.0</ele><time>2026-03-08T14:12:19.947Z</time></trkpt><trkpt lat="43.6743105" lon="12.7253881"><ele>240.0</ele><time>2026-03-08T14:12:20.947Z</time></trkpt><trkpt lat="43.6743504" lon="12.7254843"><ele>240.0</ele><time>2026-03-08T14:12:21.947Z</time></trkpt><trkpt lat="43.6743992" lon="12.7256034"><ele>240.0</ele><time>2026-03-08T14:12:22.947Z</time></trkpt><trkpt lat="43.6744389" lon="12.7257133"><ele>236.8</ele><time>2026-03-08T14:12:23.947Z</time></trkpt><trkpt lat="43.6744626" lon="12.725812"><ele>233.6</ele><time>2026-03-08T14:12:24.948Z</time></trkpt><trkpt lat="43.6745139" lon="12.7259138"><ele>230.39999999999998</ele><time>2026-03-08T14:12:25.947Z</time></trkpt><trkpt lat="43.674576" lon="12.7260153"><ele>227.2</ele><time>2026-03-08T14:12:26.947Z</time></trkpt><trkpt lat="43.6746369" lon="12.7261025"><ele>224.0</ele><time>2026-03-08T14:12:27.946Z</time></trkpt><trkpt lat="43.6747157" lon="12.7262026"><ele>222.79999999999998</ele><time>2026-03-08T14:12:28.947Z</time></trkpt><trkpt lat="43.6747834" lon="12.7262816"><ele>221.59999999999997</ele><time>2026-03-08T14:12:29.947Z</time></trkpt><trkpt lat="43.6748444" lon="12.7263348"><ele>220.4</ele><time>2026-03-08T14:12:30.947Z</time></trkpt><trkpt lat="43.6749315" lon="12.7264077"><ele>219.2</ele><time>2026-03-08T14:12:32.947Z</time></trkpt><trkpt lat="43.6750141" lon="12.7264162"><ele>218.0</ele><time>2026-03-08T14:13:13.948Z</time></trkpt><trkpt lat="43.6751175" lon="12.7264986"><ele>218.00000000000003</ele><time>2026-03-08T14:13:16.946Z</time></trkpt><trkpt lat="43.6751793" lon="12.7265642"><ele>218.0</ele><time>2026-03-08T14:13:17.947Z</time></trkpt><trkpt lat="43.6752445" lon="12.726639"><ele>218.0</ele><time>2026-03-08T14:13:18.946Z</time></trkpt><trkpt lat="43.6753205" lon="12.7267158"><ele>218.0</ele><time>2026-03-08T14:13:19.947Z</time></trkpt><trkpt lat="43.675402" lon="12.7267951"><ele>218.00000000000003</ele><time>2026-03-08T14:13:20.947Z</time></trkpt><trkpt lat="43.6754719" lon="12.7268664"><ele>218.0</ele><time>2026-03-08T14:13:21.947Z</time></trkpt><trkpt lat="43.6755384" lon="12.7269347"><ele>216.00000000000003</ele><time>2026-03-08T14:13:22.948Z</time></trkpt><trkpt lat="43.6756042" lon="12.7269991"><ele>214.0</ele><time>2026-03-08T14:13:23.946Z</time></trkpt><trkpt lat="43.6756632" lon="12.7270779"><ele>212.0</ele><time>2026-03-08T14:13:24.946Z</time></trkpt><trkpt lat="43.6757184" lon="12.7271271"><ele>210.0</ele><time>2026-03-08T14:13:25.947Z</time></trkpt><trkpt lat="43.6757794" lon="12.7271702"><ele>208.00000000000003</ele><time>2026-03-08T14:13:26.946Z</time></trkpt><trkpt lat="43.6758891" lon="12.7271407"><ele>206.0</ele><time>2026-03-08T14:13:28.947Z</time></trkpt><trkpt lat="43.6759791" lon="12.7270492"><ele>206.0</ele><time>2026-03-08T14:13:30.947Z</time></trkpt><trkpt lat="43.6760755" lon="12.7269525"><ele>206.0</ele><time>2026-03-08T14:13:32.946Z</time></trkpt><trkpt lat="43.6761457" lon="12.7269165"><ele>206.0</ele><time>2026-03-08T14:13:33.947Z</time></trkpt><trkpt lat="43.676201" lon="12.726799"><ele>206.0</ele><time>2026-03-08T14:13:42.947Z</time></trkpt><trkpt lat="43.6762537" lon="12.7267326"><ele>206.0</ele><time>2026-03-08T14:13:43.946Z</time></trkpt><trkpt lat="43.6763294" lon="12.7266663"><ele>204.66666666666669</ele><time>2026-03-08T14:13:44.947Z</time></trkpt><trkpt lat="43.6764048" lon="12.726621"><ele>203.33333333333334</ele><time>2026-03-08T14:13:45.946Z</time></trkpt><trkpt lat="43.6764859" lon="12.7265836"><ele>202.0</ele><time>2026-03-08T14:13:46.947Z</time></trkpt><trkpt lat="43.6765612" lon="12.726557"><ele>200.66666666666669</ele><time>2026-03-08T14:13:47.947Z</time></trkpt><trkpt lat="43.6766411" lon="12.7265343"><ele>199.33333333333334</ele><time>2026-03-08T14:13:48.948Z</time></trkpt><trkpt lat="43.6767123" lon="12.7265197"><ele>198.0</ele><time>2026-03-08T14:13:49.947Z</time></trkpt><trkpt lat="43.6767989" lon="12.7265441"><ele>198.0</ele><time>2026-03-08T14:13:50.948Z</time></trkpt><trkpt lat="43.676881" lon="12.7265724"><ele>198.0</ele><time>2026-03-08T14:13:51.947Z</time></trkpt><trkpt lat="43.6769774" lon="12.7266459"><ele>198.0</ele><time>2026-03-08T14:13:52.947Z</time></trkpt><trkpt lat="43.6770566" lon="12.7266993"><ele>198.0</ele><time>2026-03-08T14:13:53.947Z</time></trkpt><trkpt lat="43.6771376" lon="12.7267429"><ele>198.0</ele><time>2026-03-08T14:13:54.947Z</time></trkpt><trkpt lat="43.6772279" lon="12.726772"><ele>196.33333333333334</ele><time>2026-03-08T14:13:55.947Z</time></trkpt><trkpt lat="43.6773183" lon="12.7268049"><ele>194.66666666666666</ele><time>2026-03-08T14:13:56.946Z</time></trkpt><trkpt lat="43.6774075" lon="12.7268187"><ele>193.0</ele><time>2026-03-08T14:13:57.947Z</time></trkpt><trkpt lat="43.6774982" lon="12.7268399"><ele>191.33333333333331</ele><time>2026-03-08T14:13:58.947Z</time></trkpt><trkpt lat="43.6775764" lon="12.7268637"><ele>189.66666666666666</ele><time>2026-03-08T14:13:59.947Z</time></trkpt><trkpt lat="43.677648" lon="12.7268783"><ele>188.0</ele><time>2026-03-08T14:14:00.948Z</time></trkpt><trkpt lat="43.677774" lon="12.726892"><ele>184.8</ele><time>2026-03-08T14:14:02.947Z</time></trkpt><trkpt lat="43.6778804" lon="12.7269397"><ele>181.60000000000002</ele><time>2026-03-08T14:14:04.947Z</time></trkpt><trkpt lat="43.6779389" lon="12.7270345"><ele>178.39999999999998</ele><time>2026-03-08T14:14:06.947Z</time></trkpt><trkpt lat="43.6779972" lon="12.7271475"><ele>175.2</ele><time>2026-03-08T14:14:08.946Z</time></trkpt><trkpt lat="43.6780926" lon="12.7271946"><ele>172.0</ele><time>2026-03-08T14:14:10.947Z</time></trkpt><trkpt lat="43.6781931" lon="12.7272267"><ele>172.0</ele><time>2026-03-08T14:14:12.948Z</time></trkpt><trkpt lat="43.6783148" lon="12.7272657"><ele>172.0</ele><time>2026-03-08T14:14:14.947Z</time></trkpt><trkpt lat="43.6783863" lon="12.727294"><ele>172.0</ele><time>2026-03-08T14:14:15.947Z</time></trkpt><trkpt lat="43.6784554" lon="12.7273224"><ele>172.0</ele><time>2026-03-08T14:14:16.948Z</time></trkpt><trkpt lat="43.678524" lon="12.727359"><ele>172.0</ele><time>2026-03-08T14:14:17.946Z</time></trkpt><trkpt lat="43.6785978" lon="12.7273801"><ele>172.0</ele><time>2026-03-08T14:14:18.947Z</time></trkpt><trkpt lat="43.6787193" lon="12.7273839"><ele>170.33333333333334</ele><time>2026-03-08T14:14:20.948Z</time></trkpt><trkpt lat="43.6787932" lon="12.7274114"><ele>168.66666666666669</ele><time>2026-03-08T14:14:21.947Z</time></trkpt><trkpt lat="43.6788536" lon="12.7274533"><ele>167.0</ele><time>2026-03-08T14:14:22.947Z</time></trkpt><trkpt lat="43.678953" lon="12.727552"><ele>165.33333333333334</ele><time>2026-03-08T14:14:24.948Z</time></trkpt><trkpt lat="43.6790121" lon="12.7276045"><ele>163.66666666666666</ele><time>2026-03-08T14:14:25.947Z</time></trkpt><trkpt lat="43.6790791" lon="12.7276336"><ele>162.0</ele><time>2026-03-08T14:14:26.946Z</time></trkpt><trkpt lat="43.6791583" lon="12.7276637"><ele>162.0</ele><time>2026-03-08T14:14:27.948Z</time></trkpt><trkpt lat="43.6792428" lon="12.7277201"><ele>162.0</ele><time>2026-03-08T14:14:28.946Z</time></trkpt><trkpt lat="43.6793209" lon="12.7277664"><ele>162.0</ele><time>2026-03-08T14:14:29.948Z</time></trkpt><trkpt lat="43.6793978" lon="12.727803"><ele>162.0</ele><time>2026-03-08T14:14:30.947Z</time></trkpt><trkpt lat="43.6794679" lon="12.7278213"><ele>162.0</ele><time>2026-03-08T14:14:31.947Z</time></trkpt><trkpt lat="43.6795477" lon="12.7278212"><ele>162.0</ele><time>2026-03-08T14:14:32.947Z</time></trkpt><trkpt lat="43.6796398" lon="12.7278425"><ele>159.0</ele><time>2026-03-08T14:14:33.947Z</time></trkpt><trkpt lat="43.6797274" lon="12.7278436"><ele>156.0</ele><time>2026-03-08T14:14:34.947Z</time></trkpt><trkpt lat="43.6798195" lon="12.7278415"><ele>153.0</ele><time>2026-03-08T14:14:35.946Z</time></trkpt><trkpt lat="43.6799269" lon="12.7278235"><ele>150.0</ele><time>2026-03-08T14:14:36.947Z</time></trkpt><trkpt lat="43.6800197" lon="12.7278102"><ele>147.0</ele><time>2026-03-08T14:14:37.947Z</time></trkpt><trkpt lat="43.6801077" lon="12.7278379"><ele>147.0</ele><time>2026-03-08T14:14:38.947Z</time></trkpt><trkpt lat="43.6802006" lon="12.7278467"><ele>147.0</ele><time>2026-03-08T14:14:39.947Z</time></trkpt><trkpt lat="43.6802978" lon="12.7278483"><ele>147.0</ele><time>2026-03-08T14:14:40.947Z</time></trkpt><trkpt lat="43.6803941" lon="12.7278636"><ele>147.0</ele><time>2026-03-08T14:14:41.947Z</time></trkpt><trkpt lat="43.6804822" lon="12.7278716"><ele>147.0</ele><time>2026-03-08T14:14:42.947Z</time></trkpt><trkpt lat="43.6805693" lon="12.7278801"><ele>146.42857142857142</ele><time>2026-03-08T14:14:43.948Z</time></trkpt><trkpt lat="43.680652" lon="12.7278624"><ele>145.85714285714286</ele><time>2026-03-08T14:14:44.947Z</time></trkpt><trkpt lat="43.6807268" lon="12.7278399"><ele>145.28571428571428</ele><time>2026-03-08T14:14:45.947Z</time></trkpt><trkpt lat="43.6807972" lon="12.7277961"><ele>144.71428571428572</ele><time>2026-03-08T14:14:46.948Z</time></trkpt><trkpt lat="43.6808444" lon="12.7277356"><ele>144.14285714285714</ele><time>2026-03-08T14:14:47.947Z</time></trkpt><trkpt lat="43.6808945" lon="12.7276641"><ele>143.57142857142856</ele><time>2026-03-08T14:14:48.948Z</time></trkpt><trkpt lat="43.6809302" lon="12.727588"><ele>143.0</ele><time>2026-03-08T14:14:49.947Z</time></trkpt><trkpt lat="43.6809957" lon="12.7274439"><ele>143.0</ele><time>2026-03-08T14:14:51.947Z</time></trkpt><trkpt lat="43.6810465" lon="12.7273129"><ele>143.0</ele><time>2026-03-08T14:14:53.947Z</time></trkpt><trkpt lat="43.6810844" lon="12.7271961"><ele>143.0</ele><time>2026-03-08T14:14:55.947Z</time></trkpt><trkpt lat="43.6811362" lon="12.7271"><ele>143.0</ele><time>2026-03-08T14:14:57.947Z</time></trkpt><trkpt lat="43.6812109" lon="12.727058"><ele>143.0</ele><time>2026-03-08T14:14:59.946Z</time></trkpt><trkpt lat="43.6813259" lon="12.7270772"><ele>141.83333333333331</ele><time>2026-03-08T14:15:01.946Z</time></trkpt><trkpt lat="43.6813897" lon="12.7271086"><ele>140.66666666666666</ele><time>2026-03-08T14:15:02.948Z</time></trkpt><trkpt lat="43.6814568" lon="12.7271437"><ele>139.5</ele><time>2026-03-08T14:15:03.947Z</time></trkpt><trkpt lat="43.6815209" lon="12.7271843"><ele>138.33333333333334</ele><time>2026-03-08T14:15:04.947Z</time></trkpt><trkpt lat="43.6815856" lon="12.727237"><ele>137.16666666666669</ele><time>2026-03-08T14:15:05.946Z</time></trkpt><trkpt lat="43.6816481" lon="12.7272891"><ele>136.0</ele><time>2026-03-08T14:15:06.947Z</time></trkpt><trkpt lat="43.6817478" lon="12.7273125"><ele>136.0</ele><time>2026-03-08T14:15:08.947Z</time></trkpt><trkpt lat="43.6818384" lon="12.7272548"><ele>136.0</ele><time>2026-03-08T14:15:10.946Z</time></trkpt><trkpt lat="43.6819329" lon="12.7271831"><ele>136.0</ele><time>2026-03-08T14:15:12.947Z</time></trkpt><trkpt lat="43.6819932" lon="12.7271117"><ele>136.0</ele><time>2026-03-08T14:15:15.947Z</time></trkpt><trkpt lat="43.6820532" lon="12.727053"><ele>136.0</ele><time>2026-03-08T14:15:18.947Z</time></trkpt><trkpt lat="43.6821048" lon="12.7269953"><ele>136.0</ele><time>2026-03-08T14:15:21.947Z</time></trkpt><trkpt lat="43.6821906" lon="12.7269183"><ele>135.2</ele><time>2026-03-08T14:15:23.947Z</time></trkpt><trkpt lat="43.6822607" lon="12.7268513"><ele>134.39999999999998</ele><time>2026-03-08T14:15:24.947Z</time></trkpt><trkpt lat="43.6823445" lon="12.7267794"><ele>133.6</ele><time>2026-03-08T14:15:25.947Z</time></trkpt><trkpt lat="43.6824382" lon="12.7266902"><ele>132.79999999999998</ele><time>2026-03-08T14:15:26.947Z</time></trkpt><trkpt lat="43.6825372" lon="12.7265871"><ele>132.0</ele><time>2026-03-08T14:15:27.947Z</time></trkpt><trkpt lat="43.6826246" lon="12.7265064"><ele>132.0</ele><time>2026-03-08T14:15:28.947Z</time></trkpt><trkpt lat="43.6827036" lon="12.7264501"><ele>132.0</ele><time>2026-03-08T14:15:29.948Z</time></trkpt><trkpt lat="43.6827741" lon="12.7264339"><ele>132.0</ele><time>2026-03-08T14:15:30.947Z</time></trkpt><trkpt lat="43.6828413" lon="12.726434"><ele>132.0</ele><time>2026-03-08T14:15:31.948Z</time></trkpt><trkpt lat="43.6828753" lon="12.72652"><ele>132.0</ele><time>2026-03-08T14:15:32.948Z</time></trkpt><trkpt lat="43.6828927" lon="12.7266848"><ele>132.0</ele><time>2026-03-08T14:15:34.947Z</time></trkpt><trkpt lat="43.6828777" lon="12.7267698"><ele>133.0</ele><time>2026-03-08T14:15:35.947Z</time></trkpt><trkpt lat="43.6828474" lon="12.7268482"><ele>134.0</ele><time>2026-03-08T14:15:36.947Z</time></trkpt><trkpt lat="43.6828586" lon="12.7269673"><ele>135.0</ele><time>2026-03-08T14:15:37.947Z</time></trkpt><trkpt lat="43.6828942" lon="12.7270873"><ele>136.0</ele><time>2026-03-08T14:15:38.947Z</time></trkpt><trkpt lat="43.6829308" lon="12.7271928"><ele>137.0</ele><time>2026-03-08T14:15:39.947Z</time></trkpt><trkpt lat="43.6830299" lon="12.7272921"><ele>137.0</ele><time>2026-03-08T14:15:40.948Z</time></trkpt><trkpt lat="43.683136" lon="12.7273378"><ele>137.0</ele><time>2026-03-08T14:15:41.948Z</time></trkpt><trkpt lat="43.6832187" lon="12.7273932"><ele>137.0</ele><time>2026-03-08T14:15:42.948Z</time></trkpt><trkpt lat="43.6833241" lon="12.7274561"><ele>137.0</ele><time>2026-03-08T14:15:43.947Z</time></trkpt><trkpt lat="43.6834194" lon="12.7275419"><ele>137.0</ele><time>2026-03-08T14:15:44.947Z</time></trkpt><trkpt lat="43.6835206" lon="12.7275985"><ele>138.4</ele><time>2026-03-08T14:15:45.947Z</time></trkpt><trkpt lat="43.6836263" lon="12.7276351"><ele>139.79999999999998</ele><time>2026-03-08T14:15:46.947Z</time></trkpt><trkpt lat="43.6837147" lon="12.7276718"><ele>141.2</ele><time>2026-03-08T14:15:47.947Z</time></trkpt><trkpt lat="43.6837855" lon="12.7277004"><ele>142.6</ele><time>2026-03-08T14:15:48.947Z</time></trkpt><trkpt lat="43.6838578" lon="12.7277654"><ele>144.0</ele><time>2026-03-08T14:15:50.947Z</time></trkpt><trkpt lat="43.6838726" lon="12.7279045"><ele>145.8</ele><time>2026-03-08T14:15:52.946Z</time></trkpt><trkpt lat="43.6838649" lon="12.7280107"><ele>147.60000000000002</ele><time>2026-03-08T14:15:53.948Z</time></trkpt><trkpt lat="43.6838462" lon="12.7281365"><ele>149.4</ele><time>2026-03-08T14:15:54.948Z</time></trkpt><trkpt lat="43.6838051" lon="12.72827"><ele>151.20000000000002</ele><time>2026-03-08T14:15:55.948Z</time></trkpt><trkpt lat="43.6837434" lon="12.7284138"><ele>153.0</ele><time>2026-03-08T14:15:56.947Z</time></trkpt><trkpt lat="43.6836577" lon="12.7285323"><ele>151.75</ele><time>2026-03-08T14:15:57.947Z</time></trkpt><trkpt lat="43.6835636" lon="12.7286442"><ele>150.5</ele><time>2026-03-08T14:15:58.946Z</time></trkpt><trkpt lat="43.6834758" lon="12.7287624"><ele>149.25</ele><time>2026-03-08T14:15:59.947Z</time></trkpt><trkpt lat="43.6834033" lon="12.7288944"><ele>148.0</ele><time>2026-03-08T14:16:00.947Z</time></trkpt><trkpt lat="43.6833355" lon="12.729023"><ele>148.0</ele><time>2026-03-08T14:16:01.948Z</time></trkpt><trkpt lat="43.6832821" lon="12.7291653"><ele>148.0</ele><time>2026-03-08T14:16:02.947Z</time></trkpt><trkpt lat="43.6832441" lon="12.7293163"><ele>148.0</ele><time>2026-03-08T14:16:03.947Z</time></trkpt><trkpt lat="43.6832221" lon="12.7294635"><ele>148.0</ele><time>2026-03-08T14:16:04.947Z</time></trkpt><trkpt lat="43.6832107" lon="12.7296166"><ele>150.0</ele><time>2026-03-08T14:16:05.947Z</time></trkpt><trkpt lat="43.6832042" lon="12.7297748"><ele>152.0</ele><time>2026-03-08T14:16:06.947Z</time></trkpt><trkpt lat="43.6831948" lon="12.7299278"><ele>154.0</ele><time>2026-03-08T14:16:07.947Z</time></trkpt><trkpt lat="43.6831895" lon="12.7300838"><ele>156.0</ele><time>2026-03-08T14:16:08.948Z</time></trkpt><trkpt lat="43.6831837" lon="12.7302463"><ele>156.0</ele><time>2026-03-08T14:16:09.947Z</time></trkpt><trkpt lat="43.6831787" lon="12.7303971"><ele>156.0</ele><time>2026-03-08T14:16:10.947Z</time></trkpt><trkpt lat="43.6831728" lon="12.7305419"><ele>156.0</ele><time>2026-03-08T14:16:11.947Z</time></trkpt><trkpt lat="43.683159" lon="12.7306814"><ele>156.0</ele><time>2026-03-08T14:16:12.947Z</time></trkpt><trkpt lat="43.6831329" lon="12.730813"><ele>156.0</ele><time>2026-03-08T14:16:13.947Z</time></trkpt><trkpt lat="43.6830945" lon="12.7309512"><ele>155.4</ele><time>2026-03-08T14:16:14.947Z</time></trkpt><trkpt lat="43.6830387" lon="12.7310766"><ele>154.8</ele><time>2026-03-08T14:16:15.947Z</time></trkpt><trkpt lat="43.6829784" lon="12.7312092"><ele>154.20000000000002</ele><time>2026-03-08T14:16:16.948Z</time></trkpt><trkpt lat="43.6829231" lon="12.7313375"><ele>153.6</ele><time>2026-03-08T14:16:17.947Z</time></trkpt><trkpt lat="43.6828731" lon="12.7314663"><ele>153.0</ele><time>2026-03-08T14:16:18.947Z</time></trkpt><trkpt lat="43.6828335" lon="12.7315969"><ele>153.0</ele><time>2026-03-08T14:16:19.947Z</time></trkpt><trkpt lat="43.6828004" lon="12.7317279"><ele>153.0</ele><time>2026-03-08T14:16:20.947Z</time></trkpt><trkpt lat="43.6827815" lon="12.7318577"><ele>153.0</ele><time>2026-03-08T14:16:21.947Z</time></trkpt><trkpt lat="43.6827869" lon="12.7319906"><ele>153.0</ele><time>2026-03-08T14:16:22.947Z</time></trkpt><trkpt lat="43.6828031" lon="12.7321233"><ele>153.0</ele><time>2026-03-08T14:16:23.947Z</time></trkpt><trkpt lat="43.682829" lon="12.7322652"><ele>152.66666666666666</ele><time>2026-03-08T14:16:24.947Z</time></trkpt><trkpt lat="43.68285" lon="12.7323937"><ele>152.33333333333334</ele><time>2026-03-08T14:16:25.946Z</time></trkpt><trkpt lat="43.6828744" lon="12.7325092"><ele>152.0</ele><time>2026-03-08T14:16:26.947Z</time></trkpt><trkpt lat="43.6829056" lon="12.7326141"><ele>151.66666666666669</ele><time>2026-03-08T14:16:27.947Z</time></trkpt><trkpt lat="43.682966" lon="12.7326918"><ele>151.33333333333334</ele><time>2026-03-08T14:16:28.947Z</time></trkpt><trkpt lat="43.6830424" lon="12.7327538"><ele>151.0</ele><time>2026-03-08T14:16:29.947Z</time></trkpt><trkpt lat="43.6831136" lon="12.7328119"><ele>150.5</ele><time>2026-03-08T14:16:30.947Z</time></trkpt><trkpt lat="43.6831669" lon="12.7328886"><ele>150.0</ele><time>2026-03-08T14:16:31.947Z</time></trkpt><trkpt lat="43.6832156" lon="12.7329707"><ele>149.5</ele><time>2026-03-08T14:16:32.947Z</time></trkpt><trkpt lat="43.6832751" lon="12.7330699"><ele>149.0</ele><time>2026-03-08T14:16:33.947Z</time></trkpt><trkpt lat="43.6833379" lon="12.7331684"><ele>148.5</ele><time>2026-03-08T14:16:34.947Z</time></trkpt><trkpt lat="43.6834144" lon="12.7332665"><ele>148.0</ele><time>2026-03-08T14:16:35.948Z</time></trkpt><trkpt lat="43.6834945" lon="12.7333496"><ele>148.0</ele><time>2026-03-08T14:16:36.947Z</time></trkpt><trkpt lat="43.6835877" lon="12.7334133"><ele>148.0</ele><time>2026-03-08T14:16:37.947Z</time></trkpt><trkpt lat="43.6836707" lon="12.7334425"><ele>148.0</ele><time>2026-03-08T14:16:38.948Z</time></trkpt><trkpt lat="43.6837519" lon="12.733436"><ele>148.0</ele><time>2026-03-08T14:16:39.946Z</time></trkpt><trkpt lat="43.6838298" lon="12.733416"><ele>148.0</ele><time>2026-03-08T14:16:40.946Z</time></trkpt><trkpt lat="43.6838609" lon="12.733307"><ele>148.0</ele><time>2026-03-08T14:16:41.948Z</time></trkpt><trkpt lat="43.6839072" lon="12.7332095"><ele>152.0</ele><time>2026-03-08T14:16:42.946Z</time></trkpt><trkpt lat="43.6839377" lon="12.7330988"><ele>156.0</ele><time>2026-03-08T14:16:43.948Z</time></trkpt><trkpt lat="43.6839736" lon="12.7329872"><ele>160.0</ele><time>2026-03-08T14:16:44.947Z</time></trkpt><trkpt lat="43.6840105" lon="12.7328786"><ele>164.0</ele><time>2026-03-08T14:16:45.947Z</time></trkpt><trkpt lat="43.6840569" lon="12.7327689"><ele>168.0</ele><time>2026-03-08T14:16:46.947Z</time></trkpt><trkpt lat="43.6841114" lon="12.732648"><ele>168.0</ele><time>2026-03-08T14:16:47.947Z</time></trkpt><trkpt lat="43.6841565" lon="12.7325227"><ele>168.0</ele><time>2026-03-08T14:16:48.947Z</time></trkpt><trkpt lat="43.6842066" lon="12.7324009"><ele>168.0</ele><time>2026-03-08T14:16:49.947Z</time></trkpt><trkpt lat="43.6842417" lon="12.7322764"><ele>168.0</ele><time>2026-03-08T14:16:50.947Z</time></trkpt><trkpt lat="43.6842628" lon="12.7321353"><ele>168.0</ele><time>2026-03-08T14:16:51.947Z</time></trkpt><trkpt lat="43.6842689" lon="12.7320088"><ele>168.8</ele><time>2026-03-08T14:16:52.948Z</time></trkpt><trkpt lat="43.6842743" lon="12.7318751"><ele>169.60000000000002</ele><time>2026-03-08T14:16:53.947Z</time></trkpt><trkpt lat="43.6842868" lon="12.7317518"><ele>170.39999999999998</ele><time>2026-03-08T14:16:54.947Z</time></trkpt><trkpt lat="43.6842978" lon="12.7316291"><ele>171.2</ele><time>2026-03-08T14:16:55.947Z</time></trkpt><trkpt lat="43.6843142" lon="12.7314999"><ele>172.0</ele><time>2026-03-08T14:16:56.948Z</time></trkpt><trkpt lat="43.6843138" lon="12.7313823"><ele>172.0</ele><time>2026-03-08T14:16:57.947Z</time></trkpt><trkpt lat="43.6843169" lon="12.7312653"><ele>172.0</ele><time>2026-03-08T14:16:58.948Z</time></trkpt><trkpt lat="43.6843286" lon="12.7311765"><ele>172.0</ele><time>2026-03-08T14:16:59.947Z</time></trkpt><trkpt lat="43.6844002" lon="12.7311308"><ele>172.0</ele><time>2026-03-08T14:17:01.947Z</time></trkpt><trkpt lat="43.6845168" lon="12.7311899"><ele>172.0</ele><time>2026-03-08T14:17:03.946Z</time></trkpt><trkpt lat="43.6845726" lon="12.7312567"><ele>172.0</ele><time>2026-03-08T14:17:04.948Z</time></trkpt><trkpt lat="43.6846323" lon="12.7313149"><ele>174.71428571428572</ele><time>2026-03-08T14:17:05.947Z</time></trkpt><trkpt lat="43.6846854" lon="12.7313752"><ele>177.42857142857144</ele><time>2026-03-08T14:17:06.948Z</time></trkpt><trkpt lat="43.6847236" lon="12.7314606"><ele>180.14285714285717</ele><time>2026-03-08T14:17:07.947Z</time></trkpt><trkpt lat="43.6847441" lon="12.7315509"><ele>182.85714285714286</ele><time>2026-03-08T14:17:08.947Z</time></trkpt><trkpt lat="43.6847623" lon="12.7316621"><ele>185.57142857142856</ele><time>2026-03-08T14:17:09.947Z</time></trkpt><trkpt lat="43.6847859" lon="12.7317758"><ele>188.2857142857143</ele><time>2026-03-08T14:17:10.947Z</time></trkpt><trkpt lat="43.6848174" lon="12.7318609"><ele>191.0</ele><time>2026-03-08T14:17:11.947Z</time></trkpt><trkpt lat="43.6849154" lon="12.7319543"><ele>191.0</ele><time>2026-03-08T14:17:13.947Z</time></trkpt><trkpt lat="43.6849557" lon="12.7318639"><ele>191.0</ele><time>2026-03-08T14:17:14.947Z</time></trkpt><trkpt lat="43.6849958" lon="12.7317587"><ele>191.0</ele><time>2026-03-08T14:17:15.947Z</time></trkpt><trkpt lat="43.6850365" lon="12.7316678"><ele>191.0</ele><time>2026-03-08T14:17:16.947Z</time></trkpt><trkpt lat="43.6850929" lon="12.7315878"><ele>191.0</ele><time>2026-03-08T14:17:17.947Z</time></trkpt><trkpt lat="43.685157" lon="12.7314993"><ele>191.0</ele><time>2026-03-08T14:17:18.947Z</time></trkpt><trkpt lat="43.685238" lon="12.7314222"><ele>196.0</ele><time>2026-03-08T14:17:19.947Z</time></trkpt><trkpt lat="43.6853203" lon="12.7313254"><ele>201.0</ele><time>2026-03-08T14:17:20.947Z</time></trkpt><trkpt lat="43.685404" lon="12.7312077"><ele>206.0</ele><time>2026-03-08T14:17:21.947Z</time></trkpt><trkpt lat="43.6854821" lon="12.7310855"><ele>211.0</ele><time>2026-03-08T14:17:22.947Z</time></trkpt><trkpt lat="43.6855422" lon="12.7309569"><ele>211.0</ele><time>2026-03-08T14:17:23.947Z</time></trkpt><trkpt lat="43.6856082" lon="12.7308395"><ele>211.0</ele><time>2026-03-08T14:17:24.947Z</time></trkpt><trkpt lat="43.6856856" lon="12.7307367"><ele>211.0</ele><time>2026-03-08T14:17:25.947Z</time></trkpt><trkpt lat="43.6857668" lon="12.7306398"><ele>211.0</ele><time>2026-03-08T14:17:26.947Z</time></trkpt><trkpt lat="43.6858384" lon="12.7305767"><ele>211.0</ele><time>2026-03-08T14:17:27.949Z</time></trkpt><trkpt lat="43.6859049" lon="12.7305041"><ele>211.0</ele><time>2026-03-08T14:17:28.949Z</time></trkpt><trkpt lat="43.6859708" lon="12.7304319"><ele>211.0</ele><time>2026-03-08T14:17:29.948Z</time></trkpt><trkpt lat="43.686042" lon="12.7303608"><ele>211.0</ele><time>2026-03-08T14:17:30.947Z</time></trkpt><trkpt lat="43.6861144" lon="12.7303256"><ele>211.0</ele><time>2026-03-08T14:17:31.947Z</time></trkpt><trkpt lat="43.6862126" lon="12.730381"><ele>211.0</ele><time>2026-03-08T14:17:33.948Z</time></trkpt><trkpt lat="43.6862882" lon="12.7305223"><ele>214.14285714285714</ele><time>2026-03-08T14:17:35.947Z</time></trkpt><trkpt lat="43.6863374" lon="12.7305872"><ele>217.28571428571428</ele><time>2026-03-08T14:17:36.947Z</time></trkpt><trkpt lat="43.6863861" lon="12.7306495"><ele>220.42857142857144</ele><time>2026-03-08T14:17:37.948Z</time></trkpt><trkpt lat="43.6864401" lon="12.73071"><ele>223.57142857142856</ele><time>2026-03-08T14:17:38.947Z</time></trkpt><trkpt lat="43.6865004" lon="12.7307771"><ele>226.7142857142857</ele><time>2026-03-08T14:17:39.948Z</time></trkpt><trkpt lat="43.6865691" lon="12.7308383"><ele>229.85714285714286</ele><time>2026-03-08T14:17:40.947Z</time></trkpt><trkpt lat="43.6866366" lon="12.7309047"><ele>233.0</ele><time>2026-03-08T14:17:41.947Z</time></trkpt><trkpt lat="43.6866993" lon="12.7309521"><ele>233.0</ele><time>2026-03-08T14:17:42.947Z</time></trkpt><trkpt lat="43.6867672" lon="12.7309751"><ele>233.0</ele><time>2026-03-08T14:17:43.948Z</time></trkpt><trkpt lat="43.6868381" lon="12.7309782"><ele>233.0</ele><time>2026-03-08T14:17:44.948Z</time></trkpt><trkpt lat="43.6869115" lon="12.7309566"><ele>233.0</ele><time>2026-03-08T14:17:45.948Z</time></trkpt><trkpt lat="43.6869755" lon="12.7309172"><ele>233.0</ele><time>2026-03-08T14:17:46.947Z</time></trkpt><trkpt lat="43.6870415" lon="12.7308589"><ele>233.0</ele><time>2026-03-08T14:17:47.947Z</time></trkpt><trkpt lat="43.6870993" lon="12.7307884"><ele>233.0</ele><time>2026-03-08T14:17:48.947Z</time></trkpt><trkpt lat="43.6871512" lon="12.730716"><ele>234.66666666666669</ele><time>2026-03-08T14:17:49.948Z</time></trkpt><trkpt lat="43.6872016" lon="12.7305953"><ele>236.33333333333334</ele><time>2026-03-08T14:17:50.947Z</time></trkpt><trkpt lat="43.6872375" lon="12.7304882"><ele>238.0</ele><time>2026-03-08T14:17:51.947Z</time></trkpt><trkpt lat="43.6872752" lon="12.7303894"><ele>239.66666666666669</ele><time>2026-03-08T14:17:52.947Z</time></trkpt><trkpt lat="43.6873241" lon="12.7303147"><ele>241.33333333333334</ele><time>2026-03-08T14:17:53.947Z</time></trkpt><trkpt lat="43.6873721" lon="12.7302094"><ele>243.0</ele><time>2026-03-08T14:17:54.947Z</time></trkpt><trkpt lat="43.6874161" lon="12.7300962"><ele>243.5</ele><time>2026-03-08T14:17:55.948Z</time></trkpt><trkpt lat="43.6874706" lon="12.7300164"><ele>244.0</ele><time>2026-03-08T14:17:56.947Z</time></trkpt><trkpt lat="43.6875182" lon="12.7299591"><ele>244.5</ele><time>2026-03-08T14:17:57.947Z</time></trkpt><trkpt lat="43.6875531" lon="12.7298767"><ele>245.0</ele><time>2026-03-08T14:18:31.947Z</time></trkpt><trkpt lat="43.6876063" lon="12.7297542"><ele>245.5</ele><time>2026-03-08T14:18:33.948Z</time></trkpt><trkpt lat="43.6876263" lon="12.7296665"><ele>246.0</ele><time>2026-03-08T14:18:34.947Z</time></trkpt><trkpt lat="43.6876389" lon="12.7295604"><ele>246.0</ele><time>2026-03-08T14:18:35.948Z</time></trkpt><trkpt lat="43.6876546" lon="12.7294472"><ele>246.0</ele><time>2026-03-08T14:18:36.947Z</time></trkpt><trkpt lat="43.6876909" lon="12.7293257"><ele>246.0</ele><time>2026-03-08T14:18:37.947Z</time></trkpt><trkpt lat="43.6877426" lon="12.7292185"><ele>246.0</ele><time>2026-03-08T14:18:38.947Z</time></trkpt><trkpt lat="43.6878005" lon="12.7291456"><ele>246.0</ele><time>2026-03-08T14:18:39.948Z</time></trkpt><trkpt lat="43.6878723" lon="12.7291067"><ele>246.0</ele><time>2026-03-08T14:18:40.947Z</time></trkpt><trkpt lat="43.6879513" lon="12.7291259"><ele>249.4</ele><time>2026-03-08T14:18:41.947Z</time></trkpt><trkpt lat="43.6880229" lon="12.7291837"><ele>252.8</ele><time>2026-03-08T14:18:42.947Z</time></trkpt><trkpt lat="43.6880894" lon="12.7292733"><ele>256.20000000000005</ele><time>2026-03-08T14:18:43.949Z</time></trkpt><trkpt lat="43.6881516" lon="12.7293811"><ele>259.6</ele><time>2026-03-08T14:18:44.948Z</time></trkpt><trkpt lat="43.6882058" lon="12.7294925"><ele>263.0</ele><time>2026-03-08T14:18:45.947Z</time></trkpt><trkpt lat="43.6882565" lon="12.7296239"><ele>264.0</ele><time>2026-03-08T14:18:46.947Z</time></trkpt><trkpt lat="43.688316" lon="12.7297653"><ele>265.0</ele><time>2026-03-08T14:18:47.947Z</time></trkpt><trkpt lat="43.688375" lon="12.7299197"><ele>266.0</ele><time>2026-03-08T14:18:48.947Z</time></trkpt><trkpt lat="43.6884266" lon="12.7300724"><ele>267.0</ele><time>2026-03-08T14:18:49.947Z</time></trkpt><trkpt lat="43.6884714" lon="12.7302307"><ele>267.0</ele><time>2026-03-08T14:18:50.947Z</time></trkpt><trkpt lat="43.6885162" lon="12.7303788"><ele>267.0</ele><time>2026-03-08T14:18:51.948Z</time></trkpt><trkpt lat="43.6885699" lon="12.7305392"><ele>267.0</ele><time>2026-03-08T14:18:52.948Z</time></trkpt><trkpt lat="43.6886321" lon="12.7306581"><ele>267.0</ele><time>2026-03-08T14:18:53.947Z</time></trkpt><trkpt lat="43.6887024" lon="12.7307604"><ele>268.25</ele><time>2026-03-08T14:18:54.947Z</time></trkpt><trkpt lat="43.6887894" lon="12.7308486"><ele>269.5</ele><time>2026-03-08T14:18:55.947Z</time></trkpt><trkpt lat="43.6888809" lon="12.73093"><ele>270.75</ele><time>2026-03-08T14:18:56.947Z</time></trkpt><trkpt lat="43.6889797" lon="12.7310287"><ele>272.0</ele><time>2026-03-08T14:18:57.948Z</time></trkpt><trkpt lat="43.6890791" lon="12.7311249"><ele>273.25</ele><time>2026-03-08T14:18:58.947Z</time></trkpt><trkpt lat="43.6891799" lon="12.7312121"><ele>274.5</ele><time>2026-03-08T14:18:59.947Z</time></trkpt><trkpt lat="43.6892892" lon="12.7313074"><ele>275.75</ele><time>2026-03-08T14:19:00.947Z</time></trkpt><trkpt lat="43.6893914" lon="12.7313943"><ele>277.0</ele><time>2026-03-08T14:19:01.947Z</time></trkpt><trkpt lat="43.6894929" lon="12.7314828"><ele>277.0</ele><time>2026-03-08T14:19:02.947Z</time></trkpt><trkpt lat="43.6895856" lon="12.7315969"><ele>277.0</ele><time>2026-03-08T14:19:03.947Z</time></trkpt><trkpt lat="43.6896691" lon="12.7317292"><ele>277.0</ele><time>2026-03-08T14:19:04.947Z</time></trkpt><trkpt lat="43.6897462" lon="12.7318683"><ele>277.0</ele><time>2026-03-08T14:19:05.947Z</time></trkpt><trkpt lat="43.6898268" lon="12.732029"><ele>279.0</ele><time>2026-03-08T14:19:06.947Z</time></trkpt><trkpt lat="43.6898977" lon="12.7321819"><ele>281.0</ele><time>2026-03-08T14:19:07.947Z</time></trkpt><trkpt lat="43.6899658" lon="12.7323313"><ele>283.0</ele><time>2026-03-08T14:19:08.948Z</time></trkpt><trkpt lat="43.6900327" lon="12.7324813"><ele>285.0</ele><time>2026-03-08T14:19:09.947Z</time></trkpt><trkpt lat="43.6901033" lon="12.7325979"><ele>285.0</ele><time>2026-03-08T14:19:10.947Z</time></trkpt><trkpt lat="43.6901847" lon="12.7326785"><ele>285.0</ele><time>2026-03-08T14:19:11.947Z</time></trkpt><trkpt lat="43.690279" lon="12.7327437"><ele>285.0</ele><time>2026-03-08T14:19:12.948Z</time></trkpt><trkpt lat="43.690373" lon="12.7327737"><ele>285.0</ele><time>2026-03-08T14:19:13.947Z</time></trkpt><trkpt lat="43.6904658" lon="12.7327245"><ele>285.0</ele><time>2026-03-08T14:19:14.948Z</time></trkpt><trkpt lat="43.690573" lon="12.7326674"><ele>285.75</ele><time>2026-03-08T14:19:15.948Z</time></trkpt><trkpt lat="43.690676" lon="12.7325974"><ele>286.5</ele><time>2026-03-08T14:19:16.947Z</time></trkpt><trkpt lat="43.6907953" lon="12.7325555"><ele>287.25</ele><time>2026-03-08T14:19:17.947Z</time></trkpt><trkpt lat="43.6909117" lon="12.7325003"><ele>288.0</ele><time>2026-03-08T14:19:18.947Z</time></trkpt><trkpt lat="43.6910294" lon="12.7324511"><ele>290.0</ele><time>2026-03-08T14:19:19.948Z</time></trkpt><trkpt lat="43.6911531" lon="12.7323938"><ele>292.0</ele><time>2026-03-08T14:19:20.947Z</time></trkpt><trkpt lat="43.6912761" lon="12.7323343"><ele>294.0</ele><time>2026-03-08T14:19:21.947Z</time></trkpt><trkpt lat="43.6914036" lon="12.732271"><ele>296.0</ele><time>2026-03-08T14:19:22.948Z</time></trkpt><trkpt lat="43.6915221" lon="12.73221"><ele>296.0</ele><time>2026-03-08T14:19:23.947Z</time></trkpt><trkpt lat="43.6916255" lon="12.7321597"><ele>296.0</ele><time>2026-03-08T14:19:24.947Z</time></trkpt><trkpt lat="43.6917323" lon="12.7321381"><ele>296.0</ele><time>2026-03-08T14:19:25.947Z</time></trkpt><trkpt lat="43.6918319" lon="12.7321088"><ele>296.0</ele><time>2026-03-08T14:19:26.947Z</time></trkpt><trkpt lat="43.6919385" lon="12.7321205"><ele>296.0</ele><time>2026-03-08T14:19:27.947Z</time></trkpt><trkpt lat="43.6920452" lon="12.7321549"><ele>297.5</ele><time>2026-03-08T14:19:28.948Z</time></trkpt><trkpt lat="43.6921587" lon="12.7322002"><ele>299.0</ele><time>2026-03-08T14:19:29.947Z</time></trkpt><trkpt lat="43.6922795" lon="12.7322385"><ele>300.5</ele><time>2026-03-08T14:19:30.947Z</time></trkpt><trkpt lat="43.6924032" lon="12.7322611"><ele>302.0</ele><time>2026-03-08T14:19:31.948Z</time></trkpt><trkpt lat="43.6925271" lon="12.7322734"><ele>302.0</ele><time>2026-03-08T14:19:32.947Z</time></trkpt><trkpt lat="43.692654" lon="12.7322773"><ele>302.0</ele><time>2026-03-08T14:19:33.947Z</time></trkpt><trkpt lat="43.6927899" lon="12.7322958"><ele>302.0</ele><time>2026-03-08T14:19:34.947Z</time></trkpt><trkpt lat="43.6929045" lon="12.7322816"><ele>302.0</ele><time>2026-03-08T14:19:35.947Z</time></trkpt><trkpt lat="43.6930088" lon="12.7322587"><ele>303.0</ele><time>2026-03-08T14:19:36.947Z</time></trkpt><trkpt lat="43.6931095" lon="12.732225"><ele>304.0</ele><time>2026-03-08T14:19:37.947Z</time></trkpt><trkpt lat="43.6932022" lon="12.7321822"><ele>305.0</ele><time>2026-03-08T14:19:38.947Z</time></trkpt><trkpt lat="43.693296" lon="12.7321582"><ele>306.0</ele><time>2026-03-08T14:19:39.947Z</time></trkpt><trkpt lat="43.6933936" lon="12.732159"><ele>307.0</ele><time>2026-03-08T14:19:40.947Z</time></trkpt><trkpt lat="43.6934945" lon="12.7321811"><ele>307.0</ele><time>2026-03-08T14:19:41.947Z</time></trkpt><trkpt lat="43.6935879" lon="12.7322107"><ele>307.0</ele><time>2026-03-08T14:19:42.947Z</time></trkpt><trkpt lat="43.6936847" lon="12.7322462"><ele>307.0</ele><time>2026-03-08T14:19:43.947Z</time></trkpt><trkpt lat="43.6937667" lon="12.732276"><ele>307.0</ele><time>2026-03-08T14:19:44.947Z</time></trkpt><trkpt lat="43.6938587" lon="12.7323227"><ele>307.0</ele><time>2026-03-08T14:19:45.947Z</time></trkpt><trkpt lat="43.6939618" lon="12.7323598"><ele>307.8</ele><time>2026-03-08T14:19:46.947Z</time></trkpt><trkpt lat="43.694063" lon="12.7324097"><ele>308.6</ele><time>2026-03-08T14:19:47.947Z</time></trkpt><trkpt lat="43.694161" lon="12.7324861"><ele>309.40000000000003</ele><time>2026-03-08T14:19:48.947Z</time></trkpt><trkpt lat="43.6942233" lon="12.7325674"><ele>310.2</ele><time>2026-03-08T14:19:49.947Z</time></trkpt><trkpt lat="43.6942974" lon="12.7326736"><ele>311.0</ele><time>2026-03-08T14:19:50.947Z</time></trkpt><trkpt lat="43.6943582" lon="12.7327913"><ele>313.6</ele><time>2026-03-08T14:19:51.947Z</time></trkpt><trkpt lat="43.6944274" lon="12.7329363"><ele>316.20000000000005</ele><time>2026-03-08T14:19:52.947Z</time></trkpt><trkpt lat="43.6944856" lon="12.7330633"><ele>318.79999999999995</ele><time>2026-03-08T14:19:53.947Z</time></trkpt><trkpt lat="43.6945491" lon="12.7331903"><ele>321.4</ele><time>2026-03-08T14:19:54.948Z</time></trkpt><trkpt lat="43.6946061" lon="12.7332994"><ele>324.0</ele><time>2026-03-08T14:19:55.948Z</time></trkpt><trkpt lat="43.694662" lon="12.7333855"><ele>324.0</ele><time>2026-03-08T14:19:56.947Z</time></trkpt><trkpt lat="43.6947251" lon="12.7334471"><ele>324.0</ele><time>2026-03-08T14:19:57.947Z</time></trkpt><trkpt lat="43.694791" lon="12.7334645"><ele>324.0</ele><time>2026-03-08T14:19:58.947Z</time></trkpt><trkpt lat="43.6948576" lon="12.7334384"><ele>324.0</ele><time>2026-03-08T14:19:59.947Z</time></trkpt><trkpt lat="43.6949207" lon="12.7333981"><ele>324.0</ele><time>2026-03-08T14:20:00.947Z</time></trkpt><trkpt lat="43.6949826" lon="12.7333527"><ele>324.0</ele><time>2026-03-08T14:20:01.947Z</time></trkpt><trkpt lat="43.6950428" lon="12.7332994"><ele>324.0</ele><time>2026-03-08T14:20:02.947Z</time></trkpt><trkpt lat="43.6950969" lon="12.7332501"><ele>324.0</ele><time>2026-03-08T14:20:03.947Z</time></trkpt><trkpt lat="43.6951604" lon="12.7331788"><ele>324.0</ele><time>2026-03-08T14:20:04.947Z</time></trkpt><trkpt lat="43.6952261" lon="12.7331004"><ele>324.0</ele><time>2026-03-08T14:20:05.947Z</time></trkpt><trkpt lat="43.6952944" lon="12.7330233"><ele>324.0</ele><time>2026-03-08T14:20:06.948Z</time></trkpt><trkpt lat="43.6953619" lon="12.7329446"><ele>324.0</ele><time>2026-03-08T14:20:07.947Z</time></trkpt><trkpt lat="43.6954373" lon="12.7328405"><ele>325.6</ele><time>2026-03-08T14:20:08.947Z</time></trkpt><trkpt lat="43.6954971" lon="12.7327453"><ele>327.2</ele><time>2026-03-08T14:20:09.948Z</time></trkpt><trkpt lat="43.6955609" lon="12.7326556"><ele>328.8</ele><time>2026-03-08T14:20:10.947Z</time></trkpt><trkpt lat="43.6956338" lon="12.7325429"><ele>330.40000000000003</ele><time>2026-03-08T14:20:11.947Z</time></trkpt><trkpt lat="43.6957042" lon="12.7324628"><ele>332.0</ele><time>2026-03-08T14:20:12.947Z</time></trkpt><trkpt lat="43.6957843" lon="12.7324174"><ele>332.0</ele><time>2026-03-08T14:20:13.947Z</time></trkpt><trkpt lat="43.6958681" lon="12.7324003"><ele>332.0</ele><time>2026-03-08T14:20:14.947Z</time></trkpt><trkpt lat="43.6959693" lon="12.7323934"><ele>332.0</ele><time>2026-03-08T14:20:15.947Z</time></trkpt><trkpt lat="43.6960605" lon="12.7323836"><ele>332.0</ele><time>2026-03-08T14:20:16.947Z</time></trkpt><trkpt lat="43.6961374" lon="12.7323576"><ele>332.0</ele><time>2026-03-08T14:20:17.948Z</time></trkpt><trkpt lat="43.6962189" lon="12.7322959"><ele>332.0</ele><time>2026-03-08T14:20:19.947Z</time></trkpt><trkpt lat="43.696215" lon="12.7324047"><ele>332.0</ele><time>2026-03-08T14:20:28.948Z</time></trkpt><trkpt lat="43.6961333" lon="12.7325192"><ele>332.0</ele><time>2026-03-08T14:20:30.948Z</time></trkpt><trkpt lat="43.6960817" lon="12.7325889"><ele>332.0</ele><time>2026-03-08T14:20:31.947Z</time></trkpt><trkpt lat="43.6960211" lon="12.7326916"><ele>332.0</ele><time>2026-03-08T14:20:32.947Z</time></trkpt><trkpt lat="43.6959628" lon="12.7327757"><ele>332.0</ele><time>2026-03-08T14:20:33.947Z</time></trkpt><trkpt lat="43.6958807" lon="12.7329187"><ele>334.40000000000003</ele><time>2026-03-08T14:20:35.947Z</time></trkpt><trkpt lat="43.6958496" lon="12.7330071"><ele>336.8</ele><time>2026-03-08T14:20:36.947Z</time></trkpt><trkpt lat="43.6958367" lon="12.7331521"><ele>339.2</ele><time>2026-03-08T14:20:38.947Z</time></trkpt><trkpt lat="43.6958243" lon="12.7333104"><ele>341.6</ele><time>2026-03-08T14:20:40.947Z</time></trkpt><trkpt lat="43.6958132" lon="12.7334035"><ele>344.0</ele><time>2026-03-08T14:20:41.947Z</time></trkpt><trkpt lat="43.6958327" lon="12.7335297"><ele>345.33333333333337</ele><time>2026-03-08T14:20:43.947Z</time></trkpt><trkpt lat="43.6958985" lon="12.7335823"><ele>346.6666666666667</ele><time>2026-03-08T14:20:45.948Z</time></trkpt><trkpt lat="43.6959853" lon="12.733658"><ele>348.0</ele><time>2026-03-08T14:20:47.947Z</time></trkpt><trkpt lat="43.6960872" lon="12.7337534"><ele>349.3333333333333</ele><time>2026-03-08T14:20:49.947Z</time></trkpt><trkpt lat="43.6961432" lon="12.7338127"><ele>350.66666666666663</ele><time>2026-03-08T14:20:50.947Z</time></trkpt><trkpt lat="43.6961832" lon="12.7338905"><ele>352.0</ele><time>2026-03-08T14:20:51.947Z</time></trkpt><trkpt lat="43.6962208" lon="12.7339788"><ele>355.14285714285717</ele><time>2026-03-08T14:20:52.947Z</time></trkpt><trkpt lat="43.6962665" lon="12.7340519"><ele>358.2857142857143</ele><time>2026-03-08T14:20:53.948Z</time></trkpt><trkpt lat="43.6963211" lon="12.7340957"><ele>361.42857142857144</ele><time>2026-03-08T14:20:54.947Z</time></trkpt><trkpt lat="43.6963886" lon="12.7341459"><ele>364.57142857142856</ele><time>2026-03-08T14:20:55.948Z</time></trkpt><trkpt lat="43.696453" lon="12.7341609"><ele>367.7142857142857</ele><time>2026-03-08T14:20:56.947Z</time></trkpt><trkpt lat="43.6965203" lon="12.7341576"><ele>370.85714285714283</ele><time>2026-03-08T14:20:57.947Z</time></trkpt><trkpt lat="43.6965982" lon="12.7341704"><ele>374.0</ele><time>2026-03-08T14:20:58.947Z</time></trkpt><trkpt lat="43.6966642" lon="12.7341486"><ele>374.0</ele><time>2026-03-08T14:20:59.948Z</time></trkpt><trkpt lat="43.6967357" lon="12.7341318"><ele>374.0</ele><time>2026-03-08T14:21:00.947Z</time></trkpt><trkpt lat="43.6968127" lon="12.7341243"><ele>374.0</ele><time>2026-03-08T14:21:01.948Z</time></trkpt><trkpt lat="43.6969235" lon="12.7341178"><ele>374.0</ele><time>2026-03-08T14:21:02.947Z</time></trkpt><trkpt lat="43.6970047" lon="12.7341331"><ele>374.0</ele><time>2026-03-08T14:21:03.948Z</time></trkpt><trkpt lat="43.6971065" lon="12.7341269"><ele>374.0</ele><time>2026-03-08T14:21:04.947Z</time></trkpt><trkpt lat="43.6971875" lon="12.7341319"><ele>377.1666666666667</ele><time>2026-03-08T14:21:05.947Z</time></trkpt><trkpt lat="43.6972689" lon="12.734104"><ele>380.33333333333337</ele><time>2026-03-08T14:21:06.947Z</time></trkpt><trkpt lat="43.6973309" lon="12.7340605"><ele>383.5</ele><time>2026-03-08T14:21:07.948Z</time></trkpt><trkpt lat="43.6974076" lon="12.7340388"><ele>386.6666666666667</ele><time>2026-03-08T14:21:08.948Z</time></trkpt><trkpt lat="43.6974692" lon="12.7340578"><ele>389.8333333333333</ele><time>2026-03-08T14:21:09.947Z</time></trkpt><trkpt lat="43.6975725" lon="12.7341716"><ele>393.0</ele><time>2026-03-08T14:21:11.947Z</time></trkpt><trkpt lat="43.6976254" lon="12.734239"><ele>393.0</ele><time>2026-03-08T14:21:12.948Z</time></trkpt><trkpt lat="43.6977463" lon="12.734258"><ele>393.0</ele><time>2026-03-08T14:21:14.947Z</time></trkpt><trkpt lat="43.697816" lon="12.7342465"><ele>393.0</ele><time>2026-03-08T14:21:15.948Z</time></trkpt><trkpt lat="43.697891" lon="12.734245"><ele>393.0</ele><time>2026-03-08T14:21:16.948Z</time></trkpt><trkpt lat="43.6979749" lon="12.7342798"><ele>393.0</ele><time>2026-03-08T14:21:18.948Z</time></trkpt><trkpt lat="43.6979941" lon="12.7344267"><ele>397.0</ele><time>2026-03-08T14:21:20.947Z</time></trkpt><trkpt lat="43.6979931" lon="12.7345221"><ele>401.0</ele><time>2026-03-08T14:21:21.948Z</time></trkpt><trkpt lat="43.6980435" lon="12.7346711"><ele>405.0</ele><time>2026-03-08T14:21:23.948Z</time></trkpt><trkpt lat="43.698107" lon="12.7347466"><ele>409.0</ele><time>2026-03-08T14:21:24.947Z</time></trkpt><trkpt lat="43.6981663" lon="12.7347851"><ele>413.0</ele><time>2026-03-08T14:21:25.947Z</time></trkpt><trkpt lat="43.6982233" lon="12.7348501"><ele>417.0</ele><time>2026-03-08T14:21:26.948Z</time></trkpt><trkpt lat="43.6982874" lon="12.7349204"><ele>417.0</ele><time>2026-03-08T14:21:27.947Z</time></trkpt><trkpt lat="43.6983592" lon="12.7349923"><ele>417.0</ele><time>2026-03-08T14:21:28.947Z</time></trkpt><trkpt lat="43.69843" lon="12.7350422"><ele>417.0</ele><time>2026-03-08T14:21:29.947Z</time></trkpt><trkpt lat="43.6984956" lon="12.7350725"><ele>417.0</ele><time>2026-03-08T14:21:30.948Z</time></trkpt><trkpt lat="43.6985688" lon="12.7351061"><ele>417.0</ele><time>2026-03-08T14:21:32.947Z</time></trkpt><trkpt lat="43.6985117" lon="12.735163"><ele>417.0</ele><time>2026-03-08T14:21:44.947Z</time></trkpt><trkpt lat="43.6984444" lon="12.7350886"><ele>417.0</ele><time>2026-03-08T14:23:22.947Z</time></trkpt><trkpt lat="43.6983624" lon="12.7350585"><ele>417.0</ele><time>2026-03-08T14:23:25.947Z</time></trkpt><trkpt lat="43.6984017" lon="12.735135"><ele>417.0</ele><time>2026-03-08T14:23:33.947Z</time></trkpt><trkpt lat="43.6984784" lon="12.7351309"><ele>417.0</ele><time>2026-03-08T14:23:35.947Z</time></trkpt><trkpt lat="43.6985408" lon="12.7350631"><ele>417.0</ele><time>2026-03-08T14:23:37.947Z</time></trkpt><trkpt lat="43.6985744" lon="12.7349862"><ele>417.0</ele><time>2026-03-08T14:23:38.947Z</time></trkpt><trkpt lat="43.6986052" lon="12.7348959"><ele>417.0</ele><time>2026-03-08T14:23:39.947Z</time></trkpt><trkpt lat="43.6986487" lon="12.7347935"><ele>419.8</ele><time>2026-03-08T14:23:40.947Z</time></trkpt><trkpt lat="43.6986982" lon="12.7346625"><ele>422.6</ele><time>2026-03-08T14:23:41.947Z</time></trkpt><trkpt lat="43.6987483" lon="12.7345321"><ele>425.40000000000003</ele><time>2026-03-08T14:23:42.948Z</time></trkpt><trkpt lat="43.6988162" lon="12.7344247"><ele>428.20000000000005</ele><time>2026-03-08T14:23:43.948Z</time></trkpt><trkpt lat="43.6988954" lon="12.7343419"><ele>431.0</ele><time>2026-03-08T14:23:44.948Z</time></trkpt><trkpt lat="43.698969" lon="12.7342748"><ele>430.99999999999994</ele><time>2026-03-08T14:23:45.948Z</time></trkpt><trkpt lat="43.6990412" lon="12.7342396"><ele>431.0</ele><time>2026-03-08T14:23:46.947Z</time></trkpt><trkpt lat="43.6991111" lon="12.7342501"><ele>431.0</ele><time>2026-03-08T14:23:47.947Z</time></trkpt><trkpt lat="43.6991752" lon="12.734304"><ele>431.0</ele><time>2026-03-08T14:23:48.947Z</time></trkpt><trkpt lat="43.6992252" lon="12.7343844"><ele>430.99999999999994</ele><time>2026-03-08T14:23:49.947Z</time></trkpt><trkpt lat="43.6992694" lon="12.7344812"><ele>431.0</ele><time>2026-03-08T14:23:50.947Z</time></trkpt><trkpt lat="43.6993079" lon="12.7345626"><ele>432.3333333333333</ele><time>2026-03-08T14:23:51.948Z</time></trkpt><trkpt lat="43.6993587" lon="12.7346162"><ele>433.66666666666663</ele><time>2026-03-08T14:23:52.947Z</time></trkpt><trkpt lat="43.6994397" lon="12.7346467"><ele>435.0</ele><time>2026-03-08T14:23:54.948Z</time></trkpt><trkpt lat="43.6995332" lon="12.7346743"><ele>436.33333333333337</ele><time>2026-03-08T14:24:05.947Z</time></trkpt><trkpt lat="43.6996015" lon="12.7347275"><ele>437.6666666666667</ele><time>2026-03-08T14:24:07.947Z</time></trkpt><trkpt lat="43.6996618" lon="12.7347887"><ele>439.0</ele><time>2026-03-08T14:24:09.947Z</time></trkpt><trkpt lat="43.6997339" lon="12.7348853"><ele>439.83333333333337</ele><time>2026-03-08T14:24:57.947Z</time></trkpt><trkpt lat="43.6997828" lon="12.734945"><ele>440.6666666666667</ele><time>2026-03-08T14:24:59.947Z</time></trkpt><trkpt lat="43.699836" lon="12.7350242"><ele>441.5</ele><time>2026-03-08T14:25:02.948Z</time></trkpt><trkpt lat="43.699878" lon="12.7351184"><ele>442.33333333333337</ele><time>2026-03-08T14:26:09.947Z</time></trkpt><trkpt lat="43.6998936" lon="12.7352476"><ele>443.1666666666667</ele><time>2026-03-08T14:26:35.947Z</time></trkpt><trkpt lat="43.6998994" lon="12.7354077"><ele>444.0</ele><time>2026-03-08T14:26:37.947Z</time></trkpt><trkpt lat="43.6998998" lon="12.735496"><ele>445.1666666666667</ele><time>2026-03-08T14:26:38.947Z</time></trkpt><trkpt lat="43.6998921" lon="12.735589"><ele>446.33333333333337</ele><time>2026-03-08T14:26:39.947Z</time></trkpt><trkpt lat="43.6998709" lon="12.7356998"><ele>447.5</ele><time>2026-03-08T14:26:40.948Z</time></trkpt><trkpt lat="43.6998401" lon="12.7358154"><ele>448.6666666666667</ele><time>2026-03-08T14:26:41.947Z</time></trkpt><trkpt lat="43.6997959" lon="12.7359216"><ele>449.83333333333337</ele><time>2026-03-08T14:26:42.947Z</time></trkpt><trkpt lat="43.6997662" lon="12.7360295"><ele>451.0</ele><time>2026-03-08T14:26:43.947Z</time></trkpt><trkpt lat="43.6997555" lon="12.7361465"><ele>453.20000000000005</ele><time>2026-03-08T14:26:44.947Z</time></trkpt><trkpt lat="43.6997635" lon="12.7362704"><ele>455.40000000000003</ele><time>2026-03-08T14:26:45.947Z</time></trkpt><trkpt lat="43.6997784" lon="12.7364074"><ele>457.6</ele><time>2026-03-08T14:26:46.947Z</time></trkpt><trkpt lat="43.6998006" lon="12.7365526"><ele>459.8</ele><time>2026-03-08T14:26:47.947Z</time></trkpt><trkpt lat="43.69981" lon="12.7367208"><ele>462.0</ele><time>2026-03-08T14:26:48.948Z</time></trkpt><trkpt lat="43.6998075" lon="12.7368754"><ele>462.5</ele><time>2026-03-08T14:26:49.947Z</time></trkpt><trkpt lat="43.699804" lon="12.7370129"><ele>463.0</ele><time>2026-03-08T14:26:50.947Z</time></trkpt><trkpt lat="43.6998027" lon="12.7371347"><ele>463.5</ele><time>2026-03-08T14:26:51.948Z</time></trkpt><trkpt lat="43.6998011" lon="12.7372455"><ele>464.0</ele><time>2026-03-08T14:26:52.948Z</time></trkpt><trkpt lat="43.699804" lon="12.7373386"><ele>464.5</ele><time>2026-03-08T14:26:53.947Z</time></trkpt><trkpt lat="43.6997934" lon="12.737477"><ele>465.0</ele><time>2026-03-08T14:26:55.947Z</time></trkpt><trkpt lat="43.6997764" lon="12.7375632"><ele>465.0</ele><time>2026-03-08T14:26:57.947Z</time></trkpt><trkpt lat="43.6997587" lon="12.7376591"><ele>465.0</ele><time>2026-03-08T14:26:59.947Z</time></trkpt><trkpt lat="43.6997412" lon="12.7377976"><ele>465.0</ele><time>2026-03-08T14:27:01.947Z</time></trkpt><trkpt lat="43.6997398" lon="12.737909"><ele>465.0</ele><time>2026-03-08T14:27:06.947Z</time></trkpt><trkpt lat="43.6997141" lon="12.7380268"><ele>465.0</ele><time>2026-03-08T14:27:08.948Z</time></trkpt><trkpt lat="43.6996536" lon="12.7380968"><ele>465.0</ele><time>2026-03-08T14:27:10.947Z</time></trkpt><trkpt lat="43.6995527" lon="12.7381557"><ele>466.3333333333333</ele><time>2026-03-08T14:27:12.947Z</time></trkpt><trkpt lat="43.6994821" lon="12.7382381"><ele>467.66666666666663</ele><time>2026-03-08T14:27:14.947Z</time></trkpt><trkpt lat="43.6994055" lon="12.7382857"><ele>469.0</ele><time>2026-03-08T14:27:16.947Z</time></trkpt><trkpt lat="43.6993452" lon="12.7383487"><ele>470.3333333333333</ele><time>2026-03-08T14:27:19.947Z</time></trkpt><trkpt lat="43.6993345" lon="12.7384529"><ele>471.66666666666663</ele><time>2026-03-08T14:27:21.947Z</time></trkpt><trkpt lat="43.699355" lon="12.7385369"><ele>473.0</ele><time>2026-03-08T14:27:23.947Z</time></trkpt><trkpt lat="43.6993787" lon="12.7384261"><ele>472.99999999999994</ele><time>2026-03-08T14:28:02.947Z</time></trkpt><trkpt lat="43.699392" lon="12.7383167"><ele>473.0</ele><time>2026-03-08T14:28:04.947Z</time></trkpt><trkpt lat="43.6994465" lon="12.7382522"><ele>473.0</ele><time>2026-03-08T14:28:06.947Z</time></trkpt><trkpt lat="43.699524" lon="12.7381866"><ele>473.0</ele><time>2026-03-08T14:28:08.947Z</time></trkpt><trkpt lat="43.6996029" lon="12.738095"><ele>472.99999999999994</ele><time>2026-03-08T14:28:10.947Z</time></trkpt><trkpt lat="43.6996751" lon="12.7380401"><ele>473.0</ele><time>2026-03-08T14:28:12.946Z</time></trkpt><trkpt lat="43.6997231" lon="12.7380995"><ele>472.99999999999994</ele><time>2026-03-08T14:28:20.947Z</time></trkpt><trkpt lat="43.6996986" lon="12.7382358"><ele>473.0</ele><time>2026-03-08T14:28:24.947Z</time></trkpt><trkpt lat="43.6996564" lon="12.7383921"><ele>473.0</ele><time>2026-03-08T14:28:26.947Z</time></trkpt><trkpt lat="43.6996302" lon="12.7384776"><ele>473.0</ele><time>2026-03-08T14:28:27.947Z</time></trkpt><trkpt lat="43.699604" lon="12.7385621"><ele>472.99999999999994</ele><time>2026-03-08T14:28:28.947Z</time></trkpt><trkpt lat="43.6995837" lon="12.7386483"><ele>473.0</ele><time>2026-03-08T14:28:29.948Z</time></trkpt><trkpt lat="43.6995553" lon="12.7387323"><ele>476.66666666666663</ele><time>2026-03-08T14:28:30.947Z</time></trkpt><trkpt lat="43.699521" lon="12.7388258"><ele>480.3333333333333</ele><time>2026-03-08T14:28:31.947Z</time></trkpt><trkpt lat="43.6994941" lon="12.738922"><ele>484.0</ele><time>2026-03-08T14:28:32.947Z</time></trkpt><trkpt lat="43.6994693" lon="12.7390209"><ele>487.66666666666663</ele><time>2026-03-08T14:28:33.947Z</time></trkpt><trkpt lat="43.6994498" lon="12.7391192"><ele>491.3333333333333</ele><time>2026-03-08T14:28:34.947Z</time></trkpt><trkpt lat="43.6994438" lon="12.7392809"><ele>495.0</ele><time>2026-03-08T14:28:36.947Z</time></trkpt><trkpt lat="43.6994657" lon="12.739373"><ele>497.2857142857142</ele><time>2026-03-08T14:28:37.948Z</time></trkpt><trkpt lat="43.6994909" lon="12.7394679"><ele>499.57142857142856</ele><time>2026-03-08T14:28:38.948Z</time></trkpt><trkpt lat="43.6995199" lon="12.739557"><ele>501.85714285714283</ele><time>2026-03-08T14:28:39.947Z</time></trkpt><trkpt lat="43.6995534" lon="12.7396377"><ele>504.1428571428571</ele><time>2026-03-08T14:28:40.947Z</time></trkpt><trkpt lat="43.699581" lon="12.7397341"><ele>506.42857142857144</ele><time>2026-03-08T14:28:41.947Z</time></trkpt><trkpt lat="43.6996149" lon="12.7398197"><ele>508.7142857142857</ele><time>2026-03-08T14:28:42.947Z</time></trkpt><trkpt lat="43.6996459" lon="12.7398995"><ele>511.0</ele><time>2026-03-08T14:28:43.947Z</time></trkpt><trkpt lat="43.6996718" lon="12.7399878"><ele>511.0</ele><time>2026-03-08T14:28:44.947Z</time></trkpt><trkpt lat="43.6996963" lon="12.7400762"><ele>511.0</ele><time>2026-03-08T14:28:45.947Z</time></trkpt><trkpt lat="43.6997319" lon="12.740168"><ele>511.0</ele><time>2026-03-08T14:28:46.946Z</time></trkpt><trkpt lat="43.6997862" lon="12.7402637"><ele>511.0</ele><time>2026-03-08T14:28:47.947Z</time></trkpt><trkpt lat="43.6998356" lon="12.7403285"><ele>511.0</ele><time>2026-03-08T14:28:48.947Z</time></trkpt><trkpt lat="43.6998945" lon="12.7403817"><ele>511.0</ele><time>2026-03-08T14:28:49.947Z</time></trkpt><trkpt lat="43.6999561" lon="12.7404344"><ele>511.0</ele><time>2026-03-08T14:28:50.948Z</time></trkpt><trkpt lat="43.7000159" lon="12.7404901"><ele>512.1666666666667</ele><time>2026-03-08T14:28:51.947Z</time></trkpt><trkpt lat="43.7000654" lon="12.7405566"><ele>513.3333333333334</ele><time>2026-03-08T14:28:52.947Z</time></trkpt><trkpt lat="43.7001186" lon="12.740615"><ele>514.5</ele><time>2026-03-08T14:28:53.947Z</time></trkpt><trkpt lat="43.7002052" lon="12.7406989"><ele>515.6666666666666</ele><time>2026-03-08T14:28:55.947Z</time></trkpt><trkpt lat="43.7002567" lon="12.7407669"><ele>516.8333333333333</ele><time>2026-03-08T14:28:57.948Z</time></trkpt><trkpt lat="43.7002955" lon="12.7408416"><ele>518.0</ele><time>2026-03-08T14:28:59.946Z</time></trkpt><trkpt lat="43.7003398" lon="12.740987"><ele>520.3333333333333</ele><time>2026-03-08T14:29:48.947Z</time></trkpt><trkpt lat="43.7003666" lon="12.7410791"><ele>522.6666666666666</ele><time>2026-03-08T14:29:49.947Z</time></trkpt><trkpt lat="43.7004006" lon="12.7411792"><ele>525.0</ele><time>2026-03-08T14:29:50.947Z</time></trkpt><trkpt lat="43.7004401" lon="12.7412887"><ele>527.3333333333334</ele><time>2026-03-08T14:29:51.947Z</time></trkpt><trkpt lat="43.7004845" lon="12.7413815"><ele>529.6666666666667</ele><time>2026-03-08T14:29:52.947Z</time></trkpt><trkpt lat="43.7005335" lon="12.7414626"><ele>532.0</ele><time>2026-03-08T14:29:53.948Z</time></trkpt><trkpt lat="43.7005984" lon="12.7415284"><ele>532.0</ele><time>2026-03-08T14:29:54.948Z</time></trkpt><trkpt lat="43.700669" lon="12.7416049"><ele>532.0</ele><time>2026-03-08T14:29:55.947Z</time></trkpt><trkpt lat="43.7007393" lon="12.7417005"><ele>532.0</ele><time>2026-03-08T14:29:56.947Z</time></trkpt><trkpt lat="43.700812" lon="12.7418085"><ele>532.0</ele><time>2026-03-08T14:29:57.948Z</time></trkpt><trkpt lat="43.7008907" lon="12.7419137"><ele>532.0</ele><time>2026-03-08T14:29:58.947Z</time></trkpt><trkpt lat="43.7009736" lon="12.7420021"><ele>532.4</ele><time>2026-03-08T14:29:59.947Z</time></trkpt><trkpt lat="43.7010524" lon="12.7420758"><ele>532.8000000000001</ele><time>2026-03-08T14:30:00.948Z</time></trkpt><trkpt lat="43.7011228" lon="12.7421392"><ele>533.2</ele><time>2026-03-08T14:30:01.948Z</time></trkpt><trkpt lat="43.7011915" lon="12.7422535"><ele>533.6</ele><time>2026-03-08T14:30:03.947Z</time></trkpt><trkpt lat="43.7011999" lon="12.7424083"><ele>534.0</ele><time>2026-03-08T14:30:05.948Z</time></trkpt><trkpt lat="43.7012904" lon="12.7425342"><ele>536.1666666666666</ele><time>2026-03-08T14:30:07.947Z</time></trkpt><trkpt lat="43.7013524" lon="12.7425977"><ele>538.3333333333334</ele><time>2026-03-08T14:30:08.947Z</time></trkpt><trkpt lat="43.7014142" lon="12.7426758"><ele>540.5</ele><time>2026-03-08T14:30:09.947Z</time></trkpt><trkpt lat="43.7014677" lon="12.7427538"><ele>542.6666666666667</ele><time>2026-03-08T14:30:10.947Z</time></trkpt><trkpt lat="43.7015391" lon="12.7428235"><ele>544.8333333333334</ele><time>2026-03-08T14:30:11.947Z</time></trkpt><trkpt lat="43.7016209" lon="12.7428837"><ele>547.0</ele><time>2026-03-08T14:30:12.946Z</time></trkpt><trkpt lat="43.7016986" lon="12.7429503"><ele>547.8333333333334</ele><time>2026-03-08T14:30:13.946Z</time></trkpt><trkpt lat="43.7017735" lon="12.7430212"><ele>548.6666666666667</ele><time>2026-03-08T14:30:14.948Z</time></trkpt><trkpt lat="43.7018291" lon="12.7431163"><ele>549.5</ele><time>2026-03-08T14:30:15.948Z</time></trkpt><trkpt lat="43.7018789" lon="12.7431852"><ele>550.3333333333334</ele><time>2026-03-08T14:30:16.947Z</time></trkpt><trkpt lat="43.7019369" lon="12.7432466"><ele>551.1666666666666</ele><time>2026-03-08T14:30:17.948Z</time></trkpt><trkpt lat="43.7019907" lon="12.7433188"><ele>552.0</ele><time>2026-03-08T14:30:18.947Z</time></trkpt><trkpt lat="43.7020363" lon="12.743409"><ele>554.3333333333334</ele><time>2026-03-08T14:30:19.947Z</time></trkpt><trkpt lat="43.702051" lon="12.7435152"><ele>556.6666666666666</ele><time>2026-03-08T14:30:20.948Z</time></trkpt><trkpt lat="43.7020684" lon="12.7436335"><ele>559.0</ele><time>2026-03-08T14:30:21.947Z</time></trkpt><trkpt lat="43.7020925" lon="12.7437537"><ele>561.3333333333333</ele><time>2026-03-08T14:30:22.947Z</time></trkpt><trkpt lat="43.702137" lon="12.7438451"><ele>563.6666666666666</ele><time>2026-03-08T14:30:23.948Z</time></trkpt><trkpt lat="43.7021812" lon="12.743928"><ele>566.0</ele><time>2026-03-08T14:30:24.948Z</time></trkpt><trkpt lat="43.7022423" lon="12.7439861"><ele>567.5</ele><time>2026-03-08T14:30:25.947Z</time></trkpt><trkpt lat="43.7023128" lon="12.7440238"><ele>569.0</ele><time>2026-03-08T14:30:26.948Z</time></trkpt><trkpt lat="43.7023953" lon="12.7440413"><ele>570.5</ele><time>2026-03-08T14:30:27.947Z</time></trkpt><trkpt lat="43.7024761" lon="12.7440472"><ele>572.0</ele><time>2026-03-08T14:30:28.948Z</time></trkpt><trkpt lat="43.7025612" lon="12.7440619"><ele>573.5</ele><time>2026-03-08T14:30:29.947Z</time></trkpt><trkpt lat="43.7026593" lon="12.7440779"><ele>575.0</ele><time>2026-03-08T14:30:30.947Z</time></trkpt><trkpt lat="43.7027438" lon="12.7440983"><ele>576.1666666666666</ele><time>2026-03-08T14:30:31.947Z</time></trkpt><trkpt lat="43.7028234" lon="12.7441299"><ele>577.3333333333333</ele><time>2026-03-08T14:30:32.947Z</time></trkpt><trkpt lat="43.7028944" lon="12.7441747"><ele>578.5</ele><time>2026-03-08T14:30:33.946Z</time></trkpt><trkpt lat="43.702963" lon="12.7442235"><ele>579.6666666666666</ele><time>2026-03-08T14:30:34.947Z</time></trkpt><trkpt lat="43.7030346" lon="12.7442711"><ele>580.8333333333334</ele><time>2026-03-08T14:30:35.948Z</time></trkpt><trkpt lat="43.7031142" lon="12.7443232"><ele>582.0</ele><time>2026-03-08T14:30:36.948Z</time></trkpt><trkpt lat="43.7031911" lon="12.7443855"><ele>582.5</ele><time>2026-03-08T14:30:37.947Z</time></trkpt><trkpt lat="43.7032682" lon="12.7444439"><ele>583.0</ele><time>2026-03-08T14:30:38.947Z</time></trkpt><trkpt lat="43.7033435" lon="12.7445072"><ele>583.5</ele><time>2026-03-08T14:30:39.948Z</time></trkpt><trkpt lat="43.703414" lon="12.7445547"><ele>584.0</ele><time>2026-03-08T14:30:40.947Z</time></trkpt><trkpt lat="43.7034859" lon="12.7445983"><ele>584.5</ele><time>2026-03-08T14:30:41.947Z</time></trkpt><trkpt lat="43.7035649" lon="12.7446474"><ele>585.0</ele><time>2026-03-08T14:30:42.946Z</time></trkpt><trkpt lat="43.7036435" lon="12.7447027"><ele>587.1428571428571</ele><time>2026-03-08T14:30:43.947Z</time></trkpt><trkpt lat="43.7037186" lon="12.7447536"><ele>589.2857142857142</ele><time>2026-03-08T14:30:44.947Z</time></trkpt><trkpt lat="43.7037885" lon="12.744804"><ele>591.4285714285713</ele><time>2026-03-08T14:30:45.946Z</time></trkpt><trkpt lat="43.7038535" lon="12.744878"><ele>593.5714285714286</ele><time>2026-03-08T14:30:46.947Z</time></trkpt><trkpt lat="43.7038933" lon="12.7449519"><ele>595.7142857142857</ele><time>2026-03-08T14:30:47.947Z</time></trkpt><trkpt lat="43.7039173" lon="12.7450369"><ele>597.8571428571428</ele><time>2026-03-08T14:30:48.947Z</time></trkpt><trkpt lat="43.7039501" lon="12.7451195"><ele>600.0</ele><time>2026-03-08T14:30:49.947Z</time></trkpt><trkpt lat="43.70399" lon="12.7451964"><ele>599.5</ele><time>2026-03-08T14:30:50.947Z</time></trkpt><trkpt lat="43.7040246" lon="12.7452916"><ele>599.0</ele><time>2026-03-08T14:30:51.946Z</time></trkpt><trkpt lat="43.7040591" lon="12.7453809"><ele>598.5</ele><time>2026-03-08T14:30:52.948Z</time></trkpt><trkpt lat="43.7041109" lon="12.7454349"><ele>598.0</ele><time>2026-03-08T14:30:53.946Z</time></trkpt><trkpt lat="43.7042357" lon="12.7454934"><ele>597.5</ele><time>2026-03-08T14:30:55.946Z</time></trkpt><trkpt lat="43.7043068" lon="12.7455317"><ele>597.0</ele><time>2026-03-08T14:30:56.946Z</time></trkpt><trkpt lat="43.7043786" lon="12.7455714"><ele>599.6666666666666</ele><time>2026-03-08T14:30:57.947Z</time></trkpt><trkpt lat="43.704436" lon="12.7456333"><ele>602.3333333333334</ele><time>2026-03-08T14:30:58.947Z</time></trkpt><trkpt lat="43.7044871" lon="12.7457122"><ele>605.0</ele><time>2026-03-08T14:30:59.947Z</time></trkpt><trkpt lat="43.7045277" lon="12.7457946"><ele>607.6666666666667</ele><time>2026-03-08T14:31:00.947Z</time></trkpt><trkpt lat="43.7045674" lon="12.7458636"><ele>610.3333333333334</ele><time>2026-03-08T14:31:01.947Z</time></trkpt><trkpt lat="43.7046366" lon="12.7459319"><ele>613.0</ele><time>2026-03-08T14:31:03.947Z</time></trkpt><trkpt lat="43.7047006" lon="12.7460165"><ele>613.5</ele><time>2026-03-08T14:34:04.947Z</time></trkpt><trkpt lat="43.7047279" lon="12.7461094"><ele>614.0</ele><time>2026-03-08T14:34:05.947Z</time></trkpt><trkpt lat="43.7047534" lon="12.7462033"><ele>614.5</ele><time>2026-03-08T14:34:06.947Z</time></trkpt><trkpt lat="43.7047731" lon="12.7463131"><ele>615.0</ele><time>2026-03-08T14:34:07.948Z</time></trkpt><trkpt lat="43.7047932" lon="12.7464271"><ele>615.5</ele><time>2026-03-08T14:34:08.948Z</time></trkpt><trkpt lat="43.7048143" lon="12.7465744"><ele>616.0</ele><time>2026-03-08T14:34:09.946Z</time></trkpt><trkpt lat="43.70483" lon="12.7467232"><ele>616.0</ele><time>2026-03-08T14:34:10.947Z</time></trkpt><trkpt lat="43.7048398" lon="12.7468745"><ele>616.0</ele><time>2026-03-08T14:34:11.946Z</time></trkpt><trkpt lat="43.7048423" lon="12.7470079"><ele>616.0</ele><time>2026-03-08T14:34:12.946Z</time></trkpt><trkpt lat="43.7048596" lon="12.7471253"><ele>616.0</ele><time>2026-03-08T14:34:13.947Z</time></trkpt><trkpt lat="43.7048784" lon="12.7472505"><ele>616.0</ele><time>2026-03-08T14:34:14.947Z</time></trkpt><trkpt lat="43.7049099" lon="12.74735"><ele>616.0</ele><time>2026-03-08T14:34:15.946Z</time></trkpt><trkpt lat="43.704954" lon="12.7474388"><ele>616.0</ele><time>2026-03-08T14:34:16.947Z</time></trkpt><trkpt lat="43.7050043" lon="12.7475194"><ele>616.0</ele><time>2026-03-08T14:34:17.947Z</time></trkpt><trkpt lat="43.7050596" lon="12.7475751"><ele>616.0</ele><time>2026-03-08T14:34:18.947Z</time></trkpt><trkpt lat="43.7051206" lon="12.7476297"><ele>616.0</ele><time>2026-03-08T14:34:19.946Z</time></trkpt><trkpt lat="43.7051794" lon="12.7476733"><ele>616.0</ele><time>2026-03-08T14:34:20.947Z</time></trkpt><trkpt lat="43.70527" lon="12.7476807"><ele>616.4</ele><time>2026-03-08T14:34:22.946Z</time></trkpt><trkpt lat="43.7053294" lon="12.747638"><ele>616.8</ele><time>2026-03-08T14:34:23.946Z</time></trkpt><trkpt lat="43.7053901" lon="12.7475857"><ele>617.1999999999999</ele><time>2026-03-08T14:34:24.947Z</time></trkpt><trkpt lat="43.7054873" lon="12.7474904"><ele>617.6</ele><time>2026-03-08T14:34:26.948Z</time></trkpt><trkpt lat="43.7056008" lon="12.7474226"><ele>618.0</ele><time>2026-03-08T14:34:28.947Z</time></trkpt><trkpt lat="43.7056721" lon="12.7474116"><ele>618.0</ele><time>2026-03-08T14:34:29.946Z</time></trkpt><trkpt lat="43.7057392" lon="12.7474132"><ele>618.0</ele><time>2026-03-08T14:34:30.948Z</time></trkpt><trkpt lat="43.705801" lon="12.7474301"><ele>618.0</ele><time>2026-03-08T14:34:31.946Z</time></trkpt><trkpt lat="43.7059096" lon="12.7474409"><ele>618.0</ele><time>2026-03-08T14:34:33.947Z</time></trkpt><trkpt lat="43.7060116" lon="12.7473889"><ele>618.0</ele><time>2026-03-08T14:34:35.948Z</time></trkpt><trkpt lat="43.7061117" lon="12.7473887"><ele>618.0</ele><time>2026-03-08T14:34:37.946Z</time></trkpt><trkpt lat="43.7061924" lon="12.7475072"><ele>617.1999999999999</ele><time>2026-03-08T14:34:39.948Z</time></trkpt><trkpt lat="43.706259" lon="12.7476193"><ele>616.4</ele><time>2026-03-08T14:34:41.947Z</time></trkpt><trkpt lat="43.7063425" lon="12.7476512"><ele>615.5999999999999</ele><time>2026-03-08T14:34:43.946Z</time></trkpt><trkpt lat="43.7064295" lon="12.7475984"><ele>614.8</ele><time>2026-03-08T14:34:45.947Z</time></trkpt><trkpt lat="43.7065286" lon="12.7475113"><ele>614.0</ele><time>2026-03-08T14:34:47.947Z</time></trkpt><trkpt lat="43.7066122" lon="12.7473879"><ele>614.0</ele><time>2026-03-08T14:34:49.947Z</time></trkpt><trkpt lat="43.7066972" lon="12.7472622"><ele>614.0</ele><time>2026-03-08T14:34:51.948Z</time></trkpt><trkpt lat="43.7067423" lon="12.7471755"><ele>614.0</ele><time>2026-03-08T14:34:52.946Z</time></trkpt><trkpt lat="43.7067833" lon="12.7470776"><ele>614.0</ele><time>2026-03-08T14:34:53.947Z</time></trkpt><trkpt lat="43.7068325" lon="12.7469684"><ele>614.0</ele><time>2026-03-08T14:34:54.948Z</time></trkpt><trkpt lat="43.7068802" lon="12.7468505"><ele>614.25</ele><time>2026-03-08T14:34:55.947Z</time></trkpt><trkpt lat="43.7069253" lon="12.7467335"><ele>614.5</ele><time>2026-03-08T14:34:56.947Z</time></trkpt><trkpt lat="43.7069964" lon="12.7465244"><ele>614.75</ele><time>2026-03-08T14:34:58.947Z</time></trkpt><trkpt lat="43.7070494" lon="12.746401"><ele>615.0</ele><time>2026-03-08T14:34:59.947Z</time></trkpt><trkpt lat="43.7071195" lon="12.7462415"><ele>615.0</ele><time>2026-03-08T14:35:00.946Z</time></trkpt><trkpt lat="43.7071975" lon="12.7461242"><ele>615.0</ele><time>2026-03-08T14:35:01.947Z</time></trkpt><trkpt lat="43.7072786" lon="12.7460205"><ele>615.0</ele><time>2026-03-08T14:35:02.947Z</time></trkpt><trkpt lat="43.7073577" lon="12.7459178"><ele>615.0</ele><time>2026-03-08T14:35:03.947Z</time></trkpt><trkpt lat="43.7074323" lon="12.7458405"><ele>615.0</ele><time>2026-03-08T14:35:04.947Z</time></trkpt><trkpt lat="43.7075046" lon="12.745773"><ele>614.5</ele><time>2026-03-08T14:35:05.947Z</time></trkpt><trkpt lat="43.7076028" lon="12.7457038"><ele>614.0</ele><time>2026-03-08T14:35:07.948Z</time></trkpt><trkpt lat="43.7076649" lon="12.7456625"><ele>613.5</ele><time>2026-03-08T14:35:08.946Z</time></trkpt><trkpt lat="43.7077355" lon="12.7456244"><ele>613.0</ele><time>2026-03-08T14:35:09.947Z</time></trkpt><trkpt lat="43.7078078" lon="12.7455961"><ele>612.5</ele><time>2026-03-08T14:35:10.948Z</time></trkpt><trkpt lat="43.7078878" lon="12.7455423"><ele>612.0</ele><time>2026-03-08T14:35:11.947Z</time></trkpt><trkpt lat="43.7079678" lon="12.745482"><ele>610.8000000000001</ele><time>2026-03-08T14:35:12.947Z</time></trkpt><trkpt lat="43.708045" lon="12.745423"><ele>609.6</ele><time>2026-03-08T14:35:13.947Z</time></trkpt><trkpt lat="43.7081475" lon="12.7453731"><ele>608.4000000000001</ele><time>2026-03-08T14:35:14.947Z</time></trkpt><trkpt lat="43.7082424" lon="12.7453182"><ele>607.2</ele><time>2026-03-08T14:35:15.947Z</time></trkpt><trkpt lat="43.7083483" lon="12.7452756"><ele>606.0</ele><time>2026-03-08T14:35:16.947Z</time></trkpt><trkpt lat="43.7084526" lon="12.7452535"><ele>606.0</ele><time>2026-03-08T14:35:17.948Z</time></trkpt><trkpt lat="43.7085543" lon="12.7452246"><ele>606.0</ele><time>2026-03-08T14:35:18.948Z</time></trkpt><trkpt lat="43.7086571" lon="12.7451879"><ele>606.0</ele><time>2026-03-08T14:35:19.947Z</time></trkpt><trkpt lat="43.7087622" lon="12.7451514"><ele>606.0</ele><time>2026-03-08T14:35:20.948Z</time></trkpt><trkpt lat="43.7088461" lon="12.7451245"><ele>606.0</ele><time>2026-03-08T14:35:21.947Z</time></trkpt><trkpt lat="43.7089388" lon="12.7450878"><ele>604.0</ele><time>2026-03-08T14:35:22.947Z</time></trkpt><trkpt lat="43.7090384" lon="12.7450602"><ele>602.0</ele><time>2026-03-08T14:35:23.947Z</time></trkpt><trkpt lat="43.7091466" lon="12.7450353"><ele>600.0</ele><time>2026-03-08T14:35:24.946Z</time></trkpt><trkpt lat="43.7092483" lon="12.7450167"><ele>598.0</ele><time>2026-03-08T14:35:25.946Z</time></trkpt><trkpt lat="43.7093519" lon="12.7449859"><ele>596.0</ele><time>2026-03-08T14:35:26.947Z</time></trkpt><trkpt lat="43.7094518" lon="12.7449486"><ele>594.8</ele><time>2026-03-08T14:35:27.946Z</time></trkpt><trkpt lat="43.7095523" lon="12.74493"><ele>593.6</ele><time>2026-03-08T14:35:28.948Z</time></trkpt><trkpt lat="43.7096557" lon="12.744893"><ele>592.4</ele><time>2026-03-08T14:35:29.948Z</time></trkpt><trkpt lat="43.7097531" lon="12.7448533"><ele>591.2</ele><time>2026-03-08T14:35:30.946Z</time></trkpt><trkpt lat="43.7098465" lon="12.7448046"><ele>590.0</ele><time>2026-03-08T14:35:31.947Z</time></trkpt><trkpt lat="43.7099419" lon="12.7447782"><ele>590.0</ele><time>2026-03-08T14:35:32.947Z</time></trkpt><trkpt lat="43.7100237" lon="12.7447247"><ele>590.0</ele><time>2026-03-08T14:35:33.948Z</time></trkpt><trkpt lat="43.7100994" lon="12.7446959"><ele>590.0</ele><time>2026-03-08T14:35:34.948Z</time></trkpt><trkpt lat="43.7101756" lon="12.7446413"><ele>590.0</ele><time>2026-03-08T14:35:35.946Z</time></trkpt><trkpt lat="43.7102405" lon="12.7445937"><ele>590.0</ele><time>2026-03-08T14:35:36.947Z</time></trkpt><trkpt lat="43.7102927" lon="12.7445398"><ele>590.0</ele><time>2026-03-08T14:35:37.947Z</time></trkpt><trkpt lat="43.7103448" lon="12.7444825"><ele>588.5</ele><time>2026-03-08T14:35:38.948Z</time></trkpt><trkpt lat="43.7103946" lon="12.7444177"><ele>587.0</ele><time>2026-03-08T14:35:39.947Z</time></trkpt><trkpt lat="43.7104771" lon="12.7443158"><ele>585.5</ele><time>2026-03-08T14:35:41.947Z</time></trkpt><trkpt lat="43.7105136" lon="12.7442191"><ele>584.0</ele><time>2026-03-08T14:35:43.947Z</time></trkpt><trkpt lat="43.7105681" lon="12.7441421"><ele>582.5</ele><time>2026-03-08T14:35:45.947Z</time></trkpt><trkpt lat="43.7105421" lon="12.7442539"><ele>581.0</ele><time>2026-03-08T14:36:41.946Z</time></trkpt><trkpt lat="43.7105084" lon="12.7443281"><ele>581.0</ele><time>2026-03-08T14:36:43.947Z</time></trkpt><trkpt lat="43.710432" lon="12.7444355"><ele>581.0</ele><time>2026-03-08T14:36:45.948Z</time></trkpt><trkpt lat="43.7103608" lon="12.744495"><ele>581.0</ele><time>2026-03-08T14:36:46.948Z</time></trkpt><trkpt lat="43.7102994" lon="12.7445522"><ele>581.0</ele><time>2026-03-08T14:36:47.947Z</time></trkpt><trkpt lat="43.7102221" lon="12.7446034"><ele>581.0</ele><time>2026-03-08T14:36:48.947Z</time></trkpt><trkpt lat="43.7101442" lon="12.7446443"><ele>581.0</ele><time>2026-03-08T14:36:49.947Z</time></trkpt><trkpt lat="43.7100653" lon="12.7446895"><ele>582.5</ele><time>2026-03-08T14:36:50.947Z</time></trkpt><trkpt lat="43.7099846" lon="12.7447374"><ele>584.0</ele><time>2026-03-08T14:36:51.948Z</time></trkpt><trkpt lat="43.7099108" lon="12.7447808"><ele>585.5</ele><time>2026-03-08T14:36:52.946Z</time></trkpt><trkpt lat="43.7098392" lon="12.7448147"><ele>587.0</ele><time>2026-03-08T14:36:53.947Z</time></trkpt><trkpt lat="43.7097739" lon="12.7448265"><ele>588.5</ele><time>2026-03-08T14:36:54.948Z</time></trkpt><trkpt lat="43.7097154" lon="12.7448815"><ele>590.0</ele><time>2026-03-08T14:37:19.947Z</time></trkpt><trkpt lat="43.7096098" lon="12.7449171"><ele>590.0</ele><time>2026-03-08T14:37:21.948Z</time></trkpt><trkpt lat="43.7095253" lon="12.7449461"><ele>590.0</ele><time>2026-03-08T14:37:22.947Z</time></trkpt><trkpt lat="43.7094454" lon="12.7449723"><ele>590.0</ele><time>2026-03-08T14:37:23.946Z</time></trkpt><trkpt lat="43.7093481" lon="12.7449953"><ele>590.0</ele><time>2026-03-08T14:37:24.948Z</time></trkpt><trkpt lat="43.7092378" lon="12.7450143"><ele>590.0</ele><time>2026-03-08T14:37:25.947Z</time></trkpt><trkpt lat="43.7091143" lon="12.7450571"><ele>591.5</ele><time>2026-03-08T14:37:26.946Z</time></trkpt><trkpt lat="43.7089901" lon="12.7450862"><ele>593.0</ele><time>2026-03-08T14:37:27.946Z</time></trkpt><trkpt lat="43.7088515" lon="12.745126"><ele>594.5</ele><time>2026-03-08T14:37:28.947Z</time></trkpt><trkpt lat="43.7087109" lon="12.7451698"><ele>596.0</ele><time>2026-03-08T14:37:29.946Z</time></trkpt><trkpt lat="43.7085762" lon="12.7452147"><ele>599.3333333333333</ele><time>2026-03-08T14:37:30.947Z</time></trkpt><trkpt lat="43.7084368" lon="12.7452655"><ele>602.6666666666666</ele><time>2026-03-08T14:37:31.948Z</time></trkpt><trkpt lat="43.7082842" lon="12.745316"><ele>606.0</ele><time>2026-03-08T14:37:32.948Z</time></trkpt><trkpt lat="43.7081384" lon="12.7453627"><ele>606.0</ele><time>2026-03-08T14:37:33.946Z</time></trkpt><trkpt lat="43.7080041" lon="12.7454406"><ele>606.0</ele><time>2026-03-08T14:37:34.947Z</time></trkpt><trkpt lat="43.7078828" lon="12.7455284"><ele>606.0</ele><time>2026-03-08T14:37:35.946Z</time></trkpt><trkpt lat="43.7077883" lon="12.7455944"><ele>606.0</ele><time>2026-03-08T14:37:36.947Z</time></trkpt><trkpt lat="43.7077161" lon="12.7456421"><ele>606.0</ele><time>2026-03-08T14:37:37.947Z</time></trkpt><trkpt lat="43.7076745" lon="12.7455715"><ele>606.0</ele><time>2026-03-08T14:37:41.947Z</time></trkpt><trkpt lat="43.7077478" lon="12.7454773"><ele>606.0</ele><time>2026-03-08T14:37:43.946Z</time></trkpt><trkpt lat="43.7078238" lon="12.7453424"><ele>606.0</ele><time>2026-03-08T14:37:45.947Z</time></trkpt><trkpt lat="43.7078545" lon="12.7452586"><ele>606.0</ele><time>2026-03-08T14:37:46.946Z</time></trkpt><trkpt lat="43.7078917" lon="12.7451822"><ele>606.0</ele><time>2026-03-08T14:37:47.946Z</time></trkpt><trkpt lat="43.7079325" lon="12.7450936"><ele>605.8333333333334</ele><time>2026-03-08T14:37:48.946Z</time></trkpt><trkpt lat="43.7079628" lon="12.7449939"><ele>605.6666666666666</ele><time>2026-03-08T14:37:49.948Z</time></trkpt><trkpt lat="43.7079984" lon="12.7448965"><ele>605.5</ele><time>2026-03-08T14:37:50.947Z</time></trkpt><trkpt lat="43.7080328" lon="12.7448129"><ele>605.3333333333333</ele><time>2026-03-08T14:37:51.947Z</time></trkpt><trkpt lat="43.7080669" lon="12.7447054"><ele>605.1666666666666</ele><time>2026-03-08T14:37:52.946Z</time></trkpt><trkpt lat="43.7080982" lon="12.7446038"><ele>605.0</ele><time>2026-03-08T14:37:53.948Z</time></trkpt><trkpt lat="43.7081353" lon="12.7444897"><ele>605.0</ele><time>2026-03-08T14:37:54.947Z</time></trkpt><trkpt lat="43.7081753" lon="12.7443847"><ele>605.0</ele><time>2026-03-08T14:37:55.946Z</time></trkpt><trkpt lat="43.7082178" lon="12.7442756"><ele>605.0</ele><time>2026-03-08T14:37:56.946Z</time></trkpt><trkpt lat="43.708263" lon="12.7441567"><ele>605.0</ele><time>2026-03-08T14:37:57.946Z</time></trkpt><trkpt lat="43.7083108" lon="12.744048"><ele>605.0</ele><time>2026-03-08T14:37:58.947Z</time></trkpt><trkpt lat="43.7083675" lon="12.7439567"><ele>605.8</ele><time>2026-03-08T14:37:59.947Z</time></trkpt><trkpt lat="43.7084293" lon="12.7438639"><ele>606.6</ele><time>2026-03-08T14:38:00.947Z</time></trkpt><trkpt lat="43.7085002" lon="12.7437776"><ele>607.4</ele><time>2026-03-08T14:38:01.947Z</time></trkpt><trkpt lat="43.7085669" lon="12.7436918"><ele>608.2</ele><time>2026-03-08T14:38:02.947Z</time></trkpt><trkpt lat="43.7086385" lon="12.7435785"><ele>609.0</ele><time>2026-03-08T14:38:03.947Z</time></trkpt><trkpt lat="43.7086816" lon="12.7434655"><ele>607.2</ele><time>2026-03-08T14:38:04.947Z</time></trkpt><trkpt lat="43.7087093" lon="12.7433364"><ele>605.4</ele><time>2026-03-08T14:38:05.947Z</time></trkpt><trkpt lat="43.7087319" lon="12.7432074"><ele>603.6</ele><time>2026-03-08T14:38:06.947Z</time></trkpt><trkpt lat="43.7087433" lon="12.7430667"><ele>601.8</ele><time>2026-03-08T14:38:07.946Z</time></trkpt><trkpt lat="43.7087396" lon="12.7429099"><ele>600.0</ele><time>2026-03-08T14:38:08.948Z</time></trkpt><trkpt lat="43.7087666" lon="12.7427475"><ele>601.5</ele><time>2026-03-08T14:38:09.948Z</time></trkpt><trkpt lat="43.7087863" lon="12.742595"><ele>603.0</ele><time>2026-03-08T14:38:10.947Z</time></trkpt><trkpt lat="43.7088249" lon="12.7424401"><ele>604.5</ele><time>2026-03-08T14:38:11.947Z</time></trkpt><trkpt lat="43.7088712" lon="12.7422906"><ele>606.0</ele><time>2026-03-08T14:38:12.947Z</time></trkpt><trkpt lat="43.7089257" lon="12.742158"><ele>606.0</ele><time>2026-03-08T14:38:13.947Z</time></trkpt><trkpt lat="43.7090084" lon="12.7420367"><ele>606.0</ele><time>2026-03-08T14:38:14.948Z</time></trkpt><trkpt lat="43.7091012" lon="12.741945"><ele>606.0</ele><time>2026-03-08T14:38:15.946Z</time></trkpt><trkpt lat="43.7092149" lon="12.7418799"><ele>606.0</ele><time>2026-03-08T14:38:16.948Z</time></trkpt><trkpt lat="43.7093282" lon="12.7418456"><ele>605.0</ele><time>2026-03-08T14:38:17.947Z</time></trkpt><trkpt lat="43.7094447" lon="12.7418296"><ele>604.0</ele><time>2026-03-08T14:38:18.947Z</time></trkpt><trkpt lat="43.7095634" lon="12.7418446"><ele>603.0</ele><time>2026-03-08T14:38:19.948Z</time></trkpt><trkpt lat="43.7096888" lon="12.7418709"><ele>602.0</ele><time>2026-03-08T14:38:20.948Z</time></trkpt><trkpt lat="43.7098057" lon="12.7419119"><ele>602.0</ele><time>2026-03-08T14:38:21.947Z</time></trkpt><trkpt lat="43.7099082" lon="12.7419879"><ele>602.0</ele><time>2026-03-08T14:38:22.947Z</time></trkpt><trkpt lat="43.7099972" lon="12.7420802"><ele>602.0</ele><time>2026-03-08T14:38:23.946Z</time></trkpt><trkpt lat="43.7100879" lon="12.742176"><ele>602.0</ele><time>2026-03-08T14:38:24.947Z</time></trkpt><trkpt lat="43.7101984" lon="12.7422262"><ele>602.75</ele><time>2026-03-08T14:38:25.948Z</time></trkpt><trkpt lat="43.7103132" lon="12.7422826"><ele>603.5</ele><time>2026-03-08T14:38:26.947Z</time></trkpt><trkpt lat="43.7104333" lon="12.742315"><ele>604.25</ele><time>2026-03-08T14:38:27.947Z</time></trkpt><trkpt lat="43.7105676" lon="12.7423555"><ele>605.0</ele><time>2026-03-08T14:38:28.947Z</time></trkpt><trkpt lat="43.7107108" lon="12.7423962"><ele>605.0</ele><time>2026-03-08T14:38:29.946Z</time></trkpt><trkpt lat="43.7108413" lon="12.7424546"><ele>605.0</ele><time>2026-03-08T14:38:30.947Z</time></trkpt><trkpt lat="43.7109535" lon="12.7424687"><ele>605.0</ele><time>2026-03-08T14:38:31.946Z</time></trkpt><trkpt lat="43.7110824" lon="12.7424972"><ele>605.0</ele><time>2026-03-08T14:38:32.946Z</time></trkpt><trkpt lat="43.7112105" lon="12.7425222"><ele>604.6</ele><time>2026-03-08T14:38:33.946Z</time></trkpt><trkpt lat="43.7113239" lon="12.7425455"><ele>604.2</ele><time>2026-03-08T14:38:34.947Z</time></trkpt><trkpt lat="43.7114234" lon="12.7425716"><ele>603.8</ele><time>2026-03-08T14:38:35.946Z</time></trkpt><trkpt lat="43.7115104" lon="12.742596"><ele>603.4</ele><time>2026-03-08T14:38:36.946Z</time></trkpt><trkpt lat="43.7115903" lon="12.7426077"><ele>603.0</ele><time>2026-03-08T14:38:37.947Z</time></trkpt><trkpt lat="43.7116911" lon="12.7425667"><ele>603.0</ele><time>2026-03-08T14:38:39.947Z</time></trkpt><trkpt lat="43.711746" lon="12.7425125"><ele>603.0</ele><time>2026-03-08T14:38:40.947Z</time></trkpt><trkpt lat="43.7118089" lon="12.7424517"><ele>603.0</ele><time>2026-03-08T14:38:41.946Z</time></trkpt><trkpt lat="43.7118847" lon="12.7423906"><ele>603.0</ele><time>2026-03-08T14:38:42.947Z</time></trkpt><trkpt lat="43.7119521" lon="12.7423207"><ele>603.0</ele><time>2026-03-08T14:38:43.948Z</time></trkpt><trkpt lat="43.7120069" lon="12.7422059"><ele>603.0</ele><time>2026-03-08T14:38:44.947Z</time></trkpt><trkpt lat="43.7120517" lon="12.7420817"><ele>601.0</ele><time>2026-03-08T14:38:45.947Z</time></trkpt><trkpt lat="43.7120836" lon="12.7419542"><ele>599.0</ele><time>2026-03-08T14:38:46.947Z</time></trkpt><trkpt lat="43.7121129" lon="12.7418243"><ele>597.0</ele><time>2026-03-08T14:38:47.946Z</time></trkpt><trkpt lat="43.712115" lon="12.7416746"><ele>595.0</ele><time>2026-03-08T14:38:48.946Z</time></trkpt><trkpt lat="43.7121184" lon="12.741548"><ele>593.0</ele><time>2026-03-08T14:38:49.948Z</time></trkpt><trkpt lat="43.7121146" lon="12.7413958"><ele>592.8</ele><time>2026-03-08T14:38:50.947Z</time></trkpt><trkpt lat="43.7121148" lon="12.7412373"><ele>592.5999999999999</ele><time>2026-03-08T14:38:51.947Z</time></trkpt><trkpt lat="43.7121139" lon="12.7410829"><ele>592.4000000000001</ele><time>2026-03-08T14:38:52.947Z</time></trkpt><trkpt lat="43.7121228" lon="12.7409365"><ele>592.2</ele><time>2026-03-08T14:38:53.947Z</time></trkpt><trkpt lat="43.7121366" lon="12.7407999"><ele>592.0</ele><time>2026-03-08T14:38:54.946Z</time></trkpt><trkpt lat="43.7121467" lon="12.7406625"><ele>591.5</ele><time>2026-03-08T14:38:55.947Z</time></trkpt><trkpt lat="43.7121542" lon="12.7405507"><ele>591.0</ele><time>2026-03-08T14:38:56.946Z</time></trkpt><trkpt lat="43.7121858" lon="12.7404646"><ele>590.5</ele><time>2026-03-08T14:38:57.947Z</time></trkpt><trkpt lat="43.712295" lon="12.7404096"><ele>590.0</ele><time>2026-03-08T14:38:59.947Z</time></trkpt><trkpt lat="43.7123509" lon="12.7404726"><ele>589.5</ele><time>2026-03-08T14:39:00.947Z</time></trkpt><trkpt lat="43.7124014" lon="12.7405454"><ele>589.0</ele><time>2026-03-08T14:39:01.947Z</time></trkpt><trkpt lat="43.7124724" lon="12.7406508"><ele>589.0</ele><time>2026-03-08T14:39:02.947Z</time></trkpt><trkpt lat="43.7125454" lon="12.7407694"><ele>589.0</ele><time>2026-03-08T14:39:03.947Z</time></trkpt><trkpt lat="43.7126108" lon="12.740918"><ele>589.0</ele><time>2026-03-08T14:39:04.947Z</time></trkpt><trkpt lat="43.712685" lon="12.7410714"><ele>589.0</ele><time>2026-03-08T14:39:05.948Z</time></trkpt><trkpt lat="43.7127579" lon="12.7412279"><ele>587.75</ele><time>2026-03-08T14:39:06.946Z</time></trkpt><trkpt lat="43.7128362" lon="12.7413901"><ele>586.5</ele><time>2026-03-08T14:39:07.946Z</time></trkpt><trkpt lat="43.7129025" lon="12.7415598"><ele>585.25</ele><time>2026-03-08T14:39:08.946Z</time></trkpt><trkpt lat="43.7129757" lon="12.7417339"><ele>584.0</ele><time>2026-03-08T14:39:09.946Z</time></trkpt><trkpt lat="43.713052" lon="12.7418953"><ele>584.0</ele><time>2026-03-08T14:39:10.947Z</time></trkpt><trkpt lat="43.7131197" lon="12.742051"><ele>584.0</ele><time>2026-03-08T14:39:11.947Z</time></trkpt><trkpt lat="43.7131811" lon="12.7421982"><ele>584.0</ele><time>2026-03-08T14:39:12.946Z</time></trkpt><trkpt lat="43.7132424" lon="12.7423459"><ele>584.0</ele><time>2026-03-08T14:39:13.947Z</time></trkpt><trkpt lat="43.7133042" lon="12.742499"><ele>584.0</ele><time>2026-03-08T14:39:14.947Z</time></trkpt><trkpt lat="43.7133615" lon="12.7426519"><ele>584.0</ele><time>2026-03-08T14:39:15.947Z</time></trkpt><trkpt lat="43.7134127" lon="12.7428151"><ele>584.0</ele><time>2026-03-08T14:39:16.946Z</time></trkpt><trkpt lat="43.7134538" lon="12.7429715"><ele>584.0</ele><time>2026-03-08T14:39:17.946Z</time></trkpt><trkpt lat="43.7135021" lon="12.7431343"><ele>584.75</ele><time>2026-03-08T14:39:18.947Z</time></trkpt><trkpt lat="43.713542" lon="12.7432976"><ele>585.5</ele><time>2026-03-08T14:39:19.946Z</time></trkpt><trkpt lat="43.7135837" lon="12.7434635"><ele>586.25</ele><time>2026-03-08T14:39:20.948Z</time></trkpt><trkpt lat="43.7136309" lon="12.7436372"><ele>587.0</ele><time>2026-03-08T14:39:21.946Z</time></trkpt><trkpt lat="43.7136766" lon="12.7438045"><ele>584.0</ele><time>2026-03-08T14:39:22.947Z</time></trkpt><trkpt lat="43.713725" lon="12.7439811"><ele>581.0</ele><time>2026-03-08T14:39:23.947Z</time></trkpt><trkpt lat="43.7137682" lon="12.7441422"><ele>578.0</ele><time>2026-03-08T14:39:24.947Z</time></trkpt><trkpt lat="43.7138128" lon="12.7443026"><ele>575.0</ele><time>2026-03-08T14:39:25.947Z</time></trkpt><trkpt lat="43.7138578" lon="12.7444667"><ele>575.0</ele><time>2026-03-08T14:39:26.946Z</time></trkpt><trkpt lat="43.7138972" lon="12.7446197"><ele>575.0</ele><time>2026-03-08T14:39:27.947Z</time></trkpt><trkpt lat="43.713941" lon="12.7447662"><ele>575.0</ele><time>2026-03-08T14:39:28.948Z</time></trkpt><trkpt lat="43.7139804" lon="12.7449229"><ele>575.0</ele><time>2026-03-08T14:39:29.948Z</time></trkpt><trkpt lat="43.7140175" lon="12.7450724"><ele>575.2</ele><time>2026-03-08T14:39:30.947Z</time></trkpt><trkpt lat="43.7140494" lon="12.745219"><ele>575.4</ele><time>2026-03-08T14:39:31.947Z</time></trkpt><trkpt lat="43.7140897" lon="12.7453656"><ele>575.6</ele><time>2026-03-08T14:39:32.947Z</time></trkpt><trkpt lat="43.7141303" lon="12.745508"><ele>575.8</ele><time>2026-03-08T14:39:33.947Z</time></trkpt><trkpt lat="43.7141703" lon="12.7456422"><ele>576.0</ele><time>2026-03-08T14:39:34.947Z</time></trkpt><trkpt lat="43.7142044" lon="12.7457696"><ele>576.0</ele><time>2026-03-08T14:39:35.947Z</time></trkpt><trkpt lat="43.714239" lon="12.7458911"><ele>576.0</ele><time>2026-03-08T14:39:36.948Z</time></trkpt><trkpt lat="43.7142713" lon="12.7460086"><ele>576.0</ele><time>2026-03-08T14:39:37.947Z</time></trkpt><trkpt lat="43.7143066" lon="12.7461136"><ele>576.0</ele><time>2026-03-08T14:39:38.947Z</time></trkpt><trkpt lat="43.7143418" lon="12.7462126"><ele>576.0</ele><time>2026-03-08T14:39:39.947Z</time></trkpt><trkpt lat="43.7143859" lon="12.7463049"><ele>576.0</ele><time>2026-03-08T14:39:40.947Z</time></trkpt><trkpt lat="43.7144353" lon="12.7463792"><ele>574.4</ele><time>2026-03-08T14:39:41.947Z</time></trkpt><trkpt lat="43.7144921" lon="12.7464438"><ele>572.8</ele><time>2026-03-08T14:39:42.947Z</time></trkpt><trkpt lat="43.7145535" lon="12.7465138"><ele>571.1999999999999</ele><time>2026-03-08T14:39:43.947Z</time></trkpt><trkpt lat="43.7146227" lon="12.7465983"><ele>569.6</ele><time>2026-03-08T14:39:44.948Z</time></trkpt><trkpt lat="43.7147018" lon="12.7466962"><ele>568.0</ele><time>2026-03-08T14:39:45.946Z</time></trkpt><trkpt lat="43.7147895" lon="12.7468015"><ele>567.25</ele><time>2026-03-08T14:39:46.947Z</time></trkpt><trkpt lat="43.71489" lon="12.7469195"><ele>566.5</ele><time>2026-03-08T14:39:47.947Z</time></trkpt><trkpt lat="43.7149915" lon="12.7470445"><ele>565.75</ele><time>2026-03-08T14:39:48.947Z</time></trkpt><trkpt lat="43.7150975" lon="12.747182"><ele>565.0</ele><time>2026-03-08T14:39:49.947Z</time></trkpt><trkpt lat="43.7152144" lon="12.7473298"><ele>563.0</ele><time>2026-03-08T14:39:50.947Z</time></trkpt><trkpt lat="43.7153284" lon="12.7474771"><ele>561.0</ele><time>2026-03-08T14:39:51.946Z</time></trkpt><trkpt lat="43.715459" lon="12.7476311"><ele>559.0</ele><time>2026-03-08T14:39:52.946Z</time></trkpt><trkpt lat="43.7155778" lon="12.7477794"><ele>558.3333333333334</ele><time>2026-03-08T14:39:53.947Z</time></trkpt><trkpt lat="43.7156972" lon="12.747927"><ele>557.6666666666666</ele><time>2026-03-08T14:39:54.947Z</time></trkpt><trkpt lat="43.7158192" lon="12.7480873"><ele>557.0</ele><time>2026-03-08T14:39:55.946Z</time></trkpt><trkpt lat="43.7159433" lon="12.7482308"><ele>557.0</ele><time>2026-03-08T14:39:56.947Z</time></trkpt><trkpt lat="43.7160549" lon="12.7483662"><ele>557.0</ele><time>2026-03-08T14:39:57.947Z</time></trkpt><trkpt lat="43.7161673" lon="12.7484984"><ele>557.0</ele><time>2026-03-08T14:39:58.947Z</time></trkpt><trkpt lat="43.7162777" lon="12.7486248"><ele>557.0</ele><time>2026-03-08T14:39:59.947Z</time></trkpt><trkpt lat="43.7163847" lon="12.7487621"><ele>556.5</ele><time>2026-03-08T14:40:00.947Z</time></trkpt><trkpt lat="43.7164862" lon="12.7488915"><ele>556.0</ele><time>2026-03-08T14:40:01.947Z</time></trkpt><trkpt lat="43.7165804" lon="12.7490164"><ele>555.5</ele><time>2026-03-08T14:40:02.947Z</time></trkpt><trkpt lat="43.7166797" lon="12.749142"><ele>555.0</ele><time>2026-03-08T14:40:03.948Z</time></trkpt><trkpt lat="43.7167734" lon="12.7492676"><ele>554.0</ele><time>2026-03-08T14:40:04.947Z</time></trkpt><trkpt lat="43.71686" lon="12.7493798"><ele>553.0</ele><time>2026-03-08T14:40:05.946Z</time></trkpt><trkpt lat="43.7169484" lon="12.7494908"><ele>552.0</ele><time>2026-03-08T14:40:06.947Z</time></trkpt><trkpt lat="43.7170351" lon="12.7495886"><ele>551.0</ele><time>2026-03-08T14:40:07.946Z</time></trkpt><trkpt lat="43.7171251" lon="12.7496601"><ele>551.0</ele><time>2026-03-08T14:40:08.948Z</time></trkpt><trkpt lat="43.7172148" lon="12.7496732"><ele>551.0</ele><time>2026-03-08T14:40:09.947Z</time></trkpt><trkpt lat="43.717291" lon="12.7496396"><ele>551.0</ele><time>2026-03-08T14:40:10.947Z</time></trkpt><trkpt lat="43.7173467" lon="12.7495472"><ele>551.0</ele><time>2026-03-08T14:40:11.948Z</time></trkpt><trkpt lat="43.7173889" lon="12.74945"><ele>551.0</ele><time>2026-03-08T14:40:12.947Z</time></trkpt><trkpt lat="43.7174143" lon="12.7493376"><ele>551.0</ele><time>2026-03-08T14:40:13.947Z</time></trkpt><trkpt lat="43.7174272" lon="12.7492397"><ele>551.0</ele><time>2026-03-08T14:40:14.947Z</time></trkpt><trkpt lat="43.7174913" lon="12.7491317"><ele>551.0</ele><time>2026-03-08T14:40:16.947Z</time></trkpt><trkpt lat="43.7176016" lon="12.7491066"><ele>551.0</ele><time>2026-03-08T14:40:18.947Z</time></trkpt><trkpt lat="43.7176757" lon="12.7491101"><ele>551.0</ele><time>2026-03-08T14:40:19.946Z</time></trkpt><trkpt lat="43.7177614" lon="12.7491375"><ele>551.0</ele><time>2026-03-08T14:40:20.947Z</time></trkpt><trkpt lat="43.7178569" lon="12.7491835"><ele>550.4</ele><time>2026-03-08T14:40:21.947Z</time></trkpt><trkpt lat="43.7179487" lon="12.7492613"><ele>549.8</ele><time>2026-03-08T14:40:22.946Z</time></trkpt><trkpt lat="43.7180344" lon="12.7493478"><ele>549.1999999999999</ele><time>2026-03-08T14:40:23.947Z</time></trkpt><trkpt lat="43.7181005" lon="12.7494254"><ele>548.6</ele><time>2026-03-08T14:40:24.947Z</time></trkpt><trkpt lat="43.7181521" lon="12.7494961"><ele>548.0</ele><time>2026-03-08T14:40:25.946Z</time></trkpt><trkpt lat="43.7182216" lon="12.7495904"><ele>548.0</ele><time>2026-03-08T14:40:27.948Z</time></trkpt><trkpt lat="43.7181831" lon="12.7494788"><ele>548.0</ele><time>2026-03-08T14:40:32.947Z</time></trkpt><trkpt lat="43.7181169" lon="12.7494152"><ele>548.0</ele><time>2026-03-08T14:40:33.946Z</time></trkpt><trkpt lat="43.7180411" lon="12.7493415"><ele>548.0</ele><time>2026-03-08T14:40:34.946Z</time></trkpt><trkpt lat="43.7179557" lon="12.749257"><ele>548.0</ele><time>2026-03-08T14:40:35.947Z</time></trkpt><trkpt lat="43.7178542" lon="12.7491726"><ele>548.0</ele><time>2026-03-08T14:40:36.947Z</time></trkpt><trkpt lat="43.7177555" lon="12.7491206"><ele>548.0</ele><time>2026-03-08T14:40:37.946Z</time></trkpt><trkpt lat="43.7176665" lon="12.7490967"><ele>548.0</ele><time>2026-03-08T14:40:38.947Z</time></trkpt><trkpt lat="43.7175946" lon="12.7490786"><ele>548.0</ele><time>2026-03-08T14:40:39.947Z</time></trkpt><trkpt lat="43.7174948" lon="12.7490798"><ele>548.0</ele><time>2026-03-08T14:40:41.946Z</time></trkpt><trkpt lat="43.7174084" lon="12.7490047"><ele>548.6</ele><time>2026-03-08T14:40:43.947Z</time></trkpt><trkpt lat="43.7174027" lon="12.7489104"><ele>549.1999999999999</ele><time>2026-03-08T14:40:44.946Z</time></trkpt><trkpt lat="43.7174002" lon="12.7487795"><ele>549.8</ele><time>2026-03-08T14:40:45.947Z</time></trkpt><trkpt lat="43.7173961" lon="12.7486254"><ele>550.4</ele><time>2026-03-08T14:40:46.947Z</time></trkpt><trkpt lat="43.7173972" lon="12.7484556"><ele>551.0</ele><time>2026-03-08T14:40:47.948Z</time></trkpt><trkpt lat="43.7173987" lon="12.7482858"><ele>551.0</ele><time>2026-03-08T14:40:48.946Z</time></trkpt><trkpt lat="43.7173995" lon="12.7481176"><ele>551.0</ele><time>2026-03-08T14:40:49.948Z</time></trkpt><trkpt lat="43.7173976" lon="12.7479503"><ele>551.0</ele><time>2026-03-08T14:40:50.948Z</time></trkpt><trkpt lat="43.7173958" lon="12.7477941"><ele>551.0</ele><time>2026-03-08T14:40:51.948Z</time></trkpt><trkpt lat="43.7173994" lon="12.7476284"><ele>549.75</ele><time>2026-03-08T14:40:52.947Z</time></trkpt><trkpt lat="43.7174113" lon="12.7474716"><ele>548.5</ele><time>2026-03-08T14:40:53.947Z</time></trkpt><trkpt lat="43.7174478" lon="12.7473159"><ele>547.25</ele><time>2026-03-08T14:40:54.948Z</time></trkpt><trkpt lat="43.7175001" lon="12.7471632"><ele>546.0</ele><time>2026-03-08T14:40:55.947Z</time></trkpt><trkpt lat="43.7175573" lon="12.7470173"><ele>546.0</ele><time>2026-03-08T14:40:56.948Z</time></trkpt><trkpt lat="43.7176129" lon="12.7468817"><ele>546.0</ele><time>2026-03-08T14:40:57.947Z</time></trkpt><trkpt lat="43.7176711" lon="12.7467672"><ele>546.0</ele><time>2026-03-08T14:40:58.948Z</time></trkpt><trkpt lat="43.7177392" lon="12.746674"><ele>546.0</ele><time>2026-03-08T14:40:59.946Z</time></trkpt><trkpt lat="43.7178252" lon="12.7466016"><ele>546.0</ele><time>2026-03-08T14:41:00.947Z</time></trkpt><trkpt lat="43.7179223" lon="12.7465641"><ele>542.5</ele><time>2026-03-08T14:41:01.947Z</time></trkpt><trkpt lat="43.7180337" lon="12.7465382"><ele>539.0</ele><time>2026-03-08T14:41:02.947Z</time></trkpt><trkpt lat="43.7181556" lon="12.7465242"><ele>535.5</ele><time>2026-03-08T14:41:03.947Z</time></trkpt><trkpt lat="43.7182799" lon="12.7465499"><ele>532.0</ele><time>2026-03-08T14:41:04.947Z</time></trkpt><trkpt lat="43.7184085" lon="12.7465926"><ele>532.0</ele><time>2026-03-08T14:41:05.947Z</time></trkpt><trkpt lat="43.7185412" lon="12.7466372"><ele>532.0</ele><time>2026-03-08T14:41:06.948Z</time></trkpt><trkpt lat="43.7186735" lon="12.7466835"><ele>532.0</ele><time>2026-03-08T14:41:07.946Z</time></trkpt><trkpt lat="43.7188007" lon="12.7467323"><ele>532.0</ele><time>2026-03-08T14:41:08.946Z</time></trkpt><trkpt lat="43.7189236" lon="12.7467841"><ele>532.0</ele><time>2026-03-08T14:41:09.947Z</time></trkpt><trkpt lat="43.7190473" lon="12.7468369"><ele>532.0</ele><time>2026-03-08T14:41:10.948Z</time></trkpt><trkpt lat="43.719163" lon="12.746902"><ele>532.0</ele><time>2026-03-08T14:41:11.946Z</time></trkpt><trkpt lat="43.719276" lon="12.7469613"><ele>532.0</ele><time>2026-03-08T14:41:12.946Z</time></trkpt><trkpt lat="43.719385" lon="12.7470254"><ele>528.0</ele><time>2026-03-08T14:41:13.946Z</time></trkpt><trkpt lat="43.7194923" lon="12.7470943"><ele>524.0</ele><time>2026-03-08T14:41:14.946Z</time></trkpt><trkpt lat="43.7195899" lon="12.7471719"><ele>520.0</ele><time>2026-03-08T14:41:15.947Z</time></trkpt><trkpt lat="43.7196655" lon="12.7472694"><ele>516.0</ele><time>2026-03-08T14:41:16.947Z</time></trkpt><trkpt lat="43.7197361" lon="12.7473932"><ele>512.0</ele><time>2026-03-08T14:41:17.946Z</time></trkpt><trkpt lat="43.7197902" lon="12.7475395"><ele>512.0</ele><time>2026-03-08T14:41:18.948Z</time></trkpt><trkpt lat="43.7198347" lon="12.7476948"><ele>512.0</ele><time>2026-03-08T14:41:19.947Z</time></trkpt><trkpt lat="43.719881" lon="12.747861"><ele>512.0</ele><time>2026-03-08T14:41:20.946Z</time></trkpt><trkpt lat="43.7199289" lon="12.7480232"><ele>512.0</ele><time>2026-03-08T14:41:21.947Z</time></trkpt><trkpt lat="43.7199786" lon="12.7481717"><ele>512.2</ele><time>2026-03-08T14:41:22.947Z</time></trkpt><trkpt lat="43.720033" lon="12.7483083"><ele>512.4000000000001</ele><time>2026-03-08T14:41:23.947Z</time></trkpt><trkpt lat="43.7200996" lon="12.7484277"><ele>512.5999999999999</ele><time>2026-03-08T14:41:24.948Z</time></trkpt><trkpt lat="43.7201807" lon="12.7485148"><ele>512.8</ele><time>2026-03-08T14:41:25.947Z</time></trkpt><trkpt lat="43.7202796" lon="12.7485798"><ele>513.0</ele><time>2026-03-08T14:41:26.947Z</time></trkpt><trkpt lat="43.7203838" lon="12.7486444"><ele>513.0</ele><time>2026-03-08T14:41:27.947Z</time></trkpt><trkpt lat="43.720495" lon="12.7487108"><ele>513.0</ele><time>2026-03-08T14:41:28.947Z</time></trkpt><trkpt lat="43.7206091" lon="12.7487693"><ele>513.0</ele><time>2026-03-08T14:41:29.946Z</time></trkpt><trkpt lat="43.720725" lon="12.7488272"><ele>513.0</ele><time>2026-03-08T14:41:30.948Z</time></trkpt><trkpt lat="43.7208435" lon="12.748884"><ele>513.0</ele><time>2026-03-08T14:41:31.947Z</time></trkpt><trkpt lat="43.7209602" lon="12.7489352"><ele>513.0</ele><time>2026-03-08T14:41:32.948Z</time></trkpt><trkpt lat="43.7210775" lon="12.7489845"><ele>513.0</ele><time>2026-03-08T14:41:33.946Z</time></trkpt><trkpt lat="43.721193" lon="12.7490298"><ele>513.0</ele><time>2026-03-08T14:41:34.946Z</time></trkpt><trkpt lat="43.721305" lon="12.7490852"><ele>511.4</ele><time>2026-03-08T14:41:35.947Z</time></trkpt><trkpt lat="43.7214202" lon="12.7491335"><ele>509.79999999999995</ele><time>2026-03-08T14:41:36.947Z</time></trkpt><trkpt lat="43.7215311" lon="12.7491744"><ele>508.2</ele><time>2026-03-08T14:41:37.946Z</time></trkpt><trkpt lat="43.7216334" lon="12.7492169"><ele>506.6</ele><time>2026-03-08T14:41:38.946Z</time></trkpt><trkpt lat="43.7217308" lon="12.7492742"><ele>505.0</ele><time>2026-03-08T14:41:39.946Z</time></trkpt><trkpt lat="43.7218248" lon="12.7493496"><ele>506.6</ele><time>2026-03-08T14:41:40.946Z</time></trkpt><trkpt lat="43.7219105" lon="12.749435"><ele>508.2</ele><time>2026-03-08T14:41:41.947Z</time></trkpt><trkpt lat="43.7219944" lon="12.7495198"><ele>509.79999999999995</ele><time>2026-03-08T14:41:42.947Z</time></trkpt><trkpt lat="43.7220817" lon="12.7495819"><ele>511.4</ele><time>2026-03-08T14:41:43.947Z</time></trkpt><trkpt lat="43.7221651" lon="12.749635"><ele>513.0</ele><time>2026-03-08T14:41:44.946Z</time></trkpt><trkpt lat="43.7222341" lon="12.7495969"><ele>513.0</ele><time>2026-03-08T14:41:45.948Z</time></trkpt><trkpt lat="43.7222854" lon="12.7495214"><ele>513.0</ele><time>2026-03-08T14:41:46.947Z</time></trkpt><trkpt lat="43.7223067" lon="12.7494134"><ele>513.0</ele><time>2026-03-08T14:41:47.948Z</time></trkpt><trkpt lat="43.7222841" lon="12.7493063"><ele>513.0</ele><time>2026-03-08T14:41:48.947Z</time></trkpt><trkpt lat="43.7222398" lon="12.7492223"><ele>513.0</ele><time>2026-03-08T14:41:49.947Z</time></trkpt><trkpt lat="43.7221685" lon="12.7491283"><ele>513.0</ele><time>2026-03-08T14:41:50.947Z</time></trkpt><trkpt lat="43.722088" lon="12.7490434"><ele>511.0</ele><time>2026-03-08T14:41:51.946Z</time></trkpt><trkpt lat="43.7219972" lon="12.7489385"><ele>509.0</ele><time>2026-03-08T14:41:52.947Z</time></trkpt><trkpt lat="43.7219007" lon="12.748819"><ele>507.0</ele><time>2026-03-08T14:41:53.948Z</time></trkpt><trkpt lat="43.7218153" lon="12.7486964"><ele>505.0</ele><time>2026-03-08T14:41:54.947Z</time></trkpt><trkpt lat="43.7217281" lon="12.7485683"><ele>501.8</ele><time>2026-03-08T14:41:55.946Z</time></trkpt><trkpt lat="43.721642" lon="12.7484332"><ele>498.6</ele><time>2026-03-08T14:41:56.947Z</time></trkpt><trkpt lat="43.7215655" lon="12.7483093"><ele>495.4</ele><time>2026-03-08T14:41:57.947Z</time></trkpt><trkpt lat="43.7214972" lon="12.7481971"><ele>492.2</ele><time>2026-03-08T14:41:58.947Z</time></trkpt><trkpt lat="43.7214403" lon="12.7480969"><ele>489.0</ele><time>2026-03-08T14:41:59.947Z</time></trkpt><trkpt lat="43.7214068" lon="12.7479995"><ele>489.0</ele><time>2026-03-08T14:42:00.948Z</time></trkpt><trkpt lat="43.7213912" lon="12.7479006"><ele>489.0</ele><time>2026-03-08T14:42:01.946Z</time></trkpt><trkpt lat="43.7214252" lon="12.7478095"><ele>489.0</ele><time>2026-03-08T14:42:02.947Z</time></trkpt><trkpt lat="43.7214883" lon="12.7477698"><ele>489.0</ele><time>2026-03-08T14:42:03.947Z</time></trkpt><trkpt lat="43.7215661" lon="12.7477869"><ele>489.0</ele><time>2026-03-08T14:42:04.947Z</time></trkpt><trkpt lat="43.7216466" lon="12.7478634"><ele>489.0</ele><time>2026-03-08T14:42:05.947Z</time></trkpt><trkpt lat="43.7217241" lon="12.7479699"><ele>489.0</ele><time>2026-03-08T14:42:06.946Z</time></trkpt><trkpt lat="43.7218162" lon="12.748087"><ele>489.0</ele><time>2026-03-08T14:42:07.947Z</time></trkpt><trkpt lat="43.7219302" lon="12.7481882"><ele>489.0</ele><time>2026-03-08T14:42:08.947Z</time></trkpt><trkpt lat="43.7220633" lon="12.7482607"><ele>489.0</ele><time>2026-03-08T14:42:09.946Z</time></trkpt><trkpt lat="43.7222076" lon="12.7483217"><ele>485.33333333333337</ele><time>2026-03-08T14:42:10.947Z</time></trkpt><trkpt lat="43.7223569" lon="12.7483731"><ele>481.6666666666667</ele><time>2026-03-08T14:42:11.948Z</time></trkpt><trkpt lat="43.7225092" lon="12.7484233"><ele>478.0</ele><time>2026-03-08T14:42:12.946Z</time></trkpt><trkpt lat="43.7226656" lon="12.7484832"><ele>475.33333333333337</ele><time>2026-03-08T14:42:13.946Z</time></trkpt><trkpt lat="43.7228143" lon="12.7485396"><ele>472.66666666666663</ele><time>2026-03-08T14:42:14.947Z</time></trkpt><trkpt lat="43.7229625" lon="12.7485909"><ele>470.0</ele><time>2026-03-08T14:42:15.947Z</time></trkpt><trkpt lat="43.7231079" lon="12.7486327"><ele>478.3333333333333</ele><time>2026-03-08T14:42:16.947Z</time></trkpt><trkpt lat="43.7232556" lon="12.7486745"><ele>486.66666666666663</ele><time>2026-03-08T14:42:17.946Z</time></trkpt><trkpt lat="43.7234074" lon="12.7486421"><ele>495.0</ele><time>2026-03-08T14:42:18.948Z</time></trkpt><trkpt lat="43.7235521" lon="12.7486041"><ele>496.0</ele><time>2026-03-08T14:42:19.947Z</time></trkpt><trkpt lat="43.7236923" lon="12.748547"><ele>497.0</ele><time>2026-03-08T14:42:20.947Z</time></trkpt><trkpt lat="43.7238273" lon="12.7484818"><ele>498.0</ele><time>2026-03-08T14:42:21.947Z</time></trkpt><trkpt lat="43.7239593" lon="12.7483964"><ele>499.0</ele><time>2026-03-08T14:42:22.947Z</time></trkpt><trkpt lat="43.7240924" lon="12.7482969"><ele>494.25</ele><time>2026-03-08T14:42:23.947Z</time></trkpt><trkpt lat="43.7242204" lon="12.7482103"><ele>489.5</ele><time>2026-03-08T14:42:24.947Z</time></trkpt><trkpt lat="43.7243651" lon="12.7481517"><ele>484.75</ele><time>2026-03-08T14:42:25.947Z</time></trkpt><trkpt lat="43.7245061" lon="12.7480939"><ele>480.0</ele><time>2026-03-08T14:42:26.946Z</time></trkpt><trkpt lat="43.7246513" lon="12.74804"><ele>480.0</ele><time>2026-03-08T14:42:27.947Z</time></trkpt><trkpt lat="43.7248004" lon="12.7479962"><ele>480.0</ele><time>2026-03-08T14:42:28.946Z</time></trkpt><trkpt lat="43.7249526" lon="12.7479474"><ele>480.0</ele><time>2026-03-08T14:42:29.946Z</time></trkpt><trkpt lat="43.7251094" lon="12.7479036"><ele>477.0</ele><time>2026-03-08T14:42:30.946Z</time></trkpt><trkpt lat="43.7252671" lon="12.7478541"><ele>474.0</ele><time>2026-03-08T14:42:31.948Z</time></trkpt><trkpt lat="43.7254228" lon="12.7478107"><ele>471.0</ele><time>2026-03-08T14:42:32.949Z</time></trkpt><trkpt lat="43.725573" lon="12.7477649"><ele>471.0</ele><time>2026-03-08T14:42:33.947Z</time></trkpt><trkpt lat="43.7257237" lon="12.7477228"><ele>471.0</ele><time>2026-03-08T14:42:34.948Z</time></trkpt><trkpt lat="43.7258572" lon="12.7476724"><ele>471.0</ele><time>2026-03-08T14:42:35.946Z</time></trkpt><trkpt lat="43.7259806" lon="12.7476236"><ele>471.0</ele><time>2026-03-08T14:42:36.946Z</time></trkpt><trkpt lat="43.7260915" lon="12.747597"><ele>468.1666666666667</ele><time>2026-03-08T14:42:37.947Z</time></trkpt><trkpt lat="43.7261743" lon="12.7476004"><ele>465.33333333333337</ele><time>2026-03-08T14:42:38.948Z</time></trkpt><trkpt lat="43.7262385" lon="12.747662"><ele>462.5</ele><time>2026-03-08T14:42:39.948Z</time></trkpt><trkpt lat="43.7262664" lon="12.747765"><ele>459.6666666666667</ele><time>2026-03-08T14:42:40.948Z</time></trkpt><trkpt lat="43.7262655" lon="12.7478868"><ele>456.83333333333337</ele><time>2026-03-08T14:42:41.946Z</time></trkpt><trkpt lat="43.7262651" lon="12.7480284"><ele>454.0</ele><time>2026-03-08T14:42:42.946Z</time></trkpt><trkpt lat="43.7262878" lon="12.7481707"><ele>454.0</ele><time>2026-03-08T14:42:43.946Z</time></trkpt><trkpt lat="43.7263453" lon="12.7482658"><ele>454.0</ele><time>2026-03-08T14:42:44.946Z</time></trkpt><trkpt lat="43.7264267" lon="12.7483211"><ele>454.0</ele><time>2026-03-08T14:42:45.948Z</time></trkpt><trkpt lat="43.7265331" lon="12.7483285"><ele>454.0</ele><time>2026-03-08T14:42:46.947Z</time></trkpt><trkpt lat="43.7266505" lon="12.748307"><ele>454.0</ele><time>2026-03-08T14:42:47.947Z</time></trkpt><trkpt lat="43.7267789" lon="12.7482596"><ele>450.5</ele><time>2026-03-08T14:42:48.947Z</time></trkpt><trkpt lat="43.7269086" lon="12.7481915"><ele>447.0</ele><time>2026-03-08T14:42:49.946Z</time></trkpt><trkpt lat="43.7270322" lon="12.7480879"><ele>443.5</ele><time>2026-03-08T14:42:50.946Z</time></trkpt><trkpt lat="43.7271506" lon="12.7479787"><ele>440.0</ele><time>2026-03-08T14:42:51.946Z</time></trkpt><trkpt lat="43.7272661" lon="12.747877"><ele>440.0</ele><time>2026-03-08T14:42:52.947Z</time></trkpt><trkpt lat="43.7273631" lon="12.7477872"><ele>440.0</ele><time>2026-03-08T14:42:53.946Z</time></trkpt><trkpt lat="43.7274519" lon="12.7477289"><ele>440.0</ele><time>2026-03-08T14:42:54.946Z</time></trkpt><trkpt lat="43.7275402" lon="12.7477294"><ele>440.0</ele><time>2026-03-08T14:42:55.947Z</time></trkpt><trkpt lat="43.7276082" lon="12.7477965"><ele>440.0</ele><time>2026-03-08T14:42:56.946Z</time></trkpt><trkpt lat="43.7276446" lon="12.7479064"><ele>440.0</ele><time>2026-03-08T14:42:57.946Z</time></trkpt><trkpt lat="43.7276462" lon="12.7480484"><ele>440.0</ele><time>2026-03-08T14:42:58.947Z</time></trkpt><trkpt lat="43.7276207" lon="12.7481978"><ele>440.0</ele><time>2026-03-08T14:42:59.946Z</time></trkpt><trkpt lat="43.7275859" lon="12.7483606"><ele>440.0</ele><time>2026-03-08T14:43:00.947Z</time></trkpt><trkpt lat="43.7275542" lon="12.7485289"><ele>439.5</ele><time>2026-03-08T14:43:01.946Z</time></trkpt><trkpt lat="43.7275737" lon="12.74871"><ele>439.0</ele><time>2026-03-08T14:43:02.946Z</time></trkpt><trkpt lat="43.7275824" lon="12.7488878"><ele>438.5</ele><time>2026-03-08T14:43:03.947Z</time></trkpt><trkpt lat="43.7275732" lon="12.7490692"><ele>438.0</ele><time>2026-03-08T14:43:04.947Z</time></trkpt><trkpt lat="43.7275425" lon="12.7492497"><ele>436.0</ele><time>2026-03-08T14:43:05.946Z</time></trkpt><trkpt lat="43.727504" lon="12.7494363"><ele>434.0</ele><time>2026-03-08T14:43:06.947Z</time></trkpt><trkpt lat="43.7274637" lon="12.7496182"><ele>432.0</ele><time>2026-03-08T14:43:07.946Z</time></trkpt><trkpt lat="43.7274173" lon="12.74979"><ele>430.0</ele><time>2026-03-08T14:43:08.946Z</time></trkpt><trkpt lat="43.7273759" lon="12.7499538"><ele>430.0</ele><time>2026-03-08T14:43:09.947Z</time></trkpt><trkpt lat="43.7273392" lon="12.7501024"><ele>430.0</ele><time>2026-03-08T14:43:10.947Z</time></trkpt><trkpt lat="43.7273139" lon="12.7502692"><ele>430.0</ele><time>2026-03-08T14:43:11.947Z</time></trkpt><trkpt lat="43.7273151" lon="12.7504227"><ele>430.0</ele><time>2026-03-08T14:43:12.946Z</time></trkpt><trkpt lat="43.7273429" lon="12.7505677"><ele>430.8</ele><time>2026-03-08T14:43:13.948Z</time></trkpt><trkpt lat="43.7273914" lon="12.7506704"><ele>431.6</ele><time>2026-03-08T14:43:14.946Z</time></trkpt><trkpt lat="43.7274558" lon="12.7507485"><ele>432.4</ele><time>2026-03-08T14:43:15.946Z</time></trkpt><trkpt lat="43.727557" lon="12.750778"><ele>433.2</ele><time>2026-03-08T14:43:16.947Z</time></trkpt><trkpt lat="43.7276523" lon="12.7508264"><ele>434.0</ele><time>2026-03-08T14:43:17.947Z</time></trkpt><trkpt lat="43.7277551" lon="12.7508906"><ele>428.75</ele><time>2026-03-08T14:43:18.947Z</time></trkpt><trkpt lat="43.7278598" lon="12.7509797"><ele>423.5</ele><time>2026-03-08T14:43:19.947Z</time></trkpt><trkpt lat="43.7279549" lon="12.7510823"><ele>418.25</ele><time>2026-03-08T14:43:20.946Z</time></trkpt><trkpt lat="43.7280458" lon="12.7512005"><ele>413.0</ele><time>2026-03-08T14:43:21.946Z</time></trkpt><trkpt lat="43.728126" lon="12.7513326"><ele>413.0</ele><time>2026-03-08T14:43:22.947Z</time></trkpt><trkpt lat="43.7281737" lon="12.7514736"><ele>413.0</ele><time>2026-03-08T14:43:23.947Z</time></trkpt><trkpt lat="43.7282067" lon="12.7516279"><ele>413.0</ele><time>2026-03-08T14:43:24.946Z</time></trkpt><trkpt lat="43.728221" lon="12.7517858"><ele>413.0</ele><time>2026-03-08T14:43:25.946Z</time></trkpt><trkpt lat="43.7282291" lon="12.7519545"><ele>413.75</ele><time>2026-03-08T14:43:26.947Z</time></trkpt><trkpt lat="43.7282351" lon="12.7521225"><ele>414.5</ele><time>2026-03-08T14:43:27.946Z</time></trkpt><trkpt lat="43.7282487" lon="12.7522786"><ele>415.25</ele><time>2026-03-08T14:43:28.946Z</time></trkpt><trkpt lat="43.7282793" lon="12.7524194"><ele>416.0</ele><time>2026-03-08T14:43:29.946Z</time></trkpt><trkpt lat="43.7283434" lon="12.7525404"><ele>416.0</ele><time>2026-03-08T14:43:30.947Z</time></trkpt><trkpt lat="43.7284295" lon="12.7526314"><ele>416.0</ele><time>2026-03-08T14:43:31.946Z</time></trkpt><trkpt lat="43.7285268" lon="12.7526989"><ele>416.0</ele><time>2026-03-08T14:43:32.946Z</time></trkpt><trkpt lat="43.7286532" lon="12.7527621"><ele>416.0</ele><time>2026-03-08T14:43:33.947Z</time></trkpt><trkpt lat="43.7287702" lon="12.7528159"><ele>412.0</ele><time>2026-03-08T14:43:34.947Z</time></trkpt><trkpt lat="43.7288916" lon="12.7528684"><ele>408.0</ele><time>2026-03-08T14:43:35.947Z</time></trkpt><trkpt lat="43.7290079" lon="12.7529488"><ele>404.0</ele><time>2026-03-08T14:43:36.946Z</time></trkpt><trkpt lat="43.7291101" lon="12.753059"><ele>400.0</ele><time>2026-03-08T14:43:37.947Z</time></trkpt><trkpt lat="43.7292106" lon="12.7531768"><ele>400.0</ele><time>2026-03-08T14:43:38.946Z</time></trkpt><trkpt lat="43.7293144" lon="12.7532959"><ele>400.0</ele><time>2026-03-08T14:43:39.947Z</time></trkpt><trkpt lat="43.7294159" lon="12.7534238"><ele>400.0</ele><time>2026-03-08T14:43:40.946Z</time></trkpt><trkpt lat="43.7295104" lon="12.7535567"><ele>400.0</ele><time>2026-03-08T14:43:41.948Z</time></trkpt><trkpt lat="43.7296002" lon="12.7537108"><ele>397.0</ele><time>2026-03-08T14:43:42.947Z</time></trkpt><trkpt lat="43.7296892" lon="12.753859"><ele>394.0</ele><time>2026-03-08T14:43:43.947Z</time></trkpt><trkpt lat="43.7297806" lon="12.7540108"><ele>391.0</ele><time>2026-03-08T14:43:44.946Z</time></trkpt><trkpt lat="43.7298724" lon="12.7541514"><ele>388.0</ele><time>2026-03-08T14:43:45.946Z</time></trkpt><trkpt lat="43.7299685" lon="12.7542983"><ele>386.5</ele><time>2026-03-08T14:43:46.946Z</time></trkpt><trkpt lat="43.7300726" lon="12.7544419"><ele>385.0</ele><time>2026-03-08T14:43:47.946Z</time></trkpt><trkpt lat="43.730181" lon="12.7545784"><ele>383.5</ele><time>2026-03-08T14:43:48.948Z</time></trkpt><trkpt lat="43.7302892" lon="12.7547165"><ele>382.0</ele><time>2026-03-08T14:43:49.946Z</time></trkpt><trkpt lat="43.7303796" lon="12.7548698"><ele>381.25</ele><time>2026-03-08T14:43:50.947Z</time></trkpt><trkpt lat="43.7304677" lon="12.755027"><ele>380.5</ele><time>2026-03-08T14:43:51.946Z</time></trkpt><trkpt lat="43.7305531" lon="12.7551971"><ele>379.75</ele><time>2026-03-08T14:43:52.948Z</time></trkpt><trkpt lat="43.7306375" lon="12.755365"><ele>379.0</ele><time>2026-03-08T14:43:53.947Z</time></trkpt><trkpt lat="43.73073" lon="12.7555114"><ele>379.0</ele><time>2026-03-08T14:43:54.947Z</time></trkpt><trkpt lat="43.7308342" lon="12.7556486"><ele>379.0</ele><time>2026-03-08T14:43:55.946Z</time></trkpt><trkpt lat="43.730955" lon="12.7557461"><ele>379.0</ele><time>2026-03-08T14:43:56.947Z</time></trkpt><trkpt lat="43.7310811" lon="12.7558349"><ele>379.0</ele><time>2026-03-08T14:43:57.946Z</time></trkpt><trkpt lat="43.7312047" lon="12.7559421"><ele>378.0</ele><time>2026-03-08T14:43:58.947Z</time></trkpt><trkpt lat="43.7313015" lon="12.7560794"><ele>377.0</ele><time>2026-03-08T14:43:59.947Z</time></trkpt><trkpt lat="43.7313806" lon="12.7562285"><ele>376.0</ele><time>2026-03-08T14:44:00.947Z</time></trkpt><trkpt lat="43.7314606" lon="12.7563883"><ele>375.0</ele><time>2026-03-08T14:44:01.947Z</time></trkpt><trkpt lat="43.7315379" lon="12.7565302"><ele>375.0</ele><time>2026-03-08T14:44:02.947Z</time></trkpt><trkpt lat="43.7316316" lon="12.7566365"><ele>375.0</ele><time>2026-03-08T14:44:03.946Z</time></trkpt><trkpt lat="43.7317477" lon="12.7567179"><ele>375.0</ele><time>2026-03-08T14:44:04.948Z</time></trkpt><trkpt lat="43.7318746" lon="12.75674"><ele>375.0</ele><time>2026-03-08T14:44:05.946Z</time></trkpt><trkpt lat="43.7320087" lon="12.7567266"><ele>374.25</ele><time>2026-03-08T14:44:06.946Z</time></trkpt><trkpt lat="43.7321474" lon="12.7566526"><ele>373.5</ele><time>2026-03-08T14:44:07.946Z</time></trkpt><trkpt lat="43.732281" lon="12.7565937"><ele>372.75</ele><time>2026-03-08T14:44:08.946Z</time></trkpt><trkpt lat="43.7324024" lon="12.7565532"><ele>372.0</ele><time>2026-03-08T14:44:09.947Z</time></trkpt><trkpt lat="43.7325142" lon="12.7565465"><ele>372.0</ele><time>2026-03-08T14:44:10.948Z</time></trkpt><trkpt lat="43.7326205" lon="12.7565391"><ele>372.0</ele><time>2026-03-08T14:44:11.948Z</time></trkpt><trkpt lat="43.7327036" lon="12.7564999"><ele>372.0</ele><time>2026-03-08T14:44:12.946Z</time></trkpt><trkpt lat="43.7327642" lon="12.7564559"><ele>372.0</ele><time>2026-03-08T14:44:13.947Z</time></trkpt><trkpt lat="43.7327538" lon="12.7563466"><ele>372.0</ele><time>2026-03-08T14:44:14.947Z</time></trkpt><trkpt lat="43.7327292" lon="12.7562475"><ele>372.0</ele><time>2026-03-08T14:44:15.946Z</time></trkpt><trkpt lat="43.7326728" lon="12.7561849"><ele>372.0</ele><time>2026-03-08T14:44:16.947Z</time></trkpt><trkpt lat="43.7325961" lon="12.7561894"><ele>372.0</ele><time>2026-03-08T14:44:17.947Z</time></trkpt><trkpt lat="43.7325009" lon="12.7562331"><ele>372.0</ele><time>2026-03-08T14:44:18.948Z</time></trkpt><trkpt lat="43.7323848" lon="12.7562807"><ele>372.0</ele><time>2026-03-08T14:44:19.947Z</time></trkpt><trkpt lat="43.7322669" lon="12.7563278"><ele>372.0</ele><time>2026-03-08T14:44:20.948Z</time></trkpt><trkpt lat="43.7321473" lon="12.7563886"><ele>372.0</ele><time>2026-03-08T14:44:21.947Z</time></trkpt><trkpt lat="43.7320398" lon="12.756432"><ele>372.0</ele><time>2026-03-08T14:44:22.946Z</time></trkpt><trkpt lat="43.7319502" lon="12.7564583"><ele>372.0</ele><time>2026-03-08T14:44:23.948Z</time></trkpt><trkpt lat="43.7318677" lon="12.756446"><ele>372.0</ele><time>2026-03-08T14:44:24.947Z</time></trkpt><trkpt lat="43.731814" lon="12.7563745"><ele>372.0</ele><time>2026-03-08T14:44:25.947Z</time></trkpt><trkpt lat="43.7318028" lon="12.7562823"><ele>372.0</ele><time>2026-03-08T14:44:26.946Z</time></trkpt><trkpt lat="43.7318393" lon="12.7562003"><ele>372.0</ele><time>2026-03-08T14:44:27.946Z</time></trkpt><trkpt lat="43.7319147" lon="12.7561488"><ele>372.0</ele><time>2026-03-08T14:44:28.947Z</time></trkpt><trkpt lat="43.7320228" lon="12.7561237"><ele>372.0</ele><time>2026-03-08T14:44:29.946Z</time></trkpt><trkpt lat="43.7321426" lon="12.7560973"><ele>372.0</ele><time>2026-03-08T14:44:30.946Z</time></trkpt><trkpt lat="43.7322744" lon="12.7560408"><ele>368.3333333333333</ele><time>2026-03-08T14:44:31.946Z</time></trkpt><trkpt lat="43.7324204" lon="12.7559639"><ele>364.66666666666663</ele><time>2026-03-08T14:44:32.948Z</time></trkpt><trkpt lat="43.7325697" lon="12.7558969"><ele>361.0</ele><time>2026-03-08T14:44:33.947Z</time></trkpt><trkpt lat="43.7327195" lon="12.7558443"><ele>360.25</ele><time>2026-03-08T14:44:34.947Z</time></trkpt><trkpt lat="43.732869" lon="12.755834"><ele>359.5</ele><time>2026-03-08T14:44:35.947Z</time></trkpt><trkpt lat="43.7330093" lon="12.7558475"><ele>358.75</ele><time>2026-03-08T14:44:36.947Z</time></trkpt><trkpt lat="43.7331441" lon="12.7558786"><ele>358.0</ele><time>2026-03-08T14:44:37.947Z</time></trkpt><trkpt lat="43.7332736" lon="12.7559209"><ele>358.0</ele><time>2026-03-08T14:44:38.946Z</time></trkpt><trkpt lat="43.7333934" lon="12.7559535"><ele>358.0</ele><time>2026-03-08T14:44:39.947Z</time></trkpt><trkpt lat="43.7335046" lon="12.7559851"><ele>358.0</ele><time>2026-03-08T14:44:40.946Z</time></trkpt><trkpt lat="43.7336277" lon="12.7559766"><ele>358.0</ele><time>2026-03-08T14:44:42.947Z</time></trkpt><trkpt lat="43.7337139" lon="12.7559374"><ele>356.2</ele><time>2026-03-08T14:44:43.948Z</time></trkpt><trkpt lat="43.7337952" lon="12.7558883"><ele>354.4</ele><time>2026-03-08T14:44:44.946Z</time></trkpt><trkpt lat="43.7338745" lon="12.7558082"><ele>352.59999999999997</ele><time>2026-03-08T14:44:45.947Z</time></trkpt><trkpt lat="43.7339622" lon="12.7557252"><ele>350.79999999999995</ele><time>2026-03-08T14:44:46.948Z</time></trkpt><trkpt lat="43.7340656" lon="12.7556387"><ele>349.0</ele><time>2026-03-08T14:44:47.947Z</time></trkpt><trkpt lat="43.734178" lon="12.7555489"><ele>349.0</ele><time>2026-03-08T14:44:48.948Z</time></trkpt><trkpt lat="43.7342913" lon="12.7554435"><ele>349.0</ele><time>2026-03-08T14:44:49.947Z</time></trkpt><trkpt lat="43.7344086" lon="12.7553499"><ele>349.0</ele><time>2026-03-08T14:44:50.946Z</time></trkpt><trkpt lat="43.7345111" lon="12.7552604"><ele>349.0</ele><time>2026-03-08T14:44:51.947Z</time></trkpt><trkpt lat="43.7346243" lon="12.7551613"><ele>348.75</ele><time>2026-03-08T14:44:52.946Z</time></trkpt><trkpt lat="43.7347419" lon="12.7550699"><ele>348.5</ele><time>2026-03-08T14:44:53.947Z</time></trkpt><trkpt lat="43.7348766" lon="12.7549876"><ele>348.25</ele><time>2026-03-08T14:44:54.946Z</time></trkpt><trkpt lat="43.7350071" lon="12.7549082"><ele>348.0</ele><time>2026-03-08T14:44:55.947Z</time></trkpt><trkpt lat="43.7351471" lon="12.7548531"><ele>344.0</ele><time>2026-03-08T14:44:56.946Z</time></trkpt><trkpt lat="43.7352922" lon="12.7548058"><ele>340.0</ele><time>2026-03-08T14:44:57.948Z</time></trkpt><trkpt lat="43.7354349" lon="12.7547554"><ele>336.0</ele><time>2026-03-08T14:44:58.947Z</time></trkpt><trkpt lat="43.735578" lon="12.7547018"><ele>332.0</ele><time>2026-03-08T14:44:59.946Z</time></trkpt><trkpt lat="43.735713" lon="12.7546447"><ele>332.0</ele><time>2026-03-08T14:45:00.947Z</time></trkpt><trkpt lat="43.7358479" lon="12.7545749"><ele>332.0</ele><time>2026-03-08T14:45:01.947Z</time></trkpt><trkpt lat="43.7359678" lon="12.7544811"><ele>332.0</ele><time>2026-03-08T14:45:02.947Z</time></trkpt><trkpt lat="43.7360864" lon="12.7543758"><ele>332.0</ele><time>2026-03-08T14:45:03.946Z</time></trkpt><trkpt lat="43.7361927" lon="12.7542567"><ele>331.25</ele><time>2026-03-08T14:45:04.946Z</time></trkpt><trkpt lat="43.7363093" lon="12.7541629"><ele>330.5</ele><time>2026-03-08T14:45:05.946Z</time></trkpt><trkpt lat="43.7364399" lon="12.7540826"><ele>329.75</ele><time>2026-03-08T14:45:06.946Z</time></trkpt><trkpt lat="43.7365908" lon="12.7540248"><ele>329.0</ele><time>2026-03-08T14:45:07.946Z</time></trkpt><trkpt lat="43.736743" lon="12.7539849"><ele>325.0</ele><time>2026-03-08T14:45:08.947Z</time></trkpt><trkpt lat="43.7369102" lon="12.753968"><ele>321.0</ele><time>2026-03-08T14:45:09.947Z</time></trkpt><trkpt lat="43.7370707" lon="12.7539312"><ele>317.0</ele><time>2026-03-08T14:45:10.947Z</time></trkpt><trkpt lat="43.7372427" lon="12.7538953"><ele>317.0</ele><time>2026-03-08T14:45:11.947Z</time></trkpt><trkpt lat="43.7374063" lon="12.7538509"><ele>317.0</ele><time>2026-03-08T14:45:12.947Z</time></trkpt><trkpt lat="43.7375738" lon="12.7538158"><ele>317.0</ele><time>2026-03-08T14:45:13.948Z</time></trkpt><trkpt lat="43.737729" lon="12.7537715"><ele>315.33333333333337</ele><time>2026-03-08T14:45:14.946Z</time></trkpt><trkpt lat="43.7378934" lon="12.7537374"><ele>313.6666666666667</ele><time>2026-03-08T14:45:15.946Z</time></trkpt><trkpt lat="43.738049" lon="12.7536981"><ele>312.0</ele><time>2026-03-08T14:45:16.946Z</time></trkpt><trkpt lat="43.7382006" lon="12.7536486"><ele>312.0</ele><time>2026-03-08T14:45:17.946Z</time></trkpt><trkpt lat="43.7383446" lon="12.7536122"><ele>312.0</ele><time>2026-03-08T14:45:18.946Z</time></trkpt><trkpt lat="43.7384883" lon="12.7535713"><ele>312.0</ele><time>2026-03-08T14:45:19.947Z</time></trkpt><trkpt lat="43.7386157" lon="12.7534929"><ele>312.0</ele><time>2026-03-08T14:45:20.946Z</time></trkpt><trkpt lat="43.7387145" lon="12.7533726"><ele>315.5</ele><time>2026-03-08T14:45:21.946Z</time></trkpt><trkpt lat="43.7387952" lon="12.7532261"><ele>319.0</ele><time>2026-03-08T14:45:22.947Z</time></trkpt><trkpt lat="43.7388581" lon="12.7530646"><ele>322.5</ele><time>2026-03-08T14:45:23.946Z</time></trkpt><trkpt lat="43.7389069" lon="12.7529025"><ele>326.0</ele><time>2026-03-08T14:45:24.947Z</time></trkpt><trkpt lat="43.738951" lon="12.7527432"><ele>325.8</ele><time>2026-03-08T14:45:25.948Z</time></trkpt><trkpt lat="43.7390002" lon="12.7526022"><ele>325.6</ele><time>2026-03-08T14:45:26.947Z</time></trkpt><trkpt lat="43.7390575" lon="12.7524693"><ele>325.4</ele><time>2026-03-08T14:45:27.946Z</time></trkpt><trkpt lat="43.7391327" lon="12.7523695"><ele>325.2</ele><time>2026-03-08T14:45:28.947Z</time></trkpt><trkpt lat="43.7392269" lon="12.7523135"><ele>325.0</ele><time>2026-03-08T14:45:29.946Z</time></trkpt><trkpt lat="43.7393342" lon="12.7522727"><ele>324.75</ele><time>2026-03-08T14:45:30.947Z</time></trkpt><trkpt lat="43.7394559" lon="12.75225"><ele>324.5</ele><time>2026-03-08T14:45:31.948Z</time></trkpt><trkpt lat="43.7395842" lon="12.7522327"><ele>324.25</ele><time>2026-03-08T14:45:32.946Z</time></trkpt><trkpt lat="43.7397186" lon="12.7522101"><ele>324.0</ele><time>2026-03-08T14:45:33.946Z</time></trkpt><trkpt lat="43.7398552" lon="12.7521722"><ele>324.0</ele><time>2026-03-08T14:45:34.947Z</time></trkpt><trkpt lat="43.7400011" lon="12.7521148"><ele>324.0</ele><time>2026-03-08T14:45:35.946Z</time></trkpt><trkpt lat="43.7401462" lon="12.7520372"><ele>324.0</ele><time>2026-03-08T14:45:36.948Z</time></trkpt><trkpt lat="43.7402873" lon="12.7519579"><ele>324.25</ele><time>2026-03-08T14:45:37.946Z</time></trkpt><trkpt lat="43.7404251" lon="12.7518519"><ele>324.5</ele><time>2026-03-08T14:45:38.946Z</time></trkpt><trkpt lat="43.7405591" lon="12.7517581"><ele>324.75</ele><time>2026-03-08T14:45:39.947Z</time></trkpt><trkpt lat="43.7406881" lon="12.7516771"><ele>325.0</ele><time>2026-03-08T14:45:40.947Z</time></trkpt><trkpt lat="43.7408178" lon="12.7516391"><ele>325.0</ele><time>2026-03-08T14:45:41.946Z</time></trkpt><trkpt lat="43.7409507" lon="12.7516349"><ele>325.0</ele><time>2026-03-08T14:45:42.947Z</time></trkpt><trkpt lat="43.7410794" lon="12.7516593"><ele>325.0</ele><time>2026-03-08T14:45:43.946Z</time></trkpt><trkpt lat="43.7412038" lon="12.7516778"><ele>325.0</ele><time>2026-03-08T14:45:44.947Z</time></trkpt><trkpt lat="43.7413354" lon="12.7516715"><ele>325.25</ele><time>2026-03-08T14:45:45.947Z</time></trkpt><trkpt lat="43.7414663" lon="12.751655"><ele>325.5</ele><time>2026-03-08T14:45:46.946Z</time></trkpt><trkpt lat="43.7415892" lon="12.7516342"><ele>325.75</ele><time>2026-03-08T14:45:47.947Z</time></trkpt><trkpt lat="43.7417151" lon="12.751613"><ele>326.0</ele><time>2026-03-08T14:45:48.946Z</time></trkpt><trkpt lat="43.7418547" lon="12.751583"><ele>325.0</ele><time>2026-03-08T14:45:49.946Z</time></trkpt><trkpt lat="43.7419922" lon="12.7515668"><ele>324.0</ele><time>2026-03-08T14:45:50.947Z</time></trkpt><trkpt lat="43.7421233" lon="12.7515579"><ele>323.0</ele><time>2026-03-08T14:45:51.946Z</time></trkpt><trkpt lat="43.7422549" lon="12.7515352"><ele>322.0</ele><time>2026-03-08T14:45:52.947Z</time></trkpt><trkpt lat="43.7423783" lon="12.751491"><ele>322.0</ele><time>2026-03-08T14:45:53.946Z</time></trkpt><trkpt lat="43.7424913" lon="12.7514654"><ele>322.0</ele><time>2026-03-08T14:45:54.947Z</time></trkpt><trkpt lat="43.7426145" lon="12.7514633"><ele>322.0</ele><time>2026-03-08T14:45:55.946Z</time></trkpt><trkpt lat="43.7427395" lon="12.7514979"><ele>322.0</ele><time>2026-03-08T14:45:56.947Z</time></trkpt><trkpt lat="43.7428653" lon="12.7515412"><ele>323.0</ele><time>2026-03-08T14:45:57.946Z</time></trkpt><trkpt lat="43.7429938" lon="12.7515811"><ele>324.0</ele><time>2026-03-08T14:45:58.947Z</time></trkpt><trkpt lat="43.7431231" lon="12.7516318"><ele>325.0</ele><time>2026-03-08T14:45:59.946Z</time></trkpt><trkpt lat="43.7432474" lon="12.751679"><ele>326.0</ele><time>2026-03-08T14:46:00.947Z</time></trkpt><trkpt lat="43.7433768" lon="12.7517158"><ele>326.0</ele><time>2026-03-08T14:46:01.946Z</time></trkpt><trkpt lat="43.7435122" lon="12.7517646"><ele>326.0</ele><time>2026-03-08T14:46:02.948Z</time></trkpt><trkpt lat="43.7436454" lon="12.751807"><ele>326.0</ele><time>2026-03-08T14:46:03.947Z</time></trkpt><trkpt lat="43.7437649" lon="12.7518534"><ele>326.0</ele><time>2026-03-08T14:46:04.948Z</time></trkpt><trkpt lat="43.7438768" lon="12.7519064"><ele>326.5</ele><time>2026-03-08T14:46:05.947Z</time></trkpt><trkpt lat="43.7439719" lon="12.7519918"><ele>327.0</ele><time>2026-03-08T14:46:06.946Z</time></trkpt><trkpt lat="43.7440537" lon="12.7521044"><ele>327.5</ele><time>2026-03-08T14:46:07.947Z</time></trkpt><trkpt lat="43.7441395" lon="12.7522294"><ele>328.0</ele><time>2026-03-08T14:46:08.947Z</time></trkpt><trkpt lat="43.7442295" lon="12.7523737"><ele>328.0</ele><time>2026-03-08T14:46:09.946Z</time></trkpt><trkpt lat="43.7443155" lon="12.7525082"><ele>328.0</ele><time>2026-03-08T14:46:10.947Z</time></trkpt><trkpt lat="43.7443927" lon="12.7526596"><ele>328.0</ele><time>2026-03-08T14:46:11.947Z</time></trkpt><trkpt lat="43.7444881" lon="12.7528061"><ele>328.0</ele><time>2026-03-08T14:46:12.946Z</time></trkpt><trkpt lat="43.7445877" lon="12.7529596"><ele>328.0</ele><time>2026-03-08T14:46:13.947Z</time></trkpt><trkpt lat="43.7446802" lon="12.753114"><ele>328.0</ele><time>2026-03-08T14:46:14.947Z</time></trkpt><trkpt lat="43.7447795" lon="12.7532623"><ele>328.0</ele><time>2026-03-08T14:46:15.947Z</time></trkpt><trkpt lat="43.7448746" lon="12.7534186"><ele>328.0</ele><time>2026-03-08T14:46:16.946Z</time></trkpt><trkpt lat="43.7449679" lon="12.7535768"><ele>328.25</ele><time>2026-03-08T14:46:17.947Z</time></trkpt><trkpt lat="43.7450627" lon="12.7537359"><ele>328.5</ele><time>2026-03-08T14:46:18.946Z</time></trkpt><trkpt lat="43.7451512" lon="12.7539113"><ele>328.75</ele><time>2026-03-08T14:46:19.946Z</time></trkpt><trkpt lat="43.7452353" lon="12.7540739"><ele>329.0</ele><time>2026-03-08T14:46:20.948Z</time></trkpt><trkpt lat="43.7453065" lon="12.7542447"><ele>328.0</ele><time>2026-03-08T14:46:21.947Z</time></trkpt><trkpt lat="43.7453745" lon="12.7544096"><ele>327.0</ele><time>2026-03-08T14:46:22.947Z</time></trkpt><trkpt lat="43.7454424" lon="12.7545745"><ele>326.0</ele><time>2026-03-08T14:46:23.947Z</time></trkpt><trkpt lat="43.7455284" lon="12.7547266"><ele>325.0</ele><time>2026-03-08T14:46:24.947Z</time></trkpt><trkpt lat="43.7456194" lon="12.7548794"><ele>325.0</ele><time>2026-03-08T14:46:25.948Z</time></trkpt><trkpt lat="43.7457183" lon="12.7550265"><ele>325.0</ele><time>2026-03-08T14:46:26.948Z</time></trkpt><trkpt lat="43.7458207" lon="12.7551667"><ele>325.0</ele><time>2026-03-08T14:46:27.948Z</time></trkpt><trkpt lat="43.745925" lon="12.755311"><ele>325.0</ele><time>2026-03-08T14:46:28.946Z</time></trkpt><trkpt lat="43.7460293" lon="12.7554579"><ele>323.75</ele><time>2026-03-08T14:46:29.946Z</time></trkpt><trkpt lat="43.7461233" lon="12.7555798"><ele>322.5</ele><time>2026-03-08T14:46:30.947Z</time></trkpt><trkpt lat="43.7462181" lon="12.7556892"><ele>321.25</ele><time>2026-03-08T14:46:31.947Z</time></trkpt><trkpt lat="43.7463136" lon="12.7557878"><ele>320.0</ele><time>2026-03-08T14:46:32.947Z</time></trkpt><trkpt lat="43.7464236" lon="12.7558755"><ele>320.0</ele><time>2026-03-08T14:46:33.948Z</time></trkpt><trkpt lat="43.7465402" lon="12.7559756"><ele>320.0</ele><time>2026-03-08T14:46:34.946Z</time></trkpt><trkpt lat="43.7466573" lon="12.7560842"><ele>320.0</ele><time>2026-03-08T14:46:35.946Z</time></trkpt><trkpt lat="43.7467793" lon="12.7561971"><ele>320.0</ele><time>2026-03-08T14:46:36.948Z</time></trkpt><trkpt lat="43.7469082" lon="12.75632"><ele>318.0</ele><time>2026-03-08T14:46:37.946Z</time></trkpt><trkpt lat="43.7470336" lon="12.7564385"><ele>316.0</ele><time>2026-03-08T14:46:38.947Z</time></trkpt><trkpt lat="43.7471558" lon="12.7565598"><ele>314.0</ele><time>2026-03-08T14:46:39.948Z</time></trkpt><trkpt lat="43.7472791" lon="12.7566796"><ele>314.0</ele><time>2026-03-08T14:46:40.947Z</time></trkpt><trkpt lat="43.7474012" lon="12.7568017"><ele>314.0</ele><time>2026-03-08T14:46:41.946Z</time></trkpt><trkpt lat="43.7475257" lon="12.7569304"><ele>314.0</ele><time>2026-03-08T14:46:42.946Z</time></trkpt><trkpt lat="43.7476463" lon="12.7570434"><ele>311.33333333333337</ele><time>2026-03-08T14:46:43.947Z</time></trkpt><trkpt lat="43.7477751" lon="12.7571588"><ele>308.6666666666667</ele><time>2026-03-08T14:46:44.947Z</time></trkpt><trkpt lat="43.747914" lon="12.7572498"><ele>306.0</ele><time>2026-03-08T14:46:45.947Z</time></trkpt><trkpt lat="43.7480562" lon="12.757318"><ele>306.0</ele><time>2026-03-08T14:46:46.946Z</time></trkpt><trkpt lat="43.7482065" lon="12.7573718"><ele>306.0</ele><time>2026-03-08T14:46:47.947Z</time></trkpt><trkpt lat="43.7483584" lon="12.7574272"><ele>306.0</ele><time>2026-03-08T14:46:48.946Z</time></trkpt><trkpt lat="43.7485095" lon="12.7574773"><ele>304.6666666666667</ele><time>2026-03-08T14:46:49.946Z</time></trkpt><trkpt lat="43.7486638" lon="12.7575283"><ele>303.33333333333337</ele><time>2026-03-08T14:46:50.946Z</time></trkpt><trkpt lat="43.7488146" lon="12.7575867"><ele>302.0</ele><time>2026-03-08T14:46:51.946Z</time></trkpt><trkpt lat="43.7489698" lon="12.7576432"><ele>302.0</ele><time>2026-03-08T14:46:52.947Z</time></trkpt><trkpt lat="43.7491235" lon="12.7577042"><ele>302.0</ele><time>2026-03-08T14:46:53.946Z</time></trkpt><trkpt lat="43.7492732" lon="12.7577724"><ele>302.0</ele><time>2026-03-08T14:46:54.947Z</time></trkpt><trkpt lat="43.7494146" lon="12.7578443"><ele>302.0</ele><time>2026-03-08T14:46:55.947Z</time></trkpt><trkpt lat="43.7495613" lon="12.7579138"><ele>302.0</ele><time>2026-03-08T14:46:56.947Z</time></trkpt><trkpt lat="43.7497087" lon="12.7579878"><ele>302.0</ele><time>2026-03-08T14:46:57.946Z</time></trkpt><trkpt lat="43.7498554" lon="12.7580627"><ele>302.0</ele><time>2026-03-08T14:46:58.946Z</time></trkpt><trkpt lat="43.7500079" lon="12.7581228"><ele>302.0</ele><time>2026-03-08T14:46:59.947Z</time></trkpt><trkpt lat="43.7501612" lon="12.7581921"><ele>302.0</ele><time>2026-03-08T14:47:00.946Z</time></trkpt><trkpt lat="43.7503141" lon="12.7582507"><ele>305.0</ele><time>2026-03-08T14:47:01.947Z</time></trkpt><trkpt lat="43.7504625" lon="12.7583001"><ele>308.0</ele><time>2026-03-08T14:47:02.947Z</time></trkpt><trkpt lat="43.7506157" lon="12.7583746"><ele>311.0</ele><time>2026-03-08T14:47:03.947Z</time></trkpt><trkpt lat="43.7507611" lon="12.7584456"><ele>311.0</ele><time>2026-03-08T14:47:04.946Z</time></trkpt><trkpt lat="43.750903" lon="12.7585263"><ele>311.0</ele><time>2026-03-08T14:47:05.946Z</time></trkpt><trkpt lat="43.7510448" lon="12.7586061"><ele>311.0</ele><time>2026-03-08T14:47:06.946Z</time></trkpt><trkpt lat="43.7511935" lon="12.7586883"><ele>314.0</ele><time>2026-03-08T14:47:07.947Z</time></trkpt><trkpt lat="43.751338" lon="12.7587399"><ele>317.0</ele><time>2026-03-08T14:47:08.948Z</time></trkpt><trkpt lat="43.7514912" lon="12.7587765"><ele>320.0</ele><time>2026-03-08T14:47:09.946Z</time></trkpt><trkpt lat="43.7516417" lon="12.7588289"><ele>320.0</ele><time>2026-03-08T14:47:10.946Z</time></trkpt><trkpt lat="43.7517739" lon="12.7589037"><ele>320.0</ele><time>2026-03-08T14:47:11.947Z</time></trkpt><trkpt lat="43.7519121" lon="12.7589917"><ele>320.0</ele><time>2026-03-08T14:47:12.946Z</time></trkpt><trkpt lat="43.7520422" lon="12.7590846"><ele>320.0</ele><time>2026-03-08T14:47:13.946Z</time></trkpt><trkpt lat="43.752172" lon="12.7591836"><ele>323.0</ele><time>2026-03-08T14:47:14.946Z</time></trkpt><trkpt lat="43.7522967" lon="12.7592761"><ele>326.0</ele><time>2026-03-08T14:47:15.947Z</time></trkpt><trkpt lat="43.7524167" lon="12.759367"><ele>329.0</ele><time>2026-03-08T14:47:16.946Z</time></trkpt><trkpt lat="43.752523" lon="12.759448"><ele>332.0</ele><time>2026-03-08T14:47:17.948Z</time></trkpt><trkpt lat="43.7526215" lon="12.7595132"><ele>333.0</ele><time>2026-03-08T14:47:18.946Z</time></trkpt><trkpt lat="43.7526994" lon="12.7595777"><ele>334.0</ele><time>2026-03-08T14:47:19.947Z</time></trkpt><trkpt lat="43.7527479" lon="12.7596641"><ele>335.0</ele><time>2026-03-08T14:47:20.948Z</time></trkpt><trkpt lat="43.7527411" lon="12.7597529"><ele>336.0</ele><time>2026-03-08T14:47:21.946Z</time></trkpt><trkpt lat="43.7526881" lon="12.7598339"><ele>337.0</ele><time>2026-03-08T14:47:22.946Z</time></trkpt><trkpt lat="43.7526232" lon="12.7599191"><ele>338.0</ele><time>2026-03-08T14:47:23.947Z</time></trkpt><trkpt lat="43.7525615" lon="12.7600405"><ele>338.0</ele><time>2026-03-08T14:47:24.947Z</time></trkpt><trkpt lat="43.7525118" lon="12.7601578"><ele>338.0</ele><time>2026-03-08T14:47:25.948Z</time></trkpt><trkpt lat="43.7524818" lon="12.7602874"><ele>338.0</ele><time>2026-03-08T14:47:26.947Z</time></trkpt><trkpt lat="43.752462" lon="12.7604338"><ele>338.0</ele><time>2026-03-08T14:47:27.946Z</time></trkpt><trkpt lat="43.752459" lon="12.7605768"><ele>338.0</ele><time>2026-03-08T14:47:28.946Z</time></trkpt><trkpt lat="43.7524767" lon="12.7607176"><ele>338.79999999999995</ele><time>2026-03-08T14:47:29.946Z</time></trkpt><trkpt lat="43.752503" lon="12.7608546"><ele>339.6</ele><time>2026-03-08T14:47:30.947Z</time></trkpt><trkpt lat="43.7525404" lon="12.7609884"><ele>340.4</ele><time>2026-03-08T14:47:31.947Z</time></trkpt><trkpt lat="43.7525913" lon="12.7611129"><ele>341.20000000000005</ele><time>2026-03-08T14:47:32.947Z</time></trkpt><trkpt lat="43.752652" lon="12.761227"><ele>342.0</ele><time>2026-03-08T14:47:33.947Z</time></trkpt><trkpt lat="43.7527178" lon="12.7613444"><ele>345.40000000000003</ele><time>2026-03-08T14:47:34.947Z</time></trkpt><trkpt lat="43.7527863" lon="12.7614587"><ele>348.8</ele><time>2026-03-08T14:47:35.946Z</time></trkpt><trkpt lat="43.7528626" lon="12.761563"><ele>352.2</ele><time>2026-03-08T14:47:36.947Z</time></trkpt><trkpt lat="43.7529499" lon="12.7616381"><ele>355.6</ele><time>2026-03-08T14:47:37.946Z</time></trkpt><trkpt lat="43.7530459" lon="12.7616783"><ele>359.0</ele><time>2026-03-08T14:47:38.946Z</time></trkpt><trkpt lat="43.7531466" lon="12.7617017"><ele>359.0</ele><time>2026-03-08T14:47:39.947Z</time></trkpt><trkpt lat="43.753244" lon="12.7617085"><ele>359.0</ele><time>2026-03-08T14:47:40.947Z</time></trkpt><trkpt lat="43.7533402" lon="12.7617081"><ele>359.0</ele><time>2026-03-08T14:47:41.947Z</time></trkpt><trkpt lat="43.7534367" lon="12.7616934"><ele>359.0</ele><time>2026-03-08T14:47:42.946Z</time></trkpt><trkpt lat="43.7535265" lon="12.7616808"><ele>359.0</ele><time>2026-03-08T14:47:43.947Z</time></trkpt><trkpt lat="43.7536212" lon="12.7616805"><ele>359.6666666666667</ele><time>2026-03-08T14:47:44.947Z</time></trkpt><trkpt lat="43.7536855" lon="12.7616974"><ele>360.33333333333337</ele><time>2026-03-08T14:47:45.947Z</time></trkpt><trkpt lat="43.7537353" lon="12.7617597"><ele>361.0</ele><time>2026-03-08T14:47:48.946Z</time></trkpt><trkpt lat="43.7538066" lon="12.7618307"><ele>361.6666666666667</ele><time>2026-03-08T14:47:50.947Z</time></trkpt><trkpt lat="43.7538696" lon="12.761881"><ele>362.3333333333333</ele><time>2026-03-08T14:47:51.947Z</time></trkpt><trkpt lat="43.7539464" lon="12.7619397"><ele>363.0</ele><time>2026-03-08T14:47:52.947Z</time></trkpt><trkpt lat="43.7540388" lon="12.7619951"><ele>363.0</ele><time>2026-03-08T14:47:53.947Z</time></trkpt><trkpt lat="43.7541493" lon="12.7620561"><ele>363.0</ele><time>2026-03-08T14:47:54.946Z</time></trkpt><trkpt lat="43.7542571" lon="12.7621257"><ele>363.0</ele><time>2026-03-08T14:47:55.946Z</time></trkpt><trkpt lat="43.754351" lon="12.762219"><ele>363.0</ele><time>2026-03-08T14:47:56.947Z</time></trkpt><trkpt lat="43.754441" lon="12.7623263"><ele>364.5</ele><time>2026-03-08T14:47:57.947Z</time></trkpt><trkpt lat="43.7545353" lon="12.762425"><ele>366.0</ele><time>2026-03-08T14:47:58.946Z</time></trkpt><trkpt lat="43.7546392" lon="12.7625174"><ele>367.5</ele><time>2026-03-08T14:47:59.947Z</time></trkpt><trkpt lat="43.754754" lon="12.7625871"><ele>369.0</ele><time>2026-03-08T14:48:00.947Z</time></trkpt><trkpt lat="43.7548695" lon="12.7626556"><ele>368.0</ele><time>2026-03-08T14:48:01.946Z</time></trkpt><trkpt lat="43.7549911" lon="12.7627159"><ele>367.0</ele><time>2026-03-08T14:48:02.946Z</time></trkpt><trkpt lat="43.7551185" lon="12.7627715"><ele>366.0</ele><time>2026-03-08T14:48:03.947Z</time></trkpt><trkpt lat="43.7552473" lon="12.7628268"><ele>365.0</ele><time>2026-03-08T14:48:04.947Z</time></trkpt><trkpt lat="43.7553762" lon="12.7628902"><ele>365.0</ele><time>2026-03-08T14:48:05.946Z</time></trkpt><trkpt lat="43.7555037" lon="12.7629524"><ele>365.0</ele><time>2026-03-08T14:48:06.947Z</time></trkpt><trkpt lat="43.755627" lon="12.7630127"><ele>365.0</ele><time>2026-03-08T14:48:07.946Z</time></trkpt><trkpt lat="43.7557486" lon="12.7630684"><ele>365.0</ele><time>2026-03-08T14:48:08.948Z</time></trkpt><trkpt lat="43.7558756" lon="12.7631109"><ele>365.0</ele><time>2026-03-08T14:48:09.946Z</time></trkpt><trkpt lat="43.7560051" lon="12.763155"><ele>365.0</ele><time>2026-03-08T14:48:10.947Z</time></trkpt><trkpt lat="43.7561354" lon="12.7631526"><ele>365.0</ele><time>2026-03-08T14:48:11.948Z</time></trkpt><trkpt lat="43.7562711" lon="12.763182"><ele>365.0</ele><time>2026-03-08T14:48:12.946Z</time></trkpt><trkpt lat="43.7563961" lon="12.7632017"><ele>365.25</ele><time>2026-03-08T14:48:13.947Z</time></trkpt><trkpt lat="43.7565306" lon="12.7632228"><ele>365.5</ele><time>2026-03-08T14:48:14.946Z</time></trkpt><trkpt lat="43.7566605" lon="12.7632309"><ele>365.75</ele><time>2026-03-08T14:48:15.948Z</time></trkpt><trkpt lat="43.7567917" lon="12.7632439"><ele>366.0</ele><time>2026-03-08T14:48:16.946Z</time></trkpt><trkpt lat="43.7569311" lon="12.7632688"><ele>367.75</ele><time>2026-03-08T14:48:17.946Z</time></trkpt><trkpt lat="43.7570691" lon="12.7633148"><ele>369.5</ele><time>2026-03-08T14:48:18.947Z</time></trkpt><trkpt lat="43.7572061" lon="12.763362"><ele>371.25</ele><time>2026-03-08T14:48:19.947Z</time></trkpt><trkpt lat="43.7573414" lon="12.7634225"><ele>373.0</ele><time>2026-03-08T14:48:20.946Z</time></trkpt><trkpt lat="43.7574506" lon="12.7634565"><ele>373.0</ele><time>2026-03-08T14:48:21.947Z</time></trkpt><trkpt lat="43.7575771" lon="12.7635147"><ele>373.0</ele><time>2026-03-08T14:48:22.946Z</time></trkpt><trkpt lat="43.7577026" lon="12.7635756"><ele>373.0</ele><time>2026-03-08T14:48:23.946Z</time></trkpt><trkpt lat="43.7578473" lon="12.7636112"><ele>373.0</ele><time>2026-03-08T14:48:24.947Z</time></trkpt><trkpt lat="43.7579657" lon="12.763632"><ele>374.0</ele><time>2026-03-08T14:48:25.948Z</time></trkpt><trkpt lat="43.7580991" lon="12.7636266"><ele>375.0</ele><time>2026-03-08T14:48:26.947Z</time></trkpt><trkpt lat="43.7582279" lon="12.763608"><ele>376.0</ele><time>2026-03-08T14:48:27.948Z</time></trkpt><trkpt lat="43.7583603" lon="12.7635604"><ele>377.0</ele><time>2026-03-08T14:48:28.947Z</time></trkpt><trkpt lat="43.7584845" lon="12.7635108"><ele>376.5</ele><time>2026-03-08T14:48:29.947Z</time></trkpt><trkpt lat="43.7586126" lon="12.7634676"><ele>376.0</ele><time>2026-03-08T14:48:30.947Z</time></trkpt><trkpt lat="43.7587393" lon="12.7634131"><ele>375.5</ele><time>2026-03-08T14:48:31.947Z</time></trkpt><trkpt lat="43.7588642" lon="12.7633602"><ele>375.0</ele><time>2026-03-08T14:48:32.946Z</time></trkpt><trkpt lat="43.7589949" lon="12.763334"><ele>375.0</ele><time>2026-03-08T14:48:33.947Z</time></trkpt><trkpt lat="43.7591272" lon="12.7633198"><ele>375.0</ele><time>2026-03-08T14:48:34.947Z</time></trkpt><trkpt lat="43.7592577" lon="12.7633415"><ele>375.0</ele><time>2026-03-08T14:48:35.946Z</time></trkpt><trkpt lat="43.7593872" lon="12.7633818"><ele>375.0</ele><time>2026-03-08T14:48:36.948Z</time></trkpt><trkpt lat="43.7595213" lon="12.7634189"><ele>375.0</ele><time>2026-03-08T14:48:37.946Z</time></trkpt><trkpt lat="43.7596531" lon="12.7634791"><ele>375.0</ele><time>2026-03-08T14:48:38.946Z</time></trkpt><trkpt lat="43.7597893" lon="12.7635535"><ele>375.0</ele><time>2026-03-08T14:48:39.946Z</time></trkpt><trkpt lat="43.7598954" lon="12.763669"><ele>375.0</ele><time>2026-03-08T14:48:40.946Z</time></trkpt><trkpt lat="43.7599763" lon="12.7638051"><ele>375.0</ele><time>2026-03-08T14:48:41.946Z</time></trkpt><trkpt lat="43.7600356" lon="12.7639618"><ele>375.0</ele><time>2026-03-08T14:48:42.947Z</time></trkpt><trkpt lat="43.7600646" lon="12.7641165"><ele>375.0</ele><time>2026-03-08T14:48:43.947Z</time></trkpt><trkpt lat="43.7600775" lon="12.7642826"><ele>375.0</ele><time>2026-03-08T14:48:44.946Z</time></trkpt><trkpt lat="43.7600861" lon="12.7644654"><ele>374.25</ele><time>2026-03-08T14:48:45.946Z</time></trkpt><trkpt lat="43.7600953" lon="12.7646442"><ele>373.5</ele><time>2026-03-08T14:48:46.946Z</time></trkpt><trkpt lat="43.7601239" lon="12.7648265"><ele>372.75</ele><time>2026-03-08T14:48:47.947Z</time></trkpt><trkpt lat="43.7601372" lon="12.7650133"><ele>372.0</ele><time>2026-03-08T14:48:48.946Z</time></trkpt><trkpt lat="43.7601398" lon="12.7651821"><ele>370.5</ele><time>2026-03-08T14:48:49.946Z</time></trkpt><trkpt lat="43.7601521" lon="12.7653386"><ele>369.0</ele><time>2026-03-08T14:48:50.946Z</time></trkpt><trkpt lat="43.7601812" lon="12.7654879"><ele>367.5</ele><time>2026-03-08T14:48:51.947Z</time></trkpt><trkpt lat="43.7602428" lon="12.7656434"><ele>366.0</ele><time>2026-03-08T14:48:52.946Z</time></trkpt><trkpt lat="43.760321" lon="12.7657707"><ele>368.25</ele><time>2026-03-08T14:48:53.946Z</time></trkpt><trkpt lat="43.7604136" lon="12.7658918"><ele>370.5</ele><time>2026-03-08T14:48:54.947Z</time></trkpt><trkpt lat="43.7605109" lon="12.7660083"><ele>372.75</ele><time>2026-03-08T14:48:55.946Z</time></trkpt><trkpt lat="43.7606026" lon="12.7661364"><ele>375.0</ele><time>2026-03-08T14:48:56.947Z</time></trkpt><trkpt lat="43.7606939" lon="12.7662673"><ele>375.0</ele><time>2026-03-08T14:48:57.946Z</time></trkpt><trkpt lat="43.7607926" lon="12.7663782"><ele>375.0</ele><time>2026-03-08T14:48:58.946Z</time></trkpt><trkpt lat="43.7608849" lon="12.7664839"><ele>375.0</ele><time>2026-03-08T14:48:59.947Z</time></trkpt><trkpt lat="43.7609816" lon="12.7665563"><ele>375.0</ele><time>2026-03-08T14:49:00.948Z</time></trkpt><trkpt lat="43.7610812" lon="12.7666077"><ele>376.25</ele><time>2026-03-08T14:49:01.946Z</time></trkpt><trkpt lat="43.76121" lon="12.7666605"><ele>377.5</ele><time>2026-03-08T14:49:02.946Z</time></trkpt><trkpt lat="43.7613307" lon="12.766699"><ele>378.75</ele><time>2026-03-08T14:49:03.947Z</time></trkpt><trkpt lat="43.7614552" lon="12.766685"><ele>380.0</ele><time>2026-03-08T14:49:04.949Z</time></trkpt><trkpt lat="43.7615904" lon="12.7666927"><ele>380.0</ele><time>2026-03-08T14:49:05.947Z</time></trkpt><trkpt lat="43.7617211" lon="12.7667014"><ele>380.0</ele><time>2026-03-08T14:49:06.946Z</time></trkpt><trkpt lat="43.7618607" lon="12.7666837"><ele>380.0</ele><time>2026-03-08T14:49:07.948Z</time></trkpt><trkpt lat="43.7619798" lon="12.7666299"><ele>380.0</ele><time>2026-03-08T14:49:08.947Z</time></trkpt><trkpt lat="43.7621078" lon="12.7665457"><ele>378.25</ele><time>2026-03-08T14:49:09.947Z</time></trkpt><trkpt lat="43.7622364" lon="12.7664585"><ele>376.5</ele><time>2026-03-08T14:49:10.947Z</time></trkpt><trkpt lat="43.7623644" lon="12.7663721"><ele>374.75</ele><time>2026-03-08T14:49:11.948Z</time></trkpt><trkpt lat="43.7624894" lon="12.7662854"><ele>373.0</ele><time>2026-03-08T14:49:12.947Z</time></trkpt><trkpt lat="43.7626094" lon="12.7661877"><ele>373.0</ele><time>2026-03-08T14:49:13.946Z</time></trkpt><trkpt lat="43.7626721" lon="12.7660808"><ele>373.0</ele><time>2026-03-08T14:49:14.947Z</time></trkpt><trkpt lat="43.7627489" lon="12.766021"><ele>373.0</ele><time>2026-03-08T14:49:15.947Z</time></trkpt><trkpt lat="43.7628494" lon="12.7660351"><ele>373.0</ele><time>2026-03-08T14:49:16.946Z</time></trkpt><trkpt lat="43.7629218" lon="12.7661166"><ele>373.0</ele><time>2026-03-08T14:49:17.947Z</time></trkpt><trkpt lat="43.7629893" lon="12.766257"><ele>373.0</ele><time>2026-03-08T14:49:18.947Z</time></trkpt><trkpt lat="43.7630478" lon="12.7664209"><ele>373.0</ele><time>2026-03-08T14:49:19.947Z</time></trkpt><trkpt lat="43.7631139" lon="12.7665848"><ele>373.0</ele><time>2026-03-08T14:49:20.946Z</time></trkpt><trkpt lat="43.7631775" lon="12.7667718"><ele>373.0</ele><time>2026-03-08T14:49:21.947Z</time></trkpt><trkpt lat="43.7632424" lon="12.7669532"><ele>373.0</ele><time>2026-03-08T14:49:22.946Z</time></trkpt><trkpt lat="43.7633033" lon="12.7671091"><ele>373.0</ele><time>2026-03-08T14:49:23.947Z</time></trkpt><trkpt lat="43.7633684" lon="12.7672452"><ele>373.0</ele><time>2026-03-08T14:49:24.946Z</time></trkpt><trkpt lat="43.7634688" lon="12.7673386"><ele>373.0</ele><time>2026-03-08T14:49:25.946Z</time></trkpt><trkpt lat="43.7635921" lon="12.7673922"><ele>374.75</ele><time>2026-03-08T14:49:26.947Z</time></trkpt><trkpt lat="43.7637274" lon="12.7674258"><ele>376.5</ele><time>2026-03-08T14:49:27.947Z</time></trkpt><trkpt lat="43.7638684" lon="12.7673551"><ele>378.25</ele><time>2026-03-08T14:49:28.946Z</time></trkpt><trkpt lat="43.7640076" lon="12.7673064"><ele>380.0</ele><time>2026-03-08T14:49:29.946Z</time></trkpt><trkpt lat="43.7641461" lon="12.767258"><ele>380.0</ele><time>2026-03-08T14:49:30.947Z</time></trkpt><trkpt lat="43.7642807" lon="12.767214"><ele>380.0</ele><time>2026-03-08T14:49:31.946Z</time></trkpt><trkpt lat="43.7644208" lon="12.7671835"><ele>380.0</ele><time>2026-03-08T14:49:32.949Z</time></trkpt><trkpt lat="43.764559" lon="12.7671832"><ele>380.0</ele><time>2026-03-08T14:49:33.946Z</time></trkpt><trkpt lat="43.7646913" lon="12.7672272"><ele>382.5</ele><time>2026-03-08T14:49:34.948Z</time></trkpt><trkpt lat="43.7648128" lon="12.767301"><ele>385.0</ele><time>2026-03-08T14:49:35.947Z</time></trkpt><trkpt lat="43.7649313" lon="12.767394"><ele>387.5</ele><time>2026-03-08T14:49:36.946Z</time></trkpt><trkpt lat="43.7650454" lon="12.7674949"><ele>390.0</ele><time>2026-03-08T14:49:37.948Z</time></trkpt><trkpt lat="43.7651643" lon="12.7676026"><ele>392.25</ele><time>2026-03-08T14:49:38.946Z</time></trkpt><trkpt lat="43.7652828" lon="12.7676926"><ele>394.5</ele><time>2026-03-08T14:49:39.948Z</time></trkpt><trkpt lat="43.7653813" lon="12.7677979"><ele>396.75</ele><time>2026-03-08T14:49:40.946Z</time></trkpt><trkpt lat="43.7654256" lon="12.7679367"><ele>399.0</ele><time>2026-03-08T14:49:41.947Z</time></trkpt><trkpt lat="43.7654414" lon="12.7680901"><ele>399.0</ele><time>2026-03-08T14:49:42.947Z</time></trkpt><trkpt lat="43.7654281" lon="12.7682464"><ele>399.0</ele><time>2026-03-08T14:49:43.946Z</time></trkpt><trkpt lat="43.7654136" lon="12.7684104"><ele>399.0</ele><time>2026-03-08T14:49:44.947Z</time></trkpt><trkpt lat="43.7654085" lon="12.7685909"><ele>399.0</ele><time>2026-03-08T14:49:45.947Z</time></trkpt><trkpt lat="43.7654658" lon="12.768751"><ele>399.25</ele><time>2026-03-08T14:49:46.946Z</time></trkpt><trkpt lat="43.7655369" lon="12.7689147"><ele>399.5</ele><time>2026-03-08T14:49:47.947Z</time></trkpt><trkpt lat="43.7656223" lon="12.7690606"><ele>399.75</ele><time>2026-03-08T14:49:48.947Z</time></trkpt><trkpt lat="43.7656929" lon="12.7691913"><ele>400.0</ele><time>2026-03-08T14:49:49.947Z</time></trkpt><trkpt lat="43.7657552" lon="12.76932"><ele>400.75</ele><time>2026-03-08T14:49:50.946Z</time></trkpt><trkpt lat="43.7657935" lon="12.7694694"><ele>401.5</ele><time>2026-03-08T14:49:51.948Z</time></trkpt><trkpt lat="43.765779" lon="12.7696278"><ele>402.25</ele><time>2026-03-08T14:49:52.947Z</time></trkpt><trkpt lat="43.7657328" lon="12.769774"><ele>403.0</ele><time>2026-03-08T14:49:53.946Z</time></trkpt><trkpt lat="43.7656652" lon="12.7699028"><ele>403.0</ele><time>2026-03-08T14:49:54.947Z</time></trkpt><trkpt lat="43.7655826" lon="12.7700148"><ele>403.0</ele><time>2026-03-08T14:49:55.948Z</time></trkpt><trkpt lat="43.7654669" lon="12.7700709"><ele>403.0</ele><time>2026-03-08T14:49:56.946Z</time></trkpt><trkpt lat="43.765341" lon="12.7700961"><ele>403.0</ele><time>2026-03-08T14:49:57.946Z</time></trkpt><trkpt lat="43.7652457" lon="12.7701458"><ele>402.2</ele><time>2026-03-08T14:49:58.947Z</time></trkpt><trkpt lat="43.7651429" lon="12.7701947"><ele>401.4</ele><time>2026-03-08T14:49:59.946Z</time></trkpt><trkpt lat="43.7650486" lon="12.77028"><ele>400.59999999999997</ele><time>2026-03-08T14:50:00.947Z</time></trkpt><trkpt lat="43.7649701" lon="12.7703931"><ele>399.79999999999995</ele><time>2026-03-08T14:50:01.947Z</time></trkpt><trkpt lat="43.7649328" lon="12.7705385"><ele>399.0</ele><time>2026-03-08T14:50:02.947Z</time></trkpt><trkpt lat="43.7649221" lon="12.770695"><ele>399.0</ele><time>2026-03-08T14:50:03.946Z</time></trkpt><trkpt lat="43.7649638" lon="12.7708448"><ele>399.0</ele><time>2026-03-08T14:50:04.946Z</time></trkpt><trkpt lat="43.7649988" lon="12.7709885"><ele>399.0</ele><time>2026-03-08T14:50:05.947Z</time></trkpt><trkpt lat="43.7650387" lon="12.7711295"><ele>399.0</ele><time>2026-03-08T14:50:06.946Z</time></trkpt><trkpt lat="43.7650819" lon="12.7712853"><ele>398.5</ele><time>2026-03-08T14:50:07.946Z</time></trkpt><trkpt lat="43.765119" lon="12.7714395"><ele>398.0</ele><time>2026-03-08T14:50:08.948Z</time></trkpt><trkpt lat="43.7651559" lon="12.7715908"><ele>397.5</ele><time>2026-03-08T14:50:09.947Z</time></trkpt><trkpt lat="43.7651866" lon="12.7717479"><ele>397.0</ele><time>2026-03-08T14:50:10.947Z</time></trkpt><trkpt lat="43.765224" lon="12.771914"><ele>395.8</ele><time>2026-03-08T14:50:11.947Z</time></trkpt><trkpt lat="43.7652584" lon="12.7720667"><ele>394.6</ele><time>2026-03-08T14:50:12.946Z</time></trkpt><trkpt lat="43.7652818" lon="12.7722137"><ele>393.40000000000003</ele><time>2026-03-08T14:50:13.947Z</time></trkpt><trkpt lat="43.7652807" lon="12.7723528"><ele>392.20000000000005</ele><time>2026-03-08T14:50:14.947Z</time></trkpt><trkpt lat="43.7652435" lon="12.7724802"><ele>391.0</ele><time>2026-03-08T14:50:15.947Z</time></trkpt><trkpt lat="43.7652257" lon="12.7725949"><ele>389.00000000000006</ele><time>2026-03-08T14:50:16.947Z</time></trkpt><trkpt lat="43.765232" lon="12.7727053"><ele>387.0</ele><time>2026-03-08T14:50:17.946Z</time></trkpt><trkpt lat="43.765289" lon="12.7727761"><ele>385.0</ele><time>2026-03-08T14:50:18.946Z</time></trkpt><trkpt lat="43.7653514" lon="12.7728886"><ele>383.0</ele><time>2026-03-08T14:50:20.946Z</time></trkpt><trkpt lat="43.7653554" lon="12.7729933"><ele>381.0</ele><time>2026-03-08T14:50:21.947Z</time></trkpt><trkpt lat="43.7653541" lon="12.7730872"><ele>379.0</ele><time>2026-03-08T14:50:22.946Z</time></trkpt><trkpt lat="43.765342" lon="12.7731906"><ele>379.0</ele><time>2026-03-08T14:50:23.947Z</time></trkpt><trkpt lat="43.765336" lon="12.7732943"><ele>379.0</ele><time>2026-03-08T14:50:24.946Z</time></trkpt><trkpt lat="43.7653302" lon="12.773393"><ele>379.0</ele><time>2026-03-08T14:50:25.947Z</time></trkpt><trkpt lat="43.7653256" lon="12.7735032"><ele>379.0</ele><time>2026-03-08T14:50:26.947Z</time></trkpt><trkpt lat="43.7653239" lon="12.773644"><ele>379.0</ele><time>2026-03-08T14:50:27.947Z</time></trkpt><trkpt lat="43.7652884" lon="12.7737757"><ele>379.0</ele><time>2026-03-08T14:50:28.946Z</time></trkpt><trkpt lat="43.7652367" lon="12.7739117"><ele>383.25</ele><time>2026-03-08T14:50:29.946Z</time></trkpt><trkpt lat="43.7651662" lon="12.7740514"><ele>387.5</ele><time>2026-03-08T14:50:30.947Z</time></trkpt><trkpt lat="43.765089" lon="12.7742026"><ele>391.75</ele><time>2026-03-08T14:50:31.947Z</time></trkpt><trkpt lat="43.7650435" lon="12.7743567"><ele>396.0</ele><time>2026-03-08T14:50:32.947Z</time></trkpt><trkpt lat="43.7650003" lon="12.7745105"><ele>396.0</ele><time>2026-03-08T14:50:33.947Z</time></trkpt><trkpt lat="43.7649625" lon="12.774689"><ele>396.0</ele><time>2026-03-08T14:50:34.946Z</time></trkpt><trkpt lat="43.7649158" lon="12.7748657"><ele>396.0</ele><time>2026-03-08T14:50:35.947Z</time></trkpt><trkpt lat="43.7648881" lon="12.7750436"><ele>396.0</ele><time>2026-03-08T14:50:36.947Z</time></trkpt><trkpt lat="43.7648574" lon="12.775233"><ele>394.0</ele><time>2026-03-08T14:50:37.947Z</time></trkpt><trkpt lat="43.7647896" lon="12.7753855"><ele>392.0</ele><time>2026-03-08T14:50:38.946Z</time></trkpt><trkpt lat="43.7647342" lon="12.7755499"><ele>390.0</ele><time>2026-03-08T14:50:39.946Z</time></trkpt><trkpt lat="43.7646738" lon="12.7756965"><ele>388.0</ele><time>2026-03-08T14:50:40.947Z</time></trkpt><trkpt lat="43.7646272" lon="12.7758528"><ele>388.0</ele><time>2026-03-08T14:50:41.946Z</time></trkpt><trkpt lat="43.7645956" lon="12.7760096"><ele>388.0</ele><time>2026-03-08T14:50:42.946Z</time></trkpt><trkpt lat="43.7646123" lon="12.7761822"><ele>388.0</ele><time>2026-03-08T14:50:43.947Z</time></trkpt><trkpt lat="43.7646522" lon="12.7763544"><ele>388.0</ele><time>2026-03-08T14:50:44.947Z</time></trkpt><trkpt lat="43.7647097" lon="12.776502"><ele>388.25</ele><time>2026-03-08T14:50:45.947Z</time></trkpt><trkpt lat="43.7647613" lon="12.7766604"><ele>388.5</ele><time>2026-03-08T14:50:46.946Z</time></trkpt><trkpt lat="43.7648052" lon="12.7768223"><ele>388.75</ele><time>2026-03-08T14:50:47.947Z</time></trkpt><trkpt lat="43.7648203" lon="12.7769986"><ele>389.0</ele><time>2026-03-08T14:50:48.947Z</time></trkpt><trkpt lat="43.7648133" lon="12.7771812"><ele>389.0</ele><time>2026-03-08T14:50:49.947Z</time></trkpt><trkpt lat="43.764794" lon="12.7773687"><ele>389.0</ele><time>2026-03-08T14:50:50.946Z</time></trkpt><trkpt lat="43.7647744" lon="12.7775805"><ele>389.0</ele><time>2026-03-08T14:50:51.946Z</time></trkpt><trkpt lat="43.7647502" lon="12.7777662"><ele>389.0</ele><time>2026-03-08T14:50:52.946Z</time></trkpt><trkpt lat="43.764721" lon="12.7779782"><ele>389.75</ele><time>2026-03-08T14:50:53.947Z</time></trkpt><trkpt lat="43.7646972" lon="12.7781678"><ele>390.5</ele><time>2026-03-08T14:50:54.947Z</time></trkpt><trkpt lat="43.7646757" lon="12.7783546"><ele>391.25</ele><time>2026-03-08T14:50:55.946Z</time></trkpt><trkpt lat="43.7646703" lon="12.7785503"><ele>392.0</ele><time>2026-03-08T14:50:56.946Z</time></trkpt><trkpt lat="43.7646914" lon="12.7787297"><ele>392.0</ele><time>2026-03-08T14:50:57.946Z</time></trkpt><trkpt lat="43.7647434" lon="12.7788985"><ele>392.0</ele><time>2026-03-08T14:50:58.947Z</time></trkpt><trkpt lat="43.7648244" lon="12.7790565"><ele>392.0</ele><time>2026-03-08T14:50:59.946Z</time></trkpt><trkpt lat="43.7649253" lon="12.7791819"><ele>392.0</ele><time>2026-03-08T14:51:00.947Z</time></trkpt><trkpt lat="43.7650637" lon="12.7792216"><ele>391.25</ele><time>2026-03-08T14:51:01.946Z</time></trkpt><trkpt lat="43.7652082" lon="12.7792638"><ele>390.5</ele><time>2026-03-08T14:51:02.946Z</time></trkpt><trkpt lat="43.7653558" lon="12.7792835"><ele>389.75</ele><time>2026-03-08T14:51:03.947Z</time></trkpt><trkpt lat="43.7655014" lon="12.7792873"><ele>389.0</ele><time>2026-03-08T14:51:04.947Z</time></trkpt><trkpt lat="43.7656496" lon="12.7792651"><ele>389.0</ele><time>2026-03-08T14:51:05.946Z</time></trkpt><trkpt lat="43.7657928" lon="12.779217"><ele>389.0</ele><time>2026-03-08T14:51:06.946Z</time></trkpt><trkpt lat="43.7659325" lon="12.7791432"><ele>389.0</ele><time>2026-03-08T14:51:07.946Z</time></trkpt><trkpt lat="43.7660707" lon="12.7790587"><ele>389.0</ele><time>2026-03-08T14:51:08.948Z</time></trkpt><trkpt lat="43.7662043" lon="12.7789778"><ele>389.0</ele><time>2026-03-08T14:51:09.948Z</time></trkpt><trkpt lat="43.7663359" lon="12.7788969"><ele>389.0</ele><time>2026-03-08T14:51:10.946Z</time></trkpt><trkpt lat="43.7664645" lon="12.7788129"><ele>389.0</ele><time>2026-03-08T14:51:11.947Z</time></trkpt><trkpt lat="43.766596" lon="12.7787376"><ele>389.0</ele><time>2026-03-08T14:51:12.947Z</time></trkpt><trkpt lat="43.7667342" lon="12.7786852"><ele>387.66666666666663</ele><time>2026-03-08T14:51:13.947Z</time></trkpt><trkpt lat="43.7668873" lon="12.7786726"><ele>386.33333333333337</ele><time>2026-03-08T14:51:14.947Z</time></trkpt><trkpt lat="43.7670401" lon="12.778661"><ele>385.0</ele><time>2026-03-08T14:51:15.946Z</time></trkpt><trkpt lat="43.7671964" lon="12.7786526"><ele>385.0</ele><time>2026-03-08T14:51:16.946Z</time></trkpt><trkpt lat="43.7673453" lon="12.7786527"><ele>385.0</ele><time>2026-03-08T14:51:17.947Z</time></trkpt><trkpt lat="43.7674928" lon="12.7786402"><ele>385.0</ele><time>2026-03-08T14:51:18.946Z</time></trkpt><trkpt lat="43.7676288" lon="12.7786532"><ele>385.0</ele><time>2026-03-08T14:51:19.946Z</time></trkpt><trkpt lat="43.7677637" lon="12.7786752"><ele>384.25</ele><time>2026-03-08T14:51:20.947Z</time></trkpt><trkpt lat="43.7679" lon="12.7787391"><ele>383.5</ele><time>2026-03-08T14:51:21.946Z</time></trkpt><trkpt lat="43.7680235" lon="12.7788358"><ele>382.75</ele><time>2026-03-08T14:51:22.947Z</time></trkpt><trkpt lat="43.7681576" lon="12.7789287"><ele>382.0</ele><time>2026-03-08T14:51:23.947Z</time></trkpt><trkpt lat="43.7683042" lon="12.7789915"><ele>382.0</ele><time>2026-03-08T14:51:24.947Z</time></trkpt><trkpt lat="43.7684498" lon="12.7790255"><ele>382.0</ele><time>2026-03-08T14:51:25.947Z</time></trkpt><trkpt lat="43.7685973" lon="12.7790225"><ele>382.0</ele><time>2026-03-08T14:51:26.946Z</time></trkpt><trkpt lat="43.7687423" lon="12.7789921"><ele>382.0</ele><time>2026-03-08T14:51:27.947Z</time></trkpt><trkpt lat="43.7688862" lon="12.7789489"><ele>382.3333333333333</ele><time>2026-03-08T14:51:28.947Z</time></trkpt><trkpt lat="43.7690402" lon="12.7788956"><ele>382.6666666666667</ele><time>2026-03-08T14:51:29.946Z</time></trkpt><trkpt lat="43.7691842" lon="12.7788286"><ele>383.0</ele><time>2026-03-08T14:51:30.947Z</time></trkpt><trkpt lat="43.7693273" lon="12.7787623"><ele>383.0</ele><time>2026-03-08T14:51:31.946Z</time></trkpt><trkpt lat="43.769463" lon="12.7786936"><ele>383.0</ele><time>2026-03-08T14:51:32.947Z</time></trkpt><trkpt lat="43.7695881" lon="12.7786171"><ele>383.0</ele><time>2026-03-08T14:51:33.947Z</time></trkpt><trkpt lat="43.7697009" lon="12.7785347"><ele>383.0</ele><time>2026-03-08T14:51:34.946Z</time></trkpt><trkpt lat="43.7698249" lon="12.7784779"><ele>383.0</ele><time>2026-03-08T14:51:35.946Z</time></trkpt><trkpt lat="43.7699371" lon="12.7784457"><ele>383.0</ele><time>2026-03-08T14:51:36.946Z</time></trkpt><trkpt lat="43.7700546" lon="12.7784518"><ele>383.0</ele><time>2026-03-08T14:51:37.946Z</time></trkpt><trkpt lat="43.7701696" lon="12.7785325"><ele>383.0</ele><time>2026-03-08T14:51:38.946Z</time></trkpt><trkpt lat="43.7702817" lon="12.778622"><ele>379.5</ele><time>2026-03-08T14:51:39.946Z</time></trkpt><trkpt lat="43.7703773" lon="12.7787699"><ele>376.0</ele><time>2026-03-08T14:51:40.946Z</time></trkpt><trkpt lat="43.7704631" lon="12.7789243"><ele>372.5</ele><time>2026-03-08T14:51:41.948Z</time></trkpt><trkpt lat="43.7705584" lon="12.7790839"><ele>369.0</ele><time>2026-03-08T14:51:42.946Z</time></trkpt><trkpt lat="43.7706467" lon="12.7792297"><ele>369.25</ele><time>2026-03-08T14:51:43.947Z</time></trkpt><trkpt lat="43.7707361" lon="12.779367"><ele>369.5</ele><time>2026-03-08T14:51:44.946Z</time></trkpt><trkpt lat="43.7708284" lon="12.7794952"><ele>369.75</ele><time>2026-03-08T14:51:45.947Z</time></trkpt><trkpt lat="43.7709303" lon="12.7795953"><ele>370.0</ele><time>2026-03-08T14:51:46.947Z</time></trkpt><trkpt lat="43.7710451" lon="12.779666"><ele>370.0</ele><time>2026-03-08T14:51:47.946Z</time></trkpt><trkpt lat="43.7711666" lon="12.7797303"><ele>370.0</ele><time>2026-03-08T14:51:48.947Z</time></trkpt><trkpt lat="43.7712922" lon="12.7797792"><ele>370.0</ele><time>2026-03-08T14:51:49.946Z</time></trkpt><trkpt lat="43.7714173" lon="12.779824"><ele>370.0</ele><time>2026-03-08T14:51:50.946Z</time></trkpt><trkpt lat="43.7715399" lon="12.7799101"><ele>370.0</ele><time>2026-03-08T14:51:51.947Z</time></trkpt><trkpt lat="43.7716622" lon="12.7799921"><ele>370.0</ele><time>2026-03-08T14:51:52.946Z</time></trkpt><trkpt lat="43.7717886" lon="12.7800809"><ele>370.0</ele><time>2026-03-08T14:51:53.947Z</time></trkpt><trkpt lat="43.7719078" lon="12.7801947"><ele>370.0</ele><time>2026-03-08T14:51:54.947Z</time></trkpt><trkpt lat="43.7720338" lon="12.7803021"><ele>369.0</ele><time>2026-03-08T14:51:55.947Z</time></trkpt><trkpt lat="43.7721462" lon="12.7804148"><ele>368.0</ele><time>2026-03-08T14:51:56.947Z</time></trkpt><trkpt lat="43.7722603" lon="12.7805252"><ele>367.0</ele><time>2026-03-08T14:51:57.947Z</time></trkpt><trkpt lat="43.7723353" lon="12.7806661"><ele>366.0</ele><time>2026-03-08T14:51:58.947Z</time></trkpt><trkpt lat="43.7723976" lon="12.7808118"><ele>366.0</ele><time>2026-03-08T14:51:59.947Z</time></trkpt><trkpt lat="43.7724464" lon="12.7809878"><ele>366.0</ele><time>2026-03-08T14:52:00.946Z</time></trkpt><trkpt lat="43.7724974" lon="12.7811639"><ele>366.0</ele><time>2026-03-08T14:52:01.946Z</time></trkpt><trkpt lat="43.7725387" lon="12.7813419"><ele>366.0</ele><time>2026-03-08T14:52:02.946Z</time></trkpt><trkpt lat="43.7725972" lon="12.7815029"><ele>363.75</ele><time>2026-03-08T14:52:03.947Z</time></trkpt><trkpt lat="43.7726736" lon="12.7816484"><ele>361.5</ele><time>2026-03-08T14:52:04.946Z</time></trkpt><trkpt lat="43.7727692" lon="12.7817503"><ele>359.25</ele><time>2026-03-08T14:52:05.947Z</time></trkpt><trkpt lat="43.7728872" lon="12.7818191"><ele>357.0</ele><time>2026-03-08T14:52:06.946Z</time></trkpt><trkpt lat="43.7730191" lon="12.7818406"><ele>354.75</ele><time>2026-03-08T14:52:07.946Z</time></trkpt><trkpt lat="43.7731598" lon="12.7818589"><ele>352.5</ele><time>2026-03-08T14:52:08.947Z</time></trkpt><trkpt lat="43.7733042" lon="12.7818579"><ele>350.25</ele><time>2026-03-08T14:52:09.948Z</time></trkpt><trkpt lat="43.7734423" lon="12.7818885"><ele>348.0</ele><time>2026-03-08T14:52:10.947Z</time></trkpt><trkpt lat="43.7735719" lon="12.7819738"><ele>348.0</ele><time>2026-03-08T14:52:11.946Z</time></trkpt><trkpt lat="43.7736856" lon="12.78209"><ele>348.0</ele><time>2026-03-08T14:52:12.946Z</time></trkpt><trkpt lat="43.7737696" lon="12.7822366"><ele>348.0</ele><time>2026-03-08T14:52:13.946Z</time></trkpt><trkpt lat="43.7738242" lon="12.7824077"><ele>348.0</ele><time>2026-03-08T14:52:14.946Z</time></trkpt><trkpt lat="43.7738926" lon="12.7825604"><ele>348.0</ele><time>2026-03-08T14:52:15.946Z</time></trkpt><trkpt lat="43.7739856" lon="12.7826768"><ele>348.0</ele><time>2026-03-08T14:52:16.947Z</time></trkpt><trkpt lat="43.7741054" lon="12.7827422"><ele>348.0</ele><time>2026-03-08T14:52:17.946Z</time></trkpt><trkpt lat="43.7742356" lon="12.7827801"><ele>348.0</ele><time>2026-03-08T14:52:18.947Z</time></trkpt><trkpt lat="43.7743677" lon="12.7828274"><ele>350.0</ele><time>2026-03-08T14:52:19.947Z</time></trkpt><trkpt lat="43.7744935" lon="12.7829281"><ele>352.0</ele><time>2026-03-08T14:52:20.946Z</time></trkpt><trkpt lat="43.7745968" lon="12.783053"><ele>354.0</ele><time>2026-03-08T14:52:21.946Z</time></trkpt><trkpt lat="43.7746754" lon="12.7831974"><ele>356.0</ele><time>2026-03-08T14:52:22.946Z</time></trkpt><trkpt lat="43.7747336" lon="12.7833388"><ele>356.0</ele><time>2026-03-08T14:52:23.946Z</time></trkpt><trkpt lat="43.7747887" lon="12.783467"><ele>356.0</ele><time>2026-03-08T14:52:24.947Z</time></trkpt><trkpt lat="43.7748558" lon="12.7835453"><ele>356.0</ele><time>2026-03-08T14:52:25.946Z</time></trkpt><trkpt lat="43.7749343" lon="12.7835643"><ele>356.0</ele><time>2026-03-08T14:52:26.947Z</time></trkpt><trkpt lat="43.7750074" lon="12.7835274"><ele>356.0</ele><time>2026-03-08T14:52:27.946Z</time></trkpt><trkpt lat="43.7750786" lon="12.7834634"><ele>356.0</ele><time>2026-03-08T14:52:28.947Z</time></trkpt><trkpt lat="43.7751542" lon="12.7834006"><ele>358.0</ele><time>2026-03-08T14:52:29.947Z</time></trkpt><trkpt lat="43.7752315" lon="12.7833772"><ele>360.0</ele><time>2026-03-08T14:52:30.947Z</time></trkpt><trkpt lat="43.7753039" lon="12.7834128"><ele>362.0</ele><time>2026-03-08T14:52:31.946Z</time></trkpt><trkpt lat="43.7753658" lon="12.7834977"><ele>364.0</ele><time>2026-03-08T14:52:32.947Z</time></trkpt><trkpt lat="43.7753939" lon="12.7836131"><ele>366.0</ele><time>2026-03-08T14:52:33.946Z</time></trkpt><trkpt lat="43.7754189" lon="12.7837385"><ele>368.0</ele><time>2026-03-08T14:52:34.946Z</time></trkpt><trkpt lat="43.7754513" lon="12.7838602"><ele>368.79999999999995</ele><time>2026-03-08T14:52:35.946Z</time></trkpt><trkpt lat="43.7755041" lon="12.7839718"><ele>369.6</ele><time>2026-03-08T14:52:36.947Z</time></trkpt><trkpt lat="43.7755748" lon="12.7840724"><ele>370.4</ele><time>2026-03-08T14:52:37.947Z</time></trkpt><trkpt lat="43.7756445" lon="12.784159"><ele>371.20000000000005</ele><time>2026-03-08T14:52:38.948Z</time></trkpt><trkpt lat="43.7756986" lon="12.7842497"><ele>372.0</ele><time>2026-03-08T14:52:39.947Z</time></trkpt><trkpt lat="43.7757767" lon="12.7843636"><ele>372.0</ele><time>2026-03-08T14:52:41.946Z</time></trkpt><trkpt lat="43.775837" lon="12.7845248"><ele>372.0</ele><time>2026-03-08T14:52:43.947Z</time></trkpt><trkpt lat="43.7758647" lon="12.7846416"><ele>372.0</ele><time>2026-03-08T14:52:44.947Z</time></trkpt><trkpt lat="43.7758964" lon="12.7848031"><ele>372.0</ele><time>2026-03-08T14:52:45.946Z</time></trkpt><trkpt lat="43.7759145" lon="12.7849447"><ele>372.0</ele><time>2026-03-08T14:52:46.947Z</time></trkpt><trkpt lat="43.7759384" lon="12.7851167"><ele>372.8333333333333</ele><time>2026-03-08T14:52:47.948Z</time></trkpt><trkpt lat="43.7759637" lon="12.7852728"><ele>373.6666666666667</ele><time>2026-03-08T14:52:48.947Z</time></trkpt><trkpt lat="43.7759765" lon="12.7854035"><ele>374.5</ele><time>2026-03-08T14:52:49.947Z</time></trkpt><trkpt lat="43.7759744" lon="12.7855196"><ele>375.33333333333337</ele><time>2026-03-08T14:52:50.947Z</time></trkpt><trkpt lat="43.7759468" lon="12.7856205"><ele>376.1666666666667</ele><time>2026-03-08T14:52:51.947Z</time></trkpt><trkpt lat="43.7759019" lon="12.7856927"><ele>377.0</ele><time>2026-03-08T14:52:52.947Z</time></trkpt><trkpt lat="43.7758362" lon="12.7857297"><ele>377.0</ele><time>2026-03-08T14:52:53.948Z</time></trkpt><trkpt lat="43.7757612" lon="12.7857728"><ele>377.0</ele><time>2026-03-08T14:52:54.946Z</time></trkpt><trkpt lat="43.7756772" lon="12.7858183"><ele>377.0</ele><time>2026-03-08T14:52:55.946Z</time></trkpt><trkpt lat="43.77559" lon="12.7858799"><ele>377.0</ele><time>2026-03-08T14:52:56.947Z</time></trkpt><trkpt lat="43.7755061" lon="12.7859184"><ele>377.0</ele><time>2026-03-08T14:52:57.946Z</time></trkpt><trkpt lat="43.7754335" lon="12.785967"><ele>377.0</ele><time>2026-03-08T14:52:58.948Z</time></trkpt><trkpt lat="43.7753605" lon="12.786023"><ele>377.0</ele><time>2026-03-08T14:52:59.947Z</time></trkpt><trkpt lat="43.7752681" lon="12.7860811"><ele>377.0</ele><time>2026-03-08T14:53:01.947Z</time></trkpt><trkpt lat="43.7753339" lon="12.7860635"><ele>377.0</ele><time>2026-03-08T14:53:06.947Z</time></trkpt><trkpt lat="43.7754058" lon="12.7860053"><ele>377.0</ele><time>2026-03-08T14:53:07.947Z</time></trkpt><trkpt lat="43.775496" lon="12.7859356"><ele>377.0</ele><time>2026-03-08T14:53:08.947Z</time></trkpt><trkpt lat="43.7755996" lon="12.7858775"><ele>377.0</ele><time>2026-03-08T14:53:09.947Z</time></trkpt><trkpt lat="43.7757148" lon="12.7858191"><ele>377.0</ele><time>2026-03-08T14:53:10.947Z</time></trkpt><trkpt lat="43.7758176" lon="12.7857544"><ele>377.0</ele><time>2026-03-08T14:53:11.947Z</time></trkpt><trkpt lat="43.775908" lon="12.785699"><ele>377.0</ele><time>2026-03-08T14:53:12.947Z</time></trkpt><trkpt lat="43.775992" lon="12.7856491"><ele>377.0</ele><time>2026-03-08T14:53:13.947Z</time></trkpt><trkpt lat="43.7760711" lon="12.7856256"><ele>380.0</ele><time>2026-03-08T14:53:14.948Z</time></trkpt><trkpt lat="43.7761483" lon="12.7856208"><ele>383.0</ele><time>2026-03-08T14:53:15.947Z</time></trkpt><trkpt lat="43.7762304" lon="12.7856555"><ele>386.0</ele><time>2026-03-08T14:53:16.947Z</time></trkpt><trkpt lat="43.7763198" lon="12.7856904"><ele>389.0</ele><time>2026-03-08T14:53:17.946Z</time></trkpt><trkpt lat="43.776406" lon="12.7857608"><ele>392.0</ele><time>2026-03-08T14:53:18.946Z</time></trkpt><trkpt lat="43.7764909" lon="12.7858442"><ele>392.0</ele><time>2026-03-08T14:53:19.948Z</time></trkpt><trkpt lat="43.7765611" lon="12.785949"><ele>392.0</ele><time>2026-03-08T14:53:20.947Z</time></trkpt><trkpt lat="43.7766072" lon="12.7860754"><ele>392.0</ele><time>2026-03-08T14:53:21.947Z</time></trkpt><trkpt lat="43.77663" lon="12.7862206"><ele>392.0</ele><time>2026-03-08T14:53:22.946Z</time></trkpt><trkpt lat="43.7766344" lon="12.7863569"><ele>392.0</ele><time>2026-03-08T14:53:23.946Z</time></trkpt><trkpt lat="43.7765905" lon="12.7864687"><ele>393.40000000000003</ele><time>2026-03-08T14:53:24.947Z</time></trkpt><trkpt lat="43.7765158" lon="12.7865853"><ele>394.8</ele><time>2026-03-08T14:53:25.946Z</time></trkpt><trkpt lat="43.7764335" lon="12.7866829"><ele>396.2</ele><time>2026-03-08T14:53:26.948Z</time></trkpt><trkpt lat="43.7763447" lon="12.786726"><ele>397.6</ele><time>2026-03-08T14:53:27.947Z</time></trkpt><trkpt lat="43.7762542" lon="12.7867834"><ele>399.0</ele><time>2026-03-08T14:53:28.948Z</time></trkpt><trkpt lat="43.7761321" lon="12.7868347"><ele>399.79999999999995</ele><time>2026-03-08T14:53:29.946Z</time></trkpt><trkpt lat="43.7760158" lon="12.7868983"><ele>400.59999999999997</ele><time>2026-03-08T14:53:30.947Z</time></trkpt><trkpt lat="43.7759145" lon="12.7869364"><ele>401.4</ele><time>2026-03-08T14:53:31.948Z</time></trkpt><trkpt lat="43.7758167" lon="12.7869964"><ele>402.2</ele><time>2026-03-08T14:53:32.946Z</time></trkpt><trkpt lat="43.7757333" lon="12.7870698"><ele>403.0</ele><time>2026-03-08T14:53:33.947Z</time></trkpt><trkpt lat="43.7757147" lon="12.787214"><ele>403.00000000000006</ele><time>2026-03-08T14:53:35.947Z</time></trkpt><trkpt lat="43.7756811" lon="12.787332"><ele>403.0</ele><time>2026-03-08T14:53:36.947Z</time></trkpt><trkpt lat="43.7756775" lon="12.7874814"><ele>403.0</ele><time>2026-03-08T14:53:38.946Z</time></trkpt><trkpt lat="43.7756753" lon="12.7875936"><ele>403.0</ele><time>2026-03-08T14:53:40.947Z</time></trkpt><trkpt lat="43.7757195" lon="12.7875258"><ele>403.00000000000006</ele><time>2026-03-08T14:53:44.947Z</time></trkpt><trkpt lat="43.7757047" lon="12.7873866"><ele>403.0</ele><time>2026-03-08T14:53:46.946Z</time></trkpt><trkpt lat="43.7757127" lon="12.787252"><ele>403.0</ele><time>2026-03-08T14:53:48.947Z</time></trkpt><trkpt lat="43.7757775" lon="12.7872028"><ele>403.0</ele><time>2026-03-08T14:53:50.947Z</time></trkpt><trkpt lat="43.7758762" lon="12.78723"><ele>403.0</ele><time>2026-03-08T14:53:52.947Z</time></trkpt><trkpt lat="43.7759966" lon="12.7872788"><ele>403.0</ele><time>2026-03-08T14:53:54.946Z</time></trkpt><trkpt lat="43.7760619" lon="12.787308"><ele>403.0</ele><time>2026-03-08T14:53:55.947Z</time></trkpt><trkpt lat="43.7761709" lon="12.7873879"><ele>404.50000000000006</ele><time>2026-03-08T14:53:57.946Z</time></trkpt><trkpt lat="43.7762612" lon="12.7874418"><ele>406.0</ele><time>2026-03-08T14:53:59.948Z</time></trkpt><trkpt lat="43.7763201" lon="12.7874738"><ele>407.5</ele><time>2026-03-08T14:54:55.947Z</time></trkpt><trkpt lat="43.7764006" lon="12.7874857"><ele>409.0</ele><time>2026-03-08T14:54:57.946Z</time></trkpt><trkpt lat="43.7764683" lon="12.7874638"><ele>410.50000000000006</ele><time>2026-03-08T14:54:58.946Z</time></trkpt><trkpt lat="43.7765356" lon="12.7874128"><ele>412.0</ele><time>2026-03-08T14:54:59.948Z</time></trkpt><trkpt lat="43.7766013" lon="12.7873439"><ele>412.0</ele><time>2026-03-08T14:55:00.947Z</time></trkpt><trkpt lat="43.7766757" lon="12.7872828"><ele>412.0</ele><time>2026-03-08T14:55:01.946Z</time></trkpt><trkpt lat="43.7767619" lon="12.7872206"><ele>412.0</ele><time>2026-03-08T14:55:02.946Z</time></trkpt><trkpt lat="43.776863" lon="12.7871748"><ele>412.0</ele><time>2026-03-08T14:55:03.946Z</time></trkpt><trkpt lat="43.7769822" lon="12.7871305"><ele>412.0</ele><time>2026-03-08T14:55:04.948Z</time></trkpt><trkpt lat="43.7771133" lon="12.7870738"><ele>412.0</ele><time>2026-03-08T14:55:05.947Z</time></trkpt><trkpt lat="43.7772434" lon="12.7870199"><ele>412.0</ele><time>2026-03-08T14:55:06.946Z</time></trkpt><trkpt lat="43.7773753" lon="12.786966"><ele>412.0</ele><time>2026-03-08T14:55:07.947Z</time></trkpt><trkpt lat="43.7774998" lon="12.7869004"><ele>412.0</ele><time>2026-03-08T14:55:08.946Z</time></trkpt><trkpt lat="43.7776097" lon="12.7868304"><ele>413.0</ele><time>2026-03-08T14:55:09.947Z</time></trkpt><trkpt lat="43.7777182" lon="12.7867714"><ele>414.0</ele><time>2026-03-08T14:55:10.947Z</time></trkpt><trkpt lat="43.7778259" lon="12.7867213"><ele>415.0</ele><time>2026-03-08T14:55:11.947Z</time></trkpt><trkpt lat="43.7779145" lon="12.7866999"><ele>416.0</ele><time>2026-03-08T14:55:12.946Z</time></trkpt><trkpt lat="43.7779891" lon="12.7867082"><ele>417.0</ele><time>2026-03-08T14:55:13.947Z</time></trkpt><trkpt lat="43.7780567" lon="12.786749"><ele>417.0</ele><time>2026-03-08T14:55:14.947Z</time></trkpt><trkpt lat="43.778138" lon="12.7868261"><ele>417.0</ele><time>2026-03-08T14:55:15.947Z</time></trkpt><trkpt lat="43.7782018" lon="12.7868987"><ele>417.0</ele><time>2026-03-08T14:55:16.946Z</time></trkpt><trkpt lat="43.7782688" lon="12.7869667"><ele>417.0</ele><time>2026-03-08T14:55:17.946Z</time></trkpt><trkpt lat="43.7783393" lon="12.7870504"><ele>417.0</ele><time>2026-03-08T14:55:18.947Z</time></trkpt><trkpt lat="43.778392" lon="12.7871368"><ele>417.0</ele><time>2026-03-08T14:55:19.946Z</time></trkpt><trkpt lat="43.7784263" lon="12.7872382"><ele>418.6666666666667</ele><time>2026-03-08T14:55:20.946Z</time></trkpt><trkpt lat="43.7784368" lon="12.7873419"><ele>420.33333333333337</ele><time>2026-03-08T14:55:21.948Z</time></trkpt><trkpt lat="43.7784244" lon="12.7874315"><ele>422.0</ele><time>2026-03-08T14:55:22.947Z</time></trkpt><trkpt lat="43.7783876" lon="12.7875116"><ele>423.6666666666667</ele><time>2026-03-08T14:55:23.946Z</time></trkpt><trkpt lat="43.7783251" lon="12.7875818"><ele>425.33333333333337</ele><time>2026-03-08T14:55:24.948Z</time></trkpt><trkpt lat="43.7782584" lon="12.7876692"><ele>427.0</ele><time>2026-03-08T14:55:25.947Z</time></trkpt><trkpt lat="43.7781906" lon="12.7877495"><ele>428.8</ele><time>2026-03-08T14:55:26.947Z</time></trkpt><trkpt lat="43.7781385" lon="12.7878513"><ele>430.6</ele><time>2026-03-08T14:55:27.947Z</time></trkpt><trkpt lat="43.778091" lon="12.7879574"><ele>432.40000000000003</ele><time>2026-03-08T14:55:28.946Z</time></trkpt><trkpt lat="43.7780348" lon="12.7880691"><ele>434.20000000000005</ele><time>2026-03-08T14:55:29.947Z</time></trkpt><trkpt lat="43.7779682" lon="12.7881792"><ele>436.0</ele><time>2026-03-08T14:55:30.947Z</time></trkpt><trkpt lat="43.7778888" lon="12.7882893"><ele>436.00000000000006</ele><time>2026-03-08T14:55:31.946Z</time></trkpt><trkpt lat="43.7778024" lon="12.7883862"><ele>436.0</ele><time>2026-03-08T14:55:32.947Z</time></trkpt><trkpt lat="43.7777445" lon="12.7884547"><ele>436.0</ele><time>2026-03-08T14:55:33.947Z</time></trkpt><trkpt lat="43.7776968" lon="12.7885265"><ele>436.0</ele><time>2026-03-08T14:55:34.946Z</time></trkpt><trkpt lat="43.7776763" lon="12.7886863"><ele>436.00000000000006</ele><time>2026-03-08T14:55:36.948Z</time></trkpt><trkpt lat="43.7777159" lon="12.7887621"><ele>436.0</ele><time>2026-03-08T14:55:37.947Z</time></trkpt><trkpt lat="43.7777807" lon="12.7888406"><ele>436.8</ele><time>2026-03-08T14:55:38.946Z</time></trkpt><trkpt lat="43.7778652" lon="12.7889128"><ele>437.6</ele><time>2026-03-08T14:55:39.948Z</time></trkpt><trkpt lat="43.7779602" lon="12.7890015"><ele>438.4</ele><time>2026-03-08T14:55:40.947Z</time></trkpt><trkpt lat="43.7780569" lon="12.7890786"><ele>439.2</ele><time>2026-03-08T14:55:41.947Z</time></trkpt><trkpt lat="43.7781609" lon="12.7891228"><ele>440.0</ele><time>2026-03-08T14:55:42.946Z</time></trkpt><trkpt lat="43.7782605" lon="12.7891883"><ele>440.0</ele><time>2026-03-08T14:55:43.946Z</time></trkpt><trkpt lat="43.7783676" lon="12.7892529"><ele>440.0</ele><time>2026-03-08T14:55:44.946Z</time></trkpt><trkpt lat="43.7784596" lon="12.7893396"><ele>440.0</ele><time>2026-03-08T14:55:45.947Z</time></trkpt><trkpt lat="43.7785534" lon="12.7894251"><ele>440.0</ele><time>2026-03-08T14:55:46.947Z</time></trkpt><trkpt lat="43.778665" lon="12.7894905"><ele>439.0</ele><time>2026-03-08T14:55:47.946Z</time></trkpt><trkpt lat="43.7787906" lon="12.7895485"><ele>438.0</ele><time>2026-03-08T14:55:48.947Z</time></trkpt><trkpt lat="43.7789259" lon="12.7895986"><ele>437.0</ele><time>2026-03-08T14:55:49.946Z</time></trkpt><trkpt lat="43.7790487" lon="12.7896561"><ele>436.0</ele><time>2026-03-08T14:55:50.946Z</time></trkpt><trkpt lat="43.7791759" lon="12.7897193"><ele>436.0</ele><time>2026-03-08T14:55:51.947Z</time></trkpt><trkpt lat="43.7793027" lon="12.7897825"><ele>436.0</ele><time>2026-03-08T14:55:52.947Z</time></trkpt><trkpt lat="43.7794267" lon="12.7898506"><ele>436.0</ele><time>2026-03-08T14:55:53.946Z</time></trkpt><trkpt lat="43.7795424" lon="12.7899166"><ele>436.0</ele><time>2026-03-08T14:55:54.947Z</time></trkpt><trkpt lat="43.7796527" lon="12.7899722"><ele>437.6</ele><time>2026-03-08T14:55:55.946Z</time></trkpt><trkpt lat="43.7797464" lon="12.7900505"><ele>439.20000000000005</ele><time>2026-03-08T14:55:56.946Z</time></trkpt><trkpt lat="43.7798408" lon="12.7901351"><ele>440.79999999999995</ele><time>2026-03-08T14:55:57.946Z</time></trkpt><trkpt lat="43.7799326" lon="12.7902183"><ele>442.4</ele><time>2026-03-08T14:55:58.946Z</time></trkpt><trkpt lat="43.7800249" lon="12.7902815"><ele>444.0</ele><time>2026-03-08T14:55:59.946Z</time></trkpt><trkpt lat="43.7801262" lon="12.7903213"><ele>448.2</ele><time>2026-03-08T14:56:00.946Z</time></trkpt><trkpt lat="43.78024" lon="12.7903428"><ele>452.4</ele><time>2026-03-08T14:56:01.946Z</time></trkpt><trkpt lat="43.7803403" lon="12.7903657"><ele>456.6</ele><time>2026-03-08T14:56:02.946Z</time></trkpt><trkpt lat="43.7804326" lon="12.7903862"><ele>460.8</ele><time>2026-03-08T14:56:03.947Z</time></trkpt><trkpt lat="43.7805075" lon="12.7904385"><ele>465.0</ele><time>2026-03-08T14:56:04.947Z</time></trkpt><trkpt lat="43.780552" lon="12.7905411"><ele>465.0</ele><time>2026-03-08T14:56:05.948Z</time></trkpt><trkpt lat="43.780591" lon="12.7906362"><ele>465.0</ele><time>2026-03-08T14:56:06.947Z</time></trkpt><trkpt lat="43.7806233" lon="12.7907488"><ele>465.0</ele><time>2026-03-08T14:56:07.946Z</time></trkpt><trkpt lat="43.7806628" lon="12.7908581"><ele>465.0</ele><time>2026-03-08T14:56:08.947Z</time></trkpt><trkpt lat="43.7807106" lon="12.7909519"><ele>465.0</ele><time>2026-03-08T14:56:09.948Z</time></trkpt><trkpt lat="43.7807695" lon="12.7909989"><ele>465.0</ele><time>2026-03-08T14:56:10.947Z</time></trkpt><trkpt lat="43.780899" lon="12.7909615"><ele>465.0</ele><time>2026-03-08T14:56:12.948Z</time></trkpt><trkpt lat="43.7809677" lon="12.7909557"><ele>465.0</ele><time>2026-03-08T14:56:13.947Z</time></trkpt><trkpt lat="43.7810357" lon="12.7909704"><ele>465.0</ele><time>2026-03-08T14:56:14.947Z</time></trkpt><trkpt lat="43.7810813" lon="12.791082"><ele>465.0</ele><time>2026-03-08T14:56:15.948Z</time></trkpt><trkpt lat="43.7811524" lon="12.7911917"><ele>465.0</ele><time>2026-03-08T14:56:16.946Z</time></trkpt><trkpt lat="43.7812387" lon="12.7912813"><ele>465.0</ele><time>2026-03-08T14:56:17.946Z</time></trkpt><trkpt lat="43.78134" lon="12.7913571"><ele>467.2</ele><time>2026-03-08T14:56:18.947Z</time></trkpt><trkpt lat="43.7814498" lon="12.7914341"><ele>469.4</ele><time>2026-03-08T14:56:19.947Z</time></trkpt><trkpt lat="43.7815475" lon="12.7915115"><ele>471.6</ele><time>2026-03-08T14:56:20.948Z</time></trkpt><trkpt lat="43.7816297" lon="12.7915849"><ele>473.8</ele><time>2026-03-08T14:56:21.947Z</time></trkpt><trkpt lat="43.7817048" lon="12.7916497"><ele>476.0</ele><time>2026-03-08T14:56:22.948Z</time></trkpt><trkpt lat="43.7817752" lon="12.7916938"><ele>475.99999999999994</ele><time>2026-03-08T14:56:23.947Z</time></trkpt><trkpt lat="43.7818353" lon="12.7917198"><ele>476.0</ele><time>2026-03-08T14:56:24.946Z</time></trkpt><trkpt lat="43.7819282" lon="12.791703"><ele>476.0</ele><time>2026-03-08T14:56:42.947Z</time></trkpt><trkpt lat="43.7819986" lon="12.791766"><ele>476.0</ele><time>2026-03-08T14:56:45.948Z</time></trkpt><trkpt lat="43.7820572" lon="12.7918801"><ele>475.99999999999994</ele><time>2026-03-08T14:56:47.948Z</time></trkpt><trkpt lat="43.7821075" lon="12.7919932"><ele>476.0</ele><time>2026-03-08T14:56:49.947Z</time></trkpt><trkpt lat="43.7821544" lon="12.7921332"><ele>473.3333333333333</ele><time>2026-03-08T14:56:51.946Z</time></trkpt><trkpt lat="43.7822244" lon="12.7922682"><ele>470.66666666666663</ele><time>2026-03-08T14:56:53.947Z</time></trkpt><trkpt lat="43.7823067" lon="12.7923792"><ele>468.0</ele><time>2026-03-08T14:56:55.946Z</time></trkpt><trkpt lat="43.7823408" lon="12.7924554"><ele>465.33333333333337</ele><time>2026-03-08T14:56:56.947Z</time></trkpt><trkpt lat="43.7823815" lon="12.792534"><ele>462.6666666666667</ele><time>2026-03-08T14:56:57.946Z</time></trkpt><trkpt lat="43.7823513" lon="12.7926163"><ele>460.0</ele><time>2026-03-08T14:56:58.946Z</time></trkpt><trkpt lat="43.7823502" lon="12.7927586"><ele>458.6666666666667</ele><time>2026-03-08T14:57:00.946Z</time></trkpt><trkpt lat="43.782322" lon="12.7928638"><ele>457.33333333333337</ele><time>2026-03-08T14:57:02.947Z</time></trkpt><trkpt lat="43.7823071" lon="12.7929613"><ele>456.0</ele><time>2026-03-08T14:57:11.946Z</time></trkpt><trkpt lat="43.7822637" lon="12.7930755"><ele>454.66666666666663</ele><time>2026-03-08T14:57:13.947Z</time></trkpt><trkpt lat="43.7822197" lon="12.7931553"><ele>453.3333333333333</ele><time>2026-03-08T14:57:15.946Z</time></trkpt><trkpt lat="43.7821985" lon="12.7932518"><ele>452.0</ele><time>2026-03-08T14:57:46.946Z</time></trkpt><trkpt lat="43.782157" lon="12.793359"><ele>452.0</ele><time>2026-03-08T14:57:49.946Z</time></trkpt><trkpt lat="43.782108" lon="12.7934536"><ele>452.0</ele><time>2026-03-08T14:57:59.946Z</time></trkpt><trkpt lat="43.78204" lon="12.7935765"><ele>443.0</ele><time>2026-03-08T14:58:01.946Z</time></trkpt><trkpt lat="43.7819943" lon="12.793641"><ele>443.0</ele><time>2026-03-08T14:58:02.948Z</time></trkpt><trkpt lat="43.7819482" lon="12.7937389"><ele>443.0</ele><time>2026-03-08T14:58:04.946Z</time></trkpt><trkpt lat="43.7819935" lon="12.793674"><ele>443.0</ele><time>2026-03-08T14:58:09.946Z</time></trkpt></trkseg><trkseg><trkpt lat="44.4511427" lon="11.1283816"><ele>268.0</ele><time>2026-03-21T13:50:40.59Z</time></trkpt><trkpt lat="44.4510099" lon="11.1284074"><ele>268.0</ele><time>2026-03-21T13:50:42.59Z</time></trkpt><trkpt lat="44.450925" lon="11.1284251"><ele>268.0</ele><time>2026-03-21T13:50:43.588Z</time></trkpt><trkpt lat="44.4508489" lon="11.1284404"><ele>268.0</ele><time>2026-03-21T13:50:44.591Z</time></trkpt><trkpt lat="44.4507681" lon="11.128453"><ele>268.0</ele><time>2026-03-21T13:50:45.588Z</time></trkpt><trkpt lat="44.4506803" lon="11.1284632"><ele>268.0</ele><time>2026-03-21T13:50:46.589Z</time></trkpt><trkpt lat="44.4505996" lon="11.1284674"><ele>268.0</ele><time>2026-03-21T13:50:47.59Z</time></trkpt><trkpt lat="44.4505153" lon="11.1284578"><ele>268.0</ele><time>2026-03-21T13:50:48.589Z</time></trkpt><trkpt lat="44.4504358" lon="11.1284513"><ele>268.0</ele><time>2026-03-21T13:50:49.589Z</time></trkpt><trkpt lat="44.4503503" lon="11.1284383"><ele>268.0</ele><time>2026-03-21T13:50:50.589Z</time></trkpt><trkpt lat="44.4502636" lon="11.1284202"><ele>268.0</ele><time>2026-03-21T13:50:51.589Z</time></trkpt><trkpt lat="44.4501933" lon="11.1284056"><ele>268.14285714285717</ele><time>2026-03-21T13:50:52.59Z</time></trkpt><trkpt lat="44.4501226" lon="11.1283925"><ele>268.2857142857143</ele><time>2026-03-21T13:50:53.59Z</time></trkpt><trkpt lat="44.4500581" lon="11.1283779"><ele>268.42857142857144</ele><time>2026-03-21T13:50:54.59Z</time></trkpt><trkpt lat="44.4499959" lon="11.128345"><ele>268.57142857142856</ele><time>2026-03-21T13:50:55.59Z</time></trkpt><trkpt lat="44.4499377" lon="11.1282977"><ele>268.7142857142857</ele><time>2026-03-21T13:50:56.59Z</time></trkpt><trkpt lat="44.4498725" lon="11.1282473"><ele>268.8571428571429</ele><time>2026-03-21T13:50:57.589Z</time></trkpt><trkpt lat="44.4498064" lon="11.1281919"><ele>269.0</ele><time>2026-03-21T13:50:58.589Z</time></trkpt><trkpt lat="44.4497386" lon="11.1281426"><ele>268.1666666666667</ele><time>2026-03-21T13:50:59.59Z</time></trkpt><trkpt lat="44.4496604" lon="11.1280953"><ele>267.33333333333337</ele><time>2026-03-21T13:51:00.592Z</time></trkpt><trkpt lat="44.449581" lon="11.1280523"><ele>266.5</ele><time>2026-03-21T13:51:01.591Z</time></trkpt><trkpt lat="44.4495011" lon="11.1280131"><ele>265.6666666666667</ele><time>2026-03-21T13:51:02.589Z</time></trkpt><trkpt lat="44.4494157" lon="11.1279726"><ele>264.8333333333333</ele><time>2026-03-21T13:51:03.589Z</time></trkpt><trkpt lat="44.4493272" lon="11.1279336"><ele>264.0</ele><time>2026-03-21T13:51:04.588Z</time></trkpt><trkpt lat="44.449237" lon="11.1278938"><ele>264.0</ele><time>2026-03-21T13:51:05.591Z</time></trkpt><trkpt lat="44.4491494" lon="11.1278524"><ele>264.0</ele><time>2026-03-21T13:51:06.591Z</time></trkpt><trkpt lat="44.4490664" lon="11.1278199"><ele>264.0</ele><time>2026-03-21T13:51:07.59Z</time></trkpt><trkpt lat="44.4489905" lon="11.1277896"><ele>264.0</ele><time>2026-03-21T13:51:08.59Z</time></trkpt><trkpt lat="44.4489132" lon="11.1277596"><ele>264.0</ele><time>2026-03-21T13:51:09.59Z</time></trkpt><trkpt lat="44.4488284" lon="11.1277164"><ele>264.0</ele><time>2026-03-21T13:51:10.591Z</time></trkpt><trkpt lat="44.4487427" lon="11.1276671"><ele>264.6666666666667</ele><time>2026-03-21T13:51:11.589Z</time></trkpt><trkpt lat="44.4486573" lon="11.1276127"><ele>265.3333333333333</ele><time>2026-03-21T13:51:12.59Z</time></trkpt><trkpt lat="44.448586" lon="11.1275616"><ele>266.0</ele><time>2026-03-21T13:51:13.591Z</time></trkpt><trkpt lat="44.448518" lon="11.1275191"><ele>266.66666666666663</ele><time>2026-03-21T13:51:14.59Z</time></trkpt><trkpt lat="44.4484476" lon="11.1274769"><ele>267.3333333333333</ele><time>2026-03-21T13:51:15.59Z</time></trkpt><trkpt lat="44.4483739" lon="11.1274297"><ele>268.0</ele><time>2026-03-21T13:51:16.592Z</time></trkpt><trkpt lat="44.448298" lon="11.1273671"><ele>268.0</ele><time>2026-03-21T13:51:17.59Z</time></trkpt><trkpt lat="44.4482234" lon="11.1272885"><ele>268.0</ele><time>2026-03-21T13:51:18.59Z</time></trkpt><trkpt lat="44.448152" lon="11.1272039"><ele>268.0</ele><time>2026-03-21T13:51:19.59Z</time></trkpt><trkpt lat="44.4480854" lon="11.1271063"><ele>268.0</ele><time>2026-03-21T13:51:20.59Z</time></trkpt><trkpt lat="44.4480203" lon="11.1270132"><ele>268.0</ele><time>2026-03-21T13:51:21.589Z</time></trkpt><trkpt lat="44.4479617" lon="11.1269165"><ele>267.2</ele><time>2026-03-21T13:51:22.59Z</time></trkpt><trkpt lat="44.4479022" lon="11.1268255"><ele>266.4</ele><time>2026-03-21T13:51:23.59Z</time></trkpt><trkpt lat="44.4478339" lon="11.1267338"><ele>265.59999999999997</ele><time>2026-03-21T13:51:24.589Z</time></trkpt><trkpt lat="44.4477605" lon="11.1266459"><ele>264.8</ele><time>2026-03-21T13:51:25.589Z</time></trkpt><trkpt lat="44.44769" lon="11.1265568"><ele>264.0</ele><time>2026-03-21T13:51:26.59Z</time></trkpt><trkpt lat="44.4476147" lon="11.1264894"><ele>263.57142857142856</ele><time>2026-03-21T13:51:27.59Z</time></trkpt><trkpt lat="44.4475474" lon="11.1264247"><ele>263.14285714285717</ele><time>2026-03-21T13:51:28.59Z</time></trkpt><trkpt lat="44.4474823" lon="11.1263699"><ele>262.7142857142857</ele><time>2026-03-21T13:51:29.59Z</time></trkpt><trkpt lat="44.4474158" lon="11.1263271"><ele>262.2857142857143</ele><time>2026-03-21T13:51:30.59Z</time></trkpt><trkpt lat="44.4473526" lon="11.1262888"><ele>261.85714285714283</ele><time>2026-03-21T13:51:31.591Z</time></trkpt><trkpt lat="44.4472875" lon="11.1262662"><ele>261.42857142857144</ele><time>2026-03-21T13:51:32.59Z</time></trkpt><trkpt lat="44.4472249" lon="11.1262498"><ele>261.0</ele><time>2026-03-21T13:51:33.59Z</time></trkpt><trkpt lat="44.447162" lon="11.1262287"><ele>261.0</ele><time>2026-03-21T13:51:34.59Z</time></trkpt><trkpt lat="44.4470915" lon="11.1261977"><ele>261.0</ele><time>2026-03-21T13:51:35.59Z</time></trkpt><trkpt lat="44.4470195" lon="11.1261651"><ele>261.0</ele><time>2026-03-21T13:51:36.59Z</time></trkpt><trkpt lat="44.4469447" lon="11.1261252"><ele>261.0</ele><time>2026-03-21T13:51:37.59Z</time></trkpt><trkpt lat="44.446874" lon="11.1260818"><ele>261.0</ele><time>2026-03-21T13:51:38.589Z</time></trkpt><trkpt lat="44.4468026" lon="11.1260372"><ele>261.0</ele><time>2026-03-21T13:51:39.59Z</time></trkpt><trkpt lat="44.4467367" lon="11.1259934"><ele>261.0</ele><time>2026-03-21T13:51:40.59Z</time></trkpt><trkpt lat="44.4466825" lon="11.1259338"><ele>261.0</ele><time>2026-03-21T13:51:41.59Z</time></trkpt><trkpt lat="44.4465886" lon="11.1258786"><ele>261.0</ele><time>2026-03-21T13:51:43.59Z</time></trkpt><trkpt lat="44.4465203" lon="11.1258023"><ele>261.0</ele><time>2026-03-21T13:51:45.59Z</time></trkpt><trkpt lat="44.4464533" lon="11.125742"><ele>261.0</ele><time>2026-03-21T13:51:47.59Z</time></trkpt><trkpt lat="44.4463935" lon="11.1256632"><ele>261.0</ele><time>2026-03-21T13:51:49.591Z</time></trkpt><trkpt lat="44.4463134" lon="11.1255877"><ele>259.2</ele><time>2026-03-21T13:51:51.59Z</time></trkpt><trkpt lat="44.4462202" lon="11.1255242"><ele>257.40000000000003</ele><time>2026-03-21T13:51:53.59Z</time></trkpt><trkpt lat="44.4461009" lon="11.1254852"><ele>255.6</ele><time>2026-03-21T13:51:55.589Z</time></trkpt><trkpt lat="44.4460307" lon="11.12546"><ele>253.8</ele><time>2026-03-21T13:51:56.591Z</time></trkpt><trkpt lat="44.4459598" lon="11.1254383"><ele>252.0</ele><time>2026-03-21T13:51:57.59Z</time></trkpt><trkpt lat="44.4458334" lon="11.1253989"><ele>252.0</ele><time>2026-03-21T13:51:59.591Z</time></trkpt><trkpt lat="44.4457647" lon="11.1253723"><ele>252.0</ele><time>2026-03-21T13:52:00.59Z</time></trkpt><trkpt lat="44.4457022" lon="11.1253436"><ele>252.0</ele><time>2026-03-21T13:52:01.588Z</time></trkpt><trkpt lat="44.4456339" lon="11.125317"><ele>252.0</ele><time>2026-03-21T13:52:02.59Z</time></trkpt><trkpt lat="44.445556" lon="11.1252826"><ele>252.0</ele><time>2026-03-21T13:52:03.591Z</time></trkpt><trkpt lat="44.4454845" lon="11.1252644"><ele>252.0</ele><time>2026-03-21T13:52:04.59Z</time></trkpt><trkpt lat="44.4454156" lon="11.125244"><ele>252.0</ele><time>2026-03-21T13:52:05.589Z</time></trkpt><trkpt lat="44.4453468" lon="11.1252175"><ele>255.0</ele><time>2026-03-21T13:52:06.591Z</time></trkpt><trkpt lat="44.445275" lon="11.1252061"><ele>258.0</ele><time>2026-03-21T13:52:07.59Z</time></trkpt><trkpt lat="44.4451569" lon="11.1251851"><ele>261.0</ele><time>2026-03-21T13:52:09.591Z</time></trkpt><trkpt lat="44.445072" lon="11.1251844"><ele>264.0</ele><time>2026-03-21T13:52:11.59Z</time></trkpt><trkpt lat="44.4449932" lon="11.1252086"><ele>267.0</ele><time>2026-03-21T13:52:13.591Z</time></trkpt><trkpt lat="44.4449121" lon="11.1252796"><ele>267.0</ele><time>2026-03-21T13:52:15.59Z</time></trkpt><trkpt lat="44.4448565" lon="11.1253563"><ele>267.0</ele><time>2026-03-21T13:52:17.588Z</time></trkpt><trkpt lat="44.4447958" lon="11.1254168"><ele>267.0</ele><time>2026-03-21T13:52:19.589Z</time></trkpt><trkpt lat="44.4448557" lon="11.1253886"><ele>267.0</ele><time>2026-03-21T13:52:27.59Z</time></trkpt><trkpt lat="44.4448996" lon="11.1252512"><ele>267.0</ele><time>2026-03-21T13:52:29.591Z</time></trkpt><trkpt lat="44.4449786" lon="11.1251848"><ele>267.0</ele><time>2026-03-21T13:52:31.59Z</time></trkpt><trkpt lat="44.4450707" lon="11.125135"><ele>267.00000000000006</ele><time>2026-03-21T13:52:33.589Z</time></trkpt><trkpt lat="44.4451326" lon="11.1251187"><ele>267.0</ele><time>2026-03-21T13:52:34.59Z</time></trkpt><trkpt lat="44.4452305" lon="11.1251408"><ele>267.0</ele><time>2026-03-21T13:52:36.591Z</time></trkpt><trkpt lat="44.4452924" lon="11.1251626"><ele>267.0</ele><time>2026-03-21T13:52:37.591Z</time></trkpt><trkpt lat="44.4453505" lon="11.1251989"><ele>267.0</ele><time>2026-03-21T13:52:38.591Z</time></trkpt><trkpt lat="44.4454078" lon="11.1252373"><ele>267.00000000000006</ele><time>2026-03-21T13:52:39.589Z</time></trkpt><trkpt lat="44.4454685" lon="11.1252638"><ele>267.0</ele><time>2026-03-21T13:52:40.589Z</time></trkpt><trkpt lat="44.445576" lon="11.1252981"><ele>264.0</ele><time>2026-03-21T13:52:42.591Z</time></trkpt><trkpt lat="44.4456687" lon="11.1253503"><ele>261.0</ele><time>2026-03-21T13:52:44.591Z</time></trkpt><trkpt lat="44.4457796" lon="11.125402"><ele>258.0</ele><time>2026-03-21T13:52:46.59Z</time></trkpt><trkpt lat="44.4459013" lon="11.1254649"><ele>255.0</ele><time>2026-03-21T13:52:48.59Z</time></trkpt><trkpt lat="44.4460003" lon="11.1254983"><ele>252.0</ele><time>2026-03-21T13:52:50.59Z</time></trkpt><trkpt lat="44.4460565" lon="11.1255397"><ele>252.0</ele><time>2026-03-21T13:52:51.59Z</time></trkpt><trkpt lat="44.4461438" lon="11.1256208"><ele>252.0</ele><time>2026-03-21T13:52:53.591Z</time></trkpt><trkpt lat="44.4462031" lon="11.1256687"><ele>252.0</ele><time>2026-03-21T13:52:54.59Z</time></trkpt><trkpt lat="44.4463052" lon="11.1257259"><ele>252.0</ele><time>2026-03-21T13:52:56.59Z</time></trkpt><trkpt lat="44.446372" lon="11.1257794"><ele>252.0</ele><time>2026-03-21T13:52:58.59Z</time></trkpt><trkpt lat="44.4464188" lon="11.1258839"><ele>252.0</ele><time>2026-03-21T13:53:02.591Z</time></trkpt><trkpt lat="44.4464126" lon="11.125759"><ele>252.0</ele><time>2026-03-21T13:53:09.591Z</time></trkpt><trkpt lat="44.4463549" lon="11.1256605"><ele>252.0</ele><time>2026-03-21T13:53:11.591Z</time></trkpt><trkpt lat="44.4463099" lon="11.1255411"><ele>252.0</ele><time>2026-03-21T13:53:13.589Z</time></trkpt><trkpt lat="44.446249" lon="11.1254465"><ele>252.0</ele><time>2026-03-21T13:53:15.591Z</time></trkpt><trkpt lat="44.4462062" lon="11.1253785"><ele>252.0</ele><time>2026-03-21T13:53:17.591Z</time></trkpt><trkpt lat="44.4461621" lon="11.1253087"><ele>252.0</ele><time>2026-03-21T13:53:26.592Z</time></trkpt><trkpt lat="44.44609" lon="11.125286"><ele>252.0</ele><time>2026-03-21T13:53:59.59Z</time></trkpt><trkpt lat="44.4460354" lon="11.1252392"><ele>252.0</ele><time>2026-03-21T13:54:02.592Z</time></trkpt><trkpt lat="44.4459776" lon="11.1251774"><ele>252.0</ele><time>2026-03-21T13:54:11.591Z</time></trkpt><trkpt lat="44.4459343" lon="11.1251052"><ele>252.0</ele><time>2026-03-21T13:54:16.59Z</time></trkpt><trkpt lat="44.4458873" lon="11.1250146"><ele>252.0</ele><time>2026-03-21T13:54:43.591Z</time></trkpt><trkpt lat="44.4459158" lon="11.1251005"><ele>252.0</ele><time>2026-03-21T13:56:30.59Z</time></trkpt><trkpt lat="44.4459636" lon="11.1251773"><ele>252.0</ele><time>2026-03-21T13:56:41.591Z</time></trkpt><trkpt lat="44.4460087" lon="11.1252423"><ele>252.0</ele><time>2026-03-21T13:56:44.59Z</time></trkpt><trkpt lat="44.4460689" lon="11.1252877"><ele>252.0</ele><time>2026-03-21T13:56:53.591Z</time></trkpt><trkpt lat="44.4461492" lon="11.1253351"><ele>252.0</ele><time>2026-03-21T13:56:56.592Z</time></trkpt><trkpt lat="44.4462377" lon="11.1254256"><ele>252.0</ele><time>2026-03-21T13:56:58.59Z</time></trkpt><trkpt lat="44.4462949" lon="11.1255409"><ele>252.0</ele><time>2026-03-21T13:57:00.592Z</time></trkpt><trkpt lat="44.4463471" lon="11.1256657"><ele>253.5</ele><time>2026-03-21T13:57:02.59Z</time></trkpt><trkpt lat="44.4463997" lon="11.1257863"><ele>255.0</ele><time>2026-03-21T13:57:04.59Z</time></trkpt><trkpt lat="44.4464284" lon="11.125866"><ele>256.5</ele><time>2026-03-21T13:57:06.591Z</time></trkpt><trkpt lat="44.446383" lon="11.1259451"><ele>258.0</ele><time>2026-03-21T13:59:56.591Z</time></trkpt><trkpt lat="44.4463447" lon="11.126036"><ele>259.5</ele><time>2026-03-21T14:01:31.591Z</time></trkpt><trkpt lat="44.4463006" lon="11.1261199"><ele>261.0</ele><time>2026-03-21T14:01:33.591Z</time></trkpt><trkpt lat="44.4462447" lon="11.126205"><ele>261.6</ele><time>2026-03-21T14:01:35.592Z</time></trkpt><trkpt lat="44.446189" lon="11.1263262"><ele>262.20000000000005</ele><time>2026-03-21T14:01:37.591Z</time></trkpt><trkpt lat="44.4461387" lon="11.1264465"><ele>262.79999999999995</ele><time>2026-03-21T14:01:39.59Z</time></trkpt><trkpt lat="44.4460877" lon="11.1265547"><ele>263.4</ele><time>2026-03-21T14:01:41.59Z</time></trkpt><trkpt lat="44.446034" lon="11.126675"><ele>264.0</ele><time>2026-03-21T14:01:43.591Z</time></trkpt><trkpt lat="44.44596" lon="11.1268035"><ele>262.0</ele><time>2026-03-21T14:01:45.591Z</time></trkpt><trkpt lat="44.4458931" lon="11.126946"><ele>260.0</ele><time>2026-03-21T14:01:47.591Z</time></trkpt><trkpt lat="44.4458204" lon="11.1270889"><ele>258.0</ele><time>2026-03-21T14:01:49.591Z</time></trkpt><trkpt lat="44.4457819" lon="11.1271644"><ele>256.0</ele><time>2026-03-21T14:01:50.592Z</time></trkpt><trkpt lat="44.4457413" lon="11.127234"><ele>254.0</ele><time>2026-03-21T14:01:51.591Z</time></trkpt><trkpt lat="44.4456897" lon="11.1273049"><ele>254.0</ele><time>2026-03-21T14:01:52.591Z</time></trkpt><trkpt lat="44.4456442" lon="11.1273868"><ele>254.0</ele><time>2026-03-21T14:01:53.592Z</time></trkpt><trkpt lat="44.445598" lon="11.1274577"><ele>254.0</ele><time>2026-03-21T14:01:54.591Z</time></trkpt><trkpt lat="44.4455532" lon="11.1275367"><ele>254.0</ele><time>2026-03-21T14:01:55.591Z</time></trkpt><trkpt lat="44.445513" lon="11.1276113"><ele>254.0</ele><time>2026-03-21T14:01:56.591Z</time></trkpt><trkpt lat="44.4454746" lon="11.1276928"><ele>254.0</ele><time>2026-03-21T14:01:57.59Z</time></trkpt><trkpt lat="44.445442" lon="11.1277728"><ele>254.0</ele><time>2026-03-21T14:01:58.59Z</time></trkpt><trkpt lat="44.4454072" lon="11.1279325"><ele>252.00000000000003</ele><time>2026-03-21T14:02:00.591Z</time></trkpt><trkpt lat="44.4453703" lon="11.1280981"><ele>250.0</ele><time>2026-03-21T14:02:02.591Z</time></trkpt><trkpt lat="44.4453551" lon="11.1281912"><ele>248.0</ele><time>2026-03-21T14:02:03.591Z</time></trkpt><trkpt lat="44.4453431" lon="11.1282863"><ele>246.0</ele><time>2026-03-21T14:02:04.591Z</time></trkpt><trkpt lat="44.4453313" lon="11.1283731"><ele>244.00000000000003</ele><time>2026-03-21T14:02:05.591Z</time></trkpt><trkpt lat="44.4453191" lon="11.1284705"><ele>242.0</ele><time>2026-03-21T14:02:06.591Z</time></trkpt><trkpt lat="44.4453007" lon="11.1285636"><ele>240.33333333333334</ele><time>2026-03-21T14:02:07.591Z</time></trkpt><trkpt lat="44.4452861" lon="11.128652"><ele>238.66666666666669</ele><time>2026-03-21T14:02:08.591Z</time></trkpt><trkpt lat="44.4452595" lon="11.128734"><ele>237.0</ele><time>2026-03-21T14:02:09.593Z</time></trkpt><trkpt lat="44.4452186" lon="11.1289092"><ele>235.33333333333331</ele><time>2026-03-21T14:02:11.591Z</time></trkpt><trkpt lat="44.4452018" lon="11.1289968"><ele>233.66666666666666</ele><time>2026-03-21T14:02:12.591Z</time></trkpt><trkpt lat="44.4451854" lon="11.1291054"><ele>232.0</ele><time>2026-03-21T14:02:13.592Z</time></trkpt><trkpt lat="44.4451738" lon="11.1292005"><ele>231.33333333333331</ele><time>2026-03-21T14:02:14.592Z</time></trkpt><trkpt lat="44.4451604" lon="11.1292905"><ele>230.66666666666666</ele><time>2026-03-21T14:02:15.591Z</time></trkpt><trkpt lat="44.4451475" lon="11.1293804"><ele>230.0</ele><time>2026-03-21T14:02:16.591Z</time></trkpt><trkpt lat="44.4451234" lon="11.1295547"><ele>229.33333333333331</ele><time>2026-03-21T14:02:18.592Z</time></trkpt><trkpt lat="44.4451091" lon="11.129653"><ele>228.66666666666666</ele><time>2026-03-21T14:02:19.592Z</time></trkpt><trkpt lat="44.4450922" lon="11.129759"><ele>228.0</ele><time>2026-03-21T14:02:21.591Z</time></trkpt><trkpt lat="44.4450548" lon="11.1298509"><ele>228.0</ele><time>2026-03-21T14:02:25.59Z</time></trkpt><trkpt lat="44.4449683" lon="11.1298296"><ele>228.0</ele><time>2026-03-21T14:02:30.591Z</time></trkpt><trkpt lat="44.4449152" lon="11.1297268"><ele>228.0</ele><time>2026-03-21T14:02:32.591Z</time></trkpt><trkpt lat="44.4448882" lon="11.129599"><ele>228.0</ele><time>2026-03-21T14:02:34.591Z</time></trkpt><trkpt lat="44.4448686" lon="11.1294678"><ele>228.0</ele><time>2026-03-21T14:02:36.591Z</time></trkpt><trkpt lat="44.444857" lon="11.1293401"><ele>228.0</ele><time>2026-03-21T14:02:38.59Z</time></trkpt><trkpt lat="44.4448587" lon="11.1292083"><ele>228.0</ele><time>2026-03-21T14:02:40.591Z</time></trkpt><trkpt lat="44.4448601" lon="11.1291103"><ele>228.0</ele><time>2026-03-21T14:02:41.591Z</time></trkpt><trkpt lat="44.4448506" lon="11.1289541"><ele>228.0</ele><time>2026-03-21T14:02:43.59Z</time></trkpt><trkpt lat="44.4448083" lon="11.1288227"><ele>228.0</ele><time>2026-03-21T14:02:45.591Z</time></trkpt><trkpt lat="44.4447604" lon="11.1286974"><ele>227.8</ele><time>2026-03-21T14:02:47.592Z</time></trkpt><trkpt lat="44.4446912" lon="11.1286303"><ele>227.60000000000002</ele><time>2026-03-21T14:02:49.59Z</time></trkpt><trkpt lat="44.4446059" lon="11.1285576"><ele>227.39999999999998</ele><time>2026-03-21T14:02:51.59Z</time></trkpt><trkpt lat="44.4445402" lon="11.1285288"><ele>227.2</ele><time>2026-03-21T14:02:52.591Z</time></trkpt><trkpt lat="44.4444106" lon="11.1284638"><ele>227.0</ele><time>2026-03-21T14:02:54.591Z</time></trkpt><trkpt lat="44.4443534" lon="11.1283807"><ele>227.00000000000003</ele><time>2026-03-21T14:02:56.591Z</time></trkpt><trkpt lat="44.4442787" lon="11.1282887"><ele>227.0</ele><time>2026-03-21T14:02:58.59Z</time></trkpt><trkpt lat="44.4442331" lon="11.1281982"><ele>227.0</ele><time>2026-03-21T14:03:00.59Z</time></trkpt><trkpt lat="44.4441253" lon="11.1281685"><ele>227.0</ele><time>2026-03-21T14:03:02.591Z</time></trkpt><trkpt lat="44.4440566" lon="11.12815"><ele>227.00000000000003</ele><time>2026-03-21T14:03:04.592Z</time></trkpt><trkpt lat="44.4439818" lon="11.1281524"><ele>227.0</ele><time>2026-03-21T14:03:06.591Z</time></trkpt><trkpt lat="44.443899" lon="11.1281974"><ele>230.39999999999998</ele><time>2026-03-21T14:03:08.593Z</time></trkpt><trkpt lat="44.4437875" lon="11.1282941"><ele>233.79999999999998</ele><time>2026-03-21T14:03:10.591Z</time></trkpt><trkpt lat="44.4437312" lon="11.1283539"><ele>237.2</ele><time>2026-03-21T14:03:11.592Z</time></trkpt><trkpt lat="44.4436765" lon="11.1284209"><ele>240.6</ele><time>2026-03-21T14:03:12.591Z</time></trkpt><trkpt lat="44.4436264" lon="11.1284786"><ele>244.0</ele><time>2026-03-21T14:03:13.592Z</time></trkpt><trkpt lat="44.4435356" lon="11.1285931"><ele>243.99999999999997</ele><time>2026-03-21T14:03:15.591Z</time></trkpt><trkpt lat="44.4434974" lon="11.1286735"><ele>244.0</ele><time>2026-03-21T14:03:16.591Z</time></trkpt><trkpt lat="44.443465" lon="11.12875"><ele>243.99999999999997</ele><time>2026-03-21T14:03:17.592Z</time></trkpt><trkpt lat="44.4434449" lon="11.1288385"><ele>243.99999999999997</ele><time>2026-03-21T14:03:18.592Z</time></trkpt><trkpt lat="44.4434075" lon="11.1289283"><ele>244.0</ele><time>2026-03-21T14:03:19.591Z</time></trkpt><trkpt lat="44.4433719" lon="11.1290116"><ele>243.99999999999997</ele><time>2026-03-21T14:03:20.591Z</time></trkpt><trkpt lat="44.4433382" lon="11.129087"><ele>243.99999999999997</ele><time>2026-03-21T14:03:21.59Z</time></trkpt><trkpt lat="44.4433013" lon="11.1291703"><ele>243.66666666666666</ele><time>2026-03-21T14:03:22.592Z</time></trkpt><trkpt lat="44.4432361" lon="11.1292691"><ele>243.33333333333331</ele><time>2026-03-21T14:03:24.592Z</time></trkpt><trkpt lat="44.4431926" lon="11.1293488"><ele>243.0</ele><time>2026-03-21T14:03:25.591Z</time></trkpt><trkpt lat="44.4431529" lon="11.1294194"><ele>242.66666666666669</ele><time>2026-03-21T14:03:26.591Z</time></trkpt><trkpt lat="44.443088" lon="11.1295112"><ele>242.33333333333334</ele><time>2026-03-21T14:03:28.59Z</time></trkpt><trkpt lat="44.443037" lon="11.1295668"><ele>242.0</ele><time>2026-03-21T14:03:29.592Z</time></trkpt><trkpt lat="44.4429438" lon="11.1296615"><ele>243.14285714285714</ele><time>2026-03-21T14:03:31.591Z</time></trkpt><trkpt lat="44.4428933" lon="11.1297217"><ele>244.28571428571428</ele><time>2026-03-21T14:03:32.591Z</time></trkpt><trkpt lat="44.4428392" lon="11.1297791"><ele>245.42857142857142</ele><time>2026-03-21T14:03:33.591Z</time></trkpt><trkpt lat="44.4428084" lon="11.1298594"><ele>246.57142857142856</ele><time>2026-03-21T14:03:34.591Z</time></trkpt><trkpt lat="44.4427642" lon="11.1299276"><ele>247.71428571428572</ele><time>2026-03-21T14:03:35.591Z</time></trkpt><trkpt lat="44.4427185" lon="11.1299935"><ele>248.85714285714283</ele><time>2026-03-21T14:03:36.591Z</time></trkpt><trkpt lat="44.4426673" lon="11.1300552"><ele>250.0</ele><time>2026-03-21T14:03:37.591Z</time></trkpt><trkpt lat="44.4426122" lon="11.1301219"><ele>249.99999999999997</ele><time>2026-03-21T14:03:38.591Z</time></trkpt><trkpt lat="44.4425622" lon="11.1301879"><ele>250.0</ele><time>2026-03-21T14:03:39.591Z</time></trkpt><trkpt lat="44.4424817" lon="11.1303229"><ele>250.0</ele><time>2026-03-21T14:03:41.592Z</time></trkpt><trkpt lat="44.4424107" lon="11.1304358"><ele>250.0</ele><time>2026-03-21T14:03:43.592Z</time></trkpt><trkpt lat="44.4423598" lon="11.1304962"><ele>249.99999999999997</ele><time>2026-03-21T14:03:45.593Z</time></trkpt><trkpt lat="44.4422963" lon="11.1304611"><ele>250.0</ele><time>2026-03-21T14:03:48.592Z</time></trkpt><trkpt lat="44.4422624" lon="11.1303448"><ele>250.0</ele><time>2026-03-21T14:03:50.592Z</time></trkpt><trkpt lat="44.4421937" lon="11.1302288"><ele>250.0</ele><time>2026-03-21T14:03:52.591Z</time></trkpt><trkpt lat="44.4421062" lon="11.1301238"><ele>250.0</ele><time>2026-03-21T14:03:54.591Z</time></trkpt><trkpt lat="44.4420174" lon="11.1300553"><ele>250.0</ele><time>2026-03-21T14:03:56.59Z</time></trkpt><trkpt lat="44.4419173" lon="11.1300291"><ele>250.0</ele><time>2026-03-21T14:03:58.591Z</time></trkpt><trkpt lat="44.4418171" lon="11.1300186"><ele>252.2</ele><time>2026-03-21T14:04:00.59Z</time></trkpt><trkpt lat="44.4417249" lon="11.1300009"><ele>254.4</ele><time>2026-03-21T14:04:02.591Z</time></trkpt><trkpt lat="44.4416609" lon="11.1300073"><ele>256.6</ele><time>2026-03-21T14:04:03.591Z</time></trkpt><trkpt lat="44.4415222" lon="11.130037"><ele>258.8</ele><time>2026-03-21T14:04:05.592Z</time></trkpt><trkpt lat="44.4414305" lon="11.1300677"><ele>261.0</ele><time>2026-03-21T14:04:07.591Z</time></trkpt><trkpt lat="44.4413503" lon="11.1301015"><ele>260.0</ele><time>2026-03-21T14:04:08.593Z</time></trkpt><trkpt lat="44.4412655" lon="11.1301447"><ele>259.0</ele><time>2026-03-21T14:04:10.593Z</time></trkpt><trkpt lat="44.4412006" lon="11.1301464"><ele>258.0</ele><time>2026-03-21T14:04:11.591Z</time></trkpt><trkpt lat="44.4411294" lon="11.1301288"><ele>257.0</ele><time>2026-03-21T14:04:13.591Z</time></trkpt><trkpt lat="44.4410662" lon="11.1301383"><ele>256.0</ele><time>2026-03-21T14:04:15.591Z</time></trkpt><trkpt lat="44.4409906" lon="11.1300844"><ele>255.0</ele><time>2026-03-21T14:04:17.592Z</time></trkpt><trkpt lat="44.4409136" lon="11.1299952"><ele>255.0</ele><time>2026-03-21T14:04:19.592Z</time></trkpt><trkpt lat="44.4408205" lon="11.1299134"><ele>255.0</ele><time>2026-03-21T14:04:21.593Z</time></trkpt><trkpt lat="44.4407317" lon="11.1298636"><ele>255.0</ele><time>2026-03-21T14:04:23.591Z</time></trkpt><trkpt lat="44.4406398" lon="11.1298303"><ele>255.0</ele><time>2026-03-21T14:04:25.59Z</time></trkpt><trkpt lat="44.4405183" lon="11.1298546"><ele>255.0</ele><time>2026-03-21T14:04:27.591Z</time></trkpt><trkpt lat="44.4404099" lon="11.129822"><ele>254.2857142857143</ele><time>2026-03-21T14:04:29.593Z</time></trkpt><trkpt lat="44.4403177" lon="11.1298036"><ele>253.5714285714286</ele><time>2026-03-21T14:04:30.592Z</time></trkpt><trkpt lat="44.4402502" lon="11.1297855"><ele>252.85714285714286</ele><time>2026-03-21T14:04:31.592Z</time></trkpt><trkpt lat="44.4401802" lon="11.1297704"><ele>252.14285714285717</ele><time>2026-03-21T14:04:32.592Z</time></trkpt><trkpt lat="44.440108" lon="11.1297456"><ele>251.42857142857144</ele><time>2026-03-21T14:04:33.592Z</time></trkpt><trkpt lat="44.4400387" lon="11.1297319"><ele>250.71428571428572</ele><time>2026-03-21T14:04:34.592Z</time></trkpt><trkpt lat="44.4399683" lon="11.1297486"><ele>250.0</ele><time>2026-03-21T14:04:35.591Z</time></trkpt><trkpt lat="44.4398735" lon="11.1297725"><ele>250.0</ele><time>2026-03-21T14:04:37.59Z</time></trkpt><trkpt lat="44.4398055" lon="11.1297443"><ele>250.0</ele><time>2026-03-21T14:04:38.591Z</time></trkpt><trkpt lat="44.439687" lon="11.1297021"><ele>250.0</ele><time>2026-03-21T14:04:40.592Z</time></trkpt><trkpt lat="44.4395723" lon="11.1296763"><ele>250.0</ele><time>2026-03-21T14:04:42.591Z</time></trkpt><trkpt lat="44.4394587" lon="11.1296461"><ele>250.0</ele><time>2026-03-21T14:04:44.592Z</time></trkpt><trkpt lat="44.439398" lon="11.1296193"><ele>249.49999999999997</ele><time>2026-03-21T14:04:45.591Z</time></trkpt><trkpt lat="44.439334" lon="11.1295824"><ele>249.0</ele><time>2026-03-21T14:04:46.591Z</time></trkpt><trkpt lat="44.4392394" lon="11.129517"><ele>248.5</ele><time>2026-03-21T14:04:48.592Z</time></trkpt><trkpt lat="44.4391578" lon="11.1294884"><ele>248.0</ele><time>2026-03-21T14:04:50.591Z</time></trkpt><trkpt lat="44.4390899" lon="11.1295203"><ele>247.49999999999997</ele><time>2026-03-21T14:04:53.591Z</time></trkpt><trkpt lat="44.4390696" lon="11.1296472"><ele>247.0</ele><time>2026-03-21T14:04:55.59Z</time></trkpt><trkpt lat="44.4390502" lon="11.1297543"><ele>246.99999999999997</ele><time>2026-03-21T14:04:57.592Z</time></trkpt><trkpt lat="44.4390236" lon="11.1298508"><ele>247.0</ele><time>2026-03-21T14:04:59.593Z</time></trkpt><trkpt lat="44.4389842" lon="11.1299733"><ele>247.0</ele><time>2026-03-21T14:05:01.59Z</time></trkpt><trkpt lat="44.4389312" lon="11.1300916"><ele>247.0</ele><time>2026-03-21T14:05:03.592Z</time></trkpt><trkpt lat="44.4388805" lon="11.130172"><ele>246.99999999999997</ele><time>2026-03-21T14:05:05.592Z</time></trkpt><trkpt lat="44.4388522" lon="11.1302531"><ele>247.0</ele><time>2026-03-21T14:05:07.591Z</time></trkpt><trkpt lat="44.4388489" lon="11.1303438"><ele>247.49999999999997</ele><time>2026-03-21T14:05:10.591Z</time></trkpt><trkpt lat="44.4388823" lon="11.1304222"><ele>248.0</ele><time>2026-03-21T14:05:13.592Z</time></trkpt><trkpt lat="44.4388319" lon="11.1305314"><ele>248.5</ele><time>2026-03-21T14:06:19.592Z</time></trkpt><trkpt lat="44.4387651" lon="11.1305845"><ele>249.0</ele><time>2026-03-21T14:06:22.591Z</time></trkpt><trkpt lat="44.4387051" lon="11.1306157"><ele>249.49999999999997</ele><time>2026-03-21T14:06:33.592Z</time></trkpt><trkpt lat="44.4386076" lon="11.1306281"><ele>250.0</ele><time>2026-03-21T14:06:35.592Z</time></trkpt><trkpt lat="44.4385149" lon="11.130617"><ele>250.0</ele><time>2026-03-21T14:06:37.593Z</time></trkpt><trkpt lat="44.4384079" lon="11.1306359"><ele>250.0</ele><time>2026-03-21T14:06:39.593Z</time></trkpt><trkpt lat="44.43829" lon="11.13069"><ele>250.0</ele><time>2026-03-21T14:06:41.594Z</time></trkpt><trkpt lat="44.4382238" lon="11.1306931"><ele>250.0</ele><time>2026-03-21T14:06:42.592Z</time></trkpt><trkpt lat="44.4381505" lon="11.1307027"><ele>250.0</ele><time>2026-03-21T14:06:43.591Z</time></trkpt><trkpt lat="44.4380195" lon="11.130712"><ele>250.16666666666666</ele><time>2026-03-21T14:06:45.592Z</time></trkpt><trkpt lat="44.4379172" lon="11.1307391"><ele>250.33333333333331</ele><time>2026-03-21T14:06:47.593Z</time></trkpt><trkpt lat="44.437851" lon="11.1307448"><ele>250.5</ele><time>2026-03-21T14:06:51.591Z</time></trkpt><trkpt lat="44.4377864" lon="11.1307099"><ele>250.66666666666669</ele><time>2026-03-21T14:06:53.59Z</time></trkpt><trkpt lat="44.4377062" lon="11.1306811"><ele>250.83333333333334</ele><time>2026-03-21T14:06:55.593Z</time></trkpt><trkpt lat="44.4376029" lon="11.130663"><ele>251.0</ele><time>2026-03-21T14:06:57.593Z</time></trkpt><trkpt lat="44.4374903" lon="11.130615"><ele>251.16666666666669</ele><time>2026-03-21T14:06:59.591Z</time></trkpt><trkpt lat="44.437426" lon="11.1306199"><ele>251.33333333333334</ele><time>2026-03-21T14:07:00.591Z</time></trkpt><trkpt lat="44.4372994" lon="11.1305926"><ele>251.5</ele><time>2026-03-21T14:07:02.591Z</time></trkpt><trkpt lat="44.4372359" lon="11.1305747"><ele>251.66666666666669</ele><time>2026-03-21T14:07:03.593Z</time></trkpt><trkpt lat="44.4371772" lon="11.1305404"><ele>251.83333333333334</ele><time>2026-03-21T14:07:04.592Z</time></trkpt><trkpt lat="44.4371146" lon="11.1305282"><ele>252.0</ele><time>2026-03-21T14:07:05.591Z</time></trkpt><trkpt lat="44.4370054" lon="11.1305161"><ele>252.0</ele><time>2026-03-21T14:07:07.591Z</time></trkpt><trkpt lat="44.4369035" lon="11.1305207"><ele>252.0</ele><time>2026-03-21T14:07:09.591Z</time></trkpt><trkpt lat="44.4368396" lon="11.1305173"><ele>252.0</ele><time>2026-03-21T14:07:12.592Z</time></trkpt><trkpt lat="44.4367987" lon="11.1304242"><ele>252.0</ele><time>2026-03-21T14:07:15.592Z</time></trkpt><trkpt lat="44.4367712" lon="11.1303346"><ele>252.0</ele><time>2026-03-21T14:07:17.592Z</time></trkpt><trkpt lat="44.4367119" lon="11.1302821"><ele>252.0</ele><time>2026-03-21T14:07:22.591Z</time></trkpt><trkpt lat="44.4366247" lon="11.1302644"><ele>252.0</ele><time>2026-03-21T14:07:24.591Z</time></trkpt><trkpt lat="44.4365164" lon="11.1302649"><ele>252.0</ele><time>2026-03-21T14:07:26.592Z</time></trkpt><trkpt lat="44.4364075" lon="11.1302485"><ele>252.0</ele><time>2026-03-21T14:07:28.593Z</time></trkpt><trkpt lat="44.4362968" lon="11.1302515"><ele>252.0</ele><time>2026-03-21T14:07:30.592Z</time></trkpt><trkpt lat="44.4362282" lon="11.130247"><ele>252.0</ele><time>2026-03-21T14:07:31.592Z</time></trkpt><trkpt lat="44.4361567" lon="11.1302367"><ele>253.33333333333334</ele><time>2026-03-21T14:07:32.592Z</time></trkpt><trkpt lat="44.4360325" lon="11.1302165"><ele>254.66666666666669</ele><time>2026-03-21T14:07:34.592Z</time></trkpt><trkpt lat="44.4359627" lon="11.1302024"><ele>256.0</ele><time>2026-03-21T14:07:35.592Z</time></trkpt><trkpt lat="44.4358955" lon="11.1301845"><ele>257.33333333333337</ele><time>2026-03-21T14:07:36.591Z</time></trkpt><trkpt lat="44.4358247" lon="11.1301755"><ele>258.6666666666667</ele><time>2026-03-21T14:07:37.593Z</time></trkpt><trkpt lat="44.4357556" lon="11.1301645"><ele>260.0</ele><time>2026-03-21T14:07:38.592Z</time></trkpt><trkpt lat="44.435644" lon="11.1301526"><ele>260.0</ele><time>2026-03-21T14:07:40.591Z</time></trkpt><trkpt lat="44.4355191" lon="11.1301329"><ele>260.0</ele><time>2026-03-21T14:07:42.593Z</time></trkpt><trkpt lat="44.4354509" lon="11.1301197"><ele>260.0</ele><time>2026-03-21T14:07:43.592Z</time></trkpt><trkpt lat="44.4353808" lon="11.130113"><ele>260.0</ele><time>2026-03-21T14:07:44.591Z</time></trkpt><trkpt lat="44.4352521" lon="11.1300984"><ele>260.0</ele><time>2026-03-21T14:07:46.591Z</time></trkpt><trkpt lat="44.4351886" lon="11.1300897"><ele>261.14285714285717</ele><time>2026-03-21T14:07:47.592Z</time></trkpt><trkpt lat="44.4351222" lon="11.1300998"><ele>262.2857142857143</ele><time>2026-03-21T14:07:48.591Z</time></trkpt><trkpt lat="44.4350586" lon="11.1300835"><ele>263.42857142857144</ele><time>2026-03-21T14:07:49.593Z</time></trkpt><trkpt lat="44.4349941" lon="11.1300744"><ele>264.57142857142856</ele><time>2026-03-21T14:07:50.592Z</time></trkpt><trkpt lat="44.4349279" lon="11.1300704"><ele>265.7142857142857</ele><time>2026-03-21T14:07:51.592Z</time></trkpt><trkpt lat="44.434859" lon="11.1300559"><ele>266.8571428571429</ele><time>2026-03-21T14:07:52.591Z</time></trkpt><trkpt lat="44.4347876" lon="11.1300448"><ele>268.0</ele><time>2026-03-21T14:07:53.592Z</time></trkpt><trkpt lat="44.4347176" lon="11.1300428"><ele>268.0</ele><time>2026-03-21T14:07:54.591Z</time></trkpt><trkpt lat="44.4346521" lon="11.1300381"><ele>268.0</ele><time>2026-03-21T14:07:55.592Z</time></trkpt><trkpt lat="44.4345239" lon="11.1300277"><ele>268.0</ele><time>2026-03-21T14:07:57.591Z</time></trkpt><trkpt lat="44.4344474" lon="11.1300185"><ele>268.0</ele><time>2026-03-21T14:07:58.592Z</time></trkpt><trkpt lat="44.4343643" lon="11.1300029"><ele>268.0</ele><time>2026-03-21T14:07:59.592Z</time></trkpt><trkpt lat="44.4342862" lon="11.1299954"><ele>268.0</ele><time>2026-03-21T14:08:00.592Z</time></trkpt><trkpt lat="44.4342098" lon="11.1299824"><ele>269.0</ele><time>2026-03-21T14:08:01.592Z</time></trkpt><trkpt lat="44.4341348" lon="11.1299717"><ele>270.0</ele><time>2026-03-21T14:08:02.592Z</time></trkpt><trkpt lat="44.4340557" lon="11.1299564"><ele>271.0</ele><time>2026-03-21T14:08:03.592Z</time></trkpt><trkpt lat="44.4339711" lon="11.129943"><ele>272.0</ele><time>2026-03-21T14:08:04.592Z</time></trkpt><trkpt lat="44.4338773" lon="11.1299338"><ele>273.0</ele><time>2026-03-21T14:08:05.593Z</time></trkpt><trkpt lat="44.4337901" lon="11.1299284"><ele>274.0</ele><time>2026-03-21T14:08:06.59Z</time></trkpt><trkpt lat="44.4337129" lon="11.1299109"><ele>274.8333333333333</ele><time>2026-03-21T14:08:07.592Z</time></trkpt><trkpt lat="44.4336338" lon="11.1299079"><ele>275.66666666666663</ele><time>2026-03-21T14:08:08.591Z</time></trkpt><trkpt lat="44.433524" lon="11.129905"><ele>276.5</ele><time>2026-03-21T14:08:10.593Z</time></trkpt><trkpt lat="44.4334206" lon="11.1299246"><ele>277.3333333333333</ele><time>2026-03-21T14:08:12.592Z</time></trkpt><trkpt lat="44.4333531" lon="11.1299694"><ele>278.1666666666667</ele><time>2026-03-21T14:08:14.591Z</time></trkpt><trkpt lat="44.4333142" lon="11.1298878"><ele>279.0</ele><time>2026-03-21T14:08:19.592Z</time></trkpt><trkpt lat="44.4333256" lon="11.1297604"><ele>280.8333333333333</ele><time>2026-03-21T14:08:21.593Z</time></trkpt><trkpt lat="44.4333536" lon="11.129592"><ele>282.6666666666667</ele><time>2026-03-21T14:08:23.592Z</time></trkpt><trkpt lat="44.4333832" lon="11.1295094"><ele>284.5</ele><time>2026-03-21T14:08:24.592Z</time></trkpt><trkpt lat="44.4334334" lon="11.1294225"><ele>286.33333333333337</ele><time>2026-03-21T14:08:25.592Z</time></trkpt><trkpt lat="44.4334869" lon="11.1293223"><ele>288.1666666666667</ele><time>2026-03-21T14:08:26.593Z</time></trkpt><trkpt lat="44.4335411" lon="11.1292309"><ele>290.0</ele><time>2026-03-21T14:08:27.591Z</time></trkpt><trkpt lat="44.4336126" lon="11.1291318"><ele>291.0</ele><time>2026-03-21T14:08:28.593Z</time></trkpt><trkpt lat="44.4336839" lon="11.1290372"><ele>292.0</ele><time>2026-03-21T14:08:29.593Z</time></trkpt><trkpt lat="44.4337478" lon="11.12893"><ele>293.0</ele><time>2026-03-21T14:08:30.592Z</time></trkpt><trkpt lat="44.4338183" lon="11.1288198"><ele>294.0</ele><time>2026-03-21T14:08:31.593Z</time></trkpt><trkpt lat="44.4338856" lon="11.1287055"><ele>295.0</ele><time>2026-03-21T14:08:32.592Z</time></trkpt><trkpt lat="44.4339437" lon="11.1285941"><ele>295.0</ele><time>2026-03-21T14:08:33.592Z</time></trkpt><trkpt lat="44.4339997" lon="11.1284822"><ele>295.0</ele><time>2026-03-21T14:08:34.592Z</time></trkpt><trkpt lat="44.4340496" lon="11.1283638"><ele>295.0</ele><time>2026-03-21T14:08:35.592Z</time></trkpt><trkpt lat="44.434099" lon="11.128235"><ele>295.0</ele><time>2026-03-21T14:08:36.592Z</time></trkpt><trkpt lat="44.4341565" lon="11.1281117"><ele>295.0</ele><time>2026-03-21T14:08:37.592Z</time></trkpt><trkpt lat="44.4342031" lon="11.1279993"><ele>297.66666666666663</ele><time>2026-03-21T14:08:38.592Z</time></trkpt><trkpt lat="44.4342534" lon="11.1278947"><ele>300.3333333333333</ele><time>2026-03-21T14:08:39.592Z</time></trkpt><trkpt lat="44.4343058" lon="11.1278101"><ele>303.0</ele><time>2026-03-21T14:08:40.59Z</time></trkpt><trkpt lat="44.4343626" lon="11.1277627"><ele>305.6666666666667</ele><time>2026-03-21T14:08:41.592Z</time></trkpt><trkpt lat="44.4344555" lon="11.1277402"><ele>308.33333333333337</ele><time>2026-03-21T14:08:43.593Z</time></trkpt><trkpt lat="44.4345272" lon="11.1277567"><ele>311.0</ele><time>2026-03-21T14:08:44.592Z</time></trkpt><trkpt lat="44.4346094" lon="11.1277516"><ele>308.5</ele><time>2026-03-21T14:08:45.593Z</time></trkpt><trkpt lat="44.43469" lon="11.1277674"><ele>306.0</ele><time>2026-03-21T14:08:46.592Z</time></trkpt><trkpt lat="44.4347699" lon="11.1277979"><ele>303.5</ele><time>2026-03-21T14:08:47.593Z</time></trkpt><trkpt lat="44.4348525" lon="11.1278148"><ele>301.0</ele><time>2026-03-21T14:08:48.592Z</time></trkpt><trkpt lat="44.4349367" lon="11.1278389"><ele>298.5</ele><time>2026-03-21T14:08:49.592Z</time></trkpt><trkpt lat="44.4350312" lon="11.1278769"><ele>296.0</ele><time>2026-03-21T14:08:50.592Z</time></trkpt><trkpt lat="44.4351127" lon="11.1279074"><ele>296.0</ele><time>2026-03-21T14:08:51.593Z</time></trkpt><trkpt lat="44.435188" lon="11.1279354"><ele>296.0</ele><time>2026-03-21T14:08:52.593Z</time></trkpt><trkpt lat="44.4352608" lon="11.1279582"><ele>296.0</ele><time>2026-03-21T14:08:53.592Z</time></trkpt><trkpt lat="44.4353415" lon="11.1279908"><ele>296.0</ele><time>2026-03-21T14:08:54.592Z</time></trkpt><trkpt lat="44.4354106" lon="11.1279813"><ele>296.0</ele><time>2026-03-21T14:08:55.592Z</time></trkpt><trkpt lat="44.4355305" lon="11.1279864"><ele>296.0</ele><time>2026-03-21T14:08:57.592Z</time></trkpt><trkpt lat="44.4356417" lon="11.1280101"><ele>294.83333333333337</ele><time>2026-03-21T14:08:59.592Z</time></trkpt><trkpt lat="44.4357098" lon="11.1280151"><ele>293.6666666666667</ele><time>2026-03-21T14:09:00.593Z</time></trkpt><trkpt lat="44.4357997" lon="11.1280081"><ele>292.5</ele><time>2026-03-21T14:09:01.591Z</time></trkpt><trkpt lat="44.4358802" lon="11.1280049"><ele>291.3333333333333</ele><time>2026-03-21T14:09:02.592Z</time></trkpt><trkpt lat="44.4359777" lon="11.1279812"><ele>290.16666666666663</ele><time>2026-03-21T14:09:03.592Z</time></trkpt><trkpt lat="44.4360619" lon="11.1279914"><ele>289.0</ele><time>2026-03-21T14:09:04.593Z</time></trkpt><trkpt lat="44.4361395" lon="11.1279739"><ele>289.0</ele><time>2026-03-21T14:09:05.592Z</time></trkpt><trkpt lat="44.4362249" lon="11.127968"><ele>289.0</ele><time>2026-03-21T14:09:06.591Z</time></trkpt><trkpt lat="44.436321" lon="11.127959"><ele>289.0</ele><time>2026-03-21T14:09:07.591Z</time></trkpt><trkpt lat="44.4364186" lon="11.1279456"><ele>289.0</ele><time>2026-03-21T14:09:08.592Z</time></trkpt><trkpt lat="44.4365102" lon="11.1279409"><ele>289.0</ele><time>2026-03-21T14:09:09.593Z</time></trkpt><trkpt lat="44.4365916" lon="11.1279415"><ele>287.3333333333333</ele><time>2026-03-21T14:09:10.592Z</time></trkpt><trkpt lat="44.4366714" lon="11.1279337"><ele>285.66666666666663</ele><time>2026-03-21T14:09:11.592Z</time></trkpt><trkpt lat="44.4367387" lon="11.1279296"><ele>284.0</ele><time>2026-03-21T14:09:12.591Z</time></trkpt><trkpt lat="44.436837" lon="11.1279307"><ele>282.3333333333333</ele><time>2026-03-21T14:09:14.592Z</time></trkpt><trkpt lat="44.4369069" lon="11.1279172"><ele>280.6666666666667</ele><time>2026-03-21T14:09:17.592Z</time></trkpt><trkpt lat="44.4369134" lon="11.1278058"><ele>279.0</ele><time>2026-03-21T14:10:22.592Z</time></trkpt><trkpt lat="44.436854" lon="11.1277153"><ele>279.0</ele><time>2026-03-21T14:10:24.592Z</time></trkpt><trkpt lat="44.4368085" lon="11.1275897"><ele>279.0</ele><time>2026-03-21T14:10:25.593Z</time></trkpt><trkpt lat="44.4367668" lon="11.1274922"><ele>279.0</ele><time>2026-03-21T14:10:26.592Z</time></trkpt><trkpt lat="44.4367089" lon="11.1273766"><ele>279.0</ele><time>2026-03-21T14:10:27.594Z</time></trkpt><trkpt lat="44.4366628" lon="11.1272652"><ele>279.0</ele><time>2026-03-21T14:10:28.593Z</time></trkpt><trkpt lat="44.4365804" lon="11.1271467"><ele>276.0</ele><time>2026-03-21T14:10:29.592Z</time></trkpt><trkpt lat="44.4365285" lon="11.1270163"><ele>273.0</ele><time>2026-03-21T14:10:30.592Z</time></trkpt><trkpt lat="44.4364784" lon="11.1268907"><ele>270.0</ele><time>2026-03-21T14:10:31.591Z</time></trkpt><trkpt lat="44.4364274" lon="11.1267729"><ele>267.0</ele><time>2026-03-21T14:10:32.593Z</time></trkpt><trkpt lat="44.4363718" lon="11.1266482"><ele>264.0</ele><time>2026-03-21T14:10:33.593Z</time></trkpt><trkpt lat="44.4363285" lon="11.1265123"><ele>263.2</ele><time>2026-03-21T14:10:34.593Z</time></trkpt><trkpt lat="44.4362724" lon="11.1263932"><ele>262.4</ele><time>2026-03-21T14:10:35.592Z</time></trkpt><trkpt lat="44.4362226" lon="11.1262819"><ele>261.6</ele><time>2026-03-21T14:10:36.593Z</time></trkpt><trkpt lat="44.436157" lon="11.1261699"><ele>260.8</ele><time>2026-03-21T14:10:37.592Z</time></trkpt><trkpt lat="44.4360985" lon="11.1260514"><ele>260.0</ele><time>2026-03-21T14:10:38.593Z</time></trkpt><trkpt lat="44.4360361" lon="11.1259473"><ele>260.0</ele><time>2026-03-21T14:10:39.593Z</time></trkpt><trkpt lat="44.4359886" lon="11.1258456"><ele>260.0</ele><time>2026-03-21T14:10:40.593Z</time></trkpt><trkpt lat="44.4359431" lon="11.1257483"><ele>260.0</ele><time>2026-03-21T14:10:41.592Z</time></trkpt><trkpt lat="44.4358978" lon="11.1256507"><ele>260.0</ele><time>2026-03-21T14:10:42.593Z</time></trkpt><trkpt lat="44.4358487" lon="11.1255579"><ele>260.0</ele><time>2026-03-21T14:10:43.592Z</time></trkpt><trkpt lat="44.4358014" lon="11.1254611"><ele>260.0</ele><time>2026-03-21T14:10:44.592Z</time></trkpt><trkpt lat="44.4357502" lon="11.1253623"><ele>258.83333333333337</ele><time>2026-03-21T14:10:45.592Z</time></trkpt><trkpt lat="44.4356997" lon="11.1252671"><ele>257.6666666666667</ele><time>2026-03-21T14:10:46.591Z</time></trkpt><trkpt lat="44.4356485" lon="11.1251693"><ele>256.5</ele><time>2026-03-21T14:10:47.592Z</time></trkpt><trkpt lat="44.4356004" lon="11.1250637"><ele>255.33333333333331</ele><time>2026-03-21T14:10:48.592Z</time></trkpt><trkpt lat="44.4355523" lon="11.1249646"><ele>254.16666666666666</ele><time>2026-03-21T14:10:49.592Z</time></trkpt><trkpt lat="44.4355078" lon="11.1248644"><ele>253.0</ele><time>2026-03-21T14:10:50.592Z</time></trkpt><trkpt lat="44.435451" lon="11.1247572"><ele>253.0</ele><time>2026-03-21T14:10:51.592Z</time></trkpt><trkpt lat="44.4353972" lon="11.1246559"><ele>253.0</ele><time>2026-03-21T14:10:52.591Z</time></trkpt><trkpt lat="44.4353445" lon="11.1245515"><ele>253.0</ele><time>2026-03-21T14:10:53.592Z</time></trkpt><trkpt lat="44.4352882" lon="11.1244421"><ele>253.0</ele><time>2026-03-21T14:10:54.593Z</time></trkpt><trkpt lat="44.4352361" lon="11.1243182"><ele>253.0</ele><time>2026-03-21T14:10:55.591Z</time></trkpt><trkpt lat="44.4351928" lon="11.1241939"><ele>252.99999999999997</ele><time>2026-03-21T14:10:56.592Z</time></trkpt><trkpt lat="44.4351395" lon="11.1240815"><ele>253.0</ele><time>2026-03-21T14:10:57.592Z</time></trkpt><trkpt lat="44.4350877" lon="11.1239793"><ele>253.0</ele><time>2026-03-21T14:10:58.592Z</time></trkpt><trkpt lat="44.4350391" lon="11.1238789"><ele>253.0</ele><time>2026-03-21T14:10:59.592Z</time></trkpt><trkpt lat="44.434996" lon="11.123773"><ele>252.99999999999997</ele><time>2026-03-21T14:11:00.592Z</time></trkpt><trkpt lat="44.4349554" lon="11.1236689"><ele>253.0</ele><time>2026-03-21T14:11:01.592Z</time></trkpt><trkpt lat="44.4349218" lon="11.1235559"><ele>249.83333333333331</ele><time>2026-03-21T14:11:02.592Z</time></trkpt><trkpt lat="44.4348975" lon="11.1234587"><ele>246.66666666666666</ele><time>2026-03-21T14:11:03.593Z</time></trkpt><trkpt lat="44.4348905" lon="11.1233492"><ele>243.5</ele><time>2026-03-21T14:11:04.592Z</time></trkpt><trkpt lat="44.4348749" lon="11.1232433"><ele>240.33333333333331</ele><time>2026-03-21T14:11:05.592Z</time></trkpt><trkpt lat="44.4348598" lon="11.1231405"><ele>237.16666666666666</ele><time>2026-03-21T14:11:06.591Z</time></trkpt><trkpt lat="44.4348439" lon="11.1230407"><ele>234.0</ele><time>2026-03-21T14:11:07.593Z</time></trkpt><trkpt lat="44.434824" lon="11.1229418"><ele>232.33333333333334</ele><time>2026-03-21T14:11:08.592Z</time></trkpt><trkpt lat="44.434753" lon="11.1228191"><ele>230.66666666666669</ele><time>2026-03-21T14:11:10.592Z</time></trkpt><trkpt lat="44.4346904" lon="11.122779"><ele>229.0</ele><time>2026-03-21T14:11:11.592Z</time></trkpt><trkpt lat="44.4346307" lon="11.1227505"><ele>227.33333333333334</ele><time>2026-03-21T14:11:12.592Z</time></trkpt><trkpt lat="44.4345379" lon="11.1227538"><ele>225.66666666666669</ele><time>2026-03-21T14:11:13.594Z</time></trkpt><trkpt lat="44.4344593" lon="11.1227484"><ele>224.0</ele><time>2026-03-21T14:11:14.593Z</time></trkpt><trkpt lat="44.4343301" lon="11.1227235"><ele>223.39999999999998</ele><time>2026-03-21T14:11:16.592Z</time></trkpt><trkpt lat="44.4342497" lon="11.1227218"><ele>222.79999999999998</ele><time>2026-03-21T14:11:17.593Z</time></trkpt><trkpt lat="44.4341544" lon="11.1227199"><ele>222.20000000000002</ele><time>2026-03-21T14:11:18.593Z</time></trkpt><trkpt lat="44.4340579" lon="11.1227229"><ele>221.60000000000002</ele><time>2026-03-21T14:11:19.593Z</time></trkpt><trkpt lat="44.4339507" lon="11.1227267"><ele>221.0</ele><time>2026-03-21T14:11:20.594Z</time></trkpt><trkpt lat="44.4338157" lon="11.1227007"><ele>220.33333333333334</ele><time>2026-03-21T14:11:21.84Z</time></trkpt><trkpt lat="44.4335563" lon="11.1227767"><ele>219.66666666666669</ele><time>2026-03-21T14:11:23.84Z</time></trkpt><trkpt lat="44.433442" lon="11.1228551"><ele>219.0</ele><time>2026-03-21T14:11:24.84Z</time></trkpt><trkpt lat="44.4333632" lon="11.1226786"><ele>219.0</ele><time>2026-03-21T14:11:25.84Z</time></trkpt><trkpt lat="44.4333264" lon="11.1224599"><ele>219.0</ele><time>2026-03-21T14:11:27.84Z</time></trkpt><trkpt lat="44.4332405" lon="11.1222566"><ele>219.0</ele><time>2026-03-21T14:11:29.592Z</time></trkpt><trkpt lat="44.4332095" lon="11.1221279"><ele>219.0</ele><time>2026-03-21T14:11:30.592Z</time></trkpt><trkpt lat="44.433161" lon="11.1220204"><ele>216.33333333333334</ele><time>2026-03-21T14:11:31.592Z</time></trkpt><trkpt lat="44.4331236" lon="11.1219058"><ele>213.66666666666669</ele><time>2026-03-21T14:11:32.592Z</time></trkpt><trkpt lat="44.4330789" lon="11.1217999"><ele>211.0</ele><time>2026-03-21T14:11:33.592Z</time></trkpt><trkpt lat="44.4330589" lon="11.1216906"><ele>208.33333333333334</ele><time>2026-03-21T14:11:34.592Z</time></trkpt><trkpt lat="44.4330411" lon="11.1215886"><ele>205.66666666666669</ele><time>2026-03-21T14:11:35.593Z</time></trkpt><trkpt lat="44.4330282" lon="11.1214495"><ele>203.0</ele><time>2026-03-21T14:11:36.592Z</time></trkpt><trkpt lat="44.4330297" lon="11.1213245"><ele>201.2</ele><time>2026-03-21T14:11:37.591Z</time></trkpt><trkpt lat="44.4330373" lon="11.1211869"><ele>199.4</ele><time>2026-03-21T14:11:38.593Z</time></trkpt><trkpt lat="44.4330471" lon="11.1210671"><ele>197.6</ele><time>2026-03-21T14:11:39.593Z</time></trkpt><trkpt lat="44.4330423" lon="11.1209442"><ele>195.79999999999998</ele><time>2026-03-21T14:11:40.593Z</time></trkpt><trkpt lat="44.4330404" lon="11.1208182"><ele>194.0</ele><time>2026-03-21T14:11:41.592Z</time></trkpt><trkpt lat="44.4330538" lon="11.1206619"><ele>192.79999999999998</ele><time>2026-03-21T14:11:43.592Z</time></trkpt><trkpt lat="44.4330793" lon="11.120567"><ele>191.6</ele><time>2026-03-21T14:11:45.592Z</time></trkpt><trkpt lat="44.4331561" lon="11.1205255"><ele>190.4</ele><time>2026-03-21T14:11:47.594Z</time></trkpt><trkpt lat="44.4332949" lon="11.1204934"><ele>189.2</ele><time>2026-03-21T14:11:49.591Z</time></trkpt><trkpt lat="44.4333829" lon="11.1204882"><ele>188.0</ele><time>2026-03-21T14:11:50.593Z</time></trkpt><trkpt lat="44.4334847" lon="11.1204668"><ele>188.0</ele><time>2026-03-21T14:11:51.592Z</time></trkpt><trkpt lat="44.4335838" lon="11.120462"><ele>188.0</ele><time>2026-03-21T14:11:52.593Z</time></trkpt><trkpt lat="44.4336929" lon="11.1204474"><ele>188.0</ele><time>2026-03-21T14:11:53.594Z</time></trkpt><trkpt lat="44.4337969" lon="11.1204376"><ele>188.0</ele><time>2026-03-21T14:11:54.594Z</time></trkpt><trkpt lat="44.4339125" lon="11.1204147"><ele>188.0</ele><time>2026-03-21T14:11:55.592Z</time></trkpt><trkpt lat="44.4340384" lon="11.1203992"><ele>187.5</ele><time>2026-03-21T14:11:56.592Z</time></trkpt><trkpt lat="44.4341663" lon="11.1203801"><ele>187.0</ele><time>2026-03-21T14:11:57.593Z</time></trkpt><trkpt lat="44.4342922" lon="11.1203628"><ele>186.5</ele><time>2026-03-21T14:11:58.592Z</time></trkpt><trkpt lat="44.4344247" lon="11.1203537"><ele>186.0</ele><time>2026-03-21T14:11:59.592Z</time></trkpt><trkpt lat="44.4345603" lon="11.1203357"><ele>185.5</ele><time>2026-03-21T14:12:00.591Z</time></trkpt><trkpt lat="44.4346968" lon="11.1203254"><ele>185.0</ele><time>2026-03-21T14:12:01.593Z</time></trkpt><trkpt lat="44.4348415" lon="11.1203143"><ele>184.5</ele><time>2026-03-21T14:12:02.592Z</time></trkpt><trkpt lat="44.4349828" lon="11.1202964"><ele>184.0</ele><time>2026-03-21T14:12:03.592Z</time></trkpt><trkpt lat="44.4351255" lon="11.1202728"><ele>184.0</ele><time>2026-03-21T14:12:04.591Z</time></trkpt><trkpt lat="44.4352613" lon="11.1202538"><ele>184.0</ele><time>2026-03-21T14:12:05.594Z</time></trkpt><trkpt lat="44.4353955" lon="11.1202431"><ele>184.0</ele><time>2026-03-21T14:12:06.593Z</time></trkpt><trkpt lat="44.4355278" lon="11.1202283"><ele>184.0</ele><time>2026-03-21T14:12:07.592Z</time></trkpt><trkpt lat="44.4356586" lon="11.1202018"><ele>183.5</ele><time>2026-03-21T14:12:08.593Z</time></trkpt><trkpt lat="44.4357845" lon="11.1201824"><ele>183.0</ele><time>2026-03-21T14:12:09.594Z</time></trkpt><trkpt lat="44.4359263" lon="11.1201578"><ele>182.5</ele><time>2026-03-21T14:12:10.592Z</time></trkpt><trkpt lat="44.4360722" lon="11.1201329"><ele>182.0</ele><time>2026-03-21T14:12:11.592Z</time></trkpt><trkpt lat="44.4362113" lon="11.120116"><ele>183.25</ele><time>2026-03-21T14:12:12.592Z</time></trkpt><trkpt lat="44.436341" lon="11.1200935"><ele>184.5</ele><time>2026-03-21T14:12:13.592Z</time></trkpt><trkpt lat="44.436459" lon="11.120081"><ele>185.75</ele><time>2026-03-21T14:12:14.592Z</time></trkpt><trkpt lat="44.4365891" lon="11.1200682"><ele>187.0</ele><time>2026-03-21T14:12:15.592Z</time></trkpt><trkpt lat="44.4367156" lon="11.1200569"><ele>187.0</ele><time>2026-03-21T14:12:16.593Z</time></trkpt><trkpt lat="44.4368429" lon="11.1200391"><ele>187.0</ele><time>2026-03-21T14:12:17.593Z</time></trkpt><trkpt lat="44.4369704" lon="11.1200197"><ele>187.0</ele><time>2026-03-21T14:12:18.591Z</time></trkpt><trkpt lat="44.4370918" lon="11.120008"><ele>187.0</ele><time>2026-03-21T14:12:19.592Z</time></trkpt><trkpt lat="44.4372108" lon="11.1200029"><ele>186.2</ele><time>2026-03-21T14:12:20.592Z</time></trkpt><trkpt lat="44.4373215" lon="11.1199975"><ele>185.39999999999998</ele><time>2026-03-21T14:12:21.594Z</time></trkpt><trkpt lat="44.4374332" lon="11.1199937"><ele>184.60000000000002</ele><time>2026-03-21T14:12:22.592Z</time></trkpt><trkpt lat="44.4375376" lon="11.1199911"><ele>183.8</ele><time>2026-03-21T14:12:23.591Z</time></trkpt><trkpt lat="44.437637" lon="11.1199745"><ele>183.0</ele><time>2026-03-21T14:12:24.591Z</time></trkpt><trkpt lat="44.437725" lon="11.119937"><ele>182.2</ele><time>2026-03-21T14:12:25.591Z</time></trkpt><trkpt lat="44.4377922" lon="11.1198504"><ele>181.4</ele><time>2026-03-21T14:12:26.593Z</time></trkpt><trkpt lat="44.4378539" lon="11.1197238"><ele>180.6</ele><time>2026-03-21T14:12:27.592Z</time></trkpt><trkpt lat="44.4378827" lon="11.1195945"><ele>179.79999999999998</ele><time>2026-03-21T14:12:28.592Z</time></trkpt><trkpt lat="44.4379029" lon="11.1194529"><ele>179.0</ele><time>2026-03-21T14:12:29.593Z</time></trkpt><trkpt lat="44.4379235" lon="11.1192883"><ele>179.0</ele><time>2026-03-21T14:12:30.593Z</time></trkpt><trkpt lat="44.4379477" lon="11.1191243"><ele>179.0</ele><time>2026-03-21T14:12:31.591Z</time></trkpt><trkpt lat="44.4379604" lon="11.1189592"><ele>179.0</ele><time>2026-03-21T14:12:32.592Z</time></trkpt><trkpt lat="44.4379747" lon="11.1188139"><ele>179.0</ele><time>2026-03-21T14:12:33.592Z</time></trkpt><trkpt lat="44.4379845" lon="11.1186648"><ele>178.2</ele><time>2026-03-21T14:12:34.594Z</time></trkpt><trkpt lat="44.438" lon="11.1185212"><ele>177.39999999999998</ele><time>2026-03-21T14:12:35.593Z</time></trkpt><trkpt lat="44.4380186" lon="11.1183828"><ele>176.6</ele><time>2026-03-21T14:12:36.592Z</time></trkpt><trkpt lat="44.4380384" lon="11.1182455"><ele>175.8</ele><time>2026-03-21T14:12:37.592Z</time></trkpt><trkpt lat="44.438063" lon="11.1181194"><ele>175.0</ele><time>2026-03-21T14:12:38.592Z</time></trkpt><trkpt lat="44.4380848" lon="11.117997"><ele>174.66666666666669</ele><time>2026-03-21T14:12:39.593Z</time></trkpt><trkpt lat="44.4381093" lon="11.1178804"><ele>174.33333333333334</ele><time>2026-03-21T14:12:40.591Z</time></trkpt><trkpt lat="44.4381347" lon="11.1177614"><ele>174.0</ele><time>2026-03-21T14:12:41.593Z</time></trkpt><trkpt lat="44.4381691" lon="11.1176234"><ele>173.66666666666666</ele><time>2026-03-21T14:12:42.594Z</time></trkpt><trkpt lat="44.4381981" lon="11.1175133"><ele>173.33333333333331</ele><time>2026-03-21T14:12:43.592Z</time></trkpt><trkpt lat="44.4382191" lon="11.1174041"><ele>173.0</ele><time>2026-03-21T14:12:44.593Z</time></trkpt><trkpt lat="44.4382444" lon="11.1173063"><ele>171.60000000000002</ele><time>2026-03-21T14:12:45.592Z</time></trkpt><trkpt lat="44.4382733" lon="11.1172078"><ele>170.20000000000002</ele><time>2026-03-21T14:12:46.594Z</time></trkpt><trkpt lat="44.4383048" lon="11.1170869"><ele>168.8</ele><time>2026-03-21T14:12:48.592Z</time></trkpt><trkpt lat="44.4382831" lon="11.1170041"><ele>167.4</ele><time>2026-03-21T14:12:56.593Z</time></trkpt><trkpt lat="44.4382012" lon="11.1169392"><ele>166.0</ele><time>2026-03-21T14:12:58.592Z</time></trkpt><trkpt lat="44.4380818" lon="11.1168523"><ele>166.0</ele><time>2026-03-21T14:13:00.592Z</time></trkpt><trkpt lat="44.4380214" lon="11.1167962"><ele>166.0</ele><time>2026-03-21T14:13:01.592Z</time></trkpt><trkpt lat="44.4379801" lon="11.1167173"><ele>166.0</ele><time>2026-03-21T14:13:02.592Z</time></trkpt><trkpt lat="44.4379567" lon="11.1165416"><ele>166.0</ele><time>2026-03-21T14:13:04.593Z</time></trkpt><trkpt lat="44.4379662" lon="11.1164403"><ele>166.0</ele><time>2026-03-21T14:13:05.592Z</time></trkpt><trkpt lat="44.4379692" lon="11.116341"><ele>166.0</ele><time>2026-03-21T14:13:06.591Z</time></trkpt><trkpt lat="44.4379884" lon="11.1161803"><ele>165.83333333333334</ele><time>2026-03-21T14:13:08.592Z</time></trkpt><trkpt lat="44.4379611" lon="11.1160493"><ele>165.66666666666669</ele><time>2026-03-21T14:13:10.593Z</time></trkpt><trkpt lat="44.437897" lon="11.1159973"><ele>165.5</ele><time>2026-03-21T14:13:12.592Z</time></trkpt><trkpt lat="44.4378173" lon="11.1159889"><ele>165.33333333333334</ele><time>2026-03-21T14:13:14.593Z</time></trkpt><trkpt lat="44.4377366" lon="11.1159651"><ele>165.16666666666666</ele><time>2026-03-21T14:13:16.593Z</time></trkpt><trkpt lat="44.437655" lon="11.1159455"><ele>165.0</ele><time>2026-03-21T14:13:19.592Z</time></trkpt><trkpt lat="44.437568" lon="11.1159018"><ele>165.0</ele><time>2026-03-21T14:13:27.592Z</time></trkpt><trkpt lat="44.4375048" lon="11.1158601"><ele>165.0</ele><time>2026-03-21T14:13:28.594Z</time></trkpt><trkpt lat="44.4374341" lon="11.1158084"><ele>165.0</ele><time>2026-03-21T14:13:30.593Z</time></trkpt><trkpt lat="44.4373578" lon="11.1157972"><ele>165.0</ele><time>2026-03-21T14:13:32.594Z</time></trkpt><trkpt lat="44.4372464" lon="11.1158183"><ele>165.0</ele><time>2026-03-21T14:13:34.591Z</time></trkpt><trkpt lat="44.4371576" lon="11.1158621"><ele>165.0</ele><time>2026-03-21T14:13:36.593Z</time></trkpt><trkpt lat="44.437072" lon="11.115901"><ele>165.16666666666666</ele><time>2026-03-21T14:13:38.592Z</time></trkpt><trkpt lat="44.4370245" lon="11.115983"><ele>165.33333333333334</ele><time>2026-03-21T14:13:40.592Z</time></trkpt><trkpt lat="44.4369453" lon="11.1159615"><ele>165.5</ele><time>2026-03-21T14:13:43.593Z</time></trkpt><trkpt lat="44.436856" lon="11.1159027"><ele>165.66666666666669</ele><time>2026-03-21T14:13:46.592Z</time></trkpt><trkpt lat="44.4367913" lon="11.1158728"><ele>165.83333333333334</ele><time>2026-03-21T14:13:47.593Z</time></trkpt><trkpt lat="44.4366766" lon="11.1158537"><ele>166.0</ele><time>2026-03-21T14:13:49.593Z</time></trkpt><trkpt lat="44.4365832" lon="11.1158111"><ele>166.0</ele><time>2026-03-21T14:13:51.593Z</time></trkpt><trkpt lat="44.4364955" lon="11.115814"><ele>166.0</ele><time>2026-03-21T14:13:53.592Z</time></trkpt><trkpt lat="44.4364127" lon="11.115849"><ele>166.0</ele><time>2026-03-21T14:13:55.592Z</time></trkpt><trkpt lat="44.4363182" lon="11.1158266"><ele>166.0</ele><time>2026-03-21T14:13:57.593Z</time></trkpt><trkpt lat="44.4362101" lon="11.1158136"><ele>166.0</ele><time>2026-03-21T14:13:59.593Z</time></trkpt><trkpt lat="44.4361458" lon="11.1157942"><ele>166.0</ele><time>2026-03-21T14:14:01.594Z</time></trkpt><trkpt lat="44.4360651" lon="11.1157965"><ele>166.0</ele><time>2026-03-21T14:14:03.592Z</time></trkpt><trkpt lat="44.4359797" lon="11.115776"><ele>166.0</ele><time>2026-03-21T14:14:05.593Z</time></trkpt><trkpt lat="44.4359153" lon="11.1158336"><ele>166.0</ele><time>2026-03-21T14:14:06.594Z</time></trkpt><trkpt lat="44.4358428" lon="11.1158703"><ele>166.0</ele><time>2026-03-21T14:14:09.593Z</time></trkpt><trkpt lat="44.4357697" lon="11.1158809"><ele>166.0</ele><time>2026-03-21T14:14:11.593Z</time></trkpt><trkpt lat="44.4356516" lon="11.1159121"><ele>166.0</ele><time>2026-03-21T14:14:14.593Z</time></trkpt><trkpt lat="44.435566" lon="11.1158741"><ele>166.0</ele><time>2026-03-21T14:14:16.592Z</time></trkpt><trkpt lat="44.4354813" lon="11.1158461"><ele>166.0</ele><time>2026-03-21T14:14:18.594Z</time></trkpt><trkpt lat="44.4353759" lon="11.1158249"><ele>166.0</ele><time>2026-03-21T14:14:20.593Z</time></trkpt><trkpt lat="44.4353005" lon="11.1158289"><ele>166.0</ele><time>2026-03-21T14:14:22.594Z</time></trkpt><trkpt lat="44.435234" lon="11.1158248"><ele>166.0</ele><time>2026-03-21T14:14:24.593Z</time></trkpt><trkpt lat="44.4351454" lon="11.1158292"><ele>166.0</ele><time>2026-03-21T14:14:26.592Z</time></trkpt><trkpt lat="44.4350556" lon="11.1158018"><ele>166.4</ele><time>2026-03-21T14:14:28.593Z</time></trkpt><trkpt lat="44.4349705" lon="11.1157779"><ele>166.8</ele><time>2026-03-21T14:14:29.591Z</time></trkpt><trkpt lat="44.4348614" lon="11.1157618"><ele>167.20000000000002</ele><time>2026-03-21T14:14:31.594Z</time></trkpt><trkpt lat="44.434752" lon="11.1157678"><ele>167.60000000000002</ele><time>2026-03-21T14:14:33.594Z</time></trkpt><trkpt lat="44.4346358" lon="11.1157713"><ele>168.0</ele><time>2026-03-21T14:14:35.594Z</time></trkpt><trkpt lat="44.4345248" lon="11.1157682"><ele>168.16666666666666</ele><time>2026-03-21T14:14:37.593Z</time></trkpt><trkpt lat="44.4344225" lon="11.1157433"><ele>168.33333333333334</ele><time>2026-03-21T14:14:39.593Z</time></trkpt><trkpt lat="44.4343604" lon="11.1157137"><ele>168.5</ele><time>2026-03-21T14:14:40.592Z</time></trkpt><trkpt lat="44.4342762" lon="11.1156571"><ele>168.66666666666669</ele><time>2026-03-21T14:14:42.593Z</time></trkpt><trkpt lat="44.4341838" lon="11.1156462"><ele>168.83333333333334</ele><time>2026-03-21T14:14:44.591Z</time></trkpt><trkpt lat="44.4340918" lon="11.1156269"><ele>169.0</ele><time>2026-03-21T14:14:46.594Z</time></trkpt><trkpt lat="44.4340042" lon="11.1155914"><ele>169.39999999999998</ele><time>2026-03-21T14:14:48.591Z</time></trkpt><trkpt lat="44.4339166" lon="11.115552"><ele>169.8</ele><time>2026-03-21T14:14:50.591Z</time></trkpt><trkpt lat="44.4338147" lon="11.1155524"><ele>170.2</ele><time>2026-03-21T14:14:52.592Z</time></trkpt><trkpt lat="44.4337022" lon="11.1155218"><ele>170.60000000000002</ele><time>2026-03-21T14:14:54.593Z</time></trkpt><trkpt lat="44.4335981" lon="11.115488"><ele>171.0</ele><time>2026-03-21T14:14:56.593Z</time></trkpt><trkpt lat="44.4335239" lon="11.1154815"><ele>170.99999999999997</ele><time>2026-03-21T14:14:57.592Z</time></trkpt><trkpt lat="44.4334565" lon="11.1154657"><ele>171.0</ele><time>2026-03-21T14:14:58.592Z</time></trkpt><trkpt lat="44.4333899" lon="11.1154589"><ele>171.0</ele><time>2026-03-21T14:14:59.593Z</time></trkpt><trkpt lat="44.4333203" lon="11.1154527"><ele>171.0</ele><time>2026-03-21T14:15:00.593Z</time></trkpt><trkpt lat="44.433249" lon="11.1154468"><ele>171.0</ele><time>2026-03-21T14:15:01.593Z</time></trkpt><trkpt lat="44.4331864" lon="11.1154281"><ele>170.99999999999997</ele><time>2026-03-21T14:15:02.592Z</time></trkpt><trkpt lat="44.4331073" lon="11.1154106"><ele>171.0</ele><time>2026-03-21T14:15:03.592Z</time></trkpt><trkpt lat="44.4330357" lon="11.1154015"><ele>171.28571428571428</ele><time>2026-03-21T14:15:04.592Z</time></trkpt><trkpt lat="44.4329663" lon="11.1153886"><ele>171.57142857142856</ele><time>2026-03-21T14:15:05.592Z</time></trkpt><trkpt lat="44.4329" lon="11.1153751"><ele>171.85714285714283</ele><time>2026-03-21T14:15:06.592Z</time></trkpt><trkpt lat="44.4328267" lon="11.1153627"><ele>172.14285714285714</ele><time>2026-03-21T14:15:07.593Z</time></trkpt><trkpt lat="44.4327616" lon="11.1153489"><ele>172.42857142857144</ele><time>2026-03-21T14:15:08.593Z</time></trkpt><trkpt lat="44.4326948" lon="11.115341"><ele>172.7142857142857</ele><time>2026-03-21T14:15:09.593Z</time></trkpt><trkpt lat="44.432619" lon="11.1153243"><ele>173.0</ele><time>2026-03-21T14:15:10.593Z</time></trkpt><trkpt lat="44.4325478" lon="11.1153184"><ele>173.0</ele><time>2026-03-21T14:15:11.593Z</time></trkpt><trkpt lat="44.4324755" lon="11.1153017"><ele>173.0</ele><time>2026-03-21T14:15:12.592Z</time></trkpt><trkpt lat="44.4324083" lon="11.1152855"><ele>173.0</ele><time>2026-03-21T14:15:13.594Z</time></trkpt><trkpt lat="44.4323418" lon="11.1152724"><ele>173.0</ele><time>2026-03-21T14:15:14.591Z</time></trkpt><trkpt lat="44.432242" lon="11.1152595"><ele>173.0</ele><time>2026-03-21T14:15:16.593Z</time></trkpt><trkpt lat="44.4321797" lon="11.1153053"><ele>173.0</ele><time>2026-03-21T14:15:19.594Z</time></trkpt><trkpt lat="44.4321094" lon="11.1153504"><ele>173.4</ele><time>2026-03-21T14:15:23.592Z</time></trkpt><trkpt lat="44.4320276" lon="11.1153526"><ele>173.8</ele><time>2026-03-21T14:15:27.593Z</time></trkpt><trkpt lat="44.4319575" lon="11.1153135"><ele>174.2</ele><time>2026-03-21T14:15:29.592Z</time></trkpt><trkpt lat="44.4318669" lon="11.1152561"><ele>174.6</ele><time>2026-03-21T14:15:32.592Z</time></trkpt><trkpt lat="44.4317745" lon="11.1151996"><ele>175.0</ele><time>2026-03-21T14:15:34.594Z</time></trkpt><trkpt lat="44.4316783" lon="11.1151753"><ele>175.0</ele><time>2026-03-21T14:15:36.593Z</time></trkpt><trkpt lat="44.4315487" lon="11.1151344"><ele>175.0</ele><time>2026-03-21T14:15:38.593Z</time></trkpt><trkpt lat="44.4314823" lon="11.1151065"><ele>175.0</ele><time>2026-03-21T14:15:39.594Z</time></trkpt><trkpt lat="44.431405" lon="11.1151019"><ele>175.0</ele><time>2026-03-21T14:15:40.593Z</time></trkpt><trkpt lat="44.4313365" lon="11.1150944"><ele>175.0</ele><time>2026-03-21T14:15:41.593Z</time></trkpt><trkpt lat="44.4312288" lon="11.1151143"><ele>174.83333333333334</ele><time>2026-03-21T14:15:43.592Z</time></trkpt><trkpt lat="44.4311648" lon="11.1151227"><ele>174.66666666666669</ele><time>2026-03-21T14:15:44.592Z</time></trkpt><trkpt lat="44.4310991" lon="11.1151218"><ele>174.5</ele><time>2026-03-21T14:15:45.594Z</time></trkpt><trkpt lat="44.4310322" lon="11.1151265"><ele>174.33333333333334</ele><time>2026-03-21T14:15:46.594Z</time></trkpt><trkpt lat="44.4309749" lon="11.115089"><ele>174.16666666666666</ele><time>2026-03-21T14:15:47.593Z</time></trkpt><trkpt lat="44.4308657" lon="11.1150309"><ele>174.0</ele><time>2026-03-21T14:15:49.593Z</time></trkpt><trkpt lat="44.4307584" lon="11.1149976"><ele>174.0</ele><time>2026-03-21T14:15:51.593Z</time></trkpt><trkpt lat="44.4306936" lon="11.1149387"><ele>174.0</ele><time>2026-03-21T14:15:53.593Z</time></trkpt><trkpt lat="44.430628" lon="11.1149062"><ele>174.0</ele><time>2026-03-21T14:15:55.592Z</time></trkpt><trkpt lat="44.430565" lon="11.1149142"><ele>174.0</ele><time>2026-03-21T14:15:57.593Z</time></trkpt><trkpt lat="44.4304746" lon="11.11494"><ele>174.0</ele><time>2026-03-21T14:15:59.593Z</time></trkpt><trkpt lat="44.4304075" lon="11.1149507"><ele>174.0</ele><time>2026-03-21T14:16:00.592Z</time></trkpt><trkpt lat="44.4302875" lon="11.1149375"><ele>174.39999999999998</ele><time>2026-03-21T14:16:02.592Z</time></trkpt><trkpt lat="44.4302095" lon="11.1149301"><ele>174.8</ele><time>2026-03-21T14:16:03.593Z</time></trkpt><trkpt lat="44.4300764" lon="11.1149155"><ele>175.2</ele><time>2026-03-21T14:16:05.593Z</time></trkpt><trkpt lat="44.4299588" lon="11.1148872"><ele>175.60000000000002</ele><time>2026-03-21T14:16:07.593Z</time></trkpt><trkpt lat="44.4298765" lon="11.1148538"><ele>176.0</ele><time>2026-03-21T14:16:10.594Z</time></trkpt><trkpt lat="44.4298115" lon="11.1148917"><ele>176.0</ele><time>2026-03-21T14:16:12.592Z</time></trkpt><trkpt lat="44.4297039" lon="11.1148899"><ele>176.0</ele><time>2026-03-21T14:16:14.594Z</time></trkpt><trkpt lat="44.4295993" lon="11.1148501"><ele>176.0</ele><time>2026-03-21T14:16:16.594Z</time></trkpt><trkpt lat="44.4295148" lon="11.114837"><ele>176.0</ele><time>2026-03-21T14:16:18.593Z</time></trkpt><trkpt lat="44.4294302" lon="11.114832"><ele>176.0</ele><time>2026-03-21T14:16:20.593Z</time></trkpt><trkpt lat="44.4293394" lon="11.1148396"><ele>176.0</ele><time>2026-03-21T14:16:22.592Z</time></trkpt><trkpt lat="44.429248" lon="11.1148368"><ele>176.0</ele><time>2026-03-21T14:16:24.594Z</time></trkpt><trkpt lat="44.429119" lon="11.1149002"><ele>176.0</ele><time>2026-03-21T14:16:26.592Z</time></trkpt><trkpt lat="44.4290155" lon="11.1149206"><ele>176.0</ele><time>2026-03-21T14:16:28.593Z</time></trkpt><trkpt lat="44.4289393" lon="11.1149121"><ele>176.0</ele><time>2026-03-21T14:16:30.592Z</time></trkpt><trkpt lat="44.4288716" lon="11.1149113"><ele>176.16666666666666</ele><time>2026-03-21T14:16:31.593Z</time></trkpt><trkpt lat="44.4287844" lon="11.1148449"><ele>176.33333333333331</ele><time>2026-03-21T14:16:33.593Z</time></trkpt><trkpt lat="44.4287219" lon="11.1148231"><ele>176.5</ele><time>2026-03-21T14:16:34.591Z</time></trkpt><trkpt lat="44.4286332" lon="11.1148236"><ele>176.66666666666666</ele><time>2026-03-21T14:16:36.592Z</time></trkpt><trkpt lat="44.4285662" lon="11.1147894"><ele>176.83333333333334</ele><time>2026-03-21T14:16:38.593Z</time></trkpt><trkpt lat="44.4285069" lon="11.1147386"><ele>177.0</ele><time>2026-03-21T14:16:41.594Z</time></trkpt><trkpt lat="44.4284279" lon="11.1146928"><ele>177.0</ele><time>2026-03-21T14:16:44.593Z</time></trkpt><trkpt lat="44.428336" lon="11.1146332"><ele>177.0</ele><time>2026-03-21T14:16:46.594Z</time></trkpt><trkpt lat="44.4282521" lon="11.1145549"><ele>177.0</ele><time>2026-03-21T14:16:48.593Z</time></trkpt><trkpt lat="44.4281903" lon="11.1144771"><ele>177.0</ele><time>2026-03-21T14:16:50.593Z</time></trkpt><trkpt lat="44.4280998" lon="11.1144531"><ele>177.0</ele><time>2026-03-21T14:16:52.593Z</time></trkpt><trkpt lat="44.4280268" lon="11.1144563"><ele>176.66666666666666</ele><time>2026-03-21T14:16:54.592Z</time></trkpt><trkpt lat="44.4279616" lon="11.114487"><ele>176.33333333333334</ele><time>2026-03-21T14:16:56.593Z</time></trkpt><trkpt lat="44.4278835" lon="11.1144686"><ele>176.0</ele><time>2026-03-21T14:16:58.594Z</time></trkpt><trkpt lat="44.4277783" lon="11.1144201"><ele>175.66666666666669</ele><time>2026-03-21T14:17:00.593Z</time></trkpt><trkpt lat="44.4277159" lon="11.1144009"><ele>175.33333333333334</ele><time>2026-03-21T14:17:01.592Z</time></trkpt><trkpt lat="44.4275983" lon="11.1143759"><ele>175.0</ele><time>2026-03-21T14:17:03.594Z</time></trkpt><trkpt lat="44.4275213" lon="11.1143727"><ele>175.0</ele><time>2026-03-21T14:17:04.594Z</time></trkpt><trkpt lat="44.4274671" lon="11.114317"><ele>175.0</ele><time>2026-03-21T14:17:06.593Z</time></trkpt><trkpt lat="44.42736" lon="11.1142348"><ele>175.0</ele><time>2026-03-21T14:17:09.592Z</time></trkpt><trkpt lat="44.4273025" lon="11.1141961"><ele>175.0</ele><time>2026-03-21T14:17:10.594Z</time></trkpt><trkpt lat="44.4272408" lon="11.1141773"><ele>175.0</ele><time>2026-03-21T14:17:11.593Z</time></trkpt><trkpt lat="44.4271579" lon="11.1141178"><ele>175.0</ele><time>2026-03-21T14:17:13.594Z</time></trkpt><trkpt lat="44.42713" lon="11.1140335"><ele>175.5</ele><time>2026-03-21T14:17:14.593Z</time></trkpt><trkpt lat="44.4270965" lon="11.1139538"><ele>176.0</ele><time>2026-03-21T14:17:15.593Z</time></trkpt><trkpt lat="44.4270588" lon="11.1138683"><ele>176.5</ele><time>2026-03-21T14:17:16.594Z</time></trkpt><trkpt lat="44.4270118" lon="11.1137848"><ele>177.0</ele><time>2026-03-21T14:17:17.592Z</time></trkpt><trkpt lat="44.4269656" lon="11.1137025"><ele>177.5</ele><time>2026-03-21T14:17:18.594Z</time></trkpt><trkpt lat="44.4269198" lon="11.113622"><ele>178.0</ele><time>2026-03-21T14:17:19.593Z</time></trkpt><trkpt lat="44.4268575" lon="11.1134782"><ele>178.0</ele><time>2026-03-21T14:17:21.593Z</time></trkpt><trkpt lat="44.4268422" lon="11.1133878"><ele>178.0</ele><time>2026-03-21T14:17:23.593Z</time></trkpt><trkpt lat="44.4268077" lon="11.1132859"><ele>178.0</ele><time>2026-03-21T14:17:25.593Z</time></trkpt><trkpt lat="44.4267596" lon="11.1132074"><ele>178.0</ele><time>2026-03-21T14:17:27.593Z</time></trkpt><trkpt lat="44.4267395" lon="11.1131222"><ele>178.0</ele><time>2026-03-21T14:17:29.593Z</time></trkpt><trkpt lat="44.4267133" lon="11.1130135"><ele>178.0</ele><time>2026-03-21T14:17:31.593Z</time></trkpt><trkpt lat="44.4266458" lon="11.1129318"><ele>178.0</ele><time>2026-03-21T14:17:33.593Z</time></trkpt><trkpt lat="44.4265866" lon="11.1128559"><ele>178.0</ele><time>2026-03-21T14:17:36.592Z</time></trkpt><trkpt lat="44.4265619" lon="11.1127478"><ele>178.0</ele><time>2026-03-21T14:17:42.594Z</time></trkpt><trkpt lat="44.4264654" lon="11.1125947"><ele>178.0</ele><time>2026-03-21T14:17:45.594Z</time></trkpt><trkpt lat="44.4264078" lon="11.1125149"><ele>178.0</ele><time>2026-03-21T14:17:47.593Z</time></trkpt><trkpt lat="44.4263506" lon="11.1124695"><ele>178.60000000000002</ele><time>2026-03-21T14:17:48.593Z</time></trkpt><trkpt lat="44.4262668" lon="11.1123429"><ele>179.20000000000002</ele><time>2026-03-21T14:17:50.592Z</time></trkpt><trkpt lat="44.4261919" lon="11.1122276"><ele>179.8</ele><time>2026-03-21T14:17:52.594Z</time></trkpt><trkpt lat="44.4261139" lon="11.1121058"><ele>180.4</ele><time>2026-03-21T14:17:54.593Z</time></trkpt><trkpt lat="44.4260674" lon="11.1120334"><ele>181.0</ele><time>2026-03-21T14:17:55.592Z</time></trkpt><trkpt lat="44.4260231" lon="11.1119627"><ele>181.0</ele><time>2026-03-21T14:17:56.593Z</time></trkpt><trkpt lat="44.4259747" lon="11.1119048"><ele>181.0</ele><time>2026-03-21T14:17:57.593Z</time></trkpt><trkpt lat="44.4259256" lon="11.1118451"><ele>181.0</ele><time>2026-03-21T14:17:58.594Z</time></trkpt><trkpt lat="44.425882" lon="11.1117705"><ele>181.0</ele><time>2026-03-21T14:17:59.594Z</time></trkpt><trkpt lat="44.4258377" lon="11.1116913"><ele>181.0</ele><time>2026-03-21T14:18:00.594Z</time></trkpt><trkpt lat="44.4257981" lon="11.1116018"><ele>181.0</ele><time>2026-03-21T14:18:01.593Z</time></trkpt><trkpt lat="44.4257586" lon="11.1115116"><ele>181.0</ele><time>2026-03-21T14:18:02.594Z</time></trkpt><trkpt lat="44.4257136" lon="11.1114197"><ele>181.0</ele><time>2026-03-21T14:18:03.593Z</time></trkpt><trkpt lat="44.4256523" lon="11.1113413"><ele>181.0</ele><time>2026-03-21T14:18:04.594Z</time></trkpt><trkpt lat="44.4255903" lon="11.1112615"><ele>181.0</ele><time>2026-03-21T14:18:05.595Z</time></trkpt><trkpt lat="44.4255389" lon="11.1111923"><ele>181.0</ele><time>2026-03-21T14:18:06.592Z</time></trkpt><trkpt lat="44.4254855" lon="11.1111268"><ele>181.0</ele><time>2026-03-21T14:18:07.593Z</time></trkpt><trkpt lat="44.425434" lon="11.1110594"><ele>181.0</ele><time>2026-03-21T14:18:08.593Z</time></trkpt><trkpt lat="44.4253715" lon="11.1109788"><ele>181.0</ele><time>2026-03-21T14:18:09.593Z</time></trkpt><trkpt lat="44.4253149" lon="11.1109026"><ele>181.0</ele><time>2026-03-21T14:18:10.594Z</time></trkpt><trkpt lat="44.4252479" lon="11.1108217"><ele>181.0</ele><time>2026-03-21T14:18:11.594Z</time></trkpt><trkpt lat="44.4251756" lon="11.1107309"><ele>181.0</ele><time>2026-03-21T14:18:12.593Z</time></trkpt><trkpt lat="44.425113" lon="11.1106444"><ele>181.0</ele><time>2026-03-21T14:18:13.593Z</time></trkpt><trkpt lat="44.4250617" lon="11.1105867"><ele>181.0</ele><time>2026-03-21T14:18:14.593Z</time></trkpt><trkpt lat="44.4249801" lon="11.1105024"><ele>181.33333333333334</ele><time>2026-03-21T14:18:16.593Z</time></trkpt><trkpt lat="44.4249106" lon="11.1104692"><ele>181.66666666666669</ele><time>2026-03-21T14:18:18.594Z</time></trkpt><trkpt lat="44.4248482" lon="11.1104048"><ele>182.0</ele><time>2026-03-21T14:18:23.593Z</time></trkpt><trkpt lat="44.4248124" lon="11.1102838"><ele>182.33333333333334</ele><time>2026-03-21T14:18:26.594Z</time></trkpt><trkpt lat="44.4247698" lon="11.110155"><ele>182.66666666666666</ele><time>2026-03-21T14:18:28.594Z</time></trkpt><trkpt lat="44.4246765" lon="11.1101204"><ele>183.0</ele><time>2026-03-21T14:18:31.594Z</time></trkpt><trkpt lat="44.4246282" lon="11.1100341"><ele>183.5</ele><time>2026-03-21T14:18:34.594Z</time></trkpt><trkpt lat="44.424557" lon="11.1099838"><ele>184.0</ele><time>2026-03-21T14:18:36.594Z</time></trkpt><trkpt lat="44.4244915" lon="11.1098781"><ele>184.5</ele><time>2026-03-21T14:18:38.593Z</time></trkpt><trkpt lat="44.4244673" lon="11.1097925"><ele>185.0</ele><time>2026-03-21T14:18:40.594Z</time></trkpt><trkpt lat="44.4244287" lon="11.1097118"><ele>185.5</ele><time>2026-03-21T14:18:42.593Z</time></trkpt><trkpt lat="44.4243387" lon="11.1096172"><ele>186.0</ele><time>2026-03-21T14:18:44.594Z</time></trkpt><trkpt lat="44.4242558" lon="11.1096169"><ele>186.16666666666666</ele><time>2026-03-21T14:18:47.594Z</time></trkpt><trkpt lat="44.4242146" lon="11.1095127"><ele>186.33333333333334</ele><time>2026-03-21T14:18:51.594Z</time></trkpt><trkpt lat="44.4241524" lon="11.1094472"><ele>186.5</ele><time>2026-03-21T14:18:53.593Z</time></trkpt><trkpt lat="44.4240477" lon="11.109371"><ele>186.66666666666669</ele><time>2026-03-21T14:18:55.594Z</time></trkpt><trkpt lat="44.4239733" lon="11.1093884"><ele>186.83333333333334</ele><time>2026-03-21T14:18:58.593Z</time></trkpt><trkpt lat="44.4238971" lon="11.1093634"><ele>187.0</ele><time>2026-03-21T14:19:01.594Z</time></trkpt><trkpt lat="44.4238769" lon="11.1092703"><ele>187.0</ele><time>2026-03-21T14:19:06.593Z</time></trkpt><trkpt lat="44.4238068" lon="11.1092103"><ele>187.0</ele><time>2026-03-21T14:19:09.593Z</time></trkpt><trkpt lat="44.4237414" lon="11.1091451"><ele>187.0</ele><time>2026-03-21T14:19:11.595Z</time></trkpt><trkpt lat="44.4236719" lon="11.1090428"><ele>187.0</ele><time>2026-03-21T14:19:13.593Z</time></trkpt><trkpt lat="44.4236522" lon="11.1089149"><ele>187.0</ele><time>2026-03-21T14:19:15.593Z</time></trkpt><trkpt lat="44.4236072" lon="11.1088034"><ele>187.0</ele><time>2026-03-21T14:19:17.593Z</time></trkpt><trkpt lat="44.4235462" lon="11.1087245"><ele>187.0</ele><time>2026-03-21T14:19:20.593Z</time></trkpt><trkpt lat="44.4234885" lon="11.1086863"><ele>187.0</ele><time>2026-03-21T14:19:23.593Z</time></trkpt><trkpt lat="44.4234074" lon="11.1086187"><ele>187.0</ele><time>2026-03-21T14:19:26.593Z</time></trkpt><trkpt lat="44.4233422" lon="11.1085448"><ele>187.0</ele><time>2026-03-21T14:19:28.593Z</time></trkpt><trkpt lat="44.4232834" lon="11.1084948"><ele>187.0</ele><time>2026-03-21T14:19:30.593Z</time></trkpt><trkpt lat="44.4232171" lon="11.1084409"><ele>187.0</ele><time>2026-03-21T14:19:33.593Z</time></trkpt><trkpt lat="44.4231336" lon="11.1083483"><ele>187.0</ele><time>2026-03-21T14:19:36.593Z</time></trkpt><trkpt lat="44.4230659" lon="11.1082779"><ele>187.0</ele><time>2026-03-21T14:19:38.594Z</time></trkpt><trkpt lat="44.4229756" lon="11.1082065"><ele>187.0</ele><time>2026-03-21T14:19:40.593Z</time></trkpt><trkpt lat="44.4229106" lon="11.1081499"><ele>187.0</ele><time>2026-03-21T14:19:42.593Z</time></trkpt><trkpt lat="44.4228374" lon="11.1080847"><ele>187.0</ele><time>2026-03-21T14:19:44.595Z</time></trkpt><trkpt lat="44.4227567" lon="11.1080153"><ele>187.0</ele><time>2026-03-21T14:19:46.595Z</time></trkpt><trkpt lat="44.4226841" lon="11.1079424"><ele>187.2</ele><time>2026-03-21T14:19:48.594Z</time></trkpt><trkpt lat="44.4226348" lon="11.1078339"><ele>187.39999999999998</ele><time>2026-03-21T14:19:51.594Z</time></trkpt><trkpt lat="44.4225634" lon="11.1077402"><ele>187.60000000000002</ele><time>2026-03-21T14:19:52.593Z</time></trkpt><trkpt lat="44.422454" lon="11.1076309"><ele>187.8</ele><time>2026-03-21T14:19:54.596Z</time></trkpt><trkpt lat="44.4224018" lon="11.1075775"><ele>188.0</ele><time>2026-03-21T14:19:55.594Z</time></trkpt><trkpt lat="44.4223361" lon="11.1074739"><ele>188.0</ele><time>2026-03-21T14:19:58.594Z</time></trkpt><trkpt lat="44.4222596" lon="11.1074796"><ele>188.0</ele><time>2026-03-21T14:20:00.592Z</time></trkpt><trkpt lat="44.4221852" lon="11.1074156"><ele>188.0</ele><time>2026-03-21T14:20:02.594Z</time></trkpt><trkpt lat="44.4221041" lon="11.1073193"><ele>188.0</ele><time>2026-03-21T14:20:04.594Z</time></trkpt><trkpt lat="44.4220419" lon="11.107219"><ele>188.0</ele><time>2026-03-21T14:20:06.594Z</time></trkpt><trkpt lat="44.4220014" lon="11.1071486"><ele>188.0</ele><time>2026-03-21T14:20:07.593Z</time></trkpt><trkpt lat="44.4219411" lon="11.1070753"><ele>188.4</ele><time>2026-03-21T14:20:09.592Z</time></trkpt><trkpt lat="44.4218743" lon="11.1069999"><ele>188.8</ele><time>2026-03-21T14:20:11.594Z</time></trkpt><trkpt lat="44.4217741" lon="11.1069219"><ele>189.2</ele><time>2026-03-21T14:20:13.595Z</time></trkpt><trkpt lat="44.4217216" lon="11.1068533"><ele>189.6</ele><time>2026-03-21T14:20:15.593Z</time></trkpt><trkpt lat="44.4216467" lon="11.10686"><ele>190.0</ele><time>2026-03-21T14:20:18.593Z</time></trkpt><trkpt lat="44.4215382" lon="11.1068199"><ele>190.0</ele><time>2026-03-21T14:20:20.593Z</time></trkpt><trkpt lat="44.4215394" lon="11.1067114"><ele>190.0</ele><time>2026-03-21T14:20:22.593Z</time></trkpt><trkpt lat="44.4214675" lon="11.1066521"><ele>190.0</ele><time>2026-03-21T14:20:24.593Z</time></trkpt><trkpt lat="44.4214095" lon="11.1065853"><ele>190.0</ele><time>2026-03-21T14:20:26.592Z</time></trkpt><trkpt lat="44.4213473" lon="11.1065138"><ele>190.0</ele><time>2026-03-21T14:20:28.594Z</time></trkpt><trkpt lat="44.4212778" lon="11.1064486"><ele>190.0</ele><time>2026-03-21T14:20:30.592Z</time></trkpt><trkpt lat="44.4212046" lon="11.1063946"><ele>190.0</ele><time>2026-03-21T14:20:33.592Z</time></trkpt><trkpt lat="44.4211385" lon="11.1063559"><ele>190.0</ele><time>2026-03-21T14:20:36.594Z</time></trkpt><trkpt lat="44.4210797" lon="11.1063012"><ele>190.0</ele><time>2026-03-21T14:20:38.596Z</time></trkpt><trkpt lat="44.4210238" lon="11.1062585"><ele>190.0</ele><time>2026-03-21T14:20:40.594Z</time></trkpt><trkpt lat="44.4209418" lon="11.106209"><ele>190.0</ele><time>2026-03-21T14:20:42.594Z</time></trkpt><trkpt lat="44.4208799" lon="11.106172"><ele>190.0</ele><time>2026-03-21T14:20:44.594Z</time></trkpt><trkpt lat="44.4207989" lon="11.1061113"><ele>190.0</ele><time>2026-03-21T14:20:45.594Z</time></trkpt><trkpt lat="44.4207409" lon="11.1060687"><ele>190.0</ele><time>2026-03-21T14:20:46.594Z</time></trkpt><trkpt lat="44.4206793" lon="11.106041"><ele>190.0</ele><time>2026-03-21T14:20:47.595Z</time></trkpt><trkpt lat="44.4206003" lon="11.1059921"><ele>190.0</ele><time>2026-03-21T14:20:49.595Z</time></trkpt><trkpt lat="44.4205227" lon="11.1059345"><ele>190.0</ele><time>2026-03-21T14:20:51.593Z</time></trkpt><trkpt lat="44.4204204" lon="11.1058956"><ele>190.0</ele><time>2026-03-21T14:20:54.596Z</time></trkpt><trkpt lat="44.4203649" lon="11.1058229"><ele>190.2</ele><time>2026-03-21T14:20:56.594Z</time></trkpt><trkpt lat="44.4202693" lon="11.1057908"><ele>190.4</ele><time>2026-03-21T14:20:58.594Z</time></trkpt><trkpt lat="44.420161" lon="11.1057095"><ele>190.60000000000002</ele><time>2026-03-21T14:21:00.594Z</time></trkpt><trkpt lat="44.4200598" lon="11.1056322"><ele>190.8</ele><time>2026-03-21T14:21:02.594Z</time></trkpt><trkpt lat="44.419993" lon="11.1055866"><ele>191.0</ele><time>2026-03-21T14:21:03.594Z</time></trkpt><trkpt lat="44.4199314" lon="11.10555"><ele>191.0</ele><time>2026-03-21T14:21:04.594Z</time></trkpt><trkpt lat="44.419842" lon="11.1054949"><ele>191.0</ele><time>2026-03-21T14:21:06.595Z</time></trkpt><trkpt lat="44.4197746" lon="11.1054319"><ele>191.0</ele><time>2026-03-21T14:21:10.594Z</time></trkpt><trkpt lat="44.419705" lon="11.1054136"><ele>191.0</ele><time>2026-03-21T14:21:15.594Z</time></trkpt><trkpt lat="44.4196436" lon="11.1053524"><ele>191.0</ele><time>2026-03-21T14:21:21.594Z</time></trkpt><trkpt lat="44.4195616" lon="11.105299"><ele>191.0</ele><time>2026-03-21T14:21:23.594Z</time></trkpt><trkpt lat="44.4194839" lon="11.1052462"><ele>191.33333333333331</ele><time>2026-03-21T14:21:24.595Z</time></trkpt><trkpt lat="44.4193817" lon="11.1051698"><ele>191.66666666666666</ele><time>2026-03-21T14:21:26.594Z</time></trkpt><trkpt lat="44.4193112" lon="11.1051315"><ele>192.0</ele><time>2026-03-21T14:21:27.594Z</time></trkpt><trkpt lat="44.4192388" lon="11.1050775"><ele>192.33333333333331</ele><time>2026-03-21T14:21:29.593Z</time></trkpt><trkpt lat="44.4191778" lon="11.1050542"><ele>192.66666666666666</ele><time>2026-03-21T14:21:32.595Z</time></trkpt><trkpt lat="44.4190948" lon="11.1049858"><ele>193.0</ele><time>2026-03-21T14:21:35.595Z</time></trkpt><trkpt lat="44.4189936" lon="11.1049505"><ele>193.16666666666666</ele><time>2026-03-21T14:21:37.595Z</time></trkpt><trkpt lat="44.4189365" lon="11.1049099"><ele>193.33333333333331</ele><time>2026-03-21T14:21:38.594Z</time></trkpt><trkpt lat="44.4188669" lon="11.104844"><ele>193.5</ele><time>2026-03-21T14:21:40.593Z</time></trkpt><trkpt lat="44.4188142" lon="11.1047861"><ele>193.66666666666669</ele><time>2026-03-21T14:21:42.594Z</time></trkpt><trkpt lat="44.4187643" lon="11.1046988"><ele>193.83333333333334</ele><time>2026-03-21T14:21:44.593Z</time></trkpt><trkpt lat="44.4186735" lon="11.1047037"><ele>194.0</ele><time>2026-03-21T14:21:45.596Z</time></trkpt><trkpt lat="44.4185876" lon="11.104654"><ele>194.00000000000003</ele><time>2026-03-21T14:21:47.595Z</time></trkpt><trkpt lat="44.4184937" lon="11.1046317"><ele>194.0</ele><time>2026-03-21T14:21:49.594Z</time></trkpt><trkpt lat="44.4184113" lon="11.1045896"><ele>194.0</ele><time>2026-03-21T14:21:51.595Z</time></trkpt><trkpt lat="44.4183394" lon="11.104556"><ele>194.0</ele><time>2026-03-21T14:21:53.595Z</time></trkpt><trkpt lat="44.4182716" lon="11.1045195"><ele>194.00000000000003</ele><time>2026-03-21T14:21:55.594Z</time></trkpt><trkpt lat="44.4181852" lon="11.1044795"><ele>194.0</ele><time>2026-03-21T14:21:58.594Z</time></trkpt><trkpt lat="44.4181262" lon="11.104429"><ele>194.00000000000003</ele><time>2026-03-21T14:22:00.594Z</time></trkpt><trkpt lat="44.4180634" lon="11.1043811"><ele>194.0</ele><time>2026-03-21T14:22:02.594Z</time></trkpt><trkpt lat="44.4179914" lon="11.1043318"><ele>194.0</ele><time>2026-03-21T14:22:04.594Z</time></trkpt><trkpt lat="44.4179175" lon="11.104285"><ele>194.0</ele><time>2026-03-21T14:22:06.593Z</time></trkpt><trkpt lat="44.4178618" lon="11.1042254"><ele>194.00000000000003</ele><time>2026-03-21T14:22:08.594Z</time></trkpt><trkpt lat="44.4177857" lon="11.1042024"><ele>194.0</ele><time>2026-03-21T14:22:11.594Z</time></trkpt><trkpt lat="44.4177132" lon="11.1041728"><ele>194.16666666666669</ele><time>2026-03-21T14:22:17.594Z</time></trkpt><trkpt lat="44.417657" lon="11.1040982"><ele>194.33333333333334</ele><time>2026-03-21T14:22:20.595Z</time></trkpt><trkpt lat="44.417584" lon="11.1041414"><ele>194.5</ele><time>2026-03-21T14:22:28.594Z</time></trkpt><trkpt lat="44.417495" lon="11.1041247"><ele>194.66666666666669</ele><time>2026-03-21T14:22:31.594Z</time></trkpt><trkpt lat="44.4174374" lon="11.1040744"><ele>194.83333333333334</ele><time>2026-03-21T14:22:45.593Z</time></trkpt><trkpt lat="44.4173758" lon="11.1040407"><ele>195.0</ele><time>2026-03-21T14:22:47.595Z</time></trkpt><trkpt lat="44.4172935" lon="11.1040065"><ele>195.0</ele><time>2026-03-21T14:22:49.593Z</time></trkpt><trkpt lat="44.417206" lon="11.1039774"><ele>195.0</ele><time>2026-03-21T14:22:51.596Z</time></trkpt><trkpt lat="44.4171387" lon="11.1039673"><ele>195.0</ele><time>2026-03-21T14:22:53.594Z</time></trkpt><trkpt lat="44.4170789" lon="11.1039095"><ele>195.0</ele><time>2026-03-21T14:22:57.594Z</time></trkpt><trkpt lat="44.417022" lon="11.103864"><ele>195.0</ele><time>2026-03-21T14:23:01.594Z</time></trkpt><trkpt lat="44.4169394" lon="11.1038097"><ele>195.0</ele><time>2026-03-21T14:23:04.595Z</time></trkpt><trkpt lat="44.4168777" lon="11.1037793"><ele>195.5</ele><time>2026-03-21T14:23:07.594Z</time></trkpt><trkpt lat="44.4168034" lon="11.1037511"><ele>196.0</ele><time>2026-03-21T14:23:10.593Z</time></trkpt><trkpt lat="44.4167285" lon="11.1036908"><ele>196.5</ele><time>2026-03-21T14:23:12.595Z</time></trkpt><trkpt lat="44.4166526" lon="11.1036547"><ele>197.0</ele><time>2026-03-21T14:23:16.593Z</time></trkpt><trkpt lat="44.4165898" lon="11.1036238"><ele>197.5</ele><time>2026-03-21T14:23:20.594Z</time></trkpt><trkpt lat="44.41652" lon="11.1035997"><ele>198.0</ele><time>2026-03-21T14:23:25.596Z</time></trkpt><trkpt lat="44.4164426" lon="11.1035828"><ele>198.0</ele><time>2026-03-21T14:23:28.594Z</time></trkpt><trkpt lat="44.4163684" lon="11.1035349"><ele>198.0</ele><time>2026-03-21T14:23:31.594Z</time></trkpt><trkpt lat="44.4163078" lon="11.1034649"><ele>198.0</ele><time>2026-03-21T14:23:34.594Z</time></trkpt><trkpt lat="44.4160023" lon="11.1033157"><ele>198.5</ele><time>2026-03-21T14:23:43.841Z</time></trkpt><trkpt lat="44.4159248" lon="11.10322"><ele>199.0</ele><time>2026-03-21T14:23:49.84Z</time></trkpt><trkpt lat="44.4158091" lon="11.1031784"><ele>199.5</ele><time>2026-03-21T14:23:51.841Z</time></trkpt><trkpt lat="44.4157701" lon="11.1030299"><ele>200.0</ele><time>2026-03-21T14:23:54.84Z</time></trkpt><trkpt lat="44.4156928" lon="11.1029104"><ele>200.0</ele><time>2026-03-21T14:23:56.84Z</time></trkpt><trkpt lat="44.4155993" lon="11.1029258"><ele>200.0</ele><time>2026-03-21T14:23:57.841Z</time></trkpt><trkpt lat="44.4154859" lon="11.1027733"><ele>200.0</ele><time>2026-03-21T14:24:02.839Z</time></trkpt><trkpt lat="44.4153892" lon="11.1027385"><ele>200.0</ele><time>2026-03-21T14:24:03.839Z</time></trkpt><trkpt lat="44.4152868" lon="11.1027021"><ele>200.00000000000003</ele><time>2026-03-21T14:24:05.841Z</time></trkpt><trkpt lat="44.4153652" lon="11.1026377"><ele>200.0</ele><time>2026-03-21T14:24:06.84Z</time></trkpt><trkpt lat="44.4152852" lon="11.1025598"><ele>200.0</ele><time>2026-03-21T14:24:07.841Z</time></trkpt><trkpt lat="44.4152252" lon="11.1024876"><ele>200.0</ele><time>2026-03-21T14:24:10.84Z</time></trkpt><trkpt lat="44.4151344" lon="11.1024963"><ele>200.00000000000003</ele><time>2026-03-21T14:24:11.84Z</time></trkpt><trkpt lat="44.4151373" lon="11.1024046"><ele>200.0</ele><time>2026-03-21T14:24:12.841Z</time></trkpt><trkpt lat="44.4151739" lon="11.102307"><ele>200.0</ele><time>2026-03-21T14:24:14.84Z</time></trkpt><trkpt lat="44.4150712" lon="11.1021527"><ele>200.0</ele><time>2026-03-21T14:24:15.84Z</time></trkpt><trkpt lat="44.4151386" lon="11.1021846"><ele>200.0</ele><time>2026-03-21T14:24:18.594Z</time></trkpt><trkpt lat="44.4151976" lon="11.1020869"><ele>200.0</ele><time>2026-03-21T14:25:46.595Z</time></trkpt><trkpt lat="44.4152489" lon="11.1020133"><ele>200.0</ele><time>2026-03-21T14:25:48.594Z</time></trkpt><trkpt lat="44.415316" lon="11.1019279"><ele>200.00000000000003</ele><time>2026-03-21T14:25:49.595Z</time></trkpt><trkpt lat="44.4153466" lon="11.1018286"><ele>200.0</ele><time>2026-03-21T14:25:51.594Z</time></trkpt><trkpt lat="44.4153578" lon="11.1017235"><ele>200.0</ele><time>2026-03-21T14:25:53.594Z</time></trkpt><trkpt lat="44.4153324" lon="11.1016372"><ele>200.0</ele><time>2026-03-21T14:25:55.595Z</time></trkpt><trkpt lat="44.4152562" lon="11.1015416"><ele>200.00000000000003</ele><time>2026-03-21T14:25:57.594Z</time></trkpt><trkpt lat="44.4151904" lon="11.1014374"><ele>200.0</ele><time>2026-03-21T14:25:59.596Z</time></trkpt><trkpt lat="44.4151172" lon="11.101324"><ele>199.8</ele><time>2026-03-21T14:26:01.594Z</time></trkpt><trkpt lat="44.4150258" lon="11.101212"><ele>199.6</ele><time>2026-03-21T14:26:03.595Z</time></trkpt><trkpt lat="44.4149346" lon="11.1011019"><ele>199.39999999999998</ele><time>2026-03-21T14:26:05.595Z</time></trkpt><trkpt lat="44.4148881" lon="11.1010392"><ele>199.2</ele><time>2026-03-21T14:26:06.595Z</time></trkpt><trkpt lat="44.4148346" lon="11.1009742"><ele>199.0</ele><time>2026-03-21T14:26:07.595Z</time></trkpt><trkpt lat="44.4147594" lon="11.1008531"><ele>199.0</ele><time>2026-03-21T14:26:09.594Z</time></trkpt><trkpt lat="44.4147114" lon="11.1007923"><ele>199.0</ele><time>2026-03-21T14:26:10.595Z</time></trkpt><trkpt lat="44.4146379" lon="11.1006701"><ele>199.0</ele><time>2026-03-21T14:26:12.594Z</time></trkpt><trkpt lat="44.4145819" lon="11.1006049"><ele>199.0</ele><time>2026-03-21T14:26:13.594Z</time></trkpt><trkpt lat="44.4144921" lon="11.1005048"><ele>199.0</ele><time>2026-03-21T14:26:15.595Z</time></trkpt><trkpt lat="44.414419" lon="11.1003863"><ele>199.66666666666666</ele><time>2026-03-21T14:26:17.595Z</time></trkpt><trkpt lat="44.4143444" lon="11.100319"><ele>200.33333333333331</ele><time>2026-03-21T14:26:19.594Z</time></trkpt><trkpt lat="44.4142789" lon="11.1003226"><ele>201.0</ele><time>2026-03-21T14:26:25.596Z</time></trkpt><trkpt lat="44.4142288" lon="11.1004028"><ele>201.66666666666669</ele><time>2026-03-21T14:26:28.596Z</time></trkpt><trkpt lat="44.4141651" lon="11.1004745"><ele>202.33333333333334</ele><time>2026-03-21T14:26:31.595Z</time></trkpt><trkpt lat="44.4140831" lon="11.1005294"><ele>203.0</ele><time>2026-03-21T14:26:33.594Z</time></trkpt><trkpt lat="44.4139935" lon="11.1005969"><ele>203.0</ele><time>2026-03-21T14:26:35.594Z</time></trkpt><trkpt lat="44.4138942" lon="11.1006646"><ele>203.0</ele><time>2026-03-21T14:26:37.594Z</time></trkpt><trkpt lat="44.4138327" lon="11.1006967"><ele>203.0</ele><time>2026-03-21T14:26:39.594Z</time></trkpt><trkpt lat="44.4137453" lon="11.1007135"><ele>203.0</ele><time>2026-03-21T14:26:42.593Z</time></trkpt><trkpt lat="44.4136586" lon="11.1006766"><ele>203.0</ele><time>2026-03-21T14:26:44.594Z</time></trkpt><trkpt lat="44.4135642" lon="11.1006207"><ele>202.8</ele><time>2026-03-21T14:26:46.594Z</time></trkpt><trkpt lat="44.4134656" lon="11.1005444"><ele>202.60000000000002</ele><time>2026-03-21T14:26:48.595Z</time></trkpt><trkpt lat="44.413415" lon="11.1004891"><ele>202.39999999999998</ele><time>2026-03-21T14:26:49.595Z</time></trkpt><trkpt lat="44.4133328" lon="11.1003891"><ele>202.2</ele><time>2026-03-21T14:26:51.595Z</time></trkpt><trkpt lat="44.4132683" lon="11.1003168"><ele>202.0</ele><time>2026-03-21T14:26:53.595Z</time></trkpt><trkpt lat="44.4131849" lon="11.100294"><ele>201.99999999999997</ele><time>2026-03-21T14:26:55.594Z</time></trkpt><trkpt lat="44.4131196" lon="11.1002314"><ele>202.0</ele><time>2026-03-21T14:26:57.593Z</time></trkpt><trkpt lat="44.4130385" lon="11.1001283"><ele>202.0</ele><time>2026-03-21T14:26:59.595Z</time></trkpt><trkpt lat="44.4129895" lon="11.1000709"><ele>202.0</ele><time>2026-03-21T14:27:00.596Z</time></trkpt><trkpt lat="44.4129297" lon="11.099981"><ele>201.99999999999997</ele><time>2026-03-21T14:27:02.593Z</time></trkpt><trkpt lat="44.41289" lon="11.0998573"><ele>202.0</ele><time>2026-03-21T14:27:04.595Z</time></trkpt><trkpt lat="44.4128586" lon="11.0997534"><ele>202.16666666666666</ele><time>2026-03-21T14:27:06.596Z</time></trkpt><trkpt lat="44.4128352" lon="11.0996118"><ele>202.33333333333331</ele><time>2026-03-21T14:27:08.595Z</time></trkpt><trkpt lat="44.412798" lon="11.0995023"><ele>202.5</ele><time>2026-03-21T14:27:10.594Z</time></trkpt><trkpt lat="44.4127303" lon="11.0994604"><ele>202.66666666666669</ele><time>2026-03-21T14:27:11.595Z</time></trkpt><trkpt lat="44.4126619" lon="11.099385"><ele>202.83333333333334</ele><time>2026-03-21T14:27:13.595Z</time></trkpt><trkpt lat="44.4125947" lon="11.0992888"><ele>203.0</ele><time>2026-03-21T14:27:16.594Z</time></trkpt><trkpt lat="44.4125466" lon="11.0991878"><ele>203.0</ele><time>2026-03-21T14:27:18.596Z</time></trkpt><trkpt lat="44.412485" lon="11.0990871"><ele>203.0</ele><time>2026-03-21T14:27:20.595Z</time></trkpt><trkpt lat="44.4124226" lon="11.098988"><ele>203.0</ele><time>2026-03-21T14:27:22.594Z</time></trkpt><trkpt lat="44.4123331" lon="11.0989128"><ele>203.0</ele><time>2026-03-21T14:27:24.594Z</time></trkpt><trkpt lat="44.4122977" lon="11.0988349"><ele>203.0</ele><time>2026-03-21T14:27:26.593Z</time></trkpt><trkpt lat="44.4122289" lon="11.0987416"><ele>203.8</ele><time>2026-03-21T14:27:28.595Z</time></trkpt><trkpt lat="44.4121193" lon="11.098619"><ele>204.60000000000002</ele><time>2026-03-21T14:27:30.597Z</time></trkpt><trkpt lat="44.4120781" lon="11.0985481"><ele>205.39999999999998</ele><time>2026-03-21T14:27:31.595Z</time></trkpt><trkpt lat="44.4120232" lon="11.0984961"><ele>206.2</ele><time>2026-03-21T14:27:32.595Z</time></trkpt><trkpt lat="44.4119634" lon="11.0984091"><ele>207.0</ele><time>2026-03-21T14:27:34.594Z</time></trkpt><trkpt lat="44.4118818" lon="11.0983399"><ele>206.6</ele><time>2026-03-21T14:27:36.595Z</time></trkpt><trkpt lat="44.4118172" lon="11.0982485"><ele>206.2</ele><time>2026-03-21T14:27:38.597Z</time></trkpt><trkpt lat="44.4117402" lon="11.0981058"><ele>205.8</ele><time>2026-03-21T14:27:40.594Z</time></trkpt><trkpt lat="44.4117049" lon="11.0980274"><ele>205.4</ele><time>2026-03-21T14:27:41.595Z</time></trkpt><trkpt lat="44.4116273" lon="11.0979016"><ele>205.0</ele><time>2026-03-21T14:27:43.595Z</time></trkpt><trkpt lat="44.4115897" lon="11.0978214"><ele>204.99999999999997</ele><time>2026-03-21T14:27:44.595Z</time></trkpt><trkpt lat="44.4115588" lon="11.0977279"><ele>205.0</ele><time>2026-03-21T14:27:45.596Z</time></trkpt><trkpt lat="44.4114912" lon="11.0976679"><ele>205.0</ele><time>2026-03-21T14:27:46.594Z</time></trkpt><trkpt lat="44.4114206" lon="11.0975672"><ele>205.0</ele><time>2026-03-21T14:27:48.595Z</time></trkpt><trkpt lat="44.4113873" lon="11.0974883"><ele>204.99999999999997</ele><time>2026-03-21T14:27:52.595Z</time></trkpt><trkpt lat="44.4113004" lon="11.0975224"><ele>205.0</ele><time>2026-03-21T14:27:53.594Z</time></trkpt><trkpt lat="44.4112182" lon="11.0975244"><ele>205.4</ele><time>2026-03-21T14:27:55.595Z</time></trkpt><trkpt lat="44.4112018" lon="11.09743"><ele>205.8</ele><time>2026-03-21T14:27:57.594Z</time></trkpt><trkpt lat="44.4111666" lon="11.0972688"><ele>206.2</ele><time>2026-03-21T14:27:59.595Z</time></trkpt><trkpt lat="44.4111242" lon="11.0971809"><ele>206.6</ele><time>2026-03-21T14:28:00.596Z</time></trkpt><trkpt lat="44.4110847" lon="11.0971093"><ele>207.0</ele><time>2026-03-21T14:28:01.595Z</time></trkpt><trkpt lat="44.4109775" lon="11.0969742"><ele>207.0</ele><time>2026-03-21T14:28:03.595Z</time></trkpt><trkpt lat="44.4109172" lon="11.0969096"><ele>207.0</ele><time>2026-03-21T14:28:04.595Z</time></trkpt><trkpt lat="44.4108465" lon="11.0968587"><ele>207.0</ele><time>2026-03-21T14:28:05.594Z</time></trkpt><trkpt lat="44.4107923" lon="11.0968042"><ele>207.0</ele><time>2026-03-21T14:28:06.594Z</time></trkpt><trkpt lat="44.4106679" lon="11.0967446"><ele>207.0</ele><time>2026-03-21T14:28:08.594Z</time></trkpt><trkpt lat="44.4105746" lon="11.0966709"><ele>207.0</ele><time>2026-03-21T14:28:10.593Z</time></trkpt><trkpt lat="44.4105204" lon="11.0966099"><ele>207.0</ele><time>2026-03-21T14:28:11.595Z</time></trkpt><trkpt lat="44.410458" lon="11.0965485"><ele>207.0</ele><time>2026-03-21T14:28:12.595Z</time></trkpt><trkpt lat="44.410382" lon="11.0964818"><ele>207.0</ele><time>2026-03-21T14:28:13.594Z</time></trkpt><trkpt lat="44.4103318" lon="11.0964064"><ele>207.0</ele><time>2026-03-21T14:28:14.594Z</time></trkpt><trkpt lat="44.4102806" lon="11.096317"><ele>207.0</ele><time>2026-03-21T14:28:15.595Z</time></trkpt><trkpt lat="44.4102206" lon="11.0961965"><ele>207.5</ele><time>2026-03-21T14:28:16.595Z</time></trkpt><trkpt lat="44.4101541" lon="11.0960921"><ele>208.0</ele><time>2026-03-21T14:28:17.594Z</time></trkpt><trkpt lat="44.4101047" lon="11.095973"><ele>208.5</ele><time>2026-03-21T14:28:18.593Z</time></trkpt><trkpt lat="44.4100593" lon="11.095857"><ele>209.0</ele><time>2026-03-21T14:28:19.594Z</time></trkpt><trkpt lat="44.4100067" lon="11.0958032"><ele>209.5</ele><time>2026-03-21T14:28:20.595Z</time></trkpt><trkpt lat="44.409974" lon="11.0957217"><ele>210.0</ele><time>2026-03-21T14:28:21.595Z</time></trkpt><trkpt lat="44.4099344" lon="11.095628"><ele>210.4</ele><time>2026-03-21T14:28:22.596Z</time></trkpt><trkpt lat="44.4098963" lon="11.095506"><ele>210.8</ele><time>2026-03-21T14:28:23.594Z</time></trkpt><trkpt lat="44.4098364" lon="11.0953907"><ele>211.2</ele><time>2026-03-21T14:28:24.593Z</time></trkpt><trkpt lat="44.4097733" lon="11.0953237"><ele>211.6</ele><time>2026-03-21T14:28:25.595Z</time></trkpt><trkpt lat="44.4097038" lon="11.0952478"><ele>212.0</ele><time>2026-03-21T14:28:26.595Z</time></trkpt><trkpt lat="44.4096051" lon="11.0951236"><ele>212.2</ele><time>2026-03-21T14:28:28.595Z</time></trkpt><trkpt lat="44.4095529" lon="11.0950243"><ele>212.39999999999998</ele><time>2026-03-21T14:28:29.595Z</time></trkpt><trkpt lat="44.4095009" lon="11.0949173"><ele>212.60000000000002</ele><time>2026-03-21T14:28:30.596Z</time></trkpt><trkpt lat="44.4094269" lon="11.0947977"><ele>212.8</ele><time>2026-03-21T14:28:31.595Z</time></trkpt><trkpt lat="44.4093632" lon="11.0947029"><ele>213.0</ele><time>2026-03-21T14:28:32.595Z</time></trkpt><trkpt lat="44.4093259" lon="11.0945911"><ele>213.16666666666666</ele><time>2026-03-21T14:28:33.596Z</time></trkpt><trkpt lat="44.4092646" lon="11.0944998"><ele>213.33333333333331</ele><time>2026-03-21T14:28:34.594Z</time></trkpt><trkpt lat="44.4092115" lon="11.0944272"><ele>213.5</ele><time>2026-03-21T14:28:35.596Z</time></trkpt><trkpt lat="44.4091325" lon="11.0943843"><ele>213.66666666666666</ele><time>2026-03-21T14:28:36.593Z</time></trkpt><trkpt lat="44.4090543" lon="11.094315"><ele>213.83333333333331</ele><time>2026-03-21T14:28:37.594Z</time></trkpt><trkpt lat="44.4089626" lon="11.0942658"><ele>214.0</ele><time>2026-03-21T14:28:38.596Z</time></trkpt><trkpt lat="44.4088445" lon="11.0941889"><ele>214.6</ele><time>2026-03-21T14:28:39.594Z</time></trkpt><trkpt lat="44.4087211" lon="11.0940383"><ele>215.2</ele><time>2026-03-21T14:28:41.596Z</time></trkpt><trkpt lat="44.4086684" lon="11.0939725"><ele>215.79999999999998</ele><time>2026-03-21T14:28:42.595Z</time></trkpt><trkpt lat="44.4085747" lon="11.0939332"><ele>216.39999999999998</ele><time>2026-03-21T14:28:44.594Z</time></trkpt><trkpt lat="44.4084843" lon="11.0939394"><ele>217.0</ele><time>2026-03-21T14:28:46.595Z</time></trkpt><trkpt lat="44.4084347" lon="11.0938678"><ele>217.0</ele><time>2026-03-21T14:28:48.596Z</time></trkpt><trkpt lat="44.4083532" lon="11.093777"><ele>217.0</ele><time>2026-03-21T14:28:50.595Z</time></trkpt><trkpt lat="44.4082743" lon="11.0937284"><ele>217.0</ele><time>2026-03-21T14:28:55.596Z</time></trkpt><trkpt lat="44.4082224" lon="11.0937906"><ele>217.0</ele><time>2026-03-21T14:29:00.595Z</time></trkpt><trkpt lat="44.4081597" lon="11.0938898"><ele>217.0</ele><time>2026-03-21T14:29:20.596Z</time></trkpt><trkpt lat="44.4080868" lon="11.0940402"><ele>216.8</ele><time>2026-03-21T14:29:22.594Z</time></trkpt><trkpt lat="44.4080357" lon="11.0941327"><ele>216.6</ele><time>2026-03-21T14:29:23.596Z</time></trkpt><trkpt lat="44.4079849" lon="11.0942341"><ele>216.40000000000003</ele><time>2026-03-21T14:29:24.596Z</time></trkpt><trkpt lat="44.407929" lon="11.0943404"><ele>216.20000000000002</ele><time>2026-03-21T14:29:25.594Z</time></trkpt><trkpt lat="44.4078734" lon="11.0944495"><ele>216.0</ele><time>2026-03-21T14:29:26.594Z</time></trkpt><trkpt lat="44.407813" lon="11.0945552"><ele>216.0</ele><time>2026-03-21T14:29:27.595Z</time></trkpt><trkpt lat="44.4077599" lon="11.0946443"><ele>216.0</ele><time>2026-03-21T14:29:28.595Z</time></trkpt><trkpt lat="44.4077164" lon="11.0947185"><ele>216.0</ele><time>2026-03-21T14:29:29.594Z</time></trkpt><trkpt lat="44.4076565" lon="11.0948294"><ele>216.0</ele><time>2026-03-21T14:29:31.595Z</time></trkpt><trkpt lat="44.407578" lon="11.094865"><ele>216.0</ele><time>2026-03-21T14:29:33.594Z</time></trkpt><trkpt lat="44.407479" lon="11.0948256"><ele>216.0</ele><time>2026-03-21T14:29:35.594Z</time></trkpt><trkpt lat="44.4074232" lon="11.0947707"><ele>216.0</ele><time>2026-03-21T14:29:36.595Z</time></trkpt><trkpt lat="44.4073855" lon="11.0946925"><ele>216.0</ele><time>2026-03-21T14:29:37.594Z</time></trkpt><trkpt lat="44.4073447" lon="11.0945976"><ele>216.0</ele><time>2026-03-21T14:29:38.594Z</time></trkpt><trkpt lat="44.4072998" lon="11.094497"><ele>216.0</ele><time>2026-03-21T14:29:39.595Z</time></trkpt><trkpt lat="44.4072623" lon="11.0943975"><ele>216.0</ele><time>2026-03-21T14:29:40.595Z</time></trkpt><trkpt lat="44.407219" lon="11.0942883"><ele>216.0</ele><time>2026-03-21T14:29:41.596Z</time></trkpt><trkpt lat="44.4071791" lon="11.0941668"><ele>216.60000000000002</ele><time>2026-03-21T14:29:42.596Z</time></trkpt><trkpt lat="44.4071401" lon="11.0940389"><ele>217.20000000000002</ele><time>2026-03-21T14:29:43.595Z</time></trkpt><trkpt lat="44.4071021" lon="11.0939006"><ele>217.79999999999998</ele><time>2026-03-21T14:29:44.595Z</time></trkpt><trkpt lat="44.4070735" lon="11.0937509"><ele>218.39999999999998</ele><time>2026-03-21T14:29:45.596Z</time></trkpt><trkpt lat="44.4070408" lon="11.0936117"><ele>219.0</ele><time>2026-03-21T14:29:46.596Z</time></trkpt><trkpt lat="44.4069993" lon="11.0934862"><ele>219.0</ele><time>2026-03-21T14:29:47.596Z</time></trkpt><trkpt lat="44.406946" lon="11.0933515"><ele>218.99999999999997</ele><time>2026-03-21T14:29:48.595Z</time></trkpt><trkpt lat="44.406897" lon="11.0932251"><ele>218.99999999999997</ele><time>2026-03-21T14:29:49.595Z</time></trkpt><trkpt lat="44.4068451" lon="11.0931051"><ele>219.0</ele><time>2026-03-21T14:29:50.595Z</time></trkpt><trkpt lat="44.406788" lon="11.0929795"><ele>219.0</ele><time>2026-03-21T14:29:51.595Z</time></trkpt><trkpt lat="44.4067275" lon="11.0928489"><ele>218.6</ele><time>2026-03-21T14:29:52.594Z</time></trkpt><trkpt lat="44.4066656" lon="11.0927154"><ele>218.2</ele><time>2026-03-21T14:29:53.594Z</time></trkpt><trkpt lat="44.4066043" lon="11.0925951"><ele>217.79999999999998</ele><time>2026-03-21T14:29:54.595Z</time></trkpt><trkpt lat="44.406547" lon="11.0924762"><ele>217.39999999999998</ele><time>2026-03-21T14:29:55.595Z</time></trkpt><trkpt lat="44.4064943" lon="11.0923437"><ele>217.0</ele><time>2026-03-21T14:29:56.595Z</time></trkpt><trkpt lat="44.4064336" lon="11.0922152"><ele>217.0</ele><time>2026-03-21T14:29:57.595Z</time></trkpt><trkpt lat="44.406377" lon="11.092088"><ele>217.0</ele><time>2026-03-21T14:29:58.594Z</time></trkpt><trkpt lat="44.4063229" lon="11.0919572"><ele>217.0</ele><time>2026-03-21T14:29:59.595Z</time></trkpt><trkpt lat="44.4062795" lon="11.0918547"><ele>217.0</ele><time>2026-03-21T14:30:00.595Z</time></trkpt><trkpt lat="44.4062421" lon="11.0917574"><ele>217.0</ele><time>2026-03-21T14:30:01.595Z</time></trkpt><trkpt lat="44.4061939" lon="11.0915964"><ele>216.99999999999997</ele><time>2026-03-21T14:30:03.595Z</time></trkpt><trkpt lat="44.4061591" lon="11.0915224"><ele>217.0</ele><time>2026-03-21T14:30:04.595Z</time></trkpt><trkpt lat="44.4061026" lon="11.0914389"><ele>217.0</ele><time>2026-03-21T14:30:05.595Z</time></trkpt><trkpt lat="44.4060272" lon="11.0913806"><ele>217.0</ele><time>2026-03-21T14:30:06.595Z</time></trkpt><trkpt lat="44.405944" lon="11.0913235"><ele>216.99999999999997</ele><time>2026-03-21T14:30:07.595Z</time></trkpt><trkpt lat="44.4058652" lon="11.0912407"><ele>217.0</ele><time>2026-03-21T14:30:08.595Z</time></trkpt><trkpt lat="44.405794" lon="11.0911227"><ele>217.0</ele><time>2026-03-21T14:30:09.595Z</time></trkpt><trkpt lat="44.405726" lon="11.0909969"><ele>217.0</ele><time>2026-03-21T14:30:10.595Z</time></trkpt><trkpt lat="44.405664" lon="11.0908413"><ele>217.0</ele><time>2026-03-21T14:30:11.595Z</time></trkpt><trkpt lat="44.405603" lon="11.0906753"><ele>217.0</ele><time>2026-03-21T14:30:12.594Z</time></trkpt><trkpt lat="44.4055343" lon="11.0905133"><ele>218.25</ele><time>2026-03-21T14:30:13.594Z</time></trkpt><trkpt lat="44.4054724" lon="11.0903528"><ele>219.5</ele><time>2026-03-21T14:30:14.595Z</time></trkpt><trkpt lat="44.4054145" lon="11.0902127"><ele>220.75</ele><time>2026-03-21T14:30:15.595Z</time></trkpt><trkpt lat="44.4053501" lon="11.090091"><ele>222.0</ele><time>2026-03-21T14:30:16.594Z</time></trkpt><trkpt lat="44.4052744" lon="11.0899667"><ele>221.6</ele><time>2026-03-21T14:30:17.596Z</time></trkpt><trkpt lat="44.405196" lon="11.0898526"><ele>221.2</ele><time>2026-03-21T14:30:18.594Z</time></trkpt><trkpt lat="44.405123" lon="11.0897499"><ele>220.8</ele><time>2026-03-21T14:30:19.594Z</time></trkpt><trkpt lat="44.4050474" lon="11.0896721"><ele>220.4</ele><time>2026-03-21T14:30:20.593Z</time></trkpt><trkpt lat="44.4049672" lon="11.0896"><ele>220.0</ele><time>2026-03-21T14:30:21.595Z</time></trkpt><trkpt lat="44.4048886" lon="11.089547"><ele>219.99999999999997</ele><time>2026-03-21T14:30:22.596Z</time></trkpt><trkpt lat="44.4048124" lon="11.0895093"><ele>220.0</ele><time>2026-03-21T14:30:23.595Z</time></trkpt><trkpt lat="44.4047372" lon="11.0894892"><ele>220.0</ele><time>2026-03-21T14:30:24.595Z</time></trkpt><trkpt lat="44.4046642" lon="11.089488"><ele>220.0</ele><time>2026-03-21T14:30:25.594Z</time></trkpt><trkpt lat="44.4045801" lon="11.0894985"><ele>219.99999999999997</ele><time>2026-03-21T14:30:26.596Z</time></trkpt><trkpt lat="44.4044961" lon="11.0895392"><ele>220.0</ele><time>2026-03-21T14:30:27.595Z</time></trkpt><trkpt lat="44.4044136" lon="11.0895831"><ele>220.4</ele><time>2026-03-21T14:30:28.595Z</time></trkpt><trkpt lat="44.4043266" lon="11.0896145"><ele>220.8</ele><time>2026-03-21T14:30:29.595Z</time></trkpt><trkpt lat="44.4042271" lon="11.0896397"><ele>221.2</ele><time>2026-03-21T14:30:30.596Z</time></trkpt><trkpt lat="44.4041229" lon="11.0896303"><ele>221.6</ele><time>2026-03-21T14:30:31.595Z</time></trkpt><trkpt lat="44.4040204" lon="11.0896179"><ele>222.0</ele><time>2026-03-21T14:30:32.596Z</time></trkpt><trkpt lat="44.4039303" lon="11.0895992"><ele>222.0</ele><time>2026-03-21T14:30:33.595Z</time></trkpt><trkpt lat="44.4038415" lon="11.0895789"><ele>222.0</ele><time>2026-03-21T14:30:34.595Z</time></trkpt><trkpt lat="44.4037582" lon="11.0895664"><ele>222.0</ele><time>2026-03-21T14:30:35.594Z</time></trkpt><trkpt lat="44.4036756" lon="11.089587"><ele>222.0</ele><time>2026-03-21T14:30:36.596Z</time></trkpt><trkpt lat="44.4036097" lon="11.0896429"><ele>222.0</ele><time>2026-03-21T14:30:37.596Z</time></trkpt><trkpt lat="44.403549" lon="11.0897188"><ele>222.0</ele><time>2026-03-21T14:30:38.595Z</time></trkpt><trkpt lat="44.4034996" lon="11.089784"><ele>222.5</ele><time>2026-03-21T14:30:39.596Z</time></trkpt><trkpt lat="44.4034167" lon="11.0898919"><ele>223.0</ele><time>2026-03-21T14:30:41.595Z</time></trkpt><trkpt lat="44.4033341" lon="11.0899763"><ele>223.5</ele><time>2026-03-21T14:30:43.595Z</time></trkpt><trkpt lat="44.4032817" lon="11.0900423"><ele>224.0</ele><time>2026-03-21T14:30:45.594Z</time></trkpt><trkpt lat="44.4032223" lon="11.0900958"><ele>224.5</ele><time>2026-03-21T14:30:48.595Z</time></trkpt><trkpt lat="44.4031594" lon="11.0901193"><ele>225.0</ele><time>2026-03-21T14:30:51.595Z</time></trkpt><trkpt lat="44.403232" lon="11.0901207"><ele>225.0</ele><time>2026-03-21T14:30:55.594Z</time></trkpt><trkpt lat="44.4033201" lon="11.0900255"><ele>225.0</ele><time>2026-03-21T14:30:57.595Z</time></trkpt><trkpt lat="44.403415" lon="11.0899204"><ele>225.0</ele><time>2026-03-21T14:30:59.595Z</time></trkpt><trkpt lat="44.4034664" lon="11.0898613"><ele>225.0</ele><time>2026-03-21T14:31:00.594Z</time></trkpt><trkpt lat="44.4035179" lon="11.0898065"><ele>225.0</ele><time>2026-03-21T14:31:01.595Z</time></trkpt><trkpt lat="44.4035544" lon="11.0897125"><ele>225.0</ele><time>2026-03-21T14:31:03.596Z</time></trkpt><trkpt lat="44.4035106" lon="11.0895811"><ele>225.00000000000003</ele><time>2026-03-21T14:31:06.594Z</time></trkpt><trkpt lat="44.4034512" lon="11.0895247"><ele>225.0</ele><time>2026-03-21T14:33:28.596Z</time></trkpt><trkpt lat="44.4034506" lon="11.089426"><ele>225.00000000000003</ele><time>2026-03-21T14:33:51.596Z</time></trkpt><trkpt lat="44.4034105" lon="11.089348"><ele>225.00000000000003</ele><time>2026-03-21T14:34:08.595Z</time></trkpt><trkpt lat="44.4034034" lon="11.0892587"><ele>225.0</ele><time>2026-03-21T14:34:11.595Z</time></trkpt><trkpt lat="44.4034182" lon="11.0891677"><ele>225.00000000000003</ele><time>2026-03-21T14:34:14.595Z</time></trkpt><trkpt lat="44.4033928" lon="11.0890777"><ele>225.00000000000003</ele><time>2026-03-21T14:34:21.595Z</time></trkpt><trkpt lat="44.4033433" lon="11.0889578"><ele>224.8571428571429</ele><time>2026-03-21T14:34:23.596Z</time></trkpt><trkpt lat="44.4032831" lon="11.0888694"><ele>224.71428571428572</ele><time>2026-03-21T14:34:25.595Z</time></trkpt><trkpt lat="44.4032409" lon="11.0887848"><ele>224.57142857142858</ele><time>2026-03-21T14:34:39.595Z</time></trkpt><trkpt lat="44.4032139" lon="11.0887026"><ele>224.42857142857144</ele><time>2026-03-21T14:34:45.595Z</time></trkpt><trkpt lat="44.4031611" lon="11.0886534"><ele>224.28571428571428</ele><time>2026-03-21T14:34:47.595Z</time></trkpt><trkpt lat="44.403121" lon="11.0885846"><ele>224.14285714285714</ele><time>2026-03-21T14:34:50.595Z</time></trkpt><trkpt lat="44.4031588" lon="11.0885098"><ele>224.0</ele><time>2026-03-21T14:34:53.596Z</time></trkpt><trkpt lat="44.4032225" lon="11.0885"><ele>224.00000000000003</ele><time>2026-03-21T14:34:56.595Z</time></trkpt><trkpt lat="44.4032749" lon="11.0884397"><ele>224.0</ele><time>2026-03-21T14:34:59.596Z</time></trkpt><trkpt lat="44.4033294" lon="11.0883925"><ele>224.0</ele><time>2026-03-21T14:35:05.595Z</time></trkpt><trkpt lat="44.4034026" lon="11.0883881"><ele>224.0</ele><time>2026-03-21T14:35:08.595Z</time></trkpt><trkpt lat="44.4034749" lon="11.0883955"><ele>224.00000000000003</ele><time>2026-03-21T14:35:11.595Z</time></trkpt><trkpt lat="44.4035743" lon="11.0884107"><ele>224.0</ele><time>2026-03-21T14:35:13.595Z</time></trkpt><trkpt lat="44.4036501" lon="11.0884132"><ele>224.00000000000003</ele><time>2026-03-21T14:35:15.596Z</time></trkpt><trkpt lat="44.4037205" lon="11.0884091"><ele>224.0</ele><time>2026-03-21T14:35:17.596Z</time></trkpt><trkpt lat="44.4037888" lon="11.08842"><ele>224.0</ele><time>2026-03-21T14:35:19.595Z</time></trkpt><trkpt lat="44.4038518" lon="11.0884283"><ele>224.0</ele><time>2026-03-21T14:35:21.596Z</time></trkpt><trkpt lat="44.4039313" lon="11.0884327"><ele>224.00000000000003</ele><time>2026-03-21T14:35:23.595Z</time></trkpt><trkpt lat="44.4040385" lon="11.0884271"><ele>224.0</ele><time>2026-03-21T14:35:25.596Z</time></trkpt><trkpt lat="44.4041055" lon="11.088427"><ele>224.00000000000003</ele><time>2026-03-21T14:35:26.595Z</time></trkpt><trkpt lat="44.4041971" lon="11.0884226"><ele>224.0</ele><time>2026-03-21T14:35:28.595Z</time></trkpt><trkpt lat="44.4042727" lon="11.088428"><ele>224.0</ele><time>2026-03-21T14:35:30.596Z</time></trkpt><trkpt lat="44.4043347" lon="11.088409"><ele>224.0</ele><time>2026-03-21T14:35:33.595Z</time></trkpt><trkpt lat="44.4043809" lon="11.0883204"><ele>224.00000000000003</ele><time>2026-03-21T14:35:36.595Z</time></trkpt><trkpt lat="44.4044247" lon="11.0882253"><ele>224.0</ele><time>2026-03-21T14:35:38.596Z</time></trkpt><trkpt lat="44.4044493" lon="11.0881301"><ele>224.0</ele><time>2026-03-21T14:35:40.596Z</time></trkpt><trkpt lat="44.4044281" lon="11.0882406"><ele>223.99999999999997</ele><time>2026-03-21T14:38:19.596Z</time></trkpt><trkpt lat="44.4043811" lon="11.0883507"><ele>223.99999999999997</ele><time>2026-03-21T14:38:21.596Z</time></trkpt><trkpt lat="44.4043295" lon="11.0884141"><ele>224.0</ele><time>2026-03-21T14:38:23.596Z</time></trkpt><trkpt lat="44.4044052" lon="11.0882988"><ele>224.0</ele><time>2026-03-21T14:39:12.595Z</time></trkpt><trkpt lat="44.4044623" lon="11.0881823"><ele>224.00000000000003</ele><time>2026-03-21T14:39:14.596Z</time></trkpt><trkpt lat="44.4044773" lon="11.088088"><ele>224.0</ele><time>2026-03-21T14:39:41.596Z</time></trkpt><trkpt lat="44.4044018" lon="11.0879989"><ele>224.0</ele><time>2026-03-21T14:39:44.595Z</time></trkpt><trkpt lat="44.4043246" lon="11.0879306"><ele>224.0</ele><time>2026-03-21T14:39:46.597Z</time></trkpt><trkpt lat="44.4042721" lon="11.0878637"><ele>224.00000000000003</ele><time>2026-03-21T14:39:48.596Z</time></trkpt><trkpt lat="44.4042185" lon="11.0877994"><ele>224.0</ele><time>2026-03-21T14:39:50.597Z</time></trkpt><trkpt lat="44.4041453" lon="11.0877399"><ele>224.00000000000003</ele><time>2026-03-21T14:39:52.595Z</time></trkpt><trkpt lat="44.4040601" lon="11.0876561"><ele>224.0</ele><time>2026-03-21T14:39:54.596Z</time></trkpt><trkpt lat="44.403989" lon="11.0876"><ele>224.0</ele><time>2026-03-21T14:39:56.597Z</time></trkpt><trkpt lat="44.4039045" lon="11.087546"><ele>224.0</ele><time>2026-03-21T14:39:58.596Z</time></trkpt><trkpt lat="44.403825" lon="11.0874923"><ele>224.00000000000003</ele><time>2026-03-21T14:40:00.596Z</time></trkpt><trkpt lat="44.4037652" lon="11.0874219"><ele>224.0</ele><time>2026-03-21T14:40:02.596Z</time></trkpt><trkpt lat="44.4037042" lon="11.0873767"><ele>224.33333333333334</ele><time>2026-03-21T14:40:08.596Z</time></trkpt><trkpt lat="44.4036694" lon="11.0872907"><ele>224.66666666666669</ele><time>2026-03-21T14:40:14.595Z</time></trkpt><trkpt lat="44.4036405" lon="11.0871803"><ele>225.0</ele><time>2026-03-21T14:40:18.597Z</time></trkpt><trkpt lat="44.4035325" lon="11.0871217"><ele>225.33333333333331</ele><time>2026-03-21T14:42:57.596Z</time></trkpt><trkpt lat="44.4034815" lon="11.087182"><ele>225.66666666666666</ele><time>2026-03-21T14:43:00.596Z</time></trkpt><trkpt lat="44.4034491" lon="11.0873101"><ele>226.0</ele><time>2026-03-21T14:43:02.596Z</time></trkpt><trkpt lat="44.4034109" lon="11.0874532"><ele>226.0</ele><time>2026-03-21T14:43:04.597Z</time></trkpt><trkpt lat="44.4033812" lon="11.0875419"><ele>226.00000000000003</ele><time>2026-03-21T14:43:06.595Z</time></trkpt><trkpt lat="44.4032857" lon="11.0876101"><ele>226.00000000000003</ele><time>2026-03-21T14:43:09.596Z</time></trkpt><trkpt lat="44.4031782" lon="11.0876077"><ele>226.0</ele><time>2026-03-21T14:43:11.598Z</time></trkpt><trkpt lat="44.4030887" lon="11.0875338"><ele>226.0</ele><time>2026-03-21T14:43:13.596Z</time></trkpt><trkpt lat="44.4029705" lon="11.0874733"><ele>226.33333333333331</ele><time>2026-03-21T14:43:15.596Z</time></trkpt><trkpt lat="44.4029105" lon="11.0874405"><ele>226.66666666666666</ele><time>2026-03-21T14:43:16.596Z</time></trkpt><trkpt lat="44.4028421" lon="11.0874045"><ele>227.0</ele><time>2026-03-21T14:43:17.596Z</time></trkpt><trkpt lat="44.4027479" lon="11.0873661"><ele>227.33333333333331</ele><time>2026-03-21T14:43:19.596Z</time></trkpt><trkpt lat="44.4026439" lon="11.0873344"><ele>227.66666666666666</ele><time>2026-03-21T14:43:21.597Z</time></trkpt><trkpt lat="44.4025556" lon="11.0872878"><ele>228.0</ele><time>2026-03-21T14:43:23.597Z</time></trkpt><trkpt lat="44.4024547" lon="11.0872455"><ele>228.33333333333334</ele><time>2026-03-21T14:43:25.596Z</time></trkpt><trkpt lat="44.4023825" lon="11.0872142"><ele>228.66666666666669</ele><time>2026-03-21T14:43:28.597Z</time></trkpt><trkpt lat="44.4023373" lon="11.0872794"><ele>229.0</ele><time>2026-03-21T14:43:31.596Z</time></trkpt><trkpt lat="44.4022726" lon="11.0873401"><ele>229.33333333333334</ele><time>2026-03-21T14:43:34.596Z</time></trkpt><trkpt lat="44.4021786" lon="11.0872983"><ele>229.66666666666669</ele><time>2026-03-21T14:43:44.597Z</time></trkpt><trkpt lat="44.402125" lon="11.0872264"><ele>230.0</ele><time>2026-03-21T14:43:45.597Z</time></trkpt><trkpt lat="44.4020556" lon="11.0871788"><ele>230.0</ele><time>2026-03-21T14:43:47.595Z</time></trkpt><trkpt lat="44.4019643" lon="11.0871262"><ele>230.0</ele><time>2026-03-21T14:43:49.596Z</time></trkpt><trkpt lat="44.4018492" lon="11.087069"><ele>230.0</ele><time>2026-03-21T14:43:51.596Z</time></trkpt><trkpt lat="44.4017428" lon="11.0870129"><ele>230.0</ele><time>2026-03-21T14:43:53.596Z</time></trkpt><trkpt lat="44.4016476" lon="11.0869768"><ele>230.0</ele><time>2026-03-21T14:43:55.596Z</time></trkpt><trkpt lat="44.4015714" lon="11.0869556"><ele>230.00000000000003</ele><time>2026-03-21T14:43:57.599Z</time></trkpt><trkpt lat="44.4015016" lon="11.086912"><ele>230.0</ele><time>2026-03-21T14:43:59.597Z</time></trkpt><trkpt lat="44.4014127" lon="11.0869213"><ele>230.0</ele><time>2026-03-21T14:44:01.597Z</time></trkpt><trkpt lat="44.4013449" lon="11.0869026"><ele>230.0</ele><time>2026-03-21T14:44:03.596Z</time></trkpt><trkpt lat="44.401278" lon="11.0868501"><ele>230.00000000000003</ele><time>2026-03-21T14:44:05.597Z</time></trkpt><trkpt lat="44.4012072" lon="11.0867989"><ele>230.0</ele><time>2026-03-21T14:44:07.598Z</time></trkpt><trkpt lat="44.4011441" lon="11.0867206"><ele>230.4</ele><time>2026-03-21T14:44:09.597Z</time></trkpt><trkpt lat="44.4010894" lon="11.0866475"><ele>230.8</ele><time>2026-03-21T14:44:11.597Z</time></trkpt><trkpt lat="44.4009807" lon="11.0866068"><ele>231.2</ele><time>2026-03-21T14:44:13.598Z</time></trkpt><trkpt lat="44.4009313" lon="11.0865218"><ele>231.6</ele><time>2026-03-21T14:44:15.597Z</time></trkpt><trkpt lat="44.4008848" lon="11.0864316"><ele>232.0</ele><time>2026-03-21T14:44:16.596Z</time></trkpt><trkpt lat="44.4007909" lon="11.0863248"><ele>232.2</ele><time>2026-03-21T14:44:18.596Z</time></trkpt><trkpt lat="44.4007031" lon="11.0861915"><ele>232.39999999999998</ele><time>2026-03-21T14:44:20.596Z</time></trkpt><trkpt lat="44.4006406" lon="11.0860409"><ele>232.60000000000002</ele><time>2026-03-21T14:44:22.596Z</time></trkpt><trkpt lat="44.4005676" lon="11.0859248"><ele>232.8</ele><time>2026-03-21T14:44:24.595Z</time></trkpt><trkpt lat="44.4005319" lon="11.0858356"><ele>233.0</ele><time>2026-03-21T14:44:25.597Z</time></trkpt><trkpt lat="44.4005014" lon="11.0857517"><ele>233.00000000000003</ele><time>2026-03-21T14:44:26.597Z</time></trkpt><trkpt lat="44.4004656" lon="11.0856152"><ele>233.0</ele><time>2026-03-21T14:44:28.597Z</time></trkpt><trkpt lat="44.4004345" lon="11.0855318"><ele>233.0</ele><time>2026-03-21T14:44:29.596Z</time></trkpt><trkpt lat="44.4003994" lon="11.085456"><ele>233.0</ele><time>2026-03-21T14:44:30.597Z</time></trkpt><trkpt lat="44.400332" lon="11.0853458"><ele>233.00000000000003</ele><time>2026-03-21T14:44:32.598Z</time></trkpt><trkpt lat="44.4002819" lon="11.0852614"><ele>233.0</ele><time>2026-03-21T14:44:34.597Z</time></trkpt><trkpt lat="44.4002658" lon="11.0851669"><ele>233.00000000000003</ele><time>2026-03-21T14:44:37.597Z</time></trkpt><trkpt lat="44.4002708" lon="11.0850609"><ele>233.0</ele><time>2026-03-21T14:44:40.597Z</time></trkpt><trkpt lat="44.4002316" lon="11.0849216"><ele>233.0</ele><time>2026-03-21T14:44:43.598Z</time></trkpt><trkpt lat="44.4002141" lon="11.0848005"><ele>233.0</ele><time>2026-03-21T14:44:45.597Z</time></trkpt><trkpt lat="44.4001767" lon="11.084689"><ele>233.00000000000003</ele><time>2026-03-21T14:44:48.597Z</time></trkpt><trkpt lat="44.4001156" lon="11.0846443"><ele>233.0</ele><time>2026-03-21T14:44:50.595Z</time></trkpt><trkpt lat="44.4000772" lon="11.084534"><ele>233.28571428571428</ele><time>2026-03-21T14:44:53.597Z</time></trkpt><trkpt lat="44.400034" lon="11.0844634"><ele>233.57142857142856</ele><time>2026-03-21T14:44:55.597Z</time></trkpt><trkpt lat="44.399972" lon="11.0844259"><ele>233.85714285714283</ele><time>2026-03-21T14:44:57.598Z</time></trkpt><trkpt lat="44.3998914" lon="11.0844084"><ele>234.14285714285714</ele><time>2026-03-21T14:45:07.597Z</time></trkpt><trkpt lat="44.3998285" lon="11.0843904"><ele>234.4285714285714</ele><time>2026-03-21T14:45:10.598Z</time></trkpt><trkpt lat="44.3997758" lon="11.0843382"><ele>234.7142857142857</ele><time>2026-03-21T14:45:34.596Z</time></trkpt><trkpt lat="44.3997445" lon="11.0842478"><ele>235.0</ele><time>2026-03-21T14:45:37.597Z</time></trkpt><trkpt lat="44.3997219" lon="11.08415"><ele>234.99999999999997</ele><time>2026-03-21T14:45:42.598Z</time></trkpt><trkpt lat="44.3996752" lon="11.0840521"><ele>235.0</ele><time>2026-03-21T14:46:00.597Z</time></trkpt><trkpt lat="44.3996254" lon="11.0839721"><ele>235.0</ele><time>2026-03-21T14:46:02.598Z</time></trkpt><trkpt lat="44.3995719" lon="11.0838794"><ele>235.0</ele><time>2026-03-21T14:46:04.597Z</time></trkpt><trkpt lat="44.3995129" lon="11.0838245"><ele>234.99999999999997</ele><time>2026-03-21T14:46:22.596Z</time></trkpt><trkpt lat="44.3994429" lon="11.0837637"><ele>235.0</ele><time>2026-03-21T14:46:25.598Z</time></trkpt><trkpt lat="44.3993849" lon="11.0837209"><ele>234.66666666666666</ele><time>2026-03-21T14:46:27.598Z</time></trkpt><trkpt lat="44.3993261" lon="11.0836892"><ele>234.33333333333331</ele><time>2026-03-21T14:46:29.597Z</time></trkpt><trkpt lat="44.3992659" lon="11.0836506"><ele>234.0</ele><time>2026-03-21T14:46:31.597Z</time></trkpt><trkpt lat="44.3992108" lon="11.0835527"><ele>233.66666666666669</ele><time>2026-03-21T14:46:49.597Z</time></trkpt><trkpt lat="44.3991416" lon="11.0834638"><ele>233.33333333333334</ele><time>2026-03-21T14:46:52.597Z</time></trkpt><trkpt lat="44.3990703" lon="11.0833697"><ele>233.0</ele><time>2026-03-21T14:46:55.597Z</time></trkpt><trkpt lat="44.3990111" lon="11.083283"><ele>233.33333333333334</ele><time>2026-03-21T14:46:57.597Z</time></trkpt><trkpt lat="44.3989637" lon="11.0832111"><ele>233.66666666666669</ele><time>2026-03-21T14:46:59.597Z</time></trkpt><trkpt lat="44.3989357" lon="11.0831098"><ele>234.0</ele><time>2026-03-21T14:47:03.597Z</time></trkpt><trkpt lat="44.3989104" lon="11.0829948"><ele>234.33333333333331</ele><time>2026-03-21T14:47:22.597Z</time></trkpt><trkpt lat="44.3988499" lon="11.0828951"><ele>234.66666666666666</ele><time>2026-03-21T14:47:25.598Z</time></trkpt><trkpt lat="44.3987792" lon="11.0828136"><ele>235.0</ele><time>2026-03-21T14:47:27.597Z</time></trkpt><trkpt lat="44.3987315" lon="11.0827545"><ele>235.33333333333331</ele><time>2026-03-21T14:47:29.597Z</time></trkpt><trkpt lat="44.398681" lon="11.0826479"><ele>235.66666666666666</ele><time>2026-03-21T14:47:32.596Z</time></trkpt><trkpt lat="44.3986502" lon="11.0825675"><ele>236.0</ele><time>2026-03-21T14:48:33.596Z</time></trkpt><trkpt lat="44.3986428" lon="11.0824656"><ele>236.33333333333331</ele><time>2026-03-21T14:48:36.597Z</time></trkpt><trkpt lat="44.3986543" lon="11.0823587"><ele>236.66666666666666</ele><time>2026-03-21T14:48:38.598Z</time></trkpt><trkpt lat="44.3986644" lon="11.0822416"><ele>237.0</ele><time>2026-03-21T14:48:40.598Z</time></trkpt><trkpt lat="44.3986518" lon="11.08213"><ele>236.99999999999997</ele><time>2026-03-21T14:48:43.596Z</time></trkpt><trkpt lat="44.3986181" lon="11.0820538"><ele>237.0</ele><time>2026-03-21T14:48:46.597Z</time></trkpt><trkpt lat="44.3985717" lon="11.0819858"><ele>236.99999999999997</ele><time>2026-03-21T14:48:49.597Z</time></trkpt><trkpt lat="44.3985048" lon="11.0819721"><ele>236.99999999999997</ele><time>2026-03-21T14:48:58.596Z</time></trkpt><trkpt lat="44.3984333" lon="11.0819442"><ele>237.0</ele><time>2026-03-21T14:49:09.597Z</time></trkpt><trkpt lat="44.3983764" lon="11.0819044"><ele>236.99999999999997</ele><time>2026-03-21T14:49:15.597Z</time></trkpt><trkpt lat="44.3983326" lon="11.0818257"><ele>236.99999999999997</ele><time>2026-03-21T14:49:19.596Z</time></trkpt><trkpt lat="44.3982527" lon="11.0818107"><ele>237.0</ele><time>2026-03-21T14:49:31.597Z</time></trkpt><trkpt lat="44.3981997" lon="11.0817619"><ele>237.0</ele><time>2026-03-21T14:49:33.597Z</time></trkpt><trkpt lat="44.3981363" lon="11.0816878"><ele>237.0</ele><time>2026-03-21T14:49:36.598Z</time></trkpt><trkpt lat="44.3980786" lon="11.081617"><ele>237.0</ele><time>2026-03-21T14:49:39.597Z</time></trkpt><trkpt lat="44.3980329" lon="11.0815282"><ele>237.0</ele><time>2026-03-21T14:49:42.597Z</time></trkpt><trkpt lat="44.3980175" lon="11.0814224"><ele>237.0</ele><time>2026-03-21T14:49:45.598Z</time></trkpt><trkpt lat="44.3980081" lon="11.0813034"><ele>237.16666666666666</ele><time>2026-03-21T14:49:51.597Z</time></trkpt><trkpt lat="44.398003" lon="11.0811975"><ele>237.33333333333331</ele><time>2026-03-21T14:49:53.597Z</time></trkpt><trkpt lat="44.3979973" lon="11.081076"><ele>237.5</ele><time>2026-03-21T14:49:55.597Z</time></trkpt><trkpt lat="44.3979667" lon="11.0809593"><ele>237.66666666666666</ele><time>2026-03-21T14:49:58.597Z</time></trkpt><trkpt lat="44.3979358" lon="11.0808459"><ele>237.83333333333331</ele><time>2026-03-21T14:50:01.597Z</time></trkpt><trkpt lat="44.397923" lon="11.0807307"><ele>238.0</ele><time>2026-03-21T14:50:04.596Z</time></trkpt><trkpt lat="44.3979256" lon="11.0806329"><ele>238.42857142857144</ele><time>2026-03-21T14:50:57.597Z</time></trkpt><trkpt lat="44.3979157" lon="11.0805261"><ele>238.85714285714286</ele><time>2026-03-21T14:51:00.598Z</time></trkpt><trkpt lat="44.3979652" lon="11.0804714"><ele>239.28571428571428</ele><time>2026-03-21T14:51:18.598Z</time></trkpt><trkpt lat="44.397949" lon="11.0803567"><ele>239.71428571428572</ele><time>2026-03-21T14:51:23.598Z</time></trkpt><trkpt lat="44.3979187" lon="11.0802599"><ele>240.14285714285717</ele><time>2026-03-21T14:51:26.598Z</time></trkpt><trkpt lat="44.3979113" lon="11.0801724"><ele>240.57142857142858</ele><time>2026-03-21T14:51:30.598Z</time></trkpt><trkpt lat="44.3978558" lon="11.0800948"><ele>241.0</ele><time>2026-03-21T14:51:38.598Z</time></trkpt><trkpt lat="44.3977797" lon="11.0800318"><ele>240.99999999999997</ele><time>2026-03-21T14:51:40.598Z</time></trkpt><trkpt lat="44.3977275" lon="11.0799486"><ele>241.0</ele><time>2026-03-21T14:51:42.597Z</time></trkpt><trkpt lat="44.3977033" lon="11.0798564"><ele>241.0</ele><time>2026-03-21T14:51:44.598Z</time></trkpt><trkpt lat="44.3976866" lon="11.0797573"><ele>241.0</ele><time>2026-03-21T14:51:46.598Z</time></trkpt><trkpt lat="44.3976594" lon="11.0796622"><ele>240.99999999999997</ele><time>2026-03-21T14:51:48.598Z</time></trkpt><trkpt lat="44.397626" lon="11.0795653"><ele>241.0</ele><time>2026-03-21T14:51:50.598Z</time></trkpt><trkpt lat="44.3975882" lon="11.0794497"><ele>241.16666666666666</ele><time>2026-03-21T14:51:53.598Z</time></trkpt><trkpt lat="44.3975342" lon="11.0793413"><ele>241.33333333333331</ele><time>2026-03-21T14:51:55.598Z</time></trkpt><trkpt lat="44.3974768" lon="11.0792288"><ele>241.5</ele><time>2026-03-21T14:51:57.598Z</time></trkpt><trkpt lat="44.3974373" lon="11.0791393"><ele>241.66666666666669</ele><time>2026-03-21T14:51:59.598Z</time></trkpt><trkpt lat="44.3974027" lon="11.0790213"><ele>241.83333333333334</ele><time>2026-03-21T14:52:02.598Z</time></trkpt><trkpt lat="44.3973779" lon="11.0789232"><ele>242.0</ele><time>2026-03-21T14:52:04.598Z</time></trkpt><trkpt lat="44.3973544" lon="11.0788213"><ele>242.0</ele><time>2026-03-21T14:52:06.597Z</time></trkpt><trkpt lat="44.397325" lon="11.0787314"><ele>242.0</ele><time>2026-03-21T14:52:08.597Z</time></trkpt><trkpt lat="44.3972708" lon="11.0786514"><ele>242.0</ele><time>2026-03-21T14:52:10.597Z</time></trkpt><trkpt lat="44.3971976" lon="11.0785885"><ele>242.0</ele><time>2026-03-21T14:52:12.599Z</time></trkpt><trkpt lat="44.3971281" lon="11.0784742"><ele>242.0</ele><time>2026-03-21T14:52:14.599Z</time></trkpt><trkpt lat="44.397067" lon="11.0783389"><ele>242.33333333333334</ele><time>2026-03-21T14:52:16.598Z</time></trkpt><trkpt lat="44.3970197" lon="11.0782343"><ele>242.66666666666669</ele><time>2026-03-21T14:52:18.598Z</time></trkpt><trkpt lat="44.3969658" lon="11.0781792"><ele>243.0</ele><time>2026-03-21T14:52:19.598Z</time></trkpt><trkpt lat="44.3969249" lon="11.0781032"><ele>243.33333333333331</ele><time>2026-03-21T14:52:20.599Z</time></trkpt><trkpt lat="44.3968704" lon="11.0780408"><ele>243.66666666666666</ele><time>2026-03-21T14:52:21.598Z</time></trkpt><trkpt lat="44.3967876" lon="11.0779742"><ele>244.0</ele><time>2026-03-21T14:52:22.599Z</time></trkpt><trkpt lat="44.3967307" lon="11.0779172"><ele>243.99999999999997</ele><time>2026-03-21T14:52:23.597Z</time></trkpt><trkpt lat="44.3966475" lon="11.0778479"><ele>244.0</ele><time>2026-03-21T14:52:25.598Z</time></trkpt><trkpt lat="44.3965955" lon="11.0777862"><ele>244.0</ele><time>2026-03-21T14:52:39.597Z</time></trkpt><trkpt lat="44.396552" lon="11.0776836"><ele>244.0</ele><time>2026-03-21T14:52:41.597Z</time></trkpt><trkpt lat="44.3965106" lon="11.0775633"><ele>243.99999999999997</ele><time>2026-03-21T14:52:43.599Z</time></trkpt><trkpt lat="44.3964766" lon="11.0774684"><ele>244.0</ele><time>2026-03-21T14:52:45.598Z</time></trkpt><trkpt lat="44.3964283" lon="11.0773803"><ele>244.0</ele><time>2026-03-21T14:52:47.597Z</time></trkpt><trkpt lat="44.3963808" lon="11.0772857"><ele>243.99999999999997</ele><time>2026-03-21T14:52:49.597Z</time></trkpt><trkpt lat="44.3963136" lon="11.077188"><ele>243.99999999999997</ele><time>2026-03-21T14:52:52.597Z</time></trkpt><trkpt lat="44.3962361" lon="11.0771283"><ele>244.0</ele><time>2026-03-21T14:52:54.598Z</time></trkpt><trkpt lat="44.3961716" lon="11.0770441"><ele>244.0</ele><time>2026-03-21T14:52:56.597Z</time></trkpt><trkpt lat="44.3961169" lon="11.0769235"><ele>244.49999999999997</ele><time>2026-03-21T14:52:58.598Z</time></trkpt><trkpt lat="44.3960795" lon="11.0768048"><ele>245.0</ele><time>2026-03-21T14:53:00.596Z</time></trkpt><trkpt lat="44.3960692" lon="11.0767148"><ele>245.5</ele><time>2026-03-21T14:53:01.597Z</time></trkpt><trkpt lat="44.3960251" lon="11.0765977"><ele>246.0</ele><time>2026-03-21T14:53:03.598Z</time></trkpt><trkpt lat="44.3959596" lon="11.0765397"><ele>246.49999999999997</ele><time>2026-03-21T14:53:05.598Z</time></trkpt><trkpt lat="44.3958505" lon="11.076531"><ele>247.0</ele><time>2026-03-21T14:53:07.597Z</time></trkpt><trkpt lat="44.3957781" lon="11.076531"><ele>246.99999999999997</ele><time>2026-03-21T14:53:08.598Z</time></trkpt><trkpt lat="44.3956933" lon="11.0765269"><ele>247.0</ele><time>2026-03-21T14:53:09.597Z</time></trkpt><trkpt lat="44.3956241" lon="11.0764977"><ele>247.0</ele><time>2026-03-21T14:53:10.598Z</time></trkpt><trkpt lat="44.3955426" lon="11.0764939"><ele>247.0</ele><time>2026-03-21T14:53:11.598Z</time></trkpt><trkpt lat="44.39547" lon="11.0764486"><ele>246.99999999999997</ele><time>2026-03-21T14:53:13.597Z</time></trkpt><trkpt lat="44.3953848" lon="11.0763838"><ele>247.0</ele><time>2026-03-21T14:53:15.598Z</time></trkpt><trkpt lat="44.3953266" lon="11.0763458"><ele>247.57142857142858</ele><time>2026-03-21T14:53:16.598Z</time></trkpt><trkpt lat="44.3952562" lon="11.0763144"><ele>248.1428571428571</ele><time>2026-03-21T14:53:17.597Z</time></trkpt><trkpt lat="44.3951948" lon="11.0762756"><ele>248.7142857142857</ele><time>2026-03-21T14:53:18.597Z</time></trkpt><trkpt lat="44.3951294" lon="11.0762519"><ele>249.28571428571428</ele><time>2026-03-21T14:53:19.597Z</time></trkpt><trkpt lat="44.3950541" lon="11.0762235"><ele>249.85714285714283</ele><time>2026-03-21T14:53:20.597Z</time></trkpt><trkpt lat="44.394992" lon="11.0761718"><ele>250.4285714285714</ele><time>2026-03-21T14:53:21.597Z</time></trkpt><trkpt lat="44.3949213" lon="11.0761537"><ele>250.99999999999997</ele><time>2026-03-21T14:53:22.598Z</time></trkpt><trkpt lat="44.3948547" lon="11.0761371"><ele>250.99999999999997</ele><time>2026-03-21T14:53:23.597Z</time></trkpt><trkpt lat="44.3947933" lon="11.0761174"><ele>251.0</ele><time>2026-03-21T14:53:24.599Z</time></trkpt><trkpt lat="44.3947286" lon="11.0760813"><ele>250.99999999999997</ele><time>2026-03-21T14:53:25.597Z</time></trkpt><trkpt lat="44.3946636" lon="11.0760431"><ele>250.99999999999997</ele><time>2026-03-21T14:53:26.598Z</time></trkpt><trkpt lat="44.3946026" lon="11.0760197"><ele>251.0</ele><time>2026-03-21T14:53:27.597Z</time></trkpt><trkpt lat="44.3945228" lon="11.0759965"><ele>250.99999999999997</ele><time>2026-03-21T14:53:28.597Z</time></trkpt><trkpt lat="44.3944406" lon="11.0759715"><ele>250.99999999999997</ele><time>2026-03-21T14:53:29.598Z</time></trkpt><trkpt lat="44.3943664" lon="11.0759399"><ele>251.16666666666669</ele><time>2026-03-21T14:53:30.599Z</time></trkpt><trkpt lat="44.3942915" lon="11.0759227"><ele>251.33333333333334</ele><time>2026-03-21T14:53:31.598Z</time></trkpt><trkpt lat="44.3942152" lon="11.0759016"><ele>251.5</ele><time>2026-03-21T14:53:32.599Z</time></trkpt><trkpt lat="44.3941411" lon="11.0758841"><ele>251.66666666666669</ele><time>2026-03-21T14:53:33.598Z</time></trkpt><trkpt lat="44.3940623" lon="11.0758551"><ele>251.83333333333334</ele><time>2026-03-21T14:53:34.598Z</time></trkpt><trkpt lat="44.3939865" lon="11.0758323"><ele>252.0</ele><time>2026-03-21T14:53:35.597Z</time></trkpt><trkpt lat="44.3939127" lon="11.0758038"><ele>252.5</ele><time>2026-03-21T14:53:36.598Z</time></trkpt><trkpt lat="44.3938376" lon="11.0757932"><ele>253.0</ele><time>2026-03-21T14:53:37.597Z</time></trkpt><trkpt lat="44.3937655" lon="11.0757711"><ele>253.5</ele><time>2026-03-21T14:53:38.597Z</time></trkpt><trkpt lat="44.3936942" lon="11.075741"><ele>254.0</ele><time>2026-03-21T14:53:39.597Z</time></trkpt><trkpt lat="44.3936173" lon="11.0757128"><ele>254.5</ele><time>2026-03-21T14:53:40.597Z</time></trkpt><trkpt lat="44.393532" lon="11.0756806"><ele>255.0</ele><time>2026-03-21T14:53:41.598Z</time></trkpt><trkpt lat="44.3934501" lon="11.0756385"><ele>255.0</ele><time>2026-03-21T14:53:42.597Z</time></trkpt><trkpt lat="44.3933666" lon="11.0755958"><ele>255.0</ele><time>2026-03-21T14:53:43.598Z</time></trkpt><trkpt lat="44.3932824" lon="11.0755487"><ele>255.0</ele><time>2026-03-21T14:53:44.596Z</time></trkpt><trkpt lat="44.3932027" lon="11.0755046"><ele>255.0</ele><time>2026-03-21T14:53:45.599Z</time></trkpt><trkpt lat="44.3931207" lon="11.0754419"><ele>255.0</ele><time>2026-03-21T14:53:46.598Z</time></trkpt><trkpt lat="44.3930412" lon="11.0753836"><ele>255.0</ele><time>2026-03-21T14:53:47.597Z</time></trkpt><trkpt lat="44.3929655" lon="11.0753027"><ele>256.0</ele><time>2026-03-21T14:53:48.599Z</time></trkpt><trkpt lat="44.3928827" lon="11.0752387"><ele>257.0</ele><time>2026-03-21T14:53:49.599Z</time></trkpt><trkpt lat="44.3927994" lon="11.0751813"><ele>258.0</ele><time>2026-03-21T14:53:50.597Z</time></trkpt><trkpt lat="44.3927163" lon="11.0751212"><ele>259.0</ele><time>2026-03-21T14:53:51.598Z</time></trkpt><trkpt lat="44.3926306" lon="11.0750633"><ele>260.0</ele><time>2026-03-21T14:53:52.597Z</time></trkpt><trkpt lat="44.3925381" lon="11.0749827"><ele>260.0</ele><time>2026-03-21T14:53:53.598Z</time></trkpt><trkpt lat="44.392451" lon="11.0749251"><ele>260.0</ele><time>2026-03-21T14:53:54.598Z</time></trkpt><trkpt lat="44.392376" lon="11.0748871"><ele>260.0</ele><time>2026-03-21T14:53:55.597Z</time></trkpt><trkpt lat="44.3922898" lon="11.074827"><ele>260.0</ele><time>2026-03-21T14:53:56.598Z</time></trkpt><trkpt lat="44.3922086" lon="11.0747674"><ele>260.0</ele><time>2026-03-21T14:53:57.597Z</time></trkpt><trkpt lat="44.392127" lon="11.0747248"><ele>260.5</ele><time>2026-03-21T14:53:58.598Z</time></trkpt><trkpt lat="44.39204" lon="11.0746768"><ele>261.0</ele><time>2026-03-21T14:53:59.598Z</time></trkpt><trkpt lat="44.3919701" lon="11.074653"><ele>261.5</ele><time>2026-03-21T14:54:00.599Z</time></trkpt><trkpt lat="44.3919053" lon="11.0746182"><ele>262.0</ele><time>2026-03-21T14:54:01.596Z</time></trkpt><trkpt lat="44.391832" lon="11.0745955"><ele>262.5</ele><time>2026-03-21T14:54:02.596Z</time></trkpt><trkpt lat="44.3917595" lon="11.0745855"><ele>263.0</ele><time>2026-03-21T14:54:03.597Z</time></trkpt><trkpt lat="44.3916835" lon="11.0745632"><ele>263.0</ele><time>2026-03-21T14:54:04.598Z</time></trkpt><trkpt lat="44.391613" lon="11.07454"><ele>263.0</ele><time>2026-03-21T14:54:05.597Z</time></trkpt><trkpt lat="44.3915417" lon="11.0745075"><ele>263.0</ele><time>2026-03-21T14:54:06.598Z</time></trkpt><trkpt lat="44.3914786" lon="11.074478"><ele>263.0</ele><time>2026-03-21T14:54:07.598Z</time></trkpt><trkpt lat="44.3914188" lon="11.0744438"><ele>263.0</ele><time>2026-03-21T14:54:08.598Z</time></trkpt><trkpt lat="44.3913427" lon="11.0744248"><ele>263.0</ele><time>2026-03-21T14:54:09.599Z</time></trkpt><trkpt lat="44.3912823" lon="11.0743966"><ele>263.0</ele><time>2026-03-21T14:54:10.596Z</time></trkpt><trkpt lat="44.3912098" lon="11.0743768"><ele>263.33333333333337</ele><time>2026-03-21T14:54:11.597Z</time></trkpt><trkpt lat="44.3911353" lon="11.0743592"><ele>263.6666666666667</ele><time>2026-03-21T14:54:12.599Z</time></trkpt><trkpt lat="44.3910532" lon="11.0743558"><ele>264.0</ele><time>2026-03-21T14:54:13.598Z</time></trkpt><trkpt lat="44.3909858" lon="11.0743486"><ele>264.3333333333333</ele><time>2026-03-21T14:54:14.597Z</time></trkpt><trkpt lat="44.3908632" lon="11.0743319"><ele>264.66666666666663</ele><time>2026-03-21T14:54:16.596Z</time></trkpt><trkpt lat="44.3908019" lon="11.0743068"><ele>265.0</ele><time>2026-03-21T14:54:17.597Z</time></trkpt><trkpt lat="44.3907375" lon="11.0742755"><ele>265.0</ele><time>2026-03-21T14:54:18.597Z</time></trkpt><trkpt lat="44.3906736" lon="11.0742451"><ele>265.0</ele><time>2026-03-21T14:54:19.598Z</time></trkpt><trkpt lat="44.3905923" lon="11.0742152"><ele>265.0</ele><time>2026-03-21T14:54:20.596Z</time></trkpt><trkpt lat="44.3905262" lon="11.0741811"><ele>265.0</ele><time>2026-03-21T14:54:21.596Z</time></trkpt><trkpt lat="44.3904553" lon="11.0741484"><ele>265.0</ele><time>2026-03-21T14:54:22.597Z</time></trkpt><trkpt lat="44.3903296" lon="11.0741012"><ele>265.0</ele><time>2026-03-21T14:54:24.597Z</time></trkpt><trkpt lat="44.3902535" lon="11.074075"><ele>264.5</ele><time>2026-03-21T14:54:25.597Z</time></trkpt><trkpt lat="44.3901627" lon="11.0740618"><ele>264.0</ele><time>2026-03-21T14:54:26.597Z</time></trkpt><trkpt lat="44.3900838" lon="11.0739997"><ele>263.5</ele><time>2026-03-21T14:54:27.597Z</time></trkpt><trkpt lat="44.3900048" lon="11.0739732"><ele>263.0</ele><time>2026-03-21T14:54:28.598Z</time></trkpt><trkpt lat="44.3899214" lon="11.0739312"><ele>262.5</ele><time>2026-03-21T14:54:29.597Z</time></trkpt><trkpt lat="44.3898566" lon="11.073901"><ele>262.0</ele><time>2026-03-21T14:54:30.598Z</time></trkpt><trkpt lat="44.3897729" lon="11.0738628"><ele>262.0</ele><time>2026-03-21T14:54:31.597Z</time></trkpt><trkpt lat="44.3896902" lon="11.0738122"><ele>262.0</ele><time>2026-03-21T14:54:32.597Z</time></trkpt><trkpt lat="44.3895966" lon="11.0737649"><ele>262.0</ele><time>2026-03-21T14:54:33.596Z</time></trkpt><trkpt lat="44.3895099" lon="11.0737027"><ele>262.0</ele><time>2026-03-21T14:54:34.598Z</time></trkpt><trkpt lat="44.3894408" lon="11.0736515"><ele>262.0</ele><time>2026-03-21T14:54:35.599Z</time></trkpt><trkpt lat="44.3893782" lon="11.0735923"><ele>262.0</ele><time>2026-03-21T14:54:36.597Z</time></trkpt><trkpt lat="44.3893191" lon="11.0735188"><ele>262.0</ele><time>2026-03-21T14:54:37.596Z</time></trkpt><trkpt lat="44.3892508" lon="11.0734483"><ele>262.0</ele><time>2026-03-21T14:54:38.597Z</time></trkpt><trkpt lat="44.3892036" lon="11.0733826"><ele>262.0</ele><time>2026-03-21T14:54:39.598Z</time></trkpt><trkpt lat="44.3891233" lon="11.0732671"><ele>262.0</ele><time>2026-03-21T14:54:41.599Z</time></trkpt><trkpt lat="44.3890443" lon="11.0732419"><ele>262.0</ele><time>2026-03-21T14:54:43.597Z</time></trkpt><trkpt lat="44.3889561" lon="11.0732787"><ele>262.0</ele><time>2026-03-21T14:54:45.597Z</time></trkpt><trkpt lat="44.3888683" lon="11.0733056"><ele>265.0</ele><time>2026-03-21T14:54:48.598Z</time></trkpt><trkpt lat="44.3888139" lon="11.0733542"><ele>266.0</ele><time>2026-03-21T14:54:51.597Z</time></trkpt></trkseg></trk></gpx>